<?xml version='1.0' encoding='UTF-8'?><gpx version="1.1" creator="JPX - https://github.com/jenetics/jpx" xmlns="http://www.topografix.com/GPX/1/1"><trk><trkseg><trkpt lat="45.689309947388935" lon="11.373286618581869"><ele>172.0</ele><time>2026-04-26T07:37:02.001Z</time></trkpt><trkpt lat="45.68929804862124" lon="11.373386560207011"><ele>172.0</ele><time>2026-04-26T07:38:31.999Z</time></trkpt><trkpt lat="45.68920619432199" lon="11.37333389657211"><ele>172.0</ele><time>2026-04-26T07:39:48.998Z</time></trkpt><trkpt lat="45.68923313011493" lon="11.373248349449478"><ele>172.0</ele><time>2026-04-26T07:39:52.998Z</time></trkpt><trkpt lat="45.68931841647522" lon="11.37320515141391"><ele>172.0</ele><time>2026-04-26T07:39:54.998Z</time></trkpt><trkpt lat="45.68943875235529" lon="11.37312987524154"><ele>172.39999999999998</ele><time>2026-04-26T07:39:56.998Z</time></trkpt><trkpt lat="45.68952310936191" lon="11.373083518342751"><ele>172.79999999999998</ele><time>2026-04-26T07:39:57.998Z</time></trkpt><trkpt lat="45.68961424950537" lon="11.373028739014908"><ele>173.2</ele><time>2026-04-26T07:39:58.998Z</time></trkpt><trkpt lat="45.689710688855456" lon="11.372983281426103"><ele>173.6</ele><time>2026-04-26T07:39:59.998Z</time></trkpt><trkpt lat="45.689815484447955" lon="11.372930898825254"><ele>174.0</ele><time>2026-04-26T07:40:00.998Z</time></trkpt><trkpt lat="45.689914899257296" lon="11.37288404705818"><ele>174.0</ele><time>2026-04-26T07:40:01.998Z</time></trkpt><trkpt lat="45.6900120948179" lon="11.37283853348081"><ele>174.0</ele><time>2026-04-26T07:40:02.998Z</time></trkpt><trkpt lat="45.69010865014983" lon="11.372793770263202"><ele>174.0</ele><time>2026-04-26T07:40:03.998Z</time></trkpt><trkpt lat="45.69020720526414" lon="11.37275089091655"><ele>174.0</ele><time>2026-04-26T07:40:04.998Z</time></trkpt><trkpt lat="45.69030832379567" lon="11.372708086347888"><ele>174.0</ele><time>2026-04-26T07:40:05.998Z</time></trkpt><trkpt lat="45.69040785044658" lon="11.372667910145136"><ele>174.2</ele><time>2026-04-26T07:40:06.998Z</time></trkpt><trkpt lat="45.69050770420484" lon="11.372629034234013"><ele>174.39999999999998</ele><time>2026-04-26T07:40:07.998Z</time></trkpt><trkpt lat="45.69060600470665" lon="11.372575497819234"><ele>174.6</ele><time>2026-04-26T07:40:08.998Z</time></trkpt><trkpt lat="45.69070789933089" lon="11.372520628548145"><ele>174.8</ele><time>2026-04-26T07:40:09.998Z</time></trkpt><trkpt lat="45.69081014765839" lon="11.372467317337128"><ele>175.0</ele><time>2026-04-26T07:40:10.998Z</time></trkpt><trkpt lat="45.690913463258404" lon="11.372416729828034"><ele>175.0</ele><time>2026-04-26T07:40:11.998Z</time></trkpt><trkpt lat="45.691016511687785" lon="11.37236851226084"><ele>175.0</ele><time>2026-04-26T07:40:12.998Z</time></trkpt><trkpt lat="45.69111767038046" lon="11.3723176318141"><ele>175.0</ele><time>2026-04-26T07:40:13.998Z</time></trkpt><trkpt lat="45.69121476964921" lon="11.372255595085571"><ele>175.0</ele><time>2026-04-26T07:40:14.998Z</time></trkpt><trkpt lat="45.69130648002421" lon="11.372192556792395"><ele>175.0</ele><time>2026-04-26T07:40:15.998Z</time></trkpt><trkpt lat="45.6913932168218" lon="11.37212636761389"><ele>175.6</ele><time>2026-04-26T07:40:16.998Z</time></trkpt><trkpt lat="45.69147739381795" lon="11.372062725619044"><ele>176.2</ele><time>2026-04-26T07:40:17.998Z</time></trkpt><trkpt lat="45.69155748739868" lon="11.371999162260801"><ele>176.8</ele><time>2026-04-26T07:40:18.998Z</time></trkpt><trkpt lat="45.69163316425551" lon="11.371931978868597"><ele>177.4</ele><time>2026-04-26T07:40:19.998Z</time></trkpt><trkpt lat="45.69170066460529" lon="11.37185234937811"><ele>178.0</ele><time>2026-04-26T07:40:20.998Z</time></trkpt><trkpt lat="45.691771640699486" lon="11.371777809014025"><ele>178.0</ele><time>2026-04-26T07:40:21.998Z</time></trkpt><trkpt lat="45.69184468335657" lon="11.371700792027708"><ele>178.0</ele><time>2026-04-26T07:40:22.998Z</time></trkpt><trkpt lat="45.69191862363812" lon="11.3716245978848"><ele>178.0</ele><time>2026-04-26T07:40:23.998Z</time></trkpt><trkpt lat="45.69199185482581" lon="11.3715528894863"><ele>178.0</ele><time>2026-04-26T07:40:24.998Z</time></trkpt><trkpt lat="45.692064141690764" lon="11.371485801357316"><ele>178.0</ele><time>2026-04-26T07:40:25.998Z</time></trkpt><trkpt lat="45.69213596646116" lon="11.371417940563264"><ele>178.0</ele><time>2026-04-26T07:40:26.998Z</time></trkpt><trkpt lat="45.69220919899272" lon="11.371349518942427"><ele>178.33333333333334</ele><time>2026-04-26T07:40:27.998Z</time></trkpt><trkpt lat="45.6922812213866" lon="11.37128086921226"><ele>178.66666666666669</ele><time>2026-04-26T07:40:28.998Z</time></trkpt><trkpt lat="45.692350307816405" lon="11.371213636745365"><ele>179.0</ele><time>2026-04-26T07:40:29.998Z</time></trkpt><trkpt lat="45.692416801872334" lon="11.371150707175111"><ele>179.33333333333334</ele><time>2026-04-26T07:40:30.998Z</time></trkpt><trkpt lat="45.69248159210698" lon="11.371092923204708"><ele>179.66666666666666</ele><time>2026-04-26T07:40:31.998Z</time></trkpt><trkpt lat="45.692539639225686" lon="11.371026842020457"><ele>180.0</ele><time>2026-04-26T07:40:32.998Z</time></trkpt><trkpt lat="45.692598370213894" lon="11.370964998175022"><ele>180.0</ele><time>2026-04-26T07:40:33.998Z</time></trkpt><trkpt lat="45.69265967979856" lon="11.37091196129317"><ele>180.0</ele><time>2026-04-26T07:40:34.998Z</time></trkpt><trkpt lat="45.69271912289402" lon="11.370855935962062"><ele>180.0</ele><time>2026-04-26T07:40:35.998Z</time></trkpt><trkpt lat="45.692778442959415" lon="11.370803603997473"><ele>180.0</ele><time>2026-04-26T07:40:36.998Z</time></trkpt><trkpt lat="45.692834741880155" lon="11.37075250414257"><ele>180.0</ele><time>2026-04-26T07:40:37.998Z</time></trkpt><trkpt lat="45.69293076795699" lon="11.370656349700818"><ele>180.0</ele><time>2026-04-26T07:40:39.998Z</time></trkpt><trkpt lat="45.69300644781656" lon="11.370594421601265"><ele>180.0</ele><time>2026-04-26T07:40:41.998Z</time></trkpt><trkpt lat="45.6930842429451" lon="11.37053126909276"><ele>180.0</ele><time>2026-04-26T07:40:44.998Z</time></trkpt><trkpt lat="45.693148088280466" lon="11.370473348620196"><ele>180.0</ele><time>2026-04-26T07:40:46.998Z</time></trkpt><trkpt lat="45.69322261472857" lon="11.370420007764805"><ele>180.0</ele><time>2026-04-26T07:40:48.998Z</time></trkpt><trkpt lat="45.693290627803954" lon="11.370349053242515"><ele>180.0</ele><time>2026-04-26T07:40:50.998Z</time></trkpt><trkpt lat="45.69336844722488" lon="11.370272991439775"><ele>180.0</ele><time>2026-04-26T07:40:52.998Z</time></trkpt><trkpt lat="45.693423595085065" lon="11.370203853384385"><ele>180.0</ele><time>2026-04-26T07:40:54.998Z</time></trkpt><trkpt lat="45.693379651504394" lon="11.370130079454938"><ele>180.0</ele><time>2026-04-26T07:40:56.998Z</time></trkpt><trkpt lat="45.69333672590383" lon="11.370056472125661"><ele>180.0</ele><time>2026-04-26T07:40:57.998Z</time></trkpt><trkpt lat="45.693291637394054" lon="11.369961817994332"><ele>180.0</ele><time>2026-04-26T07:40:58.998Z</time></trkpt><trkpt lat="45.69324532005416" lon="11.369851931780936"><ele>180.0</ele><time>2026-04-26T07:40:59.998Z</time></trkpt><trkpt lat="45.69318900512096" lon="11.36972231632369"><ele>180.0</ele><time>2026-04-26T07:41:00.998Z</time></trkpt><trkpt lat="45.69312282685393" lon="11.369586223047346"><ele>180.2</ele><time>2026-04-26T07:41:01.998Z</time></trkpt><trkpt lat="45.69306109458419" lon="11.369459643564495"><ele>180.4</ele><time>2026-04-26T07:41:02.998Z</time></trkpt><trkpt lat="45.69300820485097" lon="11.369341073131563"><ele>180.60000000000002</ele><time>2026-04-26T07:41:03.998Z</time></trkpt><trkpt lat="45.692957606975305" lon="11.369230311765378"><ele>180.8</ele><time>2026-04-26T07:41:04.998Z</time></trkpt><trkpt lat="45.69290957625135" lon="11.369120708141422"><ele>181.0</ele><time>2026-04-26T07:41:05.998Z</time></trkpt><trkpt lat="45.69285995484182" lon="11.369013470789803"><ele>181.0</ele><time>2026-04-26T07:41:06.998Z</time></trkpt><trkpt lat="45.69281214680073" lon="11.36891506135001"><ele>181.0</ele><time>2026-04-26T07:41:07.998Z</time></trkpt><trkpt lat="45.69276304001951" lon="11.368826133645918"><ele>181.0</ele><time>2026-04-26T07:41:08.998Z</time></trkpt><trkpt lat="45.69271268301993" lon="11.368730955096458"><ele>181.0</ele><time>2026-04-26T07:41:09.998Z</time></trkpt><trkpt lat="45.692665886791886" lon="11.368626585623176"><ele>181.0</ele><time>2026-04-26T07:41:10.998Z</time></trkpt><trkpt lat="45.69261394500807" lon="11.368532269397415"><ele>181.0</ele><time>2026-04-26T07:41:11.998Z</time></trkpt><trkpt lat="45.69256588917553" lon="11.368440784667825"><ele>180.16666666666669</ele><time>2026-04-26T07:41:12.998Z</time></trkpt><trkpt lat="45.69251525475722" lon="11.368353232449522"><ele>179.33333333333334</ele><time>2026-04-26T07:41:13.998Z</time></trkpt><trkpt lat="45.69246878268545" lon="11.368262001313806"><ele>178.5</ele><time>2026-04-26T07:41:14.998Z</time></trkpt><trkpt lat="45.692420406528356" lon="11.368168342023186"><ele>177.66666666666666</ele><time>2026-04-26T07:41:15.998Z</time></trkpt><trkpt lat="45.692369509376455" lon="11.368068714975191"><ele>176.83333333333331</ele><time>2026-04-26T07:41:16.998Z</time></trkpt><trkpt lat="45.69231328680177" lon="11.367961437416636"><ele>176.0</ele><time>2026-04-26T07:41:17.998Z</time></trkpt><trkpt lat="45.69225469174599" lon="11.367847086589034"><ele>175.8</ele><time>2026-04-26T07:41:18.998Z</time></trkpt><trkpt lat="45.69219124433025" lon="11.367732502245275"><ele>175.60000000000002</ele><time>2026-04-26T07:41:19.998Z</time></trkpt><trkpt lat="45.69213654735835" lon="11.367608618062876"><ele>175.4</ele><time>2026-04-26T07:41:20.998Z</time></trkpt><trkpt lat="45.692083083432195" lon="11.367482659552303"><ele>175.2</ele><time>2026-04-26T07:41:21.998Z</time></trkpt><trkpt lat="45.69202525954793" lon="11.36735572845757"><ele>175.0</ele><time>2026-04-26T07:41:22.998Z</time></trkpt><trkpt lat="45.691966695873504" lon="11.367229781094121"><ele>175.6</ele><time>2026-04-26T07:41:23.998Z</time></trkpt><trkpt lat="45.69190617826845" lon="11.367107367174299"><ele>176.2</ele><time>2026-04-26T07:41:24.998Z</time></trkpt><trkpt lat="45.69185051295805" lon="11.366990996729756"><ele>176.8</ele><time>2026-04-26T07:41:25.998Z</time></trkpt><trkpt lat="45.69179562498736" lon="11.366878931113902"><ele>177.4</ele><time>2026-04-26T07:41:26.998Z</time></trkpt><trkpt lat="45.69174135167152" lon="11.366767703155931"><ele>178.0</ele><time>2026-04-26T07:41:27.998Z</time></trkpt><trkpt lat="45.69167177327466" lon="11.366666889216832"><ele>178.0</ele><time>2026-04-26T07:41:28.998Z</time></trkpt><trkpt lat="45.69159260813376" lon="11.366569492367146"><ele>178.0</ele><time>2026-04-26T07:41:29.998Z</time></trkpt><trkpt lat="45.69150991794818" lon="11.36647297563492"><ele>178.0</ele><time>2026-04-26T07:41:30.998Z</time></trkpt><trkpt lat="45.69142583488368" lon="11.366374525049704"><ele>178.0</ele><time>2026-04-26T07:41:31.998Z</time></trkpt><trkpt lat="45.69134028192321" lon="11.366273048908452"><ele>178.0</ele><time>2026-04-26T07:41:32.998Z</time></trkpt><trkpt lat="45.69125267340505" lon="11.36617112249045"><ele>178.4</ele><time>2026-04-26T07:41:33.998Z</time></trkpt><trkpt lat="45.691164537444095" lon="11.366074375096218"><ele>178.8</ele><time>2026-04-26T07:41:34.997Z</time></trkpt><trkpt lat="45.69107779241364" lon="11.365975952488563"><ele>179.2</ele><time>2026-04-26T07:41:35.997Z</time></trkpt><trkpt lat="45.690991709417254" lon="11.365887866864563"><ele>179.6</ele><time>2026-04-26T07:41:36.997Z</time></trkpt><trkpt lat="45.690911174867935" lon="11.365811524044313"><ele>180.0</ele><time>2026-04-26T07:41:37.997Z</time></trkpt><trkpt lat="45.690825512707576" lon="11.365750747656898"><ele>180.0</ele><time>2026-04-26T07:41:38.997Z</time></trkpt><trkpt lat="45.69072871742149" lon="11.365718210368492"><ele>180.0</ele><time>2026-04-26T07:41:39.997Z</time></trkpt><trkpt lat="45.69061971145605" lon="11.36570107520742"><ele>180.0</ele><time>2026-04-26T07:41:40.997Z</time></trkpt><trkpt lat="45.69049693259503" lon="11.365690435690107"><ele>180.0</ele><time>2026-04-26T07:41:41.997Z</time></trkpt><trkpt lat="45.69036872909488" lon="11.365674991218043"><ele>178.5</ele><time>2026-04-26T07:41:42.997Z</time></trkpt><trkpt lat="45.690237285653794" lon="11.36566154024927"><ele>177.0</ele><time>2026-04-26T07:41:43.997Z</time></trkpt><trkpt lat="45.69010587173112" lon="11.36564639029182"><ele>175.5</ele><time>2026-04-26T07:41:44.997Z</time></trkpt><trkpt lat="45.689973648185344" lon="11.365630365337127"><ele>174.0</ele><time>2026-04-26T07:41:45.997Z</time></trkpt><trkpt lat="45.6898386483429" lon="11.365615771206196"><ele>174.0</ele><time>2026-04-26T07:41:46.997Z</time></trkpt><trkpt lat="45.6897023590182" lon="11.365599429825659"><ele>174.0</ele><time>2026-04-26T07:41:47.997Z</time></trkpt><trkpt lat="45.68956474395967" lon="11.365583564075342"><ele>174.0</ele><time>2026-04-26T07:41:48.997Z</time></trkpt><trkpt lat="45.68942798774556" lon="11.365569368383804"><ele>174.0</ele><time>2026-04-26T07:41:49.997Z</time></trkpt><trkpt lat="45.6892936009105" lon="11.365558414149637"><ele>174.0</ele><time>2026-04-26T07:41:50.997Z</time></trkpt><trkpt lat="45.689159216621924" lon="11.365547695665716"><ele>174.0</ele><time>2026-04-26T07:41:51.997Z</time></trkpt><trkpt lat="45.68902483453427" lon="11.36553729277339"><ele>174.0</ele><time>2026-04-26T07:41:52.997Z</time></trkpt><trkpt lat="45.68889093089984" lon="11.365524142051823"><ele>174.0</ele><time>2026-04-26T07:41:53.997Z</time></trkpt><trkpt lat="45.68875620683854" lon="11.36551184226231"><ele>174.5</ele><time>2026-04-26T07:41:54.997Z</time></trkpt><trkpt lat="45.68862230823511" lon="11.365495339796553"><ele>175.0</ele><time>2026-04-26T07:41:55.997Z</time></trkpt><trkpt lat="45.68849117054701" lon="11.365475744738164"><ele>175.5</ele><time>2026-04-26T07:41:56.997Z</time></trkpt><trkpt lat="45.688364142834835" lon="11.365451479530554"><ele>176.0</ele><time>2026-04-26T07:41:57.997Z</time></trkpt><trkpt lat="45.688244355223354" lon="11.365424316937338"><ele>176.0</ele><time>2026-04-26T07:41:58.997Z</time></trkpt><trkpt lat="45.68812689685749" lon="11.365395185715798"><ele>176.0</ele><time>2026-04-26T07:41:59.997Z</time></trkpt><trkpt lat="45.6880076768404" lon="11.36536704444763"><ele>176.0</ele><time>2026-04-26T07:42:00.997Z</time></trkpt><trkpt lat="45.687885975989765" lon="11.365338253600962"><ele>176.0</ele><time>2026-04-26T07:42:01.997Z</time></trkpt><trkpt lat="45.68776820498323" lon="11.365306466705979"><ele>176.5</ele><time>2026-04-26T07:42:02.997Z</time></trkpt><trkpt lat="45.68765405892685" lon="11.365272828253023"><ele>177.0</ele><time>2026-04-26T07:42:03.997Z</time></trkpt><trkpt lat="45.68753770363902" lon="11.365241359518105"><ele>177.5</ele><time>2026-04-26T07:42:04.997Z</time></trkpt><trkpt lat="45.687420324602996" lon="11.365208678283837"><ele>178.0</ele><time>2026-04-26T07:42:05.997Z</time></trkpt><trkpt lat="45.68730171793142" lon="11.36517619417564"><ele>178.0</ele><time>2026-04-26T07:42:06.997Z</time></trkpt><trkpt lat="45.687182571798985" lon="11.365141098877562"><ele>178.0</ele><time>2026-04-26T07:42:07.997Z</time></trkpt><trkpt lat="45.68706128090563" lon="11.365107403804044"><ele>178.0</ele><time>2026-04-26T07:42:08.997Z</time></trkpt><trkpt lat="45.68693777876734" lon="11.365070489239367"><ele>178.0</ele><time>2026-04-26T07:42:09.997Z</time></trkpt><trkpt lat="45.68681704567013" lon="11.365027934970197"><ele>178.4</ele><time>2026-04-26T07:42:10.997Z</time></trkpt><trkpt lat="45.686705685671654" lon="11.364982059393276"><ele>178.8</ele><time>2026-04-26T07:42:11.997Z</time></trkpt><trkpt lat="45.686601073745216" lon="11.364935938638325"><ele>179.2</ele><time>2026-04-26T07:42:12.997Z</time></trkpt><trkpt lat="45.68649933397745" lon="11.364884689974676"><ele>179.6</ele><time>2026-04-26T07:42:13.997Z</time></trkpt><trkpt lat="45.68639749977666" lon="11.364833169621704"><ele>180.0</ele><time>2026-04-26T07:42:14.997Z</time></trkpt><trkpt lat="45.686300518646036" lon="11.364770155041894"><ele>180.0</ele><time>2026-04-26T07:42:15.997Z</time></trkpt><trkpt lat="45.68620584979002" lon="11.364707493070604"><ele>180.0</ele><time>2026-04-26T07:42:16.997Z</time></trkpt><trkpt lat="45.68611254823004" lon="11.364647552398942"><ele>180.0</ele><time>2026-04-26T07:42:17.997Z</time></trkpt><trkpt lat="45.686019910966024" lon="11.36458350612976"><ele>180.0</ele><time>2026-04-26T07:42:18.997Z</time></trkpt><trkpt lat="45.68593007530879" lon="11.364505952433793"><ele>180.0</ele><time>2026-04-26T07:42:19.997Z</time></trkpt><trkpt lat="45.68584331090253" lon="11.364418299864507"><ele>180.2</ele><time>2026-04-26T07:42:20.997Z</time></trkpt><trkpt lat="45.68575709817829" lon="11.364328364816897"><ele>180.4</ele><time>2026-04-26T07:42:21.997Z</time></trkpt><trkpt lat="45.68567313376409" lon="11.36423591406842"><ele>180.60000000000002</ele><time>2026-04-26T07:42:22.997Z</time></trkpt><trkpt lat="45.68559081581771" lon="11.364140745984654"><ele>180.8</ele><time>2026-04-26T07:42:23.997Z</time></trkpt><trkpt lat="45.685509997097924" lon="11.364047268215147"><ele>181.0</ele><time>2026-04-26T07:42:24.997Z</time></trkpt><trkpt lat="45.685433990552376" lon="11.36395596851446"><ele>181.0</ele><time>2026-04-26T07:42:25.997Z</time></trkpt><trkpt lat="45.68536485188917" lon="11.363871888267907"><ele>181.0</ele><time>2026-04-26T07:42:26.997Z</time></trkpt><trkpt lat="45.68530150005158" lon="11.363800626853733"><ele>181.0</ele><time>2026-04-26T07:42:27.997Z</time></trkpt><trkpt lat="45.68524056504088" lon="11.36373841399134"><ele>181.0</ele><time>2026-04-26T07:42:28.997Z</time></trkpt><trkpt lat="45.68518172944789" lon="11.363679584451479"><ele>181.0</ele><time>2026-04-26T07:42:29.997Z</time></trkpt><trkpt lat="45.685123499302044" lon="11.363620507356451"><ele>181.0</ele><time>2026-04-26T07:42:30.997Z</time></trkpt><trkpt lat="45.68506157174686" lon="11.363561715933821"><ele>181.16666666666669</ele><time>2026-04-26T07:42:31.997Z</time></trkpt><trkpt lat="45.68499866181605" lon="11.363494133433816"><ele>181.33333333333334</ele><time>2026-04-26T07:42:32.997Z</time></trkpt><trkpt lat="45.68493440613268" lon="11.363430093587564"><ele>181.5</ele><time>2026-04-26T07:42:33.997Z</time></trkpt><trkpt lat="45.684870128189154" lon="11.363364028577251"><ele>181.66666666666666</ele><time>2026-04-26T07:42:34.997Z</time></trkpt><trkpt lat="45.68480653193549" lon="11.363297192314729"><ele>181.83333333333331</ele><time>2026-04-26T07:42:35.997Z</time></trkpt><trkpt lat="45.68474860838868" lon="11.363223935069966"><ele>182.0</ele><time>2026-04-26T07:42:36.997Z</time></trkpt><trkpt lat="45.68469290697349" lon="11.363145628854175"><ele>182.0</ele><time>2026-04-26T07:42:37.997Z</time></trkpt><trkpt lat="45.68463737663526" lon="11.363068643726036"><ele>182.0</ele><time>2026-04-26T07:42:38.997Z</time></trkpt><trkpt lat="45.68459094442609" lon="11.362972026110688"><ele>182.0</ele><time>2026-04-26T07:42:39.997Z</time></trkpt><trkpt lat="45.684547031328954" lon="11.36286579210076"><ele>182.0</ele><time>2026-04-26T07:42:40.997Z</time></trkpt><trkpt lat="45.684515508167316" lon="11.362751381266019"><ele>182.0</ele><time>2026-04-26T07:42:41.997Z</time></trkpt><trkpt lat="45.684491837223185" lon="11.362635353084773"><ele>182.0</ele><time>2026-04-26T07:42:42.997Z</time></trkpt><trkpt lat="45.684461321244555" lon="11.362525927307166"><ele>183.33333333333331</ele><time>2026-04-26T07:42:43.997Z</time></trkpt><trkpt lat="45.684411811074966" lon="11.362434405105441"><ele>184.66666666666666</ele><time>2026-04-26T07:42:44.997Z</time></trkpt><trkpt lat="45.68434963664361" lon="11.362354544869438"><ele>186.0</ele><time>2026-04-26T07:42:45.997Z</time></trkpt><trkpt lat="45.68428120927908" lon="11.362282411231938"><ele>187.33333333333334</ele><time>2026-04-26T07:42:46.997Z</time></trkpt><trkpt lat="45.68420471498254" lon="11.362223025516581"><ele>188.66666666666669</ele><time>2026-04-26T07:42:47.997Z</time></trkpt><trkpt lat="45.684123612942116" lon="11.36217098273681"><ele>190.0</ele><time>2026-04-26T07:42:48.997Z</time></trkpt><trkpt lat="45.68404045967958" lon="11.362113023932276"><ele>191.2</ele><time>2026-04-26T07:42:49.997Z</time></trkpt><trkpt lat="45.6839568144471" lon="11.362051423236451"><ele>192.4</ele><time>2026-04-26T07:42:50.997Z</time></trkpt><trkpt lat="45.68387366598716" lon="11.36198989343242"><ele>193.60000000000002</ele><time>2026-04-26T07:42:51.997Z</time></trkpt><trkpt lat="45.683795244100416" lon="11.36191568459073"><ele>194.8</ele><time>2026-04-26T07:42:52.997Z</time></trkpt><trkpt lat="45.683721517791696" lon="11.361835962736794"><ele>196.0</ele><time>2026-04-26T07:42:53.997Z</time></trkpt><trkpt lat="45.68364978536244" lon="11.361755539887676"><ele>195.83333333333331</ele><time>2026-04-26T07:42:54.997Z</time></trkpt><trkpt lat="45.683587447735306" lon="11.361664466340113"><ele>195.66666666666666</ele><time>2026-04-26T07:42:55.997Z</time></trkpt><trkpt lat="45.68352909351072" lon="11.361577112774377"><ele>195.5</ele><time>2026-04-26T07:42:56.997Z</time></trkpt><trkpt lat="45.68347185559346" lon="11.361487197097777"><ele>195.33333333333331</ele><time>2026-04-26T07:42:57.997Z</time></trkpt><trkpt lat="45.68341618117297" lon="11.36139272244849"><ele>195.16666666666666</ele><time>2026-04-26T07:42:58.997Z</time></trkpt><trkpt lat="45.68336457148887" lon="11.36129002798023"><ele>195.0</ele><time>2026-04-26T07:42:59.997Z</time></trkpt><trkpt lat="45.68332125315965" lon="11.361179588670272"><ele>196.8</ele><time>2026-04-26T07:43:00.997Z</time></trkpt><trkpt lat="45.68328059471826" lon="11.361060708418757"><ele>198.6</ele><time>2026-04-26T07:43:01.997Z</time></trkpt><trkpt lat="45.683241569729695" lon="11.360939233351536"><ele>200.39999999999998</ele><time>2026-04-26T07:43:02.997Z</time></trkpt><trkpt lat="45.683214116253126" lon="11.360814629664333"><ele>202.2</ele><time>2026-04-26T07:43:03.997Z</time></trkpt><trkpt lat="45.683198982147694" lon="11.360691321212261"><ele>204.0</ele><time>2026-04-26T07:43:04.997Z</time></trkpt><trkpt lat="45.6831833697383" lon="11.360570496613576"><ele>205.39999999999998</ele><time>2026-04-26T07:43:05.997Z</time></trkpt><trkpt lat="45.68318522832974" lon="11.360456445301086"><ele>206.8</ele><time>2026-04-26T07:43:06.997Z</time></trkpt><trkpt lat="45.68318530557029" lon="11.360340994442252"><ele>208.2</ele><time>2026-04-26T07:43:07.997Z</time></trkpt><trkpt lat="45.68319760382147" lon="11.360221177913287"><ele>209.60000000000002</ele><time>2026-04-26T07:43:08.997Z</time></trkpt><trkpt lat="45.68323756011825" lon="11.360094091699908"><ele>211.0</ele><time>2026-04-26T07:43:09.997Z</time></trkpt><trkpt lat="45.68327578645361" lon="11.359950664813056"><ele>211.0</ele><time>2026-04-26T07:43:10.997Z</time></trkpt><trkpt lat="45.68329628294398" lon="11.359786030074966"><ele>211.0</ele><time>2026-04-26T07:43:11.997Z</time></trkpt><trkpt lat="45.68331888840823" lon="11.359600629663225"><ele>211.0</ele><time>2026-04-26T07:43:12.997Z</time></trkpt><trkpt lat="45.68333034759331" lon="11.35939749063518"><ele>211.0</ele><time>2026-04-26T07:43:13.997Z</time></trkpt><trkpt lat="45.68334930196245" lon="11.359204929059262"><ele>212.4</ele><time>2026-04-26T07:43:14.997Z</time></trkpt><trkpt lat="45.68336287037582" lon="11.359030907006481"><ele>213.8</ele><time>2026-04-26T07:43:15.997Z</time></trkpt><trkpt lat="45.683381144405175" lon="11.358872406568633"><ele>215.20000000000002</ele><time>2026-04-26T07:43:16.997Z</time></trkpt><trkpt lat="45.68340538611767" lon="11.358727076911892"><ele>216.60000000000002</ele><time>2026-04-26T07:43:17.997Z</time></trkpt><trkpt lat="45.68342031403847" lon="11.358583295705747"><ele>218.0</ele><time>2026-04-26T07:43:18.997Z</time></trkpt><trkpt lat="45.68343364468543" lon="11.35844673742738"><ele>220.0</ele><time>2026-04-26T07:43:19.997Z</time></trkpt><trkpt lat="45.6834396633338" lon="11.358312033706666"><ele>222.0</ele><time>2026-04-26T07:43:20.997Z</time></trkpt><trkpt lat="45.68342582864409" lon="11.35818365600018"><ele>224.0</ele><time>2026-04-26T07:43:21.997Z</time></trkpt><trkpt lat="45.68339070610448" lon="11.358058136144045"><ele>226.0</ele><time>2026-04-26T07:43:22.997Z</time></trkpt><trkpt lat="45.683332897043506" lon="11.357944782372783"><ele>228.0</ele><time>2026-04-26T07:43:23.997Z</time></trkpt><trkpt lat="45.68327858920547" lon="11.357824281650485"><ele>228.60000000000002</ele><time>2026-04-26T07:43:24.997Z</time></trkpt><trkpt lat="45.683234046707796" lon="11.357700045941476"><ele>229.20000000000002</ele><time>2026-04-26T07:43:25.997Z</time></trkpt><trkpt lat="45.68319481978396" lon="11.357570661921164"><ele>229.8</ele><time>2026-04-26T07:43:26.997Z</time></trkpt><trkpt lat="45.68315634772862" lon="11.357437168083823"><ele>230.4</ele><time>2026-04-26T07:43:27.997Z</time></trkpt><trkpt lat="45.683126108812864" lon="11.357292938351355"><ele>231.0</ele><time>2026-04-26T07:43:28.997Z</time></trkpt><trkpt lat="45.68309153778735" lon="11.357142506989522"><ele>231.4</ele><time>2026-04-26T07:43:29.997Z</time></trkpt><trkpt lat="45.68305663318841" lon="11.356988793706025"><ele>231.8</ele><time>2026-04-26T07:43:30.997Z</time></trkpt><trkpt lat="45.683032734743165" lon="11.356834671437658"><ele>232.20000000000002</ele><time>2026-04-26T07:43:31.997Z</time></trkpt><trkpt lat="45.68300508144918" lon="11.356690063985187"><ele>232.60000000000002</ele><time>2026-04-26T07:43:32.997Z</time></trkpt><trkpt lat="45.68298598068981" lon="11.356549087324739"><ele>233.0</ele><time>2026-04-26T07:43:33.997Z</time></trkpt><trkpt lat="45.6829726899277" lon="11.356411306226375"><ele>233.50000000000003</ele><time>2026-04-26T07:43:34.997Z</time></trkpt><trkpt lat="45.68296403841441" lon="11.35627536334288"><ele>234.0</ele><time>2026-04-26T07:43:35.997Z</time></trkpt><trkpt lat="45.682952895907846" lon="11.356147704295353"><ele>234.5</ele><time>2026-04-26T07:43:36.997Z</time></trkpt><trkpt lat="45.682940121001394" lon="11.356025365661951"><ele>235.0</ele><time>2026-04-26T07:43:37.997Z</time></trkpt><trkpt lat="45.68292219565053" lon="11.355906550296623"><ele>235.50000000000003</ele><time>2026-04-26T07:43:38.998Z</time></trkpt><trkpt lat="45.68290775888414" lon="11.355794265149719"><ele>236.0</ele><time>2026-04-26T07:43:39.998Z</time></trkpt><trkpt lat="45.68288720296689" lon="11.35569253729511"><ele>236.0</ele><time>2026-04-26T07:43:40.998Z</time></trkpt><trkpt lat="45.682857209504796" lon="11.355608699127572"><ele>236.0</ele><time>2026-04-26T07:43:41.998Z</time></trkpt><trkpt lat="45.682805769670956" lon="11.355548228831484"><ele>236.0</ele><time>2026-04-26T07:43:42.999Z</time></trkpt><trkpt lat="45.68274058788291" lon="11.355504179753416"><ele>236.0</ele><time>2026-04-26T07:43:43.999Z</time></trkpt><trkpt lat="45.68266932587458" lon="11.355471362687"><ele>236.0</ele><time>2026-04-26T07:43:44.999Z</time></trkpt><trkpt lat="45.68259118410716" lon="11.355442156708557"><ele>236.0</ele><time>2026-04-26T07:43:45.999Z</time></trkpt><trkpt lat="45.68250793002602" lon="11.35540578835849"><ele>236.0</ele><time>2026-04-26T07:43:46.999Z</time></trkpt><trkpt lat="45.682425821402425" lon="11.355365450097592"><ele>239.00000000000003</ele><time>2026-04-26T07:43:47.999Z</time></trkpt><trkpt lat="45.682348507620176" lon="11.355317066730358"><ele>242.0</ele><time>2026-04-26T07:43:48.999Z</time></trkpt><trkpt lat="45.682272616034176" lon="11.355259361020808"><ele>245.0</ele><time>2026-04-26T07:43:49.999Z</time></trkpt><trkpt lat="45.682202475329525" lon="11.355181509533342"><ele>248.0</ele><time>2026-04-26T07:43:50.999Z</time></trkpt><trkpt lat="45.68213279531001" lon="11.355094176059588"><ele>251.00000000000003</ele><time>2026-04-26T07:43:51.999Z</time></trkpt><trkpt lat="45.68206568235615" lon="11.35499987966775"><ele>254.0</ele><time>2026-04-26T07:43:52.999Z</time></trkpt><trkpt lat="45.68201291946587" lon="11.354887689922544"><ele>254.00000000000003</ele><time>2026-04-26T07:43:53.999Z</time></trkpt><trkpt lat="45.68196375719361" lon="11.354772517599917"><ele>254.0</ele><time>2026-04-26T07:43:54.999Z</time></trkpt><trkpt lat="45.68191474061403" lon="11.354656954598639"><ele>254.0</ele><time>2026-04-26T07:43:55.999Z</time></trkpt><trkpt lat="45.68186967123045" lon="11.354540300965402"><ele>254.0</ele><time>2026-04-26T07:43:56.999Z</time></trkpt><trkpt lat="45.68183026340903" lon="11.354430421684198"><ele>254.00000000000003</ele><time>2026-04-26T07:43:57.999Z</time></trkpt><trkpt lat="45.68181314289486" lon="11.35432229465331"><ele>254.0</ele><time>2026-04-26T07:43:58.999Z</time></trkpt><trkpt lat="45.681820866070225" lon="11.354213321886636"><ele>255.50000000000003</ele><time>2026-04-26T07:43:59.999Z</time></trkpt><trkpt lat="45.68183493445716" lon="11.354104173073164"><ele>257.0</ele><time>2026-04-26T07:44:00.999Z</time></trkpt><trkpt lat="45.681860954486815" lon="11.353997127760653"><ele>258.5</ele><time>2026-04-26T07:44:01.999Z</time></trkpt><trkpt lat="45.68189732549502" lon="11.353886403292863"><ele>260.0</ele><time>2026-04-26T07:44:02.999Z</time></trkpt><trkpt lat="45.681936211181885" lon="11.353773144883116"><ele>261.5</ele><time>2026-04-26T07:44:03.999Z</time></trkpt><trkpt lat="45.68197479553695" lon="11.3536566276344"><ele>263.0</ele><time>2026-04-26T07:44:04.999Z</time></trkpt><trkpt lat="45.68201145329141" lon="11.353536076337395"><ele>263.0</ele><time>2026-04-26T07:44:06Z</time></trkpt><trkpt lat="45.68205179853301" lon="11.353411841527619"><ele>263.0</ele><time>2026-04-26T07:44:07Z</time></trkpt><trkpt lat="45.68209576399496" lon="11.353276767670476"><ele>263.0</ele><time>2026-04-26T07:44:08Z</time></trkpt><trkpt lat="45.68214497369075" lon="11.353132431946337"><ele>263.0</ele><time>2026-04-26T07:44:09Z</time></trkpt><trkpt lat="45.682191349014815" lon="11.352978370936652"><ele>263.0</ele><time>2026-04-26T07:44:10Z</time></trkpt><trkpt lat="45.682238820878275" lon="11.352815776697764"><ele>263.25</ele><time>2026-04-26T07:44:11Z</time></trkpt><trkpt lat="45.68229075907413" lon="11.3526551883754"><ele>263.5</ele><time>2026-04-26T07:44:12Z</time></trkpt><trkpt lat="45.68234126576759" lon="11.352494297762714"><ele>263.75</ele><time>2026-04-26T07:44:13Z</time></trkpt><trkpt lat="45.68239251863461" lon="11.352321172882716"><ele>264.0</ele><time>2026-04-26T07:44:14Z</time></trkpt><trkpt lat="45.68244515075327" lon="11.352133452571248"><ele>264.75</ele><time>2026-04-26T07:44:15Z</time></trkpt><trkpt lat="45.68249402167782" lon="11.35193990324805"><ele>265.5</ele><time>2026-04-26T07:44:16Z</time></trkpt><trkpt lat="45.68253395741301" lon="11.351736246753656"><ele>266.25</ele><time>2026-04-26T07:44:17Z</time></trkpt><trkpt lat="45.68257108796908" lon="11.351529312775586"><ele>267.0</ele><time>2026-04-26T07:44:18Z</time></trkpt><trkpt lat="45.68261127699154" lon="11.351320737601954"><ele>269.5</ele><time>2026-04-26T07:44:19Z</time></trkpt><trkpt lat="45.68265184779244" lon="11.351110162683302"><ele>272.0</ele><time>2026-04-26T07:44:20Z</time></trkpt><trkpt lat="45.682685011238476" lon="11.350901846045819"><ele>274.5</ele><time>2026-04-26T07:44:21Z</time></trkpt><trkpt lat="45.68272393660938" lon="11.350702155125903"><ele>277.0</ele><time>2026-04-26T07:44:22Z</time></trkpt><trkpt lat="45.682755806582556" lon="11.350512047666072"><ele>274.0</ele><time>2026-04-26T07:44:23Z</time></trkpt><trkpt lat="45.682785566756316" lon="11.350335487809788"><ele>271.0</ele><time>2026-04-26T07:44:24Z</time></trkpt><trkpt lat="45.68281568711307" lon="11.35017690541688"><ele>268.0</ele><time>2026-04-26T07:44:25Z</time></trkpt><trkpt lat="45.68284682197654" lon="11.350041923367792"><ele>265.0</ele><time>2026-04-26T07:44:26Z</time></trkpt><trkpt lat="45.68286576220444" lon="11.349922281031981"><ele>262.0</ele><time>2026-04-26T07:44:27Z</time></trkpt><trkpt lat="45.682855719385685" lon="11.349811537914382"><ele>263.8</ele><time>2026-04-26T07:44:28Z</time></trkpt><trkpt lat="45.68277668188859" lon="11.349674374071387"><ele>265.6</ele><time>2026-04-26T07:44:30Z</time></trkpt><trkpt lat="45.68269262926961" lon="11.349646682777191"><ele>267.40000000000003</ele><time>2026-04-26T07:44:31Z</time></trkpt><trkpt lat="45.68259084295758" lon="11.349646824066292"><ele>269.2</ele><time>2026-04-26T07:44:32Z</time></trkpt><trkpt lat="45.682500170966016" lon="11.349629574177351"><ele>271.0</ele><time>2026-04-26T07:44:33Z</time></trkpt><trkpt lat="45.682424521725345" lon="11.349615348854837"><ele>277.5</ele><time>2026-04-26T07:44:34Z</time></trkpt><trkpt lat="45.6823269807889" lon="11.34948395825365"><ele>284.0</ele><time>2026-04-26T07:44:36Z</time></trkpt><trkpt lat="45.68233602351988" lon="11.34933606790229"><ele>290.5</ele><time>2026-04-26T07:44:37Z</time></trkpt><trkpt lat="45.6823852383167" lon="11.34915939220769"><ele>297.0</ele><time>2026-04-26T07:44:38Z</time></trkpt><trkpt lat="45.6823891108161" lon="11.348953882971342"><ele>299.25</ele><time>2026-04-26T07:44:39Z</time></trkpt><trkpt lat="45.68241089369483" lon="11.348761936355848"><ele>301.5</ele><time>2026-04-26T07:44:40Z</time></trkpt><trkpt lat="45.68242074626109" lon="11.348563363379036"><ele>303.75</ele><time>2026-04-26T07:44:41Z</time></trkpt><trkpt lat="45.6824251547977" lon="11.348361389991425"><ele>306.0</ele><time>2026-04-26T07:44:42Z</time></trkpt><trkpt lat="45.68241726738612" lon="11.348161979389099"><ele>308.6666666666667</ele><time>2026-04-26T07:44:43Z</time></trkpt><trkpt lat="45.682396995995205" lon="11.347955293147798"><ele>311.33333333333337</ele><time>2026-04-26T07:44:44Z</time></trkpt><trkpt lat="45.682353523749654" lon="11.3477209666149"><ele>314.0</ele><time>2026-04-26T07:44:45Z</time></trkpt><trkpt lat="45.682307460290474" lon="11.347481291784558"><ele>314.0</ele><time>2026-04-26T07:44:46Z</time></trkpt><trkpt lat="45.68225614680105" lon="11.347256949444043"><ele>314.0</ele><time>2026-04-26T07:44:47Z</time></trkpt><trkpt lat="45.682190545316345" lon="11.347057582512521"><ele>314.0</ele><time>2026-04-26T07:44:48Z</time></trkpt><trkpt lat="45.68212685460631" lon="11.346849806297516"><ele>314.0</ele><time>2026-04-26T07:44:49Z</time></trkpt><trkpt lat="45.68203736787155" lon="11.346636097653484"><ele>314.0</ele><time>2026-04-26T07:44:50Z</time></trkpt><trkpt lat="45.68195692198454" lon="11.346418908982608"><ele>314.0</ele><time>2026-04-26T07:44:51Z</time></trkpt><trkpt lat="45.68184723798796" lon="11.346256089196244"><ele>321.0</ele><time>2026-04-26T07:44:52Z</time></trkpt><trkpt lat="45.6817314024134" lon="11.346073694991247"><ele>328.0</ele><time>2026-04-26T07:44:53Z</time></trkpt><trkpt lat="45.68162971293212" lon="11.345893356475752"><ele>335.0</ele><time>2026-04-26T07:44:54Z</time></trkpt><trkpt lat="45.681531139090566" lon="11.345714780956975"><ele>335.5</ele><time>2026-04-26T07:44:55Z</time></trkpt><trkpt lat="45.681447760402" lon="11.345543135173267"><ele>336.0</ele><time>2026-04-26T07:44:56Z</time></trkpt><trkpt lat="45.68136560115934" lon="11.345383797270452"><ele>336.5</ele><time>2026-04-26T07:44:57Z</time></trkpt><trkpt lat="45.68128838953014" lon="11.345213912387857"><ele>337.0</ele><time>2026-04-26T07:44:58Z</time></trkpt><trkpt lat="45.681194592706085" lon="11.34506333458155"><ele>337.0</ele><time>2026-04-26T07:44:59Z</time></trkpt><trkpt lat="45.68110333507272" lon="11.344913206469954"><ele>337.0</ele><time>2026-04-26T07:45:00Z</time></trkpt><trkpt lat="45.68099835622842" lon="11.344791446599123"><ele>337.0</ele><time>2026-04-26T07:45:01Z</time></trkpt><trkpt lat="45.68090557006758" lon="11.344739312372559"><ele>337.0</ele><time>2026-04-26T07:45:02Z</time></trkpt><trkpt lat="45.68081950108363" lon="11.34464143874427"><ele>339.20000000000005</ele><time>2026-04-26T07:45:03Z</time></trkpt><trkpt lat="45.68073421893121" lon="11.344578492623299"><ele>341.4</ele><time>2026-04-26T07:45:04Z</time></trkpt><trkpt lat="45.68063861730047" lon="11.344536522414263"><ele>343.6</ele><time>2026-04-26T07:45:05Z</time></trkpt><trkpt lat="45.6805540954596" lon="11.344582537582141"><ele>345.79999999999995</ele><time>2026-04-26T07:45:06Z</time></trkpt><trkpt lat="45.68046868234776" lon="11.344691515860319"><ele>348.0</ele><time>2026-04-26T07:45:06.999Z</time></trkpt><trkpt lat="45.68043505957547" lon="11.344830960135686"><ele>348.0</ele><time>2026-04-26T07:45:07.999Z</time></trkpt><trkpt lat="45.68044479759624" lon="11.344965920110091"><ele>348.0</ele><time>2026-04-26T07:45:08.999Z</time></trkpt><trkpt lat="45.680409431185126" lon="11.345063000907754"><ele>348.0</ele><time>2026-04-26T07:45:09.999Z</time></trkpt><trkpt lat="45.680338166191035" lon="11.345057340793648"><ele>348.0</ele><time>2026-04-26T07:45:11.999Z</time></trkpt><trkpt lat="45.68030824025178" lon="11.34496217395569"><ele>348.0</ele><time>2026-04-26T07:45:12.999Z</time></trkpt><trkpt lat="45.68036030873654" lon="11.344825156374716"><ele>348.0</ele><time>2026-04-26T07:45:13.999Z</time></trkpt><trkpt lat="45.68040322486119" lon="11.344669565451351"><ele>349.59999999999997</ele><time>2026-04-26T07:45:14.999Z</time></trkpt><trkpt lat="45.6804327445238" lon="11.344509400103869"><ele>351.2</ele><time>2026-04-26T07:45:15.999Z</time></trkpt><trkpt lat="45.68040093731855" lon="11.344363334729769"><ele>352.8</ele><time>2026-04-26T07:45:16.999Z</time></trkpt><trkpt lat="45.68034935106341" lon="11.344252581036175"><ele>354.4</ele><time>2026-04-26T07:45:17.999Z</time></trkpt><trkpt lat="45.68030222107478" lon="11.344153456916244"><ele>356.0</ele><time>2026-04-26T07:45:18.999Z</time></trkpt><trkpt lat="45.68029128310851" lon="11.344045188741136"><ele>356.0</ele><time>2026-04-26T07:45:19.999Z</time></trkpt><trkpt lat="45.680305139840605" lon="11.343926490527558"><ele>356.0</ele><time>2026-04-26T07:45:20.999Z</time></trkpt><trkpt lat="45.680367096688656" lon="11.343796571104102"><ele>356.0</ele><time>2026-04-26T07:45:21.999Z</time></trkpt><trkpt lat="45.6804526377652" lon="11.343658802409763"><ele>356.0</ele><time>2026-04-26T07:45:22.999Z</time></trkpt><trkpt lat="45.68054499922821" lon="11.343532532681852"><ele>357.75</ele><time>2026-04-26T07:45:23.999Z</time></trkpt><trkpt lat="45.68063510853444" lon="11.343413553400023"><ele>359.5</ele><time>2026-04-26T07:45:24.999Z</time></trkpt><trkpt lat="45.68070582965236" lon="11.343283443520905"><ele>361.25</ele><time>2026-04-26T07:45:25.999Z</time></trkpt><trkpt lat="45.68078543581071" lon="11.343156824127764"><ele>363.0</ele><time>2026-04-26T07:45:26.999Z</time></trkpt><trkpt lat="45.680858213841056" lon="11.343003709937424"><ele>363.75</ele><time>2026-04-26T07:45:27.999Z</time></trkpt><trkpt lat="45.68093050725097" lon="11.342847744764091"><ele>364.5</ele><time>2026-04-26T07:45:28.999Z</time></trkpt><trkpt lat="45.681020263126186" lon="11.342689588674439"><ele>365.25</ele><time>2026-04-26T07:45:29.999Z</time></trkpt><trkpt lat="45.68108521309952" lon="11.34250857426307"><ele>366.0</ele><time>2026-04-26T07:45:30.999Z</time></trkpt><trkpt lat="45.68116026062113" lon="11.342353555125127"><ele>366.0</ele><time>2026-04-26T07:45:31.999Z</time></trkpt><trkpt lat="45.681247902745" lon="11.342193990421215"><ele>366.0</ele><time>2026-04-26T07:45:32.999Z</time></trkpt><trkpt lat="45.68133154129387" lon="11.342023625239376"><ele>366.0</ele><time>2026-04-26T07:45:33.999Z</time></trkpt><trkpt lat="45.68140625322434" lon="11.341844283587431"><ele>366.0</ele><time>2026-04-26T07:45:34.999Z</time></trkpt><trkpt lat="45.6814668900308" lon="11.341648425324527"><ele>366.0</ele><time>2026-04-26T07:45:35.999Z</time></trkpt><trkpt lat="45.6815684107403" lon="11.341479189246291"><ele>366.0</ele><time>2026-04-26T07:45:36.999Z</time></trkpt><trkpt lat="45.68167217717912" lon="11.341356269808319"><ele>366.0</ele><time>2026-04-26T07:45:37.999Z</time></trkpt><trkpt lat="45.68177590556419" lon="11.34121953489078"><ele>366.0</ele><time>2026-04-26T07:45:38.999Z</time></trkpt><trkpt lat="45.681876009794856" lon="11.341098696254077"><ele>369.25</ele><time>2026-04-26T07:45:39.999Z</time></trkpt><trkpt lat="45.68197981100453" lon="11.34099694539132"><ele>372.5</ele><time>2026-04-26T07:45:40.999Z</time></trkpt><trkpt lat="45.682086355884294" lon="11.340895142315723"><ele>375.75</ele><time>2026-04-26T07:45:41.999Z</time></trkpt><trkpt lat="45.682194187749296" lon="11.340808384666666"><ele>379.0</ele><time>2026-04-26T07:45:42.999Z</time></trkpt><trkpt lat="45.682300154972936" lon="11.34070599377166"><ele>379.0</ele><time>2026-04-26T07:45:43.999Z</time></trkpt><trkpt lat="45.68240206193511" lon="11.340583177712952"><ele>379.0</ele><time>2026-04-26T07:45:44.999Z</time></trkpt><trkpt lat="45.68250309379075" lon="11.34046878244023"><ele>379.0</ele><time>2026-04-26T07:45:45.999Z</time></trkpt><trkpt lat="45.6825903675147" lon="11.340350179035099"><ele>379.0</ele><time>2026-04-26T07:45:46.999Z</time></trkpt><trkpt lat="45.68264807253591" lon="11.340229090623586"><ele>381.0</ele><time>2026-04-26T07:45:47.999Z</time></trkpt><trkpt lat="45.682697379160054" lon="11.34010740962161"><ele>383.0</ele><time>2026-04-26T07:45:48.999Z</time></trkpt><trkpt lat="45.682749102178796" lon="11.33996270856012"><ele>385.0</ele><time>2026-04-26T07:45:49.999Z</time></trkpt><trkpt lat="45.68278042083374" lon="11.339812792579048"><ele>387.0</ele><time>2026-04-26T07:45:50.999Z</time></trkpt><trkpt lat="45.682786568130105" lon="11.339658492418222"><ele>389.0</ele><time>2026-04-26T07:45:51.999Z</time></trkpt><trkpt lat="45.68279993553329" lon="11.339486104297771"><ele>389.25</ele><time>2026-04-26T07:45:52.999Z</time></trkpt><trkpt lat="45.682813454971594" lon="11.339313825353024"><ele>389.5</ele><time>2026-04-26T07:45:53.999Z</time></trkpt><trkpt lat="45.682830987526756" lon="11.339134998707948"><ele>389.75</ele><time>2026-04-26T07:45:54.999Z</time></trkpt><trkpt lat="45.682816098865096" lon="11.338980693576822"><ele>390.0</ele><time>2026-04-26T07:45:55.999Z</time></trkpt><trkpt lat="45.68278475285698" lon="11.338831607460937"><ele>394.0</ele><time>2026-04-26T07:45:56.999Z</time></trkpt><trkpt lat="45.682743500180706" lon="11.33867873944097"><ele>398.0</ele><time>2026-04-26T07:45:57.999Z</time></trkpt><trkpt lat="45.682701343086" lon="11.338525551005509"><ele>402.0</ele><time>2026-04-26T07:45:58.999Z</time></trkpt><trkpt lat="45.68263995334887" lon="11.338378465700744"><ele>406.0</ele><time>2026-04-26T07:45:59.999Z</time></trkpt><trkpt lat="45.682615165787986" lon="11.338232401784333"><ele>406.00000000000006</ele><time>2026-04-26T07:46:00.999Z</time></trkpt><trkpt lat="45.6825936063376" lon="11.338092852335535"><ele>406.0</ele><time>2026-04-26T07:46:01.999Z</time></trkpt><trkpt lat="45.68257209106533" lon="11.337965822146337"><ele>406.0</ele><time>2026-04-26T07:46:02.999Z</time></trkpt><trkpt lat="45.68256720376661" lon="11.337830794661071"><ele>406.0</ele><time>2026-04-26T07:46:03.999Z</time></trkpt><trkpt lat="45.682559880896214" lon="11.33771246476976"><ele>406.00000000000006</ele><time>2026-04-26T07:46:04.999Z</time></trkpt><trkpt lat="45.682549529554265" lon="11.337618934487368"><ele>406.0</ele><time>2026-04-26T07:46:05.999Z</time></trkpt><trkpt lat="45.68254620930459" lon="11.3374810171121"><ele>406.6666666666667</ele><time>2026-04-26T07:46:07.999Z</time></trkpt><trkpt lat="45.682523440825456" lon="11.337377446266865"><ele>407.33333333333337</ele><time>2026-04-26T07:46:09.999Z</time></trkpt><trkpt lat="45.682545290385136" lon="11.337274586378205"><ele>408.0</ele><time>2026-04-26T07:46:11.999Z</time></trkpt><trkpt lat="45.682544229961294" lon="11.337168984755712"><ele>408.66666666666663</ele><time>2026-04-26T07:46:13.999Z</time></trkpt><trkpt lat="45.68251210268778" lon="11.337046301834844"><ele>409.3333333333333</ele><time>2026-04-26T07:46:15.999Z</time></trkpt><trkpt lat="45.68246231336518" lon="11.336909946289243"><ele>410.0</ele><time>2026-04-26T07:46:17.999Z</time></trkpt><trkpt lat="45.68245084849973" lon="11.336794613657398"><ele>410.66666666666663</ele><time>2026-04-26T07:46:19.999Z</time></trkpt><trkpt lat="45.68242995997176" lon="11.336658980489196"><ele>411.3333333333333</ele><time>2026-04-26T07:46:21.999Z</time></trkpt><trkpt lat="45.68242010284386" lon="11.336512416519462"><ele>412.0</ele><time>2026-04-26T07:46:23.999Z</time></trkpt><trkpt lat="45.682433025075504" lon="11.336389494993218"><ele>412.66666666666663</ele><time>2026-04-26T07:46:25.999Z</time></trkpt><trkpt lat="45.682409829783055" lon="11.336284588325254"><ele>413.3333333333333</ele><time>2026-04-26T07:46:27.999Z</time></trkpt><trkpt lat="45.68237052779159" lon="11.336188056414233"><ele>414.0</ele><time>2026-04-26T07:46:28.999Z</time></trkpt><trkpt lat="45.68235659818948" lon="11.336062042674302"><ele>416.0</ele><time>2026-04-26T07:46:29.999Z</time></trkpt><trkpt lat="45.682344115365346" lon="11.335929350818867"><ele>418.0</ele><time>2026-04-26T07:46:30.999Z</time></trkpt><trkpt lat="45.682344013664135" lon="11.335804099642614"><ele>420.0</ele><time>2026-04-26T07:46:31.999Z</time></trkpt><trkpt lat="45.682338235707924" lon="11.335653284989199"><ele>422.0</ele><time>2026-04-26T07:46:32.999Z</time></trkpt><trkpt lat="45.682346752878466" lon="11.33550315752588"><ele>424.0</ele><time>2026-04-26T07:46:33.999Z</time></trkpt><trkpt lat="45.68235480916029" lon="11.335347890778637"><ele>426.0</ele><time>2026-04-26T07:46:34.999Z</time></trkpt><trkpt lat="45.68235531470239" lon="11.335195094587924"><ele>428.0</ele><time>2026-04-26T07:46:35.999Z</time></trkpt><trkpt lat="45.68237215580924" lon="11.335068369154428"><ele>430.0</ele><time>2026-04-26T07:46:36.999Z</time></trkpt><trkpt lat="45.68240468604644" lon="11.334958185780318"><ele>432.0</ele><time>2026-04-26T07:46:37.999Z</time></trkpt><trkpt lat="45.682473711704354" lon="11.334862522394575"><ele>434.0</ele><time>2026-04-26T07:46:38.999Z</time></trkpt><trkpt lat="45.68254730050526" lon="11.334745273421648"><ele>434.0</ele><time>2026-04-26T07:46:39.999Z</time></trkpt><trkpt lat="45.682667864991906" lon="11.334732100156812"><ele>434.0</ele><time>2026-04-26T07:46:40.999Z</time></trkpt><trkpt lat="45.68278349144243" lon="11.334759452608804"><ele>434.0</ele><time>2026-04-26T07:46:41.999Z</time></trkpt><trkpt lat="45.68288514742469" lon="11.334784377606477"><ele>434.0</ele><time>2026-04-26T07:46:42.999Z</time></trkpt><trkpt lat="45.682968824743874" lon="11.334834593018485"><ele>434.0</ele><time>2026-04-26T07:46:43.999Z</time></trkpt><trkpt lat="45.68304057166898" lon="11.334839222783149"><ele>435.0</ele><time>2026-04-26T07:46:44.999Z</time></trkpt><trkpt lat="45.68314126806179" lon="11.334821334232663"><ele>436.0</ele><time>2026-04-26T07:46:46.999Z</time></trkpt><trkpt lat="45.68316263808563" lon="11.33473080560016"><ele>437.0</ele><time>2026-04-26T07:46:51.999Z</time></trkpt><trkpt lat="45.683089684596176" lon="11.334566638300444"><ele>438.0</ele><time>2026-04-26T07:46:56.999Z</time></trkpt><trkpt lat="45.68299879857693" lon="11.334508020313542"><ele>439.0</ele><time>2026-04-26T07:46:57.999Z</time></trkpt><trkpt lat="45.682871518903596" lon="11.334448541575597"><ele>440.5</ele><time>2026-04-26T07:46:58.999Z</time></trkpt><trkpt lat="45.68272784564757" lon="11.334376160131345"><ele>442.0</ele><time>2026-04-26T07:46:59.999Z</time></trkpt><trkpt lat="45.68261045356526" lon="11.334294129712065"><ele>443.5</ele><time>2026-04-26T07:47:00.999Z</time></trkpt><trkpt lat="45.682504924134584" lon="11.334214929715614"><ele>445.0</ele><time>2026-04-26T07:47:01.999Z</time></trkpt><trkpt lat="45.68240466181049" lon="11.334125766443744"><ele>445.0</ele><time>2026-04-26T07:47:02.999Z</time></trkpt><trkpt lat="45.68229924964533" lon="11.334037078686094"><ele>445.0</ele><time>2026-04-26T07:47:03.999Z</time></trkpt><trkpt lat="45.682192555572705" lon="11.33394950452846"><ele>445.0</ele><time>2026-04-26T07:47:04.999Z</time></trkpt><trkpt lat="45.68208726267362" lon="11.33385752097577"><ele>445.0</ele><time>2026-04-26T07:47:05.999Z</time></trkpt><trkpt lat="45.68198324071263" lon="11.333762870315912"><ele>447.25</ele><time>2026-04-26T07:47:06.999Z</time></trkpt><trkpt lat="45.68187731261439" lon="11.333675661186287"><ele>449.5</ele><time>2026-04-26T07:47:07.999Z</time></trkpt><trkpt lat="45.681785469102316" lon="11.333577049566712"><ele>451.75</ele><time>2026-04-26T07:47:08.999Z</time></trkpt><trkpt lat="45.68170676142827" lon="11.333471785633536"><ele>454.0</ele><time>2026-04-26T07:47:09.999Z</time></trkpt><trkpt lat="45.68163688644233" lon="11.33335974318579"><ele>454.0</ele><time>2026-04-26T07:47:10.999Z</time></trkpt><trkpt lat="45.68157965134744" lon="11.333235341328823"><ele>454.0</ele><time>2026-04-26T07:47:11.999Z</time></trkpt><trkpt lat="45.6815348309665" lon="11.333098049817108"><ele>454.0</ele><time>2026-04-26T07:47:12.999Z</time></trkpt><trkpt lat="45.68148709311923" lon="11.332964015517769"><ele>454.0</ele><time>2026-04-26T07:47:13.999Z</time></trkpt><trkpt lat="45.681433693226715" lon="11.332841145301872"><ele>454.0</ele><time>2026-04-26T07:47:14.999Z</time></trkpt><trkpt lat="45.68137064481915" lon="11.332729198845412"><ele>454.6</ele><time>2026-04-26T07:47:15.999Z</time></trkpt><trkpt lat="45.68129789933714" lon="11.332639612291889"><ele>455.2</ele><time>2026-04-26T07:47:16.999Z</time></trkpt><trkpt lat="45.68122256111586" lon="11.332558442072923"><ele>455.80000000000007</ele><time>2026-04-26T07:47:17.999Z</time></trkpt><trkpt lat="45.681149575451514" lon="11.33247602646657"><ele>456.40000000000003</ele><time>2026-04-26T07:47:18.999Z</time></trkpt><trkpt lat="45.68108374309543" lon="11.332386571167032"><ele>457.0</ele><time>2026-04-26T07:47:19.999Z</time></trkpt><trkpt lat="45.68103179823678" lon="11.3322747606085"><ele>460.0</ele><time>2026-04-26T07:47:20.999Z</time></trkpt><trkpt lat="45.68098069288003" lon="11.33215027245108"><ele>463.0</ele><time>2026-04-26T07:47:21.999Z</time></trkpt><trkpt lat="45.68093605029266" lon="11.332001907869614"><ele>466.0</ele><time>2026-04-26T07:47:22.999Z</time></trkpt><trkpt lat="45.68089322945546" lon="11.331841847802238"><ele>469.0</ele><time>2026-04-26T07:47:23.999Z</time></trkpt><trkpt lat="45.68085796673052" lon="11.331673481728147"><ele>469.0</ele><time>2026-04-26T07:47:24.999Z</time></trkpt><trkpt lat="45.680827069005645" lon="11.331504623045761"><ele>469.0</ele><time>2026-04-26T07:47:25.999Z</time></trkpt><trkpt lat="45.68080141092075" lon="11.331342026506467"><ele>469.0</ele><time>2026-04-26T07:47:26.999Z</time></trkpt><trkpt lat="45.68077691528618" lon="11.331193160285356"><ele>469.0</ele><time>2026-04-26T07:47:27.999Z</time></trkpt><trkpt lat="45.68075929983756" lon="11.331067900588959"><ele>469.0</ele><time>2026-04-26T07:47:28.999Z</time></trkpt><trkpt lat="45.68072733165924" lon="11.330980543031"><ele>470.0</ele><time>2026-04-26T07:47:29.999Z</time></trkpt><trkpt lat="45.68067953882147" lon="11.330914981633306"><ele>471.0</ele><time>2026-04-26T07:47:30.999Z</time></trkpt><trkpt lat="45.68057007595285" lon="11.330817829604458"><ele>472.0</ele><time>2026-04-26T07:47:32.999Z</time></trkpt><trkpt lat="45.68047245059757" lon="11.330859647693357"><ele>473.0</ele><time>2026-04-26T07:47:33.999Z</time></trkpt><trkpt lat="45.68035341834009" lon="11.330878785427933"><ele>474.0</ele><time>2026-04-26T07:47:34.999Z</time></trkpt><trkpt lat="45.68023139820798" lon="11.330869945147391"><ele>475.2</ele><time>2026-04-26T07:47:35.999Z</time></trkpt><trkpt lat="45.68011163771734" lon="11.330861565889402"><ele>476.4</ele><time>2026-04-26T07:47:36.999Z</time></trkpt><trkpt lat="45.68000317768622" lon="11.330850485416937"><ele>477.6</ele><time>2026-04-26T07:47:37.999Z</time></trkpt><trkpt lat="45.67990764543282" lon="11.330841752828341"><ele>478.8</ele><time>2026-04-26T07:47:38.999Z</time></trkpt><trkpt lat="45.67983287316537" lon="11.330832386618459"><ele>480.0</ele><time>2026-04-26T07:47:39.999Z</time></trkpt><trkpt lat="45.679766523093846" lon="11.33082891006531"><ele>480.0</ele><time>2026-04-26T07:47:40.999Z</time></trkpt><trkpt lat="45.679707972303326" lon="11.330715348685299"><ele>480.0</ele><time>2026-04-26T07:47:42.999Z</time></trkpt><trkpt lat="45.67972534891053" lon="11.330613972292515"><ele>480.0</ele><time>2026-04-26T07:47:43.999Z</time></trkpt><trkpt lat="45.6797753424635" lon="11.330510149713952"><ele>480.0</ele><time>2026-04-26T07:47:44.999Z</time></trkpt><trkpt lat="45.67983956152127" lon="11.330407012308253"><ele>480.0</ele><time>2026-04-26T07:47:45.999Z</time></trkpt><trkpt lat="45.679903457142075" lon="11.330283713042572"><ele>482.75</ele><time>2026-04-26T07:47:46.999Z</time></trkpt><trkpt lat="45.679972128962305" lon="11.330140839367063"><ele>485.5</ele><time>2026-04-26T07:47:47.999Z</time></trkpt><trkpt lat="45.68005047323058" lon="11.3299847609346"><ele>488.25</ele><time>2026-04-26T07:47:48.999Z</time></trkpt><trkpt lat="45.68013832355308" lon="11.329827477829664"><ele>491.0</ele><time>2026-04-26T07:47:49.999Z</time></trkpt><trkpt lat="45.6802332451841" lon="11.329660195474181"><ele>494.25</ele><time>2026-04-26T07:47:50.999Z</time></trkpt><trkpt lat="45.680330899113" lon="11.329488679505408"><ele>497.5</ele><time>2026-04-26T07:47:51.999Z</time></trkpt><trkpt lat="45.680414547133076" lon="11.329321716394578"><ele>500.75</ele><time>2026-04-26T07:47:52.999Z</time></trkpt><trkpt lat="45.6804903607607" lon="11.329178246908917"><ele>504.0</ele><time>2026-04-26T07:47:53.999Z</time></trkpt><trkpt lat="45.68055754256756" lon="11.329052193659358"><ele>504.0</ele><time>2026-04-26T07:47:54.999Z</time></trkpt><trkpt lat="45.68062346609344" lon="11.328937867754568"><ele>504.0</ele><time>2026-04-26T07:47:55.999Z</time></trkpt><trkpt lat="45.680706313033774" lon="11.328874019750753"><ele>504.0</ele><time>2026-04-26T07:47:56.999Z</time></trkpt><trkpt lat="45.680796107703934" lon="11.32882795518408"><ele>504.0</ele><time>2026-04-26T07:47:57.999Z</time></trkpt><trkpt lat="45.68088706972735" lon="11.328799582349058"><ele>504.0</ele><time>2026-04-26T07:47:58.999Z</time></trkpt><trkpt lat="45.680969311164425" lon="11.3287633352174"><ele>505.5</ele><time>2026-04-26T07:47:59.999Z</time></trkpt><trkpt lat="45.68104445067845" lon="11.32872113427677"><ele>507.0</ele><time>2026-04-26T07:48:00.998Z</time></trkpt><trkpt lat="45.681108466099936" lon="11.328672840831189"><ele>508.5</ele><time>2026-04-26T07:48:01.998Z</time></trkpt><trkpt lat="45.681188203220444" lon="11.32856231612979"><ele>510.0</ele><time>2026-04-26T07:48:03.998Z</time></trkpt><trkpt lat="45.6811580521948" lon="11.328479259424478"><ele>511.5</ele><time>2026-04-26T07:48:04.998Z</time></trkpt><trkpt lat="45.681110729359226" lon="11.328362784926657"><ele>513.0</ele><time>2026-04-26T07:48:05.998Z</time></trkpt><trkpt lat="45.68108368040238" lon="11.328240236525561"><ele>513.0</ele><time>2026-04-26T07:48:06.998Z</time></trkpt><trkpt lat="45.68108343220842" lon="11.328108888238058"><ele>513.0</ele><time>2026-04-26T07:48:07.998Z</time></trkpt><trkpt lat="45.681116410517916" lon="11.327978753384194"><ele>513.0</ele><time>2026-04-26T07:48:08.998Z</time></trkpt><trkpt lat="45.68117486546203" lon="11.327855202756883"><ele>513.0</ele><time>2026-04-26T07:48:09.998Z</time></trkpt><trkpt lat="45.68124386684024" lon="11.32772892383183"><ele>513.0</ele><time>2026-04-26T07:48:10.998Z</time></trkpt><trkpt lat="45.681314434227815" lon="11.327595268196864"><ele>514.4</ele><time>2026-04-26T07:48:11.998Z</time></trkpt><trkpt lat="45.68138467532416" lon="11.327452671777628"><ele>515.8</ele><time>2026-04-26T07:48:12.998Z</time></trkpt><trkpt lat="45.68144688373503" lon="11.327310961413833"><ele>517.2</ele><time>2026-04-26T07:48:13.998Z</time></trkpt><trkpt lat="45.681498471964495" lon="11.327178071765118"><ele>518.6</ele><time>2026-04-26T07:48:14.998Z</time></trkpt><trkpt lat="45.68153004965503" lon="11.327049973339799"><ele>520.0</ele><time>2026-04-26T07:48:15.998Z</time></trkpt><trkpt lat="45.68152690459885" lon="11.326913657588392"><ele>520.2</ele><time>2026-04-26T07:48:16.998Z</time></trkpt><trkpt lat="45.68151826797072" lon="11.326774480542245"><ele>520.4</ele><time>2026-04-26T07:48:17.998Z</time></trkpt><trkpt lat="45.68150318383447" lon="11.326633419097428"><ele>520.6</ele><time>2026-04-26T07:48:18.998Z</time></trkpt><trkpt lat="45.68148326824967" lon="11.326490287806665"><ele>520.8</ele><time>2026-04-26T07:48:19.998Z</time></trkpt><trkpt lat="45.68146894952364" lon="11.32634724914932"><ele>521.0</ele><time>2026-04-26T07:48:20.998Z</time></trkpt><trkpt lat="45.68146311947184" lon="11.326201495556992"><ele>521.2</ele><time>2026-04-26T07:48:21.998Z</time></trkpt><trkpt lat="45.681466252597616" lon="11.326055942292056"><ele>521.4000000000001</ele><time>2026-04-26T07:48:22.998Z</time></trkpt><trkpt lat="45.681476158231746" lon="11.32591502610169"><ele>521.6</ele><time>2026-04-26T07:48:23.998Z</time></trkpt><trkpt lat="45.68148826662436" lon="11.325772891284004"><ele>521.8000000000001</ele><time>2026-04-26T07:48:24.998Z</time></trkpt><trkpt lat="45.68150036867152" lon="11.325622244753994"><ele>522.0</ele><time>2026-04-26T07:48:25.998Z</time></trkpt><trkpt lat="45.68151124762172" lon="11.325464052135597"><ele>522.0</ele><time>2026-04-26T07:48:26.998Z</time></trkpt><trkpt lat="45.6815162141804" lon="11.325305298189434"><ele>522.0</ele><time>2026-04-26T07:48:27.998Z</time></trkpt><trkpt lat="45.68152716530906" lon="11.325143221753477"><ele>522.0</ele><time>2026-04-26T07:48:28.998Z</time></trkpt><trkpt lat="45.681524586750875" lon="11.324982233661778"><ele>522.0</ele><time>2026-04-26T07:48:29.998Z</time></trkpt><trkpt lat="45.681517003608604" lon="11.324832997958536"><ele>522.0</ele><time>2026-04-26T07:48:30.998Z</time></trkpt><trkpt lat="45.68149303169736" lon="11.324694853056624"><ele>522.4</ele><time>2026-04-26T07:48:31.998Z</time></trkpt><trkpt lat="45.6814682299251" lon="11.324559671627105"><ele>522.8000000000001</ele><time>2026-04-26T07:48:32.998Z</time></trkpt><trkpt lat="45.68142439615082" lon="11.324432125680485"><ele>523.2</ele><time>2026-04-26T07:48:33.998Z</time></trkpt><trkpt lat="45.68138010017846" lon="11.324313840141887"><ele>523.6</ele><time>2026-04-26T07:48:34.998Z</time></trkpt><trkpt lat="45.681327610535476" lon="11.324199232304768"><ele>524.0</ele><time>2026-04-26T07:48:35.998Z</time></trkpt><trkpt lat="45.68129058449419" lon="11.324082680043976"><ele>524.0</ele><time>2026-04-26T07:48:36.998Z</time></trkpt><trkpt lat="45.681271050378264" lon="11.323963201221934"><ele>524.0</ele><time>2026-04-26T07:48:37.998Z</time></trkpt><trkpt lat="45.681286680820484" lon="11.32385168361781"><ele>524.0</ele><time>2026-04-26T07:48:38.998Z</time></trkpt><trkpt lat="45.68132934972364" lon="11.3237485507206"><ele>524.0</ele><time>2026-04-26T07:48:39.998Z</time></trkpt><trkpt lat="45.6813726539306" lon="11.323637342795648"><ele>524.0</ele><time>2026-04-26T07:48:40.998Z</time></trkpt><trkpt lat="45.68142247560055" lon="11.323524304413004"><ele>524.0</ele><time>2026-04-26T07:48:41.998Z</time></trkpt><trkpt lat="45.681504663018615" lon="11.323425851966242"><ele>526.5</ele><time>2026-04-26T07:48:42.998Z</time></trkpt><trkpt lat="45.681598104697024" lon="11.323339157478328"><ele>529.0</ele><time>2026-04-26T07:48:43.998Z</time></trkpt><trkpt lat="45.681694644109164" lon="11.323253617615054"><ele>531.5</ele><time>2026-04-26T07:48:44.998Z</time></trkpt><trkpt lat="45.68179075733644" lon="11.323164270248416"><ele>534.0</ele><time>2026-04-26T07:48:45.998Z</time></trkpt><trkpt lat="45.68186958762605" lon="11.323045436862573"><ele>536.0</ele><time>2026-04-26T07:48:46.998Z</time></trkpt><trkpt lat="45.681938019614826" lon="11.322915681300076"><ele>538.0</ele><time>2026-04-26T07:48:47.998Z</time></trkpt><trkpt lat="45.681985845421025" lon="11.322755087362124"><ele>540.0</ele><time>2026-04-26T07:48:48.998Z</time></trkpt><trkpt lat="45.682025524180865" lon="11.322583305538606"><ele>542.0</ele><time>2026-04-26T07:48:49.998Z</time></trkpt><trkpt lat="45.682069171434705" lon="11.322424676350535"><ele>542.0</ele><time>2026-04-26T07:48:50.998Z</time></trkpt><trkpt lat="45.682121705860084" lon="11.322279422114379"><ele>542.0</ele><time>2026-04-26T07:48:51.998Z</time></trkpt><trkpt lat="45.68218597071584" lon="11.322139462664254"><ele>542.0</ele><time>2026-04-26T07:48:52.998Z</time></trkpt><trkpt lat="45.682253567311975" lon="11.322013876285999"><ele>542.0</ele><time>2026-04-26T07:48:53.998Z</time></trkpt><trkpt lat="45.68230467197606" lon="11.321895807049874"><ele>542.0</ele><time>2026-04-26T07:48:54.998Z</time></trkpt><trkpt lat="45.68235698025771" lon="11.321790778380377"><ele>544.0</ele><time>2026-04-26T07:48:55.998Z</time></trkpt><trkpt lat="45.682442355926874" lon="11.321748768337942"><ele>546.0</ele><time>2026-04-26T07:48:56.998Z</time></trkpt><trkpt lat="45.68252424132528" lon="11.32178915293893"><ele>548.0</ele><time>2026-04-26T07:48:57.998Z</time></trkpt><trkpt lat="45.682617064982416" lon="11.32183248301881"><ele>550.0</ele><time>2026-04-26T07:48:58.998Z</time></trkpt><trkpt lat="45.682725456390784" lon="11.321861667450866"><ele>552.0</ele><time>2026-04-26T07:48:59.998Z</time></trkpt><trkpt lat="45.682846835744655" lon="11.321866359007903"><ele>552.0</ele><time>2026-04-26T07:49:00.998Z</time></trkpt><trkpt lat="45.68297145664618" lon="11.321823069876068"><ele>552.0</ele><time>2026-04-26T07:49:01.998Z</time></trkpt><trkpt lat="45.68310078093959" lon="11.321763931580117"><ele>552.0</ele><time>2026-04-26T07:49:02.998Z</time></trkpt><trkpt lat="45.683227196902905" lon="11.321682192539505"><ele>552.0</ele><time>2026-04-26T07:49:03.998Z</time></trkpt><trkpt lat="45.68334992984084" lon="11.321578911992882"><ele>552.0</ele><time>2026-04-26T07:49:04.998Z</time></trkpt><trkpt lat="45.68348045803864" lon="11.321477696788381"><ele>552.0</ele><time>2026-04-26T07:49:05.998Z</time></trkpt><trkpt lat="45.68361979183263" lon="11.32137144552066"><ele>552.0</ele><time>2026-04-26T07:49:06.998Z</time></trkpt><trkpt lat="45.68375343034556" lon="11.32125081440357"><ele>554.0</ele><time>2026-04-26T07:49:07.998Z</time></trkpt><trkpt lat="45.683874138899945" lon="11.32109583834247"><ele>556.0</ele><time>2026-04-26T07:49:08.998Z</time></trkpt><trkpt lat="45.683984587457246" lon="11.320898659756132"><ele>558.0</ele><time>2026-04-26T07:49:09.998Z</time></trkpt><trkpt lat="45.684100853407074" lon="11.320689105833385"><ele>561.3333333333334</ele><time>2026-04-26T07:49:10.998Z</time></trkpt><trkpt lat="45.684218751158966" lon="11.320502402454037"><ele>564.6666666666667</ele><time>2026-04-26T07:49:11.998Z</time></trkpt><trkpt lat="45.68431525091532" lon="11.320326726805872"><ele>568.0</ele><time>2026-04-26T07:49:12.998Z</time></trkpt><trkpt lat="45.68439621855448" lon="11.320172693364505"><ele>567.25</ele><time>2026-04-26T07:49:13.998Z</time></trkpt><trkpt lat="45.684480516934144" lon="11.320025314713861"><ele>566.5</ele><time>2026-04-26T07:49:14.998Z</time></trkpt><trkpt lat="45.68456803290162" lon="11.319889015564184"><ele>565.75</ele><time>2026-04-26T07:49:15.998Z</time></trkpt><trkpt lat="45.68462654752753" lon="11.31976088274841"><ele>565.0</ele><time>2026-04-26T07:49:16.998Z</time></trkpt><trkpt lat="45.6846628270365" lon="11.319627926141353"><ele>565.0</ele><time>2026-04-26T07:49:17.998Z</time></trkpt><trkpt lat="45.68469389561971" lon="11.319481034424047"><ele>565.0</ele><time>2026-04-26T07:49:18.998Z</time></trkpt><trkpt lat="45.68469885546784" lon="11.319329243525884"><ele>565.0</ele><time>2026-04-26T07:49:19.998Z</time></trkpt><trkpt lat="45.68468364911401" lon="11.319176111858305"><ele>565.0</ele><time>2026-04-26T07:49:20.998Z</time></trkpt><trkpt lat="45.68466483723586" lon="11.31902047803386"><ele>565.0</ele><time>2026-04-26T07:49:21.998Z</time></trkpt><trkpt lat="45.6846878375441" lon="11.318875595942504"><ele>566.0</ele><time>2026-04-26T07:49:22.998Z</time></trkpt><trkpt lat="45.68471504503653" lon="11.318746057736961"><ele>567.0</ele><time>2026-04-26T07:49:23.998Z</time></trkpt><trkpt lat="45.684709016050164" lon="11.318632026750866"><ele>568.0</ele><time>2026-04-26T07:49:24.998Z</time></trkpt><trkpt lat="45.684675529048704" lon="11.318518908480668"><ele>569.0</ele><time>2026-04-26T07:49:25.998Z</time></trkpt><trkpt lat="45.68462997198977" lon="11.318428229006395"><ele>570.0</ele><time>2026-04-26T07:49:26.998Z</time></trkpt><trkpt lat="45.684585243617384" lon="11.318326576378299"><ele>571.0</ele><time>2026-04-26T07:49:27.998Z</time></trkpt><trkpt lat="45.684532628267654" lon="11.318251175734819"><ele>571.0</ele><time>2026-04-26T07:49:28.998Z</time></trkpt><trkpt lat="45.684460317305366" lon="11.318171649273797"><ele>571.0</ele><time>2026-04-26T07:49:29.998Z</time></trkpt><trkpt lat="45.68440237084197" lon="11.318095436944548"><ele>571.0</ele><time>2026-04-26T07:49:30.998Z</time></trkpt><trkpt lat="45.684361416667016" lon="11.318007069213085"><ele>571.0</ele><time>2026-04-26T07:49:31.998Z</time></trkpt><trkpt lat="45.684308297061925" lon="11.317936050423251"><ele>571.0</ele><time>2026-04-26T07:49:32.998Z</time></trkpt><trkpt lat="45.68427397088302" lon="11.31782229303088"><ele>571.0</ele><time>2026-04-26T07:49:33.998Z</time></trkpt><trkpt lat="45.684257527974005" lon="11.317720659796844"><ele>575.0</ele><time>2026-04-26T07:49:34.998Z</time></trkpt><trkpt lat="45.68427738810026" lon="11.317594450150946"><ele>579.0</ele><time>2026-04-26T07:49:35.998Z</time></trkpt><trkpt lat="45.68429250134069" lon="11.317466551239017"><ele>583.0</ele><time>2026-04-26T07:49:36.998Z</time></trkpt><trkpt lat="45.684305143754216" lon="11.317347936459674"><ele>587.0</ele><time>2026-04-26T07:49:37.998Z</time></trkpt><trkpt lat="45.684315491434695" lon="11.317246133348846"><ele>591.0</ele><time>2026-04-26T07:49:38.998Z</time></trkpt><trkpt lat="45.68434357539001" lon="11.317132177698042"><ele>595.0</ele><time>2026-04-26T07:49:39.998Z</time></trkpt><trkpt lat="45.68438603228852" lon="11.317030786708141"><ele>593.1666666666667</ele><time>2026-04-26T07:49:40.998Z</time></trkpt><trkpt lat="45.6844385904241" lon="11.316949693508521"><ele>591.3333333333334</ele><time>2026-04-26T07:49:41.998Z</time></trkpt><trkpt lat="45.68450807069253" lon="11.316899027311921"><ele>589.5</ele><time>2026-04-26T07:49:42.998Z</time></trkpt><trkpt lat="45.68455327895873" lon="11.316799478966768"><ele>587.6666666666666</ele><time>2026-04-26T07:49:43.998Z</time></trkpt><trkpt lat="45.684609648907035" lon="11.31669836780633"><ele>585.8333333333333</ele><time>2026-04-26T07:49:44.998Z</time></trkpt><trkpt lat="45.68466135182119" lon="11.316551019027916"><ele>584.0</ele><time>2026-04-26T07:49:45.998Z</time></trkpt><trkpt lat="45.68470030901122" lon="11.31640909511163"><ele>585.0</ele><time>2026-04-26T07:49:46.998Z</time></trkpt><trkpt lat="45.68471150964642" lon="11.316278209841169"><ele>586.0</ele><time>2026-04-26T07:49:47.998Z</time></trkpt><trkpt lat="45.68473132591913" lon="11.316148740308304"><ele>587.0</ele><time>2026-04-26T07:49:48.998Z</time></trkpt><trkpt lat="45.68474084618938" lon="11.315997220811454"><ele>588.0</ele><time>2026-04-26T07:49:49.998Z</time></trkpt><trkpt lat="45.68475235899969" lon="11.315858082214676"><ele>589.0</ele><time>2026-04-26T07:49:50.998Z</time></trkpt><trkpt lat="45.68476921662979" lon="11.315709195402432"><ele>589.5</ele><time>2026-04-26T07:49:51.998Z</time></trkpt><trkpt lat="45.684754411720085" lon="11.315567851922756"><ele>590.0</ele><time>2026-04-26T07:49:52.998Z</time></trkpt><trkpt lat="45.684759775226766" lon="11.315423903153643"><ele>590.5</ele><time>2026-04-26T07:49:53.998Z</time></trkpt><trkpt lat="45.68473350583113" lon="11.315297372101602"><ele>591.0</ele><time>2026-04-26T07:49:54.998Z</time></trkpt><trkpt lat="45.68472941197147" lon="11.315182303074877"><ele>591.5</ele><time>2026-04-26T07:49:55.998Z</time></trkpt><trkpt lat="45.68471131985484" lon="11.315094125039035"><ele>592.0</ele><time>2026-04-26T07:49:56.998Z</time></trkpt><trkpt lat="45.684698577496384" lon="11.314944859924072"><ele>592.0</ele><time>2026-04-26T07:49:57.998Z</time></trkpt><trkpt lat="45.68466946261925" lon="11.31482805592004"><ele>592.0</ele><time>2026-04-26T07:49:58.998Z</time></trkpt><trkpt lat="45.68462369783232" lon="11.314752583169373"><ele>592.0</ele><time>2026-04-26T07:49:59.998Z</time></trkpt><trkpt lat="45.68455273124462" lon="11.314701566359247"><ele>592.0</ele><time>2026-04-26T07:50:00.998Z</time></trkpt><trkpt lat="45.68446633940601" lon="11.31466890403184"><ele>592.0</ele><time>2026-04-26T07:50:01.998Z</time></trkpt><trkpt lat="45.68436531991805" lon="11.314642845757188"><ele>592.0</ele><time>2026-04-26T07:50:02.998Z</time></trkpt><trkpt lat="45.684288153990565" lon="11.314588827187396"><ele>595.8000000000001</ele><time>2026-04-26T07:50:03.998Z</time></trkpt><trkpt lat="45.684223164439345" lon="11.31450483235688"><ele>599.6</ele><time>2026-04-26T07:50:04.998Z</time></trkpt><trkpt lat="45.68420457201943" lon="11.314369464063516"><ele>603.4000000000001</ele><time>2026-04-26T07:50:05.998Z</time></trkpt><trkpt lat="45.68421649465805" lon="11.314237748441565"><ele>607.2</ele><time>2026-04-26T07:50:06.998Z</time></trkpt><trkpt lat="45.68421072096152" lon="11.314093891409911"><ele>611.0</ele><time>2026-04-26T07:50:07.998Z</time></trkpt><trkpt lat="45.68424075878018" lon="11.313973053367784"><ele>610.6</ele><time>2026-04-26T07:50:08.998Z</time></trkpt><trkpt lat="45.68429500538623" lon="11.313864366139699"><ele>610.2</ele><time>2026-04-26T07:50:09.998Z</time></trkpt><trkpt lat="45.68438159640027" lon="11.313802766438755"><ele>609.8</ele><time>2026-04-26T07:50:10.998Z</time></trkpt><trkpt lat="45.684472168334544" lon="11.313741504506613"><ele>609.4</ele><time>2026-04-26T07:50:11.998Z</time></trkpt><trkpt lat="45.68456378058418" lon="11.313700764221768"><ele>609.0</ele><time>2026-04-26T07:50:12.998Z</time></trkpt><trkpt lat="45.68465188433899" lon="11.313643034549775"><ele>609.0</ele><time>2026-04-26T07:50:13.998Z</time></trkpt><trkpt lat="45.684744233753285" lon="11.31358659826392"><ele>609.0</ele><time>2026-04-26T07:50:14.998Z</time></trkpt><trkpt lat="45.6848238442272" lon="11.313525181170723"><ele>609.0</ele><time>2026-04-26T07:50:15.998Z</time></trkpt><trkpt lat="45.68487753049577" lon="11.313434395658726"><ele>609.0</ele><time>2026-04-26T07:50:16.998Z</time></trkpt><trkpt lat="45.68488995725247" lon="11.313225585256546"><ele>609.0</ele><time>2026-04-26T07:50:18.998Z</time></trkpt><trkpt lat="45.684837247792615" lon="11.313113501833787"><ele>608.8</ele><time>2026-04-26T07:50:19.998Z</time></trkpt><trkpt lat="45.68478355924199" lon="11.312990734121094"><ele>608.5999999999999</ele><time>2026-04-26T07:50:20.998Z</time></trkpt><trkpt lat="45.68474755366536" lon="11.312858248495624"><ele>608.4</ele><time>2026-04-26T07:50:21.998Z</time></trkpt><trkpt lat="45.68470719843542" lon="11.312709454376648"><ele>608.1999999999999</ele><time>2026-04-26T07:50:22.998Z</time></trkpt><trkpt lat="45.68466520168065" lon="11.312539856540598"><ele>608.0</ele><time>2026-04-26T07:50:23.998Z</time></trkpt><trkpt lat="45.68464099517486" lon="11.312375076459482"><ele>607.25</ele><time>2026-04-26T07:50:24.998Z</time></trkpt><trkpt lat="45.684603574697746" lon="11.31221200696547"><ele>606.5</ele><time>2026-04-26T07:50:25.998Z</time></trkpt><trkpt lat="45.6845718778815" lon="11.312041161479193"><ele>605.75</ele><time>2026-04-26T07:50:26.998Z</time></trkpt><trkpt lat="45.68455087565928" lon="11.311872788474826"><ele>605.0</ele><time>2026-04-26T07:50:27.998Z</time></trkpt><trkpt lat="45.684538944796266" lon="11.311719295753072"><ele>605.0</ele><time>2026-04-26T07:50:28.998Z</time></trkpt><trkpt lat="45.68451927769865" lon="11.311570866002779"><ele>605.0</ele><time>2026-04-26T07:50:29.998Z</time></trkpt><trkpt lat="45.68450168055007" lon="11.311426197322282"><ele>605.0</ele><time>2026-04-26T07:50:30.998Z</time></trkpt><trkpt lat="45.684487803356156" lon="11.311320548266448"><ele>605.0</ele><time>2026-04-26T07:50:31.998Z</time></trkpt><trkpt lat="45.68446601434107" lon="11.311225243711961"><ele>605.0</ele><time>2026-04-26T07:50:32.998Z</time></trkpt><trkpt lat="45.68439013812147" lon="11.311064830609167"><ele>610.0</ele><time>2026-04-26T07:50:34.998Z</time></trkpt><trkpt lat="45.68431891207186" lon="11.310994234647168"><ele>615.0</ele><time>2026-04-26T07:50:35.998Z</time></trkpt><trkpt lat="45.6842542741665" lon="11.31092316971471"><ele>620.0</ele><time>2026-04-26T07:50:36.998Z</time></trkpt><trkpt lat="45.684206135999176" lon="11.31085300559517"><ele>625.0</ele><time>2026-04-26T07:50:37.998Z</time></trkpt><trkpt lat="45.68415179781571" lon="11.310779157050725"><ele>630.0</ele><time>2026-04-26T07:50:38.998Z</time></trkpt><trkpt lat="45.68409466734812" lon="11.310711012463443"><ele>635.0</ele><time>2026-04-26T07:50:39.998Z</time></trkpt><trkpt lat="45.684025262921466" lon="11.310544782943698"><ele>635.0</ele><time>2026-04-26T07:50:41.998Z</time></trkpt><trkpt lat="45.68399339891893" lon="11.310453829297689"><ele>635.0</ele><time>2026-04-26T07:50:42.998Z</time></trkpt><trkpt lat="45.68397689921448" lon="11.310359191606185"><ele>635.0</ele><time>2026-04-26T07:50:43.998Z</time></trkpt><trkpt lat="45.68395840816944" lon="11.31026074696474"><ele>635.0</ele><time>2026-04-26T07:50:45Z</time></trkpt><trkpt lat="45.683938239705206" lon="11.31014438107895"><ele>635.0</ele><time>2026-04-26T07:50:46Z</time></trkpt><trkpt lat="45.68393473174127" lon="11.310011399649285"><ele>635.0</ele><time>2026-04-26T07:50:47Z</time></trkpt><trkpt lat="45.68391750800165" lon="11.309906180456558"><ele>635.0</ele><time>2026-04-26T07:50:48Z</time></trkpt><trkpt lat="45.68391114984351" lon="11.309802958056629"><ele>635.0</ele><time>2026-04-26T07:50:49Z</time></trkpt><trkpt lat="45.683938202932545" lon="11.309694341719814"><ele>635.0</ele><time>2026-04-26T07:50:50Z</time></trkpt><trkpt lat="45.68396762849822" lon="11.309587514025"><ele>635.0</ele><time>2026-04-26T07:50:51Z</time></trkpt><trkpt lat="45.683997753252626" lon="11.30948440415902"><ele>635.0</ele><time>2026-04-26T07:50:52Z</time></trkpt><trkpt lat="45.68403301838395" lon="11.30939004268144"><ele>635.0</ele><time>2026-04-26T07:50:53Z</time></trkpt><trkpt lat="45.68407165179996" lon="11.309233134377028"><ele>635.1666666666666</ele><time>2026-04-26T07:50:55Z</time></trkpt><trkpt lat="45.68408852083106" lon="11.309087894164849"><ele>635.3333333333333</ele><time>2026-04-26T07:50:57Z</time></trkpt><trkpt lat="45.684109084082266" lon="11.308979391931745"><ele>635.5</ele><time>2026-04-26T07:50:59.001Z</time></trkpt><trkpt lat="45.684121091573054" lon="11.308876859126656"><ele>635.6666666666666</ele><time>2026-04-26T07:51:01.001Z</time></trkpt><trkpt lat="45.68414873060905" lon="11.308770696850514"><ele>635.8333333333334</ele><time>2026-04-26T07:51:04.001Z</time></trkpt><trkpt lat="45.68415351094702" lon="11.30866989618253"><ele>636.0</ele><time>2026-04-26T07:51:07Z</time></trkpt><trkpt lat="45.68419675511467" lon="11.30856923623811"><ele>636.0</ele><time>2026-04-26T07:51:10Z</time></trkpt><trkpt lat="45.68423659683325" lon="11.308483497948728"><ele>636.0</ele><time>2026-04-26T07:51:12.999Z</time></trkpt><trkpt lat="45.68427415861835" lon="11.308410728551435"><ele>636.0</ele><time>2026-04-26T07:51:14.999Z</time></trkpt><trkpt lat="45.684325912443995" lon="11.308312621536844"><ele>636.0</ele><time>2026-04-26T07:51:17.999Z</time></trkpt><trkpt lat="45.684367508957656" lon="11.308239147622112"><ele>636.0</ele><time>2026-04-26T07:51:23.998Z</time></trkpt><trkpt lat="45.68441246333523" lon="11.308159016887513"><ele>636.0</ele><time>2026-04-26T07:51:37.998Z</time></trkpt><trkpt lat="45.684452035118156" lon="11.308076785014597"><ele>636.0</ele><time>2026-04-26T07:51:39.998Z</time></trkpt><trkpt lat="45.68450515407108" lon="11.30796995227137"><ele>636.2</ele><time>2026-04-26T07:51:41.998Z</time></trkpt><trkpt lat="45.68456542627377" lon="11.30787265962023"><ele>636.4000000000001</ele><time>2026-04-26T07:51:43.998Z</time></trkpt><trkpt lat="45.684614611155844" lon="11.307790471135968"><ele>636.6</ele><time>2026-04-26T07:51:45.998Z</time></trkpt><trkpt lat="45.68469182791854" lon="11.307705925125033"><ele>636.8000000000001</ele><time>2026-04-26T07:51:47.998Z</time></trkpt><trkpt lat="45.68478637703823" lon="11.30758559146307"><ele>637.0</ele><time>2026-04-26T07:51:49.998Z</time></trkpt><trkpt lat="45.68484171691336" lon="11.307454173750662"><ele>637.0</ele><time>2026-04-26T07:51:51.997Z</time></trkpt><trkpt lat="45.68487896843578" lon="11.307305575316525"><ele>637.0</ele><time>2026-04-26T07:51:53.997Z</time></trkpt><trkpt lat="45.68489819661967" lon="11.307213439024704"><ele>637.0</ele><time>2026-04-26T07:51:54.997Z</time></trkpt><trkpt lat="45.68494616243708" lon="11.307071787321187"><ele>637.0</ele><time>2026-04-26T07:51:56.997Z</time></trkpt><trkpt lat="45.68500130553409" lon="11.30697341065744"><ele>637.0</ele><time>2026-04-26T07:51:58.997Z</time></trkpt><trkpt lat="45.68505079032589" lon="11.306878404189339"><ele>639.0</ele><time>2026-04-26T07:52:00.997Z</time></trkpt><trkpt lat="45.68514372820137" lon="11.30681953498577"><ele>641.0</ele><time>2026-04-26T07:52:02.997Z</time></trkpt><trkpt lat="45.685211989357924" lon="11.306784632088771"><ele>643.0</ele><time>2026-04-26T07:52:03.997Z</time></trkpt><trkpt lat="45.68529214882314" lon="11.306757463668253"><ele>645.0</ele><time>2026-04-26T07:52:04.997Z</time></trkpt><trkpt lat="45.68537307752687" lon="11.306712534007515"><ele>647.0</ele><time>2026-04-26T07:52:05.997Z</time></trkpt><trkpt lat="45.685446390197804" lon="11.306678316793933"><ele>649.0</ele><time>2026-04-26T07:52:06.997Z</time></trkpt><trkpt lat="45.68551597978309" lon="11.306625938444782"><ele>650.5</ele><time>2026-04-26T07:52:07.997Z</time></trkpt><trkpt lat="45.685586348290514" lon="11.30659018738173"><ele>652.0</ele><time>2026-04-26T07:52:08.997Z</time></trkpt><trkpt lat="45.685651928867536" lon="11.306561259805013"><ele>653.5</ele><time>2026-04-26T07:52:09.997Z</time></trkpt><trkpt lat="45.68576923173692" lon="11.306494090318216"><ele>655.0</ele><time>2026-04-26T07:52:11.997Z</time></trkpt><trkpt lat="45.68582699833692" lon="11.306433039253886"><ele>656.5</ele><time>2026-04-26T07:52:12.997Z</time></trkpt><trkpt lat="45.68588556959173" lon="11.30637222228349"><ele>658.0</ele><time>2026-04-26T07:52:13.997Z</time></trkpt><trkpt lat="45.68594966496675" lon="11.306315159112014"><ele>662.3333333333334</ele><time>2026-04-26T07:52:14.997Z</time></trkpt><trkpt lat="45.68601560423295" lon="11.306256965689355"><ele>666.6666666666667</ele><time>2026-04-26T07:52:15.997Z</time></trkpt><trkpt lat="45.68608045971963" lon="11.306201091471182"><ele>671.0</ele><time>2026-04-26T07:52:16.997Z</time></trkpt><trkpt lat="45.68614274050906" lon="11.306149857805876"><ele>675.3333333333334</ele><time>2026-04-26T07:52:17.997Z</time></trkpt><trkpt lat="45.686201678340424" lon="11.306109602591947"><ele>679.6666666666666</ele><time>2026-04-26T07:52:18.997Z</time></trkpt><trkpt lat="45.686300582439706" lon="11.306034423409274"><ele>684.0</ele><time>2026-04-26T07:52:20.997Z</time></trkpt><trkpt lat="45.68638197571118" lon="11.305970155991416"><ele>684.0</ele><time>2026-04-26T07:52:22.997Z</time></trkpt><trkpt lat="45.68643977227137" lon="11.305927382776588"><ele>684.0</ele><time>2026-04-26T07:52:24.997Z</time></trkpt><trkpt lat="45.6865104453448" lon="11.305864314990014"><ele>684.0</ele><time>2026-04-26T07:52:27.997Z</time></trkpt><trkpt lat="45.68656053848312" lon="11.305806691547527"><ele>684.0</ele><time>2026-04-26T07:52:34.997Z</time></trkpt><trkpt lat="45.686589671475105" lon="11.305723369979637"><ele>684.0</ele><time>2026-04-26T07:52:42.997Z</time></trkpt><trkpt lat="45.686670313937775" lon="11.305712996279466"><ele>684.0</ele><time>2026-04-26T07:52:48.997Z</time></trkpt><trkpt lat="45.68678217606216" lon="11.30569383750805"><ele>684.0</ele><time>2026-04-26T07:53:01.997Z</time></trkpt><trkpt lat="45.68684402518672" lon="11.305675474144607"><ele>684.0</ele><time>2026-04-26T07:53:05.996Z</time></trkpt><trkpt lat="45.68692008597847" lon="11.30570078073875"><ele>684.0</ele><time>2026-04-26T07:53:11.996Z</time></trkpt><trkpt lat="45.68695352702924" lon="11.305804933523266"><ele>684.0</ele><time>2026-04-26T07:53:14.996Z</time></trkpt><trkpt lat="45.68694512769621" lon="11.305926823997337"><ele>684.0</ele><time>2026-04-26T07:53:16.996Z</time></trkpt><trkpt lat="45.68693507654854" lon="11.306100898333021"><ele>684.0</ele><time>2026-04-26T07:53:18.996Z</time></trkpt><trkpt lat="45.68691602502368" lon="11.306269147238693"><ele>685.5</ele><time>2026-04-26T07:53:20.996Z</time></trkpt><trkpt lat="45.68692966196192" lon="11.306418093715052"><ele>687.0</ele><time>2026-04-26T07:53:22.996Z</time></trkpt><trkpt lat="45.68697106224199" lon="11.306551393617601"><ele>688.5</ele><time>2026-04-26T07:53:24.996Z</time></trkpt><trkpt lat="45.68701683905259" lon="11.30664388000592"><ele>690.0</ele><time>2026-04-26T07:53:26.996Z</time></trkpt><trkpt lat="45.68705687203471" lon="11.306730628571737"><ele>691.5</ele><time>2026-04-26T07:53:28.996Z</time></trkpt><trkpt lat="45.687091423088475" lon="11.306823888530015"><ele>693.0</ele><time>2026-04-26T07:53:30.996Z</time></trkpt><trkpt lat="45.68710202147415" lon="11.306929288656779"><ele>693.0</ele><time>2026-04-26T07:53:32.996Z</time></trkpt><trkpt lat="45.68711726377083" lon="11.307054302199102"><ele>693.0</ele><time>2026-04-26T07:53:34.996Z</time></trkpt><trkpt lat="45.68713282255364" lon="11.307166142034168"><ele>693.0</ele><time>2026-04-26T07:53:36.996Z</time></trkpt><trkpt lat="45.68717623289442" lon="11.307275479520452"><ele>693.0</ele><time>2026-04-26T07:53:38.996Z</time></trkpt><trkpt lat="45.687237503700594" lon="11.307385700996312"><ele>693.0</ele><time>2026-04-26T07:53:40.996Z</time></trkpt><trkpt lat="45.68730882817563" lon="11.307529315539984"><ele>690.3333333333334</ele><time>2026-04-26T07:53:42.996Z</time></trkpt><trkpt lat="45.68734846543313" lon="11.307618106492718"><ele>687.6666666666666</ele><time>2026-04-26T07:53:43.996Z</time></trkpt><trkpt lat="45.68738408838511" lon="11.307701932132224"><ele>685.0</ele><time>2026-04-26T07:53:44.996Z</time></trkpt><trkpt lat="45.68740605576586" lon="11.307787497819517"><ele>682.3333333333333</ele><time>2026-04-26T07:53:45.996Z</time></trkpt><trkpt lat="45.68745692312764" lon="11.307931793437165"><ele>679.6666666666666</ele><time>2026-04-26T07:53:47.996Z</time></trkpt><trkpt lat="45.68750035798528" lon="11.30808952410045"><ele>677.0</ele><time>2026-04-26T07:53:49.996Z</time></trkpt><trkpt lat="45.68753058337237" lon="11.308170642668333"><ele>675.5</ele><time>2026-04-26T07:53:50.996Z</time></trkpt><trkpt lat="45.68758836443342" lon="11.308295788909074"><ele>674.0</ele><time>2026-04-26T07:53:52.996Z</time></trkpt><trkpt lat="45.687636157724214" lon="11.308374566112883"><ele>672.5</ele><time>2026-04-26T07:53:54.996Z</time></trkpt><trkpt lat="45.68770042101615" lon="11.308405069535846"><ele>671.0</ele><time>2026-04-26T07:53:56.996Z</time></trkpt><trkpt lat="45.6877861959192" lon="11.308404053530879"><ele>669.5</ele><time>2026-04-26T07:53:58.996Z</time></trkpt><trkpt lat="45.68786695364834" lon="11.308376313004656"><ele>668.0</ele><time>2026-04-26T07:54:00.996Z</time></trkpt><trkpt lat="45.6879763487302" lon="11.308310126628564"><ele>668.0</ele><time>2026-04-26T07:54:02.996Z</time></trkpt><trkpt lat="45.68804623239123" lon="11.308269740517057"><ele>668.0</ele><time>2026-04-26T07:54:03.996Z</time></trkpt><trkpt lat="45.688108574854034" lon="11.308234871489317"><ele>668.0</ele><time>2026-04-26T07:54:04.996Z</time></trkpt><trkpt lat="45.6882061865298" lon="11.308198832047415"><ele>668.0</ele><time>2026-04-26T07:54:06.996Z</time></trkpt><trkpt lat="45.68830224365199" lon="11.308202348825668"><ele>668.0</ele><time>2026-04-26T07:54:08.996Z</time></trkpt><trkpt lat="45.6884029190519" lon="11.308179108827156"><ele>668.0</ele><time>2026-04-26T07:54:10.996Z</time></trkpt><trkpt lat="45.68850842050014" lon="11.308184222017413"><ele>670.1666666666666</ele><time>2026-04-26T07:54:12.996Z</time></trkpt><trkpt lat="45.68859474888313" lon="11.308190573777372"><ele>672.3333333333333</ele><time>2026-04-26T07:54:14.996Z</time></trkpt><trkpt lat="45.68868386672627" lon="11.308239057757664"><ele>674.5</ele><time>2026-04-26T07:54:16.996Z</time></trkpt><trkpt lat="45.688765374471494" lon="11.308270351642001"><ele>676.6666666666666</ele><time>2026-04-26T07:54:18.996Z</time></trkpt><trkpt lat="45.68882704446704" lon="11.308303156666987"><ele>678.8333333333334</ele><time>2026-04-26T07:54:20.996Z</time></trkpt><trkpt lat="45.68889528414655" lon="11.308338962212959"><ele>681.0</ele><time>2026-04-26T07:54:22.996Z</time></trkpt><trkpt lat="45.68897768334526" lon="11.308347399156224"><ele>681.0</ele><time>2026-04-26T07:54:25.995Z</time></trkpt><trkpt lat="45.689042042002555" lon="11.308339648792451"><ele>681.0</ele><time>2026-04-26T07:54:27.995Z</time></trkpt><trkpt lat="45.689115380495984" lon="11.308321172810903"><ele>681.0</ele><time>2026-04-26T07:54:29.995Z</time></trkpt><trkpt lat="45.68920136624375" lon="11.308311039279612"><ele>681.0</ele><time>2026-04-26T07:54:31.995Z</time></trkpt><trkpt lat="45.689264691631855" lon="11.308335704992237"><ele>681.0</ele><time>2026-04-26T07:54:32.995Z</time></trkpt><trkpt lat="45.689373928355515" lon="11.308395962260585"><ele>681.0</ele><time>2026-04-26T07:54:34.995Z</time></trkpt><trkpt lat="45.68947579373321" lon="11.308501925730685"><ele>683.1999999999999</ele><time>2026-04-26T07:54:36.995Z</time></trkpt><trkpt lat="45.689525796349756" lon="11.30855871091155"><ele>685.4</ele><time>2026-04-26T07:54:37.995Z</time></trkpt><trkpt lat="45.689579184451986" lon="11.308618100738151"><ele>687.6</ele><time>2026-04-26T07:54:38.995Z</time></trkpt><trkpt lat="45.689681047173714" lon="11.308709198151004"><ele>689.8</ele><time>2026-04-26T07:54:40.995Z</time></trkpt><trkpt lat="45.6897905152056" lon="11.308744522819836"><ele>692.0</ele><time>2026-04-26T07:54:42.995Z</time></trkpt><trkpt lat="45.6899161790901" lon="11.308766693359784"><ele>692.0</ele><time>2026-04-26T07:54:44.995Z</time></trkpt><trkpt lat="45.69002848432628" lon="11.308832537907305"><ele>692.0</ele><time>2026-04-26T07:54:46.995Z</time></trkpt><trkpt lat="45.69008142741899" lon="11.308882210226384"><ele>692.0</ele><time>2026-04-26T07:54:47.995Z</time></trkpt><trkpt lat="45.69016667456432" lon="11.308999602134717"><ele>692.0</ele><time>2026-04-26T07:54:49.995Z</time></trkpt><trkpt lat="45.690242458376254" lon="11.309094152875392"><ele>692.0</ele><time>2026-04-26T07:54:51.995Z</time></trkpt><trkpt lat="45.69031409676822" lon="11.309165491030722"><ele>688.5</ele><time>2026-04-26T07:54:53.995Z</time></trkpt><trkpt lat="45.69040446449625" lon="11.309236407075915"><ele>685.0</ele><time>2026-04-26T07:54:55.995Z</time></trkpt><trkpt lat="45.690513750565486" lon="11.309269325694618"><ele>681.5</ele><time>2026-04-26T07:54:57.995Z</time></trkpt><trkpt lat="45.69057787775523" lon="11.309259995454562"><ele>678.0</ele><time>2026-04-26T07:54:58.995Z</time></trkpt><trkpt lat="45.690648547388115" lon="11.309239247807422"><ele>674.5</ele><time>2026-04-26T07:54:59.995Z</time></trkpt><trkpt lat="45.69074301398079" lon="11.309220928592865"><ele>671.0</ele><time>2026-04-26T07:55:00.995Z</time></trkpt><trkpt lat="45.69081565736704" lon="11.309225453377096"><ele>671.0</ele><time>2026-04-26T07:55:01.995Z</time></trkpt><trkpt lat="45.69091150947356" lon="11.309224233232312"><ele>671.0</ele><time>2026-04-26T07:55:02.995Z</time></trkpt><trkpt lat="45.690999094257016" lon="11.309229952968156"><ele>671.0</ele><time>2026-04-26T07:55:03.995Z</time></trkpt><trkpt lat="45.69107649148495" lon="11.309235183841208"><ele>671.0</ele><time>2026-04-26T07:55:04.995Z</time></trkpt><trkpt lat="45.69115939028064" lon="11.309252354948363"><ele>671.0</ele><time>2026-04-26T07:55:05.995Z</time></trkpt><trkpt lat="45.69122353309046" lon="11.309275429066469"><ele>671.0</ele><time>2026-04-26T07:55:06.995Z</time></trkpt><trkpt lat="45.69129278589975" lon="11.309285559237374"><ele>674.3333333333333</ele><time>2026-04-26T07:55:07.995Z</time></trkpt><trkpt lat="45.69138093225646" lon="11.309292048732868"><ele>677.6666666666666</ele><time>2026-04-26T07:55:08.995Z</time></trkpt><trkpt lat="45.69159367143646" lon="11.309290684360516"><ele>681.0</ele><time>2026-04-26T07:55:11.995Z</time></trkpt><trkpt lat="45.69179702666566" lon="11.30929928803733"><ele>683.0</ele><time>2026-04-26T07:55:15.995Z</time></trkpt><trkpt lat="45.69198303802742" lon="11.309273712810272"><ele>685.0</ele><time>2026-04-26T07:55:21.995Z</time></trkpt><trkpt lat="45.692053595989286" lon="11.309287404302257"><ele>687.0</ele><time>2026-04-26T07:55:23.995Z</time></trkpt><trkpt lat="45.69217014109298" lon="11.309314075344805"><ele>689.0</ele><time>2026-04-26T07:55:26.995Z</time></trkpt><trkpt lat="45.692280235014636" lon="11.309314301474934"><ele>689.0</ele><time>2026-04-26T07:55:29.995Z</time></trkpt><trkpt lat="45.692348906617156" lon="11.30930617040359"><ele>689.0</ele><time>2026-04-26T07:55:31.995Z</time></trkpt><trkpt lat="45.69246546881115" lon="11.309295983787829"><ele>689.0</ele><time>2026-04-26T07:55:33.995Z</time></trkpt><trkpt lat="45.69254593668294" lon="11.309301468635757"><ele>689.0</ele><time>2026-04-26T07:55:34.995Z</time></trkpt><trkpt lat="45.69261184857103" lon="11.309300178338322"><ele>689.0</ele><time>2026-04-26T07:55:35.995Z</time></trkpt><trkpt lat="45.692730602796814" lon="11.309298870756406"><ele>689.2</ele><time>2026-04-26T07:55:37.995Z</time></trkpt><trkpt lat="45.69279497065894" lon="11.309305272506803"><ele>689.4000000000001</ele><time>2026-04-26T07:55:38.995Z</time></trkpt><trkpt lat="45.692904802383794" lon="11.309330813675103"><ele>689.6</ele><time>2026-04-26T07:55:40.995Z</time></trkpt><trkpt lat="45.69299109122083" lon="11.309354845581934"><ele>689.8</ele><time>2026-04-26T07:55:42.995Z</time></trkpt><trkpt lat="45.69310684915275" lon="11.309404385966108"><ele>690.0</ele><time>2026-04-26T07:55:44.995Z</time></trkpt><trkpt lat="45.693210591459696" lon="11.309456148689009"><ele>690.0</ele><time>2026-04-26T07:55:46.995Z</time></trkpt><trkpt lat="45.69331120073108" lon="11.30948133362593"><ele>690.0</ele><time>2026-04-26T07:55:48.994Z</time></trkpt><trkpt lat="45.693398599557796" lon="11.309459064264171"><ele>690.0</ele><time>2026-04-26T07:55:50.994Z</time></trkpt><trkpt lat="45.69347589730475" lon="11.309444211786083"><ele>690.0</ele><time>2026-04-26T07:55:52.994Z</time></trkpt><trkpt lat="45.69355022386795" lon="11.309425269924409"><ele>690.0</ele><time>2026-04-26T07:55:54.994Z</time></trkpt><trkpt lat="45.69364214216671" lon="11.30939700595645"><ele>690.0</ele><time>2026-04-26T07:55:57.994Z</time></trkpt><trkpt lat="45.693714144506075" lon="11.30937492473567"><ele>686.5</ele><time>2026-04-26T07:56:00.994Z</time></trkpt><trkpt lat="45.693776286382025" lon="11.30934135065164"><ele>683.0</ele><time>2026-04-26T07:56:02.994Z</time></trkpt><trkpt lat="45.693852553883914" lon="11.309277618014791"><ele>679.5</ele><time>2026-04-26T07:56:04.994Z</time></trkpt><trkpt lat="45.69392026692387" lon="11.309200745696415"><ele>676.0</ele><time>2026-04-26T07:56:06.994Z</time></trkpt><trkpt lat="45.69399065815372" lon="11.309137402874777"><ele>672.5</ele><time>2026-04-26T07:56:08.994Z</time></trkpt><trkpt lat="45.694039169449745" lon="11.309059227546264"><ele>669.0</ele><time>2026-04-26T07:56:10.994Z</time></trkpt><trkpt lat="45.69407906357574" lon="11.308955418068681"><ele>669.1666666666666</ele><time>2026-04-26T07:56:12.994Z</time></trkpt><trkpt lat="45.69411715344311" lon="11.308860875171913"><ele>669.3333333333334</ele><time>2026-04-26T07:56:14.994Z</time></trkpt><trkpt lat="45.69416515697687" lon="11.308741666669349"><ele>669.5</ele><time>2026-04-26T07:56:17.994Z</time></trkpt><trkpt lat="45.69413030000446" lon="11.308621293793507"><ele>669.6666666666667</ele><time>2026-04-26T07:56:19.994Z</time></trkpt><trkpt lat="45.694108258783324" lon="11.30850030596507"><ele>669.8333333333334</ele><time>2026-04-26T07:56:21.994Z</time></trkpt><trkpt lat="45.69408073396201" lon="11.308377884144825"><ele>670.0</ele><time>2026-04-26T07:56:23.994Z</time></trkpt><trkpt lat="45.69403327081736" lon="11.3082754113729"><ele>670.0</ele><time>2026-04-26T07:56:25.994Z</time></trkpt><trkpt lat="45.69399320021355" lon="11.308172682225658"><ele>670.0</ele><time>2026-04-26T07:56:27.994Z</time></trkpt><trkpt lat="45.69396379090376" lon="11.30805740348972"><ele>670.0</ele><time>2026-04-26T07:56:29.994Z</time></trkpt><trkpt lat="45.69393753948048" lon="11.307939079152256"><ele>670.0</ele><time>2026-04-26T07:56:31.994Z</time></trkpt><trkpt lat="45.693898238549004" lon="11.307833108222397"><ele>670.0</ele><time>2026-04-26T07:56:33.994Z</time></trkpt><trkpt lat="45.693855603054075" lon="11.307765231825533"><ele>670.0</ele><time>2026-04-26T07:56:35.994Z</time></trkpt><trkpt lat="45.69381125722603" lon="11.307677864443127"><ele>666.5</ele><time>2026-04-26T07:56:37.994Z</time></trkpt><trkpt lat="45.69375952008048" lon="11.30756655574139"><ele>663.0</ele><time>2026-04-26T07:56:40.994Z</time></trkpt><trkpt lat="45.69370163845937" lon="11.307489135014203"><ele>659.5</ele><time>2026-04-26T07:56:42.994Z</time></trkpt><trkpt lat="45.69365267968578" lon="11.307405407376383"><ele>656.0</ele><time>2026-04-26T07:56:44.994Z</time></trkpt><trkpt lat="45.69360874690378" lon="11.307302732675486"><ele>652.5</ele><time>2026-04-26T07:56:46.994Z</time></trkpt><trkpt lat="45.69359075834382" lon="11.307192853946688"><ele>649.0</ele><time>2026-04-26T07:56:48.994Z</time></trkpt><trkpt lat="45.69356513039246" lon="11.307067935851906"><ele>655.4000000000001</ele><time>2026-04-26T07:56:50.994Z</time></trkpt><trkpt lat="45.69353927687566" lon="11.306936699231187"><ele>661.8</ele><time>2026-04-26T07:56:52.994Z</time></trkpt><trkpt lat="45.69352103633159" lon="11.306809752298912"><ele>668.2</ele><time>2026-04-26T07:56:54.994Z</time></trkpt><trkpt lat="45.69350965830751" lon="11.306664188768629"><ele>674.5999999999999</ele><time>2026-04-26T07:56:56.994Z</time></trkpt><trkpt lat="45.693497239243186" lon="11.30652490948756"><ele>681.0</ele><time>2026-04-26T07:56:58.994Z</time></trkpt><trkpt lat="45.693468880391094" lon="11.306357667060373"><ele>681.0</ele><time>2026-04-26T07:57:00.994Z</time></trkpt><trkpt lat="45.69346253690506" lon="11.30623460372292"><ele>681.0</ele><time>2026-04-26T07:57:02.994Z</time></trkpt><trkpt lat="45.693446840785334" lon="11.306128514483854"><ele>681.0</ele><time>2026-04-26T07:57:04.994Z</time></trkpt><trkpt lat="45.693413325342725" lon="11.306029365493385"><ele>681.0</ele><time>2026-04-26T07:57:06.994Z</time></trkpt><trkpt lat="45.69337364166179" lon="11.305944422342558"><ele>681.0</ele><time>2026-04-26T07:57:08.994Z</time></trkpt><trkpt lat="45.69335651018948" lon="11.3058286224266"><ele>681.0</ele><time>2026-04-26T07:57:11.993Z</time></trkpt><trkpt lat="45.69333736275655" lon="11.305723643311644"><ele>681.0</ele><time>2026-04-26T07:57:14.993Z</time></trkpt><trkpt lat="45.693302478425466" lon="11.305605354776851"><ele>681.0</ele><time>2026-04-26T07:57:17.993Z</time></trkpt><trkpt lat="45.693235037533405" lon="11.305519013362709"><ele>681.0</ele><time>2026-04-26T07:57:20.993Z</time></trkpt><trkpt lat="45.69313937811253" lon="11.305469077922654"><ele>681.0</ele><time>2026-04-26T07:57:22.993Z</time></trkpt><trkpt lat="45.69303729480728" lon="11.305419919263564"><ele>681.0</ele><time>2026-04-26T07:57:24.993Z</time></trkpt><trkpt lat="45.69295881020131" lon="11.305336575947099"><ele>677.8333333333334</ele><time>2026-04-26T07:57:26.993Z</time></trkpt><trkpt lat="45.692895345143015" lon="11.30525147123444"><ele>674.6666666666666</ele><time>2026-04-26T07:57:28.993Z</time></trkpt><trkpt lat="45.69284863674763" lon="11.305148374464773"><ele>671.5</ele><time>2026-04-26T07:57:30.993Z</time></trkpt><trkpt lat="45.692860650645706" lon="11.305020966972886"><ele>668.3333333333333</ele><time>2026-04-26T07:57:32.993Z</time></trkpt><trkpt lat="45.69286549028514" lon="11.304926944493273"><ele>665.1666666666666</ele><time>2026-04-26T07:57:33.993Z</time></trkpt><trkpt lat="45.692870135415596" lon="11.304773027926213"><ele>662.0</ele><time>2026-04-26T07:57:35.993Z</time></trkpt><trkpt lat="45.69284821956779" lon="11.304685747408046"><ele>658.4000000000001</ele><time>2026-04-26T07:57:36.993Z</time></trkpt><trkpt lat="45.69281811223705" lon="11.30459312823266"><ele>654.8000000000001</ele><time>2026-04-26T07:57:37.993Z</time></trkpt><trkpt lat="45.692788800961615" lon="11.304461923262563"><ele>651.2</ele><time>2026-04-26T07:57:38.993Z</time></trkpt><trkpt lat="45.69276057880224" lon="11.30433856288106"><ele>647.6</ele><time>2026-04-26T07:57:39.993Z</time></trkpt><trkpt lat="45.692733972852686" lon="11.304144263130947"><ele>644.0</ele><time>2026-04-26T07:57:41.993Z</time></trkpt><trkpt lat="45.69272857631466" lon="11.30403562856189"><ele>644.4000000000001</ele><time>2026-04-26T07:57:42.993Z</time></trkpt><trkpt lat="45.69272180622465" lon="11.303938055385819"><ele>644.8</ele><time>2026-04-26T07:57:43.993Z</time></trkpt><trkpt lat="45.69273008349514" lon="11.303789261197409"><ele>645.2</ele><time>2026-04-26T07:57:45.993Z</time></trkpt><trkpt lat="45.69275923382443" lon="11.303624171205623"><ele>645.5999999999999</ele><time>2026-04-26T07:57:47.993Z</time></trkpt><trkpt lat="45.69277773485006" lon="11.303529194511885"><ele>646.0</ele><time>2026-04-26T07:57:48.993Z</time></trkpt><trkpt lat="45.69280066349568" lon="11.303398639251387"><ele>646.0</ele><time>2026-04-26T07:57:50.995Z</time></trkpt><trkpt lat="45.69283926460234" lon="11.303265951429292"><ele>646.0</ele><time>2026-04-26T07:57:52.996Z</time></trkpt><trkpt lat="45.69288903984039" lon="11.30314387504964"><ele>646.0</ele><time>2026-04-26T07:57:54.996Z</time></trkpt><trkpt lat="45.69295117755243" lon="11.303001201714894"><ele>646.0</ele><time>2026-04-26T07:57:56.997Z</time></trkpt><trkpt lat="45.692978655213" lon="11.302912464898412"><ele>646.0</ele><time>2026-04-26T07:57:57.997Z</time></trkpt><trkpt lat="45.69301573524835" lon="11.302827533584457"><ele>650.5999999999999</ele><time>2026-04-26T07:57:58.998Z</time></trkpt><trkpt lat="45.69306471888783" lon="11.302713061127022"><ele>655.2</ele><time>2026-04-26T07:57:59.998Z</time></trkpt><trkpt lat="45.69310595722411" lon="11.302617586382187"><ele>659.8</ele><time>2026-04-26T07:58:00.998Z</time></trkpt><trkpt lat="45.693138958886614" lon="11.302531340367429"><ele>664.4000000000001</ele><time>2026-04-26T07:58:01.998Z</time></trkpt><trkpt lat="45.69317702504266" lon="11.302374059802696"><ele>669.0</ele><time>2026-04-26T07:58:03.999Z</time></trkpt><trkpt lat="45.693193725730666" lon="11.30222181397316"><ele>674.4000000000001</ele><time>2026-04-26T07:58:05.999Z</time></trkpt><trkpt lat="45.69323128755269" lon="11.302075335514361"><ele>679.8</ele><time>2026-04-26T07:58:07.999Z</time></trkpt><trkpt lat="45.69325695719043" lon="11.301905865546027"><ele>685.2</ele><time>2026-04-26T07:58:09.999Z</time></trkpt><trkpt lat="45.693281642459546" lon="11.301782857058075"><ele>690.5999999999999</ele><time>2026-04-26T07:58:11.999Z</time></trkpt><trkpt lat="45.69333019109295" lon="11.301667633413723"><ele>696.0</ele><time>2026-04-26T07:58:13.999Z</time></trkpt><trkpt lat="45.69337401043408" lon="11.301547959125198"><ele>696.0</ele><time>2026-04-26T07:58:16Z</time></trkpt><trkpt lat="45.693401770425154" lon="11.301465405540885"><ele>696.0</ele><time>2026-04-26T07:58:17Z</time></trkpt><trkpt lat="45.693430690718614" lon="11.301371853315144"><ele>696.0</ele><time>2026-04-26T07:58:18Z</time></trkpt><trkpt lat="45.69346159715854" lon="11.301279953963673"><ele>696.0</ele><time>2026-04-26T07:58:19Z</time></trkpt><trkpt lat="45.69352084465024" lon="11.301122610423088"><ele>696.0</ele><time>2026-04-26T07:58:21Z</time></trkpt><trkpt lat="45.69355553105141" lon="11.301027978487221"><ele>696.0</ele><time>2026-04-26T07:58:22Z</time></trkpt><trkpt lat="45.69362313203198" lon="11.300879635643446"><ele>689.5</ele><time>2026-04-26T07:58:24Z</time></trkpt><trkpt lat="45.693657234689084" lon="11.300796964336449"><ele>683.0</ele><time>2026-04-26T07:58:25Z</time></trkpt><trkpt lat="45.693691311284134" lon="11.30071587765327"><ele>676.5</ele><time>2026-04-26T07:58:26Z</time></trkpt><trkpt lat="45.69374175956223" lon="11.300606265946499"><ele>670.0</ele><time>2026-04-26T07:58:28Z</time></trkpt><trkpt lat="45.69377565285342" lon="11.300486991353626"><ele>663.5</ele><time>2026-04-26T07:58:30Z</time></trkpt><trkpt lat="45.69375454269362" lon="11.300376971354865"><ele>657.0</ele><time>2026-04-26T07:58:32Z</time></trkpt><trkpt lat="45.6936955797336" lon="11.300311224355395"><ele>667.0</ele><time>2026-04-26T07:58:34Z</time></trkpt><trkpt lat="45.69358198989667" lon="11.300240143791132"><ele>677.0</ele><time>2026-04-26T07:58:36Z</time></trkpt><trkpt lat="45.69348409103698" lon="11.300172938708563"><ele>687.0</ele><time>2026-04-26T07:58:38Z</time></trkpt><trkpt lat="45.69341780895291" lon="11.300090393811269"><ele>697.0</ele><time>2026-04-26T07:58:40Z</time></trkpt><trkpt lat="45.69339280985962" lon="11.299960847948618"><ele>707.0</ele><time>2026-04-26T07:58:42Z</time></trkpt><trkpt lat="45.6933901114991" lon="11.299827720574154"><ele>703.8333333333333</ele><time>2026-04-26T07:58:44Z</time></trkpt><trkpt lat="45.69337563094533" lon="11.299691926862804"><ele>700.6666666666666</ele><time>2026-04-26T07:58:46Z</time></trkpt><trkpt lat="45.69332807747548" lon="11.299590442621946"><ele>697.5</ele><time>2026-04-26T07:58:48Z</time></trkpt><trkpt lat="45.69326726434342" lon="11.299532372700156"><ele>694.3333333333334</ele><time>2026-04-26T07:58:50Z</time></trkpt><trkpt lat="45.693214483932124" lon="11.299469753019475"><ele>691.1666666666667</ele><time>2026-04-26T07:58:52Z</time></trkpt><trkpt lat="45.69318362617184" lon="11.299333091515985"><ele>688.0</ele><time>2026-04-26T07:58:55Z</time></trkpt><trkpt lat="45.693182347668795" lon="11.299216889484109"><ele>688.0</ele><time>2026-04-26T07:58:57Z</time></trkpt><trkpt lat="45.69316466506821" lon="11.299106715208332"><ele>688.0</ele><time>2026-04-26T07:58:59Z</time></trkpt><trkpt lat="45.693158450855634" lon="11.298979399551989"><ele>688.0</ele><time>2026-04-26T07:59:01Z</time></trkpt><trkpt lat="45.693178664500856" lon="11.298861421373628"><ele>688.0</ele><time>2026-04-26T07:59:03Z</time></trkpt><trkpt lat="45.69322295799821" lon="11.298731128468694"><ele>688.0</ele><time>2026-04-26T07:59:05Z</time></trkpt><trkpt lat="45.69328372891042" lon="11.298562739672821"><ele>688.8</ele><time>2026-04-26T07:59:07Z</time></trkpt><trkpt lat="45.69329971967497" lon="11.298452092109047"><ele>689.5999999999999</ele><time>2026-04-26T07:59:08Z</time></trkpt><trkpt lat="45.69332543327449" lon="11.29834787427638"><ele>690.4000000000001</ele><time>2026-04-26T07:59:09Z</time></trkpt><trkpt lat="45.69332548259687" lon="11.29820442575363"><ele>691.2</ele><time>2026-04-26T07:59:11Z</time></trkpt><trkpt lat="45.69330936963778" lon="11.29806798909375"><ele>692.0</ele><time>2026-04-26T07:59:13Z</time></trkpt><trkpt lat="45.693302107266526" lon="11.297899370735555"><ele>694.5</ele><time>2026-04-26T07:59:14.999Z</time></trkpt><trkpt lat="45.693304271289804" lon="11.297768818396499"><ele>697.0</ele><time>2026-04-26T07:59:15.999Z</time></trkpt><trkpt lat="45.69331522517652" lon="11.297624591776326"><ele>699.5</ele><time>2026-04-26T07:59:16.999Z</time></trkpt><trkpt lat="45.693332125403685" lon="11.297520908286423"><ele>702.0</ele><time>2026-04-26T07:59:17.999Z</time></trkpt><trkpt lat="45.6933380134033" lon="11.297426557548691"><ele>704.5</ele><time>2026-04-26T07:59:18.999Z</time></trkpt><trkpt lat="45.69334969502103" lon="11.297327376446818"><ele>707.0</ele><time>2026-04-26T07:59:19.999Z</time></trkpt><trkpt lat="45.69336928340912" lon="11.29722731580677"><ele>708.8</ele><time>2026-04-26T07:59:20.999Z</time></trkpt><trkpt lat="45.69338662250961" lon="11.29713682240666"><ele>710.6</ele><time>2026-04-26T07:59:21.999Z</time></trkpt><trkpt lat="45.69342158511214" lon="11.29699431302421"><ele>712.4</ele><time>2026-04-26T07:59:23.999Z</time></trkpt><trkpt lat="45.69346677211175" lon="11.296854975529168"><ele>714.1999999999999</ele><time>2026-04-26T07:59:25.999Z</time></trkpt><trkpt lat="45.69348669212624" lon="11.296729440349818"><ele>716.0</ele><time>2026-04-26T07:59:27.999Z</time></trkpt><trkpt lat="45.69346713467594" lon="11.296585282906973"><ele>716.0</ele><time>2026-04-26T07:59:29.999Z</time></trkpt><trkpt lat="45.693466223728805" lon="11.296486004594737"><ele>716.0</ele><time>2026-04-26T07:59:30.999Z</time></trkpt><trkpt lat="45.693483315474964" lon="11.296382627051749"><ele>716.0</ele><time>2026-04-26T07:59:31.999Z</time></trkpt><trkpt lat="45.69350918525957" lon="11.296288929928528"><ele>716.0</ele><time>2026-04-26T07:59:32.999Z</time></trkpt><trkpt lat="45.693535082250484" lon="11.296194931342008"><ele>716.0</ele><time>2026-04-26T07:59:33.999Z</time></trkpt><trkpt lat="45.693567196345434" lon="11.296050659580052"><ele>716.0</ele><time>2026-04-26T07:59:35.999Z</time></trkpt><trkpt lat="45.693603785890446" lon="11.295949999605725"><ele>707.3333333333333</ele><time>2026-04-26T07:59:38.999Z</time></trkpt><trkpt lat="45.69364491745734" lon="11.295838974990907"><ele>698.6666666666666</ele><time>2026-04-26T07:59:40.999Z</time></trkpt><trkpt lat="45.69367211078502" lon="11.295745482126204"><ele>690.0</ele><time>2026-04-26T07:59:42.999Z</time></trkpt><trkpt lat="45.693704307646684" lon="11.29565165676441"><ele>681.3333333333334</ele><time>2026-04-26T07:59:44.999Z</time></trkpt><trkpt lat="45.69375351773463" lon="11.295541458057796"><ele>672.6666666666667</ele><time>2026-04-26T07:59:46.999Z</time></trkpt><trkpt lat="45.69378564387054" lon="11.295445833878972"><ele>664.0</ele><time>2026-04-26T07:59:48.999Z</time></trkpt><trkpt lat="45.693804353122644" lon="11.295335813739786"><ele>663.2857142857142</ele><time>2026-04-26T07:59:50.999Z</time></trkpt><trkpt lat="45.69379110190737" lon="11.29523891810695"><ele>662.5714285714287</ele><time>2026-04-26T07:59:52.999Z</time></trkpt><trkpt lat="45.69376250340568" lon="11.29514821423614"><ele>661.8571428571429</ele><time>2026-04-26T07:59:54.999Z</time></trkpt><trkpt lat="45.69372756013121" lon="11.295071978589844"><ele>661.1428571428571</ele><time>2026-04-26T07:59:56.999Z</time></trkpt><trkpt lat="45.693710258360724" lon="11.29496748671538"><ele>660.4285714285713</ele><time>2026-04-26T07:59:58.999Z</time></trkpt><trkpt lat="45.69369216590341" lon="11.294853636088176"><ele>659.7142857142858</ele><time>2026-04-26T08:00:00.999Z</time></trkpt><trkpt lat="45.693645866542816" lon="11.294746496357137"><ele>659.0</ele><time>2026-04-26T08:00:02.999Z</time></trkpt><trkpt lat="45.69358264900759" lon="11.294689506863264"><ele>666.4000000000001</ele><time>2026-04-26T08:00:04.999Z</time></trkpt><trkpt lat="45.693485878761344" lon="11.294674323315423"><ele>673.8</ele><time>2026-04-26T08:00:06.999Z</time></trkpt><trkpt lat="45.69337084859189" lon="11.29462538192286"><ele>681.2</ele><time>2026-04-26T08:00:08.999Z</time></trkpt><trkpt lat="45.69330953397828" lon="11.294580606610028"><ele>688.5999999999999</ele><time>2026-04-26T08:00:09.999Z</time></trkpt><trkpt lat="45.693251431784326" lon="11.294537075946918"><ele>696.0</ele><time>2026-04-26T08:00:10.999Z</time></trkpt><trkpt lat="45.69314594256547" lon="11.294457388988596"><ele>696.0</ele><time>2026-04-26T08:00:12.998Z</time></trkpt><trkpt lat="45.69304877866311" lon="11.294352523564577"><ele>696.0</ele><time>2026-04-26T08:00:14.998Z</time></trkpt><trkpt lat="45.69298058766336" lon="11.294229829837626"><ele>696.0</ele><time>2026-04-26T08:00:16.998Z</time></trkpt><trkpt lat="45.692933778168644" lon="11.294102348587648"><ele>696.0</ele><time>2026-04-26T08:00:18.998Z</time></trkpt><trkpt lat="45.69291136550944" lon="11.293936090154743"><ele>693.8</ele><time>2026-04-26T08:00:20.998Z</time></trkpt><trkpt lat="45.69292141569071" lon="11.293779082506594"><ele>691.5999999999999</ele><time>2026-04-26T08:00:22.998Z</time></trkpt><trkpt lat="45.69296052626838" lon="11.293639823070436"><ele>689.4</ele><time>2026-04-26T08:00:24.998Z</time></trkpt><trkpt lat="45.69298421869292" lon="11.293509671950856"><ele>687.2</ele><time>2026-04-26T08:00:26.998Z</time></trkpt><trkpt lat="45.69298704990051" lon="11.293409292129773"><ele>685.0</ele><time>2026-04-26T08:00:28.998Z</time></trkpt><trkpt lat="45.69295925418026" lon="11.29330001383415"><ele>685.0</ele><time>2026-04-26T08:00:30.998Z</time></trkpt><trkpt lat="45.69290819352914" lon="11.293171647645112"><ele>685.0</ele><time>2026-04-26T08:00:32.998Z</time></trkpt><trkpt lat="45.69287532768697" lon="11.293006004640436"><ele>685.0</ele><time>2026-04-26T08:00:34.998Z</time></trkpt><trkpt lat="45.69284911165828" lon="11.292877383535961"><ele>685.0</ele><time>2026-04-26T08:00:36.998Z</time></trkpt><trkpt lat="45.69282545708377" lon="11.29274043129766"><ele>685.0</ele><time>2026-04-26T08:00:38.998Z</time></trkpt><trkpt lat="45.69285209364642" lon="11.292594487303075"><ele>686.0</ele><time>2026-04-26T08:00:40.998Z</time></trkpt><trkpt lat="45.692886893984486" lon="11.292481261528945"><ele>687.0</ele><time>2026-04-26T08:00:42.998Z</time></trkpt><trkpt lat="45.69291254235533" lon="11.2923972686426"><ele>688.0</ele><time>2026-04-26T08:00:43.998Z</time></trkpt><trkpt lat="45.69294539486126" lon="11.292312220669265"><ele>689.0</ele><time>2026-04-26T08:00:44.998Z</time></trkpt><trkpt lat="45.692992216742006" lon="11.292187390158242"><ele>690.0</ele><time>2026-04-26T08:00:46.998Z</time></trkpt><trkpt lat="45.69304273445176" lon="11.292071251825742"><ele>691.0</ele><time>2026-04-26T08:00:48.998Z</time></trkpt><trkpt lat="45.69308096019287" lon="11.291943755193536"><ele>691.5</ele><time>2026-04-26T08:00:50.998Z</time></trkpt><trkpt lat="45.69311149303076" lon="11.29182520082701"><ele>692.0</ele><time>2026-04-26T08:00:52.998Z</time></trkpt><trkpt lat="45.69312486751537" lon="11.291727608752929"><ele>692.5</ele><time>2026-04-26T08:00:54.998Z</time></trkpt><trkpt lat="45.69306083276982" lon="11.291624869465302"><ele>693.0</ele><time>2026-04-26T08:00:57.998Z</time></trkpt><trkpt lat="45.692980795484736" lon="11.291629207340453"><ele>693.5</ele><time>2026-04-26T08:00:59.998Z</time></trkpt><trkpt lat="45.69290213978308" lon="11.29158035503224"><ele>694.0</ele><time>2026-04-26T08:01:02.998Z</time></trkpt><trkpt lat="45.69285004934838" lon="11.291514733084668"><ele>694.0</ele><time>2026-04-26T08:01:04.998Z</time></trkpt><trkpt lat="45.69281216347869" lon="11.291429736517149"><ele>694.0</ele><time>2026-04-26T08:01:06.998Z</time></trkpt><trkpt lat="45.69277788259986" lon="11.291334382813398"><ele>694.0</ele><time>2026-04-26T08:01:08.997Z</time></trkpt><trkpt lat="45.692759715551155" lon="11.291210436010816"><ele>694.0</ele><time>2026-04-26T08:01:10.997Z</time></trkpt><trkpt lat="45.69275678881604" lon="11.291099585754854"><ele>694.0</ele><time>2026-04-26T08:01:12.997Z</time></trkpt><trkpt lat="45.6927519521262" lon="11.29097823363048"><ele>694.0</ele><time>2026-04-26T08:01:14.997Z</time></trkpt><trkpt lat="45.692745085700516" lon="11.290885596010048"><ele>703.2</ele><time>2026-04-26T08:01:15.997Z</time></trkpt><trkpt lat="45.69273149163816" lon="11.290756335799422"><ele>712.4000000000001</ele><time>2026-04-26T08:01:17.997Z</time></trkpt><trkpt lat="45.69271636330846" lon="11.290621595846083"><ele>721.6</ele><time>2026-04-26T08:01:19.997Z</time></trkpt><trkpt lat="45.69270172267619" lon="11.290455598365817"><ele>730.8</ele><time>2026-04-26T08:01:21.997Z</time></trkpt><trkpt lat="45.69268932389992" lon="11.290334008893534"><ele>740.0</ele><time>2026-04-26T08:01:23.997Z</time></trkpt><trkpt lat="45.69269971317334" lon="11.290190341975066"><ele>740.8333333333333</ele><time>2026-04-26T08:01:25.997Z</time></trkpt><trkpt lat="45.692710209072004" lon="11.290041524829793"><ele>741.6666666666666</ele><time>2026-04-26T08:01:27.997Z</time></trkpt><trkpt lat="45.69271384714236" lon="11.289866797302244"><ele>742.5</ele><time>2026-04-26T08:01:29.997Z</time></trkpt><trkpt lat="45.69273280181336" lon="11.289773965196984"><ele>743.3333333333334</ele><time>2026-04-26T08:01:30.997Z</time></trkpt><trkpt lat="45.692757449186054" lon="11.289681284182585"><ele>744.1666666666667</ele><time>2026-04-26T08:01:31.997Z</time></trkpt><trkpt lat="45.69278339831135" lon="11.289597644993167"><ele>745.0</ele><time>2026-04-26T08:01:32.997Z</time></trkpt><trkpt lat="45.69281443482475" lon="11.28945790679449"><ele>745.0</ele><time>2026-04-26T08:01:34.997Z</time></trkpt><trkpt lat="45.69285642600216" lon="11.289326527303729"><ele>745.0</ele><time>2026-04-26T08:01:36.997Z</time></trkpt><trkpt lat="45.69289641128739" lon="11.289213171767182"><ele>745.0</ele><time>2026-04-26T08:01:38.997Z</time></trkpt><trkpt lat="45.69295418758877" lon="11.289163157736255"><ele>745.0</ele><time>2026-04-26T08:01:40.997Z</time></trkpt><trkpt lat="45.69305036894201" lon="11.28906807809333"><ele>745.0</ele><time>2026-04-26T08:01:43.997Z</time></trkpt><trkpt lat="45.69308997009278" lon="11.288993813046947"><ele>745.0</ele><time>2026-04-26T08:01:44.997Z</time></trkpt><trkpt lat="45.69316235203219" lon="11.288875579135462"><ele>745.0</ele><time>2026-04-26T08:01:46.997Z</time></trkpt><trkpt lat="45.69321437223442" lon="11.288733536369001"><ele>745.0</ele><time>2026-04-26T08:01:48.997Z</time></trkpt><trkpt lat="45.693243755153105" lon="11.288640305346682"><ele>745.0</ele><time>2026-04-26T08:01:49.997Z</time></trkpt><trkpt lat="45.69328382061894" lon="11.288560279474806"><ele>745.0</ele><time>2026-04-26T08:01:50.997Z</time></trkpt><trkpt lat="45.693356439710385" lon="11.288425067812167"><ele>745.0</ele><time>2026-04-26T08:01:52.997Z</time></trkpt><trkpt lat="45.693457906290924" lon="11.288392778901507"><ele>745.0</ele><time>2026-04-26T08:01:54.997Z</time></trkpt><trkpt lat="45.69356491260952" lon="11.288346572092587"><ele>745.0</ele><time>2026-04-26T08:01:56.997Z</time></trkpt><trkpt lat="45.693622935012414" lon="11.288299096677044"><ele>745.0</ele><time>2026-04-26T08:01:57.997Z</time></trkpt><trkpt lat="45.693680053698" lon="11.288237545288315"><ele>745.0</ele><time>2026-04-26T08:01:58.997Z</time></trkpt><trkpt lat="45.69373761736079" lon="11.288179428240847"><ele>745.0</ele><time>2026-04-26T08:01:59.997Z</time></trkpt><trkpt lat="45.693824085291396" lon="11.288063498082087"><ele>745.0</ele><time>2026-04-26T08:02:01.997Z</time></trkpt><trkpt lat="45.6938989030929" lon="11.287951531227634"><ele>741.6</ele><time>2026-04-26T08:02:03.996Z</time></trkpt><trkpt lat="45.69395051920988" lon="11.287828215695944"><ele>738.2</ele><time>2026-04-26T08:02:05.996Z</time></trkpt><trkpt lat="45.69398796634156" lon="11.287717219671881"><ele>734.8</ele><time>2026-04-26T08:02:07.996Z</time></trkpt><trkpt lat="45.69401940125206" lon="11.287607346462137"><ele>731.4</ele><time>2026-04-26T08:02:09.996Z</time></trkpt><trkpt lat="45.6940570187813" lon="11.287484149028707"><ele>728.0</ele><time>2026-04-26T08:02:11.996Z</time></trkpt><trkpt lat="45.694098029234574" lon="11.287335215168557"><ele>725.5999999999999</ele><time>2026-04-26T08:02:13.996Z</time></trkpt><trkpt lat="45.69412864611929" lon="11.287254966704232"><ele>723.1999999999999</ele><time>2026-04-26T08:02:14.996Z</time></trkpt><trkpt lat="45.69419269382719" lon="11.28711165546284"><ele>720.8</ele><time>2026-04-26T08:02:16.996Z</time></trkpt><trkpt lat="45.69426701235391" lon="11.286979769488667"><ele>718.4</ele><time>2026-04-26T08:02:18.996Z</time></trkpt><trkpt lat="45.69435325585762" lon="11.286874322394473"><ele>716.0</ele><time>2026-04-26T08:02:20.996Z</time></trkpt><trkpt lat="45.69444061971717" lon="11.286750285696366"><ele>723.1999999999999</ele><time>2026-04-26T08:02:22.996Z</time></trkpt><trkpt lat="45.694509232748004" lon="11.286636362859078"><ele>730.4</ele><time>2026-04-26T08:02:24.996Z</time></trkpt><trkpt lat="45.694566462020916" lon="11.286509131161592"><ele>737.6</ele><time>2026-04-26T08:02:26.996Z</time></trkpt><trkpt lat="45.69459792552767" lon="11.286417373522662"><ele>744.8</ele><time>2026-04-26T08:02:27.996Z</time></trkpt><trkpt lat="45.6946261655435" lon="11.286322715216587"><ele>752.0</ele><time>2026-04-26T08:02:28.996Z</time></trkpt><trkpt lat="45.69466893886062" lon="11.28616579535836"><ele>752.0</ele><time>2026-04-26T08:02:30.996Z</time></trkpt><trkpt lat="45.69464359429577" lon="11.286014161597237"><ele>752.0</ele><time>2026-04-26T08:02:32.996Z</time></trkpt><trkpt lat="45.694586102875185" lon="11.285856512361617"><ele>752.0</ele><time>2026-04-26T08:02:34.996Z</time></trkpt><trkpt lat="45.694576652751" lon="11.285690786922007"><ele>752.0</ele><time>2026-04-26T08:02:36.996Z</time></trkpt><trkpt lat="45.69455669741022" lon="11.28553596855861"><ele>746.8333333333333</ele><time>2026-04-26T08:02:38.996Z</time></trkpt><trkpt lat="45.69455352782937" lon="11.28537248734933"><ele>741.6666666666666</ele><time>2026-04-26T08:02:40.996Z</time></trkpt><trkpt lat="45.69456896034856" lon="11.285242489664475"><ele>736.5</ele><time>2026-04-26T08:02:42.996Z</time></trkpt><trkpt lat="45.694625362723436" lon="11.285172519746538"><ele>731.3333333333334</ele><time>2026-04-26T08:02:44.996Z</time></trkpt><trkpt lat="45.69472637526941" lon="11.285144309415305"><ele>726.1666666666667</ele><time>2026-04-26T08:02:46.996Z</time></trkpt><trkpt lat="45.69478865498203" lon="11.285128513659002"><ele>721.0</ele><time>2026-04-26T08:02:47.996Z</time></trkpt><trkpt lat="45.69485197384425" lon="11.285118862917518"><ele>721.0</ele><time>2026-04-26T08:02:48.996Z</time></trkpt><trkpt lat="45.694929109377924" lon="11.28510240571322"><ele>721.0</ele><time>2026-04-26T08:02:49.996Z</time></trkpt><trkpt lat="45.695013748248655" lon="11.285087417796895"><ele>721.0</ele><time>2026-04-26T08:02:50.996Z</time></trkpt><trkpt lat="45.695091607363295" lon="11.285089529899711"><ele>721.0</ele><time>2026-04-26T08:02:51.996Z</time></trkpt><trkpt lat="45.69516959051852" lon="11.28510118296085"><ele>721.0</ele><time>2026-04-26T08:02:52.996Z</time></trkpt><trkpt lat="45.695295259293175" lon="11.285141005395966"><ele>721.0</ele><time>2026-04-26T08:02:54.996Z</time></trkpt><trkpt lat="45.695360643245856" lon="11.285179540777708"><ele>719.0</ele><time>2026-04-26T08:02:55.996Z</time></trkpt><trkpt lat="45.69543633631995" lon="11.28523731197841"><ele>717.0</ele><time>2026-04-26T08:02:56.996Z</time></trkpt><trkpt lat="45.695520569916205" lon="11.28529363455593"><ele>715.0</ele><time>2026-04-26T08:02:57.996Z</time></trkpt><trkpt lat="45.695616427453416" lon="11.285351221734896"><ele>713.0</ele><time>2026-04-26T08:02:58.996Z</time></trkpt><trkpt lat="45.69570432891522" lon="11.285414770145774"><ele>711.0</ele><time>2026-04-26T08:02:59.996Z</time></trkpt><trkpt lat="45.69578440405422" lon="11.285484972359416"><ele>711.0</ele><time>2026-04-26T08:03:00.995Z</time></trkpt><trkpt lat="45.69585792828879" lon="11.285551083376586"><ele>711.0</ele><time>2026-04-26T08:03:01.995Z</time></trkpt><trkpt lat="45.69593035617826" lon="11.285617475409511"><ele>711.0</ele><time>2026-04-26T08:03:02.995Z</time></trkpt><trkpt lat="45.69600833291602" lon="11.285684579026338"><ele>711.0</ele><time>2026-04-26T08:03:03.995Z</time></trkpt><trkpt lat="45.6960889422051" lon="11.28576590215414"><ele>711.0</ele><time>2026-04-26T08:03:04.995Z</time></trkpt><trkpt lat="45.696170011936104" lon="11.28583982646115"><ele>715.3333333333334</ele><time>2026-04-26T08:03:05.995Z</time></trkpt><trkpt lat="45.69624196580041" lon="11.285905314518537"><ele>719.6666666666666</ele><time>2026-04-26T08:03:06.995Z</time></trkpt><trkpt lat="45.69630809366227" lon="11.285949332413841"><ele>724.0</ele><time>2026-04-26T08:03:07.995Z</time></trkpt><trkpt lat="45.69637760169116" lon="11.285991190462008"><ele>728.3333333333333</ele><time>2026-04-26T08:03:08.995Z</time></trkpt><trkpt lat="45.696453579104" lon="11.286037717094857"><ele>732.6666666666666</ele><time>2026-04-26T08:03:09.995Z</time></trkpt><trkpt lat="45.696517985082075" lon="11.286081442326065"><ele>737.0</ele><time>2026-04-26T08:03:10.995Z</time></trkpt><trkpt lat="45.69660713638666" lon="11.286125400670649"><ele>737.0</ele><time>2026-04-26T08:03:12.995Z</time></trkpt><trkpt lat="45.69668388658526" lon="11.286012716904743"><ele>737.0</ele><time>2026-04-26T08:03:15.995Z</time></trkpt><trkpt lat="45.696689908230745" lon="11.285891263294818"><ele>737.0</ele><time>2026-04-26T08:03:17.995Z</time></trkpt><trkpt lat="45.696751262224794" lon="11.285753387168045"><ele>737.0</ele><time>2026-04-26T08:03:19.995Z</time></trkpt><trkpt lat="45.69680292849806" lon="11.285696909364097"><ele>737.0</ele><time>2026-04-26T08:03:20.995Z</time></trkpt><trkpt lat="45.696859516892616" lon="11.285646048646058"><ele>737.0</ele><time>2026-04-26T08:03:21.995Z</time></trkpt><trkpt lat="45.69691695207277" lon="11.285606116339785"><ele>736.2</ele><time>2026-04-26T08:03:22.995Z</time></trkpt><trkpt lat="45.69699935877721" lon="11.285565905507159"><ele>735.4000000000001</ele><time>2026-04-26T08:03:24.995Z</time></trkpt><trkpt lat="45.69707735740322" lon="11.285528572065408"><ele>734.5999999999999</ele><time>2026-04-26T08:03:27.995Z</time></trkpt><trkpt lat="45.69713996649676" lon="11.285495880126582"><ele>733.8</ele><time>2026-04-26T08:03:30.995Z</time></trkpt><trkpt lat="45.69728235888311" lon="11.285553623222597"><ele>733.0</ele><time>2026-04-26T08:03:48.995Z</time></trkpt><trkpt lat="45.6973434620352" lon="11.28560499837274"><ele>733.0</ele><time>2026-04-26T08:03:53.995Z</time></trkpt><trkpt lat="45.69742170303661" lon="11.285613867319856"><ele>733.0</ele><time>2026-04-26T08:04:07.994Z</time></trkpt><trkpt lat="45.69744679551154" lon="11.285523960173528"><ele>733.0</ele><time>2026-04-26T08:04:20.994Z</time></trkpt><trkpt lat="45.69752411763504" lon="11.285613350724917"><ele>733.0</ele><time>2026-04-26T08:05:19.242Z</time></trkpt><trkpt lat="45.69744567602099" lon="11.285657701348851"><ele>733.0</ele><time>2026-04-26T08:05:46Z</time></trkpt><trkpt lat="45.697380689051464" lon="11.285625777408299"><ele>733.0</ele><time>2026-04-26T08:05:49Z</time></trkpt><trkpt lat="45.69744146037624" lon="11.285715866739977"><ele>736.2</ele><time>2026-04-26T08:06:11.999Z</time></trkpt><trkpt lat="45.697516957743254" lon="11.285784199435566"><ele>739.4</ele><time>2026-04-26T08:06:14.999Z</time></trkpt><trkpt lat="45.69757143245991" lon="11.285842879820164"><ele>742.6</ele><time>2026-04-26T08:06:16.999Z</time></trkpt><trkpt lat="45.69766018111106" lon="11.28591427077989"><ele>745.8000000000001</ele><time>2026-04-26T08:06:18.999Z</time></trkpt><trkpt lat="45.697769421584795" lon="11.285996084786253"><ele>749.0</ele><time>2026-04-26T08:06:20.999Z</time></trkpt><trkpt lat="45.69783146779554" lon="11.286050255380813"><ele>750.3333333333333</ele><time>2026-04-26T08:06:21.999Z</time></trkpt><trkpt lat="45.69789718184918" lon="11.28610625580537"><ele>751.6666666666666</ele><time>2026-04-26T08:06:22.999Z</time></trkpt><trkpt lat="45.69796735564369" lon="11.286166622678445"><ele>753.0</ele><time>2026-04-26T08:06:23.999Z</time></trkpt><trkpt lat="45.69803061564289" lon="11.286238429089845"><ele>754.3333333333334</ele><time>2026-04-26T08:06:24.999Z</time></trkpt><trkpt lat="45.69812032658236" lon="11.286320992722596"><ele>755.6666666666667</ele><time>2026-04-26T08:06:26.999Z</time></trkpt><trkpt lat="45.69818127032997" lon="11.28636988943813"><ele>757.0</ele><time>2026-04-26T08:06:28.999Z</time></trkpt><trkpt lat="45.6982487096548" lon="11.286470363255086"><ele>757.0</ele><time>2026-04-26T08:06:30.999Z</time></trkpt><trkpt lat="45.69832100303039" lon="11.286585637579902"><ele>757.0</ele><time>2026-04-26T08:06:32.999Z</time></trkpt><trkpt lat="45.698388265226896" lon="11.28666691539078"><ele>757.0</ele><time>2026-04-26T08:06:34.999Z</time></trkpt><trkpt lat="45.69846953276413" lon="11.286733004038062"><ele>757.0</ele><time>2026-04-26T08:06:36.999Z</time></trkpt><trkpt lat="45.69853448789883" lon="11.286817686922893"><ele>757.0</ele><time>2026-04-26T08:06:39.999Z</time></trkpt><trkpt lat="45.69856999023766" lon="11.28691647789083"><ele>754.8333333333334</ele><time>2026-04-26T08:06:42.999Z</time></trkpt><trkpt lat="45.69867420115259" lon="11.28695154682456"><ele>752.6666666666667</ele><time>2026-04-26T08:06:47.999Z</time></trkpt><trkpt lat="45.69877141271921" lon="11.286916927080675"><ele>750.5</ele><time>2026-04-26T08:06:50.999Z</time></trkpt><trkpt lat="45.698845208893964" lon="11.286892643069118"><ele>748.3333333333334</ele><time>2026-04-26T08:06:52.999Z</time></trkpt><trkpt lat="45.698927317432734" lon="11.286866987894392"><ele>746.1666666666666</ele><time>2026-04-26T08:06:54.998Z</time></trkpt><trkpt lat="45.69899719359199" lon="11.286833931176055"><ele>744.0</ele><time>2026-04-26T08:06:56.998Z</time></trkpt><trkpt lat="45.69905137459533" lon="11.286785670659365"><ele>744.0</ele><time>2026-04-26T08:06:58.998Z</time></trkpt><trkpt lat="45.69912515225607" lon="11.286734870512342"><ele>744.0</ele><time>2026-04-26T08:07:01.998Z</time></trkpt><trkpt lat="45.699200179778934" lon="11.286775135300942"><ele>744.0</ele><time>2026-04-26T08:07:05.998Z</time></trkpt><trkpt lat="45.699269164654915" lon="11.286776371046848"><ele>744.0</ele><time>2026-04-26T08:07:11.998Z</time></trkpt><trkpt lat="45.699315001562844" lon="11.286695388434534"><ele>744.0</ele><time>2026-04-26T08:07:36.998Z</time></trkpt><trkpt lat="45.699346090292245" lon="11.286605421803548"><ele>744.0</ele><time>2026-04-26T08:07:51.997Z</time></trkpt><trkpt lat="45.69939810831672" lon="11.286525745094645"><ele>740.3333333333334</ele><time>2026-04-26T08:07:54.997Z</time></trkpt><trkpt lat="45.699447228321034" lon="11.2864463374927"><ele>736.6666666666666</ele><time>2026-04-26T08:07:57.997Z</time></trkpt><trkpt lat="45.69947467115069" lon="11.286349210635002"><ele>733.0</ele><time>2026-04-26T08:08:00.997Z</time></trkpt><trkpt lat="45.69951630451347" lon="11.286246939765054"><ele>729.3333333333333</ele><time>2026-04-26T08:08:03.997Z</time></trkpt><trkpt lat="45.69955262141045" lon="11.286160896973199"><ele>725.6666666666666</ele><time>2026-04-26T08:08:05.997Z</time></trkpt><trkpt lat="45.69959710317301" lon="11.28607729018506"><ele>722.0</ele><time>2026-04-26T08:08:07.997Z</time></trkpt><trkpt lat="45.69962589808057" lon="11.28596998831612"><ele>722.0</ele><time>2026-04-26T08:08:10.997Z</time></trkpt><trkpt lat="45.699654656522036" lon="11.28585951832199"><ele>722.0</ele><time>2026-04-26T08:08:12.997Z</time></trkpt><trkpt lat="45.699698139463216" lon="11.285721045830988"><ele>722.0</ele><time>2026-04-26T08:08:14.997Z</time></trkpt><trkpt lat="45.699742077486704" lon="11.285592024549722"><ele>722.0</ele><time>2026-04-26T08:08:16.997Z</time></trkpt><trkpt lat="45.699776761152684" lon="11.285473193958769"><ele>722.0</ele><time>2026-04-26T08:08:18.997Z</time></trkpt><trkpt lat="45.69983775066251" lon="11.285381706873457"><ele>724.0</ele><time>2026-04-26T08:08:20.997Z</time></trkpt><trkpt lat="45.699900297270545" lon="11.285290056375713"><ele>726.0</ele><time>2026-04-26T08:08:22.997Z</time></trkpt><trkpt lat="45.69993217222351" lon="11.285184320095023"><ele>728.0</ele><time>2026-04-26T08:08:24.997Z</time></trkpt><trkpt lat="45.69997174100656" lon="11.285079696588598"><ele>730.0</ele><time>2026-04-26T08:08:27.997Z</time></trkpt><trkpt lat="45.70001691054981" lon="11.284967848147174"><ele>732.0</ele><time>2026-04-26T08:08:30.996Z</time></trkpt><trkpt lat="45.69999539543427" lon="11.284877349705226"><ele>734.0</ele><time>2026-04-26T08:08:33.996Z</time></trkpt><trkpt lat="45.69998456497916" lon="11.28476599657362"><ele>734.1666666666666</ele><time>2026-04-26T08:08:36.996Z</time></trkpt><trkpt lat="45.699992911083406" lon="11.284663596963501"><ele>734.3333333333333</ele><time>2026-04-26T08:08:38.996Z</time></trkpt><trkpt lat="45.69994926505859" lon="11.2845329052472"><ele>734.5</ele><time>2026-04-26T08:08:41.996Z</time></trkpt><trkpt lat="45.69994635877447" lon="11.284436056686726"><ele>734.6666666666666</ele><time>2026-04-26T08:08:43.996Z</time></trkpt><trkpt lat="45.69996574173881" lon="11.284346621822708"><ele>734.8333333333334</ele><time>2026-04-26T08:08:44.996Z</time></trkpt><trkpt lat="45.70001754906431" lon="11.284258945252782"><ele>735.0</ele><time>2026-04-26T08:08:46.996Z</time></trkpt><trkpt lat="45.700083639683854" lon="11.2841516890874"><ele>735.0</ele><time>2026-04-26T08:08:48.996Z</time></trkpt><trkpt lat="45.70014338836651" lon="11.284110193162181"><ele>735.0</ele><time>2026-04-26T08:08:49.996Z</time></trkpt><trkpt lat="45.70024647636632" lon="11.284062413937919"><ele>735.0</ele><time>2026-04-26T08:08:51.996Z</time></trkpt><trkpt lat="45.70032415109127" lon="11.284038369027655"><ele>735.0</ele><time>2026-04-26T08:08:53.996Z</time></trkpt><trkpt lat="45.70042728002499" lon="11.28402220468391"><ele>735.0</ele><time>2026-04-26T08:08:55.996Z</time></trkpt><trkpt lat="45.70052879510364" lon="11.283965847783962"><ele>731.0</ele><time>2026-04-26T08:08:56.996Z</time></trkpt><trkpt lat="45.70063686637962" lon="11.283915752490524"><ele>727.0</ele><time>2026-04-26T08:08:57.996Z</time></trkpt><trkpt lat="45.70077234696999" lon="11.283816988964114"><ele>723.0</ele><time>2026-04-26T08:08:59.996Z</time></trkpt><trkpt lat="45.70084352371029" lon="11.28373569096207"><ele>719.0</ele><time>2026-04-26T08:09:00.996Z</time></trkpt><trkpt lat="45.700903956906444" lon="11.283642351958235"><ele>715.0</ele><time>2026-04-26T08:09:01.996Z</time></trkpt><trkpt lat="45.70095607292614" lon="11.283573264684794"><ele>715.0</ele><time>2026-04-26T08:09:02.996Z</time></trkpt><trkpt lat="45.70102333533533" lon="11.283531687517987"><ele>715.0</ele><time>2026-04-26T08:09:03.996Z</time></trkpt><trkpt lat="45.70108661073043" lon="11.283496388459854"><ele>715.0</ele><time>2026-04-26T08:09:04.996Z</time></trkpt><trkpt lat="45.70115367676063" lon="11.283461132684694"><ele>715.0</ele><time>2026-04-26T08:09:05.996Z</time></trkpt><trkpt lat="45.70121684045589" lon="11.283427955266088"><ele>715.0</ele><time>2026-04-26T08:09:06.996Z</time></trkpt><trkpt lat="45.701285475699784" lon="11.283360461490068"><ele>715.0</ele><time>2026-04-26T08:09:07.996Z</time></trkpt><trkpt lat="45.70134545537052" lon="11.283309904420094"><ele>715.0</ele><time>2026-04-26T08:09:08.996Z</time></trkpt><trkpt lat="45.70140764866954" lon="11.283257522796541"><ele>718.75</ele><time>2026-04-26T08:09:09.996Z</time></trkpt><trkpt lat="45.701505633711506" lon="11.283166502596565"><ele>722.5</ele><time>2026-04-26T08:09:11.996Z</time></trkpt><trkpt lat="45.70161930618544" lon="11.283087569524914"><ele>726.25</ele><time>2026-04-26T08:09:13.996Z</time></trkpt><trkpt lat="45.70170740498723" lon="11.283033547367513"><ele>730.0</ele><time>2026-04-26T08:09:15.996Z</time></trkpt><trkpt lat="45.7018113948892" lon="11.282962040613373"><ele>730.0</ele><time>2026-04-26T08:09:17.995Z</time></trkpt><trkpt lat="45.70189000542306" lon="11.282859809225629"><ele>730.0</ele><time>2026-04-26T08:09:19.995Z</time></trkpt><trkpt lat="45.70192922665835" lon="11.282736385377193"><ele>730.0</ele><time>2026-04-26T08:09:21.995Z</time></trkpt><trkpt lat="45.70197184294918" lon="11.2826077654437"><ele>730.0</ele><time>2026-04-26T08:09:23.995Z</time></trkpt><trkpt lat="45.702019142203774" lon="11.282521144170813"><ele>730.0</ele><time>2026-04-26T08:09:25.995Z</time></trkpt><trkpt lat="45.70210635626911" lon="11.28247756327893"><ele>723.8</ele><time>2026-04-26T08:09:28.995Z</time></trkpt><trkpt lat="45.70220036038668" lon="11.282452021840765"><ele>717.6</ele><time>2026-04-26T08:09:30.995Z</time></trkpt><trkpt lat="45.70230026745077" lon="11.28243889862649"><ele>711.4000000000001</ele><time>2026-04-26T08:09:32.995Z</time></trkpt><trkpt lat="45.702425859707915" lon="11.282408231084496"><ele>705.2</ele><time>2026-04-26T08:09:34.995Z</time></trkpt><trkpt lat="45.70253267782337" lon="11.282371162816828"><ele>699.0</ele><time>2026-04-26T08:09:36.995Z</time></trkpt><trkpt lat="45.70262546835098" lon="11.282328068794232"><ele>699.0</ele><time>2026-04-26T08:09:38.995Z</time></trkpt><trkpt lat="45.7027154113678" lon="11.28227171454887"><ele>699.0</ele><time>2026-04-26T08:09:40.995Z</time></trkpt><trkpt lat="45.70278576227531" lon="11.282213747224596"><ele>699.0</ele><time>2026-04-26T08:09:42.995Z</time></trkpt><trkpt lat="45.702845264643756" lon="11.282119886946154"><ele>699.0</ele><time>2026-04-26T08:09:44.995Z</time></trkpt><trkpt lat="45.70289827276391" lon="11.282050176782608"><ele>699.0</ele><time>2026-04-26T08:09:46.995Z</time></trkpt><trkpt lat="45.70294024438144" lon="11.281976398388174"><ele>699.0</ele><time>2026-04-26T08:09:48.995Z</time></trkpt><trkpt lat="45.702995793270524" lon="11.281835703092218"><ele>696.1666666666666</ele><time>2026-04-26T08:09:50.995Z</time></trkpt><trkpt lat="45.70303094454724" lon="11.28170560535061"><ele>693.3333333333334</ele><time>2026-04-26T08:09:52.995Z</time></trkpt><trkpt lat="45.703044767158545" lon="11.281537533041368"><ele>690.5</ele><time>2026-04-26T08:09:54.995Z</time></trkpt><trkpt lat="45.70305185649268" lon="11.281440445493379"><ele>687.6666666666667</ele><time>2026-04-26T08:09:55.995Z</time></trkpt><trkpt lat="45.70306059154954" lon="11.281346416058252"><ele>684.8333333333334</ele><time>2026-04-26T08:09:56.995Z</time></trkpt><trkpt lat="45.703064225346424" lon="11.28124106893061"><ele>682.0</ele><time>2026-04-26T08:09:57.995Z</time></trkpt><trkpt lat="45.70306621567757" lon="11.281127685029457"><ele>682.0</ele><time>2026-04-26T08:09:58.995Z</time></trkpt><trkpt lat="45.70306527001848" lon="11.281026864304414"><ele>682.0</ele><time>2026-04-26T08:09:59.995Z</time></trkpt><trkpt lat="45.70305214307992" lon="11.280861707939655"><ele>682.0</ele><time>2026-04-26T08:10:01.995Z</time></trkpt><trkpt lat="45.70302930232491" lon="11.280727954037658"><ele>682.0</ele><time>2026-04-26T08:10:03.995Z</time></trkpt><trkpt lat="45.70300392148408" lon="11.280625934866931"><ele>682.0</ele><time>2026-04-26T08:10:05.994Z</time></trkpt><trkpt lat="45.703018098406716" lon="11.280503787916778"><ele>682.0</ele><time>2026-04-26T08:10:07.994Z</time></trkpt><trkpt lat="45.70303945762948" lon="11.280356050606299"><ele>682.3333333333334</ele><time>2026-04-26T08:10:09.994Z</time></trkpt><trkpt lat="45.70305347238918" lon="11.280192867316599"><ele>682.6666666666667</ele><time>2026-04-26T08:10:11.994Z</time></trkpt><trkpt lat="45.70305401766336" lon="11.280098371935523"><ele>683.0</ele><time>2026-04-26T08:10:12.994Z</time></trkpt><trkpt lat="45.703048439816584" lon="11.27999427798628"><ele>683.3333333333334</ele><time>2026-04-26T08:10:13.994Z</time></trkpt><trkpt lat="45.70305063390616" lon="11.279880548298348"><ele>683.6666666666666</ele><time>2026-04-26T08:10:14.994Z</time></trkpt><trkpt lat="45.70305249746508" lon="11.27978418496976"><ele>684.0</ele><time>2026-04-26T08:10:15.994Z</time></trkpt><trkpt lat="45.70304262409896" lon="11.279674827984179"><ele>684.0</ele><time>2026-04-26T08:10:16.994Z</time></trkpt><trkpt lat="45.703036901058454" lon="11.279568271663509"><ele>684.0</ele><time>2026-04-26T08:10:17.994Z</time></trkpt><trkpt lat="45.70303263401118" lon="11.27946770489049"><ele>684.0</ele><time>2026-04-26T08:10:18.994Z</time></trkpt><trkpt lat="45.70303165712279" lon="11.279372499136874"><ele>684.0</ele><time>2026-04-26T08:10:19.994Z</time></trkpt><trkpt lat="45.703025374848316" lon="11.279258987477885"><ele>684.0</ele><time>2026-04-26T08:10:20.994Z</time></trkpt><trkpt lat="45.70301003889751" lon="11.279098143447461"><ele>684.0</ele><time>2026-04-26T08:10:22.994Z</time></trkpt><trkpt lat="45.70301669937552" lon="11.279006508637405"><ele>684.8000000000001</ele><time>2026-04-26T08:10:23.994Z</time></trkpt><trkpt lat="45.70307011693361" lon="11.278825278893695"><ele>685.6</ele><time>2026-04-26T08:10:25.994Z</time></trkpt><trkpt lat="45.7030967136475" lon="11.278719120946807"><ele>686.4</ele><time>2026-04-26T08:10:26.994Z</time></trkpt><trkpt lat="45.703124617997304" lon="11.278624884795786"><ele>687.2</ele><time>2026-04-26T08:10:27.994Z</time></trkpt><trkpt lat="45.70315236751364" lon="11.278536327370016"><ele>688.0</ele><time>2026-04-26T08:10:28.994Z</time></trkpt><trkpt lat="45.70320272249122" lon="11.278368319165825"><ele>688.0</ele><time>2026-04-26T08:10:30.994Z</time></trkpt><trkpt lat="45.703232129460666" lon="11.278281818911317"><ele>688.0</ele><time>2026-04-26T08:10:31.994Z</time></trkpt><trkpt lat="45.70327210424565" lon="11.278203827525306"><ele>688.0</ele><time>2026-04-26T08:10:32.994Z</time></trkpt><trkpt lat="45.703316771600676" lon="11.278111126336444"><ele>688.0</ele><time>2026-04-26T08:10:33.994Z</time></trkpt><trkpt lat="45.70335201969732" lon="11.278023167917143"><ele>688.0</ele><time>2026-04-26T08:10:34.994Z</time></trkpt><trkpt lat="45.703399632573515" lon="11.2778512260838"><ele>688.0</ele><time>2026-04-26T08:10:36.994Z</time></trkpt><trkpt lat="45.703394892059066" lon="11.277701747246656"><ele>689.2</ele><time>2026-04-26T08:10:38.994Z</time></trkpt><trkpt lat="45.70333577506015" lon="11.277601788638737"><ele>690.4</ele><time>2026-04-26T08:10:40.994Z</time></trkpt><trkpt lat="45.703244647765175" lon="11.277458271668634"><ele>691.6</ele><time>2026-04-26T08:10:42.994Z</time></trkpt><trkpt lat="45.703193326411714" lon="11.277365862040082"><ele>692.8000000000001</ele><time>2026-04-26T08:10:43.994Z</time></trkpt><trkpt lat="45.703117734456335" lon="11.27724729067106"><ele>694.0</ele><time>2026-04-26T08:10:45.994Z</time></trkpt><trkpt lat="45.70310191178573" lon="11.277107905593466"><ele>694.8333333333334</ele><time>2026-04-26T08:10:47.994Z</time></trkpt><trkpt lat="45.703098054855595" lon="11.277003561033165"><ele>695.6666666666667</ele><time>2026-04-26T08:10:48.994Z</time></trkpt><trkpt lat="45.70308699221337" lon="11.276897959819111"><ele>696.5</ele><time>2026-04-26T08:10:49.994Z</time></trkpt><trkpt lat="45.70308026220794" lon="11.276796554275357"><ele>697.3333333333334</ele><time>2026-04-26T08:10:50.994Z</time></trkpt><trkpt lat="45.70306480030541" lon="11.276635238075643"><ele>698.1666666666666</ele><time>2026-04-26T08:10:52.993Z</time></trkpt><trkpt lat="45.703035672611044" lon="11.276539440971533"><ele>699.0</ele><time>2026-04-26T08:10:53.993Z</time></trkpt><trkpt lat="45.70300277113907" lon="11.276443234586607"><ele>700.1666666666666</ele><time>2026-04-26T08:10:54.993Z</time></trkpt><trkpt lat="45.70297710310984" lon="11.276354062867606"><ele>701.3333333333334</ele><time>2026-04-26T08:10:55.993Z</time></trkpt><trkpt lat="45.70292726076796" lon="11.276229220804566"><ele>702.5</ele><time>2026-04-26T08:10:57.993Z</time></trkpt><trkpt lat="45.702892799433144" lon="11.276143640954087"><ele>703.6666666666667</ele><time>2026-04-26T08:10:59.993Z</time></trkpt><trkpt lat="45.702827606825274" lon="11.276031966884466"><ele>704.8333333333334</ele><time>2026-04-26T08:11:01.993Z</time></trkpt><trkpt lat="45.70275905784927" lon="11.27593901140977"><ele>706.0</ele><time>2026-04-26T08:11:03.993Z</time></trkpt><trkpt lat="45.70268498552317" lon="11.275834415589618"><ele>706.0</ele><time>2026-04-26T08:11:05.993Z</time></trkpt><trkpt lat="45.70262626196009" lon="11.275696032455134"><ele>706.0</ele><time>2026-04-26T08:11:07.993Z</time></trkpt><trkpt lat="45.702586943890836" lon="11.275553655272795"><ele>706.0</ele><time>2026-04-26T08:11:09.993Z</time></trkpt><trkpt lat="45.70258896248479" lon="11.27542828840896"><ele>706.0</ele><time>2026-04-26T08:11:11.993Z</time></trkpt><trkpt lat="45.702582747499264" lon="11.275318869888805"><ele>706.0</ele><time>2026-04-26T08:11:13.993Z</time></trkpt><trkpt lat="45.70258701650937" lon="11.275186592511247"><ele>704.6666666666667</ele><time>2026-04-26T08:11:15.993Z</time></trkpt><trkpt lat="45.702611449955135" lon="11.27503860908262"><ele>703.3333333333334</ele><time>2026-04-26T08:11:17.993Z</time></trkpt><trkpt lat="45.702611251207536" lon="11.274916758217708"><ele>702.0</ele><time>2026-04-26T08:11:19.993Z</time></trkpt><trkpt lat="45.7025972510409" lon="11.274792397217952"><ele>700.6666666666666</ele><time>2026-04-26T08:11:21.993Z</time></trkpt><trkpt lat="45.70258724453961" lon="11.274671276788329"><ele>699.3333333333333</ele><time>2026-04-26T08:11:23.993Z</time></trkpt><trkpt lat="45.70257674036776" lon="11.2745748930492"><ele>698.0</ele><time>2026-04-26T08:11:24.993Z</time></trkpt><trkpt lat="45.70257899305103" lon="11.274470238638528"><ele>697.0</ele><time>2026-04-26T08:11:25.993Z</time></trkpt><trkpt lat="45.70258834207326" lon="11.274348255638436"><ele>696.0</ele><time>2026-04-26T08:11:26.993Z</time></trkpt><trkpt lat="45.702591974387566" lon="11.274248791816632"><ele>695.0</ele><time>2026-04-26T08:11:27.993Z</time></trkpt><trkpt lat="45.702585993154926" lon="11.274149858724549"><ele>694.0</ele><time>2026-04-26T08:11:28.993Z</time></trkpt><trkpt lat="45.70257069062846" lon="11.27404559363307"><ele>693.0</ele><time>2026-04-26T08:11:29.993Z</time></trkpt><trkpt lat="45.70255202883031" lon="11.273942990003045"><ele>692.0</ele><time>2026-04-26T08:11:30.993Z</time></trkpt><trkpt lat="45.70247009211585" lon="11.273810978348825"><ele>690.1666666666666</ele><time>2026-04-26T08:11:32.993Z</time></trkpt><trkpt lat="45.70238941711431" lon="11.273750184704998"><ele>688.3333333333333</ele><time>2026-04-26T08:11:33.993Z</time></trkpt><trkpt lat="45.702320872779005" lon="11.27368690531222"><ele>686.5</ele><time>2026-04-26T08:11:34.993Z</time></trkpt><trkpt lat="45.70226563695337" lon="11.27363701536852"><ele>684.6666666666666</ele><time>2026-04-26T08:11:35.993Z</time></trkpt><trkpt lat="45.70219733815249" lon="11.273508759645729"><ele>682.8333333333334</ele><time>2026-04-26T08:11:37.993Z</time></trkpt><trkpt lat="45.70217318168686" lon="11.273372247414201"><ele>681.0</ele><time>2026-04-26T08:11:39.992Z</time></trkpt><trkpt lat="45.702165991698436" lon="11.273227900974456"><ele>681.0</ele><time>2026-04-26T08:11:41.992Z</time></trkpt><trkpt lat="45.70215228584784" lon="11.27313964711138"><ele>681.0</ele><time>2026-04-26T08:11:42.992Z</time></trkpt><trkpt lat="45.70216533342878" lon="11.27299309205065"><ele>681.0</ele><time>2026-04-26T08:11:44.992Z</time></trkpt><trkpt lat="45.70219433236447" lon="11.272911242979426"><ele>681.0</ele><time>2026-04-26T08:11:45.992Z</time></trkpt><trkpt lat="45.70220760146791" lon="11.272754755438276"><ele>681.0</ele><time>2026-04-26T08:11:47.992Z</time></trkpt><trkpt lat="45.70214586993324" lon="11.272657563356889"><ele>681.0</ele><time>2026-04-26T08:11:49.992Z</time></trkpt><trkpt lat="45.70204455220223" lon="11.272531844261204"><ele>683.0</ele><time>2026-04-26T08:11:51.992Z</time></trkpt><trkpt lat="45.70198368321738" lon="11.27244606284813"><ele>685.0</ele><time>2026-04-26T08:11:52.992Z</time></trkpt><trkpt lat="45.70193396334216" lon="11.272337287029364"><ele>687.0</ele><time>2026-04-26T08:11:53.992Z</time></trkpt><trkpt lat="45.70189975730493" lon="11.272220708181722"><ele>689.0</ele><time>2026-04-26T08:11:54.992Z</time></trkpt><trkpt lat="45.70187251607644" lon="11.272085300735196"><ele>691.0</ele><time>2026-04-26T08:11:55.992Z</time></trkpt><trkpt lat="45.701829578629145" lon="11.271931994549798"><ele>691.0</ele><time>2026-04-26T08:11:56.992Z</time></trkpt><trkpt lat="45.70178110126237" lon="11.271792828859425"><ele>691.0</ele><time>2026-04-26T08:11:57.992Z</time></trkpt><trkpt lat="45.701739781264" lon="11.271672352691034"><ele>691.0</ele><time>2026-04-26T08:11:58.992Z</time></trkpt><trkpt lat="45.70170292577534" lon="11.27156830429146"><ele>691.0</ele><time>2026-04-26T08:11:59.992Z</time></trkpt><trkpt lat="45.701668836679175" lon="11.271478125121034"><ele>691.0</ele><time>2026-04-26T08:12:00.992Z</time></trkpt><trkpt lat="45.70161090873806" lon="11.271361361106335"><ele>688.3333333333334</ele><time>2026-04-26T08:12:02.994Z</time></trkpt><trkpt lat="45.70152636510078" lon="11.271264868784726"><ele>685.6666666666667</ele><time>2026-04-26T08:12:04.995Z</time></trkpt><trkpt lat="45.70147835540696" lon="11.271202927049684"><ele>683.0</ele><time>2026-04-26T08:12:05.995Z</time></trkpt><trkpt lat="45.70144083207798" lon="11.27111579944379"><ele>680.3333333333334</ele><time>2026-04-26T08:12:06.995Z</time></trkpt><trkpt lat="45.70140688500157" lon="11.271018372676497"><ele>677.6666666666666</ele><time>2026-04-26T08:12:07.996Z</time></trkpt><trkpt lat="45.70137526703207" lon="11.27092707514204"><ele>675.0</ele><time>2026-04-26T08:12:08.996Z</time></trkpt><trkpt lat="45.701325914357" lon="11.270792615388181"><ele>675.0</ele><time>2026-04-26T08:12:10.997Z</time></trkpt><trkpt lat="45.70127345600635" lon="11.27067218366659"><ele>675.0</ele><time>2026-04-26T08:12:12.997Z</time></trkpt><trkpt lat="45.7011651244082" lon="11.270603128709341"><ele>675.0</ele><time>2026-04-26T08:12:14.997Z</time></trkpt><trkpt lat="45.701053290750636" lon="11.270545881139189"><ele>675.0</ele><time>2026-04-26T08:12:16.998Z</time></trkpt><trkpt lat="45.70096268292378" lon="11.270505599862979"><ele>675.0</ele><time>2026-04-26T08:12:18.998Z</time></trkpt><trkpt lat="45.700910713775954" lon="11.270445064506182"><ele>678.8333333333334</ele><time>2026-04-26T08:12:19.998Z</time></trkpt><trkpt lat="45.700866095239405" lon="11.270376960962379"><ele>682.6666666666666</ele><time>2026-04-26T08:12:20.998Z</time></trkpt><trkpt lat="45.70081614988368" lon="11.270281933940822"><ele>686.5</ele><time>2026-04-26T08:12:22.999Z</time></trkpt><trkpt lat="45.700786348966965" lon="11.270155467223004"><ele>690.3333333333333</ele><time>2026-04-26T08:12:24.999Z</time></trkpt><trkpt lat="45.70076247075131" lon="11.270070357760007"><ele>694.1666666666666</ele><time>2026-04-26T08:12:25.999Z</time></trkpt><trkpt lat="45.70071491078849" lon="11.269923115517335"><ele>698.0</ele><time>2026-04-26T08:12:27.999Z</time></trkpt><trkpt lat="45.70069434570037" lon="11.269782369846153"><ele>696.2</ele><time>2026-04-26T08:12:29.999Z</time></trkpt><trkpt lat="45.70064362887103" lon="11.26963220895736"><ele>694.4</ele><time>2026-04-26T08:12:31.999Z</time></trkpt><trkpt lat="45.70058958770884" lon="11.269509348152164"><ele>692.6</ele><time>2026-04-26T08:12:33.999Z</time></trkpt><trkpt lat="45.70055226485856" lon="11.26937821672032"><ele>690.8000000000001</ele><time>2026-04-26T08:12:35.999Z</time></trkpt><trkpt lat="45.70054310843654" lon="11.269265819862559"><ele>689.0</ele><time>2026-04-26T08:12:37.999Z</time></trkpt><trkpt lat="45.70052305377248" lon="11.269168026522012"><ele>689.0</ele><time>2026-04-26T08:12:42.999Z</time></trkpt><trkpt lat="45.70050190074262" lon="11.269077227619537"><ele>689.0</ele><time>2026-04-26T08:12:54Z</time></trkpt><trkpt lat="45.70044403172501" lon="11.269032382323214"><ele>689.0</ele><time>2026-04-26T08:13:01.999Z</time></trkpt><trkpt lat="45.700503920534686" lon="11.268981549945297"><ele>689.0</ele><time>2026-04-26T08:14:01.998Z</time></trkpt><trkpt lat="45.70050267779523" lon="11.268857851999972"><ele>689.0</ele><time>2026-04-26T08:19:03.992Z</time></trkpt><trkpt lat="45.700433682995026" lon="11.268799432222798"><ele>689.0</ele><time>2026-04-26T08:20:22.999Z</time></trkpt><trkpt lat="45.70040098050928" lon="11.268693667010577"><ele>690.6666666666666</ele><time>2026-04-26T08:20:24.999Z</time></trkpt><trkpt lat="45.700375831553174" lon="11.268599251679948"><ele>692.3333333333333</ele><time>2026-04-26T08:20:26.999Z</time></trkpt><trkpt lat="45.7003563600753" lon="11.26848277880494"><ele>694.0</ele><time>2026-04-26T08:20:28.999Z</time></trkpt><trkpt lat="45.70034681360976" lon="11.268385957532084"><ele>695.6666666666666</ele><time>2026-04-26T08:20:30.999Z</time></trkpt><trkpt lat="45.70035722801021" lon="11.268268750447813"><ele>697.3333333333334</ele><time>2026-04-26T08:20:32.999Z</time></trkpt><trkpt lat="45.70037438216543" lon="11.268166210962939"><ele>699.0</ele><time>2026-04-26T08:20:34.999Z</time></trkpt><trkpt lat="45.70040235719361" lon="11.268050798817997"><ele>700.6</ele><time>2026-04-26T08:20:36.999Z</time></trkpt><trkpt lat="45.700454591659785" lon="11.267918035462541"><ele>702.2</ele><time>2026-04-26T08:20:38.999Z</time></trkpt><trkpt lat="45.700488630061216" lon="11.267827597639123"><ele>703.8000000000001</ele><time>2026-04-26T08:20:39.999Z</time></trkpt><trkpt lat="45.700559253035436" lon="11.267689730736013"><ele>705.4000000000001</ele><time>2026-04-26T08:20:41.999Z</time></trkpt><trkpt lat="45.700602687604004" lon="11.267605361906087"><ele>707.0</ele><time>2026-04-26T08:20:42.999Z</time></trkpt><trkpt lat="45.70064543319469" lon="11.267469141340158"><ele>707.0</ele><time>2026-04-26T08:20:44.999Z</time></trkpt><trkpt lat="45.70068044909235" lon="11.267374969461159"><ele>707.0</ele><time>2026-04-26T08:20:45.998Z</time></trkpt><trkpt lat="45.70071136380977" lon="11.267281545426256"><ele>707.0</ele><time>2026-04-26T08:20:46.998Z</time></trkpt><trkpt lat="45.70073949779152" lon="11.267188104254435"><ele>707.0</ele><time>2026-04-26T08:20:47.998Z</time></trkpt><trkpt lat="45.70077891275222" lon="11.267003860350016"><ele>707.0</ele><time>2026-04-26T08:20:49.998Z</time></trkpt><trkpt lat="45.70079853472382" lon="11.266918204091969"><ele>707.0</ele><time>2026-04-26T08:20:50.998Z</time></trkpt><trkpt lat="45.70084488492969" lon="11.266778654592335"><ele>706.8</ele><time>2026-04-26T08:20:52.998Z</time></trkpt><trkpt lat="45.70090165539954" lon="11.266687503114587"><ele>706.6</ele><time>2026-04-26T08:20:54.998Z</time></trkpt><trkpt lat="45.700972796748324" lon="11.266590469431922"><ele>706.4</ele><time>2026-04-26T08:20:56.998Z</time></trkpt><trkpt lat="45.70105474121144" lon="11.266492738233609"><ele>706.1999999999999</ele><time>2026-04-26T08:20:58.998Z</time></trkpt><trkpt lat="45.70112052593979" lon="11.266379692657141"><ele>706.0</ele><time>2026-04-26T08:21:00.998Z</time></trkpt><trkpt lat="45.70118594559078" lon="11.266236758712639"><ele>707.1999999999999</ele><time>2026-04-26T08:21:02.998Z</time></trkpt><trkpt lat="45.701266861274014" lon="11.266137919537218"><ele>708.4</ele><time>2026-04-26T08:21:04.998Z</time></trkpt><trkpt lat="45.70133543143666" lon="11.26610123727501"><ele>709.6</ele><time>2026-04-26T08:21:06.998Z</time></trkpt><trkpt lat="45.70140623567606" lon="11.266117024951786"><ele>710.8</ele><time>2026-04-26T08:21:08.998Z</time></trkpt><trkpt lat="45.701496672425534" lon="11.266205558115242"><ele>712.0</ele><time>2026-04-26T08:21:11.998Z</time></trkpt><trkpt lat="45.70158377188391" lon="11.266299393104635"><ele>712.0</ele><time>2026-04-26T08:21:13.998Z</time></trkpt><trkpt lat="45.70168035671218" lon="11.266343588001519"><ele>712.0</ele><time>2026-04-26T08:21:15.998Z</time></trkpt><trkpt lat="45.7017948681106" lon="11.2663056781532"><ele>712.0</ele><time>2026-04-26T08:21:18.998Z</time></trkpt><trkpt lat="45.70189383020396" lon="11.26624727018848"><ele>712.0</ele><time>2026-04-26T08:21:20.998Z</time></trkpt><trkpt lat="45.70199194748153" lon="11.266201683455884"><ele>712.0</ele><time>2026-04-26T08:21:22.998Z</time></trkpt><trkpt lat="45.70205708491138" lon="11.266164523154734"><ele>713.5</ele><time>2026-04-26T08:21:23.998Z</time></trkpt><trkpt lat="45.702148306685594" lon="11.26605577838255"><ele>715.0</ele><time>2026-04-26T08:21:25.998Z</time></trkpt><trkpt lat="45.702252349672" lon="11.265966596637936"><ele>716.5</ele><time>2026-04-26T08:21:27.998Z</time></trkpt><trkpt lat="45.702303034710525" lon="11.265909727706354"><ele>718.0</ele><time>2026-04-26T08:21:28.998Z</time></trkpt><trkpt lat="45.70236495108021" lon="11.26586211700663"><ele>719.5</ele><time>2026-04-26T08:21:29.998Z</time></trkpt><trkpt lat="45.702425763384845" lon="11.265801080962353"><ele>721.0</ele><time>2026-04-26T08:21:30.998Z</time></trkpt><trkpt lat="45.70248422597269" lon="11.265716582565956"><ele>721.0</ele><time>2026-04-26T08:21:31.998Z</time></trkpt><trkpt lat="45.70254293492306" lon="11.265639240022486"><ele>721.0</ele><time>2026-04-26T08:21:32.998Z</time></trkpt><trkpt lat="45.70260566686603" lon="11.26556006136164"><ele>721.0</ele><time>2026-04-26T08:21:33.998Z</time></trkpt><trkpt lat="45.70266969448568" lon="11.265489088597006"><ele>721.0</ele><time>2026-04-26T08:21:34.998Z</time></trkpt><trkpt lat="45.702725804859824" lon="11.26543219900432"><ele>721.0</ele><time>2026-04-26T08:21:35.997Z</time></trkpt><trkpt lat="45.702813614288694" lon="11.26535504465974"><ele>721.0</ele><time>2026-04-26T08:21:37.997Z</time></trkpt><trkpt lat="45.702918760958866" lon="11.265273976551336"><ele>723.0</ele><time>2026-04-26T08:21:39.997Z</time></trkpt><trkpt lat="45.70301519435285" lon="11.26519901486774"><ele>725.0</ele><time>2026-04-26T08:21:41.997Z</time></trkpt><trkpt lat="45.70307685509" lon="11.265092224703803"><ele>727.0</ele><time>2026-04-26T08:21:43.997Z</time></trkpt><trkpt lat="45.70313018287253" lon="11.265039671504239"><ele>729.0</ele><time>2026-04-26T08:21:44.997Z</time></trkpt><trkpt lat="45.70324016181433" lon="11.26500436132352"><ele>731.0</ele><time>2026-04-26T08:21:46.997Z</time></trkpt><trkpt lat="45.70335844783144" lon="11.265020621622515"><ele>731.0</ele><time>2026-04-26T08:21:48.997Z</time></trkpt><trkpt lat="45.703422133979004" lon="11.265025436716423"><ele>731.0</ele><time>2026-04-26T08:21:49.997Z</time></trkpt><trkpt lat="45.70348540410677" lon="11.265023864187585"><ele>731.0</ele><time>2026-04-26T08:21:50.997Z</time></trkpt><trkpt lat="45.70360475742805" lon="11.265016489196924"><ele>731.0</ele><time>2026-04-26T08:21:52.997Z</time></trkpt><trkpt lat="45.70370558937112" lon="11.265013551277185"><ele>731.0</ele><time>2026-04-26T08:21:54.997Z</time></trkpt><trkpt lat="45.70380976952127" lon="11.264980984478267"><ele>733.0</ele><time>2026-04-26T08:21:56.997Z</time></trkpt><trkpt lat="45.70391123488304" lon="11.264951694124308"><ele>735.0</ele><time>2026-04-26T08:21:58.997Z</time></trkpt><trkpt lat="45.70401595094635" lon="11.264946373211016"><ele>737.0</ele><time>2026-04-26T08:22:00.997Z</time></trkpt><trkpt lat="45.70412263714666" lon="11.264946585321242"><ele>739.0</ele><time>2026-04-26T08:22:02.997Z</time></trkpt><trkpt lat="45.70421940308392" lon="11.264929556098577"><ele>741.0</ele><time>2026-04-26T08:22:04.997Z</time></trkpt><trkpt lat="45.70430273353184" lon="11.264884086346402"><ele>741.0</ele><time>2026-04-26T08:22:06.997Z</time></trkpt><trkpt lat="45.704371256094646" lon="11.264836625711487"><ele>741.0</ele><time>2026-04-26T08:22:08.997Z</time></trkpt><trkpt lat="45.70446032237957" lon="11.2647787440783"><ele>741.0</ele><time>2026-04-26T08:22:10.997Z</time></trkpt><trkpt lat="45.70455280129895" lon="11.264702127527675"><ele>741.0</ele><time>2026-04-26T08:22:12.997Z</time></trkpt><trkpt lat="45.704606609936526" lon="11.264599726096364"><ele>741.0</ele><time>2026-04-26T08:22:14.997Z</time></trkpt><trkpt lat="45.70464224402252" lon="11.26446539322975"><ele>740.7142857142857</ele><time>2026-04-26T08:22:16.997Z</time></trkpt><trkpt lat="45.70466597167503" lon="11.264369937400897"><ele>740.4285714285714</ele><time>2026-04-26T08:22:17.997Z</time></trkpt><trkpt lat="45.70470810140806" lon="11.264273059545234"><ele>740.1428571428571</ele><time>2026-04-26T08:22:18.997Z</time></trkpt><trkpt lat="45.70475500276944" lon="11.264191053785618"><ele>739.8571428571429</ele><time>2026-04-26T08:22:19.997Z</time></trkpt><trkpt lat="45.704802689767625" lon="11.264112213772325"><ele>739.5714285714287</ele><time>2026-04-26T08:22:20.997Z</time></trkpt><trkpt lat="45.704845761505005" lon="11.264031580696196"><ele>739.2857142857143</ele><time>2026-04-26T08:22:21.997Z</time></trkpt><trkpt lat="45.704885614512165" lon="11.263959655380678"><ele>739.0</ele><time>2026-04-26T08:22:22.997Z</time></trkpt><trkpt lat="45.70496474401001" lon="11.263830354202298"><ele>739.8000000000001</ele><time>2026-04-26T08:22:24.997Z</time></trkpt><trkpt lat="45.705049150108344" lon="11.263705513984133"><ele>740.6</ele><time>2026-04-26T08:22:26.996Z</time></trkpt><trkpt lat="45.70512796749244" lon="11.263620248804438"><ele>741.4</ele><time>2026-04-26T08:22:28.996Z</time></trkpt><trkpt lat="45.70524288157654" lon="11.263498655968974"><ele>742.2</ele><time>2026-04-26T08:22:30.996Z</time></trkpt><trkpt lat="45.70530087128656" lon="11.263419998741917"><ele>743.0</ele><time>2026-04-26T08:22:31.996Z</time></trkpt><trkpt lat="45.70534978736859" lon="11.263336656542199"><ele>743.0</ele><time>2026-04-26T08:22:32.996Z</time></trkpt><trkpt lat="45.70538521564632" lon="11.263198218709025"><ele>743.0</ele><time>2026-04-26T08:22:34.996Z</time></trkpt><trkpt lat="45.70538317999493" lon="11.263080005156887"><ele>743.0</ele><time>2026-04-26T08:22:36.996Z</time></trkpt><trkpt lat="45.70536776853739" lon="11.262946617513391"><ele>743.0</ele><time>2026-04-26T08:22:38.996Z</time></trkpt><trkpt lat="45.70537829962793" lon="11.262843769144459"><ele>743.0</ele><time>2026-04-26T08:22:40.996Z</time></trkpt><trkpt lat="45.705456464579804" lon="11.262760594673216"><ele>743.5</ele><time>2026-04-26T08:22:43.996Z</time></trkpt><trkpt lat="45.70553364963013" lon="11.262671931447096"><ele>744.0</ele><time>2026-04-26T08:22:45.996Z</time></trkpt><trkpt lat="45.70558972768331" lon="11.262620870794708"><ele>744.5</ele><time>2026-04-26T08:22:46.996Z</time></trkpt><trkpt lat="45.70565275944886" lon="11.262557911730013"><ele>745.0</ele><time>2026-04-26T08:22:47.996Z</time></trkpt><trkpt lat="45.70571962259902" lon="11.262496543814953"><ele>745.5</ele><time>2026-04-26T08:22:48.996Z</time></trkpt><trkpt lat="45.7057855229691" lon="11.262434284833038"><ele>746.0</ele><time>2026-04-26T08:22:49.996Z</time></trkpt><trkpt lat="45.705843476650635" lon="11.262394015036131"><ele>746.0</ele><time>2026-04-26T08:22:50.996Z</time></trkpt><trkpt lat="45.70595611931459" lon="11.26236665549481"><ele>746.0</ele><time>2026-04-26T08:22:52.996Z</time></trkpt><trkpt lat="45.70605422527173" lon="11.26234967466721"><ele>746.0</ele><time>2026-04-26T08:22:54.996Z</time></trkpt><trkpt lat="45.70615568978693" lon="11.262328950214663"><ele>746.0</ele><time>2026-04-26T08:22:56.996Z</time></trkpt><trkpt lat="45.706213843625136" lon="11.262254919584871"><ele>746.0</ele><time>2026-04-26T08:22:59.996Z</time></trkpt><trkpt lat="45.70631066199217" lon="11.26221555123868"><ele>745.5999999999999</ele><time>2026-04-26T08:23:01.996Z</time></trkpt><trkpt lat="45.706405329658885" lon="11.262160517487363"><ele>745.2</ele><time>2026-04-26T08:23:03.996Z</time></trkpt><trkpt lat="45.706500785741696" lon="11.262065041031668"><ele>744.8</ele><time>2026-04-26T08:23:05.996Z</time></trkpt><trkpt lat="45.706563775463984" lon="11.262006475436014"><ele>744.4000000000001</ele><time>2026-04-26T08:23:06.996Z</time></trkpt><trkpt lat="45.70662106934595" lon="11.261960381063309"><ele>744.0</ele><time>2026-04-26T08:23:07.996Z</time></trkpt><trkpt lat="45.70671692161843" lon="11.261877381214719"><ele>744.0</ele><time>2026-04-26T08:23:09.996Z</time></trkpt><trkpt lat="45.70682548297009" lon="11.261790175616524"><ele>744.0</ele><time>2026-04-26T08:23:11.996Z</time></trkpt><trkpt lat="45.70693261707101" lon="11.26172364118817"><ele>744.0</ele><time>2026-04-26T08:23:13.996Z</time></trkpt><trkpt lat="45.707027585987255" lon="11.261673832915085"><ele>744.0</ele><time>2026-04-26T08:23:15.996Z</time></trkpt><trkpt lat="45.707111157558856" lon="11.261629868703178"><ele>744.0</ele><time>2026-04-26T08:23:17.995Z</time></trkpt><trkpt lat="45.707199531105665" lon="11.261581458741233"><ele>743.0</ele><time>2026-04-26T08:23:19.995Z</time></trkpt><trkpt lat="45.70728577633738" lon="11.261537664227891"><ele>742.0</ele><time>2026-04-26T08:23:21.995Z</time></trkpt><trkpt lat="45.70737118708186" lon="11.261483574095658"><ele>741.0</ele><time>2026-04-26T08:23:23.995Z</time></trkpt><trkpt lat="45.707458795561216" lon="11.261427480113024"><ele>740.0</ele><time>2026-04-26T08:23:25.995Z</time></trkpt><trkpt lat="45.707557816300245" lon="11.261335125962583"><ele>739.0</ele><time>2026-04-26T08:23:27.995Z</time></trkpt><trkpt lat="45.70765171888179" lon="11.26122323205063"><ele>739.0</ele><time>2026-04-26T08:23:29.995Z</time></trkpt><trkpt lat="45.707705448008184" lon="11.26116240857217"><ele>739.0</ele><time>2026-04-26T08:23:30.995Z</time></trkpt><trkpt lat="45.70779397761455" lon="11.261071437562302"><ele>739.0</ele><time>2026-04-26T08:23:32.995Z</time></trkpt><trkpt lat="45.70787443793692" lon="11.26101125093085"><ele>739.0</ele><time>2026-04-26T08:23:34.995Z</time></trkpt><trkpt lat="45.707967875053924" lon="11.260976522049724"><ele>739.0</ele><time>2026-04-26T08:23:36.995Z</time></trkpt><trkpt lat="45.70809320471085" lon="11.260910536369638"><ele>737.1666666666667</ele><time>2026-04-26T08:23:38.995Z</time></trkpt><trkpt lat="45.70817323934028" lon="11.260855925640023"><ele>735.3333333333334</ele><time>2026-04-26T08:23:39.995Z</time></trkpt><trkpt lat="45.70825428957246" lon="11.260791398105619"><ele>733.5</ele><time>2026-04-26T08:23:40.995Z</time></trkpt><trkpt lat="45.70832841910645" lon="11.260727624913569"><ele>731.6666666666666</ele><time>2026-04-26T08:23:41.995Z</time></trkpt><trkpt lat="45.70839930694729" lon="11.260661786724818"><ele>729.8333333333333</ele><time>2026-04-26T08:23:42.995Z</time></trkpt><trkpt lat="45.70845766803273" lon="11.2606051714778"><ele>728.0</ele><time>2026-04-26T08:23:43.995Z</time></trkpt><trkpt lat="45.708517706112914" lon="11.260553553081134"><ele>727.2</ele><time>2026-04-26T08:23:44.995Z</time></trkpt><trkpt lat="45.70861086550874" lon="11.260463125361285"><ele>726.4</ele><time>2026-04-26T08:23:46.995Z</time></trkpt><trkpt lat="45.70868409175836" lon="11.260349663282215"><ele>725.6</ele><time>2026-04-26T08:23:48.995Z</time></trkpt><trkpt lat="45.70874745536779" lon="11.260204684871166"><ele>724.8000000000001</ele><time>2026-04-26T08:23:50.995Z</time></trkpt><trkpt lat="45.708773212239606" lon="11.260119717915817"><ele>724.0</ele><time>2026-04-26T08:23:51.995Z</time></trkpt><trkpt lat="45.7088064775833" lon="11.259991550242246"><ele>724.0</ele><time>2026-04-26T08:23:53.995Z</time></trkpt><trkpt lat="45.708817142560584" lon="11.259850514613904"><ele>724.0</ele><time>2026-04-26T08:23:55.995Z</time></trkpt><trkpt lat="45.70879438109002" lon="11.259722727132575"><ele>724.0</ele><time>2026-04-26T08:23:57.995Z</time></trkpt><trkpt lat="45.708732560697975" lon="11.259674497604696"><ele>724.0</ele><time>2026-04-26T08:23:59.995Z</time></trkpt><trkpt lat="45.70865143045478" lon="11.259649513960797"><ele>724.0</ele><time>2026-04-26T08:24:01.995Z</time></trkpt><trkpt lat="45.70856407751213" lon="11.259644849687346"><ele>724.0</ele><time>2026-04-26T08:24:03.995Z</time></trkpt><trkpt lat="45.708457757254465" lon="11.259627796287685"><ele>719.6666666666667</ele><time>2026-04-26T08:24:05.995Z</time></trkpt><trkpt lat="45.708387538813966" lon="11.259581735390462"><ele>715.3333333333334</ele><time>2026-04-26T08:24:06.994Z</time></trkpt><trkpt lat="45.708341317272854" lon="11.259511298484892"><ele>711.0</ele><time>2026-04-26T08:24:07.994Z</time></trkpt><trkpt lat="45.70828703513314" lon="11.259387278788415"><ele>706.6666666666666</ele><time>2026-04-26T08:24:09.994Z</time></trkpt><trkpt lat="45.70826302311809" lon="11.259271062354687"><ele>702.3333333333333</ele><time>2026-04-26T08:24:11.994Z</time></trkpt><trkpt lat="45.70829443705149" lon="11.259172482944715"><ele>698.0</ele><time>2026-04-26T08:24:13.994Z</time></trkpt><trkpt lat="45.7083463920801" lon="11.259104961321118"><ele>698.0</ele><time>2026-04-26T08:24:15.994Z</time></trkpt><trkpt lat="45.708424536739116" lon="11.259059400768189"><ele>698.0</ele><time>2026-04-26T08:24:17.994Z</time></trkpt><trkpt lat="45.70853025674118" lon="11.25901647482345"><ele>698.0</ele><time>2026-04-26T08:24:19.994Z</time></trkpt><trkpt lat="45.70864374766787" lon="11.25895411270431"><ele>698.0</ele><time>2026-04-26T08:24:21.994Z</time></trkpt><trkpt lat="45.70871182156706" lon="11.25890655973744"><ele>698.0</ele><time>2026-04-26T08:24:22.994Z</time></trkpt><trkpt lat="45.70876981515262" lon="11.258868844789339"><ele>696.1428571428571</ele><time>2026-04-26T08:24:23.994Z</time></trkpt><trkpt lat="45.70883466861672" lon="11.258828849824837"><ele>694.2857142857142</ele><time>2026-04-26T08:24:24.994Z</time></trkpt><trkpt lat="45.708909758052876" lon="11.258781270391948"><ele>692.4285714285713</ele><time>2026-04-26T08:24:25.994Z</time></trkpt><trkpt lat="45.70897884250149" lon="11.258737535698444"><ele>690.5714285714286</ele><time>2026-04-26T08:24:26.994Z</time></trkpt><trkpt lat="45.70904256197327" lon="11.258694191734136"><ele>688.7142857142858</ele><time>2026-04-26T08:24:27.994Z</time></trkpt><trkpt lat="45.70911387140106" lon="11.258642961659115"><ele>686.8571428571428</ele><time>2026-04-26T08:24:28.994Z</time></trkpt><trkpt lat="45.70918077284105" lon="11.258609584965855"><ele>685.0</ele><time>2026-04-26T08:24:29.994Z</time></trkpt><trkpt lat="45.709248535391346" lon="11.258556939297442"><ele>685.0</ele><time>2026-04-26T08:24:30.994Z</time></trkpt><trkpt lat="45.709300881659566" lon="11.258461155240953"><ele>685.0</ele><time>2026-04-26T08:24:31.994Z</time></trkpt><trkpt lat="45.709353929292945" lon="11.258335428298832"><ele>685.0</ele><time>2026-04-26T08:24:32.994Z</time></trkpt><trkpt lat="45.70939816466168" lon="11.258183466256991"><ele>685.0</ele><time>2026-04-26T08:24:33.994Z</time></trkpt><trkpt lat="45.70942859888147" lon="11.258029516442791"><ele>685.0</ele><time>2026-04-26T08:24:34.994Z</time></trkpt><trkpt lat="45.70944613670419" lon="11.257876824363173"><ele>683.4</ele><time>2026-04-26T08:24:35.994Z</time></trkpt><trkpt lat="45.70943867170019" lon="11.257733911907495"><ele>681.8</ele><time>2026-04-26T08:24:36.994Z</time></trkpt><trkpt lat="45.70939851312126" lon="11.257609161340238"><ele>680.2</ele><time>2026-04-26T08:24:37.994Z</time></trkpt><trkpt lat="45.70934077836426" lon="11.257507244518305"><ele>678.6</ele><time>2026-04-26T08:24:38.994Z</time></trkpt><trkpt lat="45.70927159544198" lon="11.257396249587794"><ele>677.0</ele><time>2026-04-26T08:24:39.994Z</time></trkpt><trkpt lat="45.709199447566256" lon="11.257283493952052"><ele>674.8</ele><time>2026-04-26T08:24:40.994Z</time></trkpt><trkpt lat="45.70913463372707" lon="11.257180299322993"><ele>672.6</ele><time>2026-04-26T08:24:41.994Z</time></trkpt><trkpt lat="45.709061585953144" lon="11.25709808954087"><ele>670.4</ele><time>2026-04-26T08:24:42.994Z</time></trkpt><trkpt lat="45.708985251888144" lon="11.257018909179159"><ele>668.1999999999999</ele><time>2026-04-26T08:24:43.994Z</time></trkpt><trkpt lat="45.70890881000552" lon="11.256953162807344"><ele>666.0</ele><time>2026-04-26T08:24:44.994Z</time></trkpt><trkpt lat="45.70882631596242" lon="11.256907551682124"><ele>666.0</ele><time>2026-04-26T08:24:45.994Z</time></trkpt><trkpt lat="45.70875253224707" lon="11.256861981441348"><ele>666.0</ele><time>2026-04-26T08:24:46.994Z</time></trkpt><trkpt lat="45.708683624332984" lon="11.256822969604693"><ele>666.0</ele><time>2026-04-26T08:24:47.994Z</time></trkpt><trkpt lat="45.708621859717304" lon="11.256795653683199"><ele>666.0</ele><time>2026-04-26T08:24:48.994Z</time></trkpt><trkpt lat="45.70852344972387" lon="11.256714506061872"><ele>666.0</ele><time>2026-04-26T08:24:50.994Z</time></trkpt><trkpt lat="45.708472087898265" lon="11.256659122774014"><ele>666.0</ele><time>2026-04-26T08:24:51.994Z</time></trkpt><trkpt lat="45.70842280275668" lon="11.256594884633977"><ele>664.0</ele><time>2026-04-26T08:24:52.994Z</time></trkpt><trkpt lat="45.70837590919978" lon="11.256533568489372"><ele>662.0</ele><time>2026-04-26T08:24:53.994Z</time></trkpt><trkpt lat="45.708321944190416" lon="11.2563983236877"><ele>660.0</ele><time>2026-04-26T08:24:55.994Z</time></trkpt><trkpt lat="45.708321255165714" lon="11.25624722274922"><ele>658.0</ele><time>2026-04-26T08:24:57.993Z</time></trkpt><trkpt lat="45.70838278466022" lon="11.256083663723915"><ele>656.0</ele><time>2026-04-26T08:24:59.993Z</time></trkpt><trkpt lat="45.70841498870333" lon="11.256001483547447"><ele>655.6666666666666</ele><time>2026-04-26T08:25:00.993Z</time></trkpt><trkpt lat="45.7084435681792" lon="11.255918928870468"><ele>655.3333333333333</ele><time>2026-04-26T08:25:01.993Z</time></trkpt><trkpt lat="45.70849508167059" lon="11.255773771246586"><ele>655.0</ele><time>2026-04-26T08:25:03.993Z</time></trkpt><trkpt lat="45.70855695670952" lon="11.255656685624185"><ele>654.6666666666666</ele><time>2026-04-26T08:25:05.993Z</time></trkpt><trkpt lat="45.70860502771116" lon="11.255567707353833"><ele>654.3333333333334</ele><time>2026-04-26T08:25:07.993Z</time></trkpt><trkpt lat="45.708665026973705" lon="11.255507239045018"><ele>654.0</ele><time>2026-04-26T08:25:09.993Z</time></trkpt><trkpt lat="45.70871996678857" lon="11.255457216923313"><ele>654.0</ele><time>2026-04-26T08:25:11.993Z</time></trkpt><trkpt lat="45.708812700415486" lon="11.255340149027331"><ele>654.0</ele><time>2026-04-26T08:26:13.992Z</time></trkpt><trkpt lat="45.70891581486253" lon="11.255215167274809"><ele>654.0</ele><time>2026-04-26T08:26:15.994Z</time></trkpt><trkpt lat="45.70897622971208" lon="11.255166781793982"><ele>654.0</ele><time>2026-04-26T08:26:16.994Z</time></trkpt><trkpt lat="45.70902934178947" lon="11.255114936052145"><ele>654.0</ele><time>2026-04-26T08:26:17.994Z</time></trkpt><trkpt lat="45.70912099103978" lon="11.255029739967643"><ele>654.0</ele><time>2026-04-26T08:26:19.995Z</time></trkpt><trkpt lat="45.70920722274811" lon="11.254942155020712"><ele>654.0</ele><time>2026-04-26T08:26:21.995Z</time></trkpt><trkpt lat="45.7092751173865" lon="11.254833490632587"><ele>654.0</ele><time>2026-04-26T08:26:23.996Z</time></trkpt><trkpt lat="45.70932050169267" lon="11.254697707490159"><ele>654.0</ele><time>2026-04-26T08:26:25.996Z</time></trkpt><trkpt lat="45.70936419545305" lon="11.254549060479158"><ele>654.0</ele><time>2026-04-26T08:26:27.997Z</time></trkpt><trkpt lat="45.709414643786374" lon="11.254403621430628"><ele>653.8571428571429</ele><time>2026-04-26T08:26:29.997Z</time></trkpt><trkpt lat="45.709467511709576" lon="11.254330278787897"><ele>653.7142857142858</ele><time>2026-04-26T08:26:30.997Z</time></trkpt><trkpt lat="45.7095277944919" lon="11.254272069352274"><ele>653.5714285714287</ele><time>2026-04-26T08:26:31.997Z</time></trkpt><trkpt lat="45.709586303619595" lon="11.254218022768443"><ele>653.4285714285714</ele><time>2026-04-26T08:26:32.998Z</time></trkpt><trkpt lat="45.7096443705982" lon="11.254155649910862"><ele>653.2857142857143</ele><time>2026-04-26T08:26:33.998Z</time></trkpt><trkpt lat="45.70970598542592" lon="11.254086016033208"><ele>653.1428571428572</ele><time>2026-04-26T08:26:34.998Z</time></trkpt><trkpt lat="45.70976015960772" lon="11.254000255239324"><ele>653.0</ele><time>2026-04-26T08:26:35.998Z</time></trkpt><trkpt lat="45.70981049165353" lon="11.253884305650123"><ele>653.0</ele><time>2026-04-26T08:26:36.998Z</time></trkpt><trkpt lat="45.70985408029813" lon="11.253763694387661"><ele>653.0</ele><time>2026-04-26T08:26:37.998Z</time></trkpt><trkpt lat="45.70989779718839" lon="11.253631194162892"><ele>653.0</ele><time>2026-04-26T08:26:38.998Z</time></trkpt><trkpt lat="45.70994048102103" lon="11.253500735842177"><ele>653.0</ele><time>2026-04-26T08:26:39.998Z</time></trkpt><trkpt lat="45.709982867070096" lon="11.253375833151516"><ele>653.0</ele><time>2026-04-26T08:26:40.998Z</time></trkpt><trkpt lat="45.71002346270785" lon="11.253255093040849"><ele>653.0</ele><time>2026-04-26T08:26:41.999Z</time></trkpt><trkpt lat="45.71007313306253" lon="11.253142075296832"><ele>653.0</ele><time>2026-04-26T08:26:42.999Z</time></trkpt><trkpt lat="45.710123318518725" lon="11.253038427367368"><ele>653.0</ele><time>2026-04-26T08:26:43.999Z</time></trkpt><trkpt lat="45.710181443581355" lon="11.252954153795134"><ele>653.0</ele><time>2026-04-26T08:26:44.999Z</time></trkpt><trkpt lat="45.710251851163996" lon="11.252889120367854"><ele>653.0</ele><time>2026-04-26T08:26:45.999Z</time></trkpt><trkpt lat="45.710329534988325" lon="11.252848104837243"><ele>653.0</ele><time>2026-04-26T08:26:46.999Z</time></trkpt><trkpt lat="45.71040610817621" lon="11.252827409886704"><ele>654.4285714285714</ele><time>2026-04-26T08:26:47.999Z</time></trkpt><trkpt lat="45.71048078770417" lon="11.252813164433553"><ele>655.8571428571429</ele><time>2026-04-26T08:26:48.999Z</time></trkpt><trkpt lat="45.71056210306263" lon="11.252810132654366"><ele>657.2857142857142</ele><time>2026-04-26T08:26:49.999Z</time></trkpt><trkpt lat="45.71064211757599" lon="11.252800403223459"><ele>658.7142857142858</ele><time>2026-04-26T08:26:50.999Z</time></trkpt><trkpt lat="45.71071284786967" lon="11.252772548192304"><ele>660.1428571428571</ele><time>2026-04-26T08:26:51.999Z</time></trkpt><trkpt lat="45.710771748705675" lon="11.25271986062555"><ele>661.5714285714286</ele><time>2026-04-26T08:26:52.999Z</time></trkpt><trkpt lat="45.710817386896544" lon="11.25264771533677"><ele>663.0</ele><time>2026-04-26T08:26:53.999Z</time></trkpt><trkpt lat="45.710852092811265" lon="11.25255952255601"><ele>663.0</ele><time>2026-04-26T08:26:54.999Z</time></trkpt><trkpt lat="45.7108840740978" lon="11.252456138282247"><ele>663.0</ele><time>2026-04-26T08:26:55.999Z</time></trkpt><trkpt lat="45.71091496098245" lon="11.252345734579228"><ele>663.0</ele><time>2026-04-26T08:26:56.999Z</time></trkpt><trkpt lat="45.71094928703255" lon="11.25224020385215"><ele>663.0</ele><time>2026-04-26T08:26:57.999Z</time></trkpt><trkpt lat="45.710992714885315" lon="11.252146952889495"><ele>663.0</ele><time>2026-04-26T08:26:58.999Z</time></trkpt><trkpt lat="45.711050067579734" lon="11.252068826634403"><ele>663.0</ele><time>2026-04-26T08:26:59.999Z</time></trkpt><trkpt lat="45.71111653201434" lon="11.252012396961526"><ele>663.6666666666666</ele><time>2026-04-26T08:27:00.999Z</time></trkpt><trkpt lat="45.71118425382628" lon="11.251972564996647"><ele>664.3333333333334</ele><time>2026-04-26T08:27:01.999Z</time></trkpt><trkpt lat="45.71124659224544" lon="11.251943173059374"><ele>665.0</ele><time>2026-04-26T08:27:02.999Z</time></trkpt><trkpt lat="45.71136296180761" lon="11.251890582555255"><ele>665.6666666666667</ele><time>2026-04-26T08:27:04.999Z</time></trkpt><trkpt lat="45.71142280545316" lon="11.251851282285"><ele>666.3333333333334</ele><time>2026-04-26T08:27:05.999Z</time></trkpt><trkpt lat="45.7114758603118" lon="11.251796410046477"><ele>667.0</ele><time>2026-04-26T08:27:06.999Z</time></trkpt><trkpt lat="45.711520769364455" lon="11.251727363083443"><ele>667.0</ele><time>2026-04-26T08:27:07.999Z</time></trkpt><trkpt lat="45.71155922982636" lon="11.251648985593471"><ele>667.0</ele><time>2026-04-26T08:27:08.999Z</time></trkpt><trkpt lat="45.7115843452605" lon="11.251564986625915"><ele>667.0</ele><time>2026-04-26T08:27:09.999Z</time></trkpt><trkpt lat="45.71161117488297" lon="11.25148251101682"><ele>667.0</ele><time>2026-04-26T08:27:10.999Z</time></trkpt><trkpt lat="45.71166053590915" lon="11.251328257397176"><ele>667.0</ele><time>2026-04-26T08:27:12.999Z</time></trkpt><trkpt lat="45.71169504870137" lon="11.251177686099405"><ele>667.0</ele><time>2026-04-26T08:27:14.999Z</time></trkpt><trkpt lat="45.711712288811384" lon="11.251044199084163"><ele>665.3333333333334</ele><time>2026-04-26T08:27:16.999Z</time></trkpt><trkpt lat="45.71170819252172" lon="11.25093181335068"><ele>663.6666666666667</ele><time>2026-04-26T08:27:18.999Z</time></trkpt><trkpt lat="45.71169308922819" lon="11.250822864941814"><ele>662.0</ele><time>2026-04-26T08:27:20.999Z</time></trkpt><trkpt lat="45.71167497304895" lon="11.250716738484913"><ele>660.3333333333334</ele><time>2026-04-26T08:27:22.999Z</time></trkpt><trkpt lat="45.711646877394855" lon="11.250622220890216"><ele>658.6666666666666</ele><time>2026-04-26T08:27:24.999Z</time></trkpt><trkpt lat="45.71162494638253" lon="11.25051760164545"><ele>657.0</ele><time>2026-04-26T08:27:26.999Z</time></trkpt><trkpt lat="45.71162247706285" lon="11.250416182766022"><ele>656.4000000000001</ele><time>2026-04-26T08:27:28.999Z</time></trkpt><trkpt lat="45.71163607529811" lon="11.25026690293356"><ele>655.8000000000001</ele><time>2026-04-26T08:27:30.999Z</time></trkpt><trkpt lat="45.71167153156226" lon="11.250113894118952"><ele>655.2</ele><time>2026-04-26T08:27:32.999Z</time></trkpt><trkpt lat="45.71170932582604" lon="11.249973900324596"><ele>654.6</ele><time>2026-04-26T08:27:34.999Z</time></trkpt><trkpt lat="45.711743070176766" lon="11.24983247059714"><ele>654.0</ele><time>2026-04-26T08:27:36.999Z</time></trkpt><trkpt lat="45.71177705801138" lon="11.249682081629619"><ele>653.3333333333334</ele><time>2026-04-26T08:27:38.999Z</time></trkpt><trkpt lat="45.71180930635481" lon="11.249533299268235"><ele>652.6666666666666</ele><time>2026-04-26T08:27:40.999Z</time></trkpt><trkpt lat="45.711859162536214" lon="11.249380036836598"><ele>652.0</ele><time>2026-04-26T08:27:42.999Z</time></trkpt><trkpt lat="45.71188158445896" lon="11.249279651959272"><ele>651.3333333333333</ele><time>2026-04-26T08:27:43.999Z</time></trkpt><trkpt lat="45.71190595333907" lon="11.2491850375972"><ele>650.6666666666666</ele><time>2026-04-26T08:27:44.999Z</time></trkpt><trkpt lat="45.7119278280785" lon="11.249099627666617"><ele>650.0</ele><time>2026-04-26T08:27:45.999Z</time></trkpt><trkpt lat="45.711950056031014" lon="11.24901367330562"><ele>654.0</ele><time>2026-04-26T08:27:46.999Z</time></trkpt><trkpt lat="45.71197723884421" lon="11.248916616618233"><ele>658.0</ele><time>2026-04-26T08:27:47.999Z</time></trkpt><trkpt lat="45.71201475721066" lon="11.248806932453348"><ele>662.0</ele><time>2026-04-26T08:27:48.999Z</time></trkpt><trkpt lat="45.712058417484165" lon="11.24868121359137"><ele>666.0</ele><time>2026-04-26T08:27:49.999Z</time></trkpt><trkpt lat="45.71212152089667" lon="11.24855977859603"><ele>670.0</ele><time>2026-04-26T08:27:50.999Z</time></trkpt><trkpt lat="45.71219170279639" lon="11.248438827771704"><ele>670.0</ele><time>2026-04-26T08:27:51.999Z</time></trkpt><trkpt lat="45.71224851503723" lon="11.24830946219325"><ele>670.0</ele><time>2026-04-26T08:27:52.999Z</time></trkpt><trkpt lat="45.7122931974486" lon="11.248168435455707"><ele>670.0</ele><time>2026-04-26T08:27:53.999Z</time></trkpt><trkpt lat="45.71232323739968" lon="11.248013811223627"><ele>670.0</ele><time>2026-04-26T08:27:54.999Z</time></trkpt><trkpt lat="45.712337680825016" lon="11.247855085654141"><ele>670.0</ele><time>2026-04-26T08:27:55.999Z</time></trkpt><trkpt lat="45.71234235631402" lon="11.247699927206407"><ele>669.8</ele><time>2026-04-26T08:27:56.999Z</time></trkpt><trkpt lat="45.71234774991351" lon="11.247551571059208"><ele>669.6</ele><time>2026-04-26T08:27:57.999Z</time></trkpt><trkpt lat="45.712355024544195" lon="11.247412159134615"><ele>669.4000000000001</ele><time>2026-04-26T08:27:58.999Z</time></trkpt><trkpt lat="45.712363437890055" lon="11.247281189779454"><ele>669.2</ele><time>2026-04-26T08:27:59.999Z</time></trkpt><trkpt lat="45.71236449066897" lon="11.247155273547989"><ele>669.0</ele><time>2026-04-26T08:28:00.999Z</time></trkpt><trkpt lat="45.712351502168495" lon="11.247035572101865"><ele>671.0</ele><time>2026-04-26T08:28:01.999Z</time></trkpt><trkpt lat="45.71232206620974" lon="11.246913079225275"><ele>673.0</ele><time>2026-04-26T08:28:02.999Z</time></trkpt><trkpt lat="45.71228256633999" lon="11.246784457056423"><ele>675.0</ele><time>2026-04-26T08:28:03.999Z</time></trkpt><trkpt lat="45.71221992443948" lon="11.246671122618611"><ele>677.0</ele><time>2026-04-26T08:28:04.999Z</time></trkpt><trkpt lat="45.71213884523608" lon="11.246578312534679"><ele>679.0</ele><time>2026-04-26T08:28:05.999Z</time></trkpt><trkpt lat="45.71204457455883" lon="11.246508805052594"><ele>679.0</ele><time>2026-04-26T08:28:06.999Z</time></trkpt><trkpt lat="45.71193954183605" lon="11.246464778946278"><ele>679.0</ele><time>2026-04-26T08:28:07.999Z</time></trkpt><trkpt lat="45.711835645957436" lon="11.246426451819115"><ele>679.0</ele><time>2026-04-26T08:28:08.999Z</time></trkpt><trkpt lat="45.71173676277819" lon="11.246391824619593"><ele>679.0</ele><time>2026-04-26T08:28:09.999Z</time></trkpt><trkpt lat="45.71164370495166" lon="11.246350100689483"><ele>679.0</ele><time>2026-04-26T08:28:10.999Z</time></trkpt><trkpt lat="45.71155905240459" lon="11.246301255192252"><ele>677.6</ele><time>2026-04-26T08:28:11.999Z</time></trkpt><trkpt lat="45.71147728302998" lon="11.246238221784406"><ele>676.2</ele><time>2026-04-26T08:28:12.999Z</time></trkpt><trkpt lat="45.71140228841494" lon="11.246150438235448"><ele>674.8000000000001</ele><time>2026-04-26T08:28:13.999Z</time></trkpt><trkpt lat="45.711324686694205" lon="11.24606515970317"><ele>673.4000000000001</ele><time>2026-04-26T08:28:14.999Z</time></trkpt><trkpt lat="45.71124867034658" lon="11.245981625563848"><ele>672.0</ele><time>2026-04-26T08:28:15.999Z</time></trkpt><trkpt lat="45.711166590636985" lon="11.24590316812309"><ele>672.0</ele><time>2026-04-26T08:28:16.999Z</time></trkpt><trkpt lat="45.71108171654091" lon="11.245827950814204"><ele>672.0</ele><time>2026-04-26T08:28:17.999Z</time></trkpt><trkpt lat="45.71099683592733" lon="11.245751045466674"><ele>672.0</ele><time>2026-04-26T08:28:18.999Z</time></trkpt><trkpt lat="45.71091369459926" lon="11.245675989515137"><ele>672.0</ele><time>2026-04-26T08:28:19.999Z</time></trkpt><trkpt lat="45.71083229953042" lon="11.245599490400847"><ele>672.0</ele><time>2026-04-26T08:28:20.998Z</time></trkpt><trkpt lat="45.710754048165285" lon="11.245518234288399"><ele>670.2</ele><time>2026-04-26T08:28:21.998Z</time></trkpt><trkpt lat="45.71068647110704" lon="11.24542185063074"><ele>668.4000000000001</ele><time>2026-04-26T08:28:22.998Z</time></trkpt><trkpt lat="45.710633719756636" lon="11.24531171073651"><ele>666.5999999999999</ele><time>2026-04-26T08:28:23.998Z</time></trkpt><trkpt lat="45.71059633289021" lon="11.245189693657368"><ele>664.8</ele><time>2026-04-26T08:28:24.998Z</time></trkpt><trkpt lat="45.71059051734277" lon="11.245056998690815"><ele>663.0</ele><time>2026-04-26T08:28:25.998Z</time></trkpt><trkpt lat="45.710606185551455" lon="11.244919486805308"><ele>662.0</ele><time>2026-04-26T08:28:26.998Z</time></trkpt><trkpt lat="45.71064030877058" lon="11.244792763113827"><ele>661.0</ele><time>2026-04-26T08:28:27.998Z</time></trkpt><trkpt lat="45.710686265479715" lon="11.244678584528758"><ele>660.0</ele><time>2026-04-26T08:28:28.998Z</time></trkpt><trkpt lat="45.7107359034327" lon="11.244573891920695"><ele>659.0</ele><time>2026-04-26T08:28:29.998Z</time></trkpt><trkpt lat="45.710785457871054" lon="11.244473387730723"><ele>658.0</ele><time>2026-04-26T08:28:30.998Z</time></trkpt><trkpt lat="45.71082839141224" lon="11.244371787876917"><ele>657.0</ele><time>2026-04-26T08:28:31.998Z</time></trkpt><trkpt lat="45.710859434717406" lon="11.244263291707911"><ele>657.0</ele><time>2026-04-26T08:28:32.998Z</time></trkpt><trkpt lat="45.710868585678874" lon="11.24415453773815"><ele>657.0</ele><time>2026-04-26T08:28:33.998Z</time></trkpt><trkpt lat="45.710847758308795" lon="11.244058018317554"><ele>657.0</ele><time>2026-04-26T08:28:34.998Z</time></trkpt><trkpt lat="45.71077491729118" lon="11.243928418911176"><ele>657.0</ele><time>2026-04-26T08:28:36.998Z</time></trkpt><trkpt lat="45.71071742743085" lon="11.24381109795231"><ele>657.0</ele><time>2026-04-26T08:28:38.998Z</time></trkpt><trkpt lat="45.71067694586857" lon="11.243687316577581"><ele>658.2</ele><time>2026-04-26T08:28:40.998Z</time></trkpt><trkpt lat="45.710670013374546" lon="11.243556675142882"><ele>659.4000000000001</ele><time>2026-04-26T08:28:42.998Z</time></trkpt><trkpt lat="45.710730180950655" lon="11.243445278369311"><ele>660.5999999999999</ele><time>2026-04-26T08:28:44.998Z</time></trkpt><trkpt lat="45.71073134271843" lon="11.243290337708752"><ele>661.8</ele><time>2026-04-26T08:28:46.998Z</time></trkpt><trkpt lat="45.71068944259372" lon="11.243135736750775"><ele>663.0</ele><time>2026-04-26T08:28:48.998Z</time></trkpt><trkpt lat="45.71064534391926" lon="11.243015884520057"><ele>664.3333333333334</ele><time>2026-04-26T08:28:50.998Z</time></trkpt><trkpt lat="45.71059180193657" lon="11.242894262453474"><ele>665.6666666666666</ele><time>2026-04-26T08:28:52.998Z</time></trkpt><trkpt lat="45.71054448009653" lon="11.242797956613527"><ele>667.0</ele><time>2026-04-26T08:28:54.998Z</time></trkpt><trkpt lat="45.71052817079161" lon="11.242710670921154"><ele>668.3333333333333</ele><time>2026-04-26T08:28:56.998Z</time></trkpt><trkpt lat="45.71053042555765" lon="11.242592268859767"><ele>669.6666666666666</ele><time>2026-04-26T08:28:58.998Z</time></trkpt><trkpt lat="45.710593749629474" lon="11.242450227938798"><ele>671.0</ele><time>2026-04-26T08:29:00.998Z</time></trkpt><trkpt lat="45.71061557114531" lon="11.24233771459418"><ele>669.1999999999999</ele><time>2026-04-26T08:29:01.998Z</time></trkpt><trkpt lat="45.71066057931137" lon="11.242236796351968"><ele>667.4</ele><time>2026-04-26T08:29:02.998Z</time></trkpt><trkpt lat="45.7107159485322" lon="11.242131067666625"><ele>665.6</ele><time>2026-04-26T08:29:03.998Z</time></trkpt><trkpt lat="45.710779589069126" lon="11.242018180607536"><ele>663.8</ele><time>2026-04-26T08:29:04.998Z</time></trkpt><trkpt lat="45.710853755913526" lon="11.241909307757572"><ele>662.0</ele><time>2026-04-26T08:29:05.998Z</time></trkpt><trkpt lat="45.71093669022659" lon="11.241816745165275"><ele>662.0</ele><time>2026-04-26T08:29:06.998Z</time></trkpt><trkpt lat="45.71101087020679" lon="11.241722591524764"><ele>662.0</ele><time>2026-04-26T08:29:07.998Z</time></trkpt><trkpt lat="45.71106500726741" lon="11.241624083246343"><ele>662.0</ele><time>2026-04-26T08:29:08.998Z</time></trkpt><trkpt lat="45.71109680234748" lon="11.241507262005875"><ele>662.0</ele><time>2026-04-26T08:29:09.998Z</time></trkpt><trkpt lat="45.71111912780578" lon="11.241374779689487"><ele>662.0</ele><time>2026-04-26T08:29:10.998Z</time></trkpt><trkpt lat="45.71113614869138" lon="11.241233902161648"><ele>662.4000000000001</ele><time>2026-04-26T08:29:11.998Z</time></trkpt><trkpt lat="45.71114550846756" lon="11.241084318819501"><ele>662.8000000000001</ele><time>2026-04-26T08:29:12.998Z</time></trkpt><trkpt lat="45.71112923022761" lon="11.240933601564135"><ele>663.2</ele><time>2026-04-26T08:29:13.998Z</time></trkpt><trkpt lat="45.71109212844769" lon="11.24079443551457"><ele>663.6</ele><time>2026-04-26T08:29:14.998Z</time></trkpt><trkpt lat="45.71103358082033" lon="11.240663863455012"><ele>664.0</ele><time>2026-04-26T08:29:15.998Z</time></trkpt><trkpt lat="45.71096604821622" lon="11.240547224947104"><ele>664.0</ele><time>2026-04-26T08:29:16.998Z</time></trkpt><trkpt lat="45.71088669501295" lon="11.24045635787539"><ele>664.0</ele><time>2026-04-26T08:29:17.998Z</time></trkpt><trkpt lat="45.71080816744818" lon="11.24037315141527"><ele>664.0</ele><time>2026-04-26T08:29:18.998Z</time></trkpt><trkpt lat="45.710734141312976" lon="11.240290378316104"><ele>664.0</ele><time>2026-04-26T08:29:19.998Z</time></trkpt><trkpt lat="45.71067345360603" lon="11.240204793258453"><ele>664.0</ele><time>2026-04-26T08:29:20.998Z</time></trkpt><trkpt lat="45.71063048504794" lon="11.240107934372537"><ele>664.0</ele><time>2026-04-26T08:29:21.998Z</time></trkpt><trkpt lat="45.71060966591841" lon="11.240005823128962"><ele>664.0</ele><time>2026-04-26T08:29:22.998Z</time></trkpt><trkpt lat="45.71060270180384" lon="11.23990310447934"><ele>664.0</ele><time>2026-04-26T08:29:23.998Z</time></trkpt><trkpt lat="45.71061845268635" lon="11.239798793781398"><ele>664.0</ele><time>2026-04-26T08:29:24.998Z</time></trkpt><trkpt lat="45.710653014895406" lon="11.239689429058345"><ele>664.0</ele><time>2026-04-26T08:29:25.998Z</time></trkpt><trkpt lat="45.710695929235904" lon="11.239572446592774"><ele>664.0</ele><time>2026-04-26T08:29:26.998Z</time></trkpt><trkpt lat="45.710740611589294" lon="11.239456825575186"><ele>662.1666666666667</ele><time>2026-04-26T08:29:27.998Z</time></trkpt><trkpt lat="45.71078464093989" lon="11.239341575178635"><ele>660.3333333333334</ele><time>2026-04-26T08:29:28.998Z</time></trkpt><trkpt lat="45.71082551755978" lon="11.239225768371053"><ele>658.5</ele><time>2026-04-26T08:29:29.998Z</time></trkpt><trkpt lat="45.71086479328688" lon="11.239115350813579"><ele>656.6666666666666</ele><time>2026-04-26T08:29:30.998Z</time></trkpt><trkpt lat="45.71090429791098" lon="11.23901273900246"><ele>654.8333333333333</ele><time>2026-04-26T08:29:31.997Z</time></trkpt><trkpt lat="45.71094762099452" lon="11.23891406666916"><ele>653.0</ele><time>2026-04-26T08:29:32.997Z</time></trkpt><trkpt lat="45.7110067641352" lon="11.238834168314083"><ele>647.8</ele><time>2026-04-26T08:29:33.997Z</time></trkpt><trkpt lat="45.711084692548134" lon="11.23877587665844"><ele>642.5999999999999</ele><time>2026-04-26T08:29:34.997Z</time></trkpt><trkpt lat="45.711175925469085" lon="11.23874086458209"><ele>637.4000000000001</ele><time>2026-04-26T08:29:35.997Z</time></trkpt><trkpt lat="45.711266650032485" lon="11.238703859390627"><ele>632.2</ele><time>2026-04-26T08:29:36.997Z</time></trkpt><trkpt lat="45.71136277239302" lon="11.238675026025376"><ele>627.0</ele><time>2026-04-26T08:29:37.997Z</time></trkpt><trkpt lat="45.71146119386336" lon="11.238671940027977"><ele>627.0</ele><time>2026-04-26T08:29:38.997Z</time></trkpt><trkpt lat="45.711544804981514" lon="11.238659930269323"><ele>627.0</ele><time>2026-04-26T08:29:39.997Z</time></trkpt><trkpt lat="45.711613068304004" lon="11.238678536181258"><ele>627.0</ele><time>2026-04-26T08:29:40.997Z</time></trkpt><trkpt lat="45.7116750254554" lon="11.238730017435842"><ele>627.0</ele><time>2026-04-26T08:29:41.997Z</time></trkpt><trkpt lat="45.711740570806406" lon="11.238771412828374"><ele>627.0</ele><time>2026-04-26T08:29:42.997Z</time></trkpt><trkpt lat="45.71179806008567" lon="11.238820840956546"><ele>627.0</ele><time>2026-04-26T08:29:43.997Z</time></trkpt><trkpt lat="45.711848536669514" lon="11.238885182044733"><ele>627.0</ele><time>2026-04-26T08:29:44.997Z</time></trkpt><trkpt lat="45.7119414485358" lon="11.238976338408172"><ele>626.0</ele><time>2026-04-26T08:29:46.997Z</time></trkpt><trkpt lat="45.711999031843185" lon="11.239062966602084"><ele>625.0</ele><time>2026-04-26T08:29:49.997Z</time></trkpt><trkpt lat="45.712092471171054" lon="11.23908303510938"><ele>624.0</ele><time>2026-04-26T08:29:52.997Z</time></trkpt><trkpt lat="45.71219898625253" lon="11.23904977277642"><ele>623.0</ele><time>2026-04-26T08:29:54.997Z</time></trkpt><trkpt lat="45.71230614745201" lon="11.239006920222876"><ele>622.0</ele><time>2026-04-26T08:29:56.997Z</time></trkpt><trkpt lat="45.712427324393715" lon="11.238957790793135"><ele>622.0</ele><time>2026-04-26T08:29:58.997Z</time></trkpt><trkpt lat="45.712521777591796" lon="11.238882570067165"><ele>622.0</ele><time>2026-04-26T08:30:00.997Z</time></trkpt><trkpt lat="45.712585582212085" lon="11.238836636286418"><ele>622.0</ele><time>2026-04-26T08:30:02.997Z</time></trkpt><trkpt lat="45.7126670004281" lon="11.238859399366742"><ele>622.0</ele><time>2026-04-26T08:30:04.997Z</time></trkpt><trkpt lat="45.71274261827211" lon="11.238915717032459"><ele>622.0</ele><time>2026-04-26T08:30:06.997Z</time></trkpt><trkpt lat="45.712785531679856" lon="11.238996076432496"><ele>622.0</ele><time>2026-04-26T08:30:08.997Z</time></trkpt><trkpt lat="45.712817372584354" lon="11.239100799679605"><ele>627.6</ele><time>2026-04-26T08:30:10.997Z</time></trkpt><trkpt lat="45.71282382087457" lon="11.239248535976028"><ele>633.2</ele><time>2026-04-26T08:30:12.997Z</time></trkpt><trkpt lat="45.71287357940987" lon="11.239393496642325"><ele>638.8</ele><time>2026-04-26T08:30:14.997Z</time></trkpt><trkpt lat="45.712967510262956" lon="11.239514651011147"><ele>644.4</ele><time>2026-04-26T08:30:16.997Z</time></trkpt><trkpt lat="45.713029469102345" lon="11.239585425145393"><ele>650.0</ele><time>2026-04-26T08:30:17.997Z</time></trkpt><trkpt lat="45.71310097154978" lon="11.239659075780938"><ele>650.0</ele><time>2026-04-26T08:30:18.997Z</time></trkpt><trkpt lat="45.71318078384812" lon="11.239678654697682"><ele>650.0</ele><time>2026-04-26T08:30:19.997Z</time></trkpt><trkpt lat="45.71327602390832" lon="11.239687486340124"><ele>650.0</ele><time>2026-04-26T08:30:20.997Z</time></trkpt><trkpt lat="45.713368759064494" lon="11.239638227099013"><ele>650.0</ele><time>2026-04-26T08:30:21.997Z</time></trkpt><trkpt lat="45.71346865865498" lon="11.239590144610833"><ele>650.0</ele><time>2026-04-26T08:30:22.997Z</time></trkpt><trkpt lat="45.713555094677375" lon="11.239501553788626"><ele>655.8</ele><time>2026-04-26T08:30:23.997Z</time></trkpt><trkpt lat="45.713648761510505" lon="11.239416509305789"><ele>661.6</ele><time>2026-04-26T08:30:24.997Z</time></trkpt><trkpt lat="45.71374186150144" lon="11.239362835609267"><ele>667.4000000000001</ele><time>2026-04-26T08:30:25.997Z</time></trkpt><trkpt lat="45.71383425874777" lon="11.239311956530777"><ele>673.2</ele><time>2026-04-26T08:30:26.997Z</time></trkpt><trkpt lat="45.7139381560358" lon="11.23926121434525"><ele>679.0</ele><time>2026-04-26T08:30:27.997Z</time></trkpt><trkpt lat="45.71404541326235" lon="11.239204247321222"><ele>679.0</ele><time>2026-04-26T08:30:28.997Z</time></trkpt><trkpt lat="45.71413955388108" lon="11.239145155477333"><ele>679.0</ele><time>2026-04-26T08:30:29.997Z</time></trkpt><trkpt lat="45.714207906586864" lon="11.23907466680755"><ele>679.0</ele><time>2026-04-26T08:30:30.997Z</time></trkpt><trkpt lat="45.714259675602285" lon="11.238985464708934"><ele>679.0</ele><time>2026-04-26T08:30:31.997Z</time></trkpt><trkpt lat="45.714318820318226" lon="11.238914869492362"><ele>679.0</ele><time>2026-04-26T08:30:32.997Z</time></trkpt><trkpt lat="45.71437561933203" lon="11.238852624477127"><ele>679.0</ele><time>2026-04-26T08:30:33.997Z</time></trkpt><trkpt lat="45.714433193272086" lon="11.238791117718813"><ele>680.2</ele><time>2026-04-26T08:30:34.997Z</time></trkpt><trkpt lat="45.71448663415006" lon="11.23873617321321"><ele>681.4000000000001</ele><time>2026-04-26T08:30:35.997Z</time></trkpt><trkpt lat="45.714590837149416" lon="11.238628073959731"><ele>682.6</ele><time>2026-04-26T08:30:37.997Z</time></trkpt><trkpt lat="45.714639781602884" lon="11.238567762988545"><ele>683.8</ele><time>2026-04-26T08:30:38.997Z</time></trkpt><trkpt lat="45.71472205706151" lon="11.23848450672781"><ele>685.0</ele><time>2026-04-26T08:30:40.997Z</time></trkpt><trkpt lat="45.71481735991193" lon="11.238427597779195"><ele>685.0</ele><time>2026-04-26T08:30:42.996Z</time></trkpt><trkpt lat="45.71492254499605" lon="11.238360196782889"><ele>685.0</ele><time>2026-04-26T08:30:44.996Z</time></trkpt><trkpt lat="45.715020280796075" lon="11.238293384715034"><ele>685.0</ele><time>2026-04-26T08:30:46.996Z</time></trkpt><trkpt lat="45.71510048439136" lon="11.238219412680532"><ele>685.0</ele><time>2026-04-26T08:30:48.996Z</time></trkpt><trkpt lat="45.715193940832336" lon="11.238133030300377"><ele>685.0</ele><time>2026-04-26T08:30:50.996Z</time></trkpt><trkpt lat="45.7152981361362" lon="11.238065447995169"><ele>684.2857142857142</ele><time>2026-04-26T08:30:52.996Z</time></trkpt><trkpt lat="45.71535567161751" lon="11.238028668519297"><ele>683.5714285714287</ele><time>2026-04-26T08:30:53.996Z</time></trkpt><trkpt lat="45.71541075297733" lon="11.237976203495275"><ele>682.8571428571429</ele><time>2026-04-26T08:30:54.996Z</time></trkpt><trkpt lat="45.715459237066774" lon="11.2379181400926"><ele>682.1428571428571</ele><time>2026-04-26T08:30:55.996Z</time></trkpt><trkpt lat="45.715513900166926" lon="11.237867192708755"><ele>681.4285714285713</ele><time>2026-04-26T08:30:56.996Z</time></trkpt><trkpt lat="45.71556859757067" lon="11.237804904234828"><ele>680.7142857142858</ele><time>2026-04-26T08:30:57.996Z</time></trkpt><trkpt lat="45.715620028709125" lon="11.237733771543258"><ele>680.0</ele><time>2026-04-26T08:30:58.996Z</time></trkpt><trkpt lat="45.71566686051974" lon="11.237656904261849"><ele>680.0</ele><time>2026-04-26T08:30:59.996Z</time></trkpt><trkpt lat="45.71571298402268" lon="11.237580374615705"><ele>680.0</ele><time>2026-04-26T08:31:00.996Z</time></trkpt><trkpt lat="45.715761713913366" lon="11.237505663111124"><ele>680.0</ele><time>2026-04-26T08:31:01.996Z</time></trkpt><trkpt lat="45.71581010239443" lon="11.237415820372812"><ele>680.0</ele><time>2026-04-26T08:31:02.996Z</time></trkpt><trkpt lat="45.7158673591449" lon="11.237318841347612"><ele>680.0</ele><time>2026-04-26T08:31:03.996Z</time></trkpt><trkpt lat="45.715914360521055" lon="11.23721168938471"><ele>680.0</ele><time>2026-04-26T08:31:04.996Z</time></trkpt><trkpt lat="45.715954493696756" lon="11.237100112976176"><ele>679.8333333333333</ele><time>2026-04-26T08:31:05.996Z</time></trkpt><trkpt lat="45.71599903807449" lon="11.236987584202234"><ele>679.6666666666666</ele><time>2026-04-26T08:31:06.996Z</time></trkpt><trkpt lat="45.71603707554172" lon="11.236877850932377"><ele>679.5</ele><time>2026-04-26T08:31:07.996Z</time></trkpt><trkpt lat="45.71607208803867" lon="11.23677087457821"><ele>679.3333333333334</ele><time>2026-04-26T08:31:08.996Z</time></trkpt><trkpt lat="45.71611000856197" lon="11.236687974285248"><ele>679.1666666666667</ele><time>2026-04-26T08:31:09.996Z</time></trkpt><trkpt lat="45.716172150574046" lon="11.236572143108877"><ele>679.0</ele><time>2026-04-26T08:31:11.996Z</time></trkpt><trkpt lat="45.71623736968752" lon="11.236525542873819"><ele>679.0</ele><time>2026-04-26T08:31:13.996Z</time></trkpt><trkpt lat="45.716316331491484" lon="11.236609548824015"><ele>679.0</ele><time>2026-04-26T08:31:15.996Z</time></trkpt><trkpt lat="45.71644274624037" lon="11.23665110448891"><ele>679.0</ele><time>2026-04-26T08:31:17.996Z</time></trkpt><trkpt lat="45.71652555133208" lon="11.23662055617065"><ele>679.0</ele><time>2026-04-26T08:31:18.996Z</time></trkpt><trkpt lat="45.71661984707796" lon="11.236580398332757"><ele>679.0</ele><time>2026-04-26T08:31:19.996Z</time></trkpt><trkpt lat="45.716720610153715" lon="11.236521687961057"><ele>679.0</ele><time>2026-04-26T08:31:20.996Z</time></trkpt><trkpt lat="45.716821427386066" lon="11.236480039695556"><ele>679.0</ele><time>2026-04-26T08:31:21.996Z</time></trkpt><trkpt lat="45.716910159788476" lon="11.236448877043342"><ele>679.0</ele><time>2026-04-26T08:31:22.996Z</time></trkpt><trkpt lat="45.71698876932828" lon="11.236393144708265"><ele>679.0</ele><time>2026-04-26T08:31:23.996Z</time></trkpt><trkpt lat="45.71707040272473" lon="11.23631796967214"><ele>679.0</ele><time>2026-04-26T08:31:24.996Z</time></trkpt><trkpt lat="45.717154579145124" lon="11.236241999069495"><ele>679.0</ele><time>2026-04-26T08:31:25.996Z</time></trkpt><trkpt lat="45.717242147738105" lon="11.236160944981759"><ele>679.0</ele><time>2026-04-26T08:31:26.996Z</time></trkpt><trkpt lat="45.71733696541474" lon="11.236093253914676"><ele>679.0</ele><time>2026-04-26T08:31:27.996Z</time></trkpt><trkpt lat="45.71742793843634" lon="11.23601499897661"><ele>679.0</ele><time>2026-04-26T08:31:28.996Z</time></trkpt><trkpt lat="45.71751018544119" lon="11.235905377005851"><ele>679.0</ele><time>2026-04-26T08:31:29.996Z</time></trkpt><trkpt lat="45.717585682014104" lon="11.235791938379956"><ele>679.0</ele><time>2026-04-26T08:31:30.996Z</time></trkpt><trkpt lat="45.71765447315268" lon="11.235685149139714"><ele>679.0</ele><time>2026-04-26T08:31:31.996Z</time></trkpt><trkpt lat="45.71771715368655" lon="11.235580912426098"><ele>679.0</ele><time>2026-04-26T08:31:32.996Z</time></trkpt><trkpt lat="45.71778766308223" lon="11.235488086959167"><ele>679.0</ele><time>2026-04-26T08:31:33.996Z</time></trkpt><trkpt lat="45.71786696975939" lon="11.235404500793031"><ele>679.0</ele><time>2026-04-26T08:31:34.996Z</time></trkpt><trkpt lat="45.71795903489076" lon="11.235337188344529"><ele>682.2</ele><time>2026-04-26T08:31:35.996Z</time></trkpt><trkpt lat="45.71804347769606" lon="11.23527225649572"><ele>685.4000000000001</ele><time>2026-04-26T08:31:36.996Z</time></trkpt><trkpt lat="45.71812471995015" lon="11.235215853390054"><ele>688.6</ele><time>2026-04-26T08:31:37.996Z</time></trkpt><trkpt lat="45.718200402317336" lon="11.235155772878613"><ele>691.8</ele><time>2026-04-26T08:31:38.996Z</time></trkpt><trkpt lat="45.71828335751637" lon="11.2351053395317"><ele>695.0</ele><time>2026-04-26T08:31:39.996Z</time></trkpt><trkpt lat="45.71836998651172" lon="11.235084072942655"><ele>695.0</ele><time>2026-04-26T08:31:40.996Z</time></trkpt><trkpt lat="45.718460286576175" lon="11.235093903398424"><ele>695.0</ele><time>2026-04-26T08:31:41.996Z</time></trkpt><trkpt lat="45.71854842401159" lon="11.235080613810538"><ele>695.0</ele><time>2026-04-26T08:31:42.996Z</time></trkpt><trkpt lat="45.718628900379976" lon="11.23506756301736"><ele>695.0</ele><time>2026-04-26T08:31:43.996Z</time></trkpt><trkpt lat="45.718724536004636" lon="11.235008737646442"><ele>695.0</ele><time>2026-04-26T08:31:45.996Z</time></trkpt><trkpt lat="45.718719079544215" lon="11.234875326790041"><ele>695.0</ele><time>2026-04-26T08:31:47.996Z</time></trkpt><trkpt lat="45.71869737908616" lon="11.23474574186838"><ele>695.0</ele><time>2026-04-26T08:31:49.996Z</time></trkpt><trkpt lat="45.71871091164084" lon="11.234617106892692"><ele>695.0</ele><time>2026-04-26T08:31:51.996Z</time></trkpt><trkpt lat="45.71875285731965" lon="11.234496954008796"><ele>695.0</ele><time>2026-04-26T08:31:53.995Z</time></trkpt><trkpt lat="45.71880393561934" lon="11.23439851533186"><ele>695.0</ele><time>2026-04-26T08:31:55.995Z</time></trkpt><trkpt lat="45.71888583274813" lon="11.234291258925097"><ele>695.0</ele><time>2026-04-26T08:31:57.995Z</time></trkpt><trkpt lat="45.71898042349622" lon="11.234197254349647"><ele>695.0</ele><time>2026-04-26T08:31:59.995Z</time></trkpt><trkpt lat="45.71908840550585" lon="11.234097154385294"><ele>695.0</ele><time>2026-04-26T08:32:01.995Z</time></trkpt><trkpt lat="45.7191502570291" lon="11.234060670920897"><ele>695.0</ele><time>2026-04-26T08:32:02.995Z</time></trkpt><trkpt lat="45.719211338133086" lon="11.234027889305112"><ele>695.0</ele><time>2026-04-26T08:32:03.995Z</time></trkpt><trkpt lat="45.719272513508734" lon="11.234001256321122"><ele>695.0</ele><time>2026-04-26T08:32:04.995Z</time></trkpt><trkpt lat="45.71939469407381" lon="11.233951009014504"><ele>693.7142857142858</ele><time>2026-04-26T08:32:06.995Z</time></trkpt><trkpt lat="45.71945586579098" lon="11.233926486558262"><ele>692.4285714285714</ele><time>2026-04-26T08:32:07.995Z</time></trkpt><trkpt lat="45.71952067972214" lon="11.233920061627275"><ele>691.1428571428571</ele><time>2026-04-26T08:32:08.995Z</time></trkpt><trkpt lat="45.719593961114064" lon="11.233917882034756"><ele>689.8571428571429</ele><time>2026-04-26T08:32:09.995Z</time></trkpt><trkpt lat="45.719664300531484" lon="11.233895531390804"><ele>688.5714285714286</ele><time>2026-04-26T08:32:10.995Z</time></trkpt><trkpt lat="45.71973444720371" lon="11.233849996708729"><ele>687.2857142857143</ele><time>2026-04-26T08:32:11.995Z</time></trkpt><trkpt lat="45.71980316321869" lon="11.233808169831827"><ele>686.0</ele><time>2026-04-26T08:32:12.995Z</time></trkpt><trkpt lat="45.719863875051395" lon="11.233774856469553"><ele>686.0</ele><time>2026-04-26T08:32:13.995Z</time></trkpt><trkpt lat="45.719984484453605" lon="11.233722210998772"><ele>686.0</ele><time>2026-04-26T08:32:15.995Z</time></trkpt><trkpt lat="45.72004409910928" lon="11.233672753393972"><ele>686.0</ele><time>2026-04-26T08:32:16.995Z</time></trkpt><trkpt lat="45.72010140441376" lon="11.23361294059862"><ele>686.0</ele><time>2026-04-26T08:32:17.995Z</time></trkpt><trkpt lat="45.72016331855577" lon="11.233547748988823"><ele>686.0</ele><time>2026-04-26T08:32:18.995Z</time></trkpt><trkpt lat="45.7202140869636" lon="11.233465690143314"><ele>686.0</ele><time>2026-04-26T08:32:19.995Z</time></trkpt><trkpt lat="45.72026427511578" lon="11.2333972630678"><ele>686.5999999999999</ele><time>2026-04-26T08:32:20.995Z</time></trkpt><trkpt lat="45.72033363165365" lon="11.233271756567568"><ele>687.2</ele><time>2026-04-26T08:32:22.995Z</time></trkpt><trkpt lat="45.720354977838106" lon="11.233110637255201"><ele>687.8</ele><time>2026-04-26T08:32:24.995Z</time></trkpt><trkpt lat="45.720348690971186" lon="11.233006078757017"><ele>688.4000000000001</ele><time>2026-04-26T08:32:25.995Z</time></trkpt><trkpt lat="45.7203405581174" lon="11.232890379588945"><ele>689.0</ele><time>2026-04-26T08:32:26.995Z</time></trkpt><trkpt lat="45.72035418842625" lon="11.232785567514833"><ele>689.0</ele><time>2026-04-26T08:32:27.995Z</time></trkpt><trkpt lat="45.72038079735426" lon="11.23269653688169"><ele>689.0</ele><time>2026-04-26T08:32:28.995Z</time></trkpt><trkpt lat="45.72042147462391" lon="11.23261635355481"><ele>689.0</ele><time>2026-04-26T08:32:29.995Z</time></trkpt><trkpt lat="45.72046699594758" lon="11.232526609723458"><ele>689.0</ele><time>2026-04-26T08:32:30.995Z</time></trkpt><trkpt lat="45.720541150794936" lon="11.232470933881487"><ele>689.0</ele><time>2026-04-26T08:32:31.995Z</time></trkpt><trkpt lat="45.72061567808852" lon="11.232411147465578"><ele>689.0</ele><time>2026-04-26T08:32:32.995Z</time></trkpt><trkpt lat="45.72067997014403" lon="11.23231002446425"><ele>685.1666666666666</ele><time>2026-04-26T08:32:33.995Z</time></trkpt><trkpt lat="45.720728645677546" lon="11.232190563456378"><ele>681.3333333333333</ele><time>2026-04-26T08:32:34.995Z</time></trkpt><trkpt lat="45.720772974808874" lon="11.232095901373748"><ele>677.5</ele><time>2026-04-26T08:32:35.995Z</time></trkpt><trkpt lat="45.72080701953884" lon="11.23200211325813"><ele>673.6666666666666</ele><time>2026-04-26T08:32:36.995Z</time></trkpt><trkpt lat="45.720858986944634" lon="11.231904583627413"><ele>669.8333333333334</ele><time>2026-04-26T08:32:37.995Z</time></trkpt><trkpt lat="45.720929234806775" lon="11.231798395119041"><ele>666.0</ele><time>2026-04-26T08:32:38.995Z</time></trkpt><trkpt lat="45.72099009224972" lon="11.231692129005651"><ele>666.0</ele><time>2026-04-26T08:32:39.995Z</time></trkpt><trkpt lat="45.72104667547984" lon="11.231590440755795"><ele>666.0</ele><time>2026-04-26T08:32:40.995Z</time></trkpt><trkpt lat="45.72109936060258" lon="11.231509377773675"><ele>666.0</ele><time>2026-04-26T08:32:41.995Z</time></trkpt><trkpt lat="45.72114466370853" lon="11.231415395101576"><ele>666.0</ele><time>2026-04-26T08:32:42.995Z</time></trkpt><trkpt lat="45.72118051500933" lon="11.231324487460869"><ele>666.0</ele><time>2026-04-26T08:32:43.995Z</time></trkpt><trkpt lat="45.72124445474441" lon="11.231203022790503"><ele>666.0</ele><time>2026-04-26T08:32:45.995Z</time></trkpt><trkpt lat="45.72129118760119" lon="11.231139780950327"><ele>664.1999999999999</ele><time>2026-04-26T08:32:46.995Z</time></trkpt><trkpt lat="45.72134288606778" lon="11.2310469539128"><ele>662.4</ele><time>2026-04-26T08:32:47.995Z</time></trkpt><trkpt lat="45.72139778255068" lon="11.230996335024845"><ele>660.6</ele><time>2026-04-26T08:32:48.995Z</time></trkpt><trkpt lat="45.721494111715316" lon="11.230885852285125"><ele>658.8</ele><time>2026-04-26T08:32:50.995Z</time></trkpt><trkpt lat="45.72160995092028" lon="11.230784859805372"><ele>657.0</ele><time>2026-04-26T08:32:52.995Z</time></trkpt><trkpt lat="45.721678720377824" lon="11.230754902948139"><ele>657.0</ele><time>2026-04-26T08:32:53.995Z</time></trkpt><trkpt lat="45.721750568773864" lon="11.23073725682907"><ele>657.0</ele><time>2026-04-26T08:32:54.995Z</time></trkpt><trkpt lat="45.7218197042507" lon="11.230711243472435"><ele>657.0</ele><time>2026-04-26T08:32:55.995Z</time></trkpt><trkpt lat="45.72188994872885" lon="11.230672952285607"><ele>657.0</ele><time>2026-04-26T08:32:56.995Z</time></trkpt><trkpt lat="45.72196210919866" lon="11.230644187653636"><ele>657.0</ele><time>2026-04-26T08:32:57.995Z</time></trkpt><trkpt lat="45.722037587723406" lon="11.23059930929914"><ele>657.0</ele><time>2026-04-26T08:32:58.995Z</time></trkpt><trkpt lat="45.72210972819468" lon="11.230554698985154"><ele>653.0</ele><time>2026-04-26T08:32:59.995Z</time></trkpt><trkpt lat="45.72219387275208" lon="11.230507636546713"><ele>649.0</ele><time>2026-04-26T08:33:00.995Z</time></trkpt><trkpt lat="45.722270701182346" lon="11.230469040366199"><ele>645.0</ele><time>2026-04-26T08:33:01.995Z</time></trkpt><trkpt lat="45.72233516411773" lon="11.230448347354065"><ele>641.0</ele><time>2026-04-26T08:33:02.995Z</time></trkpt><trkpt lat="45.7223947181036" lon="11.230418125549939"><ele>637.0</ele><time>2026-04-26T08:33:03.995Z</time></trkpt><trkpt lat="45.72245663853772" lon="11.230265858973798"><ele>633.0</ele><time>2026-04-26T08:33:05.994Z</time></trkpt><trkpt lat="45.72245525223536" lon="11.23016207959508"><ele>633.0</ele><time>2026-04-26T08:33:06.994Z</time></trkpt><trkpt lat="45.72245339046526" lon="11.23002033361251"><ele>633.0</ele><time>2026-04-26T08:33:07.994Z</time></trkpt><trkpt lat="45.72245658596651" lon="11.229876311722157"><ele>633.0</ele><time>2026-04-26T08:33:08.994Z</time></trkpt><trkpt lat="45.72244053218258" lon="11.229757008518087"><ele>633.0</ele><time>2026-04-26T08:33:09.994Z</time></trkpt><trkpt lat="45.72241714472088" lon="11.229640300032662"><ele>633.0</ele><time>2026-04-26T08:33:10.994Z</time></trkpt><trkpt lat="45.72240244551805" lon="11.229541561714889"><ele>633.0</ele><time>2026-04-26T08:33:11.994Z</time></trkpt><trkpt lat="45.72242478260508" lon="11.229369088313144"><ele>632.0</ele><time>2026-04-26T08:33:13.994Z</time></trkpt><trkpt lat="45.7224676662843" lon="11.229279439016556"><ele>631.0</ele><time>2026-04-26T08:33:14.994Z</time></trkpt><trkpt lat="45.72253509627515" lon="11.229210349626797"><ele>630.0</ele><time>2026-04-26T08:33:15.994Z</time></trkpt><trkpt lat="45.7225906267593" lon="11.229119442053666"><ele>629.0</ele><time>2026-04-26T08:33:16.994Z</time></trkpt><trkpt lat="45.72264085663966" lon="11.229024668076493"><ele>628.0</ele><time>2026-04-26T08:33:17.994Z</time></trkpt><trkpt lat="45.7226871584916" lon="11.22893299115808"><ele>627.0</ele><time>2026-04-26T08:33:18.994Z</time></trkpt><trkpt lat="45.72272920014833" lon="11.228865853072138"><ele>623.5</ele><time>2026-04-26T08:33:19.994Z</time></trkpt><trkpt lat="45.72281337762744" lon="11.228780402064885"><ele>620.0</ele><time>2026-04-26T08:33:21.996Z</time></trkpt><trkpt lat="45.7228476889778" lon="11.228704196134068"><ele>616.5</ele><time>2026-04-26T08:33:23.997Z</time></trkpt><trkpt lat="45.722763409464946" lon="11.228662893722488"><ele>613.0</ele><time>2026-04-26T08:33:26.997Z</time></trkpt><trkpt lat="45.722685813549326" lon="11.228695235467052"><ele>609.5</ele><time>2026-04-26T08:33:28.998Z</time></trkpt><trkpt lat="45.722601197202685" lon="11.228748849184049"><ele>606.0</ele><time>2026-04-26T08:33:30.998Z</time></trkpt><trkpt lat="45.72249203544319" lon="11.228832265135246"><ele>606.0</ele><time>2026-04-26T08:33:32.998Z</time></trkpt><trkpt lat="45.72243654025181" lon="11.22888156252926"><ele>606.0</ele><time>2026-04-26T08:33:33.998Z</time></trkpt><trkpt lat="45.72238005988951" lon="11.228937991241281"><ele>606.0</ele><time>2026-04-26T08:33:34.998Z</time></trkpt><trkpt lat="45.72231618151834" lon="11.229001624616327"><ele>606.0</ele><time>2026-04-26T08:33:35.999Z</time></trkpt><trkpt lat="45.72225408907637" lon="11.229078045071335"><ele>606.0</ele><time>2026-04-26T08:33:36.999Z</time></trkpt><trkpt lat="45.722187317214505" lon="11.2291498344885"><ele>606.0</ele><time>2026-04-26T08:33:37.999Z</time></trkpt><trkpt lat="45.722125662596426" lon="11.229220879728512"><ele>606.0</ele><time>2026-04-26T08:33:38.999Z</time></trkpt><trkpt lat="45.72206800257081" lon="11.229281886789998"><ele>606.0</ele><time>2026-04-26T08:33:39.999Z</time></trkpt><trkpt lat="45.72198102137908" lon="11.2293426942263"><ele>606.0</ele><time>2026-04-26T08:33:41.999Z</time></trkpt><trkpt lat="45.72195892864865" lon="11.229193784457221"><ele>606.0</ele><time>2026-04-26T08:33:44.999Z</time></trkpt><trkpt lat="45.722005604627164" lon="11.229110158999406"><ele>606.0</ele><time>2026-04-26T08:33:45.999Z</time></trkpt><trkpt lat="45.7220383932239" lon="11.229004980017816"><ele>606.0</ele><time>2026-04-26T08:33:46.999Z</time></trkpt><trkpt lat="45.72205784204542" lon="11.228892450322537"><ele>606.0</ele><time>2026-04-26T08:33:47.999Z</time></trkpt><trkpt lat="45.72208328829988" lon="11.22878803988795"><ele>606.0</ele><time>2026-04-26T08:33:48.999Z</time></trkpt><trkpt lat="45.72210690402651" lon="11.228689521286816"><ele>606.0</ele><time>2026-04-26T08:33:50Z</time></trkpt><trkpt lat="45.722140314258745" lon="11.22860105533602"><ele>606.0</ele><time>2026-04-26T08:33:51Z</time></trkpt><trkpt lat="45.72218318436824" lon="11.228508850661697"><ele>606.0</ele><time>2026-04-26T08:33:52Z</time></trkpt><trkpt lat="45.722241696479074" lon="11.228411889411753"><ele>606.0</ele><time>2026-04-26T08:33:53Z</time></trkpt><trkpt lat="45.72229518754602" lon="11.22831497471435"><ele>606.0</ele><time>2026-04-26T08:33:54Z</time></trkpt><trkpt lat="45.722340635641835" lon="11.228240896763282"><ele>606.0</ele><time>2026-04-26T08:33:55Z</time></trkpt><trkpt lat="45.72239000505288" lon="11.22815122681102"><ele>606.0</ele><time>2026-04-26T08:33:57Z</time></trkpt><trkpt lat="45.722293147474865" lon="11.228137368058393"><ele>606.0</ele><time>2026-04-26T08:34:00Z</time></trkpt><trkpt lat="45.7221825125903" lon="11.228182946685864"><ele>606.0</ele><time>2026-04-26T08:34:02Z</time></trkpt><trkpt lat="45.722079395844396" lon="11.228216903984826"><ele>606.0</ele><time>2026-04-26T08:34:04Z</time></trkpt><trkpt lat="45.722016560906575" lon="11.228182394484076"><ele>606.0</ele><time>2026-04-26T08:34:06Z</time></trkpt><trkpt lat="45.72201281945224" lon="11.228052512944958"><ele>606.0</ele><time>2026-04-26T08:34:09Z</time></trkpt><trkpt lat="45.72211694946796" lon="11.227931401628618"><ele>606.0</ele><time>2026-04-26T08:34:11Z</time></trkpt><trkpt lat="45.72217788128433" lon="11.22786497523348"><ele>606.0</ele><time>2026-04-26T08:34:12Z</time></trkpt><trkpt lat="45.72224536791871" lon="11.227787996834008"><ele>601.2</ele><time>2026-04-26T08:34:13Z</time></trkpt><trkpt lat="45.72231320269422" lon="11.227718802061842"><ele>596.4000000000001</ele><time>2026-04-26T08:34:14Z</time></trkpt><trkpt lat="45.72237719239609" lon="11.227656813909885"><ele>591.6</ele><time>2026-04-26T08:34:15Z</time></trkpt><trkpt lat="45.72243243499271" lon="11.227598553832282"><ele>586.8000000000001</ele><time>2026-04-26T08:34:16Z</time></trkpt><trkpt lat="45.722535410141475" lon="11.227503717586231"><ele>582.0</ele><time>2026-04-26T08:34:18Z</time></trkpt><trkpt lat="45.722627698072934" lon="11.227431494500044"><ele>582.0</ele><time>2026-04-26T08:34:20Z</time></trkpt><trkpt lat="45.72258571188373" lon="11.22732225098354"><ele>582.0</ele><time>2026-04-26T08:34:26Z</time></trkpt><trkpt lat="45.72273185849334" lon="11.227168721469601"><ele>582.0</ele><time>2026-04-26T08:34:30Z</time></trkpt><trkpt lat="45.72281391356547" lon="11.227114660243373"><ele>582.0</ele><time>2026-04-26T08:34:32Z</time></trkpt><trkpt lat="45.722893076761366" lon="11.227144038047202"><ele>582.0</ele><time>2026-04-26T08:34:34Z</time></trkpt><trkpt lat="45.722964885531766" lon="11.227160747143184"><ele>580.2</ele><time>2026-04-26T08:34:36Z</time></trkpt><trkpt lat="45.72303922661908" lon="11.22718169432651"><ele>578.4000000000001</ele><time>2026-04-26T08:34:39Z</time></trkpt><trkpt lat="45.72310178796785" lon="11.227118363227932"><ele>576.5999999999999</ele><time>2026-04-26T08:34:45Z</time></trkpt><trkpt lat="45.72315857894451" lon="11.227043724913283"><ele>574.8</ele><time>2026-04-26T08:34:48Z</time></trkpt><trkpt lat="45.72319796106554" lon="11.22697193297672"><ele>573.0</ele><time>2026-04-26T08:34:54.999Z</time></trkpt><trkpt lat="45.723191632732615" lon="11.227249034095104"><ele>573.0</ele><time>2026-04-26T08:43:30.997Z</time></trkpt><trkpt lat="45.72322737110749" lon="11.227063310139265"><ele>573.0</ele><time>2026-04-26T08:44:36Z</time></trkpt><trkpt lat="45.72325498751149" lon="11.226967736206955"><ele>573.0</ele><time>2026-04-26T08:44:39.999Z</time></trkpt><trkpt lat="45.72327457687296" lon="11.226876415004082"><ele>573.0</ele><time>2026-04-26T08:44:46.999Z</time></trkpt><trkpt lat="45.72333065484675" lon="11.226815017845787"><ele>573.0</ele><time>2026-04-26T08:45:33.999Z</time></trkpt><trkpt lat="45.72340661954779" lon="11.22684982397357"><ele>573.0</ele><time>2026-04-26T08:45:35.999Z</time></trkpt><trkpt lat="45.7234777178717" lon="11.22686519660744"><ele>573.0</ele><time>2026-04-26T08:45:37.999Z</time></trkpt><trkpt lat="45.72355318497621" lon="11.226913123689128"><ele>573.0</ele><time>2026-04-26T08:45:39.998Z</time></trkpt><trkpt lat="45.723658720036795" lon="11.226937958419647"><ele>573.0</ele><time>2026-04-26T08:45:41.998Z</time></trkpt><trkpt lat="45.723777307644724" lon="11.22697737809888"><ele>573.0</ele><time>2026-04-26T08:45:43.998Z</time></trkpt><trkpt lat="45.72385275186054" lon="11.226998999802337"><ele>573.0</ele><time>2026-04-26T08:45:44.998Z</time></trkpt><trkpt lat="45.72393977219244" lon="11.227009453685964"><ele>574.8333333333334</ele><time>2026-04-26T08:45:45.998Z</time></trkpt><trkpt lat="45.72403211996078" lon="11.227033028794478"><ele>576.6666666666666</ele><time>2026-04-26T08:45:46.998Z</time></trkpt><trkpt lat="45.7241175083792" lon="11.227057277313643"><ele>578.5</ele><time>2026-04-26T08:45:47.998Z</time></trkpt><trkpt lat="45.724202617921854" lon="11.227082275823076"><ele>580.3333333333333</ele><time>2026-04-26T08:45:48.998Z</time></trkpt><trkpt lat="45.7242846913529" lon="11.22710397595304"><ele>582.1666666666666</ele><time>2026-04-26T08:45:49.998Z</time></trkpt><trkpt lat="45.72435668653136" lon="11.22712831639001"><ele>584.0</ele><time>2026-04-26T08:45:50.998Z</time></trkpt><trkpt lat="45.72442389738574" lon="11.227149885350455"><ele>583.8333333333333</ele><time>2026-04-26T08:45:51.998Z</time></trkpt><trkpt lat="45.724489875883464" lon="11.227186039039658"><ele>583.6666666666666</ele><time>2026-04-26T08:45:52.998Z</time></trkpt><trkpt lat="45.72454902424365" lon="11.227220384071034"><ele>583.5</ele><time>2026-04-26T08:45:53.998Z</time></trkpt><trkpt lat="45.7246272284013" lon="11.227246200377548"><ele>583.3333333333334</ele><time>2026-04-26T08:45:54.998Z</time></trkpt><trkpt lat="45.72469744556532" lon="11.22728148197673"><ele>583.1666666666667</ele><time>2026-04-26T08:45:55.998Z</time></trkpt><trkpt lat="45.724781910144884" lon="11.227327337082802"><ele>583.0</ele><time>2026-04-26T08:45:56.998Z</time></trkpt><trkpt lat="45.72486830464952" lon="11.227385429110287"><ele>583.0</ele><time>2026-04-26T08:45:57.998Z</time></trkpt><trkpt lat="45.7249493074059" lon="11.227449259583434"><ele>583.0</ele><time>2026-04-26T08:45:58.998Z</time></trkpt><trkpt lat="45.72502487508973" lon="11.227519172090304"><ele>583.0</ele><time>2026-04-26T08:45:59.998Z</time></trkpt><trkpt lat="45.72509461219138" lon="11.227580982475823"><ele>583.0</ele><time>2026-04-26T08:46:00.998Z</time></trkpt><trkpt lat="45.725163352047" lon="11.227628335249134"><ele>583.0</ele><time>2026-04-26T08:46:01.998Z</time></trkpt><trkpt lat="45.725231955990786" lon="11.227675310599627"><ele>583.0</ele><time>2026-04-26T08:46:02.998Z</time></trkpt><trkpt lat="45.725297462602875" lon="11.22773895559535"><ele>582.8333333333334</ele><time>2026-04-26T08:46:03.998Z</time></trkpt><trkpt lat="45.72536188903193" lon="11.227797107187904"><ele>582.6666666666667</ele><time>2026-04-26T08:46:04.998Z</time></trkpt><trkpt lat="45.72542816444812" lon="11.227860610151088"><ele>582.5</ele><time>2026-04-26T08:46:05.998Z</time></trkpt><trkpt lat="45.72548324573395" lon="11.227946261635775"><ele>582.3333333333334</ele><time>2026-04-26T08:46:06.998Z</time></trkpt><trkpt lat="45.72553182027736" lon="11.228043954102123"><ele>582.1666666666666</ele><time>2026-04-26T08:46:07.998Z</time></trkpt><trkpt lat="45.72559179077868" lon="11.22814598472737"><ele>582.0</ele><time>2026-04-26T08:46:08.998Z</time></trkpt><trkpt lat="45.72565373569615" lon="11.228248516902553"><ele>582.0</ele><time>2026-04-26T08:46:09.998Z</time></trkpt><trkpt lat="45.72571203378809" lon="11.228351651490735"><ele>582.0</ele><time>2026-04-26T08:46:10.998Z</time></trkpt><trkpt lat="45.725760444401004" lon="11.22846126826819"><ele>582.0</ele><time>2026-04-26T08:46:11.998Z</time></trkpt><trkpt lat="45.72580456964487" lon="11.228586867854716"><ele>582.0</ele><time>2026-04-26T08:46:12.998Z</time></trkpt><trkpt lat="45.725825295075566" lon="11.228701949319271"><ele>582.0</ele><time>2026-04-26T08:46:13.998Z</time></trkpt><trkpt lat="45.72584105369479" lon="11.228798039343685"><ele>582.0</ele><time>2026-04-26T08:46:14.998Z</time></trkpt><trkpt lat="45.72586409899103" lon="11.228956789466803"><ele>582.0</ele><time>2026-04-26T08:46:16.998Z</time></trkpt><trkpt lat="45.72593125861922" lon="11.229086276117727"><ele>582.0</ele><time>2026-04-26T08:46:18.998Z</time></trkpt><trkpt lat="45.726008452456945" lon="11.229168471267892"><ele>582.0</ele><time>2026-04-26T08:46:20.998Z</time></trkpt><trkpt lat="45.72606742806667" lon="11.229258483505948"><ele>582.0</ele><time>2026-04-26T08:46:23.998Z</time></trkpt><trkpt lat="45.72599511492891" lon="11.229127645135577"><ele>582.0</ele><time>2026-04-26T08:46:31.998Z</time></trkpt><trkpt lat="45.72603694815925" lon="11.228972998049125"><ele>582.4285714285714</ele><time>2026-04-26T08:46:33.998Z</time></trkpt><trkpt lat="45.72608029210983" lon="11.228903024650693"><ele>582.8571428571428</ele><time>2026-04-26T08:46:34.998Z</time></trkpt><trkpt lat="45.726133395180526" lon="11.228843615769179"><ele>583.2857142857142</ele><time>2026-04-26T08:46:35.998Z</time></trkpt><trkpt lat="45.72617807643442" lon="11.22876691084204"><ele>583.7142857142857</ele><time>2026-04-26T08:46:36.997Z</time></trkpt><trkpt lat="45.726225198673426" lon="11.228684038517878"><ele>584.1428571428571</ele><time>2026-04-26T08:46:37.997Z</time></trkpt><trkpt lat="45.72627713863096" lon="11.228592109051366"><ele>584.5714285714286</ele><time>2026-04-26T08:46:38.997Z</time></trkpt><trkpt lat="45.72633293063443" lon="11.22849668497724"><ele>585.0</ele><time>2026-04-26T08:46:39.997Z</time></trkpt><trkpt lat="45.726393024859384" lon="11.228402516645268"><ele>585.0</ele><time>2026-04-26T08:46:40.997Z</time></trkpt><trkpt lat="45.726445202636185" lon="11.228305225199088"><ele>585.0</ele><time>2026-04-26T08:46:41.997Z</time></trkpt><trkpt lat="45.72648493626785" lon="11.228220738540049"><ele>585.0</ele><time>2026-04-26T08:46:42.997Z</time></trkpt><trkpt lat="45.72650669078428" lon="11.228075043238622"><ele>585.0</ele><time>2026-04-26T08:46:44.997Z</time></trkpt><trkpt lat="45.726462750431374" lon="11.22792261328899"><ele>585.0</ele><time>2026-04-26T08:46:46.997Z</time></trkpt><trkpt lat="45.726389544668116" lon="11.227850289050997"><ele>586.6666666666666</ele><time>2026-04-26T08:46:47.997Z</time></trkpt><trkpt lat="45.72626743483635" lon="11.227729238015824"><ele>588.3333333333333</ele><time>2026-04-26T08:46:48.997Z</time></trkpt><trkpt lat="45.7261249960737" lon="11.227552818810267"><ele>590.0</ele><time>2026-04-26T08:46:49.997Z</time></trkpt><trkpt lat="45.72598596140325" lon="11.227378498502688"><ele>593.0</ele><time>2026-04-26T08:46:50.997Z</time></trkpt><trkpt lat="45.725837845548675" lon="11.227274553635631"><ele>596.0</ele><time>2026-04-26T08:46:51.997Z</time></trkpt><trkpt lat="45.725714344532264" lon="11.227138229716576"><ele>599.0</ele><time>2026-04-26T08:46:52.997Z</time></trkpt><trkpt lat="45.72559840024468" lon="11.226997352817772"><ele>599.0</ele><time>2026-04-26T08:46:53.997Z</time></trkpt><trkpt lat="45.72548329695918" lon="11.226890287417707"><ele>599.0</ele><time>2026-04-26T08:46:54.997Z</time></trkpt><trkpt lat="45.725384083339826" lon="11.226767080168338"><ele>599.0</ele><time>2026-04-26T08:46:55.997Z</time></trkpt><trkpt lat="45.72529130903912" lon="11.226637129058766"><ele>599.0</ele><time>2026-04-26T08:46:56.997Z</time></trkpt><trkpt lat="45.72518488136582" lon="11.226542185829379"><ele>600.25</ele><time>2026-04-26T08:46:57.997Z</time></trkpt><trkpt lat="45.7250716766506" lon="11.226439431953928"><ele>601.5</ele><time>2026-04-26T08:46:58.997Z</time></trkpt><trkpt lat="45.72497163682828" lon="11.22632117615221"><ele>602.75</ele><time>2026-04-26T08:46:59.997Z</time></trkpt><trkpt lat="45.724893067026315" lon="11.226198426142828"><ele>604.0</ele><time>2026-04-26T08:47:00.997Z</time></trkpt><trkpt lat="45.7248071563237" lon="11.226092053146763"><ele>604.0</ele><time>2026-04-26T08:47:01.997Z</time></trkpt><trkpt lat="45.724720631128925" lon="11.226013429561544"><ele>604.0</ele><time>2026-04-26T08:47:02.997Z</time></trkpt><trkpt lat="45.72464476828937" lon="11.225931855590654"><ele>604.0</ele><time>2026-04-26T08:47:03.997Z</time></trkpt><trkpt lat="45.724573722979116" lon="11.225850095308887"><ele>604.0</ele><time>2026-04-26T08:47:04.997Z</time></trkpt><trkpt lat="45.724485267621375" lon="11.225779140217178"><ele>604.0</ele><time>2026-04-26T08:47:05.997Z</time></trkpt><trkpt lat="45.72439529811959" lon="11.225713288658477"><ele>605.5</ele><time>2026-04-26T08:47:06.997Z</time></trkpt><trkpt lat="45.724325795457126" lon="11.225637281152272"><ele>607.0</ele><time>2026-04-26T08:47:07.997Z</time></trkpt><trkpt lat="45.72427151723866" lon="11.225569497820453"><ele>608.5</ele><time>2026-04-26T08:47:08.997Z</time></trkpt><trkpt lat="45.724278540560356" lon="11.225395302165964"><ele>610.0</ele><time>2026-04-26T08:47:10.997Z</time></trkpt><trkpt lat="45.724315951835635" lon="11.225317353491072"><ele>611.5</ele><time>2026-04-26T08:47:11.997Z</time></trkpt><trkpt lat="45.72436428541604" lon="11.225229624857748"><ele>613.0</ele><time>2026-04-26T08:47:12.997Z</time></trkpt><trkpt lat="45.724437557966105" lon="11.225163386667473"><ele>613.0</ele><time>2026-04-26T08:47:13.997Z</time></trkpt><trkpt lat="45.72456021929782" lon="11.225154655780177"><ele>613.0</ele><time>2026-04-26T08:47:14.997Z</time></trkpt><trkpt lat="45.7246977555692" lon="11.225142597030379"><ele>613.0</ele><time>2026-04-26T08:47:15.997Z</time></trkpt><trkpt lat="45.724830078831964" lon="11.225194207466297"><ele>613.0</ele><time>2026-04-26T08:47:16.997Z</time></trkpt><trkpt lat="45.7249669464847" lon="11.22519288103094"><ele>613.0</ele><time>2026-04-26T08:47:17.997Z</time></trkpt><trkpt lat="45.72511215813429" lon="11.225176665773834"><ele>613.0</ele><time>2026-04-26T08:47:18.997Z</time></trkpt><trkpt lat="45.72525006788716" lon="11.22516500008452"><ele>613.0</ele><time>2026-04-26T08:47:19.997Z</time></trkpt><trkpt lat="45.7253841609767" lon="11.225135966509349"><ele>613.0</ele><time>2026-04-26T08:47:20.997Z</time></trkpt><trkpt lat="45.7255058073705" lon="11.225128494860282"><ele>614.0</ele><time>2026-04-26T08:47:21.997Z</time></trkpt><trkpt lat="45.72562570193925" lon="11.225104945621036"><ele>615.0</ele><time>2026-04-26T08:47:22.997Z</time></trkpt><trkpt lat="45.72573590226819" lon="11.225087236690573"><ele>616.0</ele><time>2026-04-26T08:47:23.997Z</time></trkpt><trkpt lat="45.72584590464267" lon="11.225080169030997"><ele>617.0</ele><time>2026-04-26T08:47:24.997Z</time></trkpt><trkpt lat="45.725939883584246" lon="11.225061951482584"><ele>618.0</ele><time>2026-04-26T08:47:25.997Z</time></trkpt><trkpt lat="45.726017364126" lon="11.22503676357706"><ele>617.1999999999999</ele><time>2026-04-26T08:47:26.997Z</time></trkpt><trkpt lat="45.726075452234014" lon="11.224982185132232"><ele>616.4</ele><time>2026-04-26T08:47:27.997Z</time></trkpt><trkpt lat="45.72610772027528" lon="11.2248076741906"><ele>615.5999999999999</ele><time>2026-04-26T08:47:29.997Z</time></trkpt><trkpt lat="45.72606277937084" lon="11.224649797203766"><ele>614.8</ele><time>2026-04-26T08:47:31.997Z</time></trkpt><trkpt lat="45.72596911602641" lon="11.224523134987878"><ele>614.0</ele><time>2026-04-26T08:47:32.997Z</time></trkpt><trkpt lat="45.725875995393636" lon="11.224402190816248"><ele>617.25</ele><time>2026-04-26T08:47:33.996Z</time></trkpt><trkpt lat="45.72578102155743" lon="11.22429681853616"><ele>620.5</ele><time>2026-04-26T08:47:34.996Z</time></trkpt><trkpt lat="45.725670722233325" lon="11.224206223579175"><ele>623.75</ele><time>2026-04-26T08:47:35.996Z</time></trkpt><trkpt lat="45.725552809369646" lon="11.22412543104366"><ele>627.0</ele><time>2026-04-26T08:47:36.996Z</time></trkpt><trkpt lat="45.72546850598761" lon="11.224002021419828"><ele>628.1666666666666</ele><time>2026-04-26T08:47:37.996Z</time></trkpt><trkpt lat="45.725385108671695" lon="11.223900711034263"><ele>629.3333333333334</ele><time>2026-04-26T08:47:38.996Z</time></trkpt><trkpt lat="45.72531765071469" lon="11.22381309765571"><ele>630.5</ele><time>2026-04-26T08:47:39.996Z</time></trkpt><trkpt lat="45.725254992954994" lon="11.223752088117577"><ele>631.6666666666667</ele><time>2026-04-26T08:47:40.996Z</time></trkpt><trkpt lat="45.72520114215251" lon="11.223697952951657"><ele>632.8333333333334</ele><time>2026-04-26T08:47:41.996Z</time></trkpt><trkpt lat="45.72512154044941" lon="11.223596457312674"><ele>634.0</ele><time>2026-04-26T08:47:43.996Z</time></trkpt><trkpt lat="45.72505320213358" lon="11.223557684430785"><ele>634.0</ele><time>2026-04-26T08:47:45.996Z</time></trkpt><trkpt lat="45.72501779207016" lon="11.223459157570455"><ele>634.0</ele><time>2026-04-26T08:47:49.996Z</time></trkpt><trkpt lat="45.724988979292945" lon="11.223355531269888"><ele>634.0</ele><time>2026-04-26T08:47:53.996Z</time></trkpt><trkpt lat="45.725049177768334" lon="11.223299905404732"><ele>634.0</ele><time>2026-04-26T08:47:56.996Z</time></trkpt><trkpt lat="45.72528610809492" lon="11.223308927879826"><ele>634.25</ele><time>2026-04-26T08:48:02.996Z</time></trkpt><trkpt lat="45.725384496560004" lon="11.223298249953352"><ele>634.5</ele><time>2026-04-26T08:48:04.996Z</time></trkpt><trkpt lat="45.72551103804438" lon="11.22325819685027"><ele>634.75</ele><time>2026-04-26T08:48:06.996Z</time></trkpt><trkpt lat="45.72564312760154" lon="11.223228798735805"><ele>635.0</ele><time>2026-04-26T08:48:08.996Z</time></trkpt><trkpt lat="45.72575559194944" lon="11.22321440227109"><ele>635.0</ele><time>2026-04-26T08:48:10.996Z</time></trkpt><trkpt lat="45.72585522610117" lon="11.223231054942914"><ele>635.0</ele><time>2026-04-26T08:48:12.996Z</time></trkpt><trkpt lat="45.72595209839223" lon="11.223225608382348"><ele>635.0</ele><time>2026-04-26T08:48:14.996Z</time></trkpt><trkpt lat="45.72609245176607" lon="11.223204099177229"><ele>635.0</ele><time>2026-04-26T08:48:17.996Z</time></trkpt><trkpt lat="45.72615384215596" lon="11.223096484887266"><ele>635.0</ele><time>2026-04-26T08:48:19.996Z</time></trkpt><trkpt lat="45.72620944920084" lon="11.222962080144349"><ele>635.6</ele><time>2026-04-26T08:48:21.996Z</time></trkpt><trkpt lat="45.726277162420594" lon="11.222820486240783"><ele>636.2</ele><time>2026-04-26T08:48:23.996Z</time></trkpt><trkpt lat="45.72628128302588" lon="11.222717462159784"><ele>636.8</ele><time>2026-04-26T08:48:24.996Z</time></trkpt><trkpt lat="45.72627741667188" lon="11.222622619985046"><ele>637.4</ele><time>2026-04-26T08:48:25.996Z</time></trkpt><trkpt lat="45.726280798042055" lon="11.222528051880431"><ele>638.0</ele><time>2026-04-26T08:48:26.996Z</time></trkpt><trkpt lat="45.7262860612081" lon="11.222348381609555"><ele>639.4</ele><time>2026-04-26T08:48:28.996Z</time></trkpt><trkpt lat="45.72631386030801" lon="11.222199438083877"><ele>640.8</ele><time>2026-04-26T08:48:30.995Z</time></trkpt><trkpt lat="45.7263573474938" lon="11.222084249525267"><ele>642.2</ele><time>2026-04-26T08:48:32.995Z</time></trkpt><trkpt lat="45.7264712789802" lon="11.222015001781143"><ele>643.6</ele><time>2026-04-26T08:48:34.995Z</time></trkpt><trkpt lat="45.72653365025648" lon="11.221975752128326"><ele>645.0</ele><time>2026-04-26T08:48:35.995Z</time></trkpt><trkpt lat="45.726602654024774" lon="11.221817312390938"><ele>645.0</ele><time>2026-04-26T08:48:37.995Z</time></trkpt><trkpt lat="45.726617937029694" lon="11.221694398537712"><ele>645.0</ele><time>2026-04-26T08:48:38.995Z</time></trkpt><trkpt lat="45.72663507659522" lon="11.221537878817061"><ele>645.0</ele><time>2026-04-26T08:48:39.995Z</time></trkpt><trkpt lat="45.72664056151205" lon="11.22139112989618"><ele>645.0</ele><time>2026-04-26T08:48:40.995Z</time></trkpt><trkpt lat="45.72665741051835" lon="11.22123703945771"><ele>645.0</ele><time>2026-04-26T08:48:41.995Z</time></trkpt><trkpt lat="45.726662725149836" lon="11.221084933038606"><ele>646.6</ele><time>2026-04-26T08:48:42.995Z</time></trkpt><trkpt lat="45.72669258517373" lon="11.220933934283455"><ele>648.2</ele><time>2026-04-26T08:48:43.995Z</time></trkpt><trkpt lat="45.726758903493575" lon="11.220784156320732"><ele>649.8</ele><time>2026-04-26T08:48:44.995Z</time></trkpt><trkpt lat="45.72682741578397" lon="11.22065706221902"><ele>651.4</ele><time>2026-04-26T08:48:45.995Z</time></trkpt><trkpt lat="45.72687773745943" lon="11.22054715890554"><ele>653.0</ele><time>2026-04-26T08:48:46.995Z</time></trkpt><trkpt lat="45.726927594384335" lon="11.220428890654286"><ele>653.0</ele><time>2026-04-26T08:48:47.995Z</time></trkpt><trkpt lat="45.7269629682987" lon="11.22029828980865"><ele>653.0</ele><time>2026-04-26T08:48:48.995Z</time></trkpt><trkpt lat="45.72700231850271" lon="11.220163077446303"><ele>653.0</ele><time>2026-04-26T08:48:49.995Z</time></trkpt><trkpt lat="45.72703649048597" lon="11.220033122145463"><ele>653.0</ele><time>2026-04-26T08:48:50.995Z</time></trkpt><trkpt lat="45.72707746667372" lon="11.219903411077826"><ele>653.0</ele><time>2026-04-26T08:48:51.995Z</time></trkpt><trkpt lat="45.72709447201205" lon="11.219781838031448"><ele>654.3333333333333</ele><time>2026-04-26T08:48:52.995Z</time></trkpt><trkpt lat="45.72710245752456" lon="11.219661687455483"><ele>655.6666666666666</ele><time>2026-04-26T08:48:53.995Z</time></trkpt><trkpt lat="45.727108169872416" lon="11.219546654459146"><ele>657.0</ele><time>2026-04-26T08:48:54.995Z</time></trkpt><trkpt lat="45.72711738797717" lon="11.21941683413567"><ele>658.3333333333334</ele><time>2026-04-26T08:48:55.995Z</time></trkpt><trkpt lat="45.72711147826818" lon="11.219290580382852"><ele>659.6666666666667</ele><time>2026-04-26T08:48:56.995Z</time></trkpt><trkpt lat="45.72710811176228" lon="11.219176315115739"><ele>661.0</ele><time>2026-04-26T08:48:57.995Z</time></trkpt><trkpt lat="45.72711842926198" lon="11.219085506273647"><ele>661.0</ele><time>2026-04-26T08:48:58.995Z</time></trkpt><trkpt lat="45.72713834159748" lon="11.218999516202702"><ele>661.0</ele><time>2026-04-26T08:48:59.995Z</time></trkpt><trkpt lat="45.72722803598381" lon="11.21895042123542"><ele>661.0</ele><time>2026-04-26T08:49:01.995Z</time></trkpt><trkpt lat="45.727285248480634" lon="11.218998380599519"><ele>661.0</ele><time>2026-04-26T08:49:02.995Z</time></trkpt><trkpt lat="45.727328987132665" lon="11.219090841812681"><ele>661.0</ele><time>2026-04-26T08:49:03.995Z</time></trkpt><trkpt lat="45.72736732942964" lon="11.219200617356691"><ele>661.0</ele><time>2026-04-26T08:49:04.995Z</time></trkpt><trkpt lat="45.72740641725034" lon="11.219339239713642"><ele>661.0</ele><time>2026-04-26T08:49:05.995Z</time></trkpt><trkpt lat="45.72744575693083" lon="11.219487254969543"><ele>661.0</ele><time>2026-04-26T08:49:06.995Z</time></trkpt><trkpt lat="45.7274820555686" lon="11.219638596389865"><ele>661.0</ele><time>2026-04-26T08:49:07.995Z</time></trkpt><trkpt lat="45.7274998471572" lon="11.219795049593746"><ele>661.0</ele><time>2026-04-26T08:49:08.995Z</time></trkpt><trkpt lat="45.72751704186107" lon="11.219960843979385"><ele>659.4</ele><time>2026-04-26T08:49:09.995Z</time></trkpt><trkpt lat="45.72752445709925" lon="11.220131757697171"><ele>657.8</ele><time>2026-04-26T08:49:10.995Z</time></trkpt><trkpt lat="45.727536489551326" lon="11.220286243081928"><ele>656.1999999999999</ele><time>2026-04-26T08:49:11.995Z</time></trkpt><trkpt lat="45.72754565540294" lon="11.220415959433655"><ele>654.5999999999999</ele><time>2026-04-26T08:49:12.995Z</time></trkpt><trkpt lat="45.72754954365293" lon="11.220522763227564"><ele>653.0</ele><time>2026-04-26T08:49:13.995Z</time></trkpt><trkpt lat="45.72756032706655" lon="11.220688941354156"><ele>653.0</ele><time>2026-04-26T08:49:15.995Z</time></trkpt><trkpt lat="45.727560210913474" lon="11.220809374178913"><ele>653.0</ele><time>2026-04-26T08:49:17.995Z</time></trkpt><trkpt lat="45.72762974022161" lon="11.220775848599068"><ele>653.0</ele><time>2026-04-26T08:49:20.995Z</time></trkpt><trkpt lat="45.727675607561935" lon="11.220627419099305"><ele>653.0</ele><time>2026-04-26T08:49:22.995Z</time></trkpt><trkpt lat="45.727721171573506" lon="11.220559107424986"><ele>653.0</ele><time>2026-04-26T08:49:23.995Z</time></trkpt><trkpt lat="45.727769448826095" lon="11.220487436864675"><ele>653.0</ele><time>2026-04-26T08:49:24.995Z</time></trkpt><trkpt lat="45.72783715360055" lon="11.220436459423354"><ele>654.5</ele><time>2026-04-26T08:49:25.995Z</time></trkpt><trkpt lat="45.72791114880427" lon="11.220394614879407"><ele>656.0</ele><time>2026-04-26T08:49:26.995Z</time></trkpt><trkpt lat="45.727988015144774" lon="11.220349971362007"><ele>657.5</ele><time>2026-04-26T08:49:27.994Z</time></trkpt><trkpt lat="45.72804969877073" lon="11.220267271746117"><ele>659.0</ele><time>2026-04-26T08:49:28.994Z</time></trkpt><trkpt lat="45.72807651056135" lon="11.220142473574452"><ele>660.5</ele><time>2026-04-26T08:49:29.994Z</time></trkpt><trkpt lat="45.72807790334966" lon="11.22000895122288"><ele>662.0</ele><time>2026-04-26T08:49:30.994Z</time></trkpt><trkpt lat="45.728083919893784" lon="11.219867960323734"><ele>663.8</ele><time>2026-04-26T08:49:31.994Z</time></trkpt><trkpt lat="45.72810399103556" lon="11.219727955650677"><ele>665.6</ele><time>2026-04-26T08:49:32.994Z</time></trkpt><trkpt lat="45.728148312899776" lon="11.219605606991035"><ele>667.4</ele><time>2026-04-26T08:49:33.994Z</time></trkpt><trkpt lat="45.72821410174609" lon="11.21951056114522"><ele>669.1999999999999</ele><time>2026-04-26T08:49:34.994Z</time></trkpt><trkpt lat="45.728289279662924" lon="11.219428220980319"><ele>671.0</ele><time>2026-04-26T08:49:35.994Z</time></trkpt><trkpt lat="45.72836155192387" lon="11.21933890019988"><ele>671.0</ele><time>2026-04-26T08:49:36.994Z</time></trkpt><trkpt lat="45.72843699270598" lon="11.219241715077077"><ele>671.0</ele><time>2026-04-26T08:49:37.994Z</time></trkpt><trkpt lat="45.728500681617696" lon="11.219114693665462"><ele>671.0</ele><time>2026-04-26T08:49:38.994Z</time></trkpt><trkpt lat="45.72856728526243" lon="11.218976622735253"><ele>671.0</ele><time>2026-04-26T08:49:39.994Z</time></trkpt><trkpt lat="45.728632392478644" lon="11.218835678953504"><ele>671.0</ele><time>2026-04-26T08:49:40.994Z</time></trkpt><trkpt lat="45.72869213706372" lon="11.218700169369587"><ele>672.8333333333333</ele><time>2026-04-26T08:49:41.994Z</time></trkpt><trkpt lat="45.72874773374672" lon="11.218580457928804"><ele>674.6666666666666</ele><time>2026-04-26T08:49:42.994Z</time></trkpt><trkpt lat="45.728793485602424" lon="11.218474546140927"><ele>676.5</ele><time>2026-04-26T08:49:43.994Z</time></trkpt><trkpt lat="45.728832867233415" lon="11.218379743710937"><ele>678.3333333333334</ele><time>2026-04-26T08:49:44.994Z</time></trkpt><trkpt lat="45.72887091445416" lon="11.218284329631866"><ele>680.1666666666667</ele><time>2026-04-26T08:49:45.994Z</time></trkpt><trkpt lat="45.728895827164976" lon="11.218177941152982"><ele>682.0</ele><time>2026-04-26T08:49:46.994Z</time></trkpt><trkpt lat="45.728913837879674" lon="11.218055825663972"><ele>683.4000000000001</ele><time>2026-04-26T08:49:47.994Z</time></trkpt><trkpt lat="45.728907717947415" lon="11.21791804707781"><ele>684.8000000000001</ele><time>2026-04-26T08:49:48.994Z</time></trkpt><trkpt lat="45.72888452304749" lon="11.217772842673433"><ele>686.2</ele><time>2026-04-26T08:49:49.994Z</time></trkpt><trkpt lat="45.72886050873789" lon="11.217620737541806"><ele>687.6</ele><time>2026-04-26T08:49:50.994Z</time></trkpt><trkpt lat="45.72885330598161" lon="11.217464034626781"><ele>689.0</ele><time>2026-04-26T08:49:51.994Z</time></trkpt><trkpt lat="45.728875907962596" lon="11.21731217169947"><ele>691.0</ele><time>2026-04-26T08:49:52.994Z</time></trkpt><trkpt lat="45.72888054456107" lon="11.217164742437895"><ele>693.0</ele><time>2026-04-26T08:49:53.994Z</time></trkpt><trkpt lat="45.728867528607005" lon="11.217021340302136"><ele>695.0</ele><time>2026-04-26T08:49:54.994Z</time></trkpt><trkpt lat="45.7288322981491" lon="11.216886047254418"><ele>697.0</ele><time>2026-04-26T08:49:55.994Z</time></trkpt><trkpt lat="45.72878367202552" lon="11.216756434774394"><ele>699.0</ele><time>2026-04-26T08:49:56.994Z</time></trkpt><trkpt lat="45.728720783963134" lon="11.216644341597815"><ele>699.0</ele><time>2026-04-26T08:49:57.994Z</time></trkpt><trkpt lat="45.728639618101774" lon="11.216563002369092"><ele>699.0</ele><time>2026-04-26T08:49:58.994Z</time></trkpt><trkpt lat="45.728548557805716" lon="11.216508048951107"><ele>699.0</ele><time>2026-04-26T08:49:59.994Z</time></trkpt><trkpt lat="45.728464431766454" lon="11.216450481016208"><ele>699.0</ele><time>2026-04-26T08:50:00.994Z</time></trkpt><trkpt lat="45.728392166844785" lon="11.216393147122236"><ele>699.0</ele><time>2026-04-26T08:50:01.994Z</time></trkpt><trkpt lat="45.72835292731353" lon="11.2163061547272"><ele>699.0</ele><time>2026-04-26T08:50:02.994Z</time></trkpt><trkpt lat="45.728330060272434" lon="11.21618522231766"><ele>701.0</ele><time>2026-04-26T08:50:04.994Z</time></trkpt><trkpt lat="45.728354124518525" lon="11.216046303554412"><ele>703.0</ele><time>2026-04-26T08:50:06.994Z</time></trkpt><trkpt lat="45.72838817586462" lon="11.21596782097255"><ele>705.0</ele><time>2026-04-26T08:50:07.994Z</time></trkpt><trkpt lat="45.72839715845755" lon="11.215849405084583"><ele>707.0</ele><time>2026-04-26T08:50:09.994Z</time></trkpt><trkpt lat="45.728321058701994" lon="11.215876497911472"><ele>709.0</ele><time>2026-04-26T08:50:11.994Z</time></trkpt><trkpt lat="45.72825289240724" lon="11.215935783116109"><ele>711.0</ele><time>2026-04-26T08:50:12.994Z</time></trkpt><trkpt lat="45.72817776913896" lon="11.215951252238076"><ele>711.0</ele><time>2026-04-26T08:50:13.994Z</time></trkpt><trkpt lat="45.72810439110708" lon="11.215950341928004"><ele>711.0</ele><time>2026-04-26T08:50:14.994Z</time></trkpt><trkpt lat="45.72803838372829" lon="11.21594129187269"><ele>711.0</ele><time>2026-04-26T08:50:15.994Z</time></trkpt><trkpt lat="45.72797811361017" lon="11.215878091780205"><ele>711.0</ele><time>2026-04-26T08:50:17.994Z</time></trkpt><trkpt lat="45.728004433784974" lon="11.215748722487463"><ele>711.0</ele><time>2026-04-26T08:50:19.994Z</time></trkpt><trkpt lat="45.72806422464183" lon="11.2156989525009"><ele>711.0</ele><time>2026-04-26T08:50:20.994Z</time></trkpt><trkpt lat="45.728125021737654" lon="11.21562929099448"><ele>712.6666666666666</ele><time>2026-04-26T08:50:21.994Z</time></trkpt><trkpt lat="45.72817705457327" lon="11.215537906319605"><ele>714.3333333333334</ele><time>2026-04-26T08:50:22.994Z</time></trkpt><trkpt lat="45.72823101587478" lon="11.215444683399253"><ele>716.0</ele><time>2026-04-26T08:50:23.994Z</time></trkpt><trkpt lat="45.728279446403356" lon="11.215359296326506"><ele>717.6666666666667</ele><time>2026-04-26T08:50:24.993Z</time></trkpt><trkpt lat="45.72831735546379" lon="11.215283947379602"><ele>719.3333333333334</ele><time>2026-04-26T08:50:25.993Z</time></trkpt><trkpt lat="45.72834435495365" lon="11.215152428697422"><ele>721.0</ele><time>2026-04-26T08:50:27.993Z</time></trkpt><trkpt lat="45.728270983384874" lon="11.21505054694266"><ele>721.0</ele><time>2026-04-26T08:50:29.993Z</time></trkpt><trkpt lat="45.72817214672941" lon="11.215012804465077"><ele>721.0</ele><time>2026-04-26T08:50:31.993Z</time></trkpt><trkpt lat="45.7281090869133" lon="11.21488559148362"><ele>721.0</ele><time>2026-04-26T08:50:33.995Z</time></trkpt><trkpt lat="45.728111537454105" lon="11.214795380586432"><ele>721.0</ele><time>2026-04-26T08:50:34.995Z</time></trkpt><trkpt lat="45.72813087720661" lon="11.214697502665508"><ele>721.0</ele><time>2026-04-26T08:50:35.995Z</time></trkpt><trkpt lat="45.7281806413112" lon="11.21460535666365"><ele>721.0</ele><time>2026-04-26T08:50:36.995Z</time></trkpt><trkpt lat="45.72825705574238" lon="11.21454008934608"><ele>722.8</ele><time>2026-04-26T08:50:37.996Z</time></trkpt><trkpt lat="45.728345846474845" lon="11.214483769979456"><ele>724.5999999999999</ele><time>2026-04-26T08:50:38.996Z</time></trkpt><trkpt lat="45.728438278883665" lon="11.214426385381882"><ele>726.4</ele><time>2026-04-26T08:50:39.996Z</time></trkpt><trkpt lat="45.72852770701139" lon="11.214367524127706"><ele>728.2</ele><time>2026-04-26T08:50:40.996Z</time></trkpt><trkpt lat="45.728613212846625" lon="11.21430312842884"><ele>730.0</ele><time>2026-04-26T08:50:41.996Z</time></trkpt><trkpt lat="45.7286869040852" lon="11.214227072459055"><ele>730.2</ele><time>2026-04-26T08:50:42.996Z</time></trkpt><trkpt lat="45.72875711846385" lon="11.21415399247545"><ele>730.4</ele><time>2026-04-26T08:50:43.997Z</time></trkpt><trkpt lat="45.72880369035449" lon="11.214049627925723"><ele>730.5999999999999</ele><time>2026-04-26T08:50:44.997Z</time></trkpt><trkpt lat="45.728840940708544" lon="11.213931927142195"><ele>730.8</ele><time>2026-04-26T08:50:45.997Z</time></trkpt><trkpt lat="45.728869217653354" lon="11.213803092866616"><ele>731.0</ele><time>2026-04-26T08:50:46.997Z</time></trkpt><trkpt lat="45.7289058035154" lon="11.213674731532372"><ele>733.8</ele><time>2026-04-26T08:50:47.997Z</time></trkpt><trkpt lat="45.728959340105526" lon="11.213556915710406"><ele>736.5999999999999</ele><time>2026-04-26T08:50:48.997Z</time></trkpt><trkpt lat="45.72902509703201" lon="11.213446820746146"><ele>739.4</ele><time>2026-04-26T08:50:49.998Z</time></trkpt><trkpt lat="45.72909390612792" lon="11.213328174589575"><ele>742.2</ele><time>2026-04-26T08:50:50.998Z</time></trkpt><trkpt lat="45.729165430756474" lon="11.2132010568102"><ele>745.0</ele><time>2026-04-26T08:50:51.998Z</time></trkpt><trkpt lat="45.729229395702674" lon="11.213060286303959"><ele>745.75</ele><time>2026-04-26T08:50:52.998Z</time></trkpt><trkpt lat="45.72928812319156" lon="11.212909505063369"><ele>746.5</ele><time>2026-04-26T08:50:53.998Z</time></trkpt><trkpt lat="45.72935296033674" lon="11.212759807615177"><ele>747.25</ele><time>2026-04-26T08:50:54.998Z</time></trkpt><trkpt lat="45.72942216376579" lon="11.212612777797547"><ele>748.0</ele><time>2026-04-26T08:50:55.998Z</time></trkpt><trkpt lat="45.72949506013704" lon="11.212467174391398"><ele>748.0</ele><time>2026-04-26T08:50:56.998Z</time></trkpt><trkpt lat="45.72957569828531" lon="11.212329370326977"><ele>748.0</ele><time>2026-04-26T08:50:57.998Z</time></trkpt><trkpt lat="45.72967293036939" lon="11.212218740508002"><ele>748.0</ele><time>2026-04-26T08:50:58.998Z</time></trkpt><trkpt lat="45.7297655797261" lon="11.212104557862794"><ele>748.0</ele><time>2026-04-26T08:50:59.998Z</time></trkpt><trkpt lat="45.729853713747225" lon="11.211992986532447"><ele>750.2</ele><time>2026-04-26T08:51:00.998Z</time></trkpt><trkpt lat="45.729939249573306" lon="11.211891516677714"><ele>752.4</ele><time>2026-04-26T08:51:01.998Z</time></trkpt><trkpt lat="45.73002223313816" lon="11.211801386468862"><ele>754.6</ele><time>2026-04-26T08:51:02.998Z</time></trkpt><trkpt lat="45.730090418479435" lon="11.211709685840408"><ele>756.8000000000001</ele><time>2026-04-26T08:51:03.999Z</time></trkpt><trkpt lat="45.73014827405721" lon="11.211630244854547"><ele>759.0</ele><time>2026-04-26T08:51:04.999Z</time></trkpt><trkpt lat="45.73019092564125" lon="11.211555771694838"><ele>761.6</ele><time>2026-04-26T08:51:05.999Z</time></trkpt><trkpt lat="45.73019964962537" lon="11.211401113183417"><ele>764.2</ele><time>2026-04-26T08:51:07.999Z</time></trkpt><trkpt lat="45.73008612218819" lon="11.211330584753227"><ele>766.8000000000001</ele><time>2026-04-26T08:51:09.999Z</time></trkpt><trkpt lat="45.73001011625364" lon="11.211310064497402"><ele>769.4000000000001</ele><time>2026-04-26T08:51:10.999Z</time></trkpt><trkpt lat="45.7299286968956" lon="11.211284569130793"><ele>772.0</ele><time>2026-04-26T08:51:11.999Z</time></trkpt><trkpt lat="45.72984812254182" lon="11.211235577500883"><ele>772.0</ele><time>2026-04-26T08:51:12.999Z</time></trkpt><trkpt lat="45.729764580215694" lon="11.211170675733163"><ele>772.0</ele><time>2026-04-26T08:51:13.999Z</time></trkpt><trkpt lat="45.729681404003934" lon="11.211109157011286"><ele>772.0</ele><time>2026-04-26T08:51:14.999Z</time></trkpt><trkpt lat="45.72959553622025" lon="11.211059937106803"><ele>772.0</ele><time>2026-04-26T08:51:15.999Z</time></trkpt><trkpt lat="45.72950500906532" lon="11.21105992897123"><ele>772.0</ele><time>2026-04-26T08:51:16.999Z</time></trkpt><trkpt lat="45.72942131733429" lon="11.21109702818148"><ele>772.4999999999999</ele><time>2026-04-26T08:51:17.999Z</time></trkpt><trkpt lat="45.72934475263169" lon="11.211133193550143"><ele>773.0</ele><time>2026-04-26T08:51:18.999Z</time></trkpt><trkpt lat="45.72926545128453" lon="11.211148830098493"><ele>773.5</ele><time>2026-04-26T08:51:19.999Z</time></trkpt><trkpt lat="45.729194095481944" lon="11.21110757753066"><ele>774.0</ele><time>2026-04-26T08:51:20.999Z</time></trkpt><trkpt lat="45.729138873655536" lon="11.211041935003095"><ele>774.4999999999999</ele><time>2026-04-26T08:51:21.999Z</time></trkpt><trkpt lat="45.72909629760761" lon="11.210951680388433"><ele>775.0</ele><time>2026-04-26T08:51:22.999Z</time></trkpt><trkpt lat="45.72907576396347" lon="11.21084577159063"><ele>775.0</ele><time>2026-04-26T08:51:23.999Z</time></trkpt><trkpt lat="45.729052770954524" lon="11.210739127474223"><ele>775.0</ele><time>2026-04-26T08:51:24.999Z</time></trkpt><trkpt lat="45.729028024894774" lon="11.210638267879368"><ele>775.0</ele><time>2026-04-26T08:51:25.999Z</time></trkpt><trkpt lat="45.7290137183824" lon="11.21054328117531"><ele>775.0</ele><time>2026-04-26T08:51:26.999Z</time></trkpt><trkpt lat="45.729051348070186" lon="11.21039839339647"><ele>775.0</ele><time>2026-04-26T08:51:28.999Z</time></trkpt><trkpt lat="45.72917458891478" lon="11.210379275933452"><ele>776.4285714285713</ele><time>2026-04-26T08:51:30.999Z</time></trkpt><trkpt lat="45.72924005710727" lon="11.210362945962892"><ele>777.8571428571429</ele><time>2026-04-26T08:51:31.999Z</time></trkpt><trkpt lat="45.72929665816372" lon="11.210322995401295"><ele>779.2857142857142</ele><time>2026-04-26T08:51:32.999Z</time></trkpt><trkpt lat="45.72932021670087" lon="11.210239168746803"><ele>780.7142857142857</ele><time>2026-04-26T08:51:33.999Z</time></trkpt><trkpt lat="45.729349834019644" lon="11.210150563138507"><ele>782.1428571428571</ele><time>2026-04-26T08:51:34.999Z</time></trkpt><trkpt lat="45.72936445145762" lon="11.210043794185607"><ele>783.5714285714286</ele><time>2026-04-26T08:51:35.999Z</time></trkpt><trkpt lat="45.72937852243129" lon="11.20992730702521"><ele>785.0</ele><time>2026-04-26T08:51:36.999Z</time></trkpt><trkpt lat="45.72938059995838" lon="11.209807554965957"><ele>786.3333333333334</ele><time>2026-04-26T08:51:37.999Z</time></trkpt><trkpt lat="45.729388884694224" lon="11.20968478281576"><ele>787.6666666666667</ele><time>2026-04-26T08:51:38.999Z</time></trkpt><trkpt lat="45.72938600256362" lon="11.209563381261693"><ele>789.0</ele><time>2026-04-26T08:51:39.999Z</time></trkpt><trkpt lat="45.7293748723997" lon="11.20944597340253"><ele>790.3333333333333</ele><time>2026-04-26T08:51:40.999Z</time></trkpt><trkpt lat="45.72936604201209" lon="11.20935302838216"><ele>791.6666666666666</ele><time>2026-04-26T08:51:41.999Z</time></trkpt><trkpt lat="45.72929718748074" lon="11.209293629330576"><ele>793.0</ele><time>2026-04-26T08:51:43.999Z</time></trkpt><trkpt lat="45.72920358345777" lon="11.209251302898608"><ele>792.9999999999999</ele><time>2026-04-26T08:51:45.999Z</time></trkpt><trkpt lat="45.72915864476945" lon="11.209144855054165"><ele>793.0</ele><time>2026-04-26T08:51:47.999Z</time></trkpt><trkpt lat="45.729167407493755" lon="11.209047504827321"><ele>793.0</ele><time>2026-04-26T08:51:48.999Z</time></trkpt><trkpt lat="45.729183679307795" lon="11.208924358739425"><ele>793.0</ele><time>2026-04-26T08:51:49.999Z</time></trkpt><trkpt lat="45.72920486067691" lon="11.208789602015415"><ele>792.9999999999999</ele><time>2026-04-26T08:51:50.999Z</time></trkpt><trkpt lat="45.729232718483935" lon="11.208647024531837"><ele>793.0</ele><time>2026-04-26T08:51:51.999Z</time></trkpt><trkpt lat="45.72927285423115" lon="11.208494340418568"><ele>794.1428571428572</ele><time>2026-04-26T08:51:52.999Z</time></trkpt><trkpt lat="45.7293085994069" lon="11.20835378145982"><ele>795.2857142857143</ele><time>2026-04-26T08:51:53.999Z</time></trkpt><trkpt lat="45.72934503297457" lon="11.208252348235602"><ele>796.4285714285714</ele><time>2026-04-26T08:51:54.999Z</time></trkpt><trkpt lat="45.729384717813986" lon="11.208173576565995"><ele>797.5714285714287</ele><time>2026-04-26T08:51:55.999Z</time></trkpt><trkpt lat="45.72942999262719" lon="11.20810820940683"><ele>798.7142857142857</ele><time>2026-04-26T08:51:56.999Z</time></trkpt><trkpt lat="45.72948379932281" lon="11.208060135806175"><ele>799.8571428571429</ele><time>2026-04-26T08:51:57.999Z</time></trkpt><trkpt lat="45.72953696891842" lon="11.207998014176507"><ele>801.0</ele><time>2026-04-26T08:51:58.999Z</time></trkpt><trkpt lat="45.72959066882931" lon="11.20793780821795"><ele>804.1666666666666</ele><time>2026-04-26T08:51:59.999Z</time></trkpt><trkpt lat="45.72964711716726" lon="11.207883550435952"><ele>807.3333333333333</ele><time>2026-04-26T08:52:00.999Z</time></trkpt><trkpt lat="45.72967828400016" lon="11.207799018520728"><ele>810.5</ele><time>2026-04-26T08:52:01.999Z</time></trkpt><trkpt lat="45.72970736047592" lon="11.207701013974622"><ele>813.6666666666666</ele><time>2026-04-26T08:52:02.999Z</time></trkpt><trkpt lat="45.72975360110394" lon="11.20760774923381"><ele>816.8333333333333</ele><time>2026-04-26T08:52:03.998Z</time></trkpt><trkpt lat="45.72981096772287" lon="11.207511990511938"><ele>820.0</ele><time>2026-04-26T08:52:04.998Z</time></trkpt><trkpt lat="45.72986450151807" lon="11.207419951396576"><ele>819.9999999999999</ele><time>2026-04-26T08:52:05.998Z</time></trkpt><trkpt lat="45.72990607588624" lon="11.207348925102165"><ele>820.0</ele><time>2026-04-26T08:52:06.998Z</time></trkpt><trkpt lat="45.72993645966546" lon="11.207236912871965"><ele>820.0</ele><time>2026-04-26T08:52:08.998Z</time></trkpt><trkpt lat="45.72993388799963" lon="11.207112868171679"><ele>820.0</ele><time>2026-04-26T08:52:10.998Z</time></trkpt><trkpt lat="45.72985924786947" lon="11.2069729063762"><ele>819.9999999999999</ele><time>2026-04-26T08:52:12.998Z</time></trkpt><trkpt lat="45.72981394610334" lon="11.206894656913315"><ele>820.0</ele><time>2026-04-26T08:52:13.998Z</time></trkpt><trkpt lat="45.72975355934051" lon="11.2068455121052"><ele>818.9999999999999</ele><time>2026-04-26T08:52:14.998Z</time></trkpt><trkpt lat="45.72968289457163" lon="11.206805594971929"><ele>818.0</ele><time>2026-04-26T08:52:15.998Z</time></trkpt><trkpt lat="45.729600768015096" lon="11.206785977730506"><ele>817.0</ele><time>2026-04-26T08:52:16.998Z</time></trkpt><trkpt lat="45.729513680462674" lon="11.206764580092003"><ele>816.0</ele><time>2026-04-26T08:52:17.998Z</time></trkpt><trkpt lat="45.72942906967631" lon="11.206744391241763"><ele>814.9999999999999</ele><time>2026-04-26T08:52:18.998Z</time></trkpt><trkpt lat="45.729357036377785" lon="11.206721990699466"><ele>814.0</ele><time>2026-04-26T08:52:19.998Z</time></trkpt><trkpt lat="45.72927467152245" lon="11.206673816753993"><ele>813.9999999999999</ele><time>2026-04-26T08:52:21.998Z</time></trkpt><trkpt lat="45.72925748708145" lon="11.206583455364136"><ele>814.0</ele><time>2026-04-26T08:52:24.998Z</time></trkpt><trkpt lat="45.729309532703354" lon="11.206513818467814"><ele>814.0</ele><time>2026-04-26T08:52:26.998Z</time></trkpt><trkpt lat="45.72938261955944" lon="11.206391380267302"><ele>814.0</ele><time>2026-04-26T08:52:28.998Z</time></trkpt><trkpt lat="45.729430180858934" lon="11.206325282478105"><ele>813.9999999999999</ele><time>2026-04-26T08:52:29.998Z</time></trkpt><trkpt lat="45.72947602566976" lon="11.206243768403366"><ele>814.0</ele><time>2026-04-26T08:52:30.998Z</time></trkpt><trkpt lat="45.729558234572735" lon="11.206134577469012"><ele>822.6666666666666</ele><time>2026-04-26T08:52:32.998Z</time></trkpt><trkpt lat="45.72967043489607" lon="11.20610226743665"><ele>831.3333333333333</ele><time>2026-04-26T08:52:34.998Z</time></trkpt><trkpt lat="45.72978102098455" lon="11.206126250920192"><ele>840.0</ele><time>2026-04-26T08:52:36.998Z</time></trkpt><trkpt lat="45.729987072483354" lon="11.205916411015048"><ele>840.0</ele><time>2026-04-26T08:52:41.998Z</time></trkpt><trkpt lat="45.73001836793596" lon="11.205795186141163"><ele>840.0</ele><time>2026-04-26T08:52:42.998Z</time></trkpt><trkpt lat="45.7300427406891" lon="11.205664167645606"><ele>840.0</ele><time>2026-04-26T08:52:43.998Z</time></trkpt><trkpt lat="45.73004503090445" lon="11.205548801900282"><ele>840.0</ele><time>2026-04-26T08:52:44.998Z</time></trkpt><trkpt lat="45.73005790318186" lon="11.205430561538348"><ele>840.0</ele><time>2026-04-26T08:52:45.998Z</time></trkpt><trkpt lat="45.730066372293365" lon="11.205312635144159"><ele>840.0</ele><time>2026-04-26T08:52:46.998Z</time></trkpt><trkpt lat="45.730068876686055" lon="11.205210775800651"><ele>842.1666666666666</ele><time>2026-04-26T08:52:47.998Z</time></trkpt><trkpt lat="45.73007775987855" lon="11.205105341323588"><ele>844.3333333333333</ele><time>2026-04-26T08:52:48.998Z</time></trkpt><trkpt lat="45.73008953572721" lon="11.205012544631517"><ele>846.5</ele><time>2026-04-26T08:52:49.998Z</time></trkpt><trkpt lat="45.730137099370474" lon="11.204887595445223"><ele>848.6666666666666</ele><time>2026-04-26T08:52:51.998Z</time></trkpt><trkpt lat="45.7302460041301" lon="11.20479413011406"><ele>850.8333333333333</ele><time>2026-04-26T08:52:53.998Z</time></trkpt><trkpt lat="45.73030432467137" lon="11.204723583605293"><ele>853.0</ele><time>2026-04-26T08:52:54.998Z</time></trkpt><trkpt lat="45.73037514416119" lon="11.204613506925803"><ele>855.3333333333333</ele><time>2026-04-26T08:52:56.998Z</time></trkpt><trkpt lat="45.73037287874374" lon="11.204485649030948"><ele>857.6666666666666</ele><time>2026-04-26T08:52:59.998Z</time></trkpt><trkpt lat="45.73027991032292" lon="11.204500208002585"><ele>860.0</ele><time>2026-04-26T08:53:01.998Z</time></trkpt><trkpt lat="45.73021616175644" lon="11.20454154058245"><ele>862.3333333333333</ele><time>2026-04-26T08:53:02.998Z</time></trkpt><trkpt lat="45.73014467174362" lon="11.204565017372282"><ele>864.6666666666666</ele><time>2026-04-26T08:53:03.998Z</time></trkpt><trkpt lat="45.73006308253046" lon="11.204623248203722"><ele>867.0</ele><time>2026-04-26T08:53:05.998Z</time></trkpt><trkpt lat="45.72998818139554" lon="11.20462642753424"><ele>867.0</ele><time>2026-04-26T08:53:07.998Z</time></trkpt><trkpt lat="45.72994584976556" lon="11.20453272909031"><ele>867.0</ele><time>2026-04-26T08:53:09.998Z</time></trkpt><trkpt lat="45.72997845571593" lon="11.204429954302677"><ele>867.0</ele><time>2026-04-26T08:53:11.998Z</time></trkpt><trkpt lat="45.730041344574325" lon="11.20433497464573"><ele>867.0</ele><time>2026-04-26T08:53:12.998Z</time></trkpt><trkpt lat="45.73010486080935" lon="11.204236362708581"><ele>867.0</ele><time>2026-04-26T08:53:13.998Z</time></trkpt><trkpt lat="45.73017678013382" lon="11.204147114710752"><ele>867.0</ele><time>2026-04-26T08:53:14.998Z</time></trkpt><trkpt lat="45.73025862240435" lon="11.204062126257469"><ele>867.2857142857142</ele><time>2026-04-26T08:53:15.997Z</time></trkpt><trkpt lat="45.730320119593735" lon="11.20399697652121"><ele>867.5714285714287</ele><time>2026-04-26T08:53:16.997Z</time></trkpt><trkpt lat="45.73037633288094" lon="11.203939107156078"><ele>867.8571428571429</ele><time>2026-04-26T08:53:17.997Z</time></trkpt><trkpt lat="45.73042042583862" lon="11.20386211568515"><ele>868.1428571428571</ele><time>2026-04-26T08:53:18.997Z</time></trkpt><trkpt lat="45.73045612888517" lon="11.203774356221585"><ele>868.4285714285713</ele><time>2026-04-26T08:53:19.997Z</time></trkpt><trkpt lat="45.73048918189499" lon="11.203686354215758"><ele>868.7142857142858</ele><time>2026-04-26T08:53:20.997Z</time></trkpt><trkpt lat="45.730516544272554" lon="11.203603187504942"><ele>869.0</ele><time>2026-04-26T08:53:21.997Z</time></trkpt><trkpt lat="45.73055599347541" lon="11.203509425998995"><ele>871.8333333333334</ele><time>2026-04-26T08:53:22.997Z</time></trkpt><trkpt lat="45.730604541865056" lon="11.203389390199042"><ele>874.6666666666667</ele><time>2026-04-26T08:53:24.997Z</time></trkpt><trkpt lat="45.73064200709561" lon="11.203231369700147"><ele>877.5</ele><time>2026-04-26T08:53:26.997Z</time></trkpt><trkpt lat="45.73066525446577" lon="11.203142787620292"><ele>880.3333333333333</ele><time>2026-04-26T08:53:27.997Z</time></trkpt><trkpt lat="45.73068726081861" lon="11.203046621086974"><ele>883.1666666666666</ele><time>2026-04-26T08:53:28.997Z</time></trkpt><trkpt lat="45.730704087279506" lon="11.2029522934964"><ele>886.0</ele><time>2026-04-26T08:53:29.997Z</time></trkpt><trkpt lat="45.73072143760797" lon="11.202861651354198"><ele>889.5999999999999</ele><time>2026-04-26T08:53:30.997Z</time></trkpt><trkpt lat="45.730773880802325" lon="11.202715336251924"><ele>893.1999999999999</ele><time>2026-04-26T08:53:32.997Z</time></trkpt><trkpt lat="45.73082322653925" lon="11.202612342647933"><ele>896.8000000000001</ele><time>2026-04-26T08:53:34.997Z</time></trkpt><trkpt lat="45.73086596870472" lon="11.202534067033412"><ele>900.4000000000001</ele><time>2026-04-26T08:53:36.997Z</time></trkpt><trkpt lat="45.73093837671753" lon="11.202448338384503"><ele>904.0</ele><time>2026-04-26T08:53:38.997Z</time></trkpt><trkpt lat="45.73104988519" lon="11.202433384848597"><ele>903.8000000000001</ele><time>2026-04-26T08:53:40.997Z</time></trkpt><trkpt lat="45.73115044016697" lon="11.202375411215863"><ele>903.6000000000001</ele><time>2026-04-26T08:53:42.997Z</time></trkpt><trkpt lat="45.73126337520061" lon="11.202322245785684"><ele>903.4</ele><time>2026-04-26T08:53:44.997Z</time></trkpt><trkpt lat="45.73130053262069" lon="11.202242781534686"><ele>903.2</ele><time>2026-04-26T08:53:46.997Z</time></trkpt><trkpt lat="45.73125539772704" lon="11.202155475370041"><ele>903.0</ele><time>2026-04-26T08:53:49.997Z</time></trkpt><trkpt lat="45.73118329305171" lon="11.202243027510232"><ele>903.1666666666666</ele><time>2026-04-26T08:53:51.997Z</time></trkpt><trkpt lat="45.7311043949565" lon="11.202322530618355"><ele>903.3333333333333</ele><time>2026-04-26T08:53:53.997Z</time></trkpt><trkpt lat="45.731033277044396" lon="11.202385214848011"><ele>903.5</ele><time>2026-04-26T08:53:55.997Z</time></trkpt><trkpt lat="45.73095506979018" lon="11.202443276171135"><ele>903.6666666666666</ele><time>2026-04-26T08:53:57.997Z</time></trkpt><trkpt lat="45.73088235727848" lon="11.202511813665357"><ele>903.8333333333333</ele><time>2026-04-26T08:53:59.997Z</time></trkpt><trkpt lat="45.730824897228445" lon="11.2025990594183"><ele>904.0</ele><time>2026-04-26T08:54:01.997Z</time></trkpt><trkpt lat="45.730800810546505" lon="11.20268680165026"><ele>904.0</ele><time>2026-04-26T08:54:03.997Z</time></trkpt><trkpt lat="45.73075210855507" lon="11.202756718947997"><ele>904.0000000000001</ele><time>2026-04-26T08:54:07.997Z</time></trkpt><trkpt lat="45.73072688727985" lon="11.202672736642105"><ele>904.0000000000001</ele><time>2026-04-26T08:54:09.997Z</time></trkpt><trkpt lat="45.7307877623593" lon="11.20257165714722"><ele>904.0</ele><time>2026-04-26T08:54:11.997Z</time></trkpt><trkpt lat="45.730899565194164" lon="11.202475776682364"><ele>904.0</ele><time>2026-04-26T08:54:13.997Z</time></trkpt><trkpt lat="45.73098510826293" lon="11.202390581652711"><ele>905.6</ele><time>2026-04-26T08:54:14.997Z</time></trkpt><trkpt lat="45.73106741336577" lon="11.20229751738406"><ele>907.2</ele><time>2026-04-26T08:54:15.997Z</time></trkpt><trkpt lat="45.731143685524735" lon="11.20221656188277"><ele>908.8000000000001</ele><time>2026-04-26T08:54:16.997Z</time></trkpt><trkpt lat="45.73120338244385" lon="11.202134397950841"><ele>910.4000000000001</ele><time>2026-04-26T08:54:17.997Z</time></trkpt><trkpt lat="45.73126064553967" lon="11.202035982536975"><ele>912.0</ele><time>2026-04-26T08:54:18.997Z</time></trkpt><trkpt lat="45.73132160497844" lon="11.201936253062364"><ele>912.0</ele><time>2026-04-26T08:54:19.997Z</time></trkpt><trkpt lat="45.73138255679609" lon="11.201831102480698"><ele>912.0</ele><time>2026-04-26T08:54:20.997Z</time></trkpt><trkpt lat="45.73144288688282" lon="11.20173692249029"><ele>912.0</ele><time>2026-04-26T08:54:21.997Z</time></trkpt><trkpt lat="45.73150030893749" lon="11.201644834492091"><ele>912.0</ele><time>2026-04-26T08:54:22.997Z</time></trkpt><trkpt lat="45.73155478091788" lon="11.201569511053862"><ele>912.0</ele><time>2026-04-26T08:54:23.997Z</time></trkpt><trkpt lat="45.73163180253177" lon="11.20148807884672"><ele>912.0</ele><time>2026-04-26T08:54:25.997Z</time></trkpt><trkpt lat="45.73173869978801" lon="11.20145053640738"><ele>913.1666666666666</ele><time>2026-04-26T08:54:27.996Z</time></trkpt><trkpt lat="45.73184215915682" lon="11.20144892635844"><ele>914.3333333333333</ele><time>2026-04-26T08:54:30.996Z</time></trkpt><trkpt lat="45.73192334598661" lon="11.201432974209006"><ele>915.5</ele><time>2026-04-26T08:54:36.996Z</time></trkpt><trkpt lat="45.73200580087458" lon="11.201439964047106"><ele>916.6666666666666</ele><time>2026-04-26T08:55:07.996Z</time></trkpt><trkpt lat="45.73208129113087" lon="11.201433859270056"><ele>917.8333333333333</ele><time>2026-04-26T08:55:11.996Z</time></trkpt><trkpt lat="45.732152868117204" lon="11.201399317765976"><ele>919.0</ele><time>2026-04-26T08:55:14.996Z</time></trkpt><trkpt lat="45.73222868970193" lon="11.201337860940239"><ele>914.8333333333333</ele><time>2026-04-26T08:55:17.996Z</time></trkpt><trkpt lat="45.73225507744525" lon="11.201219704900575"><ele>910.6666666666666</ele><time>2026-04-26T08:55:20.996Z</time></trkpt><trkpt lat="45.732259893358076" lon="11.201088758315366"><ele>906.5</ele><time>2026-04-26T08:55:23.996Z</time></trkpt><trkpt lat="45.73221736686533" lon="11.200970935355368"><ele>902.3333333333333</ele><time>2026-04-26T08:55:26.996Z</time></trkpt><trkpt lat="45.7321681312179" lon="11.200878188917965"><ele>898.1666666666666</ele><time>2026-04-26T08:55:29.996Z</time></trkpt><trkpt lat="45.7321580669859" lon="11.20076257418842"><ele>894.0</ele><time>2026-04-26T08:55:31.996Z</time></trkpt><trkpt lat="45.73214470340051" lon="11.200652289298803"><ele>890.3333333333334</ele><time>2026-04-26T08:55:33.996Z</time></trkpt><trkpt lat="45.7321147382404" lon="11.200535906051986"><ele>886.6666666666667</ele><time>2026-04-26T08:55:36.996Z</time></trkpt><trkpt lat="45.7320717174981" lon="11.20045368582868"><ele>883.0</ele><time>2026-04-26T08:55:38.995Z</time></trkpt><trkpt lat="45.73202327757344" lon="11.200375308214872"><ele>879.3333333333334</ele><time>2026-04-26T08:55:48.995Z</time></trkpt><trkpt lat="45.73203164200486" lon="11.200262213778254"><ele>875.6666666666667</ele><time>2026-04-26T08:55:57.995Z</time></trkpt><trkpt lat="45.732033840789185" lon="11.200166033855306"><ele>872.0</ele><time>2026-04-26T08:55:59.995Z</time></trkpt><trkpt lat="45.73201995886142" lon="11.200035901241371"><ele>872.0</ele><time>2026-04-26T08:56:01.995Z</time></trkpt><trkpt lat="45.731990939613375" lon="11.199872773777068"><ele>872.0</ele><time>2026-04-26T08:56:03.995Z</time></trkpt><trkpt lat="45.73196207962341" lon="11.19977259452558"><ele>872.0</ele><time>2026-04-26T08:56:04.995Z</time></trkpt><trkpt lat="45.73192950615575" lon="11.199652516384548"><ele>872.0</ele><time>2026-04-26T08:56:05.995Z</time></trkpt><trkpt lat="45.731915220091" lon="11.19953196766152"><ele>872.0</ele><time>2026-04-26T08:56:06.995Z</time></trkpt><trkpt lat="45.73190485252265" lon="11.199411129800563"><ele>871.0</ele><time>2026-04-26T08:56:07.995Z</time></trkpt><trkpt lat="45.731895231452555" lon="11.19927750980255"><ele>870.0</ele><time>2026-04-26T08:56:08.995Z</time></trkpt><trkpt lat="45.73188033434308" lon="11.199126716034224"><ele>869.0</ele><time>2026-04-26T08:56:09.995Z</time></trkpt><trkpt lat="45.731865950482366" lon="11.198996923485998"><ele>868.0</ele><time>2026-04-26T08:56:10.995Z</time></trkpt><trkpt lat="45.73183448887735" lon="11.198869984314701"><ele>867.0</ele><time>2026-04-26T08:56:11.995Z</time></trkpt><trkpt lat="45.731802208898834" lon="11.198721340697634"><ele>872.2</ele><time>2026-04-26T08:56:12.995Z</time></trkpt><trkpt lat="45.7317731056996" lon="11.19858923771386"><ele>877.4000000000001</ele><time>2026-04-26T08:56:13.995Z</time></trkpt><trkpt lat="45.73174777209382" lon="11.198474941967792"><ele>882.5999999999999</ele><time>2026-04-26T08:56:14.995Z</time></trkpt><trkpt lat="45.73173340817511" lon="11.198342583800944"><ele>887.8</ele><time>2026-04-26T08:56:15.995Z</time></trkpt><trkpt lat="45.73171038028627" lon="11.198220170275203"><ele>893.0</ele><time>2026-04-26T08:56:16.995Z</time></trkpt><trkpt lat="45.73170203357103" lon="11.198048978792627"><ele>893.5999999999999</ele><time>2026-04-26T08:56:17.995Z</time></trkpt><trkpt lat="45.73171314982325" lon="11.197899324327086"><ele>894.1999999999999</ele><time>2026-04-26T08:56:18.995Z</time></trkpt><trkpt lat="45.731723223893255" lon="11.197761912532563"><ele>894.8</ele><time>2026-04-26T08:56:19.995Z</time></trkpt><trkpt lat="45.731742365470325" lon="11.197624293416991"><ele>895.4</ele><time>2026-04-26T08:56:20.995Z</time></trkpt><trkpt lat="45.73175471864033" lon="11.197502037573482"><ele>896.0</ele><time>2026-04-26T08:56:21.995Z</time></trkpt><trkpt lat="45.73177569478927" lon="11.197367799843297"><ele>898.6666666666667</ele><time>2026-04-26T08:56:22.995Z</time></trkpt><trkpt lat="45.731782423448855" lon="11.19723271295135"><ele>901.3333333333334</ele><time>2026-04-26T08:56:23.995Z</time></trkpt><trkpt lat="45.73176354124505" lon="11.197092096814563"><ele>904.0</ele><time>2026-04-26T08:56:24.995Z</time></trkpt><trkpt lat="45.73174026107169" lon="11.19696818199802"><ele>906.6666666666667</ele><time>2026-04-26T08:56:25.995Z</time></trkpt><trkpt lat="45.73172252803344" lon="11.196855787299688"><ele>909.3333333333334</ele><time>2026-04-26T08:56:26.995Z</time></trkpt><trkpt lat="45.73171593139663" lon="11.196755074857842"><ele>912.0</ele><time>2026-04-26T08:56:27.995Z</time></trkpt><trkpt lat="45.731722757760046" lon="11.196601210997581"><ele>914.8</ele><time>2026-04-26T08:56:29.995Z</time></trkpt><trkpt lat="45.731744668792025" lon="11.19650133231002"><ele>917.6</ele><time>2026-04-26T08:56:31.995Z</time></trkpt><trkpt lat="45.731795337313365" lon="11.19642999996341"><ele>920.3999999999999</ele><time>2026-04-26T08:56:33.995Z</time></trkpt><trkpt lat="45.73190737140389" lon="11.196526863907426"><ele>923.1999999999999</ele><time>2026-04-26T08:56:35.995Z</time></trkpt><trkpt lat="45.73201164232608" lon="11.196660498155873"><ele>926.0</ele><time>2026-04-26T08:56:36.995Z</time></trkpt><trkpt lat="45.732092626222375" lon="11.19677146145208"><ele>926.6666666666667</ele><time>2026-04-26T08:56:37.995Z</time></trkpt><trkpt lat="45.73215683625704" lon="11.19686845034123"><ele>927.3333333333334</ele><time>2026-04-26T08:56:38.995Z</time></trkpt><trkpt lat="45.732203893856465" lon="11.196942412647543"><ele>928.0</ele><time>2026-04-26T08:56:39.995Z</time></trkpt><trkpt lat="45.73226558752419" lon="11.197014136110921"><ele>928.6666666666667</ele><time>2026-04-26T08:56:40.995Z</time></trkpt><trkpt lat="45.73233045154056" lon="11.197077642923473"><ele>929.3333333333334</ele><time>2026-04-26T08:56:41.995Z</time></trkpt><trkpt lat="45.732406057105" lon="11.197113424696974"><ele>930.0</ele><time>2026-04-26T08:56:42.995Z</time></trkpt><trkpt lat="45.73247914179629" lon="11.19713356014702"><ele>930.0</ele><time>2026-04-26T08:56:43.995Z</time></trkpt><trkpt lat="45.73254588759608" lon="11.197157676095285"><ele>930.0</ele><time>2026-04-26T08:56:44.995Z</time></trkpt><trkpt lat="45.73261400823852" lon="11.197178389430544"><ele>930.0</ele><time>2026-04-26T08:56:45.995Z</time></trkpt><trkpt lat="45.73268815262191" lon="11.197221218314453"><ele>930.0</ele><time>2026-04-26T08:56:46.995Z</time></trkpt><trkpt lat="45.73274384622368" lon="11.197270774451255"><ele>930.0</ele><time>2026-04-26T08:56:47.995Z</time></trkpt><trkpt lat="45.732831197218346" lon="11.197331337018737"><ele>930.0</ele><time>2026-04-26T08:56:49.994Z</time></trkpt><trkpt lat="45.73291092624534" lon="11.197352774336316"><ele>927.6666666666666</ele><time>2026-04-26T08:56:51.994Z</time></trkpt><trkpt lat="45.73299519366727" lon="11.19736825696458"><ele>925.3333333333333</ele><time>2026-04-26T08:56:53.994Z</time></trkpt><trkpt lat="45.733053080259516" lon="11.197434055157501"><ele>923.0</ele><time>2026-04-26T08:56:55.994Z</time></trkpt><trkpt lat="45.73311690640635" lon="11.197482202728235"><ele>920.6666666666666</ele><time>2026-04-26T08:56:57.994Z</time></trkpt><trkpt lat="45.73321372087853" lon="11.197541894733082"><ele>918.3333333333333</ele><time>2026-04-26T08:56:59.994Z</time></trkpt><trkpt lat="45.733309679330276" lon="11.197525421276481"><ele>916.0</ele><time>2026-04-26T08:57:01.994Z</time></trkpt><trkpt lat="45.73339794220112" lon="11.197474681999443"><ele>915.9999999999999</ele><time>2026-04-26T08:57:03.994Z</time></trkpt><trkpt lat="45.73347322345228" lon="11.197430073048574"><ele>916.0</ele><time>2026-04-26T08:57:05.994Z</time></trkpt><trkpt lat="45.73356977319795" lon="11.197444152722692"><ele>916.0</ele><time>2026-04-26T08:57:07.994Z</time></trkpt><trkpt lat="45.73361578184351" lon="11.197510753124703"><ele>916.0</ele><time>2026-04-26T08:57:08.994Z</time></trkpt><trkpt lat="45.73365673693461" lon="11.19759407050825"><ele>915.9999999999999</ele><time>2026-04-26T08:57:09.994Z</time></trkpt><trkpt lat="45.733713144309384" lon="11.197685544309486"><ele>916.0</ele><time>2026-04-26T08:57:10.994Z</time></trkpt><trkpt lat="45.733772593484126" lon="11.197765955694686"><ele>916.6666666666666</ele><time>2026-04-26T08:57:11.994Z</time></trkpt><trkpt lat="45.733838179322824" lon="11.197842061156067"><ele>917.3333333333333</ele><time>2026-04-26T08:57:12.994Z</time></trkpt><trkpt lat="45.73391104364312" lon="11.197897097600226"><ele>918.0</ele><time>2026-04-26T08:57:13.994Z</time></trkpt><trkpt lat="45.733989617575496" lon="11.197916960724259"><ele>918.6666666666667</ele><time>2026-04-26T08:57:14.994Z</time></trkpt><trkpt lat="45.73406201833754" lon="11.197930834473077"><ele>919.3333333333334</ele><time>2026-04-26T08:57:15.994Z</time></trkpt><trkpt lat="45.73413042720817" lon="11.197939096236858"><ele>920.0</ele><time>2026-04-26T08:57:16.994Z</time></trkpt><trkpt lat="45.73420195564711" lon="11.197947316150936"><ele>920.0</ele><time>2026-04-26T08:57:17.994Z</time></trkpt><trkpt lat="45.73427544902581" lon="11.197956189544508"><ele>920.0</ele><time>2026-04-26T08:57:18.994Z</time></trkpt><trkpt lat="45.734394296817634" lon="11.197944785467453"><ele>920.0</ele><time>2026-04-26T08:57:20.994Z</time></trkpt><trkpt lat="45.73449039761888" lon="11.197848818636267"><ele>920.0</ele><time>2026-04-26T08:57:22.994Z</time></trkpt><trkpt lat="45.73456991738866" lon="11.197726043673754"><ele>920.0</ele><time>2026-04-26T08:57:24.994Z</time></trkpt><trkpt lat="45.73467363027283" lon="11.19765158184343"><ele>919.0000000000001</ele><time>2026-04-26T08:57:26.994Z</time></trkpt><trkpt lat="45.7347677411939" lon="11.197615688267902"><ele>918.0</ele><time>2026-04-26T08:57:28.994Z</time></trkpt><trkpt lat="45.73487814282886" lon="11.197694668619453"><ele>917.0</ele><time>2026-04-26T08:57:30.994Z</time></trkpt><trkpt lat="45.73493710739095" lon="11.197746751465013"><ele>916.0</ele><time>2026-04-26T08:57:31.994Z</time></trkpt><trkpt lat="45.73499924016167" lon="11.197774512906511"><ele>915.0000000000001</ele><time>2026-04-26T08:57:32.994Z</time></trkpt><trkpt lat="45.7350725910452" lon="11.197775623590998"><ele>914.0</ele><time>2026-04-26T08:57:33.994Z</time></trkpt><trkpt lat="45.73513269333346" lon="11.197743395137344"><ele>914.0</ele><time>2026-04-26T08:57:34.994Z</time></trkpt><trkpt lat="45.73519592141085" lon="11.197682079242718"><ele>914.0000000000001</ele><time>2026-04-26T08:57:35.994Z</time></trkpt><trkpt lat="45.735269438544144" lon="11.197610148554256"><ele>914.0000000000001</ele><time>2026-04-26T08:57:36.994Z</time></trkpt><trkpt lat="45.735354724699285" lon="11.197552179905786"><ele>914.0</ele><time>2026-04-26T08:57:37.994Z</time></trkpt><trkpt lat="45.735454204102" lon="11.197505979923061"><ele>914.0</ele><time>2026-04-26T08:57:38.994Z</time></trkpt><trkpt lat="45.735611688849744" lon="11.197457848290568"><ele>914.8000000000001</ele><time>2026-04-26T08:57:39.996Z</time></trkpt><trkpt lat="45.735706961113294" lon="11.197378370988531"><ele>915.6000000000001</ele><time>2026-04-26T08:57:40.996Z</time></trkpt><trkpt lat="45.73580273683842" lon="11.197300052733775"><ele>916.4</ele><time>2026-04-26T08:57:41.996Z</time></trkpt><trkpt lat="45.735879240015485" lon="11.197219487459577"><ele>917.2</ele><time>2026-04-26T08:57:42.996Z</time></trkpt><trkpt lat="45.735925857065546" lon="11.197133836836127"><ele>918.0</ele><time>2026-04-26T08:57:43.997Z</time></trkpt><trkpt lat="45.73597559571969" lon="11.197052351548182"><ele>918.0</ele><time>2026-04-26T08:57:44.997Z</time></trkpt><trkpt lat="45.73603200489748" lon="11.196988915495668"><ele>918.0</ele><time>2026-04-26T08:57:45.997Z</time></trkpt><trkpt lat="45.736151391069505" lon="11.19697012830889"><ele>918.0</ele><time>2026-04-26T08:57:47.997Z</time></trkpt><trkpt lat="45.73623601733752" lon="11.197038280213166"><ele>918.0</ele><time>2026-04-26T08:57:48.997Z</time></trkpt><trkpt lat="45.73632760633151" lon="11.197088718204805"><ele>918.0</ele><time>2026-04-26T08:57:49.998Z</time></trkpt><trkpt lat="45.7364329616173" lon="11.197109661682239"><ele>915.5</ele><time>2026-04-26T08:57:50.998Z</time></trkpt><trkpt lat="45.736535803974945" lon="11.197117044176723"><ele>913.0</ele><time>2026-04-26T08:57:51.998Z</time></trkpt><trkpt lat="45.736625374041026" lon="11.197115818759391"><ele>910.5</ele><time>2026-04-26T08:57:52.998Z</time></trkpt><trkpt lat="45.73671467672877" lon="11.19710765204408"><ele>908.0</ele><time>2026-04-26T08:57:53.998Z</time></trkpt><trkpt lat="45.736783754639056" lon="11.197063547926891"><ele>905.5</ele><time>2026-04-26T08:57:54.998Z</time></trkpt><trkpt lat="45.736858689773605" lon="11.197006169755978"><ele>903.0</ele><time>2026-04-26T08:57:55.998Z</time></trkpt><trkpt lat="45.73691867935081" lon="11.19691334551937"><ele>903.8333333333334</ele><time>2026-04-26T08:57:56.998Z</time></trkpt><trkpt lat="45.73698322427763" lon="11.196821261067699"><ele>904.6666666666667</ele><time>2026-04-26T08:57:57.998Z</time></trkpt><trkpt lat="45.73704346110823" lon="11.196732148247646"><ele>905.5</ele><time>2026-04-26T08:57:58.999Z</time></trkpt><trkpt lat="45.73710178236574" lon="11.196655881619645"><ele>906.3333333333334</ele><time>2026-04-26T08:57:59.999Z</time></trkpt><trkpt lat="45.73715738912114" lon="11.19658502021551"><ele>907.1666666666667</ele><time>2026-04-26T08:58:00.999Z</time></trkpt><trkpt lat="45.73721308253192" lon="11.196523278775976"><ele>908.0</ele><time>2026-04-26T08:58:01.999Z</time></trkpt><trkpt lat="45.73727654487954" lon="11.196475608282274"><ele>908.0</ele><time>2026-04-26T08:58:02.999Z</time></trkpt><trkpt lat="45.73734666030695" lon="11.19645117445589"><ele>908.0000000000001</ele><time>2026-04-26T08:58:03.999Z</time></trkpt><trkpt lat="45.73740970509335" lon="11.196420001313786"><ele>908.0</ele><time>2026-04-26T08:58:04.999Z</time></trkpt><trkpt lat="45.73746991183074" lon="11.196387203648246"><ele>908.0</ele><time>2026-04-26T08:58:05.999Z</time></trkpt><trkpt lat="45.73752752040041" lon="11.19634220184638"><ele>908.0000000000001</ele><time>2026-04-26T08:58:06.999Z</time></trkpt><trkpt lat="45.73758458862538" lon="11.19630032620546"><ele>908.0</ele><time>2026-04-26T08:58:07.999Z</time></trkpt><trkpt lat="45.737641983492374" lon="11.196262385052048"><ele>908.0</ele><time>2026-04-26T08:58:08.999Z</time></trkpt><trkpt lat="45.73773515764614" lon="11.19616821337908"><ele>904.4</ele><time>2026-04-26T08:58:10.999Z</time></trkpt><trkpt lat="45.737791302943904" lon="11.196038068424727"><ele>900.8</ele><time>2026-04-26T08:58:12.999Z</time></trkpt><trkpt lat="45.73786218108451" lon="11.195932688756486"><ele>897.2</ele><time>2026-04-26T08:58:14.999Z</time></trkpt><trkpt lat="45.737933281670465" lon="11.19584404115078"><ele>893.6</ele><time>2026-04-26T08:58:16.999Z</time></trkpt><trkpt lat="45.738005945069915" lon="11.195788833680316"><ele>890.0</ele><time>2026-04-26T08:58:18.999Z</time></trkpt><trkpt lat="45.73808569080373" lon="11.19572772178291"><ele>890.0</ele><time>2026-04-26T08:58:20.999Z</time></trkpt><trkpt lat="45.738190523615835" lon="11.195675057930325"><ele>890.0</ele><time>2026-04-26T08:58:22.999Z</time></trkpt><trkpt lat="45.738274254784024" lon="11.195615744332615"><ele>890.0</ele><time>2026-04-26T08:58:24.999Z</time></trkpt><trkpt lat="45.73833905462183" lon="11.195493246109963"><ele>890.0</ele><time>2026-04-26T08:58:26.999Z</time></trkpt><trkpt lat="45.73839394173423" lon="11.195351058579512"><ele>890.0</ele><time>2026-04-26T08:58:28.999Z</time></trkpt><trkpt lat="45.73845902742207" lon="11.195222449462483"><ele>891.6</ele><time>2026-04-26T08:58:30.999Z</time></trkpt><trkpt lat="45.73855807953501" lon="11.195129974769893"><ele>893.2</ele><time>2026-04-26T08:58:32.999Z</time></trkpt><trkpt lat="45.738678979566465" lon="11.195096600996076"><ele>894.8</ele><time>2026-04-26T08:58:34.999Z</time></trkpt><trkpt lat="45.7387604134824" lon="11.195127462039599"><ele>896.4</ele><time>2026-04-26T08:58:35.999Z</time></trkpt><trkpt lat="45.73885229149798" lon="11.195174763392881"><ele>898.0</ele><time>2026-04-26T08:58:36.999Z</time></trkpt><trkpt lat="45.73894758216159" lon="11.19522913790855"><ele>898.0</ele><time>2026-04-26T08:58:37.999Z</time></trkpt><trkpt lat="45.739034621772824" lon="11.195277103054227"><ele>898.0</ele><time>2026-04-26T08:58:38.999Z</time></trkpt><trkpt lat="45.739095893588754" lon="11.195330203712025"><ele>898.0</ele><time>2026-04-26T08:58:39.999Z</time></trkpt><trkpt lat="45.739177196392596" lon="11.195401734247623"><ele>898.0</ele><time>2026-04-26T08:58:41.999Z</time></trkpt><trkpt lat="45.73936862092597" lon="11.195233393863427"><ele>896.9999999999999</ele><time>2026-04-26T08:58:46.999Z</time></trkpt><trkpt lat="45.739491752414445" lon="11.19516465624672"><ele>896.0</ele><time>2026-04-26T08:58:48.999Z</time></trkpt><trkpt lat="45.73956466247582" lon="11.1951688396347"><ele>895.0</ele><time>2026-04-26T08:58:49.999Z</time></trkpt><trkpt lat="45.73963725232639" lon="11.195203695405214"><ele>894.0</ele><time>2026-04-26T08:58:50.999Z</time></trkpt><trkpt lat="45.739705844751796" lon="11.195271605860883"><ele>892.9999999999999</ele><time>2026-04-26T08:58:51.999Z</time></trkpt><trkpt lat="45.73976495933844" lon="11.195351120498326"><ele>892.0</ele><time>2026-04-26T08:58:52.999Z</time></trkpt><trkpt lat="45.73981729749857" lon="11.195421824183612"><ele>891.9999999999999</ele><time>2026-04-26T08:58:53.999Z</time></trkpt><trkpt lat="45.73987601050858" lon="11.195456729671337"><ele>892.0</ele><time>2026-04-26T08:58:54.999Z</time></trkpt><trkpt lat="45.73993196158128" lon="11.195499113891918"><ele>892.0</ele><time>2026-04-26T08:58:55.999Z</time></trkpt><trkpt lat="45.740037364252224" lon="11.195491646959574"><ele>892.0</ele><time>2026-04-26T08:58:57.999Z</time></trkpt><trkpt lat="45.74008189558313" lon="11.195427291459778"><ele>891.9999999999999</ele><time>2026-04-26T08:58:58.999Z</time></trkpt><trkpt lat="45.740152253352655" lon="11.195309529478548"><ele>892.0</ele><time>2026-04-26T08:59:00.999Z</time></trkpt><trkpt lat="45.74023271907324" lon="11.195251927400479"><ele>892.6</ele><time>2026-04-26T08:59:02.999Z</time></trkpt><trkpt lat="45.74031094780476" lon="11.195300185855908"><ele>893.2</ele><time>2026-04-26T08:59:04.999Z</time></trkpt><trkpt lat="45.74037200061663" lon="11.195361478296473"><ele>893.8</ele><time>2026-04-26T08:59:06.999Z</time></trkpt><trkpt lat="45.74044236907642" lon="11.195320900474067"><ele>894.4</ele><time>2026-04-26T08:59:08.999Z</time></trkpt><trkpt lat="45.740555150923136" lon="11.195302030960471"><ele>895.0</ele><time>2026-04-26T08:59:11.999Z</time></trkpt><trkpt lat="45.74065114656923" lon="11.195381282426535"><ele>895.0</ele><time>2026-04-26T08:59:13.999Z</time></trkpt><trkpt lat="45.74073774285068" lon="11.195566963113393"><ele>895.0</ele><time>2026-04-26T08:59:16.999Z</time></trkpt><trkpt lat="45.74077198034938" lon="11.195661552567126"><ele>895.0</ele><time>2026-04-26T08:59:17.999Z</time></trkpt><trkpt lat="45.74079534788148" lon="11.195751086462721"><ele>895.0</ele><time>2026-04-26T08:59:18.999Z</time></trkpt><trkpt lat="45.74083852137952" lon="11.195864208851571"><ele>895.0</ele><time>2026-04-26T08:59:19.999Z</time></trkpt><trkpt lat="45.740881519695805" lon="11.196002181116567"><ele>895.2</ele><time>2026-04-26T08:59:20.999Z</time></trkpt><trkpt lat="45.740934038907284" lon="11.196104898583762"><ele>895.4</ele><time>2026-04-26T08:59:21.999Z</time></trkpt><trkpt lat="45.74105972435072" lon="11.196193293819787"><ele>895.5999999999999</ele><time>2026-04-26T08:59:23.999Z</time></trkpt><trkpt lat="45.74114207549337" lon="11.196206417736004"><ele>895.8</ele><time>2026-04-26T08:59:24.999Z</time></trkpt><trkpt lat="45.7412255195085" lon="11.196191858866497"><ele>896.0</ele><time>2026-04-26T08:59:25.999Z</time></trkpt><trkpt lat="45.74131700889215" lon="11.196166338728588"><ele>896.0000000000001</ele><time>2026-04-26T08:59:26.999Z</time></trkpt><trkpt lat="45.741394824818556" lon="11.196139898334973"><ele>896.0</ele><time>2026-04-26T08:59:27.999Z</time></trkpt><trkpt lat="45.7414688141135" lon="11.196101815161386"><ele>896.0</ele><time>2026-04-26T08:59:28.999Z</time></trkpt><trkpt lat="45.74154876200382" lon="11.196081245327381"><ele>896.0</ele><time>2026-04-26T08:59:29.999Z</time></trkpt><trkpt lat="45.74162329513448" lon="11.196078499652751"><ele>896.0000000000001</ele><time>2026-04-26T08:59:30.999Z</time></trkpt><trkpt lat="45.74172478172837" lon="11.1960001827493"><ele>896.0</ele><time>2026-04-26T08:59:32.999Z</time></trkpt><trkpt lat="45.74175281346371" lon="11.195903096090241"><ele>896.0000000000001</ele><time>2026-04-26T08:59:34.999Z</time></trkpt><trkpt lat="45.741694142668315" lon="11.195756736127896"><ele>896.0</ele><time>2026-04-26T08:59:36.999Z</time></trkpt><trkpt lat="45.74167123019619" lon="11.195662477763285"><ele>896.0</ele><time>2026-04-26T08:59:37.999Z</time></trkpt><trkpt lat="45.741635802003024" lon="11.19557208404602"><ele>896.0</ele><time>2026-04-26T08:59:38.998Z</time></trkpt><trkpt lat="45.741592712298505" lon="11.195479025460447"><ele>896.0000000000001</ele><time>2026-04-26T08:59:39.998Z</time></trkpt><trkpt lat="45.74156056527943" lon="11.195398092397538"><ele>896.0</ele><time>2026-04-26T08:59:40.998Z</time></trkpt><trkpt lat="45.74152042250013" lon="11.19526280264108"><ele>899.5999999999999</ele><time>2026-04-26T08:59:42.998Z</time></trkpt><trkpt lat="45.741523407233764" lon="11.195127754234441"><ele>903.1999999999999</ele><time>2026-04-26T08:59:45.998Z</time></trkpt><trkpt lat="45.741576756300745" lon="11.195058999698288"><ele>906.8000000000001</ele><time>2026-04-26T08:59:47.998Z</time></trkpt><trkpt lat="45.74164845011757" lon="11.195019982706823"><ele>910.4000000000001</ele><time>2026-04-26T08:59:49.998Z</time></trkpt><trkpt lat="45.74180155654507" lon="11.195041453700252"><ele>914.0</ele><time>2026-04-26T08:59:52.998Z</time></trkpt><trkpt lat="45.74191070548367" lon="11.195039197268732"><ele>916.3333333333334</ele><time>2026-04-26T08:59:54.998Z</time></trkpt><trkpt lat="45.74202520197287" lon="11.194970073819302"><ele>918.6666666666667</ele><time>2026-04-26T08:59:56.998Z</time></trkpt><trkpt lat="45.742089595626965" lon="11.194950730688173"><ele>921.0</ele><time>2026-04-26T08:59:57.998Z</time></trkpt><trkpt lat="45.74216370496719" lon="11.194931375825108"><ele>923.3333333333333</ele><time>2026-04-26T08:59:58.998Z</time></trkpt><trkpt lat="45.74223917502943" lon="11.194889141594023"><ele>925.6666666666666</ele><time>2026-04-26T08:59:59.998Z</time></trkpt><trkpt lat="45.74230742147609" lon="11.194853870790002"><ele>928.0</ele><time>2026-04-26T09:00:00.998Z</time></trkpt><trkpt lat="45.74237779590223" lon="11.194821818005458"><ele>931.3333333333333</ele><time>2026-04-26T09:00:01.998Z</time></trkpt><trkpt lat="45.7424445229344" lon="11.194796280791518"><ele>934.6666666666666</ele><time>2026-04-26T09:00:02.998Z</time></trkpt><trkpt lat="45.74251833925543" lon="11.194761224517226"><ele>938.0</ele><time>2026-04-26T09:00:03.998Z</time></trkpt><trkpt lat="45.74259830624092" lon="11.194717998807384"><ele>941.3333333333333</ele><time>2026-04-26T09:00:04.998Z</time></trkpt><trkpt lat="45.742670810602824" lon="11.194678178390193"><ele>944.6666666666666</ele><time>2026-04-26T09:00:05.998Z</time></trkpt><trkpt lat="45.74274197770414" lon="11.194628998094142"><ele>948.0</ele><time>2026-04-26T09:00:06.998Z</time></trkpt><trkpt lat="45.74281461323284" lon="11.194584323394546"><ele>949.5999999999999</ele><time>2026-04-26T09:00:07.998Z</time></trkpt><trkpt lat="45.74289794967878" lon="11.194535880962105"><ele>951.1999999999999</ele><time>2026-04-26T09:00:08.998Z</time></trkpt><trkpt lat="45.742976504481405" lon="11.194486034720269"><ele>952.8</ele><time>2026-04-26T09:00:09.998Z</time></trkpt><trkpt lat="45.74303405917389" lon="11.19444726494077"><ele>954.4</ele><time>2026-04-26T09:00:10.998Z</time></trkpt><trkpt lat="45.743151295596185" lon="11.194384136216426"><ele>956.0</ele><time>2026-04-26T09:00:12.998Z</time></trkpt><trkpt lat="45.74326703072415" lon="11.194386243408376"><ele>956.0000000000001</ele><time>2026-04-26T09:00:14.998Z</time></trkpt><trkpt lat="45.74337565599117" lon="11.19438901524728"><ele>956.0</ele><time>2026-04-26T09:00:16.998Z</time></trkpt><trkpt lat="45.743467751675475" lon="11.194323388653721"><ele>956.0</ele><time>2026-04-26T09:00:18.998Z</time></trkpt><trkpt lat="45.74342460848032" lon="11.194255973390636"><ele>956.0</ele><time>2026-04-26T09:00:22.998Z</time></trkpt><trkpt lat="45.74335901091498" lon="11.194229742392926"><ele>956.0000000000001</ele><time>2026-04-26T09:00:23.998Z</time></trkpt><trkpt lat="45.74329481877697" lon="11.194152821346576"><ele>956.0</ele><time>2026-04-26T09:00:24.998Z</time></trkpt><trkpt lat="45.74322840532982" lon="11.19408135769594"><ele>956.0000000000001</ele><time>2026-04-26T09:00:25.998Z</time></trkpt><trkpt lat="45.74316773666657" lon="11.194023020055386"><ele>956.0</ele><time>2026-04-26T09:00:26.998Z</time></trkpt><trkpt lat="45.743108178896925" lon="11.193969638608696"><ele>956.0</ele><time>2026-04-26T09:00:27.998Z</time></trkpt><trkpt lat="45.74304549872979" lon="11.193905109298038"><ele>956.0</ele><time>2026-04-26T09:00:28.998Z</time></trkpt><trkpt lat="45.74298775291895" lon="11.193850578634068"><ele>956.0000000000001</ele><time>2026-04-26T09:00:29.998Z</time></trkpt><trkpt lat="45.74291122895364" lon="11.193782361831337"><ele>956.0</ele><time>2026-04-26T09:00:30.998Z</time></trkpt><trkpt lat="45.742841799677876" lon="11.193705698671165"><ele>958.3333333333334</ele><time>2026-04-26T09:00:31.998Z</time></trkpt><trkpt lat="45.74275913223827" lon="11.193639848827242"><ele>960.6666666666667</ele><time>2026-04-26T09:00:32.998Z</time></trkpt><trkpt lat="45.74269403470666" lon="11.193570340408204"><ele>963.0</ele><time>2026-04-26T09:00:33.998Z</time></trkpt><trkpt lat="45.742624067328734" lon="11.193497175516686"><ele>965.3333333333333</ele><time>2026-04-26T09:00:34.998Z</time></trkpt><trkpt lat="45.74255863912486" lon="11.19342285514726"><ele>967.6666666666666</ele><time>2026-04-26T09:00:35.998Z</time></trkpt><trkpt lat="45.74250823114264" lon="11.193358441525875"><ele>970.0</ele><time>2026-04-26T09:00:36.998Z</time></trkpt><trkpt lat="45.74244862232067" lon="11.193261589264111"><ele>970.0</ele><time>2026-04-26T09:00:38.998Z</time></trkpt><trkpt lat="45.74249386657673" lon="11.193170689101699"><ele>970.0</ele><time>2026-04-26T09:00:42.998Z</time></trkpt><trkpt lat="45.74260972309528" lon="11.19317608352362"><ele>970.0</ele><time>2026-04-26T09:00:44.998Z</time></trkpt><trkpt lat="45.74268905726257" lon="11.193186938803008"><ele>970.0</ele><time>2026-04-26T09:00:45.998Z</time></trkpt><trkpt lat="45.74281340616419" lon="11.19322448011375"><ele>970.0</ele><time>2026-04-26T09:00:46.998Z</time></trkpt><trkpt lat="45.74293465310275" lon="11.193255173788787"><ele>973.75</ele><time>2026-04-26T09:00:47.998Z</time></trkpt><trkpt lat="45.74307577725977" lon="11.193284882886948"><ele>977.5</ele><time>2026-04-26T09:00:48.998Z</time></trkpt><trkpt lat="45.74320733645894" lon="11.19331209524157"><ele>981.25</ele><time>2026-04-26T09:00:49.998Z</time></trkpt><trkpt lat="45.74332332204616" lon="11.193320992991147"><ele>985.0</ele><time>2026-04-26T09:00:50.997Z</time></trkpt><trkpt lat="45.7434316217311" lon="11.193340295705836"><ele>988.6</ele><time>2026-04-26T09:00:51.997Z</time></trkpt><trkpt lat="45.74355906908101" lon="11.193353450479773"><ele>992.2</ele><time>2026-04-26T09:00:52.997Z</time></trkpt><trkpt lat="45.7436771197375" lon="11.193334712784315"><ele>995.8</ele><time>2026-04-26T09:00:53.997Z</time></trkpt><trkpt lat="45.74375870073381" lon="11.193332458928026"><ele>999.4</ele><time>2026-04-26T09:00:54.997Z</time></trkpt><trkpt lat="45.74382213920904" lon="11.193333365431245"><ele>1003.0</ele><time>2026-04-26T09:00:55.997Z</time></trkpt><trkpt lat="45.74390607309316" lon="11.1933574379627"><ele>1002.9999999999999</ele><time>2026-04-26T09:00:57.997Z</time></trkpt><trkpt lat="45.74397374632459" lon="11.193296628246024"><ele>1003.0</ele><time>2026-04-26T09:00:59.997Z</time></trkpt><trkpt lat="45.74401079522168" lon="11.19322039384324"><ele>1003.0</ele><time>2026-04-26T09:01:01.997Z</time></trkpt><trkpt lat="45.74391895940077" lon="11.19320792440296"><ele>1003.0</ele><time>2026-04-26T09:01:04.997Z</time></trkpt><trkpt lat="45.743879066293324" lon="11.193130107593012"><ele>1002.9999999999999</ele><time>2026-04-26T09:01:07.997Z</time></trkpt><trkpt lat="45.74395163084843" lon="11.193078538216717"><ele>1003.0</ele><time>2026-04-26T09:01:17.997Z</time></trkpt><trkpt lat="45.74401366923085" lon="11.193114866258924"><ele>1002.9999999999999</ele><time>2026-04-26T09:01:18.997Z</time></trkpt><trkpt lat="45.74408933755033" lon="11.193146347682644"><ele>1003.0</ele><time>2026-04-26T09:01:19.997Z</time></trkpt><trkpt lat="45.74417140441002" lon="11.193206820328369"><ele>1003.0</ele><time>2026-04-26T09:01:20.997Z</time></trkpt><trkpt lat="45.74425596107597" lon="11.193271224432264"><ele>1003.0</ele><time>2026-04-26T09:01:21.997Z</time></trkpt><trkpt lat="45.74433543518937" lon="11.193329556846072"><ele>1002.9999999999999</ele><time>2026-04-26T09:01:22.997Z</time></trkpt><trkpt lat="45.744401549554894" lon="11.193384969711728"><ele>1003.0</ele><time>2026-04-26T09:01:23.997Z</time></trkpt><trkpt lat="45.744468810215444" lon="11.193441019910349"><ele>1008.9999999999999</ele><time>2026-04-26T09:01:24.997Z</time></trkpt><trkpt lat="45.74453743143232" lon="11.193476207595825"><ele>1015.0</ele><time>2026-04-26T09:01:25.997Z</time></trkpt><trkpt lat="45.7446097351338" lon="11.193497505301728"><ele>1021.0</ele><time>2026-04-26T09:01:26.997Z</time></trkpt><trkpt lat="45.744677650403126" lon="11.193522214589349"><ele>1027.0</ele><time>2026-04-26T09:01:27.997Z</time></trkpt><trkpt lat="45.744778140095875" lon="11.19361049105327"><ele>1033.0</ele><time>2026-04-26T09:01:29.997Z</time></trkpt><trkpt lat="45.744822492456784" lon="11.193685615259389"><ele>1039.0</ele><time>2026-04-26T09:01:30.997Z</time></trkpt><trkpt lat="45.74486221879305" lon="11.193763630767181"><ele>1039.0</ele><time>2026-04-26T09:01:31.997Z</time></trkpt><trkpt lat="45.74490640415033" lon="11.193839225471528"><ele>1039.0</ele><time>2026-04-26T09:01:32.997Z</time></trkpt><trkpt lat="45.74496510497801" lon="11.193937807727458"><ele>1039.0</ele><time>2026-04-26T09:01:33.997Z</time></trkpt><trkpt lat="45.745021078674185" lon="11.194061539198369"><ele>1039.0</ele><time>2026-04-26T09:01:34.997Z</time></trkpt><trkpt lat="45.745073892653096" lon="11.19419117092186"><ele>1039.0</ele><time>2026-04-26T09:01:35.997Z</time></trkpt><trkpt lat="45.745113420625025" lon="11.194343022624842"><ele>1041.6000000000001</ele><time>2026-04-26T09:01:36.997Z</time></trkpt><trkpt lat="45.74515030873152" lon="11.194504196096851"><ele>1044.2</ele><time>2026-04-26T09:01:37.997Z</time></trkpt><trkpt lat="45.745194106834504" lon="11.194661499661283"><ele>1046.8000000000002</ele><time>2026-04-26T09:01:38.997Z</time></trkpt><trkpt lat="45.74523043707995" lon="11.19479696049113"><ele>1049.4</ele><time>2026-04-26T09:01:39.997Z</time></trkpt><trkpt lat="45.74525503140511" lon="11.194935786997883"><ele>1052.0</ele><time>2026-04-26T09:01:40.997Z</time></trkpt><trkpt lat="45.74528801279699" lon="11.195062821016341"><ele>1052.0</ele><time>2026-04-26T09:01:41.997Z</time></trkpt><trkpt lat="45.745309707858034" lon="11.19519530972167"><ele>1052.0</ele><time>2026-04-26T09:01:42.997Z</time></trkpt><trkpt lat="45.7453220740015" lon="11.195344234326479"><ele>1052.0</ele><time>2026-04-26T09:01:43.997Z</time></trkpt><trkpt lat="45.74532628272122" lon="11.195482598377172"><ele>1052.0</ele><time>2026-04-26T09:01:44.997Z</time></trkpt><trkpt lat="45.745332985192675" lon="11.195587619714425"><ele>1052.0</ele><time>2026-04-26T09:01:45.997Z</time></trkpt><trkpt lat="45.7453456354874" lon="11.195676008414072"><ele>1052.0</ele><time>2026-04-26T09:01:46.997Z</time></trkpt><trkpt lat="45.745383914908814" lon="11.195830657382889"><ele>1047.6</ele><time>2026-04-26T09:01:48.997Z</time></trkpt><trkpt lat="45.74548543602651" lon="11.195939016946616"><ele>1043.2</ele><time>2026-04-26T09:01:50.997Z</time></trkpt><trkpt lat="45.74556683187678" lon="11.196002424148624"><ele>1038.8</ele><time>2026-04-26T09:01:51.997Z</time></trkpt><trkpt lat="45.74564253856799" lon="11.196111388376531"><ele>1034.4</ele><time>2026-04-26T09:01:52.997Z</time></trkpt><trkpt lat="45.74571032192951" lon="11.196219264422819"><ele>1030.0</ele><time>2026-04-26T09:01:53.997Z</time></trkpt><trkpt lat="45.74577020280641" lon="11.196290539869096"><ele>1030.0</ele><time>2026-04-26T09:01:54.997Z</time></trkpt><trkpt lat="45.7458305552475" lon="11.196339343573316"><ele>1030.0</ele><time>2026-04-26T09:01:55.997Z</time></trkpt><trkpt lat="45.745937373747786" lon="11.19642015069371"><ele>1030.0</ele><time>2026-04-26T09:01:57.997Z</time></trkpt><trkpt lat="45.74603062267896" lon="11.196475555667803"><ele>1030.0</ele><time>2026-04-26T09:01:59.997Z</time></trkpt><trkpt lat="45.746095798670424" lon="11.196451513134928"><ele>1030.0</ele><time>2026-04-26T09:02:01.997Z</time></trkpt><trkpt lat="45.74615892253328" lon="11.19639424834417"><ele>1030.0</ele><time>2026-04-26T09:02:03.996Z</time></trkpt><trkpt lat="45.74623280188716" lon="11.19630811216953"><ele>1031.2</ele><time>2026-04-26T09:02:05.996Z</time></trkpt><trkpt lat="45.74632323178787" lon="11.196241342346903"><ele>1032.4</ele><time>2026-04-26T09:02:07.996Z</time></trkpt><trkpt lat="45.74642127645741" lon="11.196161050831838"><ele>1033.6</ele><time>2026-04-26T09:02:09.996Z</time></trkpt><trkpt lat="45.746508821916294" lon="11.196087540667108"><ele>1034.8</ele><time>2026-04-26T09:02:11.996Z</time></trkpt><trkpt lat="45.74658337379538" lon="11.195944938033751"><ele>1036.0</ele><time>2026-04-26T09:02:13.996Z</time></trkpt><trkpt lat="45.746635184656114" lon="11.195804002941625"><ele>1036.0</ele><time>2026-04-26T09:02:15.996Z</time></trkpt><trkpt lat="45.746670429154506" lon="11.19570069445001"><ele>1036.0</ele><time>2026-04-26T09:02:17.996Z</time></trkpt><trkpt lat="45.746756326744325" lon="11.195687633444562"><ele>1036.0</ele><time>2026-04-26T09:02:20.996Z</time></trkpt><trkpt lat="45.74681851754874" lon="11.195721898391557"><ele>1036.0</ele><time>2026-04-26T09:02:21.996Z</time></trkpt><trkpt lat="45.746881540966484" lon="11.195738732169836"><ele>1036.0</ele><time>2026-04-26T09:02:22.996Z</time></trkpt><trkpt lat="45.7469799248026" lon="11.195660497450179"><ele>1036.0</ele><time>2026-04-26T09:02:24.996Z</time></trkpt><trkpt lat="45.74703679167821" lon="11.195607828916202"><ele>1039.0</ele><time>2026-04-26T09:02:25.996Z</time></trkpt><trkpt lat="45.747139782621524" lon="11.195529603864781"><ele>1042.0</ele><time>2026-04-26T09:02:27.996Z</time></trkpt><trkpt lat="45.74720753078049" lon="11.195458393982232"><ele>1045.0</ele><time>2026-04-26T09:02:29.996Z</time></trkpt><trkpt lat="45.74729937508931" lon="11.195307582325217"><ele>1048.0</ele><time>2026-04-26T09:02:31.996Z</time></trkpt><trkpt lat="45.74735682084517" lon="11.195168518141175"><ele>1048.0</ele><time>2026-04-26T09:02:33.996Z</time></trkpt><trkpt lat="45.74744022727914" lon="11.195085171210064"><ele>1048.0</ele><time>2026-04-26T09:02:35.996Z</time></trkpt><trkpt lat="45.7475062100361" lon="11.195084811779342"><ele>1048.0</ele><time>2026-04-26T09:02:36.996Z</time></trkpt><trkpt lat="45.7475734337428" lon="11.195083324879288"><ele>1048.0</ele><time>2026-04-26T09:02:37.996Z</time></trkpt><trkpt lat="45.74764914377057" lon="11.195094284120799"><ele>1048.0</ele><time>2026-04-26T09:02:38.996Z</time></trkpt><trkpt lat="45.74772683428474" lon="11.195091980528247"><ele>1048.0</ele><time>2026-04-26T09:02:39.996Z</time></trkpt><trkpt lat="45.74780953492804" lon="11.195067072026669"><ele>1043.4</ele><time>2026-04-26T09:02:40.996Z</time></trkpt><trkpt lat="45.74788970661294" lon="11.195010646952362"><ele>1038.8</ele><time>2026-04-26T09:02:41.996Z</time></trkpt><trkpt lat="45.74798415216908" lon="11.194981030219367"><ele>1034.2</ele><time>2026-04-26T09:02:42.996Z</time></trkpt><trkpt lat="45.74810359809763" lon="11.194985952593383"><ele>1029.6</ele><time>2026-04-26T09:02:43.996Z</time></trkpt><trkpt lat="45.748228630510184" lon="11.195020391158234"><ele>1025.0</ele><time>2026-04-26T09:02:44.996Z</time></trkpt><trkpt lat="45.748341748671955" lon="11.195071772160336"><ele>1025.0</ele><time>2026-04-26T09:02:45.996Z</time></trkpt><trkpt lat="45.74843257566642" lon="11.195096611850872"><ele>1025.0</ele><time>2026-04-26T09:02:46.996Z</time></trkpt><trkpt lat="45.748502415341726" lon="11.195113354125647"><ele>1025.0</ele><time>2026-04-26T09:02:47.996Z</time></trkpt><trkpt lat="45.74859759157714" lon="11.195130913395127"><ele>1025.0</ele><time>2026-04-26T09:02:48.996Z</time></trkpt><trkpt lat="45.74868582885738" lon="11.195115606866501"><ele>1025.0</ele><time>2026-04-26T09:02:49.996Z</time></trkpt><trkpt lat="45.748784203649535" lon="11.19506848974938"><ele>1025.0</ele><time>2026-04-26T09:02:50.996Z</time></trkpt><trkpt lat="45.74887337875696" lon="11.194978663932547"><ele>1025.0</ele><time>2026-04-26T09:02:51.996Z</time></trkpt><trkpt lat="45.74894468961923" lon="11.194850557695961"><ele>1025.0</ele><time>2026-04-26T09:02:52.996Z</time></trkpt><trkpt lat="45.74901370452883" lon="11.194754158252609"><ele>1025.0</ele><time>2026-04-26T09:02:53.996Z</time></trkpt><trkpt lat="45.7490890350295" lon="11.194678947329493"><ele>1025.0</ele><time>2026-04-26T09:02:54.996Z</time></trkpt><trkpt lat="45.74916721612767" lon="11.194636824800542"><ele>1037.3333333333335</ele><time>2026-04-26T09:02:55.996Z</time></trkpt><trkpt lat="45.74924835560578" lon="11.194623884233472"><ele>1049.6666666666667</ele><time>2026-04-26T09:02:56.996Z</time></trkpt><trkpt lat="45.74933287590647" lon="11.194592798704615"><ele>1062.0</ele><time>2026-04-26T09:02:57.996Z</time></trkpt><trkpt lat="45.74965070522327" lon="11.194710582811469"><ele>1062.0</ele><time>2026-04-26T09:03:00.996Z</time></trkpt><trkpt lat="45.74974531178729" lon="11.194800925020425"><ele>1062.0</ele><time>2026-04-26T09:03:01.996Z</time></trkpt><trkpt lat="45.74983658210438" lon="11.194924688000716"><ele>1062.0</ele><time>2026-04-26T09:03:02.996Z</time></trkpt><trkpt lat="45.74992065369641" lon="11.19506439884405"><ele>1062.0</ele><time>2026-04-26T09:03:03.996Z</time></trkpt><trkpt lat="45.749998499988074" lon="11.195202447473177"><ele>1061.0</ele><time>2026-04-26T09:03:04.996Z</time></trkpt><trkpt lat="45.75009632121728" lon="11.19531319441945"><ele>1060.0</ele><time>2026-04-26T09:03:05.996Z</time></trkpt><trkpt lat="45.750168642785134" lon="11.195415599809708"><ele>1059.0</ele><time>2026-04-26T09:03:06.996Z</time></trkpt><trkpt lat="45.7502163730199" lon="11.195516875080507"><ele>1058.0</ele><time>2026-04-26T09:03:07.996Z</time></trkpt><trkpt lat="45.750261606877" lon="11.195650708449932"><ele>1057.0</ele><time>2026-04-26T09:03:08.996Z</time></trkpt><trkpt lat="45.750328743035524" lon="11.19576215174575"><ele>1049.25</ele><time>2026-04-26T09:03:09.996Z</time></trkpt><trkpt lat="45.75039521663445" lon="11.195910063416571"><ele>1041.5</ele><time>2026-04-26T09:03:10.996Z</time></trkpt><trkpt lat="45.75046607135895" lon="11.196046692529078"><ele>1033.75</ele><time>2026-04-26T09:03:11.996Z</time></trkpt><trkpt lat="45.750545604006504" lon="11.196172108691806"><ele>1026.0</ele><time>2026-04-26T09:03:12.996Z</time></trkpt><trkpt lat="45.7506367204228" lon="11.196280666891113"><ele>1026.0</ele><time>2026-04-26T09:03:13.995Z</time></trkpt><trkpt lat="45.7507142521224" lon="11.196338069804534"><ele>1026.0</ele><time>2026-04-26T09:03:14.995Z</time></trkpt><trkpt lat="45.75080157654835" lon="11.196346569078093"><ele>1026.0</ele><time>2026-04-26T09:03:15.995Z</time></trkpt><trkpt lat="45.75089193556062" lon="11.1963353950487"><ele>1026.0</ele><time>2026-04-26T09:03:16.995Z</time></trkpt><trkpt lat="45.75096954758456" lon="11.196303652191581"><ele>1026.0</ele><time>2026-04-26T09:03:17.995Z</time></trkpt><trkpt lat="45.75104680706379" lon="11.196289089672806"><ele>1026.0</ele><time>2026-04-26T09:03:18.995Z</time></trkpt><trkpt lat="45.75113253771938" lon="11.196311302824506"><ele>1023.3333333333334</ele><time>2026-04-26T09:03:19.995Z</time></trkpt><trkpt lat="45.75121346224552" lon="11.196334650209105"><ele>1020.6666666666667</ele><time>2026-04-26T09:03:20.995Z</time></trkpt><trkpt lat="45.751301633958825" lon="11.196377515713513"><ele>1018.0</ele><time>2026-04-26T09:03:21.995Z</time></trkpt><trkpt lat="45.75138394536038" lon="11.196430619386847"><ele>1015.3333333333334</ele><time>2026-04-26T09:03:22.995Z</time></trkpt><trkpt lat="45.751450991214995" lon="11.196496905261071"><ele>1012.6666666666667</ele><time>2026-04-26T09:03:23.995Z</time></trkpt><trkpt lat="45.75150332205455" lon="11.196562799859016"><ele>1010.0</ele><time>2026-04-26T09:03:24.995Z</time></trkpt><trkpt lat="45.75155169772885" lon="11.196621562069176"><ele>1010.0</ele><time>2026-04-26T09:03:25.995Z</time></trkpt><trkpt lat="45.75164529904554" lon="11.196658634757897"><ele>1010.0</ele><time>2026-04-26T09:03:27.995Z</time></trkpt><trkpt lat="45.75171245661313" lon="11.196650703508029"><ele>1010.0</ele><time>2026-04-26T09:03:28.995Z</time></trkpt><trkpt lat="45.75178487717103" lon="11.19664620198571"><ele>1010.0</ele><time>2026-04-26T09:03:29.995Z</time></trkpt><trkpt lat="45.7518913342001" lon="11.196568472747295"><ele>1010.0</ele><time>2026-04-26T09:03:30.995Z</time></trkpt><trkpt lat="45.751985600469816" lon="11.196536672886033"><ele>1013.5</ele><time>2026-04-26T09:03:31.995Z</time></trkpt><trkpt lat="45.752098800822054" lon="11.196512886279695"><ele>1017.0</ele><time>2026-04-26T09:03:32.995Z</time></trkpt><trkpt lat="45.75220398784133" lon="11.196531309239324"><ele>1020.5</ele><time>2026-04-26T09:03:33.995Z</time></trkpt><trkpt lat="45.75230642070711" lon="11.196595096388206"><ele>1024.0</ele><time>2026-04-26T09:03:34.995Z</time></trkpt><trkpt lat="45.75241799508332" lon="11.196672355111927"><ele>1024.0</ele><time>2026-04-26T09:03:35.995Z</time></trkpt><trkpt lat="45.752520129326676" lon="11.196740437527524"><ele>1024.0</ele><time>2026-04-26T09:03:36.995Z</time></trkpt><trkpt lat="45.752618594776" lon="11.196788337243921"><ele>1024.0</ele><time>2026-04-26T09:03:37.995Z</time></trkpt><trkpt lat="45.75272055632526" lon="11.196837411339926"><ele>1024.0</ele><time>2026-04-26T09:03:38.995Z</time></trkpt><trkpt lat="45.75281992706924" lon="11.196893948764439"><ele>1024.0</ele><time>2026-04-26T09:03:39.995Z</time></trkpt><trkpt lat="45.75290243120865" lon="11.196966287070463"><ele>1025.2</ele><time>2026-04-26T09:03:40.995Z</time></trkpt><trkpt lat="45.75298167938004" lon="11.197049926865287"><ele>1026.4</ele><time>2026-04-26T09:03:41.995Z</time></trkpt><trkpt lat="45.753034370068626" lon="11.197127524367138"><ele>1027.6</ele><time>2026-04-26T09:03:42.995Z</time></trkpt><trkpt lat="45.75312613490006" lon="11.197233497725048"><ele>1028.8</ele><time>2026-04-26T09:03:44.995Z</time></trkpt><trkpt lat="45.75324429881526" lon="11.197287712627677"><ele>1030.0</ele><time>2026-04-26T09:03:46.995Z</time></trkpt><trkpt lat="45.75335698585558" lon="11.197342184748289"><ele>1030.0</ele><time>2026-04-26T09:03:48.995Z</time></trkpt><trkpt lat="45.75346861382178" lon="11.197409805788594"><ele>1030.0</ele><time>2026-04-26T09:03:50.995Z</time></trkpt><trkpt lat="45.75357772028195" lon="11.197481600863162"><ele>1030.0</ele><time>2026-04-26T09:03:52.995Z</time></trkpt><trkpt lat="45.75367891545347" lon="11.197499265065023"><ele>1030.0</ele><time>2026-04-26T09:03:54.995Z</time></trkpt><trkpt lat="45.75378194882592" lon="11.19745656237392"><ele>1035.0</ele><time>2026-04-26T09:03:56.995Z</time></trkpt><trkpt lat="45.75391858595325" lon="11.197420181481249"><ele>1040.0</ele><time>2026-04-26T09:03:58.995Z</time></trkpt><trkpt lat="45.753992522739864" lon="11.197396058159256"><ele>1045.0</ele><time>2026-04-26T09:03:59.995Z</time></trkpt><trkpt lat="45.75407512468086" lon="11.197496624855535"><ele>1050.0</ele><time>2026-04-26T09:04:01.995Z</time></trkpt><trkpt lat="45.75411535542964" lon="11.197654708170155"><ele>1055.0</ele><time>2026-04-26T09:04:03.995Z</time></trkpt><trkpt lat="45.7541187495716" lon="11.19776681333521"><ele>1055.0</ele><time>2026-04-26T09:04:04.995Z</time></trkpt><trkpt lat="45.754139361579625" lon="11.197931386933519"><ele>1055.0</ele><time>2026-04-26T09:04:05.995Z</time></trkpt><trkpt lat="45.75415663030892" lon="11.19808762696696"><ele>1055.0</ele><time>2026-04-26T09:04:06.995Z</time></trkpt><trkpt lat="45.75414887996024" lon="11.198226237428955"><ele>1055.0</ele><time>2026-04-26T09:04:07.995Z</time></trkpt><trkpt lat="45.75413553453479" lon="11.198330481117853"><ele>1055.0</ele><time>2026-04-26T09:04:08.995Z</time></trkpt><trkpt lat="45.75409520099049" lon="11.198416425859417"><ele>1055.1666666666667</ele><time>2026-04-26T09:04:09.995Z</time></trkpt><trkpt lat="45.75403052600412" lon="11.198467627556685"><ele>1055.3333333333335</ele><time>2026-04-26T09:04:10.995Z</time></trkpt><trkpt lat="45.75394627230934" lon="11.198470290590645"><ele>1055.5</ele><time>2026-04-26T09:04:11.995Z</time></trkpt><trkpt lat="45.753879205630895" lon="11.19845680059137"><ele>1055.6666666666667</ele><time>2026-04-26T09:04:12.995Z</time></trkpt><trkpt lat="45.75381424744305" lon="11.19845308725988"><ele>1055.8333333333333</ele><time>2026-04-26T09:04:13.995Z</time></trkpt><trkpt lat="45.75372740932835" lon="11.198476529742692"><ele>1056.0</ele><time>2026-04-26T09:04:15.995Z</time></trkpt><trkpt lat="45.75379401204016" lon="11.198521374126374"><ele>1056.0</ele><time>2026-04-26T09:04:19.995Z</time></trkpt><trkpt lat="45.75386566000733" lon="11.198447168195829"><ele>1056.0</ele><time>2026-04-26T09:04:20.995Z</time></trkpt><trkpt lat="45.753951313834385" lon="11.19837705782283"><ele>1056.0</ele><time>2026-04-26T09:04:22.995Z</time></trkpt><trkpt lat="45.75406815708677" lon="11.198366589347943"><ele>1056.0</ele><time>2026-04-26T09:04:24.995Z</time></trkpt><trkpt lat="45.75414127810805" lon="11.198370279459517"><ele>1056.0</ele><time>2026-04-26T09:04:25.994Z</time></trkpt><trkpt lat="45.754214823825336" lon="11.198366138373045"><ele>1056.0</ele><time>2026-04-26T09:04:26.994Z</time></trkpt><trkpt lat="45.75428177324524" lon="11.19836261625948"><ele>1056.0</ele><time>2026-04-26T09:04:27.994Z</time></trkpt><trkpt lat="45.754397243556504" lon="11.19835592568304"><ele>1056.0</ele><time>2026-04-26T09:04:29.994Z</time></trkpt><trkpt lat="45.7544654177985" lon="11.198343482282455"><ele>1056.0</ele><time>2026-04-26T09:04:31.994Z</time></trkpt><trkpt lat="45.75452026932666" lon="11.198292475371083"><ele>1056.0</ele><time>2026-04-26T09:05:26.999Z</time></trkpt><trkpt lat="45.75458818371699" lon="11.19829113778965"><ele>1056.0</ele><time>2026-04-26T09:09:58.995Z</time></trkpt><trkpt lat="45.75459540286175" lon="11.198198728714988"><ele>1056.0</ele><time>2026-04-26T09:10:15.995Z</time></trkpt><trkpt lat="45.754660719585694" lon="11.198237524601863"><ele>1058.1666666666667</ele><time>2026-04-26T09:11:14.994Z</time></trkpt><trkpt lat="45.75472687091254" lon="11.198229447052807"><ele>1060.3333333333333</ele><time>2026-04-26T09:11:16.994Z</time></trkpt><trkpt lat="45.75481093581328" lon="11.198156342061184"><ele>1062.5</ele><time>2026-04-26T09:11:19.994Z</time></trkpt><trkpt lat="45.75485123347029" lon="11.198071950448252"><ele>1064.6666666666665</ele><time>2026-04-26T09:11:21.994Z</time></trkpt><trkpt lat="45.754904853766625" lon="11.198012104781736"><ele>1066.8333333333333</ele><time>2026-04-26T09:11:23.994Z</time></trkpt><trkpt lat="45.75497316745445" lon="11.19793692618998"><ele>1069.0</ele><time>2026-04-26T09:11:26.994Z</time></trkpt><trkpt lat="45.755043860788376" lon="11.197904342939529"><ele>1072.0</ele><time>2026-04-26T09:11:29.994Z</time></trkpt><trkpt lat="45.755108256791374" lon="11.198002555372419"><ele>1075.0</ele><time>2026-04-26T09:11:32.994Z</time></trkpt><trkpt lat="45.755183755656255" lon="11.19804756476524"><ele>1078.0</ele><time>2026-04-26T09:11:34.994Z</time></trkpt><trkpt lat="45.755203549681205" lon="11.19783265984575"><ele>1081.0</ele><time>2026-04-26T09:11:44.994Z</time></trkpt><trkpt lat="45.755164511330996" lon="11.197721066080089"><ele>1084.0</ele><time>2026-04-26T09:11:48.993Z</time></trkpt><trkpt lat="45.755106352802976" lon="11.197630858746688"><ele>1084.0</ele><time>2026-04-26T09:11:51.995Z</time></trkpt><trkpt lat="45.75506342451607" lon="11.197521449032962"><ele>1084.0</ele><time>2026-04-26T09:11:54.996Z</time></trkpt><trkpt lat="45.75504682370046" lon="11.197392061711755"><ele>1084.0</ele><time>2026-04-26T09:11:57.996Z</time></trkpt><trkpt lat="45.75504361623082" lon="11.197283351640127"><ele>1084.0</ele><time>2026-04-26T09:11:59.997Z</time></trkpt><trkpt lat="45.75503901281438" lon="11.197151381351047"><ele>1084.0</ele><time>2026-04-26T09:12:01.997Z</time></trkpt><trkpt lat="45.75502821416405" lon="11.197003053478971"><ele>1085.8</ele><time>2026-04-26T09:12:03.997Z</time></trkpt><trkpt lat="45.75502048165349" lon="11.196873111016224"><ele>1087.6000000000001</ele><time>2026-04-26T09:12:05.998Z</time></trkpt><trkpt lat="45.755029027866755" lon="11.196747612165982"><ele>1089.4</ele><time>2026-04-26T09:12:07.998Z</time></trkpt><trkpt lat="45.75503615249828" lon="11.196617819482618"><ele>1091.2</ele><time>2026-04-26T09:12:09.998Z</time></trkpt><trkpt lat="45.75503135198921" lon="11.19646408752028"><ele>1093.0</ele><time>2026-04-26T09:12:11.998Z</time></trkpt><trkpt lat="45.75501073188534" lon="11.196324362523894"><ele>1093.8</ele><time>2026-04-26T09:12:13.998Z</time></trkpt><trkpt lat="45.754977373005936" lon="11.19621684245692"><ele>1094.6</ele><time>2026-04-26T09:12:15.999Z</time></trkpt><trkpt lat="45.75492274365139" lon="11.196120787007738"><ele>1095.4</ele><time>2026-04-26T09:12:17.999Z</time></trkpt><trkpt lat="45.75485131888178" lon="11.196035874515177"><ele>1096.2</ele><time>2026-04-26T09:12:19.999Z</time></trkpt><trkpt lat="45.75477327390829" lon="11.19593817984934"><ele>1097.0</ele><time>2026-04-26T09:12:21.999Z</time></trkpt><trkpt lat="45.754679681938576" lon="11.195824538033303"><ele>1097.0</ele><time>2026-04-26T09:12:23.999Z</time></trkpt><trkpt lat="45.75462457984084" lon="11.195728371795074"><ele>1097.0</ele><time>2026-04-26T09:12:25.999Z</time></trkpt><trkpt lat="45.754577349389706" lon="11.195618787284317"><ele>1097.0</ele><time>2026-04-26T09:12:27.999Z</time></trkpt><trkpt lat="45.75454223921201" lon="11.195496767665835"><ele>1097.0</ele><time>2026-04-26T09:12:29.999Z</time></trkpt><trkpt lat="45.75451075335245" lon="11.19539706734108"><ele>1097.0</ele><time>2026-04-26T09:12:31.999Z</time></trkpt><trkpt lat="45.754465992220425" lon="11.195325772209559"><ele>1097.0</ele><time>2026-04-26T09:12:33.999Z</time></trkpt><trkpt lat="45.754464918543334" lon="11.195148584367155"><ele>1094.8</ele><time>2026-04-26T09:12:36.999Z</time></trkpt><trkpt lat="45.75448928049876" lon="11.194994859062401"><ele>1092.6</ele><time>2026-04-26T09:12:38.999Z</time></trkpt><trkpt lat="45.7545167073026" lon="11.194853718738687"><ele>1090.3999999999999</ele><time>2026-04-26T09:12:40.999Z</time></trkpt><trkpt lat="45.754521037812665" lon="11.194718971776924"><ele>1088.2</ele><time>2026-04-26T09:12:42.999Z</time></trkpt><trkpt lat="45.75451741226992" lon="11.194567113230983"><ele>1086.0</ele><time>2026-04-26T09:12:44.999Z</time></trkpt><trkpt lat="45.754539678386664" lon="11.194448336960313"><ele>1082.142857142857</ele><time>2026-04-26T09:12:46.999Z</time></trkpt><trkpt lat="45.75453971736731" lon="11.194347636742041"><ele>1078.2857142857142</ele><time>2026-04-26T09:12:48.999Z</time></trkpt><trkpt lat="45.75449235416458" lon="11.194233587802357"><ele>1074.4285714285713</ele><time>2026-04-26T09:12:51.999Z</time></trkpt><trkpt lat="45.75448745318539" lon="11.194142215330595"><ele>1070.5714285714284</ele><time>2026-04-26T09:12:53.999Z</time></trkpt><trkpt lat="45.75447626186137" lon="11.19405033763626"><ele>1066.7142857142856</ele><time>2026-04-26T09:12:55.999Z</time></trkpt><trkpt lat="45.75447259263414" lon="11.193957873530387"><ele>1062.857142857143</ele><time>2026-04-26T09:12:56.999Z</time></trkpt><trkpt lat="45.754499748807376" lon="11.193844274073497"><ele>1059.0</ele><time>2026-04-26T09:12:58.999Z</time></trkpt><trkpt lat="45.75452486478622" lon="11.193740165458001"><ele>1056.3333333333333</ele><time>2026-04-26T09:13:00.999Z</time></trkpt><trkpt lat="45.75452233442775" lon="11.193626920129747"><ele>1053.6666666666667</ele><time>2026-04-26T09:13:02.999Z</time></trkpt><trkpt lat="45.75450549267936" lon="11.193512918991967"><ele>1051.0</ele><time>2026-04-26T09:13:04.999Z</time></trkpt><trkpt lat="45.754463631418695" lon="11.193409019484493"><ele>1048.3333333333335</ele><time>2026-04-26T09:13:07.999Z</time></trkpt><trkpt lat="45.7544526508714" lon="11.193316743983559"><ele>1045.6666666666667</ele><time>2026-04-26T09:13:10.999Z</time></trkpt><trkpt lat="45.754444592168284" lon="11.193200610942071"><ele>1043.0</ele><time>2026-04-26T09:13:14.999Z</time></trkpt><trkpt lat="45.75454132880209" lon="11.19292553848464"><ele>1043.0</ele><time>2026-04-26T09:13:19.999Z</time></trkpt><trkpt lat="45.754544637770834" lon="11.192804504631843"><ele>1043.0</ele><time>2026-04-26T09:13:21.999Z</time></trkpt><trkpt lat="45.75455046403271" lon="11.192676919933362"><ele>1043.0</ele><time>2026-04-26T09:13:23.999Z</time></trkpt><trkpt lat="45.75452033107759" lon="11.19256697993911"><ele>1043.0</ele><time>2026-04-26T09:13:25.999Z</time></trkpt><trkpt lat="45.75445910508761" lon="11.192468646796534"><ele>1043.0</ele><time>2026-04-26T09:13:27.999Z</time></trkpt><trkpt lat="45.75439742776225" lon="11.192361973258192"><ele>1043.0</ele><time>2026-04-26T09:13:29.999Z</time></trkpt><trkpt lat="45.754360746658485" lon="11.19226668689876"><ele>1043.8333333333335</ele><time>2026-04-26T09:13:31.999Z</time></trkpt><trkpt lat="45.75434947686473" lon="11.19216201135897"><ele>1044.6666666666667</ele><time>2026-04-26T09:13:32.999Z</time></trkpt><trkpt lat="45.754337222171614" lon="11.192022913273675"><ele>1045.5</ele><time>2026-04-26T09:13:34.999Z</time></trkpt><trkpt lat="45.75437904286214" lon="11.19195006467527"><ele>1046.3333333333333</ele><time>2026-04-26T09:13:36.999Z</time></trkpt><trkpt lat="45.75443969316831" lon="11.191831392776843"><ele>1047.1666666666665</ele><time>2026-04-26T09:13:38.999Z</time></trkpt><trkpt lat="45.75448130477368" lon="11.191736811079853"><ele>1048.0</ele><time>2026-04-26T09:13:40.999Z</time></trkpt><trkpt lat="45.75447679951368" lon="11.191631648287856"><ele>1048.0</ele><time>2026-04-26T09:13:43.998Z</time></trkpt><trkpt lat="45.75439973164472" lon="11.191585283449344"><ele>1048.0</ele><time>2026-04-26T09:13:46.998Z</time></trkpt><trkpt lat="45.75431615273282" lon="11.191540576246693"><ele>1048.0</ele><time>2026-04-26T09:13:48.998Z</time></trkpt><trkpt lat="45.754239701533585" lon="11.191485665238801"><ele>1048.0</ele><time>2026-04-26T09:13:50.998Z</time></trkpt><trkpt lat="45.754183463423615" lon="11.191394835695347"><ele>1048.0</ele><time>2026-04-26T09:13:52.998Z</time></trkpt><trkpt lat="45.75414808733269" lon="11.191295683612504"><ele>1048.0</ele><time>2026-04-26T09:13:54.998Z</time></trkpt><trkpt lat="45.75411008228824" lon="11.191195528592399"><ele>1053.4</ele><time>2026-04-26T09:13:56.998Z</time></trkpt><trkpt lat="45.75404505765468" lon="11.191102657590692"><ele>1058.8</ele><time>2026-04-26T09:13:58.998Z</time></trkpt><trkpt lat="45.75397451642675" lon="11.191031595453966"><ele>1064.2</ele><time>2026-04-26T09:14:00.998Z</time></trkpt><trkpt lat="45.753902204560426" lon="11.19094280968583"><ele>1069.6</ele><time>2026-04-26T09:14:02.998Z</time></trkpt><trkpt lat="45.753833531438424" lon="11.190818150093149"><ele>1075.0</ele><time>2026-04-26T09:14:04.998Z</time></trkpt><trkpt lat="45.753800941997355" lon="11.190664342677792"><ele>1075.0</ele><time>2026-04-26T09:14:06.998Z</time></trkpt><trkpt lat="45.753791327742746" lon="11.190485742228864"><ele>1075.0</ele><time>2026-04-26T09:14:08.998Z</time></trkpt><trkpt lat="45.75377448694949" lon="11.19035892058537"><ele>1075.0</ele><time>2026-04-26T09:14:09.998Z</time></trkpt><trkpt lat="45.7537641623895" lon="11.190230891086943"><ele>1075.0</ele><time>2026-04-26T09:14:10.998Z</time></trkpt><trkpt lat="45.75375127795187" lon="11.190111432024937"><ele>1075.0</ele><time>2026-04-26T09:14:11.998Z</time></trkpt><trkpt lat="45.75374899512805" lon="11.189993454900478"><ele>1075.0</ele><time>2026-04-26T09:14:12.998Z</time></trkpt><trkpt lat="45.75377485729059" lon="11.189897695733956"><ele>1075.0</ele><time>2026-04-26T09:14:13.998Z</time></trkpt><trkpt lat="45.75381523395147" lon="11.189813361315418"><ele>1075.0</ele><time>2026-04-26T09:14:14.998Z</time></trkpt><trkpt lat="45.75386746626208" lon="11.189729517500043"><ele>1075.0</ele><time>2026-04-26T09:14:15.998Z</time></trkpt><trkpt lat="45.75389614919912" lon="11.189646052626122"><ele>1075.0</ele><time>2026-04-26T09:14:16.998Z</time></trkpt><trkpt lat="45.75392491589724" lon="11.189557737537433"><ele>1075.0</ele><time>2026-04-26T09:14:17.998Z</time></trkpt><trkpt lat="45.75393722030292" lon="11.189390386036138"><ele>1076.6666666666665</ele><time>2026-04-26T09:14:19.998Z</time></trkpt><trkpt lat="45.75393021690221" lon="11.18929322168035"><ele>1078.3333333333333</ele><time>2026-04-26T09:14:20.998Z</time></trkpt><trkpt lat="45.75392209393374" lon="11.189200842045503"><ele>1080.0</ele><time>2026-04-26T09:14:21.998Z</time></trkpt><trkpt lat="45.75393441701656" lon="11.18910163330277"><ele>1081.6666666666667</ele><time>2026-04-26T09:14:22.998Z</time></trkpt><trkpt lat="45.75395274736649" lon="11.18898160243838"><ele>1083.3333333333335</ele><time>2026-04-26T09:14:23.998Z</time></trkpt><trkpt lat="45.75396707376884" lon="11.188873853383178"><ele>1085.0</ele><time>2026-04-26T09:14:24.998Z</time></trkpt><trkpt lat="45.753987341556574" lon="11.188746849827838"><ele>1087.6666666666667</ele><time>2026-04-26T09:14:25.998Z</time></trkpt><trkpt lat="45.75404468628556" lon="11.188663761432474"><ele>1090.3333333333335</ele><time>2026-04-26T09:14:26.998Z</time></trkpt><trkpt lat="45.75409116964305" lon="11.188582370130206"><ele>1093.0</ele><time>2026-04-26T09:14:27.998Z</time></trkpt><trkpt lat="45.754131426053846" lon="11.188493078235593"><ele>1095.6666666666667</ele><time>2026-04-26T09:14:28.998Z</time></trkpt><trkpt lat="45.75417080093151" lon="11.18838795798438"><ele>1098.3333333333333</ele><time>2026-04-26T09:14:29.998Z</time></trkpt><trkpt lat="45.75421062023764" lon="11.188276199155961"><ele>1101.0</ele><time>2026-04-26T09:14:30.998Z</time></trkpt><trkpt lat="45.75425193224716" lon="11.188152347481202"><ele>1096.2</ele><time>2026-04-26T09:14:31.998Z</time></trkpt><trkpt lat="45.754308683449274" lon="11.188017621679835"><ele>1091.3999999999999</ele><time>2026-04-26T09:14:32.998Z</time></trkpt><trkpt lat="45.75435088911369" lon="11.18787525473143"><ele>1086.6</ele><time>2026-04-26T09:14:33.998Z</time></trkpt><trkpt lat="45.75439282113442" lon="11.187745908025688"><ele>1081.8</ele><time>2026-04-26T09:14:34.998Z</time></trkpt><trkpt lat="45.7544381327017" lon="11.18763855637374"><ele>1077.0</ele><time>2026-04-26T09:14:35.998Z</time></trkpt><trkpt lat="45.75445588701073" lon="11.18753898790068"><ele>1077.0</ele><time>2026-04-26T09:14:36.998Z</time></trkpt><trkpt lat="45.75448089915822" lon="11.18743327531192"><ele>1077.0</ele><time>2026-04-26T09:14:37.998Z</time></trkpt><trkpt lat="45.75451061603263" lon="11.187349992284538"><ele>1077.0</ele><time>2026-04-26T09:14:38.998Z</time></trkpt><trkpt lat="45.754564414411746" lon="11.187185752252747"><ele>1077.0</ele><time>2026-04-26T09:14:40.998Z</time></trkpt><trkpt lat="45.75459692416197" lon="11.187024924294677"><ele>1077.0</ele><time>2026-04-26T09:14:42.998Z</time></trkpt><trkpt lat="45.75463382943372" lon="11.186907790717466"><ele>1081.0</ele><time>2026-04-26T09:14:44.998Z</time></trkpt><trkpt lat="45.754672051285766" lon="11.186791539418868"><ele>1085.0</ele><time>2026-04-26T09:14:46.998Z</time></trkpt><trkpt lat="45.75468088196539" lon="11.186675619394839"><ele>1089.0</ele><time>2026-04-26T09:14:49.998Z</time></trkpt><trkpt lat="45.75471499242792" lon="11.186587574894295"><ele>1093.0</ele><time>2026-04-26T09:14:51.998Z</time></trkpt><trkpt lat="45.75476384803582" lon="11.186488617265427"><ele>1097.0</ele><time>2026-04-26T09:14:53.998Z</time></trkpt><trkpt lat="45.754842626028925" lon="11.186370022595394"><ele>1101.0</ele><time>2026-04-26T09:14:55.998Z</time></trkpt><trkpt lat="45.75491613491233" lon="11.18629991148562"><ele>1098.0</ele><time>2026-04-26T09:14:56.998Z</time></trkpt><trkpt lat="45.755001994128925" lon="11.186228483807037"><ele>1095.0</ele><time>2026-04-26T09:14:57.997Z</time></trkpt><trkpt lat="45.7550613700325" lon="11.186152710392102"><ele>1092.0</ele><time>2026-04-26T09:14:58.997Z</time></trkpt><trkpt lat="45.755116421741945" lon="11.186075241950446"><ele>1089.0</ele><time>2026-04-26T09:14:59.997Z</time></trkpt><trkpt lat="45.75516864752649" lon="11.18598951757846"><ele>1086.0</ele><time>2026-04-26T09:15:00.997Z</time></trkpt><trkpt lat="45.7552250476452" lon="11.185872728630876"><ele>1083.0</ele><time>2026-04-26T09:15:01.997Z</time></trkpt><trkpt lat="45.75529765591431" lon="11.185753385064544"><ele>1087.6666666666667</ele><time>2026-04-26T09:15:02.997Z</time></trkpt><trkpt lat="45.75534342939777" lon="11.185633991500868"><ele>1092.3333333333333</ele><time>2026-04-26T09:15:03.997Z</time></trkpt><trkpt lat="45.75539058071969" lon="11.185554698655423"><ele>1097.0</ele><time>2026-04-26T09:15:04.997Z</time></trkpt><trkpt lat="45.755476061695404" lon="11.185417364938495"><ele>1101.6666666666665</ele><time>2026-04-26T09:15:06.997Z</time></trkpt><trkpt lat="45.75551850256715" lon="11.185335029991016"><ele>1106.3333333333333</ele><time>2026-04-26T09:15:07.997Z</time></trkpt><trkpt lat="45.75552593279007" lon="11.185236179560823"><ele>1111.0</ele><time>2026-04-26T09:15:08.997Z</time></trkpt><trkpt lat="45.755560818082444" lon="11.185136051028024"><ele>1111.0</ele><time>2026-04-26T09:15:09.997Z</time></trkpt><trkpt lat="45.755589902866525" lon="11.185035220921229"><ele>1111.0</ele><time>2026-04-26T09:15:10.997Z</time></trkpt><trkpt lat="45.75561633658916" lon="11.184941585924273"><ele>1111.0</ele><time>2026-04-26T09:15:11.997Z</time></trkpt><trkpt lat="45.75564087952317" lon="11.18485768179946"><ele>1111.0</ele><time>2026-04-26T09:15:12.997Z</time></trkpt><trkpt lat="45.75569380591322" lon="11.184734232680071"><ele>1111.0</ele><time>2026-04-26T09:15:14.997Z</time></trkpt><trkpt lat="45.755722260635224" lon="11.18461302134295"><ele>1111.0</ele><time>2026-04-26T09:15:16.997Z</time></trkpt><trkpt lat="45.75572986640281" lon="11.184495418713452"><ele>1116.8</ele><time>2026-04-26T09:15:18.997Z</time></trkpt><trkpt lat="45.75576984808731" lon="11.184322966255287"><ele>1122.6</ele><time>2026-04-26T09:15:20.997Z</time></trkpt><trkpt lat="45.75580217648388" lon="11.184226099644778"><ele>1128.4</ele><time>2026-04-26T09:15:21.997Z</time></trkpt><trkpt lat="45.75582086474661" lon="11.184134587055603"><ele>1134.2</ele><time>2026-04-26T09:15:22.997Z</time></trkpt><trkpt lat="45.75584073469088" lon="11.183967185195947"><ele>1140.0</ele><time>2026-04-26T09:15:24.997Z</time></trkpt><trkpt lat="45.755878009949015" lon="11.18387502566801"><ele>1142.8333333333333</ele><time>2026-04-26T09:15:25.997Z</time></trkpt><trkpt lat="45.755880665313676" lon="11.183778432480924"><ele>1145.6666666666667</ele><time>2026-04-26T09:15:26.997Z</time></trkpt><trkpt lat="45.75588561170772" lon="11.183683111734133"><ele>1148.5</ele><time>2026-04-26T09:15:27.997Z</time></trkpt><trkpt lat="45.75586573989256" lon="11.183569998529686"><ele>1151.3333333333335</ele><time>2026-04-26T09:15:28.997Z</time></trkpt><trkpt lat="45.75590993215891" lon="11.183495654171125"><ele>1154.1666666666667</ele><time>2026-04-26T09:15:29.997Z</time></trkpt><trkpt lat="45.755919750288825" lon="11.183344991422349"><ele>1157.0</ele><time>2026-04-26T09:15:31.997Z</time></trkpt><trkpt lat="45.75594097700844" lon="11.183214676372646"><ele>1156.6</ele><time>2026-04-26T09:15:33.997Z</time></trkpt><trkpt lat="45.75601095773893" lon="11.183130324842148"><ele>1156.2</ele><time>2026-04-26T09:15:34.997Z</time></trkpt><trkpt lat="45.75604107670942" lon="11.18302916549647"><ele>1155.8</ele><time>2026-04-26T09:15:35.997Z</time></trkpt><trkpt lat="45.756060098035654" lon="11.18288430052539"><ele>1155.4</ele><time>2026-04-26T09:15:37.997Z</time></trkpt><trkpt lat="45.75609002860225" lon="11.182770799762885"><ele>1155.0</ele><time>2026-04-26T09:15:39.997Z</time></trkpt><trkpt lat="45.75613502624901" lon="11.182617139706192"><ele>1154.4</ele><time>2026-04-26T09:15:41.997Z</time></trkpt><trkpt lat="45.756213533362335" lon="11.182547404336958"><ele>1153.8</ele><time>2026-04-26T09:15:43.997Z</time></trkpt><trkpt lat="45.75632652501203" lon="11.18246313548381"><ele>1153.2</ele><time>2026-04-26T09:15:45.997Z</time></trkpt><trkpt lat="45.756432763523854" lon="11.18236831167658"><ele>1152.6</ele><time>2026-04-26T09:15:47.997Z</time></trkpt><trkpt lat="45.756495447807396" lon="11.182343757332378"><ele>1152.0</ele><time>2026-04-26T09:15:48.997Z</time></trkpt><trkpt lat="45.75660589621562" lon="11.182304444721977"><ele>1152.0</ele><time>2026-04-26T09:15:50.997Z</time></trkpt><trkpt lat="45.756682746808785" lon="11.182262323845789"><ele>1152.0</ele><time>2026-04-26T09:15:51.997Z</time></trkpt><trkpt lat="45.75676019663659" lon="11.182202415258299"><ele>1152.0</ele><time>2026-04-26T09:15:52.997Z</time></trkpt><trkpt lat="45.7568330473765" lon="11.182141225412352"><ele>1152.0</ele><time>2026-04-26T09:15:53.997Z</time></trkpt><trkpt lat="45.75689936709703" lon="11.18209893095712"><ele>1152.0</ele><time>2026-04-26T09:15:54.997Z</time></trkpt><trkpt lat="45.75697060921925" lon="11.182062599180748"><ele>1152.0</ele><time>2026-04-26T09:15:55.997Z</time></trkpt><trkpt lat="45.75706761025643" lon="11.182014249860927"><ele>1150.6666666666667</ele><time>2026-04-26T09:15:56.997Z</time></trkpt><trkpt lat="45.75715175793063" lon="11.181963388030876"><ele>1149.3333333333333</ele><time>2026-04-26T09:15:57.997Z</time></trkpt><trkpt lat="45.75723876691565" lon="11.181938519393592"><ele>1148.0</ele><time>2026-04-26T09:15:58.997Z</time></trkpt><trkpt lat="45.75733570136669" lon="11.181917435372432"><ele>1146.6666666666665</ele><time>2026-04-26T09:16:00.997Z</time></trkpt><trkpt lat="45.75741789489901" lon="11.181944216520801"><ele>1145.3333333333333</ele><time>2026-04-26T09:16:02.997Z</time></trkpt><trkpt lat="45.7574703650053" lon="11.18201860315936"><ele>1144.0</ele><time>2026-04-26T09:16:04.997Z</time></trkpt><trkpt lat="45.7575303378622" lon="11.182063192842646"><ele>1144.0</ele><time>2026-04-26T09:16:07.997Z</time></trkpt><trkpt lat="45.7576406718694" lon="11.181990874235396"><ele>1144.0</ele><time>2026-04-26T09:16:21.996Z</time></trkpt><trkpt lat="45.75770018167707" lon="11.182044927834692"><ele>1144.0</ele><time>2026-04-26T09:16:30.996Z</time></trkpt><trkpt lat="45.75773609370823" lon="11.18212427381164"><ele>1144.0</ele><time>2026-04-26T09:16:34.996Z</time></trkpt><trkpt lat="45.75775760392489" lon="11.182352862345239"><ele>1144.0</ele><time>2026-04-26T09:17:18.996Z</time></trkpt><trkpt lat="45.75777233465645" lon="11.182479569431564"><ele>1146.5</ele><time>2026-04-26T09:17:19.996Z</time></trkpt><trkpt lat="45.75779825150718" lon="11.18264171895947"><ele>1149.0</ele><time>2026-04-26T09:17:20.996Z</time></trkpt><trkpt lat="45.75782242623751" lon="11.182837127148227"><ele>1151.5</ele><time>2026-04-26T09:17:21.996Z</time></trkpt><trkpt lat="45.75784701605837" lon="11.183042474089188"><ele>1154.0</ele><time>2026-04-26T09:17:22.996Z</time></trkpt><trkpt lat="45.75788026593802" lon="11.18326657621081"><ele>1154.0</ele><time>2026-04-26T09:17:23.996Z</time></trkpt><trkpt lat="45.757949784760605" lon="11.183476417865196"><ele>1154.0</ele><time>2026-04-26T09:17:24.996Z</time></trkpt><trkpt lat="45.758033170186515" lon="11.18368037780806"><ele>1154.0</ele><time>2026-04-26T09:17:25.996Z</time></trkpt><trkpt lat="45.75809931575298" lon="11.183888430835681"><ele>1147.3333333333335</ele><time>2026-04-26T09:17:26.996Z</time></trkpt><trkpt lat="45.758159048641765" lon="11.184108287145564"><ele>1140.6666666666667</ele><time>2026-04-26T09:17:27.996Z</time></trkpt><trkpt lat="45.75821286536627" lon="11.184324823819779"><ele>1134.0</ele><time>2026-04-26T09:17:28.996Z</time></trkpt><trkpt lat="45.75826079017036" lon="11.184534915757107"><ele>1134.0</ele><time>2026-04-26T09:17:29.995Z</time></trkpt><trkpt lat="45.75831334945838" lon="11.18472685347733"><ele>1134.0</ele><time>2026-04-26T09:17:30.995Z</time></trkpt><trkpt lat="45.75836735623149" lon="11.184897935633023"><ele>1134.0</ele><time>2026-04-26T09:17:31.995Z</time></trkpt><trkpt lat="45.758396366443584" lon="11.185077177535879"><ele>1134.0</ele><time>2026-04-26T09:17:32.995Z</time></trkpt><trkpt lat="45.75839909773027" lon="11.18523611039029"><ele>1130.8</ele><time>2026-04-26T09:17:33.995Z</time></trkpt><trkpt lat="45.758371244561545" lon="11.1853801095116"><ele>1127.6000000000001</ele><time>2026-04-26T09:17:34.995Z</time></trkpt><trkpt lat="45.7583192086315" lon="11.185498378841135"><ele>1124.4</ele><time>2026-04-26T09:17:35.995Z</time></trkpt><trkpt lat="45.758230285819" lon="11.185594366179897"><ele>1121.2</ele><time>2026-04-26T09:17:36.995Z</time></trkpt><trkpt lat="45.75813322886795" lon="11.185635886558398"><ele>1118.0</ele><time>2026-04-26T09:17:37.995Z</time></trkpt><trkpt lat="45.75804325754305" lon="11.185678740582464"><ele>1116.75</ele><time>2026-04-26T09:17:38.995Z</time></trkpt><trkpt lat="45.757962034194" lon="11.185749246088163"><ele>1115.5</ele><time>2026-04-26T09:17:39.995Z</time></trkpt><trkpt lat="45.75787452262971" lon="11.185901429709483"><ele>1114.25</ele><time>2026-04-26T09:17:40.995Z</time></trkpt><trkpt lat="45.7577789150665" lon="11.186036069621677"><ele>1113.0</ele><time>2026-04-26T09:17:41.995Z</time></trkpt><trkpt lat="45.75770377975346" lon="11.186167145879331"><ele>1108.4</ele><time>2026-04-26T09:17:42.995Z</time></trkpt><trkpt lat="45.75762097998651" lon="11.186271830401799"><ele>1103.8</ele><time>2026-04-26T09:17:43.995Z</time></trkpt><trkpt lat="45.75754990350403" lon="11.186363399921907"><ele>1099.2</ele><time>2026-04-26T09:17:44.995Z</time></trkpt><trkpt lat="45.757497091057495" lon="11.1864601951122"><ele>1094.6</ele><time>2026-04-26T09:17:45.995Z</time></trkpt><trkpt lat="45.75754009544083" lon="11.186614767359998"><ele>1090.0</ele><time>2026-04-26T09:17:46.995Z</time></trkpt><trkpt lat="45.75746754487758" lon="11.186623263210526"><ele>1088.2</ele><time>2026-04-26T09:17:48.995Z</time></trkpt><trkpt lat="45.75748306303941" lon="11.186483866427196"><ele>1086.4</ele><time>2026-04-26T09:17:50.995Z</time></trkpt><trkpt lat="45.75750428330051" lon="11.186371072041522"><ele>1084.6</ele><time>2026-04-26T09:17:51.995Z</time></trkpt><trkpt lat="45.75753701660038" lon="11.186231221236888"><ele>1082.8</ele><time>2026-04-26T09:17:52.995Z</time></trkpt><trkpt lat="45.75759865346798" lon="11.186122865051631"><ele>1081.0</ele><time>2026-04-26T09:17:53.995Z</time></trkpt><trkpt lat="45.757646691375264" lon="11.1860295736164"><ele>1081.0</ele><time>2026-04-26T09:17:54.995Z</time></trkpt><trkpt lat="45.757679362912576" lon="11.185902953323227"><ele>1081.0</ele><time>2026-04-26T09:17:55.995Z</time></trkpt><trkpt lat="45.7576746737764" lon="11.185780807519295"><ele>1081.0</ele><time>2026-04-26T09:17:56.995Z</time></trkpt><trkpt lat="45.75765561301823" lon="11.18569134649937"><ele>1081.0</ele><time>2026-04-26T09:17:57.995Z</time></trkpt><trkpt lat="45.75761259584495" lon="11.1855557738099"><ele>1081.0</ele><time>2026-04-26T09:17:59.995Z</time></trkpt><trkpt lat="45.757609863441935" lon="11.185449806814987"><ele>1081.0</ele><time>2026-04-26T09:18:01.995Z</time></trkpt><trkpt lat="45.75764196457719" lon="11.185338071318203"><ele>1081.0</ele><time>2026-04-26T09:18:03.995Z</time></trkpt><trkpt lat="45.75766020719704" lon="11.185251230750396"><ele>1081.0</ele><time>2026-04-26T09:18:05.995Z</time></trkpt><trkpt lat="45.75768804522937" lon="11.185149884829592"><ele>1081.0</ele><time>2026-04-26T09:18:13.995Z</time></trkpt><trkpt lat="45.75769797869425" lon="11.185058958424335"><ele>1081.0</ele><time>2026-04-26T09:18:16.995Z</time></trkpt></trkseg><trkseg><trkpt lat="45.757677833754066" lon="11.185231529796772"><ele>1081.0</ele><time>2026-04-26T09:42:24.988Z</time></trkpt><trkpt lat="45.75764296502657" lon="11.18533053017718"><ele>1081.0</ele><time>2026-04-26T09:42:26.988Z</time></trkpt><trkpt lat="45.75754851222179" lon="11.185499046037258"><ele>1081.0</ele><time>2026-04-26T09:42:29.988Z</time></trkpt><trkpt lat="45.757531480281735" lon="11.185641060403919"><ele>1081.0</ele><time>2026-04-26T09:42:31.988Z</time></trkpt><trkpt lat="45.757522519298156" lon="11.185730572378665"><ele>1081.0</ele><time>2026-04-26T09:42:32.988Z</time></trkpt><trkpt lat="45.757517123299564" lon="11.185891279033864"><ele>1081.0</ele><time>2026-04-26T09:42:34.989Z</time></trkpt><trkpt lat="45.75751096538178" lon="11.185982967180184"><ele>1081.0</ele><time>2026-04-26T09:42:35.99Z</time></trkpt><trkpt lat="45.75747460790729" lon="11.186151939753746"><ele>1081.0</ele><time>2026-04-26T09:42:37.991Z</time></trkpt><trkpt lat="45.75744251373078" lon="11.186237588666629"><ele>1081.0</ele><time>2026-04-26T09:42:38.992Z</time></trkpt><trkpt lat="45.75740801658362" lon="11.186331891998465"><ele>1081.0</ele><time>2026-04-26T09:42:39.992Z</time></trkpt><trkpt lat="45.75737058587783" lon="11.186435551737171"><ele>1081.0</ele><time>2026-04-26T09:42:40.993Z</time></trkpt><trkpt lat="45.75733301501081" lon="11.18653890535666"><ele>1082.8</ele><time>2026-04-26T09:42:41.993Z</time></trkpt><trkpt lat="45.75730770662608" lon="11.186692253117306"><ele>1084.6</ele><time>2026-04-26T09:42:43.994Z</time></trkpt><trkpt lat="45.75739566027984" lon="11.186760095855266"><ele>1086.4</ele><time>2026-04-26T09:42:45.995Z</time></trkpt><trkpt lat="45.75749503835568" lon="11.186699800686124"><ele>1088.2</ele><time>2026-04-26T09:42:46.995Z</time></trkpt><trkpt lat="45.75756481277977" lon="11.186627155381288"><ele>1090.0</ele><time>2026-04-26T09:42:47.995Z</time></trkpt><trkpt lat="45.757611509652726" lon="11.186536437902676"><ele>1088.2</ele><time>2026-04-26T09:42:48.995Z</time></trkpt><trkpt lat="45.75767460111644" lon="11.18643169276485"><ele>1086.4</ele><time>2026-04-26T09:42:49.995Z</time></trkpt><trkpt lat="45.75773555166346" lon="11.186301049106794"><ele>1084.6</ele><time>2026-04-26T09:42:50.995Z</time></trkpt><trkpt lat="45.757791549339274" lon="11.18617426879707"><ele>1082.8</ele><time>2026-04-26T09:42:51.995Z</time></trkpt><trkpt lat="45.75784365451144" lon="11.186060244050907"><ele>1081.0</ele><time>2026-04-26T09:42:52.996Z</time></trkpt><trkpt lat="45.75788443401751" lon="11.185948206102434"><ele>1086.3333333333333</ele><time>2026-04-26T09:42:53.996Z</time></trkpt><trkpt lat="45.75792850929581" lon="11.18585099332925"><ele>1091.6666666666665</ele><time>2026-04-26T09:42:54.996Z</time></trkpt><trkpt lat="45.757976459351944" lon="11.18576411332775"><ele>1097.0</ele><time>2026-04-26T09:42:55.996Z</time></trkpt><trkpt lat="45.758042325090905" lon="11.185699106736347"><ele>1102.3333333333333</ele><time>2026-04-26T09:42:56.996Z</time></trkpt><trkpt lat="45.75812611163526" lon="11.185658532246128"><ele>1107.6666666666667</ele><time>2026-04-26T09:42:57.996Z</time></trkpt><trkpt lat="45.758210539948486" lon="11.185618706528674"><ele>1113.0</ele><time>2026-04-26T09:42:58.996Z</time></trkpt><trkpt lat="45.75827878836924" lon="11.185541112913127"><ele>1114.0</ele><time>2026-04-26T09:42:59.996Z</time></trkpt><trkpt lat="45.75832048233648" lon="11.185425631976228"><ele>1115.0</ele><time>2026-04-26T09:43:00.996Z</time></trkpt><trkpt lat="45.7583398824083" lon="11.185295013803989"><ele>1116.0</ele><time>2026-04-26T09:43:01.996Z</time></trkpt><trkpt lat="45.758331631491984" lon="11.18514516241322"><ele>1117.0</ele><time>2026-04-26T09:43:02.996Z</time></trkpt><trkpt lat="45.75831396870619" lon="11.184999467674855"><ele>1118.0</ele><time>2026-04-26T09:43:03.996Z</time></trkpt><trkpt lat="45.75827424687162" lon="11.184866260511363"><ele>1121.2</ele><time>2026-04-26T09:43:04.996Z</time></trkpt><trkpt lat="45.75822900772467" lon="11.184732002344832"><ele>1124.4</ele><time>2026-04-26T09:43:05.997Z</time></trkpt><trkpt lat="45.7581828346049" lon="11.184601892798204"><ele>1127.6000000000001</ele><time>2026-04-26T09:43:06.997Z</time></trkpt><trkpt lat="45.75813630882773" lon="11.184473845963375"><ele>1130.8</ele><time>2026-04-26T09:43:07.997Z</time></trkpt><trkpt lat="45.758096368707854" lon="11.18433771194065"><ele>1134.0</ele><time>2026-04-26T09:43:08.997Z</time></trkpt><trkpt lat="45.758057537622825" lon="11.184201164473553"><ele>1134.0</ele><time>2026-04-26T09:43:09.997Z</time></trkpt><trkpt lat="45.758021461221674" lon="11.184075771504986"><ele>1134.0</ele><time>2026-04-26T09:43:10.997Z</time></trkpt><trkpt lat="45.7579799202163" lon="11.183963102671848"><ele>1134.0</ele><time>2026-04-26T09:43:11.997Z</time></trkpt><trkpt lat="45.75794176098985" lon="11.183851775802808"><ele>1134.0</ele><time>2026-04-26T09:43:12.997Z</time></trkpt><trkpt lat="45.757913297291374" lon="11.18374557975398"><ele>1134.0</ele><time>2026-04-26T09:43:13.997Z</time></trkpt><trkpt lat="45.75788712885985" lon="11.183659919326827"><ele>1134.0</ele><time>2026-04-26T09:43:14.997Z</time></trkpt><trkpt lat="45.75786013401302" lon="11.183577892777985"><ele>1138.0</ele><time>2026-04-26T09:43:15.997Z</time></trkpt><trkpt lat="45.75783164550405" lon="11.183493179876738"><ele>1142.0</ele><time>2026-04-26T09:43:16.997Z</time></trkpt><trkpt lat="45.757801347394135" lon="11.183410408781262"><ele>1146.0</ele><time>2026-04-26T09:43:17.997Z</time></trkpt><trkpt lat="45.757764942820295" lon="11.183245640015874"><ele>1150.0</ele><time>2026-04-26T09:43:19.997Z</time></trkpt><trkpt lat="45.75774036732283" lon="11.18308766112087"><ele>1154.0</ele><time>2026-04-26T09:43:21.997Z</time></trkpt><trkpt lat="45.757720335475376" lon="11.182940076227586"><ele>1152.3333333333335</ele><time>2026-04-26T09:43:23.997Z</time></trkpt><trkpt lat="45.75769288114595" lon="11.182816945388819"><ele>1150.6666666666667</ele><time>2026-04-26T09:43:26.997Z</time></trkpt><trkpt lat="45.75768178237291" lon="11.182720169069395"><ele>1149.0</ele><time>2026-04-26T09:43:28.997Z</time></trkpt><trkpt lat="45.7576606748865" lon="11.182604028878156"><ele>1147.3333333333333</ele><time>2026-04-26T09:43:31.997Z</time></trkpt><trkpt lat="45.75766556199135" lon="11.182505868371075"><ele>1145.6666666666665</ele><time>2026-04-26T09:43:34.997Z</time></trkpt><trkpt lat="45.75762497260595" lon="11.182389897860794"><ele>1144.0</ele><time>2026-04-26T09:43:37.997Z</time></trkpt><trkpt lat="45.757598884047844" lon="11.182274718156672"><ele>1144.0</ele><time>2026-04-26T09:43:39.997Z</time></trkpt><trkpt lat="45.757557225296615" lon="11.18216965481577"><ele>1144.0</ele><time>2026-04-26T09:43:42.997Z</time></trkpt><trkpt lat="45.757509662504276" lon="11.182081162918495"><ele>1144.0</ele><time>2026-04-26T09:43:45.997Z</time></trkpt><trkpt lat="45.75729800200355" lon="11.18204242114297"><ele>1144.0</ele><time>2026-04-26T09:44:13.997Z</time></trkpt><trkpt lat="45.75717810501351" lon="11.182041362045476"><ele>1144.0</ele><time>2026-04-26T09:44:15.997Z</time></trkpt><trkpt lat="45.757074147238875" lon="11.182075719311632"><ele>1144.0</ele><time>2026-04-26T09:44:17.997Z</time></trkpt><trkpt lat="45.75699015453849" lon="11.182126150829257"><ele>1144.0</ele><time>2026-04-26T09:44:19.997Z</time></trkpt><trkpt lat="45.75690683397173" lon="11.182164325030017"><ele>1144.0</ele><time>2026-04-26T09:44:21.997Z</time></trkpt><trkpt lat="45.75682784231323" lon="11.18222838953151"><ele>1144.0</ele><time>2026-04-26T09:44:23.997Z</time></trkpt><trkpt lat="45.75676240097682" lon="11.182290331270309"><ele>1145.3333333333333</ele><time>2026-04-26T09:44:25.997Z</time></trkpt><trkpt lat="45.75668582860104" lon="11.182325339799148"><ele>1146.6666666666665</ele><time>2026-04-26T09:44:27.997Z</time></trkpt><trkpt lat="45.756612903707776" lon="11.182332301270073"><ele>1148.0</ele><time>2026-04-26T09:44:29.997Z</time></trkpt><trkpt lat="45.75651097890255" lon="11.182320430840072"><ele>1149.3333333333333</ele><time>2026-04-26T09:44:31.997Z</time></trkpt><trkpt lat="45.756442361547904" lon="11.182345885855161"><ele>1150.6666666666667</ele><time>2026-04-26T09:44:33.997Z</time></trkpt><trkpt lat="45.75638556120002" lon="11.182414455591063"><ele>1152.0</ele><time>2026-04-26T09:44:37.997Z</time></trkpt><trkpt lat="45.75639639412927" lon="11.182528046830148"><ele>1148.5</ele><time>2026-04-26T09:44:40.997Z</time></trkpt><trkpt lat="45.756401190358034" lon="11.182627156809765"><ele>1145.0</ele><time>2026-04-26T09:44:43.997Z</time></trkpt><trkpt lat="45.756425088925816" lon="11.182713923643906"><ele>1141.5</ele><time>2026-04-26T09:44:47.997Z</time></trkpt><trkpt lat="45.75644193690082" lon="11.182839009130085"><ele>1138.0</ele><time>2026-04-26T09:44:50.997Z</time></trkpt><trkpt lat="45.75642950117016" lon="11.182976773329276"><ele>1134.5</ele><time>2026-04-26T09:44:53.997Z</time></trkpt><trkpt lat="45.756399356687446" lon="11.183089091071052"><ele>1131.0</ele><time>2026-04-26T09:44:55.997Z</time></trkpt><trkpt lat="45.75638409853752" lon="11.183205872816027"><ele>1127.6</ele><time>2026-04-26T09:44:57.997Z</time></trkpt><trkpt lat="45.75636850287467" lon="11.183326715944846"><ele>1124.1999999999998</ele><time>2026-04-26T09:44:59.997Z</time></trkpt><trkpt lat="45.75635907273174" lon="11.18345566780161"><ele>1120.8000000000002</ele><time>2026-04-26T09:45:01.997Z</time></trkpt><trkpt lat="45.75634232684644" lon="11.18358610800648"><ele>1117.4</ele><time>2026-04-26T09:45:03.997Z</time></trkpt><trkpt lat="45.756312527434375" lon="11.183727623968203"><ele>1114.0</ele><time>2026-04-26T09:45:05.997Z</time></trkpt><trkpt lat="45.7562845710064" lon="11.183836101255332"><ele>1114.0</ele><time>2026-04-26T09:45:07.997Z</time></trkpt><trkpt lat="45.75620383381295" lon="11.183984892015287"><ele>1114.0</ele><time>2026-04-26T09:45:09.997Z</time></trkpt><trkpt lat="45.75614265020595" lon="11.184105358991577"><ele>1114.0</ele><time>2026-04-26T09:45:11.997Z</time></trkpt><trkpt lat="45.75610505567122" lon="11.18423830661648"><ele>1114.0</ele><time>2026-04-26T09:45:13.997Z</time></trkpt><trkpt lat="45.75606188426604" lon="11.184368352344023"><ele>1114.0</ele><time>2026-04-26T09:45:15.997Z</time></trkpt><trkpt lat="45.75601171854114" lon="11.184536545021054"><ele>1113.5</ele><time>2026-04-26T09:45:17.996Z</time></trkpt><trkpt lat="45.75597806164958" lon="11.184629054636646"><ele>1113.0</ele><time>2026-04-26T09:45:18.996Z</time></trkpt><trkpt lat="45.75592989313397" lon="11.184740034873704"><ele>1112.5</ele><time>2026-04-26T09:45:19.996Z</time></trkpt><trkpt lat="45.75588773579894" lon="11.184832377805643"><ele>1112.0</ele><time>2026-04-26T09:45:20.996Z</time></trkpt><trkpt lat="45.75584765650913" lon="11.184920864277755"><ele>1111.5</ele><time>2026-04-26T09:45:21.996Z</time></trkpt><trkpt lat="45.75580593994324" lon="11.184990574523184"><ele>1111.0</ele><time>2026-04-26T09:45:22.996Z</time></trkpt><trkpt lat="45.755756124698905" lon="11.185072647422052"><ele>1111.0</ele><time>2026-04-26T09:45:23.996Z</time></trkpt><trkpt lat="45.755719784066905" lon="11.185163576133856"><ele>1111.0</ele><time>2026-04-26T09:45:24.996Z</time></trkpt><trkpt lat="45.75567458090316" lon="11.185267965146494"><ele>1111.0</ele><time>2026-04-26T09:45:25.996Z</time></trkpt><trkpt lat="45.755637031566124" lon="11.185354430534524"><ele>1111.0</ele><time>2026-04-26T09:45:26.996Z</time></trkpt><trkpt lat="45.755571310767756" lon="11.185504585046129"><ele>1111.0</ele><time>2026-04-26T09:45:28.996Z</time></trkpt><trkpt lat="45.755532872011266" lon="11.1855908512279"><ele>1111.0</ele><time>2026-04-26T09:45:29.996Z</time></trkpt><trkpt lat="45.75549786254364" lon="11.185674580478118"><ele>1114.1666666666665</ele><time>2026-04-26T09:45:30.996Z</time></trkpt><trkpt lat="45.755423696906796" lon="11.185807684967157"><ele>1117.3333333333333</ele><time>2026-04-26T09:45:32.996Z</time></trkpt><trkpt lat="45.75536923647959" lon="11.185890858245017"><ele>1120.5</ele><time>2026-04-26T09:45:33.996Z</time></trkpt><trkpt lat="45.755318309721915" lon="11.185969901751434"><ele>1123.6666666666667</ele><time>2026-04-26T09:45:34.996Z</time></trkpt><trkpt lat="45.75523731225191" lon="11.186055670330841"><ele>1126.8333333333335</ele><time>2026-04-26T09:45:36.996Z</time></trkpt><trkpt lat="45.75518766546114" lon="11.186112414802519"><ele>1130.0</ele><time>2026-04-26T09:45:37.996Z</time></trkpt><trkpt lat="45.755090906179326" lon="11.186219116612541"><ele>1130.0</ele><time>2026-04-26T09:45:39.996Z</time></trkpt><trkpt lat="45.755034006045946" lon="11.186293478504622"><ele>1130.0</ele><time>2026-04-26T09:45:40.996Z</time></trkpt><trkpt lat="45.75495248932589" lon="11.18640453272863"><ele>1130.0</ele><time>2026-04-26T09:45:42.996Z</time></trkpt><trkpt lat="45.75489443627016" lon="11.186495752585564"><ele>1130.0</ele><time>2026-04-26T09:45:44.996Z</time></trkpt><trkpt lat="45.75489105262055" lon="11.18660372959306"><ele>1130.0</ele><time>2026-04-26T09:45:46.996Z</time></trkpt><trkpt lat="45.754934107332645" lon="11.18673096579024"><ele>1125.1666666666667</ele><time>2026-04-26T09:45:48.996Z</time></trkpt><trkpt lat="45.754947528293016" lon="11.186862775706068"><ele>1120.3333333333335</ele><time>2026-04-26T09:45:50.996Z</time></trkpt><trkpt lat="45.75490228404791" lon="11.18696479199601"><ele>1115.5</ele><time>2026-04-26T09:45:52.996Z</time></trkpt><trkpt lat="45.754865850993184" lon="11.187057387709435"><ele>1110.6666666666667</ele><time>2026-04-26T09:45:54.996Z</time></trkpt><trkpt lat="45.75482073307474" lon="11.18715282977616"><ele>1105.8333333333333</ele><time>2026-04-26T09:45:57.996Z</time></trkpt><trkpt lat="45.754778974987204" lon="11.187236969428204"><ele>1101.0</ele><time>2026-04-26T09:45:59.996Z</time></trkpt><trkpt lat="45.75472522529019" lon="11.187327100321845"><ele>1096.2</ele><time>2026-04-26T09:46:01.996Z</time></trkpt><trkpt lat="45.754676561075776" lon="11.187455670106779"><ele>1091.3999999999999</ele><time>2026-04-26T09:46:03.996Z</time></trkpt><trkpt lat="45.75461476968126" lon="11.187601323449629"><ele>1086.6</ele><time>2026-04-26T09:46:05.996Z</time></trkpt><trkpt lat="45.754557414058574" lon="11.18772726838337"><ele>1081.8</ele><time>2026-04-26T09:46:07.996Z</time></trkpt><trkpt lat="45.75448751283844" lon="11.187865584216473"><ele>1077.0</ele><time>2026-04-26T09:46:09.996Z</time></trkpt><trkpt lat="45.754451550372515" lon="11.187943794157748"><ele>1077.0</ele><time>2026-04-26T09:46:10.996Z</time></trkpt><trkpt lat="45.75438683591701" lon="11.188089125446563"><ele>1077.0</ele><time>2026-04-26T09:46:12.996Z</time></trkpt><trkpt lat="45.754347636499084" lon="11.188161151593235"><ele>1077.0</ele><time>2026-04-26T09:46:13.996Z</time></trkpt><trkpt lat="45.75430320612363" lon="11.188236717385522"><ele>1077.0</ele><time>2026-04-26T09:46:14.996Z</time></trkpt><trkpt lat="45.75426608920915" lon="11.188317560072155"><ele>1077.0</ele><time>2026-04-26T09:46:15.996Z</time></trkpt><trkpt lat="45.75421936011663" lon="11.188437774148994"><ele>1077.0</ele><time>2026-04-26T09:46:17.996Z</time></trkpt><trkpt lat="45.75419900603574" lon="11.18860481157568"><ele>1078.6</ele><time>2026-04-26T09:46:19.996Z</time></trkpt><trkpt lat="45.754186016285395" lon="11.188780704602445"><ele>1080.2</ele><time>2026-04-26T09:46:21.996Z</time></trkpt><trkpt lat="45.75418123112278" lon="11.188872387767223"><ele>1081.8</ele><time>2026-04-26T09:46:22.996Z</time></trkpt><trkpt lat="45.754181125663116" lon="11.188966966294561"><ele>1083.4</ele><time>2026-04-26T09:46:23.996Z</time></trkpt><trkpt lat="45.75418642953876" lon="11.18913012130088"><ele>1085.0</ele><time>2026-04-26T09:46:25.996Z</time></trkpt><trkpt lat="45.75418744430368" lon="11.189251899223422"><ele>1085.0</ele><time>2026-04-26T09:46:27.996Z</time></trkpt><trkpt lat="45.75417676603722" lon="11.189372632943224"><ele>1085.0</ele><time>2026-04-26T09:46:29.996Z</time></trkpt><trkpt lat="45.75415384561833" lon="11.189521171981744"><ele>1085.0</ele><time>2026-04-26T09:46:31.996Z</time></trkpt><trkpt lat="45.75408283830596" lon="11.189652454838324"><ele>1085.0</ele><time>2026-04-26T09:46:33.996Z</time></trkpt><trkpt lat="45.754030249214246" lon="11.189752149507108"><ele>1085.0</ele><time>2026-04-26T09:46:35.996Z</time></trkpt><trkpt lat="45.753995811943724" lon="11.18984591424308"><ele>1083.0</ele><time>2026-04-26T09:46:37.996Z</time></trkpt><trkpt lat="45.75397398006099" lon="11.189975986865909"><ele>1081.0</ele><time>2026-04-26T09:46:39.996Z</time></trkpt><trkpt lat="45.75396453625297" lon="11.190122947940862"><ele>1079.0</ele><time>2026-04-26T09:46:41.996Z</time></trkpt><trkpt lat="45.753966185166846" lon="11.190268914188263"><ele>1077.0</ele><time>2026-04-26T09:46:43.996Z</time></trkpt><trkpt lat="45.75398812890053" lon="11.190407252955284"><ele>1075.0</ele><time>2026-04-26T09:46:45.996Z</time></trkpt><trkpt lat="45.75403327298907" lon="11.190572084799927"><ele>1075.0</ele><time>2026-04-26T09:46:47.996Z</time></trkpt><trkpt lat="45.75406311882856" lon="11.190666734569493"><ele>1075.0</ele><time>2026-04-26T09:46:48.996Z</time></trkpt><trkpt lat="45.754094651565055" lon="11.190747278409782"><ele>1075.0</ele><time>2026-04-26T09:46:49.996Z</time></trkpt><trkpt lat="45.75416233203878" lon="11.190863777355409"><ele>1075.0</ele><time>2026-04-26T09:46:51.996Z</time></trkpt><trkpt lat="45.75425710906234" lon="11.190932602596225"><ele>1075.0</ele><time>2026-04-26T09:46:53.996Z</time></trkpt><trkpt lat="45.75433258403334" lon="11.191043029195274"><ele>1070.5</ele><time>2026-04-26T09:46:55.996Z</time></trkpt><trkpt lat="45.75437915050053" lon="11.191142506019728"><ele>1066.0</ele><time>2026-04-26T09:46:57.996Z</time></trkpt><trkpt lat="45.75437453389302" lon="11.191280878256055"><ele>1061.5</ele><time>2026-04-26T09:46:59.996Z</time></trkpt><trkpt lat="45.75438637483004" lon="11.19137812417019"><ele>1057.0</ele><time>2026-04-26T09:47:01.996Z</time></trkpt><trkpt lat="45.75445531597557" lon="11.191461861819986"><ele>1052.5</ele><time>2026-04-26T09:47:04.996Z</time></trkpt><trkpt lat="45.75453772965519" lon="11.191477105862587"><ele>1048.0</ele><time>2026-04-26T09:47:06.996Z</time></trkpt><trkpt lat="45.75459844456248" lon="11.191542783092531"><ele>1048.0</ele><time>2026-04-26T09:47:08.996Z</time></trkpt><trkpt lat="45.754617912983335" lon="11.191664012719398"><ele>1048.0</ele><time>2026-04-26T09:47:10.996Z</time></trkpt><trkpt lat="45.75458460765623" lon="11.191745623320756"><ele>1048.0</ele><time>2026-04-26T09:47:12.996Z</time></trkpt><trkpt lat="45.754526628900365" lon="11.191830463191728"><ele>1048.0</ele><time>2026-04-26T09:47:14.996Z</time></trkpt><trkpt lat="45.75447835534011" lon="11.19193059635768"><ele>1048.0</ele><time>2026-04-26T09:47:16.996Z</time></trkpt><trkpt lat="45.75446358636194" lon="11.192066458182326"><ele>1048.0</ele><time>2026-04-26T09:47:18.996Z</time></trkpt><trkpt lat="45.75445441064028" lon="11.19216460330996"><ele>1048.0</ele><time>2026-04-26T09:47:19.996Z</time></trkpt><trkpt lat="45.75445512965255" lon="11.192257218925516"><ele>1048.0</ele><time>2026-04-26T09:47:20.996Z</time></trkpt><trkpt lat="45.754485353156625" lon="11.19239791390863"><ele>1048.0</ele><time>2026-04-26T09:47:22.996Z</time></trkpt><trkpt lat="45.754510500652486" lon="11.192554094810568"><ele>1048.0</ele><time>2026-04-26T09:47:24.996Z</time></trkpt><trkpt lat="45.75449897802702" lon="11.192692978175614"><ele>1048.0</ele><time>2026-04-26T09:47:26.996Z</time></trkpt><trkpt lat="45.75447630714065" lon="11.192789154028583"><ele>1048.0</ele><time>2026-04-26T09:47:28.996Z</time></trkpt><trkpt lat="45.75445397793769" lon="11.192893977239748"><ele>1046.75</ele><time>2026-04-26T09:47:30.996Z</time></trkpt><trkpt lat="45.75441515848534" lon="11.193013244183813"><ele>1045.5</ele><time>2026-04-26T09:47:32.996Z</time></trkpt><trkpt lat="45.75437633903298" lon="11.193132511044915"><ele>1044.25</ele><time>2026-04-26T09:47:34.996Z</time></trkpt><trkpt lat="45.75431713333834" lon="11.193347892174256"><ele>1043.0</ele><time>2026-04-26T09:47:38.996Z</time></trkpt><trkpt lat="45.7543167355575" lon="11.19349820397604"><ele>1059.2</ele><time>2026-04-26T09:47:40.996Z</time></trkpt><trkpt lat="45.75436275623734" lon="11.193662724214395"><ele>1075.4</ele><time>2026-04-26T09:47:42.996Z</time></trkpt><trkpt lat="45.75435850859435" lon="11.19378646798465"><ele>1091.6000000000001</ele><time>2026-04-26T09:47:44.996Z</time></trkpt><trkpt lat="45.754283599675546" lon="11.193826641085284"><ele>1107.8</ele><time>2026-04-26T09:47:47.996Z</time></trkpt><trkpt lat="45.75425230902647" lon="11.19395062869494"><ele>1124.0</ele><time>2026-04-26T09:47:49.996Z</time></trkpt><trkpt lat="45.75423624836668" lon="11.194156568359722"><ele>1126.0</ele><time>2026-04-26T09:47:51.996Z</time></trkpt><trkpt lat="45.75430176393983" lon="11.194317538535717"><ele>1128.0</ele><time>2026-04-26T09:47:53.996Z</time></trkpt><trkpt lat="45.75435198864317" lon="11.194446956885171"><ele>1130.0</ele><time>2026-04-26T09:47:55.996Z</time></trkpt><trkpt lat="45.7543435840456" lon="11.19461185916387"><ele>1132.0</ele><time>2026-04-26T09:47:57.996Z</time></trkpt><trkpt lat="45.75432649170732" lon="11.194779437502055"><ele>1131.8</ele><time>2026-04-26T09:47:59.996Z</time></trkpt><trkpt lat="45.75432663605793" lon="11.19497895239596"><ele>1131.6</ele><time>2026-04-26T09:48:01.995Z</time></trkpt><trkpt lat="45.754331583393245" lon="11.195105291840068"><ele>1131.3999999999999</ele><time>2026-04-26T09:48:02.995Z</time></trkpt><trkpt lat="45.75433475455691" lon="11.19522084382466"><ele>1131.2</ele><time>2026-04-26T09:48:03.995Z</time></trkpt><trkpt lat="45.75433838711369" lon="11.195343600801946"><ele>1131.0</ele><time>2026-04-26T09:48:04.995Z</time></trkpt><trkpt lat="45.7543362190749" lon="11.195458431489165"><ele>1131.0</ele><time>2026-04-26T09:48:05.995Z</time></trkpt><trkpt lat="45.75433494537536" lon="11.195579841296158"><ele>1131.0</ele><time>2026-04-26T09:48:06.995Z</time></trkpt><trkpt lat="45.75443740420268" lon="11.195703424029315"><ele>1131.0</ele><time>2026-04-26T09:48:08.995Z</time></trkpt><trkpt lat="45.75449356161997" lon="11.195770594869849"><ele>1131.0</ele><time>2026-04-26T09:48:09.995Z</time></trkpt><trkpt lat="45.75456827570494" lon="11.195844492654352"><ele>1131.0</ele><time>2026-04-26T09:48:10.995Z</time></trkpt><trkpt lat="45.754622606479806" lon="11.195903197437032"><ele>1125.3333333333333</ele><time>2026-04-26T09:48:11.995Z</time></trkpt><trkpt lat="45.75467062370336" lon="11.19596247416044"><ele>1119.6666666666667</ele><time>2026-04-26T09:48:12.995Z</time></trkpt><trkpt lat="45.754749315665" lon="11.196071431376817"><ele>1114.0</ele><time>2026-04-26T09:48:14.995Z</time></trkpt><trkpt lat="45.754823349713455" lon="11.19617381626004"><ele>1108.3333333333335</ele><time>2026-04-26T09:48:16.995Z</time></trkpt><trkpt lat="45.75486427453034" lon="11.196244015351759"><ele>1102.6666666666667</ele><time>2026-04-26T09:48:17.995Z</time></trkpt><trkpt lat="45.754917658514685" lon="11.196337952450259"><ele>1097.0</ele><time>2026-04-26T09:48:18.995Z</time></trkpt><trkpt lat="45.754935725228684" lon="11.19644752610264"><ele>1096.2</ele><time>2026-04-26T09:48:19.995Z</time></trkpt><trkpt lat="45.75494082159003" lon="11.19655199463089"><ele>1095.4</ele><time>2026-04-26T09:48:20.995Z</time></trkpt><trkpt lat="45.75494141261467" lon="11.196714384167496"><ele>1094.6</ele><time>2026-04-26T09:48:22.995Z</time></trkpt><trkpt lat="45.75493940270265" lon="11.196843382091195"><ele>1093.8</ele><time>2026-04-26T09:48:24.995Z</time></trkpt><trkpt lat="45.754943113682394" lon="11.196987617588332"><ele>1093.0</ele><time>2026-04-26T09:48:26.995Z</time></trkpt><trkpt lat="45.75495737421941" lon="11.197145347252622"><ele>1093.0</ele><time>2026-04-26T09:48:28.995Z</time></trkpt><trkpt lat="45.75499325743874" lon="11.197278988942411"><ele>1093.0</ele><time>2026-04-26T09:48:30.995Z</time></trkpt><trkpt lat="45.755024668089156" lon="11.197388310098196"><ele>1093.0</ele><time>2026-04-26T09:48:32.995Z</time></trkpt><trkpt lat="45.7550847317111" lon="11.197490333125046"><ele>1093.0</ele><time>2026-04-26T09:48:34.995Z</time></trkpt><trkpt lat="45.75515061882818" lon="11.197555467066335"><ele>1093.0</ele><time>2026-04-26T09:48:36.995Z</time></trkpt><trkpt lat="45.75522213674292" lon="11.197636723075227"><ele>1093.0</ele><time>2026-04-26T09:48:38.995Z</time></trkpt><trkpt lat="45.755287830500244" lon="11.197732812258634"><ele>1093.0</ele><time>2026-04-26T09:48:40.995Z</time></trkpt><trkpt lat="45.75532695635956" lon="11.19783153621775"><ele>1093.0</ele><time>2026-04-26T09:48:42.995Z</time></trkpt><trkpt lat="45.755359571082586" lon="11.197935344847142"><ele>1093.0</ele><time>2026-04-26T09:48:45.995Z</time></trkpt><trkpt lat="45.75541600686951" lon="11.198016264053452"><ele>1093.0</ele><time>2026-04-26T09:48:49.995Z</time></trkpt><trkpt lat="45.75545817544938" lon="11.198090009032795"><ele>1093.0</ele><time>2026-04-26T09:49:18.995Z</time></trkpt><trkpt lat="45.755470666232796" lon="11.19819932353887"><ele>1093.0</ele><time>2026-04-26T09:49:34.997Z</time></trkpt><trkpt lat="45.75554661235066" lon="11.198216887419733"><ele>1093.0</ele><time>2026-04-26T09:51:22.999Z</time></trkpt><trkpt lat="45.75547960473274" lon="11.198190709180844"><ele>1093.0</ele><time>2026-04-26T09:51:43.999Z</time></trkpt><trkpt lat="45.75541088905867" lon="11.198186819398737"><ele>1093.0</ele><time>2026-04-26T09:51:50.999Z</time></trkpt><trkpt lat="45.755335563296654" lon="11.198133208741575"><ele>1093.0</ele><time>2026-04-26T09:51:53.999Z</time></trkpt><trkpt lat="45.75527424580058" lon="11.198083966703864"><ele>1093.0</ele><time>2026-04-26T09:51:55.999Z</time></trkpt><trkpt lat="45.75519324220643" lon="11.198029017588238"><ele>1093.0</ele><time>2026-04-26T09:51:57.999Z</time></trkpt><trkpt lat="45.7550925349796" lon="11.198012018051978"><ele>1091.2</ele><time>2026-04-26T09:51:59.999Z</time></trkpt><trkpt lat="45.75500222141129" lon="11.198033261654455"><ele>1089.4</ele><time>2026-04-26T09:52:01.999Z</time></trkpt><trkpt lat="45.75492430448067" lon="11.198102947781614"><ele>1087.6000000000001</ele><time>2026-04-26T09:52:03.999Z</time></trkpt><trkpt lat="45.75483755366506" lon="11.198210814253178"><ele>1085.8</ele><time>2026-04-26T09:52:05.999Z</time></trkpt><trkpt lat="45.75476647627577" lon="11.198307945378163"><ele>1084.0</ele><time>2026-04-26T09:52:07.999Z</time></trkpt><trkpt lat="45.754712278604494" lon="11.198357423628341"><ele>1081.5</ele><time>2026-04-26T09:52:09.999Z</time></trkpt><trkpt lat="45.75465189001029" lon="11.198411079505593"><ele>1079.0</ele><time>2026-04-26T09:52:12.999Z</time></trkpt><trkpt lat="45.75471810410767" lon="11.198474516057132"><ele>1076.5</ele><time>2026-04-26T09:52:17.999Z</time></trkpt><trkpt lat="45.75479121267903" lon="11.198454580982872"><ele>1074.0</ele><time>2026-04-26T09:52:20.999Z</time></trkpt><trkpt lat="45.754854403581774" lon="11.198401902190303"><ele>1071.5</ele><time>2026-04-26T09:52:23.999Z</time></trkpt><trkpt lat="45.75491897998834" lon="11.198343767561669"><ele>1069.0</ele><time>2026-04-26T09:52:26.999Z</time></trkpt><trkpt lat="45.75501108459797" lon="11.19838162255931"><ele>1069.0</ele><time>2026-04-26T09:52:29.999Z</time></trkpt><trkpt lat="45.75509156487896" lon="11.198458359443844"><ele>1069.0</ele><time>2026-04-26T09:52:31.999Z</time></trkpt><trkpt lat="45.755160414807754" lon="11.198532293405142"><ele>1069.0</ele><time>2026-04-26T09:52:33.999Z</time></trkpt><trkpt lat="45.75525831244483" lon="11.198622765918762"><ele>1069.0</ele><time>2026-04-26T09:52:35.999Z</time></trkpt><trkpt lat="45.755316315157046" lon="11.198682134471689"><ele>1069.0</ele><time>2026-04-26T09:52:36.999Z</time></trkpt><trkpt lat="45.75536687748708" lon="11.198746662778232"><ele>1069.0</ele><time>2026-04-26T09:52:37.999Z</time></trkpt><trkpt lat="45.75545606966907" lon="11.198849161259819"><ele>1070.0</ele><time>2026-04-26T09:52:39.999Z</time></trkpt><trkpt lat="45.755548048419506" lon="11.198892157278248"><ele>1071.0</ele><time>2026-04-26T09:52:41.999Z</time></trkpt><trkpt lat="45.75562597368907" lon="11.198922410803767"><ele>1072.0</ele><time>2026-04-26T09:52:44.999Z</time></trkpt><trkpt lat="45.75569637746434" lon="11.19897118016167"><ele>1073.0</ele><time>2026-04-26T09:52:46.999Z</time></trkpt><trkpt lat="45.75575908117576" lon="11.199044744131863"><ele>1074.0</ele><time>2026-04-26T09:52:48.999Z</time></trkpt><trkpt lat="45.75582204839081" lon="11.199139322822958"><ele>1075.0</ele><time>2026-04-26T09:52:50.999Z</time></trkpt><trkpt lat="45.7558972963316" lon="11.199233470093962"><ele>1074.2</ele><time>2026-04-26T09:52:52.999Z</time></trkpt><trkpt lat="45.755980796991864" lon="11.199311133713433"><ele>1073.4</ele><time>2026-04-26T09:52:54.999Z</time></trkpt><trkpt lat="45.756063580725446" lon="11.199411779468049"><ele>1072.6</ele><time>2026-04-26T09:52:56.999Z</time></trkpt><trkpt lat="45.75614773090161" lon="11.199519544910615"><ele>1071.8</ele><time>2026-04-26T09:52:58.999Z</time></trkpt><trkpt lat="45.75620860211693" lon="11.199621497403053"><ele>1071.0</ele><time>2026-04-26T09:53:00.999Z</time></trkpt><trkpt lat="45.756253468047795" lon="11.199700615782973"><ele>1071.0</ele><time>2026-04-26T09:53:02.999Z</time></trkpt><trkpt lat="45.75631150966801" lon="11.199781836244275"><ele>1071.0</ele><time>2026-04-26T09:53:04.999Z</time></trkpt><trkpt lat="45.756377256876405" lon="11.199847650301617"><ele>1071.0</ele><time>2026-04-26T09:53:06.999Z</time></trkpt><trkpt lat="45.756453001639024" lon="11.199948979045029"><ele>1071.0</ele><time>2026-04-26T09:53:08.999Z</time></trkpt><trkpt lat="45.75651707284306" lon="11.20005904983101"><ele>1071.0</ele><time>2026-04-26T09:53:10.999Z</time></trkpt><trkpt lat="45.75656311053998" lon="11.200155821086023"><ele>1071.0</ele><time>2026-04-26T09:53:12.999Z</time></trkpt><trkpt lat="45.75661024171737" lon="11.200275727543037"><ele>1065.0</ele><time>2026-04-26T09:53:14.999Z</time></trkpt><trkpt lat="45.75664279980175" lon="11.200423635428688"><ele>1059.0</ele><time>2026-04-26T09:53:16.998Z</time></trkpt><trkpt lat="45.756653691326406" lon="11.200574167567282"><ele>1053.0</ele><time>2026-04-26T09:53:18.998Z</time></trkpt><trkpt lat="45.756677014961205" lon="11.200728564626008"><ele>1047.0</ele><time>2026-04-26T09:53:20.998Z</time></trkpt><trkpt lat="45.756692341922495" lon="11.200886445786018"><ele>1041.0</ele><time>2026-04-26T09:53:22.998Z</time></trkpt><trkpt lat="45.75673000356587" lon="11.201024053728744"><ele>1038.0</ele><time>2026-04-26T09:53:24.998Z</time></trkpt><trkpt lat="45.75678570969678" lon="11.201137374382379"><ele>1035.0</ele><time>2026-04-26T09:53:26.998Z</time></trkpt><trkpt lat="45.756824404773916" lon="11.201228999052036"><ele>1032.0</ele><time>2026-04-26T09:53:28.998Z</time></trkpt><trkpt lat="45.75677253053413" lon="11.201295736242892"><ele>1029.0</ele><time>2026-04-26T09:53:31.998Z</time></trkpt><trkpt lat="45.7566926974891" lon="11.20126494019267"><ele>1026.0</ele><time>2026-04-26T09:53:33.998Z</time></trkpt><trkpt lat="45.756601987481694" lon="11.201198427543485"><ele>1023.0</ele><time>2026-04-26T09:53:35.998Z</time></trkpt><trkpt lat="45.756530184462285" lon="11.201141553192635"><ele>1023.0</ele><time>2026-04-26T09:53:37.998Z</time></trkpt><trkpt lat="45.75647466107655" lon="11.20109081737215"><ele>1023.0</ele><time>2026-04-26T09:53:39.998Z</time></trkpt><trkpt lat="45.756449422676226" lon="11.201006636712346"><ele>1023.0</ele><time>2026-04-26T09:53:41.998Z</time></trkpt><trkpt lat="45.756398744492714" lon="11.20087941523007"><ele>1023.0</ele><time>2026-04-26T09:53:43.998Z</time></trkpt><trkpt lat="45.75635479107659" lon="11.200737839652623"><ele>1023.0</ele><time>2026-04-26T09:53:45.998Z</time></trkpt><trkpt lat="45.756338636035494" lon="11.200614945203332"><ele>1023.0</ele><time>2026-04-26T09:53:47.998Z</time></trkpt><trkpt lat="45.756289395686466" lon="11.200523019326289"><ele>1020.6666666666666</ele><time>2026-04-26T09:53:49.998Z</time></trkpt><trkpt lat="45.7561907541321" lon="11.200536378781853"><ele>1018.3333333333333</ele><time>2026-04-26T09:53:52.998Z</time></trkpt><trkpt lat="45.756116366432636" lon="11.200579930565894"><ele>1016.0</ele><time>2026-04-26T09:53:54.998Z</time></trkpt><trkpt lat="45.75603566917065" lon="11.200674097809538"><ele>1013.6666666666666</ele><time>2026-04-26T09:53:56.998Z</time></trkpt><trkpt lat="45.755982545569886" lon="11.200735798471362"><ele>1011.3333333333333</ele><time>2026-04-26T09:53:57.998Z</time></trkpt><trkpt lat="45.75589461962468" lon="11.200784768283443"><ele>1009.0</ele><time>2026-04-26T09:53:59.998Z</time></trkpt><trkpt lat="45.75579403334376" lon="11.200808599628196"><ele>1009.0</ele><time>2026-04-26T09:54:01.998Z</time></trkpt><trkpt lat="45.75569287371503" lon="11.20081137950129"><ele>1009.0000000000001</ele><time>2026-04-26T09:54:03.998Z</time></trkpt><trkpt lat="45.75559753597281" lon="11.200798318788895"><ele>1009.0000000000001</ele><time>2026-04-26T09:54:05.998Z</time></trkpt><trkpt lat="45.75550692603387" lon="11.20074894551483"><ele>1009.0</ele><time>2026-04-26T09:54:07.998Z</time></trkpt><trkpt lat="45.755435892257886" lon="11.200670399517586"><ele>1009.0</ele><time>2026-04-26T09:54:09.998Z</time></trkpt><trkpt lat="45.755369596373136" lon="11.200580139494585"><ele>1008.4000000000001</ele><time>2026-04-26T09:54:11.998Z</time></trkpt><trkpt lat="45.75528023153289" lon="11.20053721703943"><ele>1007.8000000000001</ele><time>2026-04-26T09:54:13.998Z</time></trkpt><trkpt lat="45.75517383039086" lon="11.200559781666845"><ele>1007.1999999999999</ele><time>2026-04-26T09:54:15.998Z</time></trkpt><trkpt lat="45.75515830930453" lon="11.2006747016506"><ele>1006.5999999999999</ele><time>2026-04-26T09:54:18.998Z</time></trkpt><trkpt lat="45.75512891268033" lon="11.200826849873147"><ele>1006.0</ele><time>2026-04-26T09:54:20.998Z</time></trkpt><trkpt lat="45.75510510907247" lon="11.200920361746054"><ele>1005.9999999999999</ele><time>2026-04-26T09:54:21.998Z</time></trkpt><trkpt lat="45.755078645564225" lon="11.201005294689683"><ele>1006.0</ele><time>2026-04-26T09:54:22.998Z</time></trkpt><trkpt lat="45.755047892940375" lon="11.201104104193082"><ele>1006.0</ele><time>2026-04-26T09:54:23.998Z</time></trkpt><trkpt lat="45.75502091908957" lon="11.201188140896331"><ele>1006.0</ele><time>2026-04-26T09:54:24.998Z</time></trkpt><trkpt lat="45.7549969561538" lon="11.20127265111538"><ele>1005.9999999999999</ele><time>2026-04-26T09:54:25.998Z</time></trkpt><trkpt lat="45.75497653372712" lon="11.20142028128997"><ele>1006.0</ele><time>2026-04-26T09:54:27.998Z</time></trkpt><trkpt lat="45.754951710316924" lon="11.2015542019755"><ele>1000.8</ele><time>2026-04-26T09:54:29.998Z</time></trkpt><trkpt lat="45.75488932360926" lon="11.201705834659672"><ele>995.5999999999999</ele><time>2026-04-26T09:54:31.998Z</time></trkpt><trkpt lat="45.75485125215635" lon="11.20178570782556"><ele>990.4</ele><time>2026-04-26T09:54:32.998Z</time></trkpt><trkpt lat="45.75479241623171" lon="11.201926997063932"><ele>985.2</ele><time>2026-04-26T09:54:34.998Z</time></trkpt><trkpt lat="45.7547556233932" lon="11.202074668251978"><ele>980.0</ele><time>2026-04-26T09:54:36.998Z</time></trkpt><trkpt lat="45.75473704972365" lon="11.202216406505164"><ele>976.0</ele><time>2026-04-26T09:54:38.998Z</time></trkpt><trkpt lat="45.75470035226158" lon="11.202333107970281"><ele>972.0</ele><time>2026-04-26T09:54:40.998Z</time></trkpt><trkpt lat="45.754647781124746" lon="11.202446978996257"><ele>968.0</ele><time>2026-04-26T09:54:42.998Z</time></trkpt><trkpt lat="45.75459436683507" lon="11.2025590055251"><ele>964.0</ele><time>2026-04-26T09:54:44.998Z</time></trkpt><trkpt lat="45.754538876165995" lon="11.20267896137329"><ele>960.0</ele><time>2026-04-26T09:54:46.998Z</time></trkpt><trkpt lat="45.754485905348126" lon="11.202782473525982"><ele>960.0</ele><time>2026-04-26T09:54:48.998Z</time></trkpt><trkpt lat="45.75441461544861" lon="11.202860942023335"><ele>960.0</ele><time>2026-04-26T09:54:50.998Z</time></trkpt><trkpt lat="45.75432960991067" lon="11.202904866710552"><ele>960.0</ele><time>2026-04-26T09:54:52.998Z</time></trkpt><trkpt lat="45.754253045437615" lon="11.20293276439815"><ele>960.0</ele><time>2026-04-26T09:54:54.998Z</time></trkpt><trkpt lat="45.75418814745208" lon="11.202960130396232"><ele>960.0</ele><time>2026-04-26T09:54:56.998Z</time></trkpt><trkpt lat="45.754260522915416" lon="11.202973608820301"><ele>960.0</ele><time>2026-04-26T09:55:05.998Z</time></trkpt><trkpt lat="45.75432476868169" lon="11.203041728096055"><ele>958.0</ele><time>2026-04-26T09:55:08.998Z</time></trkpt><trkpt lat="45.75433309412598" lon="11.203154080860836"><ele>956.0</ele><time>2026-04-26T09:55:11.998Z</time></trkpt><trkpt lat="45.75427305937273" lon="11.203223017481815"><ele>954.0</ele><time>2026-04-26T09:55:14.998Z</time></trkpt><trkpt lat="45.754203544006266" lon="11.20328600790708"><ele>952.0</ele><time>2026-04-26T09:55:17.998Z</time></trkpt><trkpt lat="45.754224443925644" lon="11.203371681345441"><ele>950.0</ele><time>2026-04-26T09:55:21.998Z</time></trkpt><trkpt lat="45.754301066874525" lon="11.203452406798096"><ele>948.0</ele><time>2026-04-26T09:55:23.998Z</time></trkpt><trkpt lat="45.754368700375224" lon="11.203512302982546"><ele>948.0</ele><time>2026-04-26T09:55:25.998Z</time></trkpt><trkpt lat="45.75444298792686" lon="11.20357582700523"><ele>948.0</ele><time>2026-04-26T09:55:28.998Z</time></trkpt><trkpt lat="45.75445366387432" lon="11.203677231423542"><ele>948.0</ele><time>2026-04-26T09:55:32.998Z</time></trkpt><trkpt lat="45.7543818041774" lon="11.203647831678605"><ele>948.0</ele><time>2026-04-26T09:55:35.998Z</time></trkpt><trkpt lat="45.75430597762555" lon="11.2035992874396"><ele>948.0</ele><time>2026-04-26T09:55:37.997Z</time></trkpt><trkpt lat="45.75423725728287" lon="11.203550165964632"><ele>948.0</ele><time>2026-04-26T09:55:39.997Z</time></trkpt><trkpt lat="45.75427500959741" lon="11.203646479650702"><ele>948.0</ele><time>2026-04-26T09:55:49.997Z</time></trkpt><trkpt lat="45.7543100353478" lon="11.203723472426786"><ele>948.0</ele><time>2026-04-26T09:55:50.997Z</time></trkpt><trkpt lat="45.75438566320336" lon="11.203827724139504"><ele>948.0</ele><time>2026-04-26T09:55:52.997Z</time></trkpt><trkpt lat="45.75442999829806" lon="11.203911638078512"><ele>948.0</ele><time>2026-04-26T09:55:54.997Z</time></trkpt><trkpt lat="45.754481512505876" lon="11.203967620488186"><ele>948.0</ele><time>2026-04-26T09:55:56.997Z</time></trkpt><trkpt lat="45.754493028168554" lon="11.20406384079957"><ele>948.0</ele><time>2026-04-26T09:55:59.997Z</time></trkpt><trkpt lat="45.754408951825305" lon="11.204014866950613"><ele>948.0</ele><time>2026-04-26T09:56:03.997Z</time></trkpt><trkpt lat="45.75434201302673" lon="11.203973089889418"><ele>948.0</ele><time>2026-04-26T09:56:05.997Z</time></trkpt><trkpt lat="45.7542582411628" lon="11.203941516048365"><ele>948.0</ele><time>2026-04-26T09:56:07.997Z</time></trkpt><trkpt lat="45.754182154293666" lon="11.203916892705482"><ele>948.0</ele><time>2026-04-26T09:56:09.997Z</time></trkpt><trkpt lat="45.75409865279269" lon="11.203897166896226"><ele>948.0</ele><time>2026-04-26T09:56:11.997Z</time></trkpt><trkpt lat="45.754021826062285" lon="11.203923515295736"><ele>948.0</ele><time>2026-04-26T09:56:13.997Z</time></trkpt><trkpt lat="45.75394710198288" lon="11.203975863457742"><ele>942.3333333333334</ele><time>2026-04-26T09:56:15.997Z</time></trkpt><trkpt lat="45.75387543927181" lon="11.20402024099019"><ele>936.6666666666667</ele><time>2026-04-26T09:56:17.997Z</time></trkpt><trkpt lat="45.753788742720936" lon="11.204119241179534"><ele>931.0</ele><time>2026-04-26T09:56:19.997Z</time></trkpt><trkpt lat="45.75374305201112" lon="11.20420770920825"><ele>925.3333333333334</ele><time>2026-04-26T09:56:21.997Z</time></trkpt><trkpt lat="45.75368833332725" lon="11.204302766638945"><ele>919.6666666666667</ele><time>2026-04-26T09:56:23.997Z</time></trkpt><trkpt lat="45.7536624936165" lon="11.204406979571477"><ele>914.0</ele><time>2026-04-26T09:56:26.997Z</time></trkpt><trkpt lat="45.75363392899118" lon="11.204496435184081"><ele>914.0</ele><time>2026-04-26T09:56:28.997Z</time></trkpt><trkpt lat="45.75357377921082" lon="11.20457964480668"><ele>914.0000000000001</ele><time>2026-04-26T09:56:30.997Z</time></trkpt><trkpt lat="45.75349218130953" lon="11.204691563801964"><ele>914.0000000000001</ele><time>2026-04-26T09:56:32.997Z</time></trkpt><trkpt lat="45.75343638746838" lon="11.204756655172316"><ele>914.0</ele><time>2026-04-26T09:56:33.997Z</time></trkpt><trkpt lat="45.75338991949705" lon="11.20482452349373"><ele>914.0</ele><time>2026-04-26T09:56:34.997Z</time></trkpt><trkpt lat="45.75334837751261" lon="11.204977928527716"><ele>911.75</ele><time>2026-04-26T09:56:36.997Z</time></trkpt><trkpt lat="45.7533242493773" lon="11.205148594140699"><ele>909.5</ele><time>2026-04-26T09:56:38.999Z</time></trkpt><trkpt lat="45.75331441722234" lon="11.205318131917124"><ele>907.25</ele><time>2026-04-26T09:56:40.999Z</time></trkpt><trkpt lat="45.753314513578765" lon="11.20548080085109"><ele>905.0</ele><time>2026-04-26T09:56:43Z</time></trkpt><trkpt lat="45.753294969277434" lon="11.205655275580304"><ele>900.5000000000001</ele><time>2026-04-26T09:56:45Z</time></trkpt><trkpt lat="45.753261856557124" lon="11.205748002966887"><ele>896.0</ele><time>2026-04-26T09:56:46Z</time></trkpt><trkpt lat="45.75322042091416" lon="11.205849943782132"><ele>891.5</ele><time>2026-04-26T09:56:47Z</time></trkpt><trkpt lat="45.7531751676236" lon="11.205959890912641"><ele>887.0</ele><time>2026-04-26T09:56:48Z</time></trkpt><trkpt lat="45.75312375030862" lon="11.20609162387579"><ele>882.5000000000001</ele><time>2026-04-26T09:56:49Z</time></trkpt><trkpt lat="45.75307359286562" lon="11.206213772780048"><ele>878.0</ele><time>2026-04-26T09:56:50Z</time></trkpt><trkpt lat="45.75302080888381" lon="11.206336344700295"><ele>878.0</ele><time>2026-04-26T09:56:51Z</time></trkpt><trkpt lat="45.752971409584326" lon="11.206437099786363"><ele>878.0</ele><time>2026-04-26T09:56:52Z</time></trkpt><trkpt lat="45.75292985690217" lon="11.206528657930749"><ele>878.0</ele><time>2026-04-26T09:56:53Z</time></trkpt><trkpt lat="45.752881682551134" lon="11.206619028638482"><ele>878.0</ele><time>2026-04-26T09:56:54Z</time></trkpt><trkpt lat="45.75283151052649" lon="11.206687602877956"><ele>878.0</ele><time>2026-04-26T09:56:55Z</time></trkpt><trkpt lat="45.75277877815839" lon="11.206753819716871"><ele>878.0</ele><time>2026-04-26T09:56:56Z</time></trkpt><trkpt lat="45.752730838004595" lon="11.206822660581729"><ele>878.0</ele><time>2026-04-26T09:56:57Z</time></trkpt><trkpt lat="45.75265054651818" lon="11.2069527429687"><ele>878.3333333333334</ele><time>2026-04-26T09:56:59Z</time></trkpt><trkpt lat="45.752558541647296" lon="11.207043927499697"><ele>878.6666666666667</ele><time>2026-04-26T09:57:01Z</time></trkpt><trkpt lat="45.75251750194622" lon="11.207128637114005"><ele>879.0</ele><time>2026-04-26T09:57:03Z</time></trkpt><trkpt lat="45.752530819144596" lon="11.207225217708924"><ele>879.3333333333333</ele><time>2026-04-26T09:57:07Z</time></trkpt><trkpt lat="45.752597971880704" lon="11.207186821433648"><ele>879.6666666666666</ele><time>2026-04-26T09:57:10Z</time></trkpt><trkpt lat="45.752664767994155" lon="11.207140805906228"><ele>880.0</ele><time>2026-04-26T09:57:13Z</time></trkpt><trkpt lat="45.752869916827485" lon="11.207123555884541"><ele>875.8</ele><time>2026-04-26T09:57:19Z</time></trkpt><trkpt lat="45.75295448497547" lon="11.20707281788751"><ele>871.6</ele><time>2026-04-26T09:57:21Z</time></trkpt><trkpt lat="45.75306425068685" lon="11.206999156698654"><ele>867.4000000000001</ele><time>2026-04-26T09:57:23Z</time></trkpt><trkpt lat="45.75311791729727" lon="11.206949648915417"><ele>863.2</ele><time>2026-04-26T09:57:24Z</time></trkpt><trkpt lat="45.753171158677965" lon="11.206887619939593"><ele>859.0</ele><time>2026-04-26T09:57:25Z</time></trkpt><trkpt lat="45.753270363180846" lon="11.206800080771533"><ele>859.0</ele><time>2026-04-26T09:57:27Z</time></trkpt><trkpt lat="45.75336138394342" lon="11.206745477051026"><ele>859.0000000000001</ele><time>2026-04-26T09:57:29Z</time></trkpt><trkpt lat="45.7534330494796" lon="11.206719670092053"><ele>859.0000000000001</ele><time>2026-04-26T09:57:31Z</time></trkpt><trkpt lat="45.75350336430175" lon="11.206661296596176"><ele>859.0</ele><time>2026-04-26T09:57:34Z</time></trkpt><trkpt lat="45.753580607972765" lon="11.206454394994859"><ele>859.0</ele><time>2026-04-26T09:57:47Z</time></trkpt><trkpt lat="45.7536217037847" lon="11.206343567546693"><ele>856.4000000000001</ele><time>2026-04-26T09:57:50Z</time></trkpt><trkpt lat="45.75366518547264" lon="11.206242565059071"><ele>853.8000000000001</ele><time>2026-04-26T09:57:52Z</time></trkpt><trkpt lat="45.75373123171304" lon="11.20609376936389"><ele>851.2</ele><time>2026-04-26T09:57:54Z</time></trkpt><trkpt lat="45.75379281474722" lon="11.205976246636055"><ele>848.5999999999999</ele><time>2026-04-26T09:57:56Z</time></trkpt><trkpt lat="45.75385927618453" lon="11.205862048651214"><ele>846.0</ele><time>2026-04-26T09:57:58Z</time></trkpt><trkpt lat="45.753935018733834" lon="11.20577258587581"><ele>846.0</ele><time>2026-04-26T09:57:59.999Z</time></trkpt><trkpt lat="45.75399893700238" lon="11.205680856526147"><ele>846.0</ele><time>2026-04-26T09:58:01.999Z</time></trkpt><trkpt lat="45.75404203032108" lon="11.205612993783834"><ele>846.0</ele><time>2026-04-26T09:58:03.999Z</time></trkpt><trkpt lat="45.75408582152307" lon="11.205539688475342"><ele>846.0</ele><time>2026-04-26T09:58:05.999Z</time></trkpt><trkpt lat="45.754164876969796" lon="11.205594307720594"><ele>846.0</ele><time>2026-04-26T09:58:08.999Z</time></trkpt><trkpt lat="45.75420347289067" lon="11.205674656817179"><ele>846.0</ele><time>2026-04-26T09:58:10.999Z</time></trkpt><trkpt lat="45.75421457782168" lon="11.205780108971103"><ele>846.0</ele><time>2026-04-26T09:58:12.999Z</time></trkpt><trkpt lat="45.7542606407761" lon="11.205855778177085"><ele>846.0</ele><time>2026-04-26T09:58:14.999Z</time></trkpt><trkpt lat="45.75432055351833" lon="11.20595681235233"><ele>846.0</ele><time>2026-04-26T09:58:16.999Z</time></trkpt><trkpt lat="45.754409839786355" lon="11.20607489312779"><ele>846.0</ele><time>2026-04-26T09:58:18.999Z</time></trkpt><trkpt lat="45.75447405664599" lon="11.206157536634604"><ele>846.0</ele><time>2026-04-26T09:58:19.999Z</time></trkpt><trkpt lat="45.754533498273496" lon="11.206239104949848"><ele>848.4</ele><time>2026-04-26T09:58:20.999Z</time></trkpt><trkpt lat="45.75463537725759" lon="11.206343891671255"><ele>850.8</ele><time>2026-04-26T09:58:22.999Z</time></trkpt><trkpt lat="45.75475180132465" lon="11.20636144901231"><ele>853.1999999999999</ele><time>2026-04-26T09:58:24.999Z</time></trkpt><trkpt lat="45.75482189332875" lon="11.206412578356769"><ele>855.5999999999999</ele><time>2026-04-26T09:58:25.999Z</time></trkpt><trkpt lat="45.75488722135539" lon="11.20647019204438"><ele>858.0</ele><time>2026-04-26T09:58:26.999Z</time></trkpt><trkpt lat="45.75494166050945" lon="11.20651906877419"><ele>852.5</ele><time>2026-04-26T09:58:27.999Z</time></trkpt><trkpt lat="45.75500611090105" lon="11.206623490537588"><ele>847.0</ele><time>2026-04-26T09:58:29.999Z</time></trkpt><trkpt lat="45.75504803246767" lon="11.206787740227135"><ele>841.5</ele><time>2026-04-26T09:58:31.999Z</time></trkpt><trkpt lat="45.75507940061157" lon="11.206869647841481"><ele>836.0</ele><time>2026-04-26T09:58:32.999Z</time></trkpt><trkpt lat="45.75511609743919" lon="11.206951404893442"><ele>830.5</ele><time>2026-04-26T09:58:33.999Z</time></trkpt><trkpt lat="45.75513675971058" lon="11.207037036107128"><ele>825.0</ele><time>2026-04-26T09:58:34.999Z</time></trkpt><trkpt lat="45.755191414260295" lon="11.207163120443495"><ele>824.3333333333334</ele><time>2026-04-26T09:58:36.999Z</time></trkpt><trkpt lat="45.755224087969296" lon="11.207263168968757"><ele>823.6666666666667</ele><time>2026-04-26T09:58:38.999Z</time></trkpt><trkpt lat="45.755256864703654" lon="11.207377736435028"><ele>823.0</ele><time>2026-04-26T09:58:42.999Z</time></trkpt><trkpt lat="45.75529462422036" lon="11.207453447406724"><ele>822.3333333333334</ele><time>2026-04-26T09:58:46.999Z</time></trkpt><trkpt lat="45.75530560631842" lon="11.207546224112617"><ele>821.6666666666667</ele><time>2026-04-26T09:58:57.999Z</time></trkpt><trkpt lat="45.75534072697943" lon="11.207646445645302"><ele>821.0</ele><time>2026-04-26T09:59:05.999Z</time></trkpt><trkpt lat="45.75536034204668" lon="11.207769810112099"><ele>820.0000000000001</ele><time>2026-04-26T09:59:08.999Z</time></trkpt><trkpt lat="45.755358992840684" lon="11.20789494249516"><ele>819.0</ele><time>2026-04-26T09:59:10.999Z</time></trkpt><trkpt lat="45.75535470152943" lon="11.208019518754016"><ele>818.0</ele><time>2026-04-26T09:59:12.999Z</time></trkpt><trkpt lat="45.75538677178566" lon="11.208108430817092"><ele>817.0</ele><time>2026-04-26T09:59:14.999Z</time></trkpt><trkpt lat="45.755417872907756" lon="11.208201404218471"><ele>816.0000000000001</ele><time>2026-04-26T09:59:16.999Z</time></trkpt><trkpt lat="45.75547198122322" lon="11.20832288296892"><ele>815.0</ele><time>2026-04-26T09:59:18.999Z</time></trkpt><trkpt lat="45.75551547769754" lon="11.208449707078511"><ele>812.7142857142857</ele><time>2026-04-26T09:59:20.999Z</time></trkpt><trkpt lat="45.755563246326766" lon="11.20856357426938"><ele>810.4285714285713</ele><time>2026-04-26T09:59:22.998Z</time></trkpt><trkpt lat="45.75561511086855" lon="11.208646514891386"><ele>808.1428571428571</ele><time>2026-04-26T09:59:24.998Z</time></trkpt><trkpt lat="45.755672296289475" lon="11.208712704636984"><ele>805.8571428571429</ele><time>2026-04-26T09:59:26.998Z</time></trkpt><trkpt lat="45.755730616619715" lon="11.208760255340547"><ele>803.5714285714286</ele><time>2026-04-26T09:59:28.998Z</time></trkpt><trkpt lat="45.75579208899281" lon="11.20878398579192"><ele>801.2857142857143</ele><time>2026-04-26T09:59:30.998Z</time></trkpt><trkpt lat="45.75585277210644" lon="11.208815734362744"><ele>799.0</ele><time>2026-04-26T09:59:33.998Z</time></trkpt><trkpt lat="45.755904440960926" lon="11.208877210468353"><ele>798.9999999999999</ele><time>2026-04-26T09:59:35.998Z</time></trkpt><trkpt lat="45.75590264083503" lon="11.20896891499425"><ele>799.0</ele><time>2026-04-26T09:59:43.998Z</time></trkpt><trkpt lat="45.755819256216" lon="11.209001709337882"><ele>799.0</ele><time>2026-04-26T10:01:08.997Z</time></trkpt><trkpt lat="45.755732890378106" lon="11.20899368659168"><ele>799.0</ele><time>2026-04-26T10:01:10.997Z</time></trkpt><trkpt lat="45.75565044438612" lon="11.208985853153944"><ele>798.9999999999999</ele><time>2026-04-26T10:01:12.997Z</time></trkpt><trkpt lat="45.75557480772399" lon="11.20897152667151"><ele>799.0</ele><time>2026-04-26T10:01:14.997Z</time></trkpt><trkpt lat="45.75563775966848" lon="11.209017303468679"><ele>796.7142857142858</ele><time>2026-04-26T10:01:20.997Z</time></trkpt><trkpt lat="45.75571517241186" lon="11.209033853796882"><ele>794.4285714285713</ele><time>2026-04-26T10:01:22.997Z</time></trkpt><trkpt lat="45.75579183162033" lon="11.209080987610397"><ele>792.1428571428571</ele><time>2026-04-26T10:01:24.997Z</time></trkpt><trkpt lat="45.75581292622345" lon="11.209174023528224"><ele>789.8571428571429</ele><time>2026-04-26T10:01:26.997Z</time></trkpt><trkpt lat="45.755750868633925" lon="11.209212122700691"><ele>787.5714285714287</ele><time>2026-04-26T10:01:29.997Z</time></trkpt><trkpt lat="45.75567745000318" lon="11.209178105641032"><ele>785.2857142857142</ele><time>2026-04-26T10:01:31.997Z</time></trkpt><trkpt lat="45.75560863513376" lon="11.209136068674844"><ele>783.0</ele><time>2026-04-26T10:01:33.997Z</time></trkpt><trkpt lat="45.75555425760019" lon="11.209197318148805"><ele>783.0</ele><time>2026-04-26T10:01:36.997Z</time></trkpt><trkpt lat="45.7555714748121" lon="11.209297725289808"><ele>783.0</ele><time>2026-04-26T10:01:40.997Z</time></trkpt><trkpt lat="45.75564510509739" lon="11.209309997471317"><ele>783.0</ele><time>2026-04-26T10:01:43.997Z</time></trkpt><trkpt lat="45.755804549177405" lon="11.209304472526739"><ele>783.0</ele><time>2026-04-26T10:01:47.997Z</time></trkpt><trkpt lat="45.755902028122456" lon="11.20929840106591"><ele>783.0</ele><time>2026-04-26T10:01:49.997Z</time></trkpt><trkpt lat="45.75608106474216" lon="11.209472918396818"><ele>783.3333333333334</ele><time>2026-04-26T10:01:53.997Z</time></trkpt><trkpt lat="45.756115076972506" lon="11.209566322835602"><ele>783.6666666666667</ele><time>2026-04-26T10:01:54.997Z</time></trkpt><trkpt lat="45.7561405412481" lon="11.209649208038506"><ele>784.0</ele><time>2026-04-26T10:01:55.997Z</time></trkpt><trkpt lat="45.756185017125695" lon="11.20975487196416"><ele>784.3333333333334</ele><time>2026-04-26T10:01:57.997Z</time></trkpt><trkpt lat="45.75626961969793" lon="11.209783979360445"><ele>784.6666666666667</ele><time>2026-04-26T10:02:00.997Z</time></trkpt><trkpt lat="45.75635654470609" lon="11.209780350772792"><ele>785.0</ele><time>2026-04-26T10:02:02.997Z</time></trkpt><trkpt lat="45.75642985509856" lon="11.209809140341823"><ele>785.0000000000001</ele><time>2026-04-26T10:02:05.997Z</time></trkpt><trkpt lat="45.75635554886972" lon="11.209867896810204"><ele>785.0</ele><time>2026-04-26T10:02:10.996Z</time></trkpt><trkpt lat="45.756283561642974" lon="11.20991106512764"><ele>785.0</ele><time>2026-04-26T10:02:12.996Z</time></trkpt><trkpt lat="45.75621504435325" lon="11.209924501129464"><ele>785.0</ele><time>2026-04-26T10:02:14.996Z</time></trkpt><trkpt lat="45.75615073010245" lon="11.209915508724164"><ele>785.0000000000001</ele><time>2026-04-26T10:02:16.996Z</time></trkpt><trkpt lat="45.75608972761093" lon="11.209807174702505"><ele>785.0</ele><time>2026-04-26T10:02:19.996Z</time></trkpt><trkpt lat="45.75603472992074" lon="11.209738155115765"><ele>784.6</ele><time>2026-04-26T10:02:21.996Z</time></trkpt><trkpt lat="45.75594387100645" lon="11.20970922632403"><ele>784.2</ele><time>2026-04-26T10:02:23.996Z</time></trkpt><trkpt lat="45.75584437054872" lon="11.209730962143073"><ele>783.8</ele><time>2026-04-26T10:02:25.996Z</time></trkpt><trkpt lat="45.7557371864614" lon="11.209715191136183"><ele>783.4</ele><time>2026-04-26T10:02:27.996Z</time></trkpt><trkpt lat="45.755625874365364" lon="11.209686058537242"><ele>783.0</ele><time>2026-04-26T10:02:29.996Z</time></trkpt><trkpt lat="45.75553254244382" lon="11.209646999618322"><ele>783.0</ele><time>2026-04-26T10:02:31.996Z</time></trkpt><trkpt lat="45.755450982979816" lon="11.209596268761441"><ele>783.0</ele><time>2026-04-26T10:02:33.996Z</time></trkpt><trkpt lat="45.75552258399679" lon="11.209653327042362"><ele>783.0</ele><time>2026-04-26T10:02:42.996Z</time></trkpt><trkpt lat="45.755619336705074" lon="11.209691737207407"><ele>783.0</ele><time>2026-04-26T10:02:44.996Z</time></trkpt><trkpt lat="45.7557187502162" lon="11.209719107509745"><ele>783.0</ele><time>2026-04-26T10:02:46.996Z</time></trkpt><trkpt lat="45.7558068733372" lon="11.209793054830419"><ele>778.5999999999999</ele><time>2026-04-26T10:02:48.996Z</time></trkpt><trkpt lat="45.755851680914276" lon="11.209860502261067"><ele>774.1999999999999</ele><time>2026-04-26T10:02:49.996Z</time></trkpt><trkpt lat="45.75592579199541" lon="11.209993321163864"><ele>769.8</ele><time>2026-04-26T10:02:51.996Z</time></trkpt><trkpt lat="45.75601298015921" lon="11.210103074210954"><ele>765.4</ele><time>2026-04-26T10:02:53.996Z</time></trkpt><trkpt lat="45.75606763600698" lon="11.210152124069204"><ele>761.0</ele><time>2026-04-26T10:02:54.996Z</time></trkpt><trkpt lat="45.756163124640736" lon="11.210221940031941"><ele>761.0</ele><time>2026-04-26T10:02:56.996Z</time></trkpt><trkpt lat="45.75624309179899" lon="11.2102485367333"><ele>761.0</ele><time>2026-04-26T10:02:58.996Z</time></trkpt><trkpt lat="45.75619347505986" lon="11.21032935688766"><ele>761.0</ele><time>2026-04-26T10:03:08.996Z</time></trkpt><trkpt lat="45.75609216239704" lon="11.210274239000007"><ele>761.0</ele><time>2026-04-26T10:03:10.996Z</time></trkpt><trkpt lat="45.75600616907452" lon="11.210221682973195"><ele>761.0</ele><time>2026-04-26T10:03:12.996Z</time></trkpt><trkpt lat="45.75594199164228" lon="11.210141321975346"><ele>761.0</ele><time>2026-04-26T10:03:14.996Z</time></trkpt><trkpt lat="45.75587780098713" lon="11.210071379212893"><ele>759.3333333333333</ele><time>2026-04-26T10:03:16.996Z</time></trkpt><trkpt lat="45.75580278271592" lon="11.210056506515457"><ele>757.6666666666666</ele><time>2026-04-26T10:03:18.996Z</time></trkpt><trkpt lat="45.755723800479366" lon="11.210055267920373"><ele>756.0</ele><time>2026-04-26T10:03:20.996Z</time></trkpt><trkpt lat="45.75563733967125" lon="11.21004684796002"><ele>754.3333333333334</ele><time>2026-04-26T10:03:22.996Z</time></trkpt><trkpt lat="45.75556051778945" lon="11.210028780091564"><ele>752.6666666666667</ele><time>2026-04-26T10:03:24.996Z</time></trkpt><trkpt lat="45.7554945493428" lon="11.210017719151264"><ele>751.0</ele><time>2026-04-26T10:03:26.996Z</time></trkpt><trkpt lat="45.75540138058307" lon="11.210024867558023"><ele>751.0</ele><time>2026-04-26T10:03:28.996Z</time></trkpt><trkpt lat="45.755427633842864" lon="11.210122142671247"><ele>751.0</ele><time>2026-04-26T10:03:32.996Z</time></trkpt><trkpt lat="45.75549632883791" lon="11.21015594328022"><ele>751.0</ele><time>2026-04-26T10:03:36.995Z</time></trkpt><trkpt lat="45.755580848376475" lon="11.210162276179744"><ele>751.0</ele><time>2026-04-26T10:03:40.995Z</time></trkpt><trkpt lat="45.75568399570636" lon="11.21022405707831"><ele>751.0</ele><time>2026-04-26T10:03:42.995Z</time></trkpt><trkpt lat="45.75574993898442" lon="11.210279901388693"><ele>751.0</ele><time>2026-04-26T10:03:43.997Z</time></trkpt><trkpt lat="45.75584145996476" lon="11.210365915281082"><ele>751.0</ele><time>2026-04-26T10:03:45.998Z</time></trkpt><trkpt lat="45.755926979221954" lon="11.210444671095082"><ele>751.0</ele><time>2026-04-26T10:03:47.998Z</time></trkpt><trkpt lat="45.75602231152227" lon="11.210512251805316"><ele>751.0</ele><time>2026-04-26T10:03:49.998Z</time></trkpt><trkpt lat="45.75609864691685" lon="11.210596117818186"><ele>751.0</ele><time>2026-04-26T10:03:51.999Z</time></trkpt><trkpt lat="45.756169101914175" lon="11.21065856386548"><ele>751.0</ele><time>2026-04-26T10:03:53.999Z</time></trkpt><trkpt lat="45.75624653766818" lon="11.210688613270207"><ele>744.0</ele><time>2026-04-26T10:03:57.999Z</time></trkpt><trkpt lat="45.75634802640408" lon="11.210713592356164"><ele>737.0</ele><time>2026-04-26T10:04:00.999Z</time></trkpt><trkpt lat="45.75648228572795" lon="11.210740348101131"><ele>730.0</ele><time>2026-04-26T10:04:03.999Z</time></trkpt><trkpt lat="45.75655986310988" lon="11.210722379461764"><ele>723.0</ele><time>2026-04-26T10:04:06Z</time></trkpt><trkpt lat="45.756628706782735" lon="11.21068788725086"><ele>716.0</ele><time>2026-04-26T10:04:08Z</time></trkpt><trkpt lat="45.75671122899682" lon="11.210673463481296"><ele>716.0</ele><time>2026-04-26T10:04:10Z</time></trkpt><trkpt lat="45.756866194836725" lon="11.21067291078977"><ele>716.0</ele><time>2026-04-26T10:04:14Z</time></trkpt><trkpt lat="45.75694379518196" lon="11.210634921621844"><ele>716.0</ele><time>2026-04-26T10:04:16Z</time></trkpt><trkpt lat="45.75702471238768" lon="11.210572085100171"><ele>716.0</ele><time>2026-04-26T10:04:18Z</time></trkpt><trkpt lat="45.75711708929596" lon="11.210521615485568"><ele>716.0</ele><time>2026-04-26T10:04:20Z</time></trkpt><trkpt lat="45.75722376844145" lon="11.210458125857881"><ele>723.5</ele><time>2026-04-26T10:04:22Z</time></trkpt><trkpt lat="45.75733244924773" lon="11.21037646082127"><ele>731.0</ele><time>2026-04-26T10:04:24Z</time></trkpt><trkpt lat="45.757417316082325" lon="11.210296257702831"><ele>738.5</ele><time>2026-04-26T10:04:26Z</time></trkpt><trkpt lat="45.75754298575323" lon="11.210310389177483"><ele>746.0</ele><time>2026-04-26T10:04:28Z</time></trkpt><trkpt lat="45.7576442371918" lon="11.210354063941608"><ele>746.0</ele><time>2026-04-26T10:04:30Z</time></trkpt><trkpt lat="45.75757447437704" lon="11.210359077391372"><ele>746.0</ele><time>2026-04-26T10:04:41Z</time></trkpt><trkpt lat="45.757502999929315" lon="11.210410129018198"><ele>746.0</ele><time>2026-04-26T10:04:43Z</time></trkpt><trkpt lat="45.757456476018206" lon="11.210489598900551"><ele>746.0</ele><time>2026-04-26T10:04:45Z</time></trkpt><trkpt lat="45.75739203875766" lon="11.210549189523805"><ele>746.0</ele><time>2026-04-26T10:04:47Z</time></trkpt><trkpt lat="45.757326039422786" lon="11.210580052153942"><ele>746.0</ele><time>2026-04-26T10:04:48.999Z</time></trkpt><trkpt lat="45.75722674683283" lon="11.210562706304385"><ele>746.0</ele><time>2026-04-26T10:04:50.999Z</time></trkpt><trkpt lat="45.757155106636716" lon="11.21057138638653"><ele>746.0</ele><time>2026-04-26T10:04:52.999Z</time></trkpt><trkpt lat="45.757085264375505" lon="11.210631813268023"><ele>746.0</ele><time>2026-04-26T10:04:54.999Z</time></trkpt><trkpt lat="45.756989691207444" lon="11.210699097369295"><ele>746.0</ele><time>2026-04-26T10:04:56.999Z</time></trkpt><trkpt lat="45.75686329773785" lon="11.210777621686763"><ele>746.0</ele><time>2026-04-26T10:04:58.999Z</time></trkpt><trkpt lat="45.75679063743873" lon="11.210824348574326"><ele>741.0</ele><time>2026-04-26T10:04:59.999Z</time></trkpt><trkpt lat="45.75672647509297" lon="11.210865983836525"><ele>736.0</ele><time>2026-04-26T10:05:00.999Z</time></trkpt><trkpt lat="45.756657540343134" lon="11.210912565931146"><ele>731.0</ele><time>2026-04-26T10:05:01.999Z</time></trkpt><trkpt lat="45.7565868633554" lon="11.210964320678707"><ele>726.0</ele><time>2026-04-26T10:05:02.999Z</time></trkpt><trkpt lat="45.756522278190175" lon="11.211020635015096"><ele>721.0</ele><time>2026-04-26T10:05:03.999Z</time></trkpt><trkpt lat="45.75646726588907" lon="11.211083516641054"><ele>716.0</ele><time>2026-04-26T10:05:04.999Z</time></trkpt><trkpt lat="45.756411239116716" lon="11.211169192376289"><ele>716.0</ele><time>2026-04-26T10:05:05.999Z</time></trkpt><trkpt lat="45.7563505679008" lon="11.21125617031613"><ele>716.0</ele><time>2026-04-26T10:05:06.999Z</time></trkpt><trkpt lat="45.75628887795681" lon="11.21134257626172"><ele>716.0</ele><time>2026-04-26T10:05:07.999Z</time></trkpt><trkpt lat="45.756221298437275" lon="11.211429811912794"><ele>716.0</ele><time>2026-04-26T10:05:08.999Z</time></trkpt><trkpt lat="45.75616192613019" lon="11.21150390156048"><ele>716.0</ele><time>2026-04-26T10:05:09.999Z</time></trkpt><trkpt lat="45.75611324028707" lon="11.21156685355398"><ele>716.0</ele><time>2026-04-26T10:05:10.999Z</time></trkpt><trkpt lat="45.756069073887495" lon="11.21164988262691"><ele>711.6666666666666</ele><time>2026-04-26T10:05:11.999Z</time></trkpt><trkpt lat="45.75598561367086" lon="11.211760410430195"><ele>707.3333333333333</ele><time>2026-04-26T10:05:13.999Z</time></trkpt><trkpt lat="45.75590187378183" lon="11.211754031857494"><ele>703.0</ele><time>2026-04-26T10:05:15.999Z</time></trkpt><trkpt lat="45.75585561311373" lon="11.211664065171671"><ele>698.6666666666666</ele><time>2026-04-26T10:05:17.999Z</time></trkpt><trkpt lat="45.75584512696953" lon="11.211565933824739"><ele>694.3333333333334</ele><time>2026-04-26T10:05:19.999Z</time></trkpt><trkpt lat="45.75578509978053" lon="11.211495107876996"><ele>690.0</ele><time>2026-04-26T10:05:21.999Z</time></trkpt><trkpt lat="45.75571164440637" lon="11.211508786163117"><ele>690.0</ele><time>2026-04-26T10:05:23.999Z</time></trkpt><trkpt lat="45.75560854945961" lon="11.211533943748258"><ele>690.0</ele><time>2026-04-26T10:05:25.999Z</time></trkpt><trkpt lat="45.75553419269304" lon="11.211533005542725"><ele>690.0</ele><time>2026-04-26T10:05:26.999Z</time></trkpt><trkpt lat="45.75544993754723" lon="11.211510466537423"><ele>690.0</ele><time>2026-04-26T10:05:27.999Z</time></trkpt><trkpt lat="45.75536289884617" lon="11.211479395215145"><ele>690.0</ele><time>2026-04-26T10:05:28.999Z</time></trkpt><trkpt lat="45.75528242660258" lon="11.2114594997524"><ele>690.0</ele><time>2026-04-26T10:05:29.999Z</time></trkpt><trkpt lat="45.755167340575895" lon="11.211393118126225"><ele>693.2</ele><time>2026-04-26T10:05:31.999Z</time></trkpt><trkpt lat="45.75510158229135" lon="11.211265910318"><ele>696.4</ele><time>2026-04-26T10:05:33.999Z</time></trkpt><trkpt lat="45.755068375695174" lon="11.211186381822843"><ele>699.5999999999999</ele><time>2026-04-26T10:05:34.999Z</time></trkpt><trkpt lat="45.755018497073266" lon="11.211039306897776"><ele>702.8</ele><time>2026-04-26T10:05:36.999Z</time></trkpt><trkpt lat="45.75495162617599" lon="11.210902520186842"><ele>706.0</ele><time>2026-04-26T10:05:38.999Z</time></trkpt><trkpt lat="45.75487019647875" lon="11.210869645209328"><ele>706.0</ele><time>2026-04-26T10:05:40.999Z</time></trkpt><trkpt lat="45.75481374421834" lon="11.210913231713977"><ele>706.0</ele><time>2026-04-26T10:05:43.999Z</time></trkpt><trkpt lat="45.75480850335208" lon="11.211004991873804"><ele>706.0</ele><time>2026-04-26T10:05:45.999Z</time></trkpt><trkpt lat="45.75480835844375" lon="11.211178031476603"><ele>706.0</ele><time>2026-04-26T10:05:47.999Z</time></trkpt><trkpt lat="45.75481334283076" lon="11.211348889516684"><ele>706.0</ele><time>2026-04-26T10:05:49.999Z</time></trkpt><trkpt lat="45.75479729875426" lon="11.211449737529412"><ele>706.0</ele><time>2026-04-26T10:05:50.999Z</time></trkpt><trkpt lat="45.7547795455417" lon="11.21155995475426"><ele>700.4</ele><time>2026-04-26T10:05:51.999Z</time></trkpt><trkpt lat="45.75477152265155" lon="11.211671069435074"><ele>694.8</ele><time>2026-04-26T10:05:52.999Z</time></trkpt><trkpt lat="45.754754036550466" lon="11.211763028500638"><ele>689.1999999999999</ele><time>2026-04-26T10:05:53.999Z</time></trkpt><trkpt lat="45.7547261610015" lon="11.21185936334292"><ele>683.5999999999999</ele><time>2026-04-26T10:05:54.999Z</time></trkpt><trkpt lat="45.75465869387917" lon="11.21202056384511"><ele>678.0</ele><time>2026-04-26T10:05:56.999Z</time></trkpt><trkpt lat="45.754563933247475" lon="11.212161742008254"><ele>678.0</ele><time>2026-04-26T10:05:58.999Z</time></trkpt><trkpt lat="45.75450836514624" lon="11.212229283860362"><ele>678.0</ele><time>2026-04-26T10:05:59.998Z</time></trkpt><trkpt lat="45.75442035802327" lon="11.212344365661526"><ele>678.0</ele><time>2026-04-26T10:06:01.998Z</time></trkpt><trkpt lat="45.75437995113437" lon="11.212416728180973"><ele>678.0</ele><time>2026-04-26T10:06:02.998Z</time></trkpt><trkpt lat="45.75433761279542" lon="11.212496460263223"><ele>678.0</ele><time>2026-04-26T10:06:03.998Z</time></trkpt><trkpt lat="45.754248428021285" lon="11.21261704317881"><ele>678.0</ele><time>2026-04-26T10:06:05.998Z</time></trkpt><trkpt lat="45.754197470474764" lon="11.21267073663133"><ele>676.8</ele><time>2026-04-26T10:06:06.998Z</time></trkpt><trkpt lat="45.75410203979336" lon="11.21279045910032"><ele>675.5999999999999</ele><time>2026-04-26T10:06:08.998Z</time></trkpt><trkpt lat="45.754051363302196" lon="11.212848268691296"><ele>674.4000000000001</ele><time>2026-04-26T10:06:09.998Z</time></trkpt><trkpt lat="45.75397440079964" lon="11.212941190496348"><ele>673.2</ele><time>2026-04-26T10:06:11.998Z</time></trkpt><trkpt lat="45.75392763855653" lon="11.213072431961947"><ele>672.0</ele><time>2026-04-26T10:06:13.998Z</time></trkpt><trkpt lat="45.753898638267735" lon="11.213163579496419"><ele>667.5</ele><time>2026-04-26T10:06:14.998Z</time></trkpt><trkpt lat="45.753844148541674" lon="11.213301570057121"><ele>663.0</ele><time>2026-04-26T10:06:16.998Z</time></trkpt><trkpt lat="45.75384514971745" lon="11.21342864986971"><ele>658.5</ele><time>2026-04-26T10:06:18.998Z</time></trkpt><trkpt lat="45.75392329050253" lon="11.213471950472906"><ele>654.0</ele><time>2026-04-26T10:06:21.998Z</time></trkpt><trkpt lat="45.753980309394" lon="11.213386775940423"><ele>649.5</ele><time>2026-04-26T10:06:24.998Z</time></trkpt><trkpt lat="45.75399692427001" lon="11.213297870689821"><ele>645.0</ele><time>2026-04-26T10:06:26.998Z</time></trkpt><trkpt lat="45.75403151639915" lon="11.213213877421024"><ele>645.0</ele><time>2026-04-26T10:06:28.998Z</time></trkpt><trkpt lat="45.75410675945841" lon="11.213215257523183"><ele>645.0</ele><time>2026-04-26T10:06:31.998Z</time></trkpt><trkpt lat="45.75411055024537" lon="11.213358459191507"><ele>645.0</ele><time>2026-04-26T10:06:35.998Z</time></trkpt><trkpt lat="45.7540949320321" lon="11.213491391487771"><ele>645.0</ele><time>2026-04-26T10:06:37.998Z</time></trkpt><trkpt lat="45.75405238435809" lon="11.213573136641562"><ele>645.0</ele><time>2026-04-26T10:06:39.998Z</time></trkpt><trkpt lat="45.753958456171645" lon="11.213648347238548"><ele>645.0</ele><time>2026-04-26T10:06:41.998Z</time></trkpt><trkpt lat="45.75387744351545" lon="11.213734701980712"><ele>645.0</ele><time>2026-04-26T10:06:43.998Z</time></trkpt><trkpt lat="45.7539093797682" lon="11.213856344519465"><ele>645.0</ele><time>2026-04-26T10:06:45.998Z</time></trkpt><trkpt lat="45.753965736787634" lon="11.213900765354955"><ele>645.0</ele><time>2026-04-26T10:06:47.998Z</time></trkpt><trkpt lat="45.75408422550566" lon="11.213802324165838"><ele>645.0</ele><time>2026-04-26T10:06:52.998Z</time></trkpt><trkpt lat="45.75416167338996" lon="11.213647891563848"><ele>645.0</ele><time>2026-04-26T10:06:54.998Z</time></trkpt><trkpt lat="45.75420102977331" lon="11.21357293530337"><ele>645.0</ele><time>2026-04-26T10:06:55.998Z</time></trkpt><trkpt lat="45.75424174427007" lon="11.213493128942686"><ele>645.0</ele><time>2026-04-26T10:06:56.998Z</time></trkpt><trkpt lat="45.7542880369468" lon="11.213395120789885"><ele>645.0</ele><time>2026-04-26T10:06:57.998Z</time></trkpt><trkpt lat="45.754322929018066" lon="11.213316555631998"><ele>645.0</ele><time>2026-04-26T10:06:58.998Z</time></trkpt><trkpt lat="45.75440138977811" lon="11.213170278931264"><ele>645.0</ele><time>2026-04-26T10:07:00.998Z</time></trkpt><trkpt lat="45.75446384986933" lon="11.213059919275604"><ele>645.0</ele><time>2026-04-26T10:07:02.998Z</time></trkpt><trkpt lat="45.754523600431924" lon="11.213001172193264"><ele>644.0</ele><time>2026-04-26T10:07:04.998Z</time></trkpt><trkpt lat="45.75459505327304" lon="11.213017698121057"><ele>643.0</ele><time>2026-04-26T10:07:06.998Z</time></trkpt><trkpt lat="45.754530282143534" lon="11.213117011931018"><ele>642.0</ele><time>2026-04-26T10:07:12.997Z</time></trkpt><trkpt lat="45.754481381753685" lon="11.213194283424412"><ele>641.0</ele><time>2026-04-26T10:07:14.997Z</time></trkpt><trkpt lat="45.754468943152816" lon="11.21329135226121"><ele>640.0</ele><time>2026-04-26T10:07:16.997Z</time></trkpt><trkpt lat="45.75449094782968" lon="11.213398279052994"><ele>639.0</ele><time>2026-04-26T10:07:18.997Z</time></trkpt><trkpt lat="45.75451482019945" lon="11.213486614676617"><ele>639.0</ele><time>2026-04-26T10:07:20.997Z</time></trkpt><trkpt lat="45.75457081614939" lon="11.213578271604913"><ele>639.0</ele><time>2026-04-26T10:07:43.997Z</time></trkpt><trkpt lat="45.754624634241594" lon="11.21365746712904"><ele>639.0</ele><time>2026-04-26T10:08:18.996Z</time></trkpt><trkpt lat="45.754621252274106" lon="11.213804922121684"><ele>639.0</ele><time>2026-04-26T10:08:21.996Z</time></trkpt><trkpt lat="45.75459073720229" lon="11.213955570758344"><ele>639.0</ele><time>2026-04-26T10:08:23.996Z</time></trkpt><trkpt lat="45.75458636398183" lon="11.214120609918938"><ele>634.0</ele><time>2026-04-26T10:08:25.996Z</time></trkpt><trkpt lat="45.75458850155812" lon="11.214280953272464"><ele>629.0</ele><time>2026-04-26T10:08:27.996Z</time></trkpt><trkpt lat="45.754609724405405" lon="11.214391515002989"><ele>624.0</ele><time>2026-04-26T10:08:29.996Z</time></trkpt><trkpt lat="45.75461629126784" lon="11.21452829526258"><ele>619.0</ele><time>2026-04-26T10:08:31.996Z</time></trkpt><trkpt lat="45.754608649579225" lon="11.214627824971183"><ele>614.0</ele><time>2026-04-26T10:08:32.996Z</time></trkpt><trkpt lat="45.754602232426734" lon="11.214750991964452"><ele>609.0</ele><time>2026-04-26T10:08:33.996Z</time></trkpt><trkpt lat="45.754589549099485" lon="11.214919242911789"><ele>605.0</ele><time>2026-04-26T10:08:34.996Z</time></trkpt><trkpt lat="45.75456756604477" lon="11.215118285961262"><ele>601.0</ele><time>2026-04-26T10:08:35.996Z</time></trkpt><trkpt lat="45.75453779283654" lon="11.215315936765204"><ele>597.0</ele><time>2026-04-26T10:08:36.996Z</time></trkpt><trkpt lat="45.7545138998271" lon="11.215482492755088"><ele>593.0</ele><time>2026-04-26T10:08:37.996Z</time></trkpt><trkpt lat="45.75448877388036" lon="11.21565427251123"><ele>590.75</ele><time>2026-04-26T10:08:38.996Z</time></trkpt><trkpt lat="45.75446761762319" lon="11.215836419703672"><ele>588.5</ele><time>2026-04-26T10:08:39.996Z</time></trkpt><trkpt lat="45.75444578746953" lon="11.21600461668088"><ele>586.25</ele><time>2026-04-26T10:08:40.996Z</time></trkpt><trkpt lat="45.75442198502459" lon="11.216168081148654"><ele>584.0</ele><time>2026-04-26T10:08:41.996Z</time></trkpt><trkpt lat="45.75440261318216" lon="11.216328770516752"><ele>584.0</ele><time>2026-04-26T10:08:42.996Z</time></trkpt><trkpt lat="45.7543869444683" lon="11.216463456213024"><ele>584.0</ele><time>2026-04-26T10:08:43.996Z</time></trkpt><trkpt lat="45.754371449201464" lon="11.216573022436783"><ele>584.0</ele><time>2026-04-26T10:08:44.996Z</time></trkpt><trkpt lat="45.75436679508186" lon="11.21667398401245"><ele>584.0</ele><time>2026-04-26T10:08:45.996Z</time></trkpt><trkpt lat="45.75441264461225" lon="11.216762339578862"><ele>584.0</ele><time>2026-04-26T10:08:47.996Z</time></trkpt><trkpt lat="45.75448164787564" lon="11.216752602022497"><ele>584.0</ele><time>2026-04-26T10:08:48.996Z</time></trkpt><trkpt lat="45.75454537774995" lon="11.216647318393154"><ele>584.0</ele><time>2026-04-26T10:08:49.996Z</time></trkpt><trkpt lat="45.75460572341171" lon="11.216488806514912"><ele>584.0</ele><time>2026-04-26T10:08:50.996Z</time></trkpt><trkpt lat="45.754680431732524" lon="11.216325266101203"><ele>584.0</ele><time>2026-04-26T10:08:51.996Z</time></trkpt><trkpt lat="45.75475698660892" lon="11.216151730931621"><ele>584.0</ele><time>2026-04-26T10:08:52.996Z</time></trkpt><trkpt lat="45.75483468948219" lon="11.215972131479566"><ele>584.0</ele><time>2026-04-26T10:08:53.996Z</time></trkpt><trkpt lat="45.75491020890401" lon="11.215788971067122"><ele>584.0</ele><time>2026-04-26T10:08:54.996Z</time></trkpt><trkpt lat="45.75498711738256" lon="11.21560727800018"><ele>584.0</ele><time>2026-04-26T10:08:55.996Z</time></trkpt><trkpt lat="45.75505934482037" lon="11.215429165938623"><ele>584.0</ele><time>2026-04-26T10:08:56.996Z</time></trkpt><trkpt lat="45.75513997618033" lon="11.215273435744288"><ele>582.8</ele><time>2026-04-26T10:08:57.996Z</time></trkpt><trkpt lat="45.755219348258024" lon="11.215126001170002"><ele>581.5999999999999</ele><time>2026-04-26T10:08:58.996Z</time></trkpt><trkpt lat="45.75529054659538" lon="11.215001438307945"><ele>580.4</ele><time>2026-04-26T10:08:59.996Z</time></trkpt><trkpt lat="45.75534521496553" lon="11.214885635333795"><ele>579.1999999999999</ele><time>2026-04-26T10:09:00.996Z</time></trkpt><trkpt lat="45.75538960251264" lon="11.214781543905415"><ele>578.0</ele><time>2026-04-26T10:09:01.996Z</time></trkpt><trkpt lat="45.75542165110411" lon="11.214689988757694"><ele>578.0</ele><time>2026-04-26T10:09:02.996Z</time></trkpt><trkpt lat="45.75550206078283" lon="11.21458273111832"><ele>578.0</ele><time>2026-04-26T10:09:04.996Z</time></trkpt><trkpt lat="45.755502850484845" lon="11.214717994687408"><ele>578.0</ele><time>2026-04-26T10:09:07.996Z</time></trkpt><trkpt lat="45.755447664687516" lon="11.214871300823116"><ele>578.0</ele><time>2026-04-26T10:09:08.996Z</time></trkpt><trkpt lat="45.755403889629584" lon="11.215037015948923"><ele>578.0</ele><time>2026-04-26T10:09:09.996Z</time></trkpt><trkpt lat="45.75535061195174" lon="11.21519239153462"><ele>578.0</ele><time>2026-04-26T10:09:10.996Z</time></trkpt><trkpt lat="45.75529788294276" lon="11.2153462225082"><ele>578.0</ele><time>2026-04-26T10:09:11.996Z</time></trkpt><trkpt lat="45.75525092703643" lon="11.21550569641152"><ele>578.0</ele><time>2026-04-26T10:09:12.996Z</time></trkpt><trkpt lat="45.75520528351232" lon="11.21566261402768"><ele>578.0</ele><time>2026-04-26T10:09:13.996Z</time></trkpt><trkpt lat="45.75517473465825" lon="11.215826516281206"><ele>577.25</ele><time>2026-04-26T10:09:14.996Z</time></trkpt><trkpt lat="45.7551557018" lon="11.215996943064948"><ele>576.5</ele><time>2026-04-26T10:09:15.996Z</time></trkpt><trkpt lat="45.75514512126297" lon="11.21617752160182"><ele>575.75</ele><time>2026-04-26T10:09:16.996Z</time></trkpt><trkpt lat="45.7551452613733" lon="11.216352607224634"><ele>575.0</ele><time>2026-04-26T10:09:17.996Z</time></trkpt><trkpt lat="45.75514336991394" lon="11.21652559340206"><ele>575.0</ele><time>2026-04-26T10:09:18.996Z</time></trkpt><trkpt lat="45.755143935492896" lon="11.216689904983227"><ele>575.0</ele><time>2026-04-26T10:09:19.996Z</time></trkpt><trkpt lat="45.755146942177646" lon="11.21684973517707"><ele>575.0</ele><time>2026-04-26T10:09:20.996Z</time></trkpt><trkpt lat="45.7551471981603" lon="11.217003949815162"><ele>575.0</ele><time>2026-04-26T10:09:21.996Z</time></trkpt><trkpt lat="45.75514476854724" lon="11.217156238438502"><ele>575.0</ele><time>2026-04-26T10:09:22.996Z</time></trkpt><trkpt lat="45.75514468042611" lon="11.21730283920595"><ele>574.0</ele><time>2026-04-26T10:09:23.995Z</time></trkpt><trkpt lat="45.755145307714415" lon="11.217442732083539"><ele>573.0</ele><time>2026-04-26T10:09:24.995Z</time></trkpt><trkpt lat="45.755138465058664" lon="11.217586950460714"><ele>572.0</ele><time>2026-04-26T10:09:25.995Z</time></trkpt><trkpt lat="45.75513533060559" lon="11.217727177852005"><ele>571.0</ele><time>2026-04-26T10:09:26.995Z</time></trkpt><trkpt lat="45.75512396543821" lon="11.217864401063135"><ele>570.0</ele><time>2026-04-26T10:09:27.995Z</time></trkpt><trkpt lat="45.755108192569004" lon="11.218004095676411"><ele>570.0</ele><time>2026-04-26T10:09:28.995Z</time></trkpt><trkpt lat="45.755081345279095" lon="11.218140882761162"><ele>570.0</ele><time>2026-04-26T10:09:29.995Z</time></trkpt><trkpt lat="45.75504797075504" lon="11.218279507332786"><ele>570.0</ele><time>2026-04-26T10:09:30.995Z</time></trkpt><trkpt lat="45.75501577337854" lon="11.218414436843604"><ele>570.0</ele><time>2026-04-26T10:09:31.995Z</time></trkpt><trkpt lat="45.754978458162434" lon="11.218547121603665"><ele>570.0</ele><time>2026-04-26T10:09:32.995Z</time></trkpt><trkpt lat="45.754935267153286" lon="11.21866855785693"><ele>569.5</ele><time>2026-04-26T10:09:33.995Z</time></trkpt><trkpt lat="45.75488296482923" lon="11.218781916981053"><ele>569.0</ele><time>2026-04-26T10:09:34.995Z</time></trkpt><trkpt lat="45.75483026551423" lon="11.21889414870753"><ele>568.5</ele><time>2026-04-26T10:09:35.995Z</time></trkpt><trkpt lat="45.75477772655993" lon="11.218998087352071"><ele>568.0</ele><time>2026-04-26T10:09:36.995Z</time></trkpt><trkpt lat="45.754727314985495" lon="11.219094143189732"><ele>567.5</ele><time>2026-04-26T10:09:37.995Z</time></trkpt><trkpt lat="45.754699022552224" lon="11.219195859968783"><ele>567.0</ele><time>2026-04-26T10:09:38.995Z</time></trkpt><trkpt lat="45.75467797025649" lon="11.21928330063937"><ele>564.75</ele><time>2026-04-26T10:09:39.995Z</time></trkpt><trkpt lat="45.75473108347929" lon="11.219455439777283"><ele>562.5</ele><time>2026-04-26T10:09:41.995Z</time></trkpt><trkpt lat="45.7548016276996" lon="11.21956587100311"><ele>560.25</ele><time>2026-04-26T10:09:42.995Z</time></trkpt><trkpt lat="45.75487685680546" lon="11.219695977886184"><ele>558.0</ele><time>2026-04-26T10:09:43.995Z</time></trkpt><trkpt lat="45.75492934111182" lon="11.219846972781726"><ele>554.75</ele><time>2026-04-26T10:09:44.995Z</time></trkpt><trkpt lat="45.75497243329818" lon="11.2200060571902"><ele>551.5</ele><time>2026-04-26T10:09:45.995Z</time></trkpt><trkpt lat="45.75500917519922" lon="11.220164781353581"><ele>548.25</ele><time>2026-04-26T10:09:46.995Z</time></trkpt><trkpt lat="45.75502762330426" lon="11.220324666288537"><ele>545.0</ele><time>2026-04-26T10:09:47.995Z</time></trkpt><trkpt lat="45.75502347067462" lon="11.220489938856801"><ele>545.0</ele><time>2026-04-26T10:09:48.995Z</time></trkpt><trkpt lat="45.754975046843896" lon="11.220641301722003"><ele>545.0</ele><time>2026-04-26T10:09:49.995Z</time></trkpt><trkpt lat="45.75489220326228" lon="11.220766821783869"><ele>545.0</ele><time>2026-04-26T10:09:50.995Z</time></trkpt><trkpt lat="45.754796584105755" lon="11.22087910017774"><ele>545.0</ele><time>2026-04-26T10:09:51.995Z</time></trkpt><trkpt lat="45.75470594102626" lon="11.220997225622444"><ele>542.75</ele><time>2026-04-26T10:09:52.995Z</time></trkpt><trkpt lat="45.754613381337414" lon="11.221110334582301"><ele>540.5</ele><time>2026-04-26T10:09:53.995Z</time></trkpt><trkpt lat="45.75452032285553" lon="11.221224588530376"><ele>538.25</ele><time>2026-04-26T10:09:54.995Z</time></trkpt><trkpt lat="45.75442772455446" lon="11.221337515516547"><ele>536.0</ele><time>2026-04-26T10:09:55.995Z</time></trkpt><trkpt lat="45.754355789055445" lon="11.221473555188144"><ele>533.0</ele><time>2026-04-26T10:09:56.995Z</time></trkpt><trkpt lat="45.75428780039238" lon="11.221613274923072"><ele>530.0</ele><time>2026-04-26T10:09:57.995Z</time></trkpt><trkpt lat="45.7542364256257" lon="11.22176819927776"><ele>527.0</ele><time>2026-04-26T10:09:58.995Z</time></trkpt><trkpt lat="45.75419165703175" lon="11.22192989168608"><ele>524.0</ele><time>2026-04-26T10:09:59.995Z</time></trkpt><trkpt lat="45.75414430579317" lon="11.222087413174172"><ele>524.0</ele><time>2026-04-26T10:10:00.995Z</time></trkpt><trkpt lat="45.75409891638476" lon="11.222241316577136"><ele>524.0</ele><time>2026-04-26T10:10:01.995Z</time></trkpt><trkpt lat="45.754059506871" lon="11.222390261157033"><ele>524.0</ele><time>2026-04-26T10:10:02.995Z</time></trkpt><trkpt lat="45.7540139880029" lon="11.222532884785197"><ele>524.0</ele><time>2026-04-26T10:10:03.995Z</time></trkpt><trkpt lat="45.75396987326465" lon="11.222683416441408"><ele>522.25</ele><time>2026-04-26T10:10:04.995Z</time></trkpt><trkpt lat="45.75391004151573" lon="11.222826107357546"><ele>520.5</ele><time>2026-04-26T10:10:05.995Z</time></trkpt><trkpt lat="45.753847994291654" lon="11.222970955586032"><ele>518.75</ele><time>2026-04-26T10:10:06.995Z</time></trkpt><trkpt lat="45.75380116366456" lon="11.223126743132863"><ele>517.0</ele><time>2026-04-26T10:10:07.995Z</time></trkpt><trkpt lat="45.753766247867205" lon="11.223290497748808"><ele>515.0</ele><time>2026-04-26T10:10:08.995Z</time></trkpt><trkpt lat="45.75373906016737" lon="11.223460860305886"><ele>513.0</ele><time>2026-04-26T10:10:09.995Z</time></trkpt><trkpt lat="45.75372604172228" lon="11.223642658936255"><ele>511.0</ele><time>2026-04-26T10:10:10.995Z</time></trkpt><trkpt lat="45.75371030615184" lon="11.223829469396485"><ele>509.0</ele><time>2026-04-26T10:10:11.995Z</time></trkpt><trkpt lat="45.753679570872684" lon="11.224012062340458"><ele>508.75</ele><time>2026-04-26T10:10:12.995Z</time></trkpt><trkpt lat="45.75362920475849" lon="11.224188331721626"><ele>508.5</ele><time>2026-04-26T10:10:13.995Z</time></trkpt><trkpt lat="45.75356482270423" lon="11.224349040347901"><ele>508.25</ele><time>2026-04-26T10:10:14.995Z</time></trkpt><trkpt lat="45.75349079955845" lon="11.224498783666483"><ele>508.0</ele><time>2026-04-26T10:10:15.995Z</time></trkpt><trkpt lat="45.75340338659859" lon="11.224642792799706"><ele>508.0</ele><time>2026-04-26T10:10:16.995Z</time></trkpt><trkpt lat="45.75330260419606" lon="11.224777957015442"><ele>508.0</ele><time>2026-04-26T10:10:17.995Z</time></trkpt><trkpt lat="45.75319499347929" lon="11.22490411349231"><ele>508.0</ele><time>2026-04-26T10:10:18.995Z</time></trkpt><trkpt lat="45.75309067821671" lon="11.225030621666852"><ele>508.0</ele><time>2026-04-26T10:10:19.995Z</time></trkpt><trkpt lat="45.752985358021" lon="11.225155753016162"><ele>506.0</ele><time>2026-04-26T10:10:20.995Z</time></trkpt><trkpt lat="45.75288209861398" lon="11.22528417334555"><ele>504.0</ele><time>2026-04-26T10:10:21.995Z</time></trkpt><trkpt lat="45.75278414212073" lon="11.2254206676482"><ele>502.0</ele><time>2026-04-26T10:10:22.995Z</time></trkpt><trkpt lat="45.7526875692307" lon="11.225564382630736"><ele>500.0</ele><time>2026-04-26T10:10:23.995Z</time></trkpt><trkpt lat="45.752584230883414" lon="11.225701949324874"><ele>498.5</ele><time>2026-04-26T10:10:24.995Z</time></trkpt><trkpt lat="45.75248010636987" lon="11.22584235928185"><ele>497.0</ele><time>2026-04-26T10:10:25.995Z</time></trkpt><trkpt lat="45.75237846425891" lon="11.225981231443011"><ele>495.5</ele><time>2026-04-26T10:10:26.995Z</time></trkpt><trkpt lat="45.75227498643235" lon="11.226115556090381"><ele>494.0</ele><time>2026-04-26T10:10:27.995Z</time></trkpt><trkpt lat="45.75217226117907" lon="11.226253277457946"><ele>494.0</ele><time>2026-04-26T10:10:28.995Z</time></trkpt><trkpt lat="45.75206749311992" lon="11.226392754631135"><ele>494.0</ele><time>2026-04-26T10:10:29.995Z</time></trkpt><trkpt lat="45.75196305041573" lon="11.22653521612441"><ele>494.0</ele><time>2026-04-26T10:10:30.994Z</time></trkpt><trkpt lat="45.75185618046225" lon="11.226676412341963"><ele>494.0</ele><time>2026-04-26T10:10:31.994Z</time></trkpt><trkpt lat="45.75175101657188" lon="11.226818212460197"><ele>493.75</ele><time>2026-04-26T10:10:32.994Z</time></trkpt><trkpt lat="45.75164621055968" lon="11.22696268588585"><ele>493.5</ele><time>2026-04-26T10:10:33.994Z</time></trkpt><trkpt lat="45.75154632993661" lon="11.227105303548573"><ele>493.25</ele><time>2026-04-26T10:10:34.994Z</time></trkpt><trkpt lat="45.751447146536464" lon="11.227244814999796"><ele>493.0</ele><time>2026-04-26T10:10:35.994Z</time></trkpt><trkpt lat="45.7513489760804" lon="11.227385842105292"><ele>490.5</ele><time>2026-04-26T10:10:36.994Z</time></trkpt><trkpt lat="45.751250954813976" lon="11.227528126311856"><ele>488.0</ele><time>2026-04-26T10:10:37.994Z</time></trkpt><trkpt lat="45.75115505285833" lon="11.227673225801272"><ele>485.5</ele><time>2026-04-26T10:10:38.994Z</time></trkpt><trkpt lat="45.75106940597363" lon="11.227824803236928"><ele>483.0</ele><time>2026-04-26T10:10:39.994Z</time></trkpt><trkpt lat="45.7509878008637" lon="11.227977599700894"><ele>484.75</ele><time>2026-04-26T10:10:40.994Z</time></trkpt><trkpt lat="45.75091326097411" lon="11.228139005279282"><ele>486.5</ele><time>2026-04-26T10:10:41.994Z</time></trkpt><trkpt lat="45.75084556239419" lon="11.228308842219297"><ele>488.25</ele><time>2026-04-26T10:10:42.994Z</time></trkpt><trkpt lat="45.75078531575107" lon="11.228484838230042"><ele>490.0</ele><time>2026-04-26T10:10:43.994Z</time></trkpt><trkpt lat="45.75072822802628" lon="11.228662489096141"><ele>490.0</ele><time>2026-04-26T10:10:44.994Z</time></trkpt><trkpt lat="45.75066604993049" lon="11.228838059981717"><ele>490.0</ele><time>2026-04-26T10:10:45.994Z</time></trkpt><trkpt lat="45.75061645456721" lon="11.229025866531867"><ele>490.0</ele><time>2026-04-26T10:10:46.994Z</time></trkpt><trkpt lat="45.75056602708474" lon="11.229215088893403"><ele>490.0</ele><time>2026-04-26T10:10:47.994Z</time></trkpt><trkpt lat="45.750516915032584" lon="11.229405183254592"><ele>487.0</ele><time>2026-04-26T10:10:48.994Z</time></trkpt><trkpt lat="45.750470276497005" lon="11.229590649629019"><ele>484.0</ele><time>2026-04-26T10:10:49.996Z</time></trkpt><trkpt lat="45.750420823168035" lon="11.22977260881771"><ele>481.0</ele><time>2026-04-26T10:10:50.996Z</time></trkpt><trkpt lat="45.750373763478336" lon="11.229954154684851"><ele>478.0</ele><time>2026-04-26T10:10:51.997Z</time></trkpt><trkpt lat="45.750325807222154" lon="11.230130805110944"><ele>476.75</ele><time>2026-04-26T10:10:52.997Z</time></trkpt><trkpt lat="45.750280803646426" lon="11.230304470230989"><ele>475.5</ele><time>2026-04-26T10:10:53.997Z</time></trkpt><trkpt lat="45.7502332961866" lon="11.230473585693185"><ele>474.25</ele><time>2026-04-26T10:10:54.997Z</time></trkpt><trkpt lat="45.75018731573967" lon="11.230645952342677"><ele>473.0</ele><time>2026-04-26T10:10:55.997Z</time></trkpt><trkpt lat="45.750145314121916" lon="11.230824740590537"><ele>473.0</ele><time>2026-04-26T10:10:56.998Z</time></trkpt><trkpt lat="45.75011246076548" lon="11.231010172358067"><ele>473.0</ele><time>2026-04-26T10:10:57.998Z</time></trkpt><trkpt lat="45.75008011117611" lon="11.23119662704554"><ele>473.0</ele><time>2026-04-26T10:10:58.998Z</time></trkpt><trkpt lat="45.75005469340008" lon="11.23138369045353"><ele>473.0</ele><time>2026-04-26T10:10:59.998Z</time></trkpt><trkpt lat="45.75003388080754" lon="11.231575900940799"><ele>471.0</ele><time>2026-04-26T10:11:00.998Z</time></trkpt><trkpt lat="45.75001236732321" lon="11.231766876165208"><ele>469.0</ele><time>2026-04-26T10:11:01.998Z</time></trkpt><trkpt lat="45.749990108934504" lon="11.231956970897164"><ele>467.0</ele><time>2026-04-26T10:11:02.998Z</time></trkpt><trkpt lat="45.74996254312367" lon="11.232147109332942"><ele>465.0</ele><time>2026-04-26T10:11:03.998Z</time></trkpt><trkpt lat="45.74993305131615" lon="11.23233624187082"><ele>463.0</ele><time>2026-04-26T10:11:04.999Z</time></trkpt><trkpt lat="45.74990364108589" lon="11.23252873272811"><ele>461.0</ele><time>2026-04-26T10:11:05.998Z</time></trkpt><trkpt lat="45.74987968693981" lon="11.232721660293484"><ele>459.0</ele><time>2026-04-26T10:11:06.998Z</time></trkpt><trkpt lat="45.74985432071234" lon="11.232909670576568"><ele>457.0</ele><time>2026-04-26T10:11:07.998Z</time></trkpt><trkpt lat="45.74983244416805" lon="11.233090724226392"><ele>455.25</ele><time>2026-04-26T10:11:08.998Z</time></trkpt><trkpt lat="45.74981733394636" lon="11.23326692852197"><ele>453.5</ele><time>2026-04-26T10:11:09.998Z</time></trkpt><trkpt lat="45.749800906382305" lon="11.23343270703276"><ele>451.75</ele><time>2026-04-26T10:11:10.999Z</time></trkpt><trkpt lat="45.749784548762136" lon="11.233591779766945"><ele>450.0</ele><time>2026-04-26T10:11:11.999Z</time></trkpt><trkpt lat="45.74976749499761" lon="11.23373826819881"><ele>450.0</ele><time>2026-04-26T10:11:12.999Z</time></trkpt><trkpt lat="45.74975601883399" lon="11.233882743353083"><ele>450.0</ele><time>2026-04-26T10:11:13.999Z</time></trkpt><trkpt lat="45.749733418749926" lon="11.234022366040064"><ele>450.0</ele><time>2026-04-26T10:11:14.999Z</time></trkpt><trkpt lat="45.7497089866738" lon="11.23416096702326"><ele>450.0</ele><time>2026-04-26T10:11:15.999Z</time></trkpt><trkpt lat="45.74967590616045" lon="11.234292705979737"><ele>450.0</ele><time>2026-04-26T10:11:16.999Z</time></trkpt><trkpt lat="45.749640960183385" lon="11.234420211111345"><ele>449.1666666666667</ele><time>2026-04-26T10:11:17.999Z</time></trkpt><trkpt lat="45.749602965593" lon="11.234535475283716"><ele>448.33333333333337</ele><time>2026-04-26T10:11:18.999Z</time></trkpt><trkpt lat="45.74956250182811" lon="11.234638092948387"><ele>447.5</ele><time>2026-04-26T10:11:19.999Z</time></trkpt><trkpt lat="45.74951786880119" lon="11.234731398453276"><ele>446.6666666666667</ele><time>2026-04-26T10:11:20.999Z</time></trkpt><trkpt lat="45.74947782494754" lon="11.234821654429785"><ele>445.83333333333337</ele><time>2026-04-26T10:11:21.999Z</time></trkpt><trkpt lat="45.74944572926721" lon="11.234911332371304"><ele>445.0</ele><time>2026-04-26T10:11:22.999Z</time></trkpt><trkpt lat="45.74941320003486" lon="11.234994024972757"><ele>445.00000000000006</ele><time>2026-04-26T10:11:23.999Z</time></trkpt><trkpt lat="45.74935438538539" lon="11.235126824660723"><ele>445.0</ele><time>2026-04-26T10:11:25.999Z</time></trkpt><trkpt lat="45.74944890028952" lon="11.235033135146368"><ele>445.0</ele><time>2026-04-26T10:11:31.999Z</time></trkpt><trkpt lat="45.74948358449737" lon="11.23495267906741"><ele>445.0</ele><time>2026-04-26T10:11:32.999Z</time></trkpt><trkpt lat="45.7495136373843" lon="11.234869057113409"><ele>445.00000000000006</ele><time>2026-04-26T10:11:33.999Z</time></trkpt><trkpt lat="45.74954874074181" lon="11.234791516247832"><ele>445.0</ele><time>2026-04-26T10:11:34.999Z</time></trkpt><trkpt lat="45.74962464268988" lon="11.234661512607524"><ele>445.00000000000006</ele><time>2026-04-26T10:11:36.999Z</time></trkpt><trkpt lat="45.74970647752571" lon="11.234599105579692"><ele>445.0</ele><time>2026-04-26T10:11:38.999Z</time></trkpt><trkpt lat="45.74977840025511" lon="11.234597844101758"><ele>445.0</ele><time>2026-04-26T10:11:40.999Z</time></trkpt><trkpt lat="45.74986511507647" lon="11.234611171732205"><ele>445.0</ele><time>2026-04-26T10:11:43.999Z</time></trkpt><trkpt lat="45.749953716824656" lon="11.234622020890793"><ele>445.00000000000006</ele><time>2026-04-26T10:11:46.999Z</time></trkpt><trkpt lat="45.75004251018857" lon="11.234669270030452"><ele>445.0</ele><time>2026-04-26T10:11:48.999Z</time></trkpt><trkpt lat="45.75011326293372" lon="11.23470136313484"><ele>445.0</ele><time>2026-04-26T10:11:49.999Z</time></trkpt><trkpt lat="45.75019802930186" lon="11.234723731197843"><ele>445.0</ele><time>2026-04-26T10:11:50.999Z</time></trkpt><trkpt lat="45.75028638879855" lon="11.234715124984916"><ele>445.0</ele><time>2026-04-26T10:11:51.999Z</time></trkpt><trkpt lat="45.750382200679944" lon="11.234701193685542"><ele>445.0</ele><time>2026-04-26T10:11:52.999Z</time></trkpt><trkpt lat="45.75048860724669" lon="11.234690948273874"><ele>445.0</ele><time>2026-04-26T10:11:53.999Z</time></trkpt><trkpt lat="45.750600463360314" lon="11.234678354297278"><ele>445.25</ele><time>2026-04-26T10:11:54.999Z</time></trkpt><trkpt lat="45.75071583506269" lon="11.234661957987983"><ele>445.5</ele><time>2026-04-26T10:11:55.999Z</time></trkpt><trkpt lat="45.75083193799616" lon="11.234646980987781"><ele>445.75</ele><time>2026-04-26T10:11:56.999Z</time></trkpt><trkpt lat="45.750949357418165" lon="11.234629254072521"><ele>446.0</ele><time>2026-04-26T10:11:57.999Z</time></trkpt><trkpt lat="45.75106335981483" lon="11.234605516060414"><ele>446.8</ele><time>2026-04-26T10:11:58.999Z</time></trkpt><trkpt lat="45.75117348671794" lon="11.23457830548818"><ele>447.6</ele><time>2026-04-26T10:11:59.999Z</time></trkpt><trkpt lat="45.75128111110684" lon="11.234551190350357"><ele>448.4</ele><time>2026-04-26T10:12:00.999Z</time></trkpt><trkpt lat="45.751388810694344" lon="11.234531751463935"><ele>449.2</ele><time>2026-04-26T10:12:01.999Z</time></trkpt><trkpt lat="45.75149388878922" lon="11.234500381737776"><ele>450.0</ele><time>2026-04-26T10:12:02.999Z</time></trkpt><trkpt lat="45.75160359948034" lon="11.23444415758965"><ele>450.0</ele><time>2026-04-26T10:12:03.999Z</time></trkpt><trkpt lat="45.75172583349452" lon="11.234349386457755"><ele>450.0</ele><time>2026-04-26T10:12:04.999Z</time></trkpt><trkpt lat="45.751882323589136" lon="11.234242957931821"><ele>450.0</ele><time>2026-04-26T10:12:05.999Z</time></trkpt><trkpt lat="45.75206794513029" lon="11.234144259427255"><ele>454.33333333333337</ele><time>2026-04-26T10:12:06.999Z</time></trkpt><trkpt lat="45.75224969478902" lon="11.234045482909183"><ele>458.6666666666667</ele><time>2026-04-26T10:12:07.999Z</time></trkpt><trkpt lat="45.752413125605855" lon="11.23397688642518"><ele>463.0</ele><time>2026-04-26T10:12:08.999Z</time></trkpt><trkpt lat="45.75255760241099" lon="11.233935693045519"><ele>467.0</ele><time>2026-04-26T10:12:09.999Z</time></trkpt><trkpt lat="45.75267931443184" lon="11.233899639903742"><ele>470.99999999999994</ele><time>2026-04-26T10:12:10.999Z</time></trkpt><trkpt lat="45.75277073084433" lon="11.233821496728002"><ele>474.99999999999994</ele><time>2026-04-26T10:12:11.999Z</time></trkpt><trkpt lat="45.75286280126708" lon="11.233769858521294"><ele>479.0</ele><time>2026-04-26T10:12:12.999Z</time></trkpt><trkpt lat="45.75293451010882" lon="11.233719259740175"><ele>483.0</ele><time>2026-04-26T10:12:13.999Z</time></trkpt><trkpt lat="45.753012902904395" lon="11.233708120340927"><ele>485.25</ele><time>2026-04-26T10:12:14.999Z</time></trkpt><trkpt lat="45.753106094430905" lon="11.233728373875497"><ele>487.5</ele><time>2026-04-26T10:12:15.999Z</time></trkpt><trkpt lat="45.75321679613568" lon="11.233756686443236"><ele>489.75</ele><time>2026-04-26T10:12:16.999Z</time></trkpt><trkpt lat="45.753341761702956" lon="11.233810027912236"><ele>492.0</ele><time>2026-04-26T10:12:17.999Z</time></trkpt><trkpt lat="45.75348850001263" lon="11.233843876466375"><ele>496.66666666666663</ele><time>2026-04-26T10:12:18.999Z</time></trkpt><trkpt lat="45.75364204213285" lon="11.233884011339722"><ele>501.3333333333333</ele><time>2026-04-26T10:12:19.999Z</time></trkpt><trkpt lat="45.75380802224517" lon="11.233913121612167"><ele>506.0</ele><time>2026-04-26T10:12:20.999Z</time></trkpt><trkpt lat="45.75397905239837" lon="11.233945406585352"><ele>506.0</ele><time>2026-04-26T10:12:21.999Z</time></trkpt><trkpt lat="45.75415964855225" lon="11.233940781779916"><ele>506.0</ele><time>2026-04-26T10:12:22.999Z</time></trkpt><trkpt lat="45.754328808805575" lon="11.233957314541088"><ele>506.0</ele><time>2026-04-26T10:12:23.999Z</time></trkpt><trkpt lat="45.754477140562685" lon="11.233981248815034"><ele>504.75</ele><time>2026-04-26T10:12:24.999Z</time></trkpt><trkpt lat="45.754614555549104" lon="11.23398841436313"><ele>503.5</ele><time>2026-04-26T10:12:25.999Z</time></trkpt><trkpt lat="45.75474055399118" lon="11.233946819853108"><ele>502.25</ele><time>2026-04-26T10:12:26.999Z</time></trkpt><trkpt lat="45.7548828246491" lon="11.233829269307993"><ele>501.0</ele><time>2026-04-26T10:12:27.999Z</time></trkpt><trkpt lat="45.755031736032244" lon="11.233762341733305"><ele>501.0</ele><time>2026-04-26T10:12:28.999Z</time></trkpt><trkpt lat="45.75517468272267" lon="11.233741766784854"><ele>501.0</ele><time>2026-04-26T10:12:29.999Z</time></trkpt><trkpt lat="45.75530081416686" lon="11.233719490182619"><ele>501.0</ele><time>2026-04-26T10:12:30.999Z</time></trkpt><trkpt lat="45.75541970111206" lon="11.233690933057545"><ele>501.0</ele><time>2026-04-26T10:12:31.999Z</time></trkpt><trkpt lat="45.755532821450856" lon="11.233641553671417"><ele>501.33333333333337</ele><time>2026-04-26T10:12:32.999Z</time></trkpt><trkpt lat="45.75565936900611" lon="11.233559787269739"><ele>501.6666666666667</ele><time>2026-04-26T10:12:33.999Z</time></trkpt><trkpt lat="45.75576197448643" lon="11.233394349789167"><ele>502.0</ele><time>2026-04-26T10:12:34.999Z</time></trkpt><trkpt lat="45.7558794315184" lon="11.233237614867962"><ele>504.33333333333337</ele><time>2026-04-26T10:12:35.999Z</time></trkpt><trkpt lat="45.75600070952579" lon="11.233054077174819"><ele>506.66666666666663</ele><time>2026-04-26T10:12:36.999Z</time></trkpt><trkpt lat="45.75611377781184" lon="11.232888727441233"><ele>509.0</ele><time>2026-04-26T10:12:37.999Z</time></trkpt><trkpt lat="45.75622602814172" lon="11.2327614497251"><ele>509.0</ele><time>2026-04-26T10:12:38.999Z</time></trkpt><trkpt lat="45.75633135822681" lon="11.23266051578072"><ele>509.0</ele><time>2026-04-26T10:12:39.999Z</time></trkpt><trkpt lat="45.756455189903924" lon="11.232569303887727"><ele>509.0</ele><time>2026-04-26T10:12:40.999Z</time></trkpt><trkpt lat="45.75660649812241" lon="11.232533639625263"><ele>509.0</ele><time>2026-04-26T10:12:41.999Z</time></trkpt><trkpt lat="45.75675433791157" lon="11.232515774060234"><ele>511.75</ele><time>2026-04-26T10:12:42.999Z</time></trkpt><trkpt lat="45.756906559490545" lon="11.23248632589475"><ele>514.5</ele><time>2026-04-26T10:12:43.999Z</time></trkpt><trkpt lat="45.75704505473943" lon="11.232446640678557"><ele>517.25</ele><time>2026-04-26T10:12:44.999Z</time></trkpt><trkpt lat="45.75716651083062" lon="11.232369419606249"><ele>520.0</ele><time>2026-04-26T10:12:45.999Z</time></trkpt><trkpt lat="45.75728157342194" lon="11.232268528565289"><ele>521.5</ele><time>2026-04-26T10:12:46.999Z</time></trkpt><trkpt lat="45.75737361033757" lon="11.232158700699902"><ele>523.0</ele><time>2026-04-26T10:12:47.999Z</time></trkpt><trkpt lat="45.75744970616645" lon="11.232097629964215"><ele>524.5</ele><time>2026-04-26T10:12:48.999Z</time></trkpt><trkpt lat="45.75751305884286" lon="11.232060791812875"><ele>526.0</ele><time>2026-04-26T10:12:49.999Z</time></trkpt><trkpt lat="45.757579800664175" lon="11.232050650745142"><ele>527.5</ele><time>2026-04-26T10:12:50.999Z</time></trkpt><trkpt lat="45.75767181461175" lon="11.232075245880342"><ele>529.0</ele><time>2026-04-26T10:12:51.999Z</time></trkpt><trkpt lat="45.757775244964186" lon="11.232132348585107"><ele>530.0</ele><time>2026-04-26T10:12:52.998Z</time></trkpt><trkpt lat="45.757883508372245" lon="11.232190248776083"><ele>531.0</ele><time>2026-04-26T10:12:53.998Z</time></trkpt><trkpt lat="45.757998987186234" lon="11.232263104264847"><ele>532.0</ele><time>2026-04-26T10:12:54.998Z</time></trkpt><trkpt lat="45.75811631300006" lon="11.232366637502453"><ele>533.0</ele><time>2026-04-26T10:12:55.998Z</time></trkpt><trkpt lat="45.758238398159044" lon="11.2324987693491"><ele>533.0</ele><time>2026-04-26T10:12:56.998Z</time></trkpt><trkpt lat="45.75836945630176" lon="11.23259615604882"><ele>533.0</ele><time>2026-04-26T10:12:57.998Z</time></trkpt><trkpt lat="45.758505356335846" lon="11.232659588143614"><ele>533.0</ele><time>2026-04-26T10:12:58.998Z</time></trkpt><trkpt lat="45.758634777507964" lon="11.23274431054122"><ele>533.0</ele><time>2026-04-26T10:12:59.998Z</time></trkpt><trkpt lat="45.75874200247981" lon="11.232877989873565"><ele>535.75</ele><time>2026-04-26T10:13:00.998Z</time></trkpt><trkpt lat="45.75884294117333" lon="11.233024270901865"><ele>538.5</ele><time>2026-04-26T10:13:01.998Z</time></trkpt><trkpt lat="45.758948000958824" lon="11.233161660700157"><ele>541.25</ele><time>2026-04-26T10:13:02.998Z</time></trkpt><trkpt lat="45.7590333704948" lon="11.233267159383132"><ele>544.0</ele><time>2026-04-26T10:13:03.998Z</time></trkpt><trkpt lat="45.759123598137954" lon="11.233351821749453"><ele>544.0</ele><time>2026-04-26T10:13:04.998Z</time></trkpt><trkpt lat="45.7592042567864" lon="11.23342454712724"><ele>544.0</ele><time>2026-04-26T10:13:05.998Z</time></trkpt><trkpt lat="45.75928905434624" lon="11.2334905762414"><ele>544.0</ele><time>2026-04-26T10:13:06.998Z</time></trkpt><trkpt lat="45.75938225927969" lon="11.233546424579709"><ele>544.0</ele><time>2026-04-26T10:13:07.998Z</time></trkpt><trkpt lat="45.75948920856016" lon="11.23358304192404"><ele>544.0</ele><time>2026-04-26T10:13:08.998Z</time></trkpt><trkpt lat="45.75961922034317" lon="11.233597489479248"><ele>549.3333333333334</ele><time>2026-04-26T10:13:09.998Z</time></trkpt><trkpt lat="45.75977221735666" lon="11.233598881805744"><ele>554.6666666666666</ele><time>2026-04-26T10:13:10.998Z</time></trkpt><trkpt lat="45.75992609892833" lon="11.233621082857692"><ele>560.0</ele><time>2026-04-26T10:13:11.998Z</time></trkpt><trkpt lat="45.760086173160545" lon="11.233632384993442"><ele>562.5</ele><time>2026-04-26T10:13:12.998Z</time></trkpt><trkpt lat="45.76024258226097" lon="11.233648645165502"><ele>565.0</ele><time>2026-04-26T10:13:13.998Z</time></trkpt><trkpt lat="45.760372774898286" lon="11.233683570895542"><ele>567.5</ele><time>2026-04-26T10:13:14.998Z</time></trkpt><trkpt lat="45.76047750962808" lon="11.233707293797664"><ele>570.0</ele><time>2026-04-26T10:13:15.998Z</time></trkpt><trkpt lat="45.76056213651431" lon="11.233735077675751"><ele>570.0</ele><time>2026-04-26T10:13:16.998Z</time></trkpt><trkpt lat="45.760659384009614" lon="11.233733568678934"><ele>570.0</ele><time>2026-04-26T10:13:17.998Z</time></trkpt><trkpt lat="45.760751657525184" lon="11.233690940467643"><ele>570.0</ele><time>2026-04-26T10:13:18.998Z</time></trkpt><trkpt lat="45.76084186786884" lon="11.233625328086505"><ele>570.0</ele><time>2026-04-26T10:13:19.998Z</time></trkpt><trkpt lat="45.76095005443638" lon="11.233532286390052"><ele>570.0</ele><time>2026-04-26T10:13:20.998Z</time></trkpt><trkpt lat="45.76105503834169" lon="11.23348300187034"><ele>572.2</ele><time>2026-04-26T10:13:21.998Z</time></trkpt><trkpt lat="45.76116105337522" lon="11.233445561624627"><ele>574.4</ele><time>2026-04-26T10:13:22.998Z</time></trkpt><trkpt lat="45.761254926242266" lon="11.233371971967845"><ele>576.6</ele><time>2026-04-26T10:13:23.998Z</time></trkpt><trkpt lat="45.76133600676757" lon="11.23328307088838"><ele>578.8</ele><time>2026-04-26T10:13:24.998Z</time></trkpt><trkpt lat="45.761401034066324" lon="11.233171583253144"><ele>581.0</ele><time>2026-04-26T10:13:25.998Z</time></trkpt><trkpt lat="45.761461902456624" lon="11.233081203266194"><ele>583.6666666666666</ele><time>2026-04-26T10:13:26.998Z</time></trkpt><trkpt lat="45.761515184486115" lon="11.232999271949447"><ele>586.3333333333333</ele><time>2026-04-26T10:13:27.998Z</time></trkpt><trkpt lat="45.761562895058205" lon="11.232923800744958"><ele>589.0</ele><time>2026-04-26T10:13:28.998Z</time></trkpt><trkpt lat="45.761608367030085" lon="11.23285050730097"><ele>591.6666666666666</ele><time>2026-04-26T10:13:29.998Z</time></trkpt><trkpt lat="45.76170808656597" lon="11.232782807341449"><ele>594.3333333333334</ele><time>2026-04-26T10:13:31.998Z</time></trkpt><trkpt lat="45.76177563325559" lon="11.232813568866444"><ele>597.0</ele><time>2026-04-26T10:13:32.998Z</time></trkpt><trkpt lat="45.76184395830396" lon="11.232917964747228"><ele>599.8000000000001</ele><time>2026-04-26T10:13:33.998Z</time></trkpt><trkpt lat="45.76191471735079" lon="11.23301632999264"><ele>602.6</ele><time>2026-04-26T10:13:34.998Z</time></trkpt><trkpt lat="45.76199529132798" lon="11.233034039534976"><ele>605.4000000000001</ele><time>2026-04-26T10:13:35.998Z</time></trkpt><trkpt lat="45.762086291636884" lon="11.233040071964124"><ele>608.2</ele><time>2026-04-26T10:13:36.998Z</time></trkpt><trkpt lat="45.762188067529536" lon="11.233028617525845"><ele>611.0</ele><time>2026-04-26T10:13:37.998Z</time></trkpt><trkpt lat="45.76229422930203" lon="11.232997690175283"><ele>611.0</ele><time>2026-04-26T10:13:38.998Z</time></trkpt><trkpt lat="45.76240647773517" lon="11.232944341540886"><ele>611.0</ele><time>2026-04-26T10:13:39.998Z</time></trkpt><trkpt lat="45.762510033601835" lon="11.232869667386536"><ele>611.0</ele><time>2026-04-26T10:13:40.998Z</time></trkpt><trkpt lat="45.76261448635474" lon="11.232825772094968"><ele>611.0</ele><time>2026-04-26T10:13:41.998Z</time></trkpt><trkpt lat="45.76268378397939" lon="11.232737016385077"><ele>611.0</ele><time>2026-04-26T10:13:42.998Z</time></trkpt><trkpt lat="45.76276477904584" lon="11.232621557958664"><ele>612.75</ele><time>2026-04-26T10:13:43.998Z</time></trkpt><trkpt lat="45.76285622106585" lon="11.232508999877336"><ele>614.5</ele><time>2026-04-26T10:13:44.998Z</time></trkpt><trkpt lat="45.762968688496564" lon="11.23244763610941"><ele>616.25</ele><time>2026-04-26T10:13:45.998Z</time></trkpt><trkpt lat="45.76309082498478" lon="11.232383279011364"><ele>618.0</ele><time>2026-04-26T10:13:46.998Z</time></trkpt><trkpt lat="45.76321430749193" lon="11.23229737352719"><ele>620.5</ele><time>2026-04-26T10:13:47.998Z</time></trkpt><trkpt lat="45.76333343864032" lon="11.232172426852934"><ele>623.0</ele><time>2026-04-26T10:13:48.998Z</time></trkpt><trkpt lat="45.76346971917318" lon="11.23206915116298"><ele>625.5</ele><time>2026-04-26T10:13:49.998Z</time></trkpt><trkpt lat="45.763598724389816" lon="11.231978037946133"><ele>628.0</ele><time>2026-04-26T10:13:50.998Z</time></trkpt><trkpt lat="45.763710536254834" lon="11.231904934669446"><ele>629.4</ele><time>2026-04-26T10:13:51.998Z</time></trkpt><trkpt lat="45.763802243215935" lon="11.231831081808345"><ele>630.8</ele><time>2026-04-26T10:13:52.998Z</time></trkpt><trkpt lat="45.763893530633894" lon="11.231786110976003"><ele>632.2</ele><time>2026-04-26T10:13:53.998Z</time></trkpt><trkpt lat="45.76397215975466" lon="11.23170922099398"><ele>633.6</ele><time>2026-04-26T10:13:54.998Z</time></trkpt><trkpt lat="45.76401835566047" lon="11.231576645805388"><ele>635.0</ele><time>2026-04-26T10:13:55.998Z</time></trkpt><trkpt lat="45.764080105438765" lon="11.231456009169992"><ele>636.3333333333333</ele><time>2026-04-26T10:13:56.998Z</time></trkpt><trkpt lat="45.76414710163477" lon="11.23134776048596"><ele>637.6666666666666</ele><time>2026-04-26T10:13:57.998Z</time></trkpt><trkpt lat="45.764228962474895" lon="11.231260129870593"><ele>639.0</ele><time>2026-04-26T10:13:58.998Z</time></trkpt><trkpt lat="45.764282987822426" lon="11.231180155044614"><ele>640.3333333333334</ele><time>2026-04-26T10:13:59.998Z</time></trkpt><trkpt lat="45.764323261418255" lon="11.2311048466093"><ele>641.6666666666667</ele><time>2026-04-26T10:14:00.997Z</time></trkpt><trkpt lat="45.76430739762453" lon="11.230980503353948"><ele>643.0</ele><time>2026-04-26T10:14:02.997Z</time></trkpt><trkpt lat="45.76424186092775" lon="11.230969905453472"><ele>643.0</ele><time>2026-04-26T10:14:04.997Z</time></trkpt><trkpt lat="45.764166302213646" lon="11.231022706422108"><ele>643.0</ele><time>2026-04-26T10:14:05.997Z</time></trkpt><trkpt lat="45.76410536400823" lon="11.231136742255963"><ele>643.0</ele><time>2026-04-26T10:14:06.997Z</time></trkpt><trkpt lat="45.764062845224785" lon="11.231256702402012"><ele>643.0</ele><time>2026-04-26T10:14:07.997Z</time></trkpt><trkpt lat="45.763990938364046" lon="11.23129349547988"><ele>643.0</ele><time>2026-04-26T10:14:08.997Z</time></trkpt><trkpt lat="45.76393731992532" lon="11.231192827137894"><ele>643.0</ele><time>2026-04-26T10:14:10.997Z</time></trkpt><trkpt lat="45.76393984784868" lon="11.231055528373153"><ele>643.0</ele><time>2026-04-26T10:14:11.997Z</time></trkpt><trkpt lat="45.763917563198646" lon="11.230873361137748"><ele>643.0</ele><time>2026-04-26T10:14:12.997Z</time></trkpt><trkpt lat="45.763882370730656" lon="11.230687877957065"><ele>643.0</ele><time>2026-04-26T10:14:13.997Z</time></trkpt><trkpt lat="45.76385864607804" lon="11.230541588213057"><ele>643.0</ele><time>2026-04-26T10:14:14.997Z</time></trkpt><trkpt lat="45.7638574233241" lon="11.23042142265172"><ele>644.1666666666667</ele><time>2026-04-26T10:14:15.997Z</time></trkpt><trkpt lat="45.763876947766185" lon="11.230294440865784"><ele>645.3333333333334</ele><time>2026-04-26T10:14:16.997Z</time></trkpt><trkpt lat="45.763922371511924" lon="11.23018995489561"><ele>646.5</ele><time>2026-04-26T10:14:17.997Z</time></trkpt><trkpt lat="45.76397939164072" lon="11.230134858441964"><ele>647.6666666666666</ele><time>2026-04-26T10:14:18.997Z</time></trkpt><trkpt lat="45.764046635359" lon="11.230126704863189"><ele>648.8333333333333</ele><time>2026-04-26T10:14:19.997Z</time></trkpt><trkpt lat="45.76412067140795" lon="11.230149066020545"><ele>650.0</ele><time>2026-04-26T10:14:20.997Z</time></trkpt><trkpt lat="45.76418829810991" lon="11.23021719067318"><ele>650.0</ele><time>2026-04-26T10:14:21.997Z</time></trkpt><trkpt lat="45.76426319575041" lon="11.230236964632267"><ele>650.0</ele><time>2026-04-26T10:14:22.997Z</time></trkpt><trkpt lat="45.76433353565783" lon="11.230234691614028"><ele>650.0</ele><time>2026-04-26T10:14:23.997Z</time></trkpt><trkpt lat="45.76440192290188" lon="11.2302042865389"><ele>650.0</ele><time>2026-04-26T10:14:24.997Z</time></trkpt><trkpt lat="45.76445993106126" lon="11.230143621570575"><ele>650.0</ele><time>2026-04-26T10:14:25.997Z</time></trkpt><trkpt lat="45.76450934253355" lon="11.230067822296412"><ele>650.0</ele><time>2026-04-26T10:14:26.997Z</time></trkpt><trkpt lat="45.76454645247329" lon="11.229984361277314"><ele>650.0</ele><time>2026-04-26T10:14:27.997Z</time></trkpt><trkpt lat="45.7645758527238" lon="11.22988494806751"><ele>653.8</ele><time>2026-04-26T10:14:28.997Z</time></trkpt><trkpt lat="45.76457175806435" lon="11.229764556036734"><ele>657.6</ele><time>2026-04-26T10:14:29.997Z</time></trkpt><trkpt lat="45.764552729536796" lon="11.22964112539973"><ele>661.4000000000001</ele><time>2026-04-26T10:14:30.997Z</time></trkpt><trkpt lat="45.764551018041146" lon="11.229508639307717"><ele>665.2</ele><time>2026-04-26T10:14:31.997Z</time></trkpt><trkpt lat="45.76454650139625" lon="11.22936695813151"><ele>669.0</ele><time>2026-04-26T10:14:32.997Z</time></trkpt><trkpt lat="45.7645630185015" lon="11.229216046305291"><ele>669.0</ele><time>2026-04-26T10:14:33.997Z</time></trkpt><trkpt lat="45.76459993378654" lon="11.22908680833884"><ele>669.0</ele><time>2026-04-26T10:14:34.997Z</time></trkpt><trkpt lat="45.76464114410422" lon="11.228982457689971"><ele>669.0</ele><time>2026-04-26T10:14:35.997Z</time></trkpt><trkpt lat="45.76467972087762" lon="11.228907795985032"><ele>669.0</ele><time>2026-04-26T10:14:36.997Z</time></trkpt><trkpt lat="45.7647281146697" lon="11.228847167896053"><ele>669.0</ele><time>2026-04-26T10:14:37.997Z</time></trkpt><trkpt lat="45.76479782081587" lon="11.228806003361811"><ele>669.0</ele><time>2026-04-26T10:14:38.997Z</time></trkpt><trkpt lat="45.76487880883142" lon="11.228816191116374"><ele>669.0</ele><time>2026-04-26T10:14:39.997Z</time></trkpt><trkpt lat="45.764973534949625" lon="11.228838178318357"><ele>669.0</ele><time>2026-04-26T10:14:40.997Z</time></trkpt><trkpt lat="45.76506300811955" lon="11.2289106502405"><ele>669.0</ele><time>2026-04-26T10:14:41.997Z</time></trkpt><trkpt lat="45.76514877875768" lon="11.22898038940905"><ele>669.0</ele><time>2026-04-26T10:14:42.997Z</time></trkpt><trkpt lat="45.76524505103741" lon="11.229032888841681"><ele>669.0</ele><time>2026-04-26T10:14:43.997Z</time></trkpt><trkpt lat="45.76535968370772" lon="11.229073331663496"><ele>672.6</ele><time>2026-04-26T10:14:44.997Z</time></trkpt><trkpt lat="45.76548570238182" lon="11.229117397986926"><ele>676.2</ele><time>2026-04-26T10:14:45.997Z</time></trkpt><trkpt lat="45.76559638696213" lon="11.22916694037094"><ele>679.8000000000001</ele><time>2026-04-26T10:14:46.997Z</time></trkpt><trkpt lat="45.76568203052091" lon="11.229215811633715"><ele>683.4000000000001</ele><time>2026-04-26T10:14:47.997Z</time></trkpt><trkpt lat="45.765757994282524" lon="11.229257173143417"><ele>687.0</ele><time>2026-04-26T10:14:48.997Z</time></trkpt><trkpt lat="45.76580782575586" lon="11.229362845691245"><ele>687.0</ele><time>2026-04-26T10:14:49.997Z</time></trkpt><trkpt lat="45.76587450172209" lon="11.22939214425987"><ele>687.0</ele><time>2026-04-26T10:14:50.997Z</time></trkpt><trkpt lat="45.765935796467964" lon="11.229455610344532"><ele>687.0</ele><time>2026-04-26T10:14:51.997Z</time></trkpt><trkpt lat="45.76602648984981" lon="11.229549076213125"><ele>687.0</ele><time>2026-04-26T10:14:53.997Z</time></trkpt><trkpt lat="45.76613436417793" lon="11.22958453453927"><ele>687.0</ele><time>2026-04-26T10:14:56.997Z</time></trkpt><trkpt lat="45.766193096863255" lon="11.229623823336382"><ele>687.0</ele><time>2026-04-26T10:14:59.997Z</time></trkpt><trkpt lat="45.76619979566515" lon="11.229874463002268"><ele>686.5714285714286</ele><time>2026-04-26T10:15:46.996Z</time></trkpt><trkpt lat="45.76614214225775" lon="11.229942426388426"><ele>686.1428571428571</ele><time>2026-04-26T10:15:47.996Z</time></trkpt><trkpt lat="45.76607137993478" lon="11.230002846206144"><ele>685.7142857142857</ele><time>2026-04-26T10:15:48.996Z</time></trkpt><trkpt lat="45.76600243549945" lon="11.230052840556063"><ele>685.2857142857142</ele><time>2026-04-26T10:15:49.996Z</time></trkpt><trkpt lat="45.765940410693666" lon="11.23009367229369"><ele>684.8571428571429</ele><time>2026-04-26T10:15:50.996Z</time></trkpt><trkpt lat="45.765879085515174" lon="11.230125066785776"><ele>684.4285714285713</ele><time>2026-04-26T10:15:51.996Z</time></trkpt><trkpt lat="45.76581636900728" lon="11.23016361222605"><ele>684.0</ele><time>2026-04-26T10:15:52.996Z</time></trkpt><trkpt lat="45.765750675417706" lon="11.230200887941413"><ele>683.9999999999999</ele><time>2026-04-26T10:15:53.996Z</time></trkpt><trkpt lat="45.76568547441477" lon="11.23024657603019"><ele>684.0</ele><time>2026-04-26T10:15:54.996Z</time></trkpt><trkpt lat="45.765629257768886" lon="11.230327061367833"><ele>684.0</ele><time>2026-04-26T10:15:55.996Z</time></trkpt><trkpt lat="45.76557206994605" lon="11.230402381291533"><ele>684.0</ele><time>2026-04-26T10:15:56.996Z</time></trkpt><trkpt lat="45.76552857101896" lon="11.230477642683816"><ele>684.0</ele><time>2026-04-26T10:15:57.996Z</time></trkpt><trkpt lat="45.76548729715039" lon="11.230560247515967"><ele>683.9999999999999</ele><time>2026-04-26T10:15:58.996Z</time></trkpt><trkpt lat="45.765450051068385" lon="11.230638130922115"><ele>684.0</ele><time>2026-04-26T10:15:59.996Z</time></trkpt><trkpt lat="45.765428372575975" lon="11.230723678979455"><ele>686.1666666666666</ele><time>2026-04-26T10:16:00.996Z</time></trkpt><trkpt lat="45.765424170813375" lon="11.230826892973111"><ele>688.3333333333334</ele><time>2026-04-26T10:16:01.996Z</time></trkpt><trkpt lat="45.765429581913345" lon="11.230941233075972"><ele>690.5</ele><time>2026-04-26T10:16:02.996Z</time></trkpt><trkpt lat="45.765424233928364" lon="11.231058885364298"><ele>692.6666666666667</ele><time>2026-04-26T10:16:03.996Z</time></trkpt><trkpt lat="45.765406869248444" lon="11.231172270996929"><ele>694.8333333333334</ele><time>2026-04-26T10:16:04.996Z</time></trkpt><trkpt lat="45.76539132145108" lon="11.23127868837962"><ele>697.0</ele><time>2026-04-26T10:16:05.996Z</time></trkpt><trkpt lat="45.765388362585924" lon="11.231372440354683"><ele>699.6</ele><time>2026-04-26T10:16:06.996Z</time></trkpt><trkpt lat="45.76541734786337" lon="11.231537883243641"><ele>702.2</ele><time>2026-04-26T10:16:08.996Z</time></trkpt><trkpt lat="45.76550214830569" lon="11.231664375816113"><ele>704.8</ele><time>2026-04-26T10:16:10.996Z</time></trkpt><trkpt lat="45.76553593420502" lon="11.231827880156418"><ele>707.4</ele><time>2026-04-26T10:16:12.996Z</time></trkpt><trkpt lat="45.765506182068194" lon="11.231916566750787"><ele>710.0</ele><time>2026-04-26T10:16:13.996Z</time></trkpt><trkpt lat="45.76546336535525" lon="11.231993007590114"><ele>710.0</ele><time>2026-04-26T10:16:14.996Z</time></trkpt><trkpt lat="45.76541483835915" lon="11.232067330881971"><ele>710.0</ele><time>2026-04-26T10:16:15.995Z</time></trkpt><trkpt lat="45.76536617224408" lon="11.232149514848476"><ele>710.0</ele><time>2026-04-26T10:16:16.995Z</time></trkpt><trkpt lat="45.765322719252545" lon="11.232231933499241"><ele>710.0</ele><time>2026-04-26T10:16:17.995Z</time></trkpt><trkpt lat="45.76529899979642" lon="11.232325819274166"><ele>710.0</ele><time>2026-04-26T10:16:18.995Z</time></trkpt><trkpt lat="45.76529535233814" lon="11.232484499501153"><ele>710.0</ele><time>2026-04-26T10:16:20.995Z</time></trkpt><trkpt lat="45.76536858117153" lon="11.23261089723127"><ele>709.8333333333333</ele><time>2026-04-26T10:16:22.995Z</time></trkpt><trkpt lat="45.765427437941334" lon="11.23266666570342"><ele>709.6666666666666</ele><time>2026-04-26T10:16:23.995Z</time></trkpt><trkpt lat="45.76549210789622" lon="11.232711637983371"><ele>709.5</ele><time>2026-04-26T10:16:24.995Z</time></trkpt><trkpt lat="45.76556585934297" lon="11.23274047047822"><ele>709.3333333333334</ele><time>2026-04-26T10:16:25.995Z</time></trkpt><trkpt lat="45.765643921222576" lon="11.23276596914992"><ele>709.1666666666667</ele><time>2026-04-26T10:16:26.995Z</time></trkpt><trkpt lat="45.76572123801868" lon="11.232785272439637"><ele>709.0</ele><time>2026-04-26T10:16:27.995Z</time></trkpt><trkpt lat="45.7657945333634" lon="11.232800027923826"><ele>709.0</ele><time>2026-04-26T10:16:28.995Z</time></trkpt><trkpt lat="45.76587184362827" lon="11.232813299343166"><ele>709.0</ele><time>2026-04-26T10:16:29.995Z</time></trkpt><trkpt lat="45.76594729300776" lon="11.232837068065272"><ele>709.0</ele><time>2026-04-26T10:16:30.995Z</time></trkpt><trkpt lat="45.76601986184797" lon="11.232877376746204"><ele>709.0</ele><time>2026-04-26T10:16:31.995Z</time></trkpt><trkpt lat="45.76608414834744" lon="11.232932841076071"><ele>709.0</ele><time>2026-04-26T10:16:32.995Z</time></trkpt><trkpt lat="45.76614817686938" lon="11.232996663825487"><ele>709.0</ele><time>2026-04-26T10:16:33.995Z</time></trkpt><trkpt lat="45.76621552157885" lon="11.233057645328168"><ele>711.1666666666667</ele><time>2026-04-26T10:16:34.995Z</time></trkpt><trkpt lat="45.76628697121189" lon="11.233123621182063"><ele>713.3333333333334</ele><time>2026-04-26T10:16:35.995Z</time></trkpt><trkpt lat="45.766361169300595" lon="11.233184165834752"><ele>715.5</ele><time>2026-04-26T10:16:36.995Z</time></trkpt><trkpt lat="45.76643367096451" lon="11.233247162263698"><ele>717.6666666666666</ele><time>2026-04-26T10:16:37.995Z</time></trkpt><trkpt lat="45.766502947054754" lon="11.23330636033449"><ele>719.8333333333333</ele><time>2026-04-26T10:16:38.995Z</time></trkpt><trkpt lat="45.7665717564941" lon="11.233363170009804"><ele>722.0</ele><time>2026-04-26T10:16:39.995Z</time></trkpt><trkpt lat="45.76663957238949" lon="11.233424914399908"><ele>722.0</ele><time>2026-04-26T10:16:40.995Z</time></trkpt><trkpt lat="45.766704365252345" lon="11.233486810632922"><ele>722.0</ele><time>2026-04-26T10:16:41.995Z</time></trkpt><trkpt lat="45.766764751044526" lon="11.2335487124079"><ele>722.0</ele><time>2026-04-26T10:16:42.995Z</time></trkpt><trkpt lat="45.76683891149039" lon="11.233648742909523"><ele>722.0</ele><time>2026-04-26T10:16:44.995Z</time></trkpt><trkpt lat="45.7667922666319" lon="11.233723131137552"><ele>722.0</ele><time>2026-04-26T10:16:46.995Z</time></trkpt><trkpt lat="45.76669239237089" lon="11.233751931633543"><ele>722.0</ele><time>2026-04-26T10:16:48.995Z</time></trkpt><trkpt lat="45.76657240443072" lon="11.233744177374781"><ele>722.0</ele><time>2026-04-26T10:16:50.995Z</time></trkpt><trkpt lat="45.76650223245489" lon="11.233751746636386"><ele>722.0</ele><time>2026-04-26T10:16:51.995Z</time></trkpt><trkpt lat="45.76643335898902" lon="11.23378167159567"><ele>722.0</ele><time>2026-04-26T10:16:52.995Z</time></trkpt><trkpt lat="45.76634905679086" lon="11.233807915942636"><ele>722.0</ele><time>2026-04-26T10:16:53.995Z</time></trkpt><trkpt lat="45.76624760770558" lon="11.233832025843885"><ele>722.0</ele><time>2026-04-26T10:16:54.995Z</time></trkpt><trkpt lat="45.766142103452815" lon="11.233861456093926"><ele>722.0</ele><time>2026-04-26T10:16:55.995Z</time></trkpt><trkpt lat="45.76605042424252" lon="11.233915012505799"><ele>723.2</ele><time>2026-04-26T10:16:56.995Z</time></trkpt><trkpt lat="45.76597118649309" lon="11.233970904010416"><ele>724.4000000000001</ele><time>2026-04-26T10:16:57.995Z</time></trkpt><trkpt lat="45.765900385461734" lon="11.23403098413888"><ele>725.5999999999999</ele><time>2026-04-26T10:16:58.995Z</time></trkpt><trkpt lat="45.76581786474714" lon="11.234101045505225"><ele>726.8</ele><time>2026-04-26T10:16:59.995Z</time></trkpt><trkpt lat="45.7657352257912" lon="11.234187720287075"><ele>728.0</ele><time>2026-04-26T10:17:00.995Z</time></trkpt><trkpt lat="45.76565104639905" lon="11.234258114751611"><ele>728.0</ele><time>2026-04-26T10:17:01.995Z</time></trkpt><trkpt lat="45.7655810135632" lon="11.234334683217307"><ele>728.0</ele><time>2026-04-26T10:17:02.995Z</time></trkpt><trkpt lat="45.76550283031954" lon="11.234445287385109"><ele>728.0</ele><time>2026-04-26T10:17:03.995Z</time></trkpt><trkpt lat="45.765447775298625" lon="11.234582437316483"><ele>728.0</ele><time>2026-04-26T10:17:04.995Z</time></trkpt><trkpt lat="45.765394758654345" lon="11.234722028972351"><ele>728.0</ele><time>2026-04-26T10:17:05.995Z</time></trkpt><trkpt lat="45.76536052460717" lon="11.234862980502006"><ele>732.3333333333333</ele><time>2026-04-26T10:17:06.995Z</time></trkpt><trkpt lat="45.76532734249928" lon="11.234999616985911"><ele>736.6666666666666</ele><time>2026-04-26T10:17:07.995Z</time></trkpt><trkpt lat="45.76530504517276" lon="11.23512309799072"><ele>741.0</ele><time>2026-04-26T10:17:08.995Z</time></trkpt><trkpt lat="45.765291210335135" lon="11.23525686012614"><ele>745.3333333333334</ele><time>2026-04-26T10:17:09.995Z</time></trkpt><trkpt lat="45.76528568327383" lon="11.235377961214281"><ele>749.6666666666667</ele><time>2026-04-26T10:17:10.995Z</time></trkpt><trkpt lat="45.7653045178968" lon="11.23548677265371"><ele>754.0</ele><time>2026-04-26T10:17:11.995Z</time></trkpt><trkpt lat="45.76535637409333" lon="11.235620204657028"><ele>756.6</ele><time>2026-04-26T10:17:12.995Z</time></trkpt><trkpt lat="45.76540281079936" lon="11.235762273688989"><ele>759.2</ele><time>2026-04-26T10:17:13.995Z</time></trkpt><trkpt lat="45.765419263028654" lon="11.235949520876137"><ele>761.8000000000001</ele><time>2026-04-26T10:17:14.995Z</time></trkpt><trkpt lat="45.76539864043746" lon="11.23609047974962"><ele>764.4000000000001</ele><time>2026-04-26T10:17:15.995Z</time></trkpt><trkpt lat="45.76533618310915" lon="11.236202536372309"><ele>767.0</ele><time>2026-04-26T10:17:16.995Z</time></trkpt><trkpt lat="45.7652768322499" lon="11.236305751218513"><ele>767.0</ele><time>2026-04-26T10:17:17.995Z</time></trkpt><trkpt lat="45.765240367243045" lon="11.236404091011197"><ele>767.0</ele><time>2026-04-26T10:17:18.995Z</time></trkpt><trkpt lat="45.76522401275044" lon="11.236502936888623"><ele>767.0</ele><time>2026-04-26T10:17:19.995Z</time></trkpt><trkpt lat="45.765205436400635" lon="11.23659977188352"><ele>767.0</ele><time>2026-04-26T10:17:20.995Z</time></trkpt><trkpt lat="45.76520609514837" lon="11.236715338524807"><ele>767.0</ele><time>2026-04-26T10:17:21.995Z</time></trkpt><trkpt lat="45.76524781159964" lon="11.23685165898384"><ele>767.0</ele><time>2026-04-26T10:17:22.994Z</time></trkpt><trkpt lat="45.76529680967109" lon="11.236966878533705"><ele>768.2</ele><time>2026-04-26T10:17:23.994Z</time></trkpt><trkpt lat="45.76533923283223" lon="11.237059988539093"><ele>769.4000000000001</ele><time>2026-04-26T10:17:24.994Z</time></trkpt><trkpt lat="45.765389188738574" lon="11.237155683541546"><ele>770.5999999999999</ele><time>2026-04-26T10:17:25.994Z</time></trkpt><trkpt lat="45.76545766590546" lon="11.237249281846937"><ele>771.8</ele><time>2026-04-26T10:17:26.994Z</time></trkpt><trkpt lat="45.76553692890575" lon="11.237361934546636"><ele>773.0</ele><time>2026-04-26T10:17:27.994Z</time></trkpt><trkpt lat="45.765622460841584" lon="11.237450594040457"><ele>773.0000000000001</ele><time>2026-04-26T10:17:28.994Z</time></trkpt><trkpt lat="45.76570706748156" lon="11.23753318532629"><ele>773.0</ele><time>2026-04-26T10:17:29.994Z</time></trkpt><trkpt lat="45.765779657802916" lon="11.237610707391612"><ele>773.0</ele><time>2026-04-26T10:17:30.994Z</time></trkpt><trkpt lat="45.76584198932889" lon="11.237680246009283"><ele>773.0</ele><time>2026-04-26T10:17:31.994Z</time></trkpt><trkpt lat="45.76590154211972" lon="11.237762891100088"><ele>773.0000000000001</ele><time>2026-04-26T10:17:32.994Z</time></trkpt><trkpt lat="45.765940446363174" lon="11.237834760318663"><ele>773.0</ele><time>2026-04-26T10:17:33.994Z</time></trkpt><trkpt lat="45.76593418585424" lon="11.237988541897312"><ele>773.0</ele><time>2026-04-26T10:17:35.994Z</time></trkpt><trkpt lat="45.765901075698785" lon="11.23806538952466"><ele>773.0</ele><time>2026-04-26T10:17:36.994Z</time></trkpt><trkpt lat="45.76583075869229" lon="11.23815033934137"><ele>773.0</ele><time>2026-04-26T10:17:37.994Z</time></trkpt><trkpt lat="45.76575545600962" lon="11.238230835120877"><ele>773.0</ele><time>2026-04-26T10:17:38.994Z</time></trkpt><trkpt lat="45.76567775183673" lon="11.23831897447122"><ele>773.0</ele><time>2026-04-26T10:17:39.994Z</time></trkpt><trkpt lat="45.765592476109575" lon="11.238411614999869"><ele>771.5</ele><time>2026-04-26T10:17:40.994Z</time></trkpt><trkpt lat="45.765500935544374" lon="11.238507350829234"><ele>770.0</ele><time>2026-04-26T10:17:41.994Z</time></trkpt><trkpt lat="45.76540348697978" lon="11.238603844851237"><ele>768.5</ele><time>2026-04-26T10:17:42.994Z</time></trkpt><trkpt lat="45.76531229698356" lon="11.23870223846405"><ele>767.0</ele><time>2026-04-26T10:17:43.994Z</time></trkpt><trkpt lat="45.76522708164284" lon="11.238799918803748"><ele>766.4000000000001</ele><time>2026-04-26T10:17:44.994Z</time></trkpt><trkpt lat="45.765147480233" lon="11.23891320246211"><ele>765.8000000000001</ele><time>2026-04-26T10:17:45.994Z</time></trkpt><trkpt lat="45.76505700918333" lon="11.23901428323473"><ele>765.2</ele><time>2026-04-26T10:17:46.994Z</time></trkpt><trkpt lat="45.764967783070425" lon="11.23909036806788"><ele>764.6</ele><time>2026-04-26T10:17:47.994Z</time></trkpt><trkpt lat="45.764890163379846" lon="11.239150480769446"><ele>764.0</ele><time>2026-04-26T10:17:48.994Z</time></trkpt><trkpt lat="45.76482069410775" lon="11.23920598061664"><ele>764.0</ele><time>2026-04-26T10:17:49.994Z</time></trkpt><trkpt lat="45.76476038760411" lon="11.23924136174219"><ele>764.0</ele><time>2026-04-26T10:17:50.994Z</time></trkpt><trkpt lat="45.76466280014617" lon="11.239225025495196"><ele>764.0</ele><time>2026-04-26T10:17:52.994Z</time></trkpt><trkpt lat="45.76458726415464" lon="11.239177931435885"><ele>764.0</ele><time>2026-04-26T10:17:54.994Z</time></trkpt><trkpt lat="45.764499814857245" lon="11.239161047445956"><ele>764.0</ele><time>2026-04-26T10:17:56.996Z</time></trkpt><trkpt lat="45.7644319240789" lon="11.239191227968893"><ele>764.0</ele><time>2026-04-26T10:17:58.996Z</time></trkpt><trkpt lat="45.76435456046175" lon="11.239248700179454"><ele>762.3333333333333</ele><time>2026-04-26T10:18:01.997Z</time></trkpt><trkpt lat="45.76430965530356" lon="11.239321511451985"><ele>760.6666666666666</ele><time>2026-04-26T10:18:04.997Z</time></trkpt><trkpt lat="45.7642762144682" lon="11.239414421013768"><ele>759.0</ele><time>2026-04-26T10:18:20.999Z</time></trkpt><trkpt lat="45.76426298801858" lon="11.239509920114436"><ele>757.3333333333334</ele><time>2026-04-26T10:18:23.999Z</time></trkpt><trkpt lat="45.76428521556964" lon="11.239649979796198"><ele>755.6666666666667</ele><time>2026-04-26T10:18:26.999Z</time></trkpt><trkpt lat="45.76431328874044" lon="11.239748283439063"><ele>754.0</ele><time>2026-04-26T10:18:28.999Z</time></trkpt><trkpt lat="45.76434162732235" lon="11.239855308775091"><ele>754.0</ele><time>2026-04-26T10:18:30.999Z</time></trkpt><trkpt lat="45.76435397645849" lon="11.239982738721595"><ele>754.0</ele><time>2026-04-26T10:18:33.999Z</time></trkpt><trkpt lat="45.76435849567845" lon="11.240080320149492"><ele>754.0</ele><time>2026-04-26T10:18:35.999Z</time></trkpt><trkpt lat="45.764347831189106" lon="11.240196002187519"><ele>754.0</ele><time>2026-04-26T10:18:37.999Z</time></trkpt><trkpt lat="45.764329463448355" lon="11.240292057888265"><ele>754.0</ele><time>2026-04-26T10:18:39.999Z</time></trkpt><trkpt lat="45.76436014164682" lon="11.240418322975522"><ele>754.0</ele><time>2026-04-26T10:18:42.999Z</time></trkpt><trkpt lat="45.76439036991863" lon="11.240498482929553"><ele>759.2</ele><time>2026-04-26T10:18:44.999Z</time></trkpt><trkpt lat="45.76441364082904" lon="11.240592938126854"><ele>764.4000000000001</ele><time>2026-04-26T10:18:46.999Z</time></trkpt><trkpt lat="45.76443834866648" lon="11.240685576910636"><ele>769.6</ele><time>2026-04-26T10:18:48.999Z</time></trkpt><trkpt lat="45.764480123368664" lon="11.240834043333452"><ele>774.8</ele><time>2026-04-26T10:18:50.999Z</time></trkpt><trkpt lat="45.76450873990392" lon="11.240983384981003"><ele>780.0</ele><time>2026-04-26T10:18:52.999Z</time></trkpt><trkpt lat="45.764489749992244" lon="11.241149009137619"><ele>780.0</ele><time>2026-04-26T10:18:54.999Z</time></trkpt><trkpt lat="45.76448646127101" lon="11.241273065394063"><ele>780.0</ele><time>2026-04-26T10:18:56.999Z</time></trkpt><trkpt lat="45.7644759937118" lon="11.241375862454369"><ele>780.0</ele><time>2026-04-26T10:18:58.999Z</time></trkpt><trkpt lat="45.76452274594564" lon="11.24150295771002"><ele>780.0</ele><time>2026-04-26T10:19:02.999Z</time></trkpt><trkpt lat="45.76458798308261" lon="11.24158886882591"><ele>780.0</ele><time>2026-04-26T10:19:04.999Z</time></trkpt><trkpt lat="45.76457365754776" lon="11.241683412898938"><ele>780.0</ele><time>2026-04-26T10:19:05.999Z</time></trkpt><trkpt lat="45.7645566145124" lon="11.241781938884047"><ele>780.3333333333334</ele><time>2026-04-26T10:19:06.999Z</time></trkpt><trkpt lat="45.7645457900502" lon="11.241891190803356"><ele>780.6666666666667</ele><time>2026-04-26T10:19:07.999Z</time></trkpt><trkpt lat="45.76453035511934" lon="11.24199836020728"><ele>781.0</ele><time>2026-04-26T10:19:08.999Z</time></trkpt><trkpt lat="45.76451355694493" lon="11.242088925361811"><ele>781.3333333333334</ele><time>2026-04-26T10:19:09.999Z</time></trkpt><trkpt lat="45.76449783506746" lon="11.242184145466865"><ele>781.6666666666667</ele><time>2026-04-26T10:19:10.999Z</time></trkpt><trkpt lat="45.764466007173056" lon="11.242283182008304"><ele>782.0</ele><time>2026-04-26T10:19:11.999Z</time></trkpt><trkpt lat="45.76441982806976" lon="11.242407181960067"><ele>782.0</ele><time>2026-04-26T10:19:12.999Z</time></trkpt><trkpt lat="45.764384064086244" lon="11.242554002878816"><ele>782.0</ele><time>2026-04-26T10:19:13.999Z</time></trkpt><trkpt lat="45.76436147075103" lon="11.24268527754175"><ele>782.0</ele><time>2026-04-26T10:19:14.999Z</time></trkpt><trkpt lat="45.76432297227401" lon="11.242829917663084"><ele>782.0</ele><time>2026-04-26T10:19:15.999Z</time></trkpt><trkpt lat="45.76427812077354" lon="11.242960843268756"><ele>782.0</ele><time>2026-04-26T10:19:16.999Z</time></trkpt><trkpt lat="45.764230387313184" lon="11.243067908369538"><ele>776.5000000000001</ele><time>2026-04-26T10:19:17.999Z</time></trkpt><trkpt lat="45.76419416662392" lon="11.24317880623911"><ele>771.0</ele><time>2026-04-26T10:19:18.999Z</time></trkpt><trkpt lat="45.76417972602347" lon="11.243270490083235"><ele>765.5</ele><time>2026-04-26T10:19:19.999Z</time></trkpt><trkpt lat="45.76419028747045" lon="11.243411795636158"><ele>760.0</ele><time>2026-04-26T10:19:21.999Z</time></trkpt><trkpt lat="45.76421011187541" lon="11.243509427414123"><ele>754.5</ele><time>2026-04-26T10:19:22.999Z</time></trkpt><trkpt lat="45.76425200006721" lon="11.243666515919843"><ele>749.0</ele><time>2026-04-26T10:19:24.999Z</time></trkpt><trkpt lat="45.76426925909033" lon="11.243787684628074"><ele>749.0</ele><time>2026-04-26T10:19:26.999Z</time></trkpt><trkpt lat="45.7642744870224" lon="11.2439021634873"><ele>749.0</ele><time>2026-04-26T10:19:28.999Z</time></trkpt><trkpt lat="45.76422172591403" lon="11.243998289194147"><ele>749.0</ele><time>2026-04-26T10:19:30.999Z</time></trkpt><trkpt lat="45.764140743347355" lon="11.24404861763889"><ele>749.0</ele><time>2026-04-26T10:19:32.999Z</time></trkpt><trkpt lat="45.76409882869997" lon="11.244142095124557"><ele>749.0</ele><time>2026-04-26T10:19:34.999Z</time></trkpt><trkpt lat="45.76411247483618" lon="11.244265440994381"><ele>749.0</ele><time>2026-04-26T10:19:36.999Z</time></trkpt><trkpt lat="45.76411406296666" lon="11.244361190404623"><ele>749.8000000000001</ele><time>2026-04-26T10:19:38.999Z</time></trkpt><trkpt lat="45.764065330933946" lon="11.24444066100001"><ele>750.6</ele><time>2026-04-26T10:19:40.999Z</time></trkpt><trkpt lat="45.76396175486542" lon="11.244532236437502"><ele>751.4</ele><time>2026-04-26T10:19:42.999Z</time></trkpt><trkpt lat="45.76386484935647" lon="11.244609970734237"><ele>752.2</ele><time>2026-04-26T10:19:44.999Z</time></trkpt><trkpt lat="45.76377182917124" lon="11.244700117993098"><ele>753.0</ele><time>2026-04-26T10:19:46.999Z</time></trkpt><trkpt lat="45.763708060177855" lon="11.244837498757962"><ele>751.5</ele><time>2026-04-26T10:19:48.999Z</time></trkpt><trkpt lat="45.763684543317716" lon="11.244952792360321"><ele>750.0</ele><time>2026-04-26T10:19:50.999Z</time></trkpt><trkpt lat="45.76367220117174" lon="11.245043819120209"><ele>748.5</ele><time>2026-04-26T10:19:52.999Z</time></trkpt><trkpt lat="45.763628614501705" lon="11.245131025671082"><ele>747.0</ele><time>2026-04-26T10:19:54.999Z</time></trkpt><trkpt lat="45.763564669494606" lon="11.245132718628557"><ele>745.5</ele><time>2026-04-26T10:19:56.999Z</time></trkpt><trkpt lat="45.76347255991707" lon="11.24509731484426"><ele>744.0</ele><time>2026-04-26T10:19:58.999Z</time></trkpt><trkpt lat="45.763391011345256" lon="11.245044900379874"><ele>744.0</ele><time>2026-04-26T10:20:00.999Z</time></trkpt><trkpt lat="45.76331159159836" lon="11.245030928230364"><ele>744.0</ele><time>2026-04-26T10:20:02.999Z</time></trkpt><trkpt lat="45.76322213096038" lon="11.245037637129975"><ele>744.0</ele><time>2026-04-26T10:20:04.999Z</time></trkpt><trkpt lat="45.76314171888514" lon="11.245095464053332"><ele>744.0</ele><time>2026-04-26T10:20:06.999Z</time></trkpt><trkpt lat="45.76306523046224" lon="11.245153989176075"><ele>744.0</ele><time>2026-04-26T10:20:08.999Z</time></trkpt><trkpt lat="45.76298722773855" lon="11.245209135317797"><ele>744.0</ele><time>2026-04-26T10:20:10.999Z</time></trkpt><trkpt lat="45.762893664501405" lon="11.245234190062767"><ele>744.0</ele><time>2026-04-26T10:20:12.998Z</time></trkpt><trkpt lat="45.76282108352584" lon="11.245231735609746"><ele>744.0</ele><time>2026-04-26T10:20:14.998Z</time></trkpt><trkpt lat="45.76273320983481" lon="11.24526435494968"><ele>744.0</ele><time>2026-04-26T10:20:16.998Z</time></trkpt><trkpt lat="45.76265487736238" lon="11.245273402058215"><ele>744.0</ele><time>2026-04-26T10:20:18.998Z</time></trkpt><trkpt lat="45.76259285339508" lon="11.24521145002927"><ele>744.0</ele><time>2026-04-26T10:20:20.998Z</time></trkpt><trkpt lat="45.76254896289495" lon="11.245108485174628"><ele>744.0</ele><time>2026-04-26T10:20:22.998Z</time></trkpt><trkpt lat="45.762497401856294" lon="11.244976523846177"><ele>744.0</ele><time>2026-04-26T10:20:24.998Z</time></trkpt><trkpt lat="45.762444900628445" lon="11.244839773148318"><ele>744.0</ele><time>2026-04-26T10:20:26.998Z</time></trkpt><trkpt lat="45.76238626178342" lon="11.24471478080124"><ele>744.0</ele><time>2026-04-26T10:20:28.998Z</time></trkpt><trkpt lat="45.76229795246459" lon="11.244657114368753"><ele>744.0</ele><time>2026-04-26T10:20:30.998Z</time></trkpt><trkpt lat="45.76222483213327" lon="11.244620139195817"><ele>744.0</ele><time>2026-04-26T10:20:32.998Z</time></trkpt><trkpt lat="45.76215668566356" lon="11.24460900836447"><ele>743.0</ele><time>2026-04-26T10:20:34.998Z</time></trkpt><trkpt lat="45.76207634827898" lon="11.244627322044337"><ele>742.0</ele><time>2026-04-26T10:20:36.998Z</time></trkpt><trkpt lat="45.76200843670175" lon="11.244576745733012"><ele>741.0</ele><time>2026-04-26T10:20:39.998Z</time></trkpt><trkpt lat="45.76194862671219" lon="11.244483475266032"><ele>740.0</ele><time>2026-04-26T10:20:41.998Z</time></trkpt><trkpt lat="45.76189016769214" lon="11.244357471157416"><ele>739.0</ele><time>2026-04-26T10:20:43.998Z</time></trkpt><trkpt lat="45.76183891398756" lon="11.244236014465006"><ele>739.0</ele><time>2026-04-26T10:20:45.998Z</time></trkpt><trkpt lat="45.76178517201627" lon="11.244129633392362"><ele>739.0</ele><time>2026-04-26T10:20:47.998Z</time></trkpt><trkpt lat="45.76169059149946" lon="11.244037731676471"><ele>739.0</ele><time>2026-04-26T10:20:49.998Z</time></trkpt><trkpt lat="45.76159941190822" lon="11.244046613751081"><ele>739.0</ele><time>2026-04-26T10:20:51.998Z</time></trkpt><trkpt lat="45.761514984852425" lon="11.244092265675967"><ele>739.0</ele><time>2026-04-26T10:20:53.998Z</time></trkpt><trkpt lat="45.761429370142686" lon="11.244117367110805"><ele>739.0</ele><time>2026-04-26T10:20:55.998Z</time></trkpt><trkpt lat="45.76132148989419" lon="11.244142199161043"><ele>739.0</ele><time>2026-04-26T10:20:57.998Z</time></trkpt><trkpt lat="45.76124564503435" lon="11.244177391230854"><ele>739.0</ele><time>2026-04-26T10:20:59.998Z</time></trkpt><trkpt lat="45.7611817003044" lon="11.24416908109339"><ele>739.0</ele><time>2026-04-26T10:21:01.998Z</time></trkpt><trkpt lat="45.761114766223926" lon="11.24416072448052"><ele>739.0</ele><time>2026-04-26T10:21:03.998Z</time></trkpt><trkpt lat="45.761038921919244" lon="11.244152597209188"><ele>739.0</ele><time>2026-04-26T10:21:05.998Z</time></trkpt><trkpt lat="45.7609697785324" lon="11.244188601070778"><ele>738.1666666666667</ele><time>2026-04-26T10:21:07.998Z</time></trkpt><trkpt lat="45.76089690243928" lon="11.244202791127933"><ele>737.3333333333334</ele><time>2026-04-26T10:21:09.998Z</time></trkpt><trkpt lat="45.76080334531171" lon="11.244206763048156"><ele>736.5</ele><time>2026-04-26T10:21:12.998Z</time></trkpt><trkpt lat="45.76072239298412" lon="11.244217575451735"><ele>735.6666666666666</ele><time>2026-04-26T10:21:14.998Z</time></trkpt><trkpt lat="45.76064669103184" lon="11.24420882087067"><ele>734.8333333333333</ele><time>2026-04-26T10:21:16.998Z</time></trkpt><trkpt lat="45.76056698800792" lon="11.244199418994828"><ele>734.0</ele><time>2026-04-26T10:21:18.998Z</time></trkpt><trkpt lat="45.76047718768107" lon="11.244200418651443"><ele>734.0</ele><time>2026-04-26T10:21:20.998Z</time></trkpt><trkpt lat="45.76037240910646" lon="11.244185317403465"><ele>734.0</ele><time>2026-04-26T10:21:22.998Z</time></trkpt><trkpt lat="45.76026158876393" lon="11.244159152074255"><ele>734.0</ele><time>2026-04-26T10:21:24.998Z</time></trkpt><trkpt lat="45.76016967808122" lon="11.244144728227473"><ele>734.0</ele><time>2026-04-26T10:21:26.998Z</time></trkpt><trkpt lat="45.76010437288359" lon="11.244186595373955"><ele>734.0</ele><time>2026-04-26T10:21:28.998Z</time></trkpt><trkpt lat="45.760050669265304" lon="11.244234723146105"><ele>734.0</ele><time>2026-04-26T10:21:31.997Z</time></trkpt><trkpt lat="45.7600159627897" lon="11.244343321628481"><ele>732.5</ele><time>2026-04-26T10:21:45.997Z</time></trkpt><trkpt lat="45.75997667221525" lon="11.24443684543075"><ele>731.0</ele><time>2026-04-26T10:21:48.997Z</time></trkpt><trkpt lat="45.759893446554386" lon="11.244449849301509"><ele>729.5</ele><time>2026-04-26T10:21:52.997Z</time></trkpt><trkpt lat="45.75980657688195" lon="11.244451224585044"><ele>728.0</ele><time>2026-04-26T10:21:55.997Z</time></trkpt><trkpt lat="45.75974877168965" lon="11.2445134467718"><ele>726.5</ele><time>2026-04-26T10:21:58.997Z</time></trkpt><trkpt lat="45.75969626513592" lon="11.244580527934112"><ele>725.0</ele><time>2026-04-26T10:22:02.997Z</time></trkpt><trkpt lat="45.75958603968573" lon="11.244608683845689"><ele>725.0</ele><time>2026-04-26T10:22:05.997Z</time></trkpt><trkpt lat="45.75946056744062" lon="11.244626893336923"><ele>725.0</ele><time>2026-04-26T10:22:07.997Z</time></trkpt><trkpt lat="45.75933795972116" lon="11.244628385388777"><ele>725.0</ele><time>2026-04-26T10:22:09.997Z</time></trkpt><trkpt lat="45.75926240810015" lon="11.244617213439472"><ele>725.0</ele><time>2026-04-26T10:22:10.997Z</time></trkpt><trkpt lat="45.759189418752584" lon="11.244623758658571"><ele>725.0</ele><time>2026-04-26T10:22:11.997Z</time></trkpt><trkpt lat="45.75911995611556" lon="11.244629192346418"><ele>725.8</ele><time>2026-04-26T10:22:12.997Z</time></trkpt><trkpt lat="45.75904892180168" lon="11.244637968807098"><ele>726.6</ele><time>2026-04-26T10:22:13.997Z</time></trkpt><trkpt lat="45.758911578126735" lon="11.244655419994336"><ele>727.4000000000001</ele><time>2026-04-26T10:22:15.997Z</time></trkpt><trkpt lat="45.75880265244354" lon="11.244731306599807"><ele>728.2</ele><time>2026-04-26T10:22:17.997Z</time></trkpt><trkpt lat="45.7587211012204" lon="11.244808584514619"><ele>729.0</ele><time>2026-04-26T10:22:19.997Z</time></trkpt><trkpt lat="45.75865739078435" lon="11.244923039955596"><ele>729.0</ele><time>2026-04-26T10:22:21.997Z</time></trkpt><trkpt lat="45.758590248872814" lon="11.245059075505047"><ele>729.0</ele><time>2026-04-26T10:22:23.997Z</time></trkpt><trkpt lat="45.75853054043462" lon="11.245197797369332"><ele>729.0</ele><time>2026-04-26T10:22:25.997Z</time></trkpt><trkpt lat="45.758490373018674" lon="11.245276684350827"><ele>729.0</ele><time>2026-04-26T10:22:26.997Z</time></trkpt><trkpt lat="45.75845083702674" lon="11.245379728983478"><ele>729.0</ele><time>2026-04-26T10:22:27.997Z</time></trkpt><trkpt lat="45.758414937998786" lon="11.245475129612407"><ele>728.1666666666666</ele><time>2026-04-26T10:22:28.997Z</time></trkpt><trkpt lat="45.75838283025794" lon="11.245569211513795"><ele>727.3333333333334</ele><time>2026-04-26T10:22:29.997Z</time></trkpt><trkpt lat="45.75834508559448" lon="11.245650449156553"><ele>726.5</ele><time>2026-04-26T10:22:30.997Z</time></trkpt><trkpt lat="45.758277202376895" lon="11.24579417455196"><ele>725.6666666666667</ele><time>2026-04-26T10:22:32.997Z</time></trkpt><trkpt lat="45.75824324603327" lon="11.24591517878928"><ele>724.8333333333334</ele><time>2026-04-26T10:22:34.997Z</time></trkpt><trkpt lat="45.75824967855624" lon="11.24602796527016"><ele>724.0</ele><time>2026-04-26T10:22:36.997Z</time></trkpt><trkpt lat="45.758288770922405" lon="11.24614792236739"><ele>724.0</ele><time>2026-04-26T10:22:38.997Z</time></trkpt><trkpt lat="45.758325982870595" lon="11.24625171547906"><ele>724.0</ele><time>2026-04-26T10:22:40.997Z</time></trkpt><trkpt lat="45.75836939759216" lon="11.246319120749835"><ele>724.0</ele><time>2026-04-26T10:22:42.997Z</time></trkpt><trkpt lat="45.75841826445882" lon="11.246383444887993"><ele>724.0</ele><time>2026-04-26T10:22:44.997Z</time></trkpt><trkpt lat="45.75845659325625" lon="11.246457944634933"><ele>724.0</ele><time>2026-04-26T10:22:46.997Z</time></trkpt><trkpt lat="45.75850278189929" lon="11.246540758411703"><ele>724.0</ele><time>2026-04-26T10:22:48.997Z</time></trkpt><trkpt lat="45.75856666433492" lon="11.246603839987827"><ele>724.0</ele><time>2026-04-26T10:22:51.996Z</time></trkpt><trkpt lat="45.75867691582649" lon="11.246608273117642"><ele>724.8333333333334</ele><time>2026-04-26T10:22:54.996Z</time></trkpt><trkpt lat="45.75879722699659" lon="11.246598774894272"><ele>725.6666666666667</ele><time>2026-04-26T10:22:56.996Z</time></trkpt><trkpt lat="45.75886012082462" lon="11.2466388522237"><ele>726.5</ele><time>2026-04-26T10:22:57.996Z</time></trkpt><trkpt lat="45.75891281743937" lon="11.24668836281987"><ele>727.3333333333334</ele><time>2026-04-26T10:22:58.996Z</time></trkpt><trkpt lat="45.758989959796146" lon="11.246788578899439"><ele>728.1666666666666</ele><time>2026-04-26T10:23:00.996Z</time></trkpt><trkpt lat="45.759067092213044" lon="11.246844205406525"><ele>729.0</ele><time>2026-04-26T10:23:02.996Z</time></trkpt><trkpt lat="45.75915189368938" lon="11.246853739510675"><ele>729.0</ele><time>2026-04-26T10:23:04.996Z</time></trkpt><trkpt lat="45.759230249694184" lon="11.24682158685952"><ele>729.0</ele><time>2026-04-26T10:23:06.996Z</time></trkpt><trkpt lat="45.75930229051649" lon="11.246789130090866"><ele>729.0</ele><time>2026-04-26T10:23:08.996Z</time></trkpt><trkpt lat="45.75936838588778" lon="11.246756128445991"><ele>729.0</ele><time>2026-04-26T10:23:10.996Z</time></trkpt><trkpt lat="45.75944104998438" lon="11.246711031151934"><ele>729.0</ele><time>2026-04-26T10:23:12.996Z</time></trkpt><trkpt lat="45.75955363180077" lon="11.24664364179211"><ele>729.0</ele><time>2026-04-26T10:23:14.996Z</time></trkpt><trkpt lat="45.759642358030696" lon="11.246595720433655"><ele>731.6</ele><time>2026-04-26T10:23:16.996Z</time></trkpt><trkpt lat="45.75977127333674" lon="11.24665401254"><ele>734.2</ele><time>2026-04-26T10:23:18.996Z</time></trkpt><trkpt lat="45.759828200824956" lon="11.246709220888992"><ele>736.8000000000001</ele><time>2026-04-26T10:23:19.996Z</time></trkpt><trkpt lat="45.759916544128515" lon="11.246806368370086"><ele>739.4000000000001</ele><time>2026-04-26T10:23:21.996Z</time></trkpt><trkpt lat="45.75999105043542" lon="11.246922211727043"><ele>742.0</ele><time>2026-04-26T10:23:23.996Z</time></trkpt><trkpt lat="45.76003432966744" lon="11.247016380164705"><ele>742.0</ele><time>2026-04-26T10:23:25.996Z</time></trkpt><trkpt lat="45.76002654392532" lon="11.24713617241839"><ele>742.0</ele><time>2026-04-26T10:23:28.996Z</time></trkpt><trkpt lat="45.76003162435928" lon="11.247263560771781"><ele>742.0</ele><time>2026-04-26T10:23:30.996Z</time></trkpt><trkpt lat="45.76008346028123" lon="11.247395966320124"><ele>742.0</ele><time>2026-04-26T10:23:32.996Z</time></trkpt><trkpt lat="45.760096128795276" lon="11.24752496300015"><ele>742.0</ele><time>2026-04-26T10:23:34.996Z</time></trkpt><trkpt lat="45.760117583513875" lon="11.247645049024735"><ele>738.6</ele><time>2026-04-26T10:23:36.996Z</time></trkpt><trkpt lat="45.76013990154584" lon="11.247745352502612"><ele>735.2</ele><time>2026-04-26T10:23:38.996Z</time></trkpt><trkpt lat="45.76017455903516" lon="11.247891421042059"><ele>731.8</ele><time>2026-04-26T10:23:40.996Z</time></trkpt><trkpt lat="45.76018833109541" lon="11.24806240243056"><ele>728.4</ele><time>2026-04-26T10:23:42.996Z</time></trkpt><trkpt lat="45.76019765090279" lon="11.248157873019467"><ele>725.0</ele><time>2026-04-26T10:23:43.996Z</time></trkpt><trkpt lat="45.76022127426198" lon="11.248284112048008"><ele>731.0</ele><time>2026-04-26T10:23:45.996Z</time></trkpt><trkpt lat="45.76028819749911" lon="11.248343516568896"><ele>737.0</ele><time>2026-04-26T10:23:48.996Z</time></trkpt><trkpt lat="45.76035411918916" lon="11.248362581569578"><ele>743.0</ele><time>2026-04-26T10:23:50.996Z</time></trkpt><trkpt lat="45.7604206964644" lon="11.24841606985961"><ele>749.0</ele><time>2026-04-26T10:23:52.996Z</time></trkpt><trkpt lat="45.76050145306336" lon="11.248492333137655"><ele>755.0</ele><time>2026-04-26T10:23:54.996Z</time></trkpt><trkpt lat="45.76058459517841" lon="11.24856192150575"><ele>761.0</ele><time>2026-04-26T10:23:56.996Z</time></trkpt><trkpt lat="45.76064734187976" lon="11.248619542071566"><ele>761.0</ele><time>2026-04-26T10:23:58.996Z</time></trkpt><trkpt lat="45.7607413500722" lon="11.248652074044408"><ele>761.0</ele><time>2026-04-26T10:24:01.996Z</time></trkpt><trkpt lat="45.76082007192159" lon="11.24861891339553"><ele>761.0</ele><time>2026-04-26T10:24:04.996Z</time></trkpt><trkpt lat="45.76088529812651" lon="11.24858329732083"><ele>761.0</ele><time>2026-04-26T10:24:06.996Z</time></trkpt><trkpt lat="45.7611072413868" lon="11.248600534081941"><ele>767.1666666666666</ele><time>2026-04-26T10:24:16.995Z</time></trkpt><trkpt lat="45.76112583488198" lon="11.248695830326861"><ele>773.3333333333333</ele><time>2026-04-26T10:24:18.995Z</time></trkpt><trkpt lat="45.76115431247636" lon="11.248819674839428"><ele>779.5</ele><time>2026-04-26T10:24:20.995Z</time></trkpt><trkpt lat="45.76123028965547" lon="11.248972786718207"><ele>785.6666666666666</ele><time>2026-04-26T10:24:22.995Z</time></trkpt><trkpt lat="45.76125983383362" lon="11.249053157108328"><ele>791.8333333333334</ele><time>2026-04-26T10:24:23.995Z</time></trkpt><trkpt lat="45.76127021243056" lon="11.249165986653608"><ele>798.0</ele><time>2026-04-26T10:24:25.995Z</time></trkpt><trkpt lat="45.761235775997385" lon="11.249242575315165"><ele>798.0</ele><time>2026-04-26T10:24:27.995Z</time></trkpt><trkpt lat="45.76117167031065" lon="11.249368008250954"><ele>798.0</ele><time>2026-04-26T10:24:29.995Z</time></trkpt><trkpt lat="45.7611310769407" lon="11.249453683241008"><ele>798.0</ele><time>2026-04-26T10:24:30.995Z</time></trkpt><trkpt lat="45.76106550479735" lon="11.249600961574014"><ele>798.0</ele><time>2026-04-26T10:24:32.995Z</time></trkpt><trkpt lat="45.7609770561935" lon="11.249716921713489"><ele>798.0</ele><time>2026-04-26T10:24:34.995Z</time></trkpt><trkpt lat="45.760902753747594" lon="11.249789838290045"><ele>790.8333333333334</ele><time>2026-04-26T10:24:36.995Z</time></trkpt><trkpt lat="45.76084170768842" lon="11.249899404639685"><ele>783.6666666666666</ele><time>2026-04-26T10:24:39.995Z</time></trkpt><trkpt lat="45.760786432035296" lon="11.249989868914128"><ele>776.5</ele><time>2026-04-26T10:24:41.995Z</time></trkpt><trkpt lat="45.76074155504401" lon="11.250077156073989"><ele>769.3333333333333</ele><time>2026-04-26T10:24:43.995Z</time></trkpt><trkpt lat="45.76068821363091" lon="11.250179714105954"><ele>762.1666666666666</ele><time>2026-04-26T10:24:45.995Z</time></trkpt><trkpt lat="45.76059940065164" lon="11.250240488222895"><ele>755.0</ele><time>2026-04-26T10:24:47.995Z</time></trkpt><trkpt lat="45.76052107402715" lon="11.250289300200558"><ele>755.0</ele><time>2026-04-26T10:24:49.995Z</time></trkpt><trkpt lat="45.76045034092062" lon="11.25030308007835"><ele>755.0</ele><time>2026-04-26T10:24:51.995Z</time></trkpt><trkpt lat="45.760372807403954" lon="11.250324338886644"><ele>755.0</ele><time>2026-04-26T10:24:53.995Z</time></trkpt><trkpt lat="45.760267679534984" lon="11.250362443544324"><ele>755.0</ele><time>2026-04-26T10:24:55.995Z</time></trkpt><trkpt lat="45.76019352325772" lon="11.250422406596627"><ele>755.0</ele><time>2026-04-26T10:24:57.995Z</time></trkpt><trkpt lat="45.76013940109508" lon="11.250507485864318"><ele>755.0</ele><time>2026-04-26T10:24:59.995Z</time></trkpt><trkpt lat="45.76005949727872" lon="11.250544288808632"><ele>755.8</ele><time>2026-04-26T10:25:01.997Z</time></trkpt><trkpt lat="45.75998483103329" lon="11.250518921409943"><ele>756.6</ele><time>2026-04-26T10:25:03.997Z</time></trkpt><trkpt lat="45.75989466518787" lon="11.250523142466776"><ele>757.4000000000001</ele><time>2026-04-26T10:25:05.998Z</time></trkpt><trkpt lat="45.75979654231037" lon="11.250589021372242"><ele>758.2</ele><time>2026-04-26T10:25:07.998Z</time></trkpt><trkpt lat="45.75969770092239" lon="11.250668128627456"><ele>759.0</ele><time>2026-04-26T10:25:09.998Z</time></trkpt><trkpt lat="45.759640568597405" lon="11.250722448592157"><ele>759.0</ele><time>2026-04-26T10:25:10.998Z</time></trkpt><trkpt lat="45.75958890641291" lon="11.250780008264249"><ele>759.0</ele><time>2026-04-26T10:25:11.998Z</time></trkpt><trkpt lat="45.759547658910584" lon="11.250851128932783"><ele>759.0</ele><time>2026-04-26T10:25:12.998Z</time></trkpt><trkpt lat="45.7594973413295" lon="11.250907247178553"><ele>759.0</ele><time>2026-04-26T10:25:13.999Z</time></trkpt><trkpt lat="45.759438774427245" lon="11.250952747960824"><ele>759.0</ele><time>2026-04-26T10:25:14.999Z</time></trkpt><trkpt lat="45.759376116308665" lon="11.250987012313296"><ele>759.0</ele><time>2026-04-26T10:25:15.999Z</time></trkpt><trkpt lat="45.759286496736614" lon="11.251037010147085"><ele>759.0</ele><time>2026-04-26T10:25:17.999Z</time></trkpt><trkpt lat="45.75923240967577" lon="11.251097627578828"><ele>756.8333333333334</ele><time>2026-04-26T10:25:19.999Z</time></trkpt><trkpt lat="45.75923773215128" lon="11.251246566206106"><ele>754.6666666666666</ele><time>2026-04-26T10:25:22.999Z</time></trkpt><trkpt lat="45.759246288274674" lon="11.251357330043813"><ele>752.5</ele><time>2026-04-26T10:25:24.999Z</time></trkpt><trkpt lat="45.75922167375349" lon="11.251450370944356"><ele>750.3333333333333</ele><time>2026-04-26T10:25:26.999Z</time></trkpt><trkpt lat="45.759165096869154" lon="11.251534866972497"><ele>748.1666666666666</ele><time>2026-04-26T10:25:28.999Z</time></trkpt><trkpt lat="45.759123807636385" lon="11.251643034499587"><ele>746.0</ele><time>2026-04-26T10:25:31.999Z</time></trkpt><trkpt lat="45.75911999277298" lon="11.25173367685369"><ele>746.0</ele><time>2026-04-26T10:25:33.999Z</time></trkpt><trkpt lat="45.75910091986718" lon="11.2518501196653"><ele>746.0</ele><time>2026-04-26T10:25:35.999Z</time></trkpt><trkpt lat="45.75908879515368" lon="11.251953234992026"><ele>746.0</ele><time>2026-04-26T10:25:37.999Z</time></trkpt><trkpt lat="45.7590760821255" lon="11.252071380940047"><ele>746.0</ele><time>2026-04-26T10:25:39.999Z</time></trkpt><trkpt lat="45.759063886589466" lon="11.252176623612826"><ele>746.0</ele><time>2026-04-26T10:25:41.999Z</time></trkpt><trkpt lat="45.759043887431034" lon="11.25231367125858"><ele>746.0</ele><time>2026-04-26T10:25:43.999Z</time></trkpt><trkpt lat="45.75901778380911" lon="11.252414622374154"><ele>748.0</ele><time>2026-04-26T10:25:45.999Z</time></trkpt><trkpt lat="45.75895841303068" lon="11.252548195195914"><ele>750.0</ele><time>2026-04-26T10:25:47.999Z</time></trkpt><trkpt lat="45.75886783699874" lon="11.252664530174876"><ele>752.0</ele><time>2026-04-26T10:25:49.999Z</time></trkpt><trkpt lat="45.75879459655375" lon="11.252795051263147"><ele>754.0</ele><time>2026-04-26T10:25:51.999Z</time></trkpt><trkpt lat="45.758771437286434" lon="11.252883304226351"><ele>756.0</ele><time>2026-04-26T10:25:52.999Z</time></trkpt><trkpt lat="45.758745448591206" lon="11.252984359116311"><ele>756.0</ele><time>2026-04-26T10:25:53.999Z</time></trkpt><trkpt lat="45.75871869657915" lon="11.253087960221425"><ele>756.0</ele><time>2026-04-26T10:25:54.999Z</time></trkpt><trkpt lat="45.75867582993635" lon="11.253172459651314"><ele>756.0</ele><time>2026-04-26T10:25:55.999Z</time></trkpt><trkpt lat="45.758633936908915" lon="11.253260239412363"><ele>756.0</ele><time>2026-04-26T10:25:56.999Z</time></trkpt><trkpt lat="45.75857819025746" lon="11.253362567404025"><ele>756.0</ele><time>2026-04-26T10:25:57.999Z</time></trkpt><trkpt lat="45.75852809750981" lon="11.253437663301295"><ele>756.0</ele><time>2026-04-26T10:25:58.999Z</time></trkpt><trkpt lat="45.758477011007024" lon="11.253503609965943"><ele>753.6666666666666</ele><time>2026-04-26T10:25:59.999Z</time></trkpt><trkpt lat="45.758424444797456" lon="11.253567326118164"><ele>751.3333333333334</ele><time>2026-04-26T10:26:00.999Z</time></trkpt><trkpt lat="45.758372246454506" lon="11.253625092605462"><ele>749.0</ele><time>2026-04-26T10:26:01.999Z</time></trkpt><trkpt lat="45.75832270917952" lon="11.253684745582394"><ele>746.6666666666667</ele><time>2026-04-26T10:26:02.999Z</time></trkpt><trkpt lat="45.75826295835773" lon="11.253749141034483"><ele>744.3333333333334</ele><time>2026-04-26T10:26:03.999Z</time></trkpt><trkpt lat="45.75816512360487" lon="11.253844126696594"><ele>742.0</ele><time>2026-04-26T10:26:05.999Z</time></trkpt><trkpt lat="45.758082851850375" lon="11.253963023303566"><ele>742.0</ele><time>2026-04-26T10:26:07.999Z</time></trkpt><trkpt lat="45.7580326049504" lon="11.254023426698064"><ele>742.0</ele><time>2026-04-26T10:26:08.999Z</time></trkpt><trkpt lat="45.757981534767886" lon="11.254079512775705"><ele>742.0</ele><time>2026-04-26T10:26:09.999Z</time></trkpt><trkpt lat="45.75791562408531" lon="11.254126499799645"><ele>742.0</ele><time>2026-04-26T10:26:10.999Z</time></trkpt><trkpt lat="45.757850075419505" lon="11.254168523180267"><ele>742.0</ele><time>2026-04-26T10:26:11.999Z</time></trkpt><trkpt lat="45.75777325319043" lon="11.254202443025568"><ele>742.0</ele><time>2026-04-26T10:26:12.999Z</time></trkpt><trkpt lat="45.75768925858035" lon="11.254218151414559"><ele>742.0</ele><time>2026-04-26T10:26:13.999Z</time></trkpt><trkpt lat="45.75760420853254" lon="11.254255551757216"><ele>735.75</ele><time>2026-04-26T10:26:14.999Z</time></trkpt><trkpt lat="45.75752184258306" lon="11.254309247291058"><ele>729.5</ele><time>2026-04-26T10:26:15.999Z</time></trkpt><trkpt lat="45.75742594058291" lon="11.254402573548155"><ele>723.25</ele><time>2026-04-26T10:26:16.999Z</time></trkpt><trkpt lat="45.75732003048159" lon="11.254515097594167"><ele>717.0</ele><time>2026-04-26T10:26:17.999Z</time></trkpt><trkpt lat="45.7572099085455" lon="11.254650005085315"><ele>714.3333333333334</ele><time>2026-04-26T10:26:18.999Z</time></trkpt><trkpt lat="45.75709770258239" lon="11.254794452558357"><ele>711.6666666666667</ele><time>2026-04-26T10:26:19.999Z</time></trkpt><trkpt lat="45.756982573809466" lon="11.254952884318811"><ele>709.0</ele><time>2026-04-26T10:26:20.999Z</time></trkpt><trkpt lat="45.7568527468909" lon="11.255142002143653"><ele>709.0</ele><time>2026-04-26T10:26:21.999Z</time></trkpt><trkpt lat="45.75673340562244" lon="11.255287281160676"><ele>709.0</ele><time>2026-04-26T10:26:22.999Z</time></trkpt><trkpt lat="45.756627610766024" lon="11.255419890135883"><ele>709.0</ele><time>2026-04-26T10:26:23.999Z</time></trkpt><trkpt lat="45.75651874257884" lon="11.25552402619635"><ele>709.0</ele><time>2026-04-26T10:26:24.999Z</time></trkpt><trkpt lat="45.756408159800394" lon="11.25560440287177"><ele>708.75</ele><time>2026-04-26T10:26:25.999Z</time></trkpt><trkpt lat="45.756299323364345" lon="11.255666302942522"><ele>708.5</ele><time>2026-04-26T10:26:26.999Z</time></trkpt><trkpt lat="45.75618792713211" lon="11.2557091706948"><ele>708.25</ele><time>2026-04-26T10:26:27.999Z</time></trkpt><trkpt lat="45.75607736495729" lon="11.255750704384875"><ele>708.0</ele><time>2026-04-26T10:26:28.999Z</time></trkpt><trkpt lat="45.755970135747454" lon="11.255796327994931"><ele>708.0</ele><time>2026-04-26T10:26:29.999Z</time></trkpt><trkpt lat="45.7558608007022" lon="11.255830805403168"><ele>708.0</ele><time>2026-04-26T10:26:30.999Z</time></trkpt><trkpt lat="45.75574828009827" lon="11.255838786289523"><ele>708.0</ele><time>2026-04-26T10:26:31.999Z</time></trkpt><trkpt lat="45.75563549598997" lon="11.25584701262008"><ele>708.0</ele><time>2026-04-26T10:26:32.999Z</time></trkpt><trkpt lat="45.75552392136874" lon="11.255854520390601"><ele>708.0</ele><time>2026-04-26T10:26:33.999Z</time></trkpt><trkpt lat="45.75541940838029" lon="11.255860014302804"><ele>708.0</ele><time>2026-04-26T10:26:34.999Z</time></trkpt><trkpt lat="45.75531023039663" lon="11.25586235253633"><ele>708.0</ele><time>2026-04-26T10:26:35.999Z</time></trkpt><trkpt lat="45.755197972495466" lon="11.255857180571464"><ele>708.0</ele><time>2026-04-26T10:26:36.999Z</time></trkpt><trkpt lat="45.75508057503675" lon="11.25584897729538"><ele>708.0</ele><time>2026-04-26T10:26:37.999Z</time></trkpt><trkpt lat="45.75495832872146" lon="11.255832109308406"><ele>706.0</ele><time>2026-04-26T10:26:38.999Z</time></trkpt><trkpt lat="45.754833402339564" lon="11.255822589348076"><ele>704.0</ele><time>2026-04-26T10:26:39.999Z</time></trkpt><trkpt lat="45.754705293993645" lon="11.255828292295142"><ele>702.0</ele><time>2026-04-26T10:26:40.999Z</time></trkpt><trkpt lat="45.754574637826025" lon="11.25582818490404"><ele>700.0</ele><time>2026-04-26T10:26:41.999Z</time></trkpt><trkpt lat="45.75444265824317" lon="11.255828184314227"><ele>697.5</ele><time>2026-04-26T10:26:42.999Z</time></trkpt><trkpt lat="45.75430652943384" lon="11.255836234275284"><ele>695.0</ele><time>2026-04-26T10:26:43.999Z</time></trkpt><trkpt lat="45.754171411130535" lon="11.255857010164044"><ele>692.5</ele><time>2026-04-26T10:26:44.999Z</time></trkpt><trkpt lat="45.7540361093189" lon="11.255862834142816"><ele>690.0</ele><time>2026-04-26T10:26:45.999Z</time></trkpt><trkpt lat="45.75390023908395" lon="11.25586116990358"><ele>690.0</ele><time>2026-04-26T10:26:46.999Z</time></trkpt><trkpt lat="45.753765776790104" lon="11.255865346391689"><ele>690.0</ele><time>2026-04-26T10:26:47.999Z</time></trkpt><trkpt lat="45.753636960886034" lon="11.255870000562156"><ele>690.0</ele><time>2026-04-26T10:26:48.999Z</time></trkpt><trkpt lat="45.75350982210093" lon="11.255880267107358"><ele>690.0</ele><time>2026-04-26T10:26:49.999Z</time></trkpt><trkpt lat="45.75338386477874" lon="11.255882480557522"><ele>686.5</ele><time>2026-04-26T10:26:50.999Z</time></trkpt><trkpt lat="45.75325691499699" lon="11.255896508933736"><ele>683.0</ele><time>2026-04-26T10:26:51.999Z</time></trkpt><trkpt lat="45.75313100633131" lon="11.255913874703756"><ele>679.5</ele><time>2026-04-26T10:26:52.999Z</time></trkpt><trkpt lat="45.75300800291586" lon="11.255937476658904"><ele>676.0</ele><time>2026-04-26T10:26:53.999Z</time></trkpt><trkpt lat="45.75288234430174" lon="11.255956675933193"><ele>676.0</ele><time>2026-04-26T10:26:54.999Z</time></trkpt><trkpt lat="45.7527552884408" lon="11.255979018971894"><ele>676.0</ele><time>2026-04-26T10:26:55.999Z</time></trkpt><trkpt lat="45.752625306085704" lon="11.256008595402825"><ele>676.0</ele><time>2026-04-26T10:26:56.999Z</time></trkpt><trkpt lat="45.752496425749115" lon="11.256046589445342"><ele>676.0</ele><time>2026-04-26T10:26:57.999Z</time></trkpt><trkpt lat="45.75237295526667" lon="11.256086777234536"><ele>675.1999999999999</ele><time>2026-04-26T10:26:58.999Z</time></trkpt><trkpt lat="45.75225859793374" lon="11.256133321764446"><ele>674.4</ele><time>2026-04-26T10:26:59.999Z</time></trkpt><trkpt lat="45.752151818704036" lon="11.25619104559187"><ele>673.6</ele><time>2026-04-26T10:27:00.999Z</time></trkpt><trkpt lat="45.75204942711082" lon="11.256249132304411"><ele>672.8</ele><time>2026-04-26T10:27:01.999Z</time></trkpt><trkpt lat="45.75195567970783" lon="11.256297196956783"><ele>672.0</ele><time>2026-04-26T10:27:02.999Z</time></trkpt><trkpt lat="45.75187624143385" lon="11.25633753062285"><ele>669.5</ele><time>2026-04-26T10:27:03.999Z</time></trkpt><trkpt lat="45.75180389122463" lon="11.256369537156678"><ele>667.0</ele><time>2026-04-26T10:27:04.999Z</time></trkpt><trkpt lat="45.75170777845021" lon="11.256387822187644"><ele>664.5</ele><time>2026-04-26T10:27:06.998Z</time></trkpt><trkpt lat="45.75167553143324" lon="11.256275888890922"><ele>662.0</ele><time>2026-04-26T10:27:08.998Z</time></trkpt><trkpt lat="45.7517136796903" lon="11.256198671884475"><ele>659.5</ele><time>2026-04-26T10:27:09.998Z</time></trkpt><trkpt lat="45.751770662021606" lon="11.256121974460328"><ele>657.0</ele><time>2026-04-26T10:27:10.998Z</time></trkpt><trkpt lat="45.75184277253023" lon="11.256039116402194"><ele>660.0</ele><time>2026-04-26T10:27:11.998Z</time></trkpt><trkpt lat="45.75191598528046" lon="11.255955293838591"><ele>663.0</ele><time>2026-04-26T10:27:12.998Z</time></trkpt><trkpt lat="45.75200123368823" lon="11.255884119518019"><ele>666.0</ele><time>2026-04-26T10:27:13.998Z</time></trkpt><trkpt lat="45.75209535345479" lon="11.25581736989462"><ele>669.0</ele><time>2026-04-26T10:27:14.998Z</time></trkpt><trkpt lat="45.75219417840868" lon="11.255739594109368"><ele>672.0</ele><time>2026-04-26T10:27:15.998Z</time></trkpt><trkpt lat="45.752302482216386" lon="11.255663913631375"><ele>668.25</ele><time>2026-04-26T10:27:16.998Z</time></trkpt><trkpt lat="45.75241282734691" lon="11.255574277428"><ele>664.5</ele><time>2026-04-26T10:27:17.998Z</time></trkpt><trkpt lat="45.752531077084" lon="11.25549244901925"><ele>660.75</ele><time>2026-04-26T10:27:18.998Z</time></trkpt><trkpt lat="45.752659769556686" lon="11.255427680571756"><ele>657.0</ele><time>2026-04-26T10:27:19.998Z</time></trkpt><trkpt lat="45.75278892893269" lon="11.25536164527661"><ele>657.0</ele><time>2026-04-26T10:27:20.998Z</time></trkpt><trkpt lat="45.75292076013384" lon="11.255304368927039"><ele>657.0</ele><time>2026-04-26T10:27:21.998Z</time></trkpt><trkpt lat="45.75304881203325" lon="11.25524453613021"><ele>657.0</ele><time>2026-04-26T10:27:22.998Z</time></trkpt><trkpt lat="45.75317049448731" lon="11.255175813918134"><ele>657.0</ele><time>2026-04-26T10:27:23.998Z</time></trkpt><trkpt lat="45.75328501941339" lon="11.255106504241564"><ele>657.0</ele><time>2026-04-26T10:27:24.998Z</time></trkpt><trkpt lat="45.75339778980927" lon="11.255032801253257"><ele>657.0</ele><time>2026-04-26T10:27:25.998Z</time></trkpt><trkpt lat="45.75350519079059" lon="11.254942117541658"><ele>657.0</ele><time>2026-04-26T10:27:26.998Z</time></trkpt><trkpt lat="45.753607257608614" lon="11.254875812865341"><ele>657.0</ele><time>2026-04-26T10:27:27.998Z</time></trkpt><trkpt lat="45.7537043081434" lon="11.254819601869706"><ele>651.8000000000001</ele><time>2026-04-26T10:27:28.998Z</time></trkpt><trkpt lat="45.7538041682607" lon="11.254780820552174"><ele>646.6</ele><time>2026-04-26T10:27:29.998Z</time></trkpt><trkpt lat="45.75391262821138" lon="11.254744091652034"><ele>641.4000000000001</ele><time>2026-04-26T10:27:30.998Z</time></trkpt><trkpt lat="45.754023751977634" lon="11.254712311821805"><ele>636.2</ele><time>2026-04-26T10:27:31.998Z</time></trkpt><trkpt lat="45.75412690291958" lon="11.254686393699753"><ele>631.0</ele><time>2026-04-26T10:27:32.998Z</time></trkpt><trkpt lat="45.754230855181724" lon="11.254652851151022"><ele>631.0</ele><time>2026-04-26T10:27:33.998Z</time></trkpt><trkpt lat="45.75434160343608" lon="11.254624151802204"><ele>631.0</ele><time>2026-04-26T10:27:34.998Z</time></trkpt><trkpt lat="45.754460402900506" lon="11.25458524245426"><ele>631.0</ele><time>2026-04-26T10:27:35.998Z</time></trkpt><trkpt lat="45.75458141440073" lon="11.254545687399867"><ele>631.0</ele><time>2026-04-26T10:27:36.998Z</time></trkpt><trkpt lat="45.75469873176036" lon="11.254489910262224"><ele>633.0</ele><time>2026-04-26T10:27:37.998Z</time></trkpt><trkpt lat="45.754815348190185" lon="11.254427080122857"><ele>635.0</ele><time>2026-04-26T10:27:38.998Z</time></trkpt><trkpt lat="45.75491822896047" lon="11.254359024981714"><ele>637.0</ele><time>2026-04-26T10:27:39.998Z</time></trkpt><trkpt lat="45.755014562176584" lon="11.254300735838015"><ele>639.0</ele><time>2026-04-26T10:27:40.998Z</time></trkpt><trkpt lat="45.755100881913464" lon="11.25422265053624"><ele>641.0</ele><time>2026-04-26T10:27:41.998Z</time></trkpt><trkpt lat="45.75518158849108" lon="11.254152804935421"><ele>641.8571428571429</ele><time>2026-04-26T10:27:42.998Z</time></trkpt><trkpt lat="45.75525547482268" lon="11.25408521960985"><ele>642.7142857142857</ele><time>2026-04-26T10:27:43.998Z</time></trkpt><trkpt lat="45.75532423175189" lon="11.254014380332706"><ele>643.5714285714286</ele><time>2026-04-26T10:27:44.998Z</time></trkpt><trkpt lat="45.75539318253573" lon="11.253977229126386"><ele>644.4285714285714</ele><time>2026-04-26T10:27:45.998Z</time></trkpt><trkpt lat="45.755452324429534" lon="11.253940851203927"><ele>645.2857142857143</ele><time>2026-04-26T10:27:46.998Z</time></trkpt><trkpt lat="45.755511930141054" lon="11.253884166140987"><ele>646.1428571428571</ele><time>2026-04-26T10:27:48.998Z</time></trkpt><trkpt lat="45.755498533665936" lon="11.25379249983591"><ele>647.0</ele><time>2026-04-26T10:27:50.998Z</time></trkpt><trkpt lat="45.75538148916056" lon="11.253780479441184"><ele>647.0</ele><time>2026-04-26T10:27:52.998Z</time></trkpt><trkpt lat="45.75529761736071" lon="11.253801363976203"><ele>647.0</ele><time>2026-04-26T10:27:53.998Z</time></trkpt><trkpt lat="45.75521031355732" lon="11.253848539132312"><ele>647.0</ele><time>2026-04-26T10:27:54.998Z</time></trkpt><trkpt lat="45.75512268427736" lon="11.253888591074416"><ele>647.0</ele><time>2026-04-26T10:27:55.998Z</time></trkpt><trkpt lat="45.755042314981274" lon="11.25393264346665"><ele>647.0</ele><time>2026-04-26T10:27:56.998Z</time></trkpt><trkpt lat="45.75496358745583" lon="11.253972578716164"><ele>647.0</ele><time>2026-04-26T10:27:57.998Z</time></trkpt><trkpt lat="45.7549030089052" lon="11.254011705089237"><ele>647.0</ele><time>2026-04-26T10:27:58.998Z</time></trkpt><trkpt lat="45.7548648527372" lon="11.253933819261178"><ele>647.0</ele><time>2026-04-26T10:28:01.998Z</time></trkpt><trkpt lat="45.75489930186439" lon="11.253848199957545"><ele>647.0</ele><time>2026-04-26T10:28:02.998Z</time></trkpt><trkpt lat="45.75495701596965" lon="11.253775400152808"><ele>647.0</ele><time>2026-04-26T10:28:03.998Z</time></trkpt><trkpt lat="45.75503591417827" lon="11.253722897449958"><ele>647.0</ele><time>2026-04-26T10:28:04.998Z</time></trkpt><trkpt lat="45.75511917815163" lon="11.253663920460106"><ele>647.0</ele><time>2026-04-26T10:28:05.998Z</time></trkpt><trkpt lat="45.75520504698486" lon="11.253603959968764"><ele>647.0</ele><time>2026-04-26T10:28:06.998Z</time></trkpt><trkpt lat="45.75529242687185" lon="11.253531925951508"><ele>647.0</ele><time>2026-04-26T10:28:07.998Z</time></trkpt><trkpt lat="45.7553809949347" lon="11.253464751421152"><ele>647.0</ele><time>2026-04-26T10:28:08.998Z</time></trkpt><trkpt lat="45.75545956884491" lon="11.253398708145044"><ele>647.0</ele><time>2026-04-26T10:28:09.998Z</time></trkpt><trkpt lat="45.755530487936234" lon="11.253336157861627"><ele>647.0</ele><time>2026-04-26T10:28:10.998Z</time></trkpt><trkpt lat="45.75559115200566" lon="11.253265890675491"><ele>647.0</ele><time>2026-04-26T10:28:11.998Z</time></trkpt><trkpt lat="45.7556354851731" lon="11.25319220417103"><ele>647.0</ele><time>2026-04-26T10:28:12.998Z</time></trkpt><trkpt lat="45.75565229315321" lon="11.253073557065909"><ele>647.0</ele><time>2026-04-26T10:28:14.998Z</time></trkpt><trkpt lat="45.75556715992236" lon="11.253008799089312"><ele>647.0</ele><time>2026-04-26T10:28:16.998Z</time></trkpt><trkpt lat="45.75546838787782" lon="11.25306750967127"><ele>647.0</ele><time>2026-04-26T10:28:18.998Z</time></trkpt><trkpt lat="45.755420140478265" lon="11.253172452274752"><ele>647.0</ele><time>2026-04-26T10:28:19.998Z</time></trkpt><trkpt lat="45.755342683475035" lon="11.253256186452074"><ele>647.0</ele><time>2026-04-26T10:28:20.998Z</time></trkpt><trkpt lat="45.755246786580464" lon="11.253307789568911"><ele>647.0</ele><time>2026-04-26T10:28:21.998Z</time></trkpt><trkpt lat="45.755146149302206" lon="11.253339498058402"><ele>647.0</ele><time>2026-04-26T10:28:22.997Z</time></trkpt><trkpt lat="45.75503989286054" lon="11.25334225893421"><ele>647.0</ele><time>2026-04-26T10:28:23.997Z</time></trkpt><trkpt lat="45.754936481768226" lon="11.253353316275712"><ele>647.0</ele><time>2026-04-26T10:28:24.997Z</time></trkpt><trkpt lat="45.754832798170355" lon="11.253365618033826"><ele>641.6</ele><time>2026-04-26T10:28:25.997Z</time></trkpt><trkpt lat="45.754734558206884" lon="11.253401019849045"><ele>636.2</ele><time>2026-04-26T10:28:26.997Z</time></trkpt><trkpt lat="45.754640427883494" lon="11.25343826524331"><ele>630.8</ele><time>2026-04-26T10:28:27.997Z</time></trkpt><trkpt lat="45.75455290603461" lon="11.253488557559958"><ele>625.4</ele><time>2026-04-26T10:28:28.997Z</time></trkpt><trkpt lat="45.75446676487874" lon="11.253539271437198"><ele>620.0</ele><time>2026-04-26T10:28:29.997Z</time></trkpt><trkpt lat="45.75437743687987" lon="11.253582301713061"><ele>617.4</ele><time>2026-04-26T10:28:30.997Z</time></trkpt><trkpt lat="45.75428739135441" lon="11.253619014714834"><ele>614.8</ele><time>2026-04-26T10:28:31.997Z</time></trkpt><trkpt lat="45.7541956693988" lon="11.253641784830942"><ele>612.2</ele><time>2026-04-26T10:28:32.997Z</time></trkpt><trkpt lat="45.7540982460416" lon="11.253656622903124"><ele>609.6</ele><time>2026-04-26T10:28:33.997Z</time></trkpt><trkpt lat="45.753997672229275" lon="11.253671391279845"><ele>607.0</ele><time>2026-04-26T10:28:34.997Z</time></trkpt><trkpt lat="45.75389409689242" lon="11.253670446928554"><ele>607.0</ele><time>2026-04-26T10:28:35.997Z</time></trkpt><trkpt lat="45.753788579131104" lon="11.253673643305454"><ele>607.0</ele><time>2026-04-26T10:28:36.997Z</time></trkpt><trkpt lat="45.75368240739345" lon="11.253661683260813"><ele>607.0</ele><time>2026-04-26T10:28:37.997Z</time></trkpt><trkpt lat="45.75357420428315" lon="11.253652274156648"><ele>607.0</ele><time>2026-04-26T10:28:38.997Z</time></trkpt><trkpt lat="45.7534683827793" lon="11.25363922160156"><ele>607.0</ele><time>2026-04-26T10:28:39.997Z</time></trkpt><trkpt lat="45.75336401359296" lon="11.253621095083236"><ele>604.8000000000001</ele><time>2026-04-26T10:28:40.997Z</time></trkpt><trkpt lat="45.753261245157596" lon="11.253602360878851"><ele>602.6</ele><time>2026-04-26T10:28:41.997Z</time></trkpt><trkpt lat="45.75316035042486" lon="11.253579778882179"><ele>600.4000000000001</ele><time>2026-04-26T10:28:42.997Z</time></trkpt><trkpt lat="45.75306617465369" lon="11.253568385563405"><ele>598.2</ele><time>2026-04-26T10:28:43.997Z</time></trkpt><trkpt lat="45.752984901719294" lon="11.253567064698784"><ele>596.0</ele><time>2026-04-26T10:28:44.997Z</time></trkpt><trkpt lat="45.752909170639064" lon="11.253605244258573"><ele>596.0</ele><time>2026-04-26T10:28:45.997Z</time></trkpt><trkpt lat="45.75282295350028" lon="11.25366363241316"><ele>596.0</ele><time>2026-04-26T10:28:46.997Z</time></trkpt><trkpt lat="45.75272566440483" lon="11.253727643219621"><ele>596.0</ele><time>2026-04-26T10:28:47.997Z</time></trkpt><trkpt lat="45.752628058119654" lon="11.253794886484679"><ele>596.0</ele><time>2026-04-26T10:28:48.997Z</time></trkpt><trkpt lat="45.75253241033652" lon="11.253858216907384"><ele>596.0</ele><time>2026-04-26T10:28:49.997Z</time></trkpt><trkpt lat="45.75243574022019" lon="11.253914949412428"><ele>595.0</ele><time>2026-04-26T10:28:50.997Z</time></trkpt><trkpt lat="45.75233329867355" lon="11.253938070973053"><ele>594.0</ele><time>2026-04-26T10:28:51.997Z</time></trkpt><trkpt lat="45.75222374925729" lon="11.253930166213362"><ele>593.0</ele><time>2026-04-26T10:28:52.997Z</time></trkpt><trkpt lat="45.75210827868605" lon="11.253932811571811"><ele>592.0</ele><time>2026-04-26T10:28:53.997Z</time></trkpt><trkpt lat="45.751991210000746" lon="11.25392193313148"><ele>591.0</ele><time>2026-04-26T10:28:54.997Z</time></trkpt><trkpt lat="45.75187134114549" lon="11.253903252506094"><ele>588.5</ele><time>2026-04-26T10:28:55.997Z</time></trkpt><trkpt lat="45.751755417201515" lon="11.253865453118667"><ele>586.0</ele><time>2026-04-26T10:28:56.997Z</time></trkpt><trkpt lat="45.75164584385576" lon="11.253828557013335"><ele>583.5</ele><time>2026-04-26T10:28:57.997Z</time></trkpt><trkpt lat="45.75153893445055" lon="11.253781073372028"><ele>581.0</ele><time>2026-04-26T10:28:58.997Z</time></trkpt><trkpt lat="45.75143909281895" lon="11.253711268828795"><ele>581.0</ele><time>2026-04-26T10:28:59.997Z</time></trkpt><trkpt lat="45.75134109515739" lon="11.253621309433054"><ele>581.0</ele><time>2026-04-26T10:29:00.997Z</time></trkpt><trkpt lat="45.75123846652647" lon="11.253542525344804"><ele>581.0</ele><time>2026-04-26T10:29:01.997Z</time></trkpt><trkpt lat="45.75112472352371" lon="11.253493145314874"><ele>581.0</ele><time>2026-04-26T10:29:02.997Z</time></trkpt><trkpt lat="45.75101030665346" lon="11.25343586128971"><ele>581.0</ele><time>2026-04-26T10:29:03.997Z</time></trkpt><trkpt lat="45.750896593373206" lon="11.253386694916294"><ele>581.0</ele><time>2026-04-26T10:29:04.997Z</time></trkpt><trkpt lat="45.75078629699298" lon="11.253348047191404"><ele>581.0</ele><time>2026-04-26T10:29:05.997Z</time></trkpt><trkpt lat="45.75067915052246" lon="11.253307920483449"><ele>581.0</ele><time>2026-04-26T10:29:06.997Z</time></trkpt><trkpt lat="45.750570189878594" lon="11.253276251877564"><ele>581.0</ele><time>2026-04-26T10:29:07.997Z</time></trkpt><trkpt lat="45.75046082132584" lon="11.253253959353959"><ele>581.0</ele><time>2026-04-26T10:29:08.997Z</time></trkpt><trkpt lat="45.750353173769355" lon="11.253214519232364"><ele>581.0</ele><time>2026-04-26T10:29:09.997Z</time></trkpt><trkpt lat="45.75025047293012" lon="11.25320544130584"><ele>581.0</ele><time>2026-04-26T10:29:10.997Z</time></trkpt><trkpt lat="45.7501510544142" lon="11.253228262365878"><ele>581.0</ele><time>2026-04-26T10:29:11.997Z</time></trkpt><trkpt lat="45.75005796716533" lon="11.25328600399298"><ele>577.5</ele><time>2026-04-26T10:29:12.997Z</time></trkpt><trkpt lat="45.74996230781973" lon="11.25337237221144"><ele>574.0</ele><time>2026-04-26T10:29:13.997Z</time></trkpt><trkpt lat="45.749868471490345" lon="11.253487851907723"><ele>570.5</ele><time>2026-04-26T10:29:14.997Z</time></trkpt><trkpt lat="45.74979082721752" lon="11.253608288777196"><ele>567.0</ele><time>2026-04-26T10:29:15.997Z</time></trkpt><trkpt lat="45.7497186167141" lon="11.25372577768063"><ele>567.0</ele><time>2026-04-26T10:29:16.997Z</time></trkpt><trkpt lat="45.749639870088565" lon="11.253824135125006"><ele>567.0</ele><time>2026-04-26T10:29:17.997Z</time></trkpt><trkpt lat="45.74955856172237" lon="11.253918307414082"><ele>567.0</ele><time>2026-04-26T10:29:18.997Z</time></trkpt><trkpt lat="45.749479987432615" lon="11.254013437202602"><ele>567.0</ele><time>2026-04-26T10:29:19.997Z</time></trkpt><trkpt lat="45.749414280267686" lon="11.254124297859345"><ele>567.0</ele><time>2026-04-26T10:29:20.997Z</time></trkpt><trkpt lat="45.74935687859389" lon="11.254258524656697"><ele>563.5</ele><time>2026-04-26T10:29:21.997Z</time></trkpt><trkpt lat="45.74930575419891" lon="11.25440250327418"><ele>560.0</ele><time>2026-04-26T10:29:22.997Z</time></trkpt><trkpt lat="45.74928251396137" lon="11.25457209640462"><ele>556.5</ele><time>2026-04-26T10:29:23.997Z</time></trkpt><trkpt lat="45.749247196977315" lon="11.254732986295705"><ele>553.0</ele><time>2026-04-26T10:29:24.997Z</time></trkpt><trkpt lat="45.749217051177204" lon="11.254897896125593"><ele>553.0</ele><time>2026-04-26T10:29:25.997Z</time></trkpt><trkpt lat="45.74919192934042" lon="11.25506001602461"><ele>553.0</ele><time>2026-04-26T10:29:26.997Z</time></trkpt><trkpt lat="45.749172407614275" lon="11.255224333381827"><ele>553.0</ele><time>2026-04-26T10:29:27.997Z</time></trkpt><trkpt lat="45.749169949867515" lon="11.255390367034975"><ele>553.0</ele><time>2026-04-26T10:29:28.997Z</time></trkpt><trkpt lat="45.749174657565774" lon="11.25555356983681"><ele>552.5</ele><time>2026-04-26T10:29:29.997Z</time></trkpt><trkpt lat="45.749189746551416" lon="11.255722681918245"><ele>552.0</ele><time>2026-04-26T10:29:30.997Z</time></trkpt><trkpt lat="45.749197861478514" lon="11.25589756031976"><ele>551.5</ele><time>2026-04-26T10:29:31.997Z</time></trkpt><trkpt lat="45.74918135644694" lon="11.256073308367464"><ele>551.0</ele><time>2026-04-26T10:29:32.997Z</time></trkpt><trkpt lat="45.749131918852015" lon="11.256237218557198"><ele>551.0</ele><time>2026-04-26T10:29:33.997Z</time></trkpt><trkpt lat="45.749075224476556" lon="11.256393752935505"><ele>551.0</ele><time>2026-04-26T10:29:34.997Z</time></trkpt><trkpt lat="45.74902116617887" lon="11.256546279409982"><ele>551.0</ele><time>2026-04-26T10:29:35.997Z</time></trkpt><trkpt lat="45.748975291916395" lon="11.256695038583043"><ele>551.0</ele><time>2026-04-26T10:29:36.997Z</time></trkpt><trkpt lat="45.748928468888515" lon="11.256829202122269"><ele>550.8</ele><time>2026-04-26T10:29:37.997Z</time></trkpt><trkpt lat="45.74888915624719" lon="11.256955754926357"><ele>550.6</ele><time>2026-04-26T10:29:38.997Z</time></trkpt><trkpt lat="45.74885243197428" lon="11.257078468865105"><ele>550.4</ele><time>2026-04-26T10:29:39.996Z</time></trkpt><trkpt lat="45.74881633743872" lon="11.257200839089247"><ele>550.2</ele><time>2026-04-26T10:29:40.996Z</time></trkpt><trkpt lat="45.74878508564685" lon="11.257322600431502"><ele>550.0</ele><time>2026-04-26T10:29:41.996Z</time></trkpt><trkpt lat="45.748754177371815" lon="11.257446466975505"><ele>550.8</ele><time>2026-04-26T10:29:42.996Z</time></trkpt><trkpt lat="45.74872962566105" lon="11.257579840683343"><ele>551.6</ele><time>2026-04-26T10:29:43.996Z</time></trkpt><trkpt lat="45.74870502621607" lon="11.25772158209598"><ele>552.4</ele><time>2026-04-26T10:29:44.996Z</time></trkpt><trkpt lat="45.74866791945095" lon="11.257857804625292"><ele>553.2</ele><time>2026-04-26T10:29:45.996Z</time></trkpt><trkpt lat="45.748612525325356" lon="11.25799151048812"><ele>554.0</ele><time>2026-04-26T10:29:46.996Z</time></trkpt><trkpt lat="45.748533734905415" lon="11.258110182186948"><ele>549.75</ele><time>2026-04-26T10:29:47.996Z</time></trkpt><trkpt lat="45.74844607750446" lon="11.258225637022523"><ele>545.5</ele><time>2026-04-26T10:29:48.996Z</time></trkpt><trkpt lat="45.74835819411783" lon="11.258352904861427"><ele>541.25</ele><time>2026-04-26T10:29:49.996Z</time></trkpt><trkpt lat="45.74827606419677" lon="11.258485978729393"><ele>537.0</ele><time>2026-04-26T10:29:50.996Z</time></trkpt><trkpt lat="45.74819093372898" lon="11.258604631513004"><ele>537.0</ele><time>2026-04-26T10:29:51.996Z</time></trkpt><trkpt lat="45.74810462760355" lon="11.258713996356231"><ele>537.0</ele><time>2026-04-26T10:29:52.996Z</time></trkpt><trkpt lat="45.74802451682078" lon="11.258819003894418"><ele>537.0</ele><time>2026-04-26T10:29:53.996Z</time></trkpt><trkpt lat="45.74795046130277" lon="11.25892762746872"><ele>537.0</ele><time>2026-04-26T10:29:54.996Z</time></trkpt><trkpt lat="45.74788476526391" lon="11.259041126741355"><ele>537.0</ele><time>2026-04-26T10:29:55.996Z</time></trkpt><trkpt lat="45.74782949450996" lon="11.259156428264935"><ele>538.0</ele><time>2026-04-26T10:29:56.996Z</time></trkpt><trkpt lat="45.747782685213075" lon="11.259270734377846"><ele>539.0</ele><time>2026-04-26T10:29:57.996Z</time></trkpt><trkpt lat="45.74775060599244" lon="11.259387510757998"><ele>540.0</ele><time>2026-04-26T10:29:58.996Z</time></trkpt><trkpt lat="45.747726575571605" lon="11.259500307885997"><ele>541.0</ele><time>2026-04-26T10:29:59.996Z</time></trkpt><trkpt lat="45.747693975064465" lon="11.259591843157317"><ele>542.0</ele><time>2026-04-26T10:30:00.996Z</time></trkpt><trkpt lat="45.74761720352772" lon="11.259681149790802"><ele>543.0</ele><time>2026-04-26T10:30:02.996Z</time></trkpt><trkpt lat="45.74762725019595" lon="11.259585996188632"><ele>543.0</ele><time>2026-04-26T10:30:06.996Z</time></trkpt><trkpt lat="45.74767115179301" lon="11.259469783472701"><ele>543.0</ele><time>2026-04-26T10:30:07.996Z</time></trkpt><trkpt lat="45.74770860704087" lon="11.259332678408434"><ele>543.0</ele><time>2026-04-26T10:30:08.996Z</time></trkpt><trkpt lat="45.747747753861894" lon="11.259211515999537"><ele>543.0</ele><time>2026-04-26T10:30:09.996Z</time></trkpt><trkpt lat="45.74777967922648" lon="11.25911672465516"><ele>543.0</ele><time>2026-04-26T10:30:10.996Z</time></trkpt><trkpt lat="45.747792457030286" lon="11.258977552049679"><ele>541.8</ele><time>2026-04-26T10:30:12.996Z</time></trkpt><trkpt lat="45.7477581336468" lon="11.258880487980049"><ele>540.5999999999999</ele><time>2026-04-26T10:30:14.996Z</time></trkpt><trkpt lat="45.747684848370234" lon="11.258936982278165"><ele>539.4000000000001</ele><time>2026-04-26T10:30:17.996Z</time></trkpt><trkpt lat="45.74761462118035" lon="11.25905174262277"><ele>538.2</ele><time>2026-04-26T10:30:18.996Z</time></trkpt><trkpt lat="45.74755288858587" lon="11.259168635004613"><ele>537.0</ele><time>2026-04-26T10:30:19.996Z</time></trkpt><trkpt lat="45.747486221745746" lon="11.259289895898238"><ele>532.75</ele><time>2026-04-26T10:30:20.996Z</time></trkpt><trkpt lat="45.747433159608036" lon="11.259453626394524"><ele>528.5</ele><time>2026-04-26T10:30:21.996Z</time></trkpt><trkpt lat="45.74740265477941" lon="11.259638123992165"><ele>524.25</ele><time>2026-04-26T10:30:22.996Z</time></trkpt><trkpt lat="45.74737176207926" lon="11.259815905519941"><ele>520.0</ele><time>2026-04-26T10:30:23.996Z</time></trkpt><trkpt lat="45.74735753669162" lon="11.259979824842354"><ele>520.0</ele><time>2026-04-26T10:30:24.996Z</time></trkpt><trkpt lat="45.74734876544278" lon="11.260146150231758"><ele>520.0</ele><time>2026-04-26T10:30:25.996Z</time></trkpt><trkpt lat="45.74731119330144" lon="11.260311415638876"><ele>520.0</ele><time>2026-04-26T10:30:26.996Z</time></trkpt><trkpt lat="45.747257254734606" lon="11.260458792908597"><ele>520.0</ele><time>2026-04-26T10:30:27.996Z</time></trkpt><trkpt lat="45.747189105741775" lon="11.260586675629726"><ele>521.6</ele><time>2026-04-26T10:30:28.996Z</time></trkpt><trkpt lat="45.74711693337927" lon="11.260711247415866"><ele>523.2</ele><time>2026-04-26T10:30:29.996Z</time></trkpt><trkpt lat="45.74705508220841" lon="11.260829728343552"><ele>524.8</ele><time>2026-04-26T10:30:30.996Z</time></trkpt><trkpt lat="45.74697904488319" lon="11.260943819282593"><ele>526.4</ele><time>2026-04-26T10:30:31.996Z</time></trkpt><trkpt lat="45.746923051326625" lon="11.261086286093562"><ele>528.0</ele><time>2026-04-26T10:30:32.996Z</time></trkpt><trkpt lat="45.74687368508563" lon="11.26121495119328"><ele>525.3333333333334</ele><time>2026-04-26T10:30:33.996Z</time></trkpt><trkpt lat="45.746820218960806" lon="11.261327939458015"><ele>522.6666666666666</ele><time>2026-04-26T10:30:34.996Z</time></trkpt><trkpt lat="45.74677041519464" lon="11.261439262099676"><ele>520.0</ele><time>2026-04-26T10:30:35.996Z</time></trkpt><trkpt lat="45.7467299357573" lon="11.261512825858937"><ele>517.3333333333333</ele><time>2026-04-26T10:30:36.996Z</time></trkpt><trkpt lat="45.74666993901047" lon="11.261425798223005"><ele>514.6666666666666</ele><time>2026-04-26T10:30:41.996Z</time></trkpt><trkpt lat="45.74662039537277" lon="11.26136165620202"><ele>512.0</ele><time>2026-04-26T10:30:42.996Z</time></trkpt><trkpt lat="45.74651325088365" lon="11.261293097942533"><ele>511.99999999999994</ele><time>2026-04-26T10:30:44.996Z</time></trkpt><trkpt lat="45.74645121826711" lon="11.261317349031387"><ele>512.0</ele><time>2026-04-26T10:30:45.996Z</time></trkpt><trkpt lat="45.746379482409786" lon="11.261383415251478"><ele>512.0</ele><time>2026-04-26T10:30:46.996Z</time></trkpt><trkpt lat="45.74631525541154" lon="11.261495744225709"><ele>512.0</ele><time>2026-04-26T10:30:47.996Z</time></trkpt><trkpt lat="45.74627009524574" lon="11.261621299137822"><ele>511.99999999999994</ele><time>2026-04-26T10:30:48.996Z</time></trkpt><trkpt lat="45.746242189557044" lon="11.261756578436122"><ele>512.0</ele><time>2026-04-26T10:30:49.996Z</time></trkpt><trkpt lat="45.74622011946826" lon="11.26187657340574"><ele>512.0</ele><time>2026-04-26T10:30:50.996Z</time></trkpt><trkpt lat="45.74620901981754" lon="11.262015212274546"><ele>512.0</ele><time>2026-04-26T10:30:51.996Z</time></trkpt><trkpt lat="45.74620352290119" lon="11.262159430257187"><ele>512.0</ele><time>2026-04-26T10:30:52.996Z</time></trkpt><trkpt lat="45.74619961309476" lon="11.262298851403223"><ele>512.0</ele><time>2026-04-26T10:30:53.996Z</time></trkpt><trkpt lat="45.746178087887024" lon="11.26242242687397"><ele>512.0</ele><time>2026-04-26T10:30:54.996Z</time></trkpt><trkpt lat="45.74607463615374" lon="11.26259449679431"><ele>507.0</ele><time>2026-04-26T10:30:56.995Z</time></trkpt><trkpt lat="45.746010667321876" lon="11.26270897331702"><ele>502.00000000000006</ele><time>2026-04-26T10:30:57.995Z</time></trkpt><trkpt lat="45.74596249514315" lon="11.262828452492984"><ele>497.00000000000006</ele><time>2026-04-26T10:30:58.995Z</time></trkpt><trkpt lat="45.745898522641056" lon="11.262985295632856"><ele>492.0</ele><time>2026-04-26T10:30:59.995Z</time></trkpt><trkpt lat="45.74584002943482" lon="11.26311352044566"><ele>487.0</ele><time>2026-04-26T10:31:00.995Z</time></trkpt><trkpt lat="45.74577853907411" lon="11.263248926001172"><ele>487.0</ele><time>2026-04-26T10:31:01.995Z</time></trkpt><trkpt lat="45.745710576250325" lon="11.263403058290564"><ele>487.00000000000006</ele><time>2026-04-26T10:31:02.995Z</time></trkpt><trkpt lat="45.7456644859953" lon="11.263549456497053"><ele>487.00000000000006</ele><time>2026-04-26T10:31:03.995Z</time></trkpt><trkpt lat="45.74562788730301" lon="11.263687603091169"><ele>487.0</ele><time>2026-04-26T10:31:04.995Z</time></trkpt><trkpt lat="45.74559984034061" lon="11.263816859780148"><ele>487.0</ele><time>2026-04-26T10:31:05.995Z</time></trkpt><trkpt lat="45.745583306064" lon="11.263943069124863"><ele>488.40000000000003</ele><time>2026-04-26T10:31:06.995Z</time></trkpt><trkpt lat="45.74557315765351" lon="11.264086012634923"><ele>489.80000000000007</ele><time>2026-04-26T10:31:07.995Z</time></trkpt><trkpt lat="45.74553112624765" lon="11.26423136238174"><ele>491.2</ele><time>2026-04-26T10:31:08.995Z</time></trkpt><trkpt lat="45.74547239376234" lon="11.264368877411364"><ele>492.6</ele><time>2026-04-26T10:31:09.995Z</time></trkpt><trkpt lat="45.745410041390755" lon="11.264505590666614"><ele>494.0</ele><time>2026-04-26T10:31:10.995Z</time></trkpt><trkpt lat="45.74534544988738" lon="11.264634859987801"><ele>494.0</ele><time>2026-04-26T10:31:11.995Z</time></trkpt><trkpt lat="45.74527501905243" lon="11.264763271278579"><ele>494.0</ele><time>2026-04-26T10:31:12.995Z</time></trkpt><trkpt lat="45.745191142017184" lon="11.264886138583043"><ele>494.0</ele><time>2026-04-26T10:31:13.995Z</time></trkpt><trkpt lat="45.745091741401204" lon="11.264975884247733"><ele>494.0</ele><time>2026-04-26T10:31:14.995Z</time></trkpt><trkpt lat="45.74497921914535" lon="11.265044944502604"><ele>491.0</ele><time>2026-04-26T10:31:15.995Z</time></trkpt><trkpt lat="45.74486820670375" lon="11.265103389058943"><ele>488.0</ele><time>2026-04-26T10:31:16.995Z</time></trkpt><trkpt lat="45.744765138231344" lon="11.265158816662039"><ele>485.0</ele><time>2026-04-26T10:31:17.995Z</time></trkpt><trkpt lat="45.744667286295176" lon="11.265219862915057"><ele>482.0</ele><time>2026-04-26T10:31:18.995Z</time></trkpt><trkpt lat="45.744587542868494" lon="11.26527248485626"><ele>479.0</ele><time>2026-04-26T10:31:19.995Z</time></trkpt><trkpt lat="45.74450275786402" lon="11.26535556355914"><ele>479.0</ele><time>2026-04-26T10:31:20.995Z</time></trkpt><trkpt lat="45.74440946277198" lon="11.265444202495855"><ele>479.0</ele><time>2026-04-26T10:31:21.995Z</time></trkpt><trkpt lat="45.744312939998245" lon="11.265518180039079"><ele>479.0</ele><time>2026-04-26T10:31:22.995Z</time></trkpt><trkpt lat="45.744214108001806" lon="11.265584137519829"><ele>479.0</ele><time>2026-04-26T10:31:23.995Z</time></trkpt><trkpt lat="45.744110729474855" lon="11.265645687416088"><ele>479.0</ele><time>2026-04-26T10:31:24.995Z</time></trkpt><trkpt lat="45.744012325240845" lon="11.265703901373158"><ele>478.2</ele><time>2026-04-26T10:31:25.995Z</time></trkpt><trkpt lat="45.743905109563634" lon="11.265751074792716"><ele>477.4</ele><time>2026-04-26T10:31:26.995Z</time></trkpt><trkpt lat="45.74379584948318" lon="11.265806194160367"><ele>476.6</ele><time>2026-04-26T10:31:27.995Z</time></trkpt><trkpt lat="45.74369079171898" lon="11.26585720796274"><ele>475.8</ele><time>2026-04-26T10:31:28.995Z</time></trkpt><trkpt lat="45.74358992006545" lon="11.265912128865798"><ele>475.0</ele><time>2026-04-26T10:31:29.995Z</time></trkpt><trkpt lat="45.74351226995172" lon="11.266004562323028"><ele>474.1666666666667</ele><time>2026-04-26T10:31:30.995Z</time></trkpt><trkpt lat="45.743451047792774" lon="11.26611524125781"><ele>473.33333333333337</ele><time>2026-04-26T10:31:31.995Z</time></trkpt><trkpt lat="45.743401224190336" lon="11.266217524335485"><ele>472.5</ele><time>2026-04-26T10:31:32.995Z</time></trkpt><trkpt lat="45.74336700582163" lon="11.266328969955053"><ele>471.66666666666663</ele><time>2026-04-26T10:31:33.995Z</time></trkpt><trkpt lat="45.74332822899879" lon="11.266429047974572"><ele>470.8333333333333</ele><time>2026-04-26T10:31:34.995Z</time></trkpt><trkpt lat="45.74328171546038" lon="11.266520421006504"><ele>470.0</ele><time>2026-04-26T10:31:35.995Z</time></trkpt><trkpt lat="45.74322388952695" lon="11.26657657283481"><ele>469.99999999999994</ele><time>2026-04-26T10:31:36.995Z</time></trkpt><trkpt lat="45.743154791582676" lon="11.266597404315691"><ele>470.0</ele><time>2026-04-26T10:31:37.995Z</time></trkpt><trkpt lat="45.74308641444908" lon="11.266573088054294"><ele>470.0</ele><time>2026-04-26T10:31:38.995Z</time></trkpt><trkpt lat="45.743028686483115" lon="11.266489964096214"><ele>470.0</ele><time>2026-04-26T10:31:39.995Z</time></trkpt><trkpt lat="45.742979588295825" lon="11.266386226655342"><ele>469.99999999999994</ele><time>2026-04-26T10:31:40.995Z</time></trkpt><trkpt lat="45.742924185627416" lon="11.26629829745439"><ele>470.0</ele><time>2026-04-26T10:31:41.995Z</time></trkpt><trkpt lat="45.74286949882795" lon="11.266219815965643"><ele>467.6</ele><time>2026-04-26T10:31:42.995Z</time></trkpt><trkpt lat="45.74281019564708" lon="11.266151956299485"><ele>465.2</ele><time>2026-04-26T10:31:43.995Z</time></trkpt><trkpt lat="45.742747184642674" lon="11.266118394688764"><ele>462.79999999999995</ele><time>2026-04-26T10:31:44.995Z</time></trkpt><trkpt lat="45.742629786866445" lon="11.266184424606019"><ele>460.4</ele><time>2026-04-26T10:31:46.995Z</time></trkpt><trkpt lat="45.74255096375747" lon="11.266245548820535"><ele>458.0</ele><time>2026-04-26T10:31:47.995Z</time></trkpt><trkpt lat="45.74246405558576" lon="11.266299010212206"><ele>458.75</ele><time>2026-04-26T10:31:48.995Z</time></trkpt><trkpt lat="45.74236623280789" lon="11.266352843157932"><ele>459.5</ele><time>2026-04-26T10:31:49.995Z</time></trkpt><trkpt lat="45.74225694212846" lon="11.266405701507354"><ele>460.25</ele><time>2026-04-26T10:31:50.995Z</time></trkpt><trkpt lat="45.74214332513997" lon="11.26647069385734"><ele>461.0</ele><time>2026-04-26T10:31:51.995Z</time></trkpt><trkpt lat="45.74203512538612" lon="11.266537057510707"><ele>461.0</ele><time>2026-04-26T10:31:52.995Z</time></trkpt><trkpt lat="45.7419309576711" lon="11.266605472386622"><ele>461.0</ele><time>2026-04-26T10:31:53.995Z</time></trkpt><trkpt lat="45.74182964771705" lon="11.266682934542047"><ele>461.0</ele><time>2026-04-26T10:31:54.995Z</time></trkpt><trkpt lat="45.74172898898794" lon="11.266754464667466"><ele>461.0</ele><time>2026-04-26T10:31:55.995Z</time></trkpt><trkpt lat="45.741630874458245" lon="11.266820338634899"><ele>456.8</ele><time>2026-04-26T10:31:56.995Z</time></trkpt><trkpt lat="45.741536404195216" lon="11.266886007210978"><ele>452.6</ele><time>2026-04-26T10:31:57.995Z</time></trkpt><trkpt lat="45.74144209312019" lon="11.266931498689617"><ele>448.4</ele><time>2026-04-26T10:31:58.995Z</time></trkpt><trkpt lat="45.741350179591414" lon="11.266950711784299"><ele>444.2</ele><time>2026-04-26T10:31:59.995Z</time></trkpt><trkpt lat="45.741264228156716" lon="11.266963391273507"><ele>440.0</ele><time>2026-04-26T10:32:00.995Z</time></trkpt><trkpt lat="45.74118458095202" lon="11.26696939308857"><ele>439.99999999999994</ele><time>2026-04-26T10:32:01.995Z</time></trkpt><trkpt lat="45.741111768809255" lon="11.267004192249594"><ele>440.0</ele><time>2026-04-26T10:32:02.995Z</time></trkpt><trkpt lat="45.74104741730655" lon="11.267074331126768"><ele>440.0</ele><time>2026-04-26T10:32:03.995Z</time></trkpt><trkpt lat="45.74099008921552" lon="11.267161041002804"><ele>440.0</ele><time>2026-04-26T10:32:04.995Z</time></trkpt><trkpt lat="45.74093755881197" lon="11.267247002608945"><ele>439.99999999999994</ele><time>2026-04-26T10:32:05.995Z</time></trkpt><trkpt lat="45.740889955800924" lon="11.26733496014387"><ele>440.0</ele><time>2026-04-26T10:32:06.995Z</time></trkpt><trkpt lat="45.74083710281719" lon="11.267409002883458"><ele>439.66666666666663</ele><time>2026-04-26T10:32:07.997Z</time></trkpt><trkpt lat="45.740783738859406" lon="11.267474113560368"><ele>439.3333333333333</ele><time>2026-04-26T10:32:08.997Z</time></trkpt><trkpt lat="45.74073212737017" lon="11.267537577779954"><ele>439.0</ele><time>2026-04-26T10:32:09.997Z</time></trkpt><trkpt lat="45.74068129298124" lon="11.267597857449962"><ele>438.66666666666663</ele><time>2026-04-26T10:32:10.997Z</time></trkpt><trkpt lat="45.74060433149243" lon="11.267717958646323"><ele>438.3333333333333</ele><time>2026-04-26T10:32:12.997Z</time></trkpt><trkpt lat="45.740535358245644" lon="11.267794823591876"><ele>438.0</ele><time>2026-04-26T10:32:14.998Z</time></trkpt><trkpt lat="45.740469014971836" lon="11.267755666839022"><ele>438.0</ele><time>2026-04-26T10:32:17.998Z</time></trkpt><trkpt lat="45.740493633893394" lon="11.267618004370666"><ele>438.0</ele><time>2026-04-26T10:32:19.998Z</time></trkpt><trkpt lat="45.74051793566092" lon="11.267521591462366"><ele>438.0</ele><time>2026-04-26T10:32:20.999Z</time></trkpt><trkpt lat="45.7405524716218" lon="11.267419318067912"><ele>438.0</ele><time>2026-04-26T10:32:21.999Z</time></trkpt><trkpt lat="45.740585676803086" lon="11.267304878288725"><ele>438.0</ele><time>2026-04-26T10:32:22.999Z</time></trkpt><trkpt lat="45.74061406822125" lon="11.267175083354035"><ele>438.0</ele><time>2026-04-26T10:32:23.999Z</time></trkpt><trkpt lat="45.740646861524155" lon="11.267040163370462"><ele>435.4</ele><time>2026-04-26T10:32:24.999Z</time></trkpt><trkpt lat="45.74068522856614" lon="11.26690660868013"><ele>432.79999999999995</ele><time>2026-04-26T10:32:25.999Z</time></trkpt><trkpt lat="45.74072079412519" lon="11.266777382458605"><ele>430.2</ele><time>2026-04-26T10:32:26.999Z</time></trkpt><trkpt lat="45.74076473721674" lon="11.266658498355522"><ele>427.6</ele><time>2026-04-26T10:32:27.999Z</time></trkpt><trkpt lat="45.74082197546301" lon="11.266548794700308"><ele>425.0</ele><time>2026-04-26T10:32:28.999Z</time></trkpt><trkpt lat="45.7408939022038" lon="11.266445687351405"><ele>424.8</ele><time>2026-04-26T10:32:29.999Z</time></trkpt><trkpt lat="45.74097990560519" lon="11.266351943086788"><ele>424.6</ele><time>2026-04-26T10:32:30.999Z</time></trkpt><trkpt lat="45.74107117409912" lon="11.266258004051574"><ele>424.4</ele><time>2026-04-26T10:32:31.999Z</time></trkpt><trkpt lat="45.741165397394624" lon="11.266165610980874"><ele>424.2</ele><time>2026-04-26T10:32:32.999Z</time></trkpt><trkpt lat="45.74125832792079" lon="11.266072424774409"><ele>424.0</ele><time>2026-04-26T10:32:33.999Z</time></trkpt><trkpt lat="45.741347245726516" lon="11.265977469417471"><ele>424.0</ele><time>2026-04-26T10:32:34.999Z</time></trkpt><trkpt lat="45.74143526125497" lon="11.265883423746963"><ele>424.0</ele><time>2026-04-26T10:32:35.999Z</time></trkpt><trkpt lat="45.741519139063875" lon="11.265779523334654"><ele>424.0</ele><time>2026-04-26T10:32:36.999Z</time></trkpt><trkpt lat="45.7415812768082" lon="11.265643197184799"><ele>424.0</ele><time>2026-04-26T10:32:38Z</time></trkpt><trkpt lat="45.741637494342825" lon="11.265494850430537"><ele>425.25</ele><time>2026-04-26T10:32:39Z</time></trkpt><trkpt lat="45.74169705032124" lon="11.26534516662399"><ele>426.5</ele><time>2026-04-26T10:32:40Z</time></trkpt><trkpt lat="45.741760385425174" lon="11.265193983782169"><ele>427.75</ele><time>2026-04-26T10:32:41Z</time></trkpt><trkpt lat="45.741829431876226" lon="11.26504549883685"><ele>429.0</ele><time>2026-04-26T10:32:42Z</time></trkpt><trkpt lat="45.741905244277405" lon="11.26490262594138"><ele>425.0</ele><time>2026-04-26T10:32:43Z</time></trkpt><trkpt lat="45.74198291593901" lon="11.264764615271462"><ele>421.0</ele><time>2026-04-26T10:32:44Z</time></trkpt><trkpt lat="45.74206509067079" lon="11.264635394325424"><ele>417.0</ele><time>2026-04-26T10:32:45Z</time></trkpt><trkpt lat="45.742143247976394" lon="11.264502377995846"><ele>413.0</ele><time>2026-04-26T10:32:46Z</time></trkpt><trkpt lat="45.74222073003411" lon="11.264365277392423"><ele>413.0</ele><time>2026-04-26T10:32:47Z</time></trkpt><trkpt lat="45.74228454102895" lon="11.264209890054987"><ele>413.0</ele><time>2026-04-26T10:32:48Z</time></trkpt><trkpt lat="45.742350521123015" lon="11.264057010258355"><ele>413.0</ele><time>2026-04-26T10:32:49Z</time></trkpt><trkpt lat="45.742420602324295" lon="11.263916174621373"><ele>413.0</ele><time>2026-04-26T10:32:50Z</time></trkpt><trkpt lat="45.74248861023551" lon="11.263784634523939"><ele>413.49999999999994</ele><time>2026-04-26T10:32:51Z</time></trkpt><trkpt lat="45.742559432535955" lon="11.263668514575912"><ele>414.0</ele><time>2026-04-26T10:32:52Z</time></trkpt><trkpt lat="45.7426199977893" lon="11.263557035466176"><ele>414.5</ele><time>2026-04-26T10:32:53Z</time></trkpt><trkpt lat="45.74267402094469" lon="11.263452017890776"><ele>415.0</ele><time>2026-04-26T10:32:54Z</time></trkpt><trkpt lat="45.74272795506825" lon="11.26336596818097"><ele>415.49999999999994</ele><time>2026-04-26T10:32:55Z</time></trkpt><trkpt lat="45.74275791862684" lon="11.263281815558416"><ele>416.0</ele><time>2026-04-26T10:32:56Z</time></trkpt><trkpt lat="45.7427376586195" lon="11.263133013773011"><ele>412.20000000000005</ele><time>2026-04-26T10:32:58Z</time></trkpt><trkpt lat="45.74268282071118" lon="11.263088379082266"><ele>408.40000000000003</ele><time>2026-04-26T10:32:59Z</time></trkpt><trkpt lat="45.74255143137948" lon="11.263061177758603"><ele>404.6</ele><time>2026-04-26T10:33:01Z</time></trkpt><trkpt lat="45.742475200261346" lon="11.26312947507691"><ele>400.8</ele><time>2026-04-26T10:33:02Z</time></trkpt><trkpt lat="45.74236933161269" lon="11.263158599178073"><ele>397.0</ele><time>2026-04-26T10:33:03Z</time></trkpt><trkpt lat="45.74225604325141" lon="11.263170623000903"><ele>397.0</ele><time>2026-04-26T10:33:04Z</time></trkpt><trkpt lat="45.742129934576695" lon="11.26320003282481"><ele>397.0</ele><time>2026-04-26T10:33:05Z</time></trkpt><trkpt lat="45.74199681097699" lon="11.26327073846357"><ele>397.0</ele><time>2026-04-26T10:33:06Z</time></trkpt><trkpt lat="45.74186610575274" lon="11.263336446123997"><ele>397.0</ele><time>2026-04-26T10:33:07Z</time></trkpt><trkpt lat="45.74174970174863" lon="11.263425904442466"><ele>396.0</ele><time>2026-04-26T10:33:08Z</time></trkpt><trkpt lat="45.74164076346084" lon="11.263537335809358"><ele>395.0</ele><time>2026-04-26T10:33:09Z</time></trkpt><trkpt lat="45.74153561493039" lon="11.263671648520278"><ele>394.0</ele><time>2026-04-26T10:33:10Z</time></trkpt><trkpt lat="45.741429649232984" lon="11.263815521240199"><ele>393.0</ele><time>2026-04-26T10:33:11Z</time></trkpt><trkpt lat="45.74131785348092" lon="11.263952289387898"><ele>393.0</ele><time>2026-04-26T10:33:12Z</time></trkpt><trkpt lat="45.741186885812816" lon="11.264053368811885"><ele>393.0</ele><time>2026-04-26T10:33:13Z</time></trkpt><trkpt lat="45.74105675931286" lon="11.264143574197778"><ele>393.0</ele><time>2026-04-26T10:33:14Z</time></trkpt><trkpt lat="45.740933318628336" lon="11.264242907596238"><ele>393.0</ele><time>2026-04-26T10:33:15Z</time></trkpt><trkpt lat="45.74081001037764" lon="11.264367048218533"><ele>383.6666666666667</ele><time>2026-04-26T10:33:16Z</time></trkpt><trkpt lat="45.74068482481431" lon="11.264494624604422"><ele>374.33333333333337</ele><time>2026-04-26T10:33:17Z</time></trkpt><trkpt lat="45.74055215681243" lon="11.264611912528293"><ele>365.0</ele><time>2026-04-26T10:33:17.999Z</time></trkpt><trkpt lat="45.74040658016675" lon="11.264700967662938"><ele>365.0</ele><time>2026-04-26T10:33:18.999Z</time></trkpt><trkpt lat="45.74026143524538" lon="11.264766051799967"><ele>365.0</ele><time>2026-04-26T10:33:19.999Z</time></trkpt><trkpt lat="45.74011746308684" lon="11.264830749244215"><ele>365.0</ele><time>2026-04-26T10:33:20.999Z</time></trkpt><trkpt lat="45.7399768372582" lon="11.26490109661253"><ele>365.5</ele><time>2026-04-26T10:33:21.999Z</time></trkpt><trkpt lat="45.739837677240075" lon="11.26497244211684"><ele>366.0</ele><time>2026-04-26T10:33:22.999Z</time></trkpt><trkpt lat="45.739714775568665" lon="11.265063139738732"><ele>366.5</ele><time>2026-04-26T10:33:23.999Z</time></trkpt><trkpt lat="45.73960515196084" lon="11.26515782072164"><ele>367.0</ele><time>2026-04-26T10:33:24.999Z</time></trkpt><trkpt lat="45.739513888263836" lon="11.265270700686429"><ele>367.0</ele><time>2026-04-26T10:33:25.999Z</time></trkpt><trkpt lat="45.73944358376968" lon="11.265404338570349"><ele>367.0</ele><time>2026-04-26T10:33:26.999Z</time></trkpt><trkpt lat="45.739389434607524" lon="11.26554141376156"><ele>367.0</ele><time>2026-04-26T10:33:27.999Z</time></trkpt><trkpt lat="45.73932570561865" lon="11.26566711061704"><ele>367.0</ele><time>2026-04-26T10:33:28.999Z</time></trkpt><trkpt lat="45.73924523782188" lon="11.265765854727551"><ele>367.0</ele><time>2026-04-26T10:33:29.999Z</time></trkpt><trkpt lat="45.73914309329774" lon="11.265813182576773"><ele>365.25</ele><time>2026-04-26T10:33:30.999Z</time></trkpt><trkpt lat="45.739030854621845" lon="11.265846996075494"><ele>363.5</ele><time>2026-04-26T10:33:31.999Z</time></trkpt><trkpt lat="45.73892112836668" lon="11.26590387296849"><ele>361.75</ele><time>2026-04-26T10:33:32.999Z</time></trkpt><trkpt lat="45.73881143359332" lon="11.265977098694608"><ele>360.0</ele><time>2026-04-26T10:33:33.999Z</time></trkpt><trkpt lat="45.738695487543865" lon="11.26605958391236"><ele>360.0</ele><time>2026-04-26T10:33:34.999Z</time></trkpt><trkpt lat="45.738566323329295" lon="11.266091912529243"><ele>360.0</ele><time>2026-04-26T10:33:35.999Z</time></trkpt><trkpt lat="45.73843876193235" lon="11.266121288869886"><ele>360.0</ele><time>2026-04-26T10:33:36.999Z</time></trkpt><trkpt lat="45.73832081182232" lon="11.266162180739723"><ele>360.0</ele><time>2026-04-26T10:33:37.999Z</time></trkpt><trkpt lat="45.73821735562188" lon="11.266236369113441"><ele>359.5</ele><time>2026-04-26T10:33:38.999Z</time></trkpt><trkpt lat="45.73813388858127" lon="11.266358917631203"><ele>359.0</ele><time>2026-04-26T10:33:39.999Z</time></trkpt><trkpt lat="45.738048396451326" lon="11.266488983912538"><ele>358.5</ele><time>2026-04-26T10:33:40.999Z</time></trkpt><trkpt lat="45.737957178449456" lon="11.266618902188219"><ele>358.0</ele><time>2026-04-26T10:33:41.999Z</time></trkpt><trkpt lat="45.73786027088613" lon="11.266738661893102"><ele>358.0</ele><time>2026-04-26T10:33:42.999Z</time></trkpt><trkpt lat="45.737758708703275" lon="11.266845637164568"><ele>358.0</ele><time>2026-04-26T10:33:43.999Z</time></trkpt><trkpt lat="45.73765969609743" lon="11.266949071633075"><ele>358.0</ele><time>2026-04-26T10:33:44.999Z</time></trkpt><trkpt lat="45.73756443854369" lon="11.267055349393349"><ele>358.0</ele><time>2026-04-26T10:33:45.999Z</time></trkpt><trkpt lat="45.73747117867452" lon="11.267142648977615"><ele>356.5</ele><time>2026-04-26T10:33:46.999Z</time></trkpt><trkpt lat="45.73738487859798" lon="11.267212493168495"><ele>355.0</ele><time>2026-04-26T10:33:47.999Z</time></trkpt><trkpt lat="45.73731286733313" lon="11.267261297105522"><ele>353.5</ele><time>2026-04-26T10:33:48.999Z</time></trkpt><trkpt lat="45.73721904297405" lon="11.267331676329713"><ele>352.0</ele><time>2026-04-26T10:33:50.999Z</time></trkpt><trkpt lat="45.737161973824236" lon="11.26737785688667"><ele>350.5</ele><time>2026-04-26T10:33:52.999Z</time></trkpt><trkpt lat="45.73708646308845" lon="11.267418690185034"><ele>349.0</ele><time>2026-04-26T10:33:55.999Z</time></trkpt><trkpt lat="45.737055334685124" lon="11.26733514437239"><ele>348.0</ele><time>2026-04-26T10:33:58.999Z</time></trkpt><trkpt lat="45.737143084459696" lon="11.267190358184665"><ele>347.0</ele><time>2026-04-26T10:34:00.999Z</time></trkpt><trkpt lat="45.737195474036106" lon="11.267089463890873"><ele>346.0</ele><time>2026-04-26T10:34:01.999Z</time></trkpt><trkpt lat="45.73725731333724" lon="11.266967167336267"><ele>345.0</ele><time>2026-04-26T10:34:02.999Z</time></trkpt><trkpt lat="45.737327092958836" lon="11.266830990491595"><ele>344.0</ele><time>2026-04-26T10:34:03.999Z</time></trkpt><trkpt lat="45.73739959398121" lon="11.266686452881324"><ele>344.0</ele><time>2026-04-26T10:34:04.999Z</time></trkpt><trkpt lat="45.737478797056305" lon="11.266536303996226"><ele>344.0</ele><time>2026-04-26T10:34:05.999Z</time></trkpt><trkpt lat="45.73756318820617" lon="11.26638160511701"><ele>344.0</ele><time>2026-04-26T10:34:06.999Z</time></trkpt><trkpt lat="45.737648026679814" lon="11.266228634135839"><ele>344.0</ele><time>2026-04-26T10:34:07.999Z</time></trkpt><trkpt lat="45.73774010071376" lon="11.266085563819004"><ele>343.75</ele><time>2026-04-26T10:34:08.999Z</time></trkpt><trkpt lat="45.737833869841744" lon="11.265954354090166"><ele>343.5</ele><time>2026-04-26T10:34:09.999Z</time></trkpt><trkpt lat="45.737935784358115" lon="11.265847181888363"><ele>343.25</ele><time>2026-04-26T10:34:10.999Z</time></trkpt><trkpt lat="45.7380512022882" lon="11.265765208767595"><ele>343.0</ele><time>2026-04-26T10:34:11.999Z</time></trkpt><trkpt lat="45.738171287145086" lon="11.265695830601837"><ele>343.0</ele><time>2026-04-26T10:34:12.999Z</time></trkpt><trkpt lat="45.73829642972687" lon="11.265658975718425"><ele>343.0</ele><time>2026-04-26T10:34:13.999Z</time></trkpt><trkpt lat="45.73842424708942" lon="11.2656439133494"><ele>343.0</ele><time>2026-04-26T10:34:14.999Z</time></trkpt><trkpt lat="45.73855197567792" lon="11.265637765495757"><ele>343.0</ele><time>2026-04-26T10:34:15.999Z</time></trkpt><trkpt lat="45.73867760774326" lon="11.265595810805388"><ele>343.0</ele><time>2026-04-26T10:34:16.999Z</time></trkpt><trkpt lat="45.73880083207932" lon="11.265520518046861"><ele>343.0</ele><time>2026-04-26T10:34:17.999Z</time></trkpt><trkpt lat="45.738916820208075" lon="11.265430195735114"><ele>343.0</ele><time>2026-04-26T10:34:18.999Z</time></trkpt><trkpt lat="45.73902653824862" lon="11.265325883760973"><ele>343.0</ele><time>2026-04-26T10:34:19.999Z</time></trkpt><trkpt lat="45.73913402208236" lon="11.265218111229293"><ele>343.0</ele><time>2026-04-26T10:34:20.999Z</time></trkpt><trkpt lat="45.739234224425545" lon="11.26510508088282"><ele>343.0</ele><time>2026-04-26T10:34:21.999Z</time></trkpt><trkpt lat="45.73931426064678" lon="11.264993736179072"><ele>343.0</ele><time>2026-04-26T10:34:22.999Z</time></trkpt><trkpt lat="45.739368616583384" lon="11.26486674272128"><ele>343.0</ele><time>2026-04-26T10:34:23.999Z</time></trkpt><trkpt lat="45.73940979730471" lon="11.264713699008128"><ele>344.0</ele><time>2026-04-26T10:34:24.999Z</time></trkpt><trkpt lat="45.73943610585068" lon="11.264537477350515"><ele>345.0</ele><time>2026-04-26T10:34:25.999Z</time></trkpt><trkpt lat="45.73946066717028" lon="11.264360201758958"><ele>346.0</ele><time>2026-04-26T10:34:26.999Z</time></trkpt><trkpt lat="45.73948504213135" lon="11.264186391538463"><ele>347.0</ele><time>2026-04-26T10:34:27.999Z</time></trkpt><trkpt lat="45.73950976105267" lon="11.264016786538903"><ele>345.40000000000003</ele><time>2026-04-26T10:34:28.999Z</time></trkpt><trkpt lat="45.73953609087517" lon="11.263853736799273"><ele>343.8</ele><time>2026-04-26T10:34:29.999Z</time></trkpt><trkpt lat="45.739564717787275" lon="11.26369740487026"><ele>342.2</ele><time>2026-04-26T10:34:30.999Z</time></trkpt><trkpt lat="45.73959700270656" lon="11.263555060403538"><ele>340.6</ele><time>2026-04-26T10:34:31.999Z</time></trkpt><trkpt lat="45.73963328908716" lon="11.263427980371045"><ele>339.0</ele><time>2026-04-26T10:34:32.999Z</time></trkpt><trkpt lat="45.73966711157987" lon="11.263310629016248"><ele>339.0</ele><time>2026-04-26T10:34:33.999Z</time></trkpt><trkpt lat="45.73970324699094" lon="11.263217490834721"><ele>339.0</ele><time>2026-04-26T10:34:34.999Z</time></trkpt><trkpt lat="45.739750855328055" lon="11.263101406282193"><ele>342.0</ele><time>2026-04-26T10:34:36.998Z</time></trkpt><trkpt lat="45.73977800206794" lon="11.262985102081942"><ele>342.0</ele><time>2026-04-26T10:34:44.998Z</time></trkpt><trkpt lat="45.73979167418585" lon="11.26286167628994"><ele>342.0</ele><time>2026-04-26T10:34:47.998Z</time></trkpt><trkpt lat="45.739730929440746" lon="11.262806946228064"><ele>342.0</ele><time>2026-04-26T10:34:51.998Z</time></trkpt></trkseg><trkseg><trkpt lat="45.73962041714299" lon="11.262663580874854"><ele>342.0</ele><time>2026-04-26T11:43:06.146Z</time></trkpt><trkpt lat="45.73972246367306" lon="11.262733750127081"><ele>342.0</ele><time>2026-04-26T11:43:08.146Z</time></trkpt><trkpt lat="45.73977261593891" lon="11.262826417619191"><ele>342.0</ele><time>2026-04-26T11:43:19.963Z</time></trkpt><trkpt lat="45.73975744742439" lon="11.262920640092318"><ele>342.0</ele><time>2026-04-26T11:44:55.002Z</time></trkpt><trkpt lat="45.73972506646368" lon="11.263018908575111"><ele>342.0</ele><time>2026-04-26T11:45:02.002Z</time></trkpt><trkpt lat="45.739734910123865" lon="11.263115184789607"><ele>342.0</ele><time>2026-04-26T11:47:54Z</time></trkpt><trkpt lat="45.739701937960696" lon="11.263209104485355"><ele>341.5</ele><time>2026-04-26T11:47:56Z</time></trkpt><trkpt lat="45.73965793455328" lon="11.263350840765069"><ele>341.0</ele><time>2026-04-26T11:47:58Z</time></trkpt><trkpt lat="45.73962810291427" lon="11.263431464064697"><ele>340.5</ele><time>2026-04-26T11:47:59Z</time></trkpt><trkpt lat="45.73959708877739" lon="11.263526357594609"><ele>340.0</ele><time>2026-04-26T11:48:00Z</time></trkpt><trkpt lat="45.739566364393404" lon="11.263628925577194"><ele>339.5</ele><time>2026-04-26T11:48:01Z</time></trkpt><trkpt lat="45.73953433874452" lon="11.263744191675489"><ele>339.0</ele><time>2026-04-26T11:48:02Z</time></trkpt><trkpt lat="45.73950807947923" lon="11.263858922404504"><ele>339.0</ele><time>2026-04-26T11:48:03Z</time></trkpt><trkpt lat="45.73948381108274" lon="11.263979249347047"><ele>339.0</ele><time>2026-04-26T11:48:04Z</time></trkpt><trkpt lat="45.73945436133935" lon="11.264106463576903"><ele>339.0</ele><time>2026-04-26T11:48:05Z</time></trkpt><trkpt lat="45.73943114773639" lon="11.264234145426192"><ele>339.0</ele><time>2026-04-26T11:48:06Z</time></trkpt><trkpt lat="45.739401366898264" lon="11.26436693476055"><ele>339.0</ele><time>2026-04-26T11:48:07Z</time></trkpt><trkpt lat="45.7393723638324" lon="11.264495641397527"><ele>339.0</ele><time>2026-04-26T11:48:08Z</time></trkpt><trkpt lat="45.739344701408015" lon="11.264625530569283"><ele>339.0</ele><time>2026-04-26T11:48:09Z</time></trkpt><trkpt lat="45.739320954753474" lon="11.264755158118122"><ele>339.0</ele><time>2026-04-26T11:48:10Z</time></trkpt><trkpt lat="45.739294455573535" lon="11.264880117696803"><ele>339.0</ele><time>2026-04-26T11:48:11Z</time></trkpt><trkpt lat="45.73926117950991" lon="11.265000688218297"><ele>339.0</ele><time>2026-04-26T11:48:12Z</time></trkpt><trkpt lat="45.739207598556185" lon="11.265110924393692"><ele>339.79999999999995</ele><time>2026-04-26T11:48:13Z</time></trkpt><trkpt lat="45.73914208259179" lon="11.265211565117548"><ele>340.59999999999997</ele><time>2026-04-26T11:48:14Z</time></trkpt><trkpt lat="45.739063948318055" lon="11.265308664212094"><ele>341.4</ele><time>2026-04-26T11:48:15Z</time></trkpt><trkpt lat="45.73898095629322" lon="11.265399389972231"><ele>342.2</ele><time>2026-04-26T11:48:16Z</time></trkpt><trkpt lat="45.738899022819744" lon="11.26548831805216"><ele>343.0</ele><time>2026-04-26T11:48:17Z</time></trkpt><trkpt lat="45.73881491122151" lon="11.265576221794484"><ele>343.0</ele><time>2026-04-26T11:48:18Z</time></trkpt><trkpt lat="45.7387127534306" lon="11.265635348832218"><ele>343.0</ele><time>2026-04-26T11:48:19Z</time></trkpt><trkpt lat="45.73860194875504" lon="11.265676532151655"><ele>343.0</ele><time>2026-04-26T11:48:20Z</time></trkpt><trkpt lat="45.73849228070122" lon="11.265700052701575"><ele>343.0</ele><time>2026-04-26T11:48:21Z</time></trkpt><trkpt lat="45.73838027912482" lon="11.265699106930835"><ele>343.0</ele><time>2026-04-26T11:48:22Z</time></trkpt><trkpt lat="45.7382723334179" lon="11.265708484324309"><ele>343.0</ele><time>2026-04-26T11:48:23Z</time></trkpt><trkpt lat="45.738171037241266" lon="11.265719419162185"><ele>343.0</ele><time>2026-04-26T11:48:24Z</time></trkpt><trkpt lat="45.73807791651318" lon="11.2657663624284"><ele>343.0</ele><time>2026-04-26T11:48:25Z</time></trkpt><trkpt lat="45.73797719749928" lon="11.265822496012582"><ele>343.0</ele><time>2026-04-26T11:48:26Z</time></trkpt><trkpt lat="45.73787682987093" lon="11.265903906586734"><ele>343.0</ele><time>2026-04-26T11:48:26.999Z</time></trkpt><trkpt lat="45.73778409451074" lon="11.265995974706168"><ele>343.25</ele><time>2026-04-26T11:48:27.999Z</time></trkpt><trkpt lat="45.73771021788289" lon="11.26610564889061"><ele>343.5</ele><time>2026-04-26T11:48:28.999Z</time></trkpt><trkpt lat="45.73764260990448" lon="11.266234067690387"><ele>343.75</ele><time>2026-04-26T11:48:29.999Z</time></trkpt><trkpt lat="45.73756497705906" lon="11.266363800093744"><ele>344.0</ele><time>2026-04-26T11:48:30.999Z</time></trkpt><trkpt lat="45.73748826633773" lon="11.266499074487687"><ele>344.0</ele><time>2026-04-26T11:48:31.999Z</time></trkpt><trkpt lat="45.73742101445416" lon="11.266640150912055"><ele>344.0</ele><time>2026-04-26T11:48:32.999Z</time></trkpt><trkpt lat="45.73735467838238" lon="11.26677301329443"><ele>344.0</ele><time>2026-04-26T11:48:33.999Z</time></trkpt><trkpt lat="45.737289922030776" lon="11.266892891171437"><ele>344.0</ele><time>2026-04-26T11:48:34.999Z</time></trkpt><trkpt lat="45.73722845506203" lon="11.267007424774679"><ele>344.0</ele><time>2026-04-26T11:48:35.999Z</time></trkpt><trkpt lat="45.73716991308568" lon="11.267114601632233"><ele>344.0</ele><time>2026-04-26T11:48:36.999Z</time></trkpt><trkpt lat="45.737115610403215" lon="11.267208561903962"><ele>344.0</ele><time>2026-04-26T11:48:37.999Z</time></trkpt><trkpt lat="45.737067452035326" lon="11.267292676954128"><ele>344.0</ele><time>2026-04-26T11:48:38.999Z</time></trkpt><trkpt lat="45.737028600818455" lon="11.267370574078894"><ele>344.0</ele><time>2026-04-26T11:48:39.999Z</time></trkpt><trkpt lat="45.73703122707975" lon="11.26750345421509"><ele>344.0</ele><time>2026-04-26T11:48:41.999Z</time></trkpt><trkpt lat="45.737098861341465" lon="11.267508151971901"><ele>344.0</ele><time>2026-04-26T11:48:43.999Z</time></trkpt><trkpt lat="45.73721406392637" lon="11.267432427722364"><ele>344.0</ele><time>2026-04-26T11:48:45.999Z</time></trkpt><trkpt lat="45.73728045537201" lon="11.267389369653872"><ele>344.0</ele><time>2026-04-26T11:48:46.999Z</time></trkpt><trkpt lat="45.73735551650853" lon="11.267339145417015"><ele>344.0</ele><time>2026-04-26T11:48:47.999Z</time></trkpt><trkpt lat="45.73744028882216" lon="11.26728299946093"><ele>344.0</ele><time>2026-04-26T11:48:48.999Z</time></trkpt><trkpt lat="45.73753283981919" lon="11.267205548334891"><ele>344.0</ele><time>2026-04-26T11:48:49.999Z</time></trkpt><trkpt lat="45.737632620484575" lon="11.267116028245075"><ele>347.5</ele><time>2026-04-26T11:48:50.999Z</time></trkpt><trkpt lat="45.73773207254097" lon="11.267014950540318"><ele>351.0</ele><time>2026-04-26T11:48:51.999Z</time></trkpt><trkpt lat="45.73783042757862" lon="11.26690265070415"><ele>354.5</ele><time>2026-04-26T11:48:52.999Z</time></trkpt><trkpt lat="45.737923516392065" lon="11.266772487458631"><ele>358.0</ele><time>2026-04-26T11:48:53.999Z</time></trkpt><trkpt lat="45.738010049831765" lon="11.266643368008852"><ele>358.0</ele><time>2026-04-26T11:48:54.999Z</time></trkpt><trkpt lat="45.738096064734854" lon="11.266529170735604"><ele>358.0</ele><time>2026-04-26T11:48:55.999Z</time></trkpt><trkpt lat="45.73817968150304" lon="11.266421026094816"><ele>358.0</ele><time>2026-04-26T11:48:56.999Z</time></trkpt><trkpt lat="45.73827053156167" lon="11.266342112823743"><ele>358.0</ele><time>2026-04-26T11:48:57.999Z</time></trkpt><trkpt lat="45.738368941898514" lon="11.266293651507782"><ele>358.0</ele><time>2026-04-26T11:48:58.999Z</time></trkpt><trkpt lat="45.73847015334826" lon="11.266273710549633"><ele>358.4</ele><time>2026-04-26T11:48:59.999Z</time></trkpt><trkpt lat="45.73857248690168" lon="11.266262976408237"><ele>358.79999999999995</ele><time>2026-04-26T11:49:00.999Z</time></trkpt><trkpt lat="45.73867130324478" lon="11.266246506102057"><ele>359.2</ele><time>2026-04-26T11:49:01.999Z</time></trkpt><trkpt lat="45.738774801205466" lon="11.26619573919994"><ele>359.6</ele><time>2026-04-26T11:49:02.999Z</time></trkpt><trkpt lat="45.73887479901735" lon="11.266122851413717"><ele>360.0</ele><time>2026-04-26T11:49:03.999Z</time></trkpt><trkpt lat="45.738977422107816" lon="11.266049078305768"><ele>360.0</ele><time>2026-04-26T11:49:04.999Z</time></trkpt><trkpt lat="45.73908889301638" lon="11.266007000791591"><ele>360.0</ele><time>2026-04-26T11:49:05.999Z</time></trkpt><trkpt lat="45.73920632166167" lon="11.265967072317196"><ele>360.0</ele><time>2026-04-26T11:49:06.999Z</time></trkpt><trkpt lat="45.7393129956653" lon="11.265887057071762"><ele>360.0</ele><time>2026-04-26T11:49:07.999Z</time></trkpt><trkpt lat="45.73941286168475" lon="11.265787719282331"><ele>361.75</ele><time>2026-04-26T11:49:08.999Z</time></trkpt><trkpt lat="45.739489119926986" lon="11.265660710524427"><ele>363.5</ele><time>2026-04-26T11:49:09.999Z</time></trkpt><trkpt lat="45.73954900067543" lon="11.265516134720377"><ele>365.25</ele><time>2026-04-26T11:49:10.999Z</time></trkpt><trkpt lat="45.73962756534911" lon="11.265405593482216"><ele>367.0</ele><time>2026-04-26T11:49:11.999Z</time></trkpt><trkpt lat="45.73972132768962" lon="11.2653200003661"><ele>367.0</ele><time>2026-04-26T11:49:12.999Z</time></trkpt><trkpt lat="45.73982914237966" lon="11.265254100346514"><ele>367.0</ele><time>2026-04-26T11:49:13.999Z</time></trkpt><trkpt lat="45.73994225560842" lon="11.265188099837646"><ele>367.0</ele><time>2026-04-26T11:49:14.999Z</time></trkpt><trkpt lat="45.74005896674735" lon="11.265123484768308"><ele>367.0</ele><time>2026-04-26T11:49:15.999Z</time></trkpt><trkpt lat="45.74017792257135" lon="11.265054616233622"><ele>372.5</ele><time>2026-04-26T11:49:16.999Z</time></trkpt><trkpt lat="45.74030680302625" lon="11.265001050034979"><ele>378.0</ele><time>2026-04-26T11:49:17.999Z</time></trkpt><trkpt lat="45.740439750536154" lon="11.264943735742005"><ele>383.5</ele><time>2026-04-26T11:49:18.999Z</time></trkpt><trkpt lat="45.7405740115223" lon="11.264879604673732"><ele>389.0</ele><time>2026-04-26T11:49:19.999Z</time></trkpt><trkpt lat="45.740707645703665" lon="11.264784329985341"><ele>390.0</ele><time>2026-04-26T11:49:20.999Z</time></trkpt><trkpt lat="45.74084127094327" lon="11.264670438149217"><ele>391.0</ele><time>2026-04-26T11:49:21.999Z</time></trkpt><trkpt lat="45.740944250121466" lon="11.26452657026236"><ele>392.0</ele><time>2026-04-26T11:49:22.999Z</time></trkpt><trkpt lat="45.74103078006239" lon="11.264379146398037"><ele>393.0</ele><time>2026-04-26T11:49:23.999Z</time></trkpt><trkpt lat="45.741142898331226" lon="11.264284100742195"><ele>393.0</ele><time>2026-04-26T11:49:24.999Z</time></trkpt><trkpt lat="45.741254408052015" lon="11.264209435748215"><ele>393.0</ele><time>2026-04-26T11:49:25.999Z</time></trkpt><trkpt lat="45.74136309780698" lon="11.264120616760975"><ele>393.0</ele><time>2026-04-26T11:49:26.999Z</time></trkpt><trkpt lat="45.741464090360736" lon="11.26401237340845"><ele>393.0</ele><time>2026-04-26T11:49:27.999Z</time></trkpt><trkpt lat="45.74153754588851" lon="11.263876487812217"><ele>394.0</ele><time>2026-04-26T11:49:28.999Z</time></trkpt><trkpt lat="45.74161098655279" lon="11.263731273614976"><ele>395.0</ele><time>2026-04-26T11:49:29.999Z</time></trkpt><trkpt lat="45.74170650997078" lon="11.263625486726905"><ele>396.0</ele><time>2026-04-26T11:49:30.999Z</time></trkpt><trkpt lat="45.7418140898299" lon="11.263535880307243"><ele>397.0</ele><time>2026-04-26T11:49:31.999Z</time></trkpt><trkpt lat="45.74193045911857" lon="11.263459597020606"><ele>397.0</ele><time>2026-04-26T11:49:32.999Z</time></trkpt><trkpt lat="45.7420469477656" lon="11.263401607244013"><ele>397.0</ele><time>2026-04-26T11:49:33.999Z</time></trkpt><trkpt lat="45.74215579391101" lon="11.263356417773798"><ele>397.0</ele><time>2026-04-26T11:49:34.999Z</time></trkpt><trkpt lat="45.74226392989121" lon="11.26334599136063"><ele>397.0</ele><time>2026-04-26T11:49:35.999Z</time></trkpt><trkpt lat="45.74237600125706" lon="11.263342726563184"><ele>397.0</ele><time>2026-04-26T11:49:36.999Z</time></trkpt><trkpt lat="45.742476109323626" lon="11.263303723997742"><ele>397.0</ele><time>2026-04-26T11:49:37.999Z</time></trkpt><trkpt lat="45.742564041048524" lon="11.263242252079946"><ele>397.0</ele><time>2026-04-26T11:49:38.999Z</time></trkpt><trkpt lat="45.7426397596548" lon="11.263199849553576"><ele>397.0</ele><time>2026-04-26T11:49:39.999Z</time></trkpt><trkpt lat="45.7427306048161" lon="11.263179829295565"><ele>397.0</ele><time>2026-04-26T11:49:41.999Z</time></trkpt><trkpt lat="45.742770738826096" lon="11.26328039541607"><ele>397.0</ele><time>2026-04-26T11:49:43.999Z</time></trkpt><trkpt lat="45.7427227882027" lon="11.263453928596611"><ele>397.0</ele><time>2026-04-26T11:49:45.999Z</time></trkpt><trkpt lat="45.74267462172432" lon="11.263547370951201"><ele>397.0</ele><time>2026-04-26T11:49:46.999Z</time></trkpt><trkpt lat="45.742612572303024" lon="11.263647568699628"><ele>397.0</ele><time>2026-04-26T11:49:47.999Z</time></trkpt><trkpt lat="45.74255090252712" lon="11.263760667743037"><ele>397.0</ele><time>2026-04-26T11:49:48.999Z</time></trkpt><trkpt lat="45.74248629298214" lon="11.263890226637246"><ele>401.0</ele><time>2026-04-26T11:49:49.999Z</time></trkpt><trkpt lat="45.74241239236185" lon="11.264028274098342"><ele>405.0</ele><time>2026-04-26T11:49:50.999Z</time></trkpt><trkpt lat="45.74233003427375" lon="11.26417734233404"><ele>409.0</ele><time>2026-04-26T11:49:51.999Z</time></trkpt><trkpt lat="45.74224682125228" lon="11.2643305488207"><ele>413.0</ele><time>2026-04-26T11:49:52.999Z</time></trkpt><trkpt lat="45.74215451816243" lon="11.264476381495255"><ele>413.0</ele><time>2026-04-26T11:49:53.999Z</time></trkpt><trkpt lat="45.74206252157825" lon="11.264627163748479"><ele>413.0</ele><time>2026-04-26T11:49:54.999Z</time></trkpt><trkpt lat="45.741965861623726" lon="11.264777426730053"><ele>413.0</ele><time>2026-04-26T11:49:55.999Z</time></trkpt><trkpt lat="45.741875507174505" lon="11.264932615188687"><ele>413.0</ele><time>2026-04-26T11:49:56.999Z</time></trkpt><trkpt lat="45.74178788361763" lon="11.265093043922604"><ele>411.75</ele><time>2026-04-26T11:49:57.999Z</time></trkpt><trkpt lat="45.741716424018314" lon="11.265276680977689"><ele>410.5</ele><time>2026-04-26T11:49:58.999Z</time></trkpt><trkpt lat="45.74165020510036" lon="11.265467097469312"><ele>409.25</ele><time>2026-04-26T11:49:59.999Z</time></trkpt><trkpt lat="45.74157411037176" lon="11.265641789406756"><ele>408.0</ele><time>2026-04-26T11:50:00.999Z</time></trkpt><trkpt lat="45.7414917569414" lon="11.26580321670732"><ele>412.0</ele><time>2026-04-26T11:50:01.998Z</time></trkpt><trkpt lat="45.7414010109595" lon="11.265956046521271"><ele>416.0</ele><time>2026-04-26T11:50:02.998Z</time></trkpt><trkpt lat="45.741296915264215" lon="11.26608200931396"><ele>420.0</ele><time>2026-04-26T11:50:03.998Z</time></trkpt><trkpt lat="45.74118362552773" lon="11.266185484501147"><ele>424.0</ele><time>2026-04-26T11:50:04.998Z</time></trkpt><trkpt lat="45.74107582327482" lon="11.266289838821047"><ele>424.25</ele><time>2026-04-26T11:50:05.998Z</time></trkpt><trkpt lat="45.74097778574447" lon="11.266396959844684"><ele>424.5</ele><time>2026-04-26T11:50:06.998Z</time></trkpt><trkpt lat="45.74088340776753" lon="11.266503676678779"><ele>424.75</ele><time>2026-04-26T11:50:07.998Z</time></trkpt><trkpt lat="45.74079992303267" lon="11.26662174292787"><ele>425.0</ele><time>2026-04-26T11:50:08.998Z</time></trkpt><trkpt lat="45.74073072010426" lon="11.266752543780779"><ele>425.0</ele><time>2026-04-26T11:50:09.998Z</time></trkpt><trkpt lat="45.74066735253286" lon="11.26689367369864"><ele>425.0</ele><time>2026-04-26T11:50:10.998Z</time></trkpt><trkpt lat="45.74060755199403" lon="11.267034629367442"><ele>425.0</ele><time>2026-04-26T11:50:11.998Z</time></trkpt><trkpt lat="45.74057882778419" lon="11.267196323741477"><ele>425.0</ele><time>2026-04-26T11:50:12.998Z</time></trkpt><trkpt lat="45.74054574070361" lon="11.267353372284147"><ele>428.25</ele><time>2026-04-26T11:50:13.998Z</time></trkpt><trkpt lat="45.74051037906249" lon="11.267511386608053"><ele>431.5</ele><time>2026-04-26T11:50:14.998Z</time></trkpt><trkpt lat="45.74047243489257" lon="11.267672732445188"><ele>434.75</ele><time>2026-04-26T11:50:16Z</time></trkpt><trkpt lat="45.74044308619764" lon="11.267837052106595"><ele>438.0</ele><time>2026-04-26T11:50:17Z</time></trkpt><trkpt lat="45.740408796454496" lon="11.268002191360651"><ele>441.5</ele><time>2026-04-26T11:50:18Z</time></trkpt><trkpt lat="45.74037425662025" lon="11.268165367949893"><ele>445.0</ele><time>2026-04-26T11:50:19Z</time></trkpt><trkpt lat="45.74033914360522" lon="11.268328092614315"><ele>448.5</ele><time>2026-04-26T11:50:20Z</time></trkpt><trkpt lat="45.740294898333715" lon="11.268488810090286"><ele>452.0</ele><time>2026-04-26T11:50:21Z</time></trkpt><trkpt lat="45.74025099487434" lon="11.268652114209386"><ele>449.40000000000003</ele><time>2026-04-26T11:50:22Z</time></trkpt><trkpt lat="45.74020243367202" lon="11.26881172398719"><ele>446.80000000000007</ele><time>2026-04-26T11:50:23Z</time></trkpt><trkpt lat="45.74014540778954" lon="11.26895554001342"><ele>444.2</ele><time>2026-04-26T11:50:24Z</time></trkpt><trkpt lat="45.74008362440749" lon="11.269079184771302"><ele>441.6</ele><time>2026-04-26T11:50:25Z</time></trkpt><trkpt lat="45.74003264663699" lon="11.269185385786361"><ele>439.0</ele><time>2026-04-26T11:50:26Z</time></trkpt><trkpt lat="45.739971066262505" lon="11.269254583942391"><ele>439.0</ele><time>2026-04-26T11:50:27Z</time></trkpt><trkpt lat="45.739931092202795" lon="11.269335299947437"><ele>439.0</ele><time>2026-04-26T11:50:28Z</time></trkpt><trkpt lat="45.73989549761866" lon="11.269473560960225"><ele>439.0</ele><time>2026-04-26T11:50:30Z</time></trkpt><trkpt lat="45.739966667668924" lon="11.269516745229762"><ele>439.0</ele><time>2026-04-26T11:50:33Z</time></trkpt><trkpt lat="45.740049230487024" lon="11.269457770757535"><ele>439.0</ele><time>2026-04-26T11:50:34Z</time></trkpt><trkpt lat="45.74016110310202" lon="11.269347793938282"><ele>439.5</ele><time>2026-04-26T11:50:35Z</time></trkpt><trkpt lat="45.74027197337778" lon="11.26924125716739"><ele>440.0</ele><time>2026-04-26T11:50:36Z</time></trkpt><trkpt lat="45.74037535628241" lon="11.269145219677252"><ele>440.5</ele><time>2026-04-26T11:50:37Z</time></trkpt><trkpt lat="45.740489144540575" lon="11.269066758413473"><ele>441.0</ele><time>2026-04-26T11:50:38Z</time></trkpt><trkpt lat="45.74062110124841" lon="11.268994341816962"><ele>444.66666666666663</ele><time>2026-04-26T11:50:39Z</time></trkpt><trkpt lat="45.74076800848975" lon="11.268935201050018"><ele>448.3333333333333</ele><time>2026-04-26T11:50:40Z</time></trkpt><trkpt lat="45.74091659291701" lon="11.268862889090755"><ele>452.0</ele><time>2026-04-26T11:50:41Z</time></trkpt><trkpt lat="45.74105768899582" lon="11.268804457638929"><ele>452.0</ele><time>2026-04-26T11:50:42Z</time></trkpt><trkpt lat="45.74119551853145" lon="11.26876753092359"><ele>452.0</ele><time>2026-04-26T11:50:43Z</time></trkpt><trkpt lat="45.741327261008536" lon="11.268711970784379"><ele>452.0</ele><time>2026-04-26T11:50:44Z</time></trkpt><trkpt lat="45.74143749455584" lon="11.268626296826689"><ele>452.0</ele><time>2026-04-26T11:50:45Z</time></trkpt><trkpt lat="45.74155530774541" lon="11.268527336731337"><ele>452.0</ele><time>2026-04-26T11:50:46Z</time></trkpt><trkpt lat="45.74167028939789" lon="11.268420397302643"><ele>452.0</ele><time>2026-04-26T11:50:47Z</time></trkpt><trkpt lat="45.74179458630524" lon="11.268332254332366"><ele>452.0</ele><time>2026-04-26T11:50:48Z</time></trkpt><trkpt lat="45.7419470259451" lon="11.268276267629451"><ele>452.0</ele><time>2026-04-26T11:50:49Z</time></trkpt><trkpt lat="45.74211073232665" lon="11.268215286737668"><ele>455.3333333333333</ele><time>2026-04-26T11:50:50Z</time></trkpt><trkpt lat="45.742268593957185" lon="11.268136027494956"><ele>458.66666666666663</ele><time>2026-04-26T11:50:51Z</time></trkpt><trkpt lat="45.74244408252829" lon="11.268058521825838"><ele>462.0</ele><time>2026-04-26T11:50:52Z</time></trkpt><trkpt lat="45.74259027631087" lon="11.26797765824487"><ele>463.33333333333337</ele><time>2026-04-26T11:50:53Z</time></trkpt><trkpt lat="45.7427351942595" lon="11.267917002952029"><ele>464.6666666666667</ele><time>2026-04-26T11:50:54Z</time></trkpt><trkpt lat="45.74290182110621" lon="11.267908414375803"><ele>466.0</ele><time>2026-04-26T11:50:55Z</time></trkpt><trkpt lat="45.74307223336695" lon="11.267950666354613"><ele>466.0</ele><time>2026-04-26T11:50:56Z</time></trkpt><trkpt lat="45.7432336427013" lon="11.268016262934466"><ele>466.0</ele><time>2026-04-26T11:50:57Z</time></trkpt><trkpt lat="45.743396059813094" lon="11.268078645925854"><ele>466.0</ele><time>2026-04-26T11:50:58Z</time></trkpt><trkpt lat="45.74356999702872" lon="11.268103530592745"><ele>467.6666666666667</ele><time>2026-04-26T11:50:59Z</time></trkpt><trkpt lat="45.74373558370247" lon="11.268127965090018"><ele>469.33333333333337</ele><time>2026-04-26T11:51:00Z</time></trkpt><trkpt lat="45.743899198383296" lon="11.268127855218381"><ele>471.0</ele><time>2026-04-26T11:51:01Z</time></trkpt><trkpt lat="45.744096490739416" lon="11.268039324746308"><ele>471.0</ele><time>2026-04-26T11:51:02Z</time></trkpt><trkpt lat="45.74426380739257" lon="11.268000470366216"><ele>471.0</ele><time>2026-04-26T11:51:03Z</time></trkpt><trkpt lat="45.74443394689197" lon="11.268010606359939"><ele>471.0</ele><time>2026-04-26T11:51:04Z</time></trkpt><trkpt lat="45.74460800056963" lon="11.268029743599193"><ele>472.33333333333337</ele><time>2026-04-26T11:51:05Z</time></trkpt><trkpt lat="45.74477373845595" lon="11.267992443364202"><ele>473.6666666666667</ele><time>2026-04-26T11:51:06Z</time></trkpt><trkpt lat="45.744936998704816" lon="11.26794936438098"><ele>475.0</ele><time>2026-04-26T11:51:07Z</time></trkpt><trkpt lat="45.745092589607886" lon="11.267897753147725"><ele>470.25</ele><time>2026-04-26T11:51:08Z</time></trkpt><trkpt lat="45.7452493119161" lon="11.26786428926829"><ele>465.5</ele><time>2026-04-26T11:51:09Z</time></trkpt><trkpt lat="45.745389579859136" lon="11.267848466007797"><ele>460.75</ele><time>2026-04-26T11:51:10Z</time></trkpt><trkpt lat="45.74552744063301" lon="11.267814416331499"><ele>456.0</ele><time>2026-04-26T11:51:11Z</time></trkpt><trkpt lat="45.74565697013906" lon="11.26773013098275"><ele>456.0</ele><time>2026-04-26T11:51:12Z</time></trkpt><trkpt lat="45.74577066591715" lon="11.267630373623213"><ele>456.0</ele><time>2026-04-26T11:51:13Z</time></trkpt><trkpt lat="45.74585381659785" lon="11.26749656101017"><ele>456.0</ele><time>2026-04-26T11:51:14Z</time></trkpt><trkpt lat="45.74592404558249" lon="11.26744810194563"><ele>456.0</ele><time>2026-04-26T11:51:15Z</time></trkpt><trkpt lat="45.746001188205305" lon="11.26742543054352"><ele>456.0</ele><time>2026-04-26T11:51:16Z</time></trkpt><trkpt lat="45.74611255584284" lon="11.267388650249911"><ele>456.75</ele><time>2026-04-26T11:51:17Z</time></trkpt><trkpt lat="45.74623587245728" lon="11.267351442817173"><ele>457.5</ele><time>2026-04-26T11:51:18Z</time></trkpt><trkpt lat="45.74635888472182" lon="11.267239533335916"><ele>458.25</ele><time>2026-04-26T11:51:19Z</time></trkpt><trkpt lat="45.7464858860679" lon="11.267094740840111"><ele>459.0</ele><time>2026-04-26T11:51:20Z</time></trkpt><trkpt lat="45.746603428811596" lon="11.266952210958483"><ele>459.0</ele><time>2026-04-26T11:51:21Z</time></trkpt><trkpt lat="45.74672348085789" lon="11.266804392067476"><ele>459.0</ele><time>2026-04-26T11:51:22Z</time></trkpt><trkpt lat="45.74686402420798" lon="11.266669488599643"><ele>459.0</ele><time>2026-04-26T11:51:23Z</time></trkpt><trkpt lat="45.7470016755507" lon="11.266542328962666"><ele>465.75</ele><time>2026-04-26T11:51:24Z</time></trkpt><trkpt lat="45.74710009512332" lon="11.266396119312768"><ele>472.5</ele><time>2026-04-26T11:51:25Z</time></trkpt><trkpt lat="45.74721170499916" lon="11.266266858854808"><ele>479.25</ele><time>2026-04-26T11:51:26Z</time></trkpt><trkpt lat="45.747324868314664" lon="11.266146526543753"><ele>486.0</ele><time>2026-04-26T11:51:27Z</time></trkpt><trkpt lat="45.747430969367365" lon="11.266045791257856"><ele>486.0</ele><time>2026-04-26T11:51:28Z</time></trkpt><trkpt lat="45.747546298911146" lon="11.265972016686783"><ele>486.0</ele><time>2026-04-26T11:51:29Z</time></trkpt><trkpt lat="45.74766187120365" lon="11.265892025166284"><ele>486.0</ele><time>2026-04-26T11:51:30Z</time></trkpt><trkpt lat="45.747811428911646" lon="11.265854129711464"><ele>486.0</ele><time>2026-04-26T11:51:31Z</time></trkpt><trkpt lat="45.74796967277756" lon="11.265851206506234"><ele>485.0</ele><time>2026-04-26T11:51:32Z</time></trkpt><trkpt lat="45.74813676416086" lon="11.265834801045163"><ele>484.0</ele><time>2026-04-26T11:51:33Z</time></trkpt><trkpt lat="45.74828162731397" lon="11.265868679271533"><ele>483.0</ele><time>2026-04-26T11:51:34Z</time></trkpt><trkpt lat="45.7483995650927" lon="11.265901690076698"><ele>482.0</ele><time>2026-04-26T11:51:35Z</time></trkpt><trkpt lat="45.74850743156805" lon="11.265867190705942"><ele>478.25</ele><time>2026-04-26T11:51:36Z</time></trkpt><trkpt lat="45.74863057027629" lon="11.265839061349915"><ele>474.5</ele><time>2026-04-26T11:51:37Z</time></trkpt><trkpt lat="45.74874301925697" lon="11.265748300341464"><ele>470.75</ele><time>2026-04-26T11:51:37.999Z</time></trkpt><trkpt lat="45.74886455747424" lon="11.265649573601799"><ele>467.0</ele><time>2026-04-26T11:51:38.999Z</time></trkpt><trkpt lat="45.74898357442679" lon="11.265521743681333"><ele>473.75</ele><time>2026-04-26T11:51:39.999Z</time></trkpt><trkpt lat="45.74911223683903" lon="11.265429371080275"><ele>480.5</ele><time>2026-04-26T11:51:40.999Z</time></trkpt><trkpt lat="45.74924494803858" lon="11.265348550746845"><ele>487.25</ele><time>2026-04-26T11:51:41.999Z</time></trkpt><trkpt lat="45.74936757025631" lon="11.265270887179227"><ele>494.0</ele><time>2026-04-26T11:51:42.999Z</time></trkpt><trkpt lat="45.74947492234549" lon="11.265205361022728"><ele>494.0</ele><time>2026-04-26T11:51:43.999Z</time></trkpt><trkpt lat="45.74957683083708" lon="11.265152007519811"><ele>494.0</ele><time>2026-04-26T11:51:44.999Z</time></trkpt><trkpt lat="45.74965819199802" lon="11.265026540225463"><ele>494.0</ele><time>2026-04-26T11:51:45.999Z</time></trkpt><trkpt lat="45.74972968839031" lon="11.264878461839656"><ele>494.0</ele><time>2026-04-26T11:51:46.999Z</time></trkpt><trkpt lat="45.749794745105056" lon="11.264741636105025"><ele>497.6</ele><time>2026-04-26T11:51:47.999Z</time></trkpt><trkpt lat="45.74987674578254" lon="11.264653047469093"><ele>501.2</ele><time>2026-04-26T11:51:48.999Z</time></trkpt><trkpt lat="45.74998225505084" lon="11.264583661700392"><ele>504.80000000000007</ele><time>2026-04-26T11:51:49.999Z</time></trkpt><trkpt lat="45.750071868833075" lon="11.2644869297851"><ele>508.40000000000003</ele><time>2026-04-26T11:51:50.999Z</time></trkpt><trkpt lat="45.75016160938285" lon="11.264457565214759"><ele>512.0</ele><time>2026-04-26T11:51:51.999Z</time></trkpt><trkpt lat="45.750242275064494" lon="11.264473275143825"><ele>511.8</ele><time>2026-04-26T11:51:52.999Z</time></trkpt><trkpt lat="45.75029391675253" lon="11.264532430238674"><ele>511.6</ele><time>2026-04-26T11:51:53.999Z</time></trkpt><trkpt lat="45.75031227348023" lon="11.26464729749034"><ele>511.40000000000003</ele><time>2026-04-26T11:51:54.999Z</time></trkpt><trkpt lat="45.750315057888784" lon="11.264776987504511"><ele>511.20000000000005</ele><time>2026-04-26T11:51:55.999Z</time></trkpt><trkpt lat="45.75031781276619" lon="11.264934635145478"><ele>511.0</ele><time>2026-04-26T11:51:56.999Z</time></trkpt><trkpt lat="45.750338578507844" lon="11.265136990998782"><ele>511.0</ele><time>2026-04-26T11:51:57.999Z</time></trkpt><trkpt lat="45.750369598773986" lon="11.265318554889964"><ele>511.0</ele><time>2026-04-26T11:51:58.999Z</time></trkpt><trkpt lat="45.75042436510794" lon="11.265424518224403"><ele>511.0</ele><time>2026-04-26T11:51:59.999Z</time></trkpt><trkpt lat="45.75048665177968" lon="11.265526172723828"><ele>511.0</ele><time>2026-04-26T11:52:00.999Z</time></trkpt><trkpt lat="45.75058601091759" lon="11.26556386020705"><ele>511.0</ele><time>2026-04-26T11:52:01.999Z</time></trkpt><trkpt lat="45.750704818502605" lon="11.265570960942329"><ele>504.5</ele><time>2026-04-26T11:52:02.999Z</time></trkpt><trkpt lat="45.75085372126028" lon="11.26561205019415"><ele>498.0</ele><time>2026-04-26T11:52:03.999Z</time></trkpt><trkpt lat="45.7510000453171" lon="11.265656302494722"><ele>491.5</ele><time>2026-04-26T11:52:04.999Z</time></trkpt><trkpt lat="45.75113404685969" lon="11.265680119251387"><ele>485.0</ele><time>2026-04-26T11:52:05.999Z</time></trkpt><trkpt lat="45.75126521763169" lon="11.265690543013477"><ele>482.5</ele><time>2026-04-26T11:52:06.999Z</time></trkpt><trkpt lat="45.75138764211036" lon="11.265668173154932"><ele>480.0</ele><time>2026-04-26T11:52:07.999Z</time></trkpt><trkpt lat="45.751485896300785" lon="11.265598401306374"><ele>477.5</ele><time>2026-04-26T11:52:08.999Z</time></trkpt><trkpt lat="45.751580782880104" lon="11.265503628823343"><ele>475.0</ele><time>2026-04-26T11:52:09.999Z</time></trkpt><trkpt lat="45.751671380657335" lon="11.265387877955177"><ele>478.0</ele><time>2026-04-26T11:52:10.999Z</time></trkpt><trkpt lat="45.7517590679749" lon="11.265240205157765"><ele>481.0</ele><time>2026-04-26T11:52:11.999Z</time></trkpt><trkpt lat="45.751845566697824" lon="11.265074399401419"><ele>484.0</ele><time>2026-04-26T11:52:12.999Z</time></trkpt><trkpt lat="45.751930448319534" lon="11.26490020929316"><ele>487.0</ele><time>2026-04-26T11:52:13.999Z</time></trkpt><trkpt lat="45.75202209755041" lon="11.264712698255614"><ele>491.0</ele><time>2026-04-26T11:52:14.999Z</time></trkpt><trkpt lat="45.75215120659724" lon="11.264530364300644"><ele>495.0</ele><time>2026-04-26T11:52:15.999Z</time></trkpt><trkpt lat="45.752291119343205" lon="11.264371783354179"><ele>499.0</ele><time>2026-04-26T11:52:16.999Z</time></trkpt><trkpt lat="45.75243233101456" lon="11.264231716234086"><ele>499.0</ele><time>2026-04-26T11:52:17.999Z</time></trkpt><trkpt lat="45.75258583186591" lon="11.264113563175766"><ele>499.0</ele><time>2026-04-26T11:52:18.999Z</time></trkpt><trkpt lat="45.75273178097404" lon="11.26399477624212"><ele>499.0</ele><time>2026-04-26T11:52:19.999Z</time></trkpt><trkpt lat="45.75286156554393" lon="11.263898315980263"><ele>501.6666666666667</ele><time>2026-04-26T11:52:20.999Z</time></trkpt><trkpt lat="45.75300119363533" lon="11.26378429018923"><ele>504.33333333333337</ele><time>2026-04-26T11:52:21.999Z</time></trkpt><trkpt lat="45.75318675474271" lon="11.263609800772464"><ele>507.0</ele><time>2026-04-26T11:52:22.999Z</time></trkpt><trkpt lat="45.75333488011146" lon="11.263434445850537"><ele>507.0</ele><time>2026-04-26T11:52:23.999Z</time></trkpt><trkpt lat="45.753468878153896" lon="11.263263223647472"><ele>507.0</ele><time>2026-04-26T11:52:24.999Z</time></trkpt><trkpt lat="45.75359176862857" lon="11.263112873284909"><ele>507.0</ele><time>2026-04-26T11:52:25.999Z</time></trkpt><trkpt lat="45.75373663798971" lon="11.263038943462908"><ele>515.6666666666666</ele><time>2026-04-26T11:52:26.999Z</time></trkpt><trkpt lat="45.75388354895441" lon="11.262971131266223"><ele>524.3333333333333</ele><time>2026-04-26T11:52:27.999Z</time></trkpt><trkpt lat="45.75403617966135" lon="11.262915454777485"><ele>533.0</ele><time>2026-04-26T11:52:28.999Z</time></trkpt><trkpt lat="45.75419746275999" lon="11.262885591389377"><ele>533.0</ele><time>2026-04-26T11:52:29.999Z</time></trkpt><trkpt lat="45.754358579385126" lon="11.262839359840008"><ele>533.0</ele><time>2026-04-26T11:52:30.999Z</time></trkpt><trkpt lat="45.754501492013276" lon="11.262829246248693"><ele>533.0</ele><time>2026-04-26T11:52:31.999Z</time></trkpt><trkpt lat="45.75465100934845" lon="11.262827160911549"><ele>534.75</ele><time>2026-04-26T11:52:32.999Z</time></trkpt><trkpt lat="45.75479189576062" lon="11.262878278906465"><ele>536.5</ele><time>2026-04-26T11:52:33.999Z</time></trkpt><trkpt lat="45.75490974250269" lon="11.262964782119049"><ele>538.25</ele><time>2026-04-26T11:52:34.999Z</time></trkpt><trkpt lat="45.755036061711245" lon="11.263097400508"><ele>540.0</ele><time>2026-04-26T11:52:35.999Z</time></trkpt><trkpt lat="45.755148355634354" lon="11.263242047999311"><ele>541.5</ele><time>2026-04-26T11:52:36.999Z</time></trkpt><trkpt lat="45.75523483215966" lon="11.263362916249045"><ele>543.0</ele><time>2026-04-26T11:52:37.999Z</time></trkpt><trkpt lat="45.75528890665018" lon="11.263508078348417"><ele>544.5</ele><time>2026-04-26T11:52:38.999Z</time></trkpt><trkpt lat="45.75531329562016" lon="11.26365912001014"><ele>546.0</ele><time>2026-04-26T11:52:39.999Z</time></trkpt><trkpt lat="45.755277580570294" lon="11.263805489404294"><ele>542.25</ele><time>2026-04-26T11:52:40.999Z</time></trkpt><trkpt lat="45.75518407119573" lon="11.263918475581692"><ele>538.5</ele><time>2026-04-26T11:52:41.999Z</time></trkpt><trkpt lat="45.7550703331468" lon="11.2640465498079"><ele>534.75</ele><time>2026-04-26T11:52:42.999Z</time></trkpt><trkpt lat="45.754935806043164" lon="11.264163678182136"><ele>531.0</ele><time>2026-04-26T11:52:43.999Z</time></trkpt><trkpt lat="45.75479217358917" lon="11.264258304446702"><ele>531.0</ele><time>2026-04-26T11:52:44.999Z</time></trkpt><trkpt lat="45.75464283625193" lon="11.264383952590157"><ele>531.0</ele><time>2026-04-26T11:52:45.999Z</time></trkpt><trkpt lat="45.75449290584148" lon="11.264520924885636"><ele>531.0</ele><time>2026-04-26T11:52:46.999Z</time></trkpt><trkpt lat="45.754322297495754" lon="11.264665017021848"><ele>531.5</ele><time>2026-04-26T11:52:47.999Z</time></trkpt><trkpt lat="45.7542041491821" lon="11.264758603591641"><ele>532.0</ele><time>2026-04-26T11:52:48.999Z</time></trkpt><trkpt lat="45.75409538113231" lon="11.264878772226933"><ele>532.5</ele><time>2026-04-26T11:52:49.999Z</time></trkpt><trkpt lat="45.75398975012601" lon="11.265009706911862"><ele>533.0</ele><time>2026-04-26T11:52:50.999Z</time></trkpt><trkpt lat="45.753897260582825" lon="11.265169547723197"><ele>533.0</ele><time>2026-04-26T11:52:51.999Z</time></trkpt><trkpt lat="45.75381855767069" lon="11.265396713986593"><ele>533.0</ele><time>2026-04-26T11:52:52.999Z</time></trkpt><trkpt lat="45.753777789029975" lon="11.265617789190179"><ele>533.0</ele><time>2026-04-26T11:52:53.999Z</time></trkpt><trkpt lat="45.753734959008845" lon="11.265817669375426"><ele>538.3333333333333</ele><time>2026-04-26T11:52:54.999Z</time></trkpt><trkpt lat="45.75371633894404" lon="11.266018356281574"><ele>543.6666666666666</ele><time>2026-04-26T11:52:55.999Z</time></trkpt><trkpt lat="45.753682988954914" lon="11.266240189422133"><ele>549.0</ele><time>2026-04-26T11:52:56.999Z</time></trkpt><trkpt lat="45.753633652717156" lon="11.266463910292773"><ele>553.75</ele><time>2026-04-26T11:52:57.999Z</time></trkpt><trkpt lat="45.753576363137306" lon="11.266657690651677"><ele>558.5</ele><time>2026-04-26T11:52:58.999Z</time></trkpt><trkpt lat="45.75351266629259" lon="11.266822830852613"><ele>563.25</ele><time>2026-04-26T11:52:59.999Z</time></trkpt><trkpt lat="45.753440746723776" lon="11.266973597666114"><ele>568.0</ele><time>2026-04-26T11:53:00.999Z</time></trkpt><trkpt lat="45.753363623816846" lon="11.267114932005944"><ele>563.5</ele><time>2026-04-26T11:53:01.999Z</time></trkpt><trkpt lat="45.75328751156993" lon="11.267253033486275"><ele>559.0</ele><time>2026-04-26T11:53:02.999Z</time></trkpt><trkpt lat="45.75322208369475" lon="11.267391690398146"><ele>554.5</ele><time>2026-04-26T11:53:03.999Z</time></trkpt><trkpt lat="45.75315211274771" lon="11.26753600357671"><ele>550.0</ele><time>2026-04-26T11:53:04.999Z</time></trkpt><trkpt lat="45.75309518503895" lon="11.267701692131325"><ele>550.0</ele><time>2026-04-26T11:53:05.999Z</time></trkpt><trkpt lat="45.75302839576932" lon="11.267881888270738"><ele>550.0</ele><time>2026-04-26T11:53:06.999Z</time></trkpt><trkpt lat="45.75297066827026" lon="11.268037217074985"><ele>550.0</ele><time>2026-04-26T11:53:07.999Z</time></trkpt><trkpt lat="45.75292299073209" lon="11.26817558285337"><ele>550.0</ele><time>2026-04-26T11:53:08.999Z</time></trkpt><trkpt lat="45.75285249894111" lon="11.268315268037052"><ele>548.5</ele><time>2026-04-26T11:53:09.998Z</time></trkpt><trkpt lat="45.7527507352946" lon="11.268457836976754"><ele>547.0</ele><time>2026-04-26T11:53:10.998Z</time></trkpt><trkpt lat="45.752641219394356" lon="11.268586118609266"><ele>545.5</ele><time>2026-04-26T11:53:11.998Z</time></trkpt><trkpt lat="45.75252854655345" lon="11.268690066195122"><ele>544.0</ele><time>2026-04-26T11:53:12.998Z</time></trkpt><trkpt lat="45.75240796948245" lon="11.268753598126377"><ele>544.0</ele><time>2026-04-26T11:53:13.998Z</time></trkpt><trkpt lat="45.75229115422696" lon="11.268807884145843"><ele>544.0</ele><time>2026-04-26T11:53:14.998Z</time></trkpt><trkpt lat="45.75219761769662" lon="11.268865906420443"><ele>544.0</ele><time>2026-04-26T11:53:15.998Z</time></trkpt><trkpt lat="45.75212968884186" lon="11.268942527509104"><ele>544.0</ele><time>2026-04-26T11:53:16.998Z</time></trkpt><trkpt lat="45.75207531843369" lon="11.269033041452278"><ele>544.0</ele><time>2026-04-26T11:53:17.998Z</time></trkpt><trkpt lat="45.752015314202964" lon="11.269203224160698"><ele>548.4</ele><time>2026-04-26T11:53:19.998Z</time></trkpt><trkpt lat="45.75209924461816" lon="11.269338419083057"><ele>552.8</ele><time>2026-04-26T11:53:21.998Z</time></trkpt><trkpt lat="45.75215714035822" lon="11.26939573574132"><ele>557.2</ele><time>2026-04-26T11:53:22.998Z</time></trkpt><trkpt lat="45.75221342630767" lon="11.269545811265168"><ele>561.6</ele><time>2026-04-26T11:53:24.998Z</time></trkpt><trkpt lat="45.75224653566835" lon="11.269715389496486"><ele>566.0</ele><time>2026-04-26T11:53:26.998Z</time></trkpt><trkpt lat="45.75225845801743" lon="11.269826984524176"><ele>566.4</ele><time>2026-04-26T11:53:27.998Z</time></trkpt><trkpt lat="45.752256966080445" lon="11.269936621110622"><ele>566.8</ele><time>2026-04-26T11:53:28.998Z</time></trkpt><trkpt lat="45.752244100344136" lon="11.270066611636503"><ele>567.1999999999999</ele><time>2026-04-26T11:53:29.998Z</time></trkpt><trkpt lat="45.752230529710715" lon="11.270210888678493"><ele>567.6</ele><time>2026-04-26T11:53:30.998Z</time></trkpt><trkpt lat="45.752231600042606" lon="11.270345410019354"><ele>568.0</ele><time>2026-04-26T11:53:31.998Z</time></trkpt><trkpt lat="45.75220252657852" lon="11.270468688045229"><ele>568.0</ele><time>2026-04-26T11:53:32.998Z</time></trkpt><trkpt lat="45.752183018503736" lon="11.270576333917706"><ele>568.0</ele><time>2026-04-26T11:53:33.998Z</time></trkpt><trkpt lat="45.75215946874957" lon="11.270691385392464"><ele>568.0</ele><time>2026-04-26T11:53:34.998Z</time></trkpt><trkpt lat="45.75213349805894" lon="11.27080550684333"><ele>568.0</ele><time>2026-04-26T11:53:35.998Z</time></trkpt><trkpt lat="45.75213442342667" lon="11.270916624223904"><ele>568.0</ele><time>2026-04-26T11:53:36.998Z</time></trkpt><trkpt lat="45.75213940906552" lon="11.271031378498458"><ele>568.0</ele><time>2026-04-26T11:53:37.998Z</time></trkpt><trkpt lat="45.75214350625582" lon="11.271142554997567"><ele>568.1666666666667</ele><time>2026-04-26T11:53:38.998Z</time></trkpt><trkpt lat="45.75216436363554" lon="11.27124536451786"><ele>568.3333333333334</ele><time>2026-04-26T11:53:39.998Z</time></trkpt><trkpt lat="45.75218702253349" lon="11.271342594258185"><ele>568.5</ele><time>2026-04-26T11:53:40.998Z</time></trkpt><trkpt lat="45.75220311783256" lon="11.271465801949129"><ele>568.6666666666666</ele><time>2026-04-26T11:53:41.998Z</time></trkpt><trkpt lat="45.75222656626548" lon="11.271595590639139"><ele>568.8333333333333</ele><time>2026-04-26T11:53:42.998Z</time></trkpt><trkpt lat="45.7522353358376" lon="11.271726341185367"><ele>569.0</ele><time>2026-04-26T11:53:43.998Z</time></trkpt><trkpt lat="45.752237170977274" lon="11.271864727098187"><ele>568.2</ele><time>2026-04-26T11:53:44.998Z</time></trkpt><trkpt lat="45.7522555418114" lon="11.271990904466078"><ele>567.4</ele><time>2026-04-26T11:53:45.998Z</time></trkpt><trkpt lat="45.752269640874914" lon="11.27212185508154"><ele>566.6</ele><time>2026-04-26T11:53:46.998Z</time></trkpt><trkpt lat="45.75227629179732" lon="11.272269327222041"><ele>565.8</ele><time>2026-04-26T11:53:47.998Z</time></trkpt><trkpt lat="45.75227602126872" lon="11.272445004042003"><ele>565.0</ele><time>2026-04-26T11:53:48.998Z</time></trkpt><trkpt lat="45.752248342920275" lon="11.272612626004662"><ele>565.0</ele><time>2026-04-26T11:53:49.998Z</time></trkpt><trkpt lat="45.75220653662979" lon="11.272753841873923"><ele>565.0</ele><time>2026-04-26T11:53:50.998Z</time></trkpt><trkpt lat="45.75216492783293" lon="11.272857158856098"><ele>565.0</ele><time>2026-04-26T11:53:51.998Z</time></trkpt><trkpt lat="45.75209688788632" lon="11.272939000113679"><ele>565.0</ele><time>2026-04-26T11:53:52.998Z</time></trkpt><trkpt lat="45.75202521592597" lon="11.272996044720484"><ele>565.0</ele><time>2026-04-26T11:53:53.998Z</time></trkpt><trkpt lat="45.75194378262961" lon="11.27301031072186"><ele>565.0</ele><time>2026-04-26T11:53:54.998Z</time></trkpt><trkpt lat="45.751832241741205" lon="11.273018398153866"><ele>559.75</ele><time>2026-04-26T11:53:55.998Z</time></trkpt><trkpt lat="45.75172504458605" lon="11.273023399276262"><ele>554.5</ele><time>2026-04-26T11:53:56.998Z</time></trkpt><trkpt lat="45.75160489823212" lon="11.273021710615339"><ele>549.25</ele><time>2026-04-26T11:53:57.998Z</time></trkpt><trkpt lat="45.75147002702659" lon="11.273021293070718"><ele>544.0</ele><time>2026-04-26T11:53:58.998Z</time></trkpt><trkpt lat="45.751355478290385" lon="11.273012907671717"><ele>544.0</ele><time>2026-04-26T11:53:59.998Z</time></trkpt><trkpt lat="45.751256159831364" lon="11.27298816557082"><ele>544.0</ele><time>2026-04-26T11:54:00.998Z</time></trkpt><trkpt lat="45.75117392770026" lon="11.27297364586813"><ele>544.0</ele><time>2026-04-26T11:54:01.998Z</time></trkpt><trkpt lat="45.75109170055257" lon="11.272954980678445"><ele>544.0</ele><time>2026-04-26T11:54:02.998Z</time></trkpt><trkpt lat="45.751012887650205" lon="11.272922677924722"><ele>544.0</ele><time>2026-04-26T11:54:03.998Z</time></trkpt><trkpt lat="45.750923804307455" lon="11.272908820970251"><ele>544.0</ele><time>2026-04-26T11:54:04.998Z</time></trkpt><trkpt lat="45.750835209007626" lon="11.27286573853001"><ele>545.0</ele><time>2026-04-26T11:54:05.998Z</time></trkpt><trkpt lat="45.750763040175876" lon="11.272806150108096"><ele>546.0</ele><time>2026-04-26T11:54:06.998Z</time></trkpt><trkpt lat="45.750671762398696" lon="11.272711397455168"><ele>547.0</ele><time>2026-04-26T11:54:07.998Z</time></trkpt><trkpt lat="45.75058310317915" lon="11.272636194493263"><ele>548.0</ele><time>2026-04-26T11:54:08.998Z</time></trkpt><trkpt lat="45.7505179691341" lon="11.27259130064114"><ele>549.0</ele><time>2026-04-26T11:54:09.998Z</time></trkpt><trkpt lat="45.7504619577762" lon="11.272532362781982"><ele>550.0</ele><time>2026-04-26T11:54:10.998Z</time></trkpt><trkpt lat="45.75039727329539" lon="11.272504398028104"><ele>550.0</ele><time>2026-04-26T11:54:11.998Z</time></trkpt><trkpt lat="45.75030745414529" lon="11.272546347385505"><ele>550.0</ele><time>2026-04-26T11:54:13.998Z</time></trkpt><trkpt lat="45.75025266296542" lon="11.272618918948991"><ele>550.0</ele><time>2026-04-26T11:54:14.998Z</time></trkpt><trkpt lat="45.75018904399892" lon="11.272714284075686"><ele>550.0</ele><time>2026-04-26T11:54:15.998Z</time></trkpt><trkpt lat="45.7501270758879" lon="11.272822401623273"><ele>550.0</ele><time>2026-04-26T11:54:16.998Z</time></trkpt><trkpt lat="45.750045385311985" lon="11.272904555615437"><ele>549.6</ele><time>2026-04-26T11:54:17.998Z</time></trkpt><trkpt lat="45.74996708216667" lon="11.273023050917066"><ele>549.2</ele><time>2026-04-26T11:54:18.998Z</time></trkpt><trkpt lat="45.7498970975735" lon="11.273132932712707"><ele>548.8</ele><time>2026-04-26T11:54:19.998Z</time></trkpt><trkpt lat="45.749835150602465" lon="11.273227096788963"><ele>548.4</ele><time>2026-04-26T11:54:20.998Z</time></trkpt><trkpt lat="45.749774394818104" lon="11.27331115175388"><ele>548.0</ele><time>2026-04-26T11:54:21.998Z</time></trkpt><trkpt lat="45.749702171073494" lon="11.27338004248372"><ele>550.8</ele><time>2026-04-26T11:54:22.998Z</time></trkpt><trkpt lat="45.74963776392533" lon="11.273470533373468"><ele>553.5999999999999</ele><time>2026-04-26T11:54:23.998Z</time></trkpt><trkpt lat="45.749581986588105" lon="11.27356262218769"><ele>556.4000000000001</ele><time>2026-04-26T11:54:24.998Z</time></trkpt><trkpt lat="45.749533424031526" lon="11.273680744159577"><ele>559.2</ele><time>2026-04-26T11:54:25.998Z</time></trkpt><trkpt lat="45.74949513935533" lon="11.273824943997122"><ele>562.0</ele><time>2026-04-26T11:54:26.998Z</time></trkpt><trkpt lat="45.7494543269314" lon="11.27396990678501"><ele>560.8000000000001</ele><time>2026-04-26T11:54:27.998Z</time></trkpt><trkpt lat="45.74942185244424" lon="11.274105473474616"><ele>559.6</ele><time>2026-04-26T11:54:28.998Z</time></trkpt><trkpt lat="45.74937867380904" lon="11.274218830905014"><ele>558.4000000000001</ele><time>2026-04-26T11:54:29.998Z</time></trkpt><trkpt lat="45.749311489446505" lon="11.274310911669078"><ele>557.2</ele><time>2026-04-26T11:54:30.998Z</time></trkpt><trkpt lat="45.74923213995769" lon="11.274381297067993"><ele>556.0</ele><time>2026-04-26T11:54:31.998Z</time></trkpt><trkpt lat="45.74913839343689" lon="11.27444064932828"><ele>556.0</ele><time>2026-04-26T11:54:32.998Z</time></trkpt><trkpt lat="45.7490479593147" lon="11.27449687222794"><ele>556.0</ele><time>2026-04-26T11:54:33.998Z</time></trkpt><trkpt lat="45.74896230338413" lon="11.274544700418726"><ele>556.0</ele><time>2026-04-26T11:54:34.998Z</time></trkpt><trkpt lat="45.74888290246531" lon="11.274626619812379"><ele>556.0</ele><time>2026-04-26T11:54:35.998Z</time></trkpt><trkpt lat="45.74879848906564" lon="11.274741549621288"><ele>556.0</ele><time>2026-04-26T11:54:36.998Z</time></trkpt><trkpt lat="45.74871512827882" lon="11.274839906170337"><ele>557.25</ele><time>2026-04-26T11:54:37.998Z</time></trkpt><trkpt lat="45.74863977071569" lon="11.274953773177376"><ele>558.5</ele><time>2026-04-26T11:54:38.998Z</time></trkpt><trkpt lat="45.74854094631313" lon="11.275036828794446"><ele>559.75</ele><time>2026-04-26T11:54:39.998Z</time></trkpt><trkpt lat="45.748434338635285" lon="11.27510961057582"><ele>561.0</ele><time>2026-04-26T11:54:40.997Z</time></trkpt><trkpt lat="45.7483149557342" lon="11.275183189820213"><ele>561.0</ele><time>2026-04-26T11:54:41.997Z</time></trkpt><trkpt lat="45.74820451116186" lon="11.275254854035753"><ele>561.0</ele><time>2026-04-26T11:54:42.997Z</time></trkpt><trkpt lat="45.74809706883603" lon="11.275346368703605"><ele>561.0</ele><time>2026-04-26T11:54:43.997Z</time></trkpt><trkpt lat="45.74799672444145" lon="11.275428609027893"><ele>561.0</ele><time>2026-04-26T11:54:44.997Z</time></trkpt><trkpt lat="45.74790497368181" lon="11.27551168910227"><ele>561.0</ele><time>2026-04-26T11:54:45.997Z</time></trkpt><trkpt lat="45.74781369107233" lon="11.275598317144059"><ele>561.0</ele><time>2026-04-26T11:54:46.997Z</time></trkpt><trkpt lat="45.74772981630969" lon="11.275687614622468"><ele>561.0</ele><time>2026-04-26T11:54:47.997Z</time></trkpt><trkpt lat="45.7476537062144" lon="11.275771851207521"><ele>561.0</ele><time>2026-04-26T11:54:48.997Z</time></trkpt><trkpt lat="45.747587814589416" lon="11.275844584822602"><ele>561.0</ele><time>2026-04-26T11:54:49.997Z</time></trkpt><trkpt lat="45.74752019693599" lon="11.27595523121865"><ele>562.4</ele><time>2026-04-26T11:54:51.997Z</time></trkpt><trkpt lat="45.7475866746196" lon="11.27607048371164"><ele>563.8</ele><time>2026-04-26T11:54:54.997Z</time></trkpt><trkpt lat="45.74766757443282" lon="11.276078696662573"><ele>565.1999999999999</ele><time>2026-04-26T11:54:55.997Z</time></trkpt><trkpt lat="45.74776506023848" lon="11.276073520055734"><ele>566.6</ele><time>2026-04-26T11:54:56.997Z</time></trkpt><trkpt lat="45.74787308374864" lon="11.276091523940966"><ele>568.0</ele><time>2026-04-26T11:54:57.997Z</time></trkpt><trkpt lat="45.74798931890219" lon="11.276134792657153"><ele>571.5</ele><time>2026-04-26T11:54:58.997Z</time></trkpt><trkpt lat="45.748093902245316" lon="11.276214872099752"><ele>575.0</ele><time>2026-04-26T11:54:59.997Z</time></trkpt><trkpt lat="45.74820210956474" lon="11.276286572889505"><ele>578.5</ele><time>2026-04-26T11:55:00.997Z</time></trkpt><trkpt lat="45.74831558901048" lon="11.276333173909515"><ele>582.0</ele><time>2026-04-26T11:55:01.997Z</time></trkpt><trkpt lat="45.74843581797721" lon="11.276374987067035"><ele>584.75</ele><time>2026-04-26T11:55:02.997Z</time></trkpt><trkpt lat="45.748563444573634" lon="11.276412567143401"><ele>587.5</ele><time>2026-04-26T11:55:03.997Z</time></trkpt><trkpt lat="45.74868553831597" lon="11.276446806938528"><ele>590.25</ele><time>2026-04-26T11:55:04.997Z</time></trkpt><trkpt lat="45.748792495947356" lon="11.276484436529284"><ele>593.0</ele><time>2026-04-26T11:55:05.997Z</time></trkpt><trkpt lat="45.74889138095207" lon="11.276535293818089"><ele>593.0</ele><time>2026-04-26T11:55:06.997Z</time></trkpt><trkpt lat="45.74897952539881" lon="11.27658637438163"><ele>593.0</ele><time>2026-04-26T11:55:07.997Z</time></trkpt><trkpt lat="45.74906448774045" lon="11.276612994508927"><ele>593.0</ele><time>2026-04-26T11:55:08.997Z</time></trkpt><trkpt lat="45.749155012373635" lon="11.276589162206117"><ele>593.0</ele><time>2026-04-26T11:55:09.997Z</time></trkpt><trkpt lat="45.749249011288306" lon="11.276548911648721"><ele>593.0</ele><time>2026-04-26T11:55:10.997Z</time></trkpt><trkpt lat="45.74934679457868" lon="11.276528059249316"><ele>596.1999999999999</ele><time>2026-04-26T11:55:11.997Z</time></trkpt><trkpt lat="45.74944103158165" lon="11.276518154399344"><ele>599.4</ele><time>2026-04-26T11:55:12.997Z</time></trkpt><trkpt lat="45.749546783097834" lon="11.27652340874308"><ele>602.5999999999999</ele><time>2026-04-26T11:55:13.997Z</time></trkpt><trkpt lat="45.749659166658574" lon="11.276520930335444"><ele>605.8</ele><time>2026-04-26T11:55:14.997Z</time></trkpt><trkpt lat="45.7497757911739" lon="11.27651945735648"><ele>609.0</ele><time>2026-04-26T11:55:15.997Z</time></trkpt><trkpt lat="45.749892275016805" lon="11.276522414380898"><ele>609.0</ele><time>2026-04-26T11:55:16.997Z</time></trkpt><trkpt lat="45.74999926042843" lon="11.276533901613782"><ele>609.0</ele><time>2026-04-26T11:55:17.997Z</time></trkpt><trkpt lat="45.75009567548606" lon="11.276564551796165"><ele>609.0</ele><time>2026-04-26T11:55:18.997Z</time></trkpt><trkpt lat="45.7501926883543" lon="11.276622145887956"><ele>609.0</ele><time>2026-04-26T11:55:19.997Z</time></trkpt><trkpt lat="45.75027538830381" lon="11.276703258129977"><ele>609.0</ele><time>2026-04-26T11:55:20.997Z</time></trkpt><trkpt lat="45.75033861549003" lon="11.27678004286911"><ele>610.5</ele><time>2026-04-26T11:55:21.997Z</time></trkpt><trkpt lat="45.75039316165205" lon="11.276875102032163"><ele>612.0</ele><time>2026-04-26T11:55:22.997Z</time></trkpt><trkpt lat="45.750393134051805" lon="11.276976351648756"><ele>613.5</ele><time>2026-04-26T11:55:23.997Z</time></trkpt><trkpt lat="45.750399814003394" lon="11.277076073848416"><ele>615.0</ele><time>2026-04-26T11:55:24.997Z</time></trkpt><trkpt lat="45.750414344889236" lon="11.277164208320155"><ele>616.5</ele><time>2026-04-26T11:55:25.997Z</time></trkpt><trkpt lat="45.750506000419726" lon="11.277301258733281"><ele>618.0</ele><time>2026-04-26T11:55:27.997Z</time></trkpt><trkpt lat="45.75059720144618" lon="11.27735740059476"><ele>618.0</ele><time>2026-04-26T11:55:28.997Z</time></trkpt><trkpt lat="45.750685848854474" lon="11.277428858115941"><ele>618.0</ele><time>2026-04-26T11:55:29.997Z</time></trkpt><trkpt lat="45.75077629793261" lon="11.277500109541094"><ele>618.0</ele><time>2026-04-26T11:55:30.997Z</time></trkpt><trkpt lat="45.75086767165449" lon="11.277558677858822"><ele>618.0</ele><time>2026-04-26T11:55:31.997Z</time></trkpt><trkpt lat="45.75093898396566" lon="11.277616066613113"><ele>618.0</ele><time>2026-04-26T11:55:32.997Z</time></trkpt><trkpt lat="45.750985940305746" lon="11.2776960264829"><ele>618.0</ele><time>2026-04-26T11:55:33.997Z</time></trkpt><trkpt lat="45.75100851473794" lon="11.277816201941434"><ele>618.0</ele><time>2026-04-26T11:55:34.997Z</time></trkpt><trkpt lat="45.75102745056891" lon="11.277964419359892"><ele>618.0</ele><time>2026-04-26T11:55:35.997Z</time></trkpt><trkpt lat="45.751045449239186" lon="11.278132029864791"><ele>618.0</ele><time>2026-04-26T11:55:36.997Z</time></trkpt><trkpt lat="45.75104102127649" lon="11.278296000871139"><ele>618.0</ele><time>2026-04-26T11:55:37.997Z</time></trkpt><trkpt lat="45.75103824369564" lon="11.278442839308116"><ele>614.6</ele><time>2026-04-26T11:55:38.997Z</time></trkpt><trkpt lat="45.75103702273112" lon="11.278575259458451"><ele>611.1999999999999</ele><time>2026-04-26T11:55:39.997Z</time></trkpt><trkpt lat="45.75104268074473" lon="11.27869700282044"><ele>607.8</ele><time>2026-04-26T11:55:40.997Z</time></trkpt><trkpt lat="45.751066519549134" lon="11.27881375161151"><ele>604.4</ele><time>2026-04-26T11:55:41.997Z</time></trkpt><trkpt lat="45.75110005743836" lon="11.27893983999206"><ele>601.0</ele><time>2026-04-26T11:55:42.997Z</time></trkpt><trkpt lat="45.75115655441066" lon="11.27906050173998"><ele>608.6</ele><time>2026-04-26T11:55:43.997Z</time></trkpt><trkpt lat="45.75121778024355" lon="11.279185252327737"><ele>616.2</ele><time>2026-04-26T11:55:44.997Z</time></trkpt><trkpt lat="45.75126454115018" lon="11.279335107111557"><ele>623.8</ele><time>2026-04-26T11:55:45.997Z</time></trkpt><trkpt lat="45.751272259653625" lon="11.279497299783838"><ele>631.4</ele><time>2026-04-26T11:55:46.997Z</time></trkpt><trkpt lat="45.751254238965664" lon="11.279655412527676"><ele>639.0</ele><time>2026-04-26T11:55:47.997Z</time></trkpt><trkpt lat="45.75120888861492" lon="11.279807379265103"><ele>639.6</ele><time>2026-04-26T11:55:48.997Z</time></trkpt><trkpt lat="45.751166702718535" lon="11.279962040368583"><ele>640.2</ele><time>2026-04-26T11:55:49.997Z</time></trkpt><trkpt lat="45.75112248733656" lon="11.280103497500482"><ele>640.8000000000001</ele><time>2026-04-26T11:55:50.997Z</time></trkpt><trkpt lat="45.75110976396073" lon="11.280236276183002"><ele>641.4</ele><time>2026-04-26T11:55:51.997Z</time></trkpt><trkpt lat="45.75111109064203" lon="11.280341697299077"><ele>642.0</ele><time>2026-04-26T11:55:52.997Z</time></trkpt><trkpt lat="45.751131685408645" lon="11.28044094787014"><ele>642.0</ele><time>2026-04-26T11:55:53.997Z</time></trkpt><trkpt lat="45.751164546198275" lon="11.280557001776652"><ele>642.0</ele><time>2026-04-26T11:55:54.997Z</time></trkpt><trkpt lat="45.75122235391917" lon="11.280644806827388"><ele>642.0</ele><time>2026-04-26T11:55:55.997Z</time></trkpt><trkpt lat="45.75125159700867" lon="11.280759009699933"><ele>642.0</ele><time>2026-04-26T11:55:56.997Z</time></trkpt><trkpt lat="45.75126895146199" lon="11.280866855123696"><ele>642.0</ele><time>2026-04-26T11:55:57.997Z</time></trkpt><trkpt lat="45.75127616242573" lon="11.28098293414003"><ele>642.0</ele><time>2026-04-26T11:55:58.997Z</time></trkpt><trkpt lat="45.7512655378704" lon="11.281095661091124"><ele>644.6</ele><time>2026-04-26T11:55:59.997Z</time></trkpt><trkpt lat="45.7512458286533" lon="11.281230503652086"><ele>647.2</ele><time>2026-04-26T11:56:00.997Z</time></trkpt><trkpt lat="45.75121924061718" lon="11.281355494870107"><ele>649.8</ele><time>2026-04-26T11:56:01.997Z</time></trkpt><trkpt lat="45.75119733545598" lon="11.28147391308993"><ele>652.4</ele><time>2026-04-26T11:56:02.997Z</time></trkpt><trkpt lat="45.7511412118563" lon="11.281580926593051"><ele>655.0</ele><time>2026-04-26T11:56:03.997Z</time></trkpt><trkpt lat="45.75107526188641" lon="11.281679200365042"><ele>649.0</ele><time>2026-04-26T11:56:04.997Z</time></trkpt><trkpt lat="45.750995202170124" lon="11.281770643132711"><ele>643.0</ele><time>2026-04-26T11:56:05.997Z</time></trkpt><trkpt lat="45.75090618293832" lon="11.281872748501405"><ele>637.0</ele><time>2026-04-26T11:56:06.997Z</time></trkpt><trkpt lat="45.750808008343334" lon="11.281983977189078"><ele>631.0</ele><time>2026-04-26T11:56:07.997Z</time></trkpt><trkpt lat="45.75071943391707" lon="11.282104515053913"><ele>631.0</ele><time>2026-04-26T11:56:08.997Z</time></trkpt><trkpt lat="45.75062835431186" lon="11.28219969837099"><ele>631.0</ele><time>2026-04-26T11:56:09.997Z</time></trkpt><trkpt lat="45.75054865267118" lon="11.282286061182196"><ele>631.0</ele><time>2026-04-26T11:56:10.997Z</time></trkpt><trkpt lat="45.75047572224556" lon="11.282341815535158"><ele>631.0</ele><time>2026-04-26T11:56:11.997Z</time></trkpt><trkpt lat="45.750408211057476" lon="11.28236957437649"><ele>631.0</ele><time>2026-04-26T11:56:12.997Z</time></trkpt><trkpt lat="45.75031322184267" lon="11.282432929496606"><ele>632.0</ele><time>2026-04-26T11:56:14.996Z</time></trkpt><trkpt lat="45.75023009471204" lon="11.282561631510255"><ele>633.0</ele><time>2026-04-26T11:56:16.996Z</time></trkpt><trkpt lat="45.750192722633805" lon="11.282646580613038"><ele>634.0</ele><time>2026-04-26T11:56:17.996Z</time></trkpt><trkpt lat="45.75015875458977" lon="11.282733631010858"><ele>635.0</ele><time>2026-04-26T11:56:18.996Z</time></trkpt><trkpt lat="45.75013065848999" lon="11.282831884348308"><ele>636.0</ele><time>2026-04-26T11:56:19.996Z</time></trkpt><trkpt lat="45.75010223264438" lon="11.28293646017542"><ele>637.0</ele><time>2026-04-26T11:56:20.996Z</time></trkpt><trkpt lat="45.750068155578525" lon="11.28302194961809"><ele>638.1666666666667</ele><time>2026-04-26T11:56:21.996Z</time></trkpt><trkpt lat="45.750063954984554" lon="11.283112663386433"><ele>639.3333333333334</ele><time>2026-04-26T11:56:22.996Z</time></trkpt><trkpt lat="45.75003548736071" lon="11.283243746079457"><ele>640.5</ele><time>2026-04-26T11:56:24.996Z</time></trkpt><trkpt lat="45.75010629492498" lon="11.283326815112355"><ele>641.6666666666666</ele><time>2026-04-26T11:56:26.996Z</time></trkpt><trkpt lat="45.75019116606663" lon="11.283351316515603"><ele>642.8333333333333</ele><time>2026-04-26T11:56:27.996Z</time></trkpt><trkpt lat="45.750266260072245" lon="11.283398762141564"><ele>644.0</ele><time>2026-04-26T11:56:28.996Z</time></trkpt><trkpt lat="45.750327087343635" lon="11.283466861671958"><ele>648.0</ele><time>2026-04-26T11:56:29.996Z</time></trkpt><trkpt lat="45.75036909437184" lon="11.283560993141435"><ele>652.0</ele><time>2026-04-26T11:56:30.996Z</time></trkpt><trkpt lat="45.750375175158965" lon="11.283684352232545"><ele>656.0</ele><time>2026-04-26T11:56:31.996Z</time></trkpt><trkpt lat="45.75034517550567" lon="11.283842904940048"><ele>660.0</ele><time>2026-04-26T11:56:32.996Z</time></trkpt><trkpt lat="45.75029830268419" lon="11.283971197313383"><ele>664.0</ele><time>2026-04-26T11:56:33.996Z</time></trkpt><trkpt lat="45.750243578734654" lon="11.284130171434148"><ele>658.5</ele><time>2026-04-26T11:56:34.996Z</time></trkpt><trkpt lat="45.750181148061934" lon="11.284302781850032"><ele>653.0</ele><time>2026-04-26T11:56:35.996Z</time></trkpt><trkpt lat="45.75010025489053" lon="11.28443366474938"><ele>647.5</ele><time>2026-04-26T11:56:36.996Z</time></trkpt><trkpt lat="45.75002648235942" lon="11.284541661473886"><ele>642.0</ele><time>2026-04-26T11:56:37.996Z</time></trkpt><trkpt lat="45.74996577200248" lon="11.284663407708027"><ele>642.6</ele><time>2026-04-26T11:56:38.996Z</time></trkpt><trkpt lat="45.74992629107296" lon="11.2847907121564"><ele>643.2</ele><time>2026-04-26T11:56:39.996Z</time></trkpt><trkpt lat="45.74989666764532" lon="11.284943696620774"><ele>643.8</ele><time>2026-04-26T11:56:40.996Z</time></trkpt><trkpt lat="45.74991620023212" lon="11.285115553796349"><ele>644.4</ele><time>2026-04-26T11:56:41.996Z</time></trkpt><trkpt lat="45.749953594739296" lon="11.28526536564428"><ele>645.0</ele><time>2026-04-26T11:56:42.996Z</time></trkpt><trkpt lat="45.750005964405275" lon="11.28536930951123"><ele>645.0</ele><time>2026-04-26T11:56:43.996Z</time></trkpt><trkpt lat="45.7500492610856" lon="11.285455729062"><ele>645.0</ele><time>2026-04-26T11:56:44.996Z</time></trkpt><trkpt lat="45.75008366408437" lon="11.285544981202973"><ele>645.0</ele><time>2026-04-26T11:56:45.996Z</time></trkpt><trkpt lat="45.75011716564946" lon="11.285681319975224"><ele>645.0</ele><time>2026-04-26T11:56:47.996Z</time></trkpt><trkpt lat="45.75007897657732" lon="11.285766445228367"><ele>645.0</ele><time>2026-04-26T11:56:50.996Z</time></trkpt><trkpt lat="45.75005362143565" lon="11.285852427139824"><ele>645.0</ele><time>2026-04-26T11:57:26.998Z</time></trkpt><trkpt lat="45.750113969527405" lon="11.285938428529906"><ele>644.8</ele><time>2026-04-26T11:57:30.999Z</time></trkpt><trkpt lat="45.75019251552673" lon="11.285998295948438"><ele>644.6</ele><time>2026-04-26T11:57:32.999Z</time></trkpt><trkpt lat="45.75025831639254" lon="11.28604345113298"><ele>644.4000000000001</ele><time>2026-04-26T11:57:33.999Z</time></trkpt><trkpt lat="45.75035102418492" lon="11.286090345005816"><ele>644.2</ele><time>2026-04-26T11:57:34.999Z</time></trkpt><trkpt lat="45.75044418960362" lon="11.286154259130281"><ele>644.0</ele><time>2026-04-26T11:57:35.999Z</time></trkpt><trkpt lat="45.75053495610662" lon="11.286224860411643"><ele>646.0</ele><time>2026-04-26T11:57:36.999Z</time></trkpt><trkpt lat="45.75061503564261" lon="11.286319369068146"><ele>648.0</ele><time>2026-04-26T11:57:37.999Z</time></trkpt><trkpt lat="45.75064699669416" lon="11.286457796521956"><ele>650.0</ele><time>2026-04-26T11:57:38.999Z</time></trkpt><trkpt lat="45.75064898341937" lon="11.286614478393266"><ele>652.0</ele><time>2026-04-26T11:57:39.999Z</time></trkpt><trkpt lat="45.75064028249823" lon="11.286780502617592"><ele>654.0</ele><time>2026-04-26T11:57:40.999Z</time></trkpt><trkpt lat="45.75060182980607" lon="11.286930384671845"><ele>654.0</ele><time>2026-04-26T11:57:41.999Z</time></trkpt><trkpt lat="45.75055532637889" lon="11.287075668827942"><ele>654.0</ele><time>2026-04-26T11:57:43Z</time></trkpt><trkpt lat="45.75051922148852" lon="11.28721318893614"><ele>654.0</ele><time>2026-04-26T11:57:44Z</time></trkpt><trkpt lat="45.75050242389027" lon="11.287332266588542"><ele>654.0</ele><time>2026-04-26T11:57:45Z</time></trkpt><trkpt lat="45.75050803280696" lon="11.287437638041173"><ele>654.0</ele><time>2026-04-26T11:57:46Z</time></trkpt><trkpt lat="45.75054090241477" lon="11.287538089663698"><ele>654.75</ele><time>2026-04-26T11:57:47Z</time></trkpt><trkpt lat="45.75061244771995" lon="11.287616645105086"><ele>655.5</ele><time>2026-04-26T11:57:48Z</time></trkpt><trkpt lat="45.750718570615646" lon="11.287671513485483"><ele>656.25</ele><time>2026-04-26T11:57:49Z</time></trkpt><trkpt lat="45.75084736287767" lon="11.287666771687418"><ele>657.0</ele><time>2026-04-26T11:57:50Z</time></trkpt><trkpt lat="45.75097689435397" lon="11.28766501038607"><ele>660.2</ele><time>2026-04-26T11:57:51Z</time></trkpt><trkpt lat="45.75109652055206" lon="11.287675710140677"><ele>663.4000000000001</ele><time>2026-04-26T11:57:52Z</time></trkpt><trkpt lat="45.75120221819398" lon="11.287699283846528"><ele>666.5999999999999</ele><time>2026-04-26T11:57:53Z</time></trkpt><trkpt lat="45.75129877901322" lon="11.287761972276986"><ele>669.8</ele><time>2026-04-26T11:57:54Z</time></trkpt><trkpt lat="45.75136738331191" lon="11.28787350831286"><ele>673.0</ele><time>2026-04-26T11:57:55Z</time></trkpt><trkpt lat="45.75141599229432" lon="11.288003049499098"><ele>673.75</ele><time>2026-04-26T11:57:56Z</time></trkpt><trkpt lat="45.751438678617575" lon="11.288155977338706"><ele>674.5</ele><time>2026-04-26T11:57:57Z</time></trkpt><trkpt lat="45.75145453761768" lon="11.288319761323919"><ele>675.25</ele><time>2026-04-26T11:57:58Z</time></trkpt><trkpt lat="45.75146650831436" lon="11.288489265324875"><ele>676.0</ele><time>2026-04-26T11:57:59Z</time></trkpt><trkpt lat="45.751480832106644" lon="11.288652792265134"><ele>676.0</ele><time>2026-04-26T11:58:00Z</time></trkpt><trkpt lat="45.75149257547219" lon="11.288792040200917"><ele>676.0</ele><time>2026-04-26T11:58:01Z</time></trkpt><trkpt lat="45.75149480997658" lon="11.288899876753815"><ele>676.0</ele><time>2026-04-26T11:58:02Z</time></trkpt><trkpt lat="45.75147583766677" lon="11.288987166951316"><ele>676.0</ele><time>2026-04-26T11:58:03Z</time></trkpt><trkpt lat="45.751431453114364" lon="11.289057086647814"><ele>676.0</ele><time>2026-04-26T11:58:04Z</time></trkpt><trkpt lat="45.75136977935391" lon="11.289116344669994"><ele>676.0</ele><time>2026-04-26T11:58:05Z</time></trkpt><trkpt lat="45.75129519287291" lon="11.289169207375226"><ele>676.0</ele><time>2026-04-26T11:58:06Z</time></trkpt><trkpt lat="45.75121915716897" lon="11.289226638086935"><ele>676.0</ele><time>2026-04-26T11:58:07Z</time></trkpt><trkpt lat="45.75115130133343" lon="11.289268025724533"><ele>676.0</ele><time>2026-04-26T11:58:08Z</time></trkpt><trkpt lat="45.75108774237239" lon="11.289294258713179"><ele>676.0</ele><time>2026-04-26T11:58:09Z</time></trkpt><trkpt lat="45.75101750141883" lon="11.289317909132885"><ele>676.0</ele><time>2026-04-26T11:58:10Z</time></trkpt><trkpt lat="45.750921964335284" lon="11.289330965920582"><ele>676.0</ele><time>2026-04-26T11:58:11Z</time></trkpt><trkpt lat="45.75080507982611" lon="11.289325695450492"><ele>676.0</ele><time>2026-04-26T11:58:12Z</time></trkpt><trkpt lat="45.75068004207386" lon="11.289331554745326"><ele>676.0</ele><time>2026-04-26T11:58:13Z</time></trkpt><trkpt lat="45.75055760637338" lon="11.28934127388914"><ele>676.0</ele><time>2026-04-26T11:58:14Z</time></trkpt><trkpt lat="45.7504418496609" lon="11.28937010300436"><ele>676.0</ele><time>2026-04-26T11:58:15Z</time></trkpt><trkpt lat="45.75032655739849" lon="11.289434798276469"><ele>676.0</ele><time>2026-04-26T11:58:16Z</time></trkpt><trkpt lat="45.75022357075678" lon="11.28949846525953"><ele>676.0</ele><time>2026-04-26T11:58:17Z</time></trkpt><trkpt lat="45.75013163340676" lon="11.289544410654587"><ele>676.0</ele><time>2026-04-26T11:58:18Z</time></trkpt><trkpt lat="45.750025357816824" lon="11.28956632616083"><ele>676.0</ele><time>2026-04-26T11:58:19Z</time></trkpt><trkpt lat="45.7499151033895" lon="11.289572135821885"><ele>676.0</ele><time>2026-04-26T11:58:20Z</time></trkpt><trkpt lat="45.749802187200686" lon="11.289538205316646"><ele>675.8</ele><time>2026-04-26T11:58:21Z</time></trkpt><trkpt lat="45.74970511873978" lon="11.289506776365293"><ele>675.5999999999999</ele><time>2026-04-26T11:58:22Z</time></trkpt><trkpt lat="45.74961435417329" lon="11.289482866940045"><ele>675.4</ele><time>2026-04-26T11:58:23Z</time></trkpt><trkpt lat="45.749519085081914" lon="11.289459945827874"><ele>675.2</ele><time>2026-04-26T11:58:24Z</time></trkpt><trkpt lat="45.74941613808811" lon="11.28946090991283"><ele>675.0</ele><time>2026-04-26T11:58:25Z</time></trkpt><trkpt lat="45.74931943234993" lon="11.28947445622708"><ele>675.8</ele><time>2026-04-26T11:58:26Z</time></trkpt><trkpt lat="45.749222204615656" lon="11.289505522988382"><ele>676.6</ele><time>2026-04-26T11:58:27Z</time></trkpt><trkpt lat="45.74912556706069" lon="11.28959549003136"><ele>677.4000000000001</ele><time>2026-04-26T11:58:28Z</time></trkpt><trkpt lat="45.749055319324206" lon="11.289711511009376"><ele>678.2</ele><time>2026-04-26T11:58:29Z</time></trkpt><trkpt lat="45.748991055393255" lon="11.289860104203004"><ele>679.0</ele><time>2026-04-26T11:58:30Z</time></trkpt><trkpt lat="45.748940814873066" lon="11.290026623560058"><ele>681.75</ele><time>2026-04-26T11:58:31Z</time></trkpt><trkpt lat="45.748884841416306" lon="11.290204946286183"><ele>684.5</ele><time>2026-04-26T11:58:32Z</time></trkpt><trkpt lat="45.74884077086558" lon="11.29038592847134"><ele>687.25</ele><time>2026-04-26T11:58:33Z</time></trkpt><trkpt lat="45.74880228731616" lon="11.290566698239003"><ele>690.0</ele><time>2026-04-26T11:58:34Z</time></trkpt><trkpt lat="45.748785095383674" lon="11.29076053524195"><ele>693.0</ele><time>2026-04-26T11:58:35Z</time></trkpt><trkpt lat="45.74876332764719" lon="11.290964071115653"><ele>696.0</ele><time>2026-04-26T11:58:36Z</time></trkpt><trkpt lat="45.74873200489494" lon="11.291160055074181"><ele>699.0</ele><time>2026-04-26T11:58:37Z</time></trkpt><trkpt lat="45.748719332227196" lon="11.29134127082751"><ele>702.0</ele><time>2026-04-26T11:58:38Z</time></trkpt><trkpt lat="45.74870515973919" lon="11.29152946301795"><ele>704.0</ele><time>2026-04-26T11:58:39Z</time></trkpt><trkpt lat="45.748677506497096" lon="11.29171280901648"><ele>706.0</ele><time>2026-04-26T11:58:40Z</time></trkpt><trkpt lat="45.74865074677952" lon="11.291886487554775"><ele>708.0</ele><time>2026-04-26T11:58:41Z</time></trkpt><trkpt lat="45.74862229196855" lon="11.2920577492505"><ele>710.0</ele><time>2026-04-26T11:58:42Z</time></trkpt><trkpt lat="45.74856149976755" lon="11.292210598852973"><ele>708.25</ele><time>2026-04-26T11:58:43Z</time></trkpt><trkpt lat="45.74849052171248" lon="11.292358978330494"><ele>706.5</ele><time>2026-04-26T11:58:44Z</time></trkpt><trkpt lat="45.74841758982863" lon="11.292507819878319"><ele>704.75</ele><time>2026-04-26T11:58:45Z</time></trkpt><trkpt lat="45.748344841400105" lon="11.292656603720559"><ele>703.0</ele><time>2026-04-26T11:58:46Z</time></trkpt><trkpt lat="45.74827331858822" lon="11.292800432798463"><ele>703.0</ele><time>2026-04-26T11:58:47Z</time></trkpt><trkpt lat="45.74820442803569" lon="11.292940921772196"><ele>703.0</ele><time>2026-04-26T11:58:48Z</time></trkpt><trkpt lat="45.74812911648084" lon="11.293059011093353"><ele>703.0</ele><time>2026-04-26T11:58:49Z</time></trkpt><trkpt lat="45.74805544770382" lon="11.29316457548753"><ele>703.0</ele><time>2026-04-26T11:58:50Z</time></trkpt><trkpt lat="45.74797490616918" lon="11.293259845154283"><ele>703.0</ele><time>2026-04-26T11:58:51Z</time></trkpt><trkpt lat="45.74788665667319" lon="11.29334396856827"><ele>703.0</ele><time>2026-04-26T11:58:52Z</time></trkpt><trkpt lat="45.7478026230664" lon="11.293434530423843"><ele>703.0</ele><time>2026-04-26T11:58:53Z</time></trkpt><trkpt lat="45.74772296205786" lon="11.293525794690995"><ele>703.0</ele><time>2026-04-26T11:58:54Z</time></trkpt><trkpt lat="45.747647849610395" lon="11.293614823357629"><ele>703.0</ele><time>2026-04-26T11:58:55Z</time></trkpt><trkpt lat="45.747578008096944" lon="11.293705301337749"><ele>703.0</ele><time>2026-04-26T11:58:56Z</time></trkpt><trkpt lat="45.74750891455029" lon="11.293787921564201"><ele>703.0</ele><time>2026-04-26T11:58:57Z</time></trkpt><trkpt lat="45.74745394054686" lon="11.2938791823426"><ele>703.0</ele><time>2026-04-26T11:58:58Z</time></trkpt><trkpt lat="45.74741013122869" lon="11.293982858883354"><ele>703.0</ele><time>2026-04-26T11:58:59Z</time></trkpt><trkpt lat="45.74738929404465" lon="11.2941097960573"><ele>703.0</ele><time>2026-04-26T11:59:00Z</time></trkpt><trkpt lat="45.74737189967769" lon="11.294210645272699"><ele>703.0</ele><time>2026-04-26T11:59:01Z</time></trkpt><trkpt lat="45.747309190010384" lon="11.294319225098318"><ele>703.0</ele><time>2026-04-26T11:59:03Z</time></trkpt><trkpt lat="45.747273873447085" lon="11.294423003204027"><ele>704.0</ele><time>2026-04-26T11:59:05Z</time></trkpt><trkpt lat="45.74726998480916" lon="11.294544974343307"><ele>705.0</ele><time>2026-04-26T11:59:07Z</time></trkpt><trkpt lat="45.74723535126386" lon="11.294694622297467"><ele>706.0</ele><time>2026-04-26T11:59:09Z</time></trkpt><trkpt lat="45.747204590011144" lon="11.294790406627861"><ele>707.0</ele><time>2026-04-26T11:59:09.999Z</time></trkpt><trkpt lat="45.747170678912134" lon="11.294909909861799"><ele>708.0</ele><time>2026-04-26T11:59:10.999Z</time></trkpt><trkpt lat="45.74714384872205" lon="11.295053231791961"><ele>708.0</ele><time>2026-04-26T11:59:11.999Z</time></trkpt><trkpt lat="45.74713306794276" lon="11.295200634180794"><ele>708.0</ele><time>2026-04-26T11:59:12.999Z</time></trkpt><trkpt lat="45.74711355114675" lon="11.2953406824196"><ele>708.0</ele><time>2026-04-26T11:59:13.999Z</time></trkpt><trkpt lat="45.747105359096565" lon="11.295464505133024"><ele>708.0</ele><time>2026-04-26T11:59:14.999Z</time></trkpt><trkpt lat="45.74711810079032" lon="11.29557419171275"><ele>708.0</ele><time>2026-04-26T11:59:15.999Z</time></trkpt><trkpt lat="45.74714395783369" lon="11.295674142007657"><ele>708.0</ele><time>2026-04-26T11:59:16.999Z</time></trkpt><trkpt lat="45.74718820888494" lon="11.295751274461592"><ele>710.5</ele><time>2026-04-26T11:59:17.999Z</time></trkpt><trkpt lat="45.74723280217626" lon="11.295829108894443"><ele>713.0</ele><time>2026-04-26T11:59:18.999Z</time></trkpt><trkpt lat="45.747256160143074" lon="11.295917318171547"><ele>715.5</ele><time>2026-04-26T11:59:19.999Z</time></trkpt><trkpt lat="45.74726160385397" lon="11.296075939958614"><ele>718.0</ele><time>2026-04-26T11:59:21.999Z</time></trkpt><trkpt lat="45.747242153840475" lon="11.296194122605652"><ele>720.5</ele><time>2026-04-26T11:59:23.999Z</time></trkpt><trkpt lat="45.7471788510596" lon="11.296230543645335"><ele>723.0</ele><time>2026-04-26T11:59:25.999Z</time></trkpt><trkpt lat="45.747103154788384" lon="11.296212289973047"><ele>723.0</ele><time>2026-04-26T11:59:26.999Z</time></trkpt><trkpt lat="45.74700250478252" lon="11.296204342137761"><ele>723.0</ele><time>2026-04-26T11:59:27.999Z</time></trkpt><trkpt lat="45.746902641719814" lon="11.296189632737482"><ele>723.0</ele><time>2026-04-26T11:59:28.999Z</time></trkpt><trkpt lat="45.74680731206566" lon="11.296194811110718"><ele>723.0</ele><time>2026-04-26T11:59:29.999Z</time></trkpt><trkpt lat="45.74672240185016" lon="11.296212479983861"><ele>723.0</ele><time>2026-04-26T11:59:30.999Z</time></trkpt><trkpt lat="45.74664145948961" lon="11.29625021613053"><ele>724.2</ele><time>2026-04-26T11:59:31.999Z</time></trkpt><trkpt lat="45.74657074330492" lon="11.296305842183836"><ele>725.4</ele><time>2026-04-26T11:59:32.999Z</time></trkpt><trkpt lat="45.74651425393829" lon="11.296406578943195"><ele>726.6</ele><time>2026-04-26T11:59:33.999Z</time></trkpt><trkpt lat="45.74645002234064" lon="11.29651776595472"><ele>727.8000000000001</ele><time>2026-04-26T11:59:34.999Z</time></trkpt><trkpt lat="45.7463912665802" lon="11.296649684102242"><ele>729.0</ele><time>2026-04-26T11:59:35.999Z</time></trkpt><trkpt lat="45.74632762043554" lon="11.296791003159624"><ele>729.0</ele><time>2026-04-26T11:59:36.999Z</time></trkpt><trkpt lat="45.746259995330206" lon="11.296927581645464"><ele>729.0</ele><time>2026-04-26T11:59:37.999Z</time></trkpt><trkpt lat="45.74619933119488" lon="11.297060629959443"><ele>729.0</ele><time>2026-04-26T11:59:38.999Z</time></trkpt><trkpt lat="45.74614921594237" lon="11.297181735034348"><ele>729.0</ele><time>2026-04-26T11:59:39.999Z</time></trkpt><trkpt lat="45.74611661548187" lon="11.297293299185371"><ele>729.0</ele><time>2026-04-26T11:59:40.999Z</time></trkpt><trkpt lat="45.74608602535995" lon="11.2973901874454"><ele>728.5</ele><time>2026-04-26T11:59:41.999Z</time></trkpt><trkpt lat="45.746056115882055" lon="11.297469789211988"><ele>728.0</ele><time>2026-04-26T11:59:42.999Z</time></trkpt><trkpt lat="45.74602801186924" lon="11.297587854918618"><ele>727.5</ele><time>2026-04-26T11:59:44.999Z</time></trkpt><trkpt lat="45.74612322099206" lon="11.29762567896495"><ele>727.0</ele><time>2026-04-26T12:00:02.999Z</time></trkpt><trkpt lat="45.74611724492381" lon="11.29774445549451"><ele>726.5</ele><time>2026-04-26T12:00:04.999Z</time></trkpt><trkpt lat="45.74608001651293" lon="11.297817779200068"><ele>726.0</ele><time>2026-04-26T12:00:05.999Z</time></trkpt><trkpt lat="45.74601885279096" lon="11.297877722809162"><ele>726.0</ele><time>2026-04-26T12:00:06.999Z</time></trkpt><trkpt lat="45.74595361715064" lon="11.29794252606877"><ele>726.0</ele><time>2026-04-26T12:00:07.999Z</time></trkpt><trkpt lat="45.74588630565548" lon="11.298014063182631"><ele>726.0</ele><time>2026-04-26T12:00:08.999Z</time></trkpt><trkpt lat="45.74581815379989" lon="11.298097410596885"><ele>726.0</ele><time>2026-04-26T12:00:09.999Z</time></trkpt><trkpt lat="45.74574700130989" lon="11.298202059707403"><ele>726.0</ele><time>2026-04-26T12:00:10.999Z</time></trkpt><trkpt lat="45.745662880242314" lon="11.298308446725386"><ele>725.75</ele><time>2026-04-26T12:00:11.999Z</time></trkpt><trkpt lat="45.745584817223445" lon="11.298432914300486"><ele>725.5</ele><time>2026-04-26T12:00:12.999Z</time></trkpt><trkpt lat="45.74551489014895" lon="11.298571822730926"><ele>725.25</ele><time>2026-04-26T12:00:13.999Z</time></trkpt><trkpt lat="45.74545275584791" lon="11.298730980708882"><ele>725.0</ele><time>2026-04-26T12:00:14.999Z</time></trkpt><trkpt lat="45.74538569014049" lon="11.298889424557213"><ele>722.75</ele><time>2026-04-26T12:00:15.999Z</time></trkpt><trkpt lat="45.745318937032735" lon="11.299056654568457"><ele>720.5</ele><time>2026-04-26T12:00:16.999Z</time></trkpt><trkpt lat="45.74524235402858" lon="11.29922147573043"><ele>718.25</ele><time>2026-04-26T12:00:17.999Z</time></trkpt><trkpt lat="45.745161644074045" lon="11.299388826935292"><ele>716.0</ele><time>2026-04-26T12:00:18.999Z</time></trkpt><trkpt lat="45.74508140195064" lon="11.299559991312051"><ele>716.0</ele><time>2026-04-26T12:00:19.999Z</time></trkpt><trkpt lat="45.745006841584" lon="11.299727066007131"><ele>716.0</ele><time>2026-04-26T12:00:20.999Z</time></trkpt><trkpt lat="45.744934194376626" lon="11.299893058279947"><ele>716.0</ele><time>2026-04-26T12:00:21.999Z</time></trkpt><trkpt lat="45.74485933064593" lon="11.300062688952282"><ele>716.0</ele><time>2026-04-26T12:00:22.999Z</time></trkpt><trkpt lat="45.74478704431218" lon="11.300236136449975"><ele>718.0</ele><time>2026-04-26T12:00:23.999Z</time></trkpt><trkpt lat="45.74471918414848" lon="11.300394539213041"><ele>720.0</ele><time>2026-04-26T12:00:24.999Z</time></trkpt><trkpt lat="45.744652395937536" lon="11.300533155937938"><ele>722.0</ele><time>2026-04-26T12:00:25.999Z</time></trkpt><trkpt lat="45.74459663562412" lon="11.300658792266566"><ele>724.0</ele><time>2026-04-26T12:00:26.999Z</time></trkpt><trkpt lat="45.744555255172685" lon="11.300755864245744"><ele>726.0</ele><time>2026-04-26T12:00:27.999Z</time></trkpt><trkpt lat="45.74453242565207" lon="11.300893893408086"><ele>728.8</ele><time>2026-04-26T12:00:29.999Z</time></trkpt><trkpt lat="45.74454105705694" lon="11.300997241072073"><ele>731.5999999999999</ele><time>2026-04-26T12:00:31.999Z</time></trkpt><trkpt lat="45.74449986311002" lon="11.3011515655535"><ele>734.4</ele><time>2026-04-26T12:00:33.999Z</time></trkpt><trkpt lat="45.744461662411155" lon="11.301251836818986"><ele>737.2</ele><time>2026-04-26T12:00:34.999Z</time></trkpt><trkpt lat="45.74443265109897" lon="11.301374402343876"><ele>740.0</ele><time>2026-04-26T12:00:35.999Z</time></trkpt><trkpt lat="45.74440766730854" lon="11.301508021758604"><ele>735.6</ele><time>2026-04-26T12:00:36.999Z</time></trkpt><trkpt lat="45.744375336202886" lon="11.301643633894939"><ele>731.2</ele><time>2026-04-26T12:00:37.999Z</time></trkpt><trkpt lat="45.744346733576165" lon="11.301787860302733"><ele>726.8</ele><time>2026-04-26T12:00:38.999Z</time></trkpt><trkpt lat="45.744322672698466" lon="11.301938557739133"><ele>722.4</ele><time>2026-04-26T12:00:39.999Z</time></trkpt><trkpt lat="45.7442979313582" lon="11.302091681023578"><ele>718.0</ele><time>2026-04-26T12:00:40.999Z</time></trkpt><trkpt lat="45.74427998896957" lon="11.302250118535756"><ele>718.0</ele><time>2026-04-26T12:00:41.999Z</time></trkpt><trkpt lat="45.74426169477043" lon="11.30240079326896"><ele>718.0</ele><time>2026-04-26T12:00:42.999Z</time></trkpt><trkpt lat="45.74424627849037" lon="11.302535953333495"><ele>718.0</ele><time>2026-04-26T12:00:43.999Z</time></trkpt><trkpt lat="45.74424385105928" lon="11.30266403639539"><ele>718.0</ele><time>2026-04-26T12:00:44.998Z</time></trkpt><trkpt lat="45.74423292474961" lon="11.30278101152775"><ele>718.0</ele><time>2026-04-26T12:00:45.998Z</time></trkpt><trkpt lat="45.74423293687253" lon="11.302883425749185"><ele>718.0</ele><time>2026-04-26T12:00:46.998Z</time></trkpt><trkpt lat="45.74424856437382" lon="11.302982292387075"><ele>718.0</ele><time>2026-04-26T12:00:47.998Z</time></trkpt><trkpt lat="45.74425522363832" lon="11.303087115660043"><ele>718.0</ele><time>2026-04-26T12:00:48.998Z</time></trkpt><trkpt lat="45.74425190393555" lon="11.303196705544227"><ele>718.0</ele><time>2026-04-26T12:00:49.998Z</time></trkpt><trkpt lat="45.74420887742078" lon="11.303287030699188"><ele>718.0</ele><time>2026-04-26T12:00:50.998Z</time></trkpt><trkpt lat="45.74417340256691" lon="11.303400539905983"><ele>718.0</ele><time>2026-04-26T12:00:51.998Z</time></trkpt><trkpt lat="45.744153569753735" lon="11.303535380737221"><ele>718.0</ele><time>2026-04-26T12:00:52.998Z</time></trkpt><trkpt lat="45.74413459170358" lon="11.303680955560973"><ele>718.0</ele><time>2026-04-26T12:00:53.998Z</time></trkpt><trkpt lat="45.74411598948021" lon="11.303836841217787"><ele>718.0</ele><time>2026-04-26T12:00:54.998Z</time></trkpt><trkpt lat="45.7440938817761" lon="11.3039979736186"><ele>718.0</ele><time>2026-04-26T12:00:55.998Z</time></trkpt><trkpt lat="45.74407300511374" lon="11.304161620799341"><ele>718.0</ele><time>2026-04-26T12:00:56.998Z</time></trkpt><trkpt lat="45.74405647284315" lon="11.304331325073507"><ele>718.25</ele><time>2026-04-26T12:00:57.998Z</time></trkpt><trkpt lat="45.74403743256393" lon="11.304513568233167"><ele>718.5</ele><time>2026-04-26T12:00:58.998Z</time></trkpt><trkpt lat="45.74401825041594" lon="11.304703676359644"><ele>718.75</ele><time>2026-04-26T12:00:59.998Z</time></trkpt><trkpt lat="45.74400200049773" lon="11.304891573168296"><ele>719.0</ele><time>2026-04-26T12:01:00.998Z</time></trkpt><trkpt lat="45.743987850267835" lon="11.305069070945281"><ele>719.2</ele><time>2026-04-26T12:01:01.998Z</time></trkpt><trkpt lat="45.74396980619629" lon="11.305226504363688"><ele>719.4000000000001</ele><time>2026-04-26T12:01:02.998Z</time></trkpt><trkpt lat="45.74394889563499" lon="11.305369712009806"><ele>719.6</ele><time>2026-04-26T12:01:03.998Z</time></trkpt><trkpt lat="45.743928809109036" lon="11.305502743491914"><ele>719.8</ele><time>2026-04-26T12:01:04.998Z</time></trkpt><trkpt lat="45.74391445900608" lon="11.305624560561528"><ele>720.0</ele><time>2026-04-26T12:01:05.998Z</time></trkpt><trkpt lat="45.743911434240886" lon="11.305724816349173"><ele>720.0</ele><time>2026-04-26T12:01:06.998Z</time></trkpt><trkpt lat="45.74393817222866" lon="11.305839311815282"><ele>720.0</ele><time>2026-04-26T12:01:08.998Z</time></trkpt><trkpt lat="45.74399861902413" lon="11.305905857594759"><ele>720.0</ele><time>2026-04-26T12:01:25.998Z</time></trkpt><trkpt lat="45.74407402489598" lon="11.306024555004464"><ele>720.0</ele><time>2026-04-26T12:01:27.998Z</time></trkpt><trkpt lat="45.744137636467386" lon="11.306120499576439"><ele>720.0</ele><time>2026-04-26T12:01:28.998Z</time></trkpt><trkpt lat="45.74420128854419" lon="11.30623813244122"><ele>720.0</ele><time>2026-04-26T12:01:29.998Z</time></trkpt><trkpt lat="45.74426770255866" lon="11.306364945356181"><ele>720.0</ele><time>2026-04-26T12:01:30.998Z</time></trkpt><trkpt lat="45.74431203245989" lon="11.30652208690566"><ele>720.0</ele><time>2026-04-26T12:01:31.998Z</time></trkpt><trkpt lat="45.744346331056086" lon="11.306693533873874"><ele>720.0</ele><time>2026-04-26T12:01:32.998Z</time></trkpt><trkpt lat="45.74436973742714" lon="11.306867213851815"><ele>724.5</ele><time>2026-04-26T12:01:33.998Z</time></trkpt><trkpt lat="45.744397061068" lon="11.307031708848278"><ele>729.0</ele><time>2026-04-26T12:01:34.998Z</time></trkpt><trkpt lat="45.744445690503646" lon="11.307183990524807"><ele>733.5</ele><time>2026-04-26T12:01:35.998Z</time></trkpt><trkpt lat="45.74451855769438" lon="11.30731842894416"><ele>738.0</ele><time>2026-04-26T12:01:36.998Z</time></trkpt><trkpt lat="45.74459863069222" lon="11.307444969735092"><ele>738.0</ele><time>2026-04-26T12:01:37.998Z</time></trkpt><trkpt lat="45.74468644102647" lon="11.307560890970718"><ele>738.0</ele><time>2026-04-26T12:01:38.998Z</time></trkpt><trkpt lat="45.74478080700431" lon="11.307666824699579"><ele>738.0</ele><time>2026-04-26T12:01:39.998Z</time></trkpt><trkpt lat="45.74487411474457" lon="11.307780618434238"><ele>738.0</ele><time>2026-04-26T12:01:40.998Z</time></trkpt><trkpt lat="45.74497133012133" lon="11.307885816444063"><ele>738.0</ele><time>2026-04-26T12:01:41.998Z</time></trkpt><trkpt lat="45.74507117131208" lon="11.307985896109086"><ele>738.0</ele><time>2026-04-26T12:01:42.998Z</time></trkpt><trkpt lat="45.74518277758355" lon="11.30806925825948"><ele>738.0</ele><time>2026-04-26T12:01:43.998Z</time></trkpt><trkpt lat="45.74530707521948" lon="11.308131900754672"><ele>738.0</ele><time>2026-04-26T12:01:44.998Z</time></trkpt><trkpt lat="45.74542084294009" lon="11.308147633213276"><ele>742.4</ele><time>2026-04-26T12:01:45.998Z</time></trkpt><trkpt lat="45.74548510494613" lon="11.308163844636155"><ele>746.8</ele><time>2026-04-26T12:01:46.998Z</time></trkpt><trkpt lat="45.74550342548541" lon="11.308013698014248"><ele>751.2</ele><time>2026-04-26T12:01:48.998Z</time></trkpt><trkpt lat="45.745480554528854" lon="11.307893883741247"><ele>755.6</ele><time>2026-04-26T12:01:49.998Z</time></trkpt><trkpt lat="45.74543964661873" lon="11.307762654937159"><ele>760.0</ele><time>2026-04-26T12:01:50.998Z</time></trkpt><trkpt lat="45.745393426858136" lon="11.307629531751715"><ele>760.5</ele><time>2026-04-26T12:01:51.998Z</time></trkpt><trkpt lat="45.74534457563605" lon="11.307485410816044"><ele>761.0</ele><time>2026-04-26T12:01:52.998Z</time></trkpt><trkpt lat="45.74529630465122" lon="11.307331268074835"><ele>761.5</ele><time>2026-04-26T12:01:53.998Z</time></trkpt><trkpt lat="45.745244189637425" lon="11.307173016189926"><ele>762.0</ele><time>2026-04-26T12:01:54.998Z</time></trkpt><trkpt lat="45.74519767872228" lon="11.307023824635412"><ele>760.0</ele><time>2026-04-26T12:01:55.998Z</time></trkpt><trkpt lat="45.745165126151335" lon="11.3068876475124"><ele>758.0</ele><time>2026-04-26T12:01:56.998Z</time></trkpt><trkpt lat="45.745168197807615" lon="11.306754459950866"><ele>756.0</ele><time>2026-04-26T12:01:57.998Z</time></trkpt><trkpt lat="45.745180729588384" lon="11.306628457396107"><ele>754.0</ele><time>2026-04-26T12:01:58.998Z</time></trkpt><trkpt lat="45.74520380352791" lon="11.306502331641381"><ele>752.0</ele><time>2026-04-26T12:01:59.998Z</time></trkpt><trkpt lat="45.745210926864424" lon="11.306363376453206"><ele>752.0</ele><time>2026-04-26T12:02:00.998Z</time></trkpt><trkpt lat="45.74518803176702" lon="11.306216886490882"><ele>752.0</ele><time>2026-04-26T12:02:01.998Z</time></trkpt><trkpt lat="45.74514669784908" lon="11.306081932783226"><ele>752.0</ele><time>2026-04-26T12:02:02.998Z</time></trkpt><trkpt lat="45.74511681660437" lon="11.30595968789094"><ele>752.0</ele><time>2026-04-26T12:02:03.998Z</time></trkpt><trkpt lat="45.745105348731215" lon="11.305840452063368"><ele>752.0</ele><time>2026-04-26T12:02:04.998Z</time></trkpt><trkpt lat="45.745137380392094" lon="11.305735318728775"><ele>752.0</ele><time>2026-04-26T12:02:05.998Z</time></trkpt><trkpt lat="45.745196263884864" lon="11.30563953903303"><ele>752.0</ele><time>2026-04-26T12:02:06.998Z</time></trkpt><trkpt lat="45.74526555259869" lon="11.305551498287162"><ele>752.0</ele><time>2026-04-26T12:02:07.998Z</time></trkpt><trkpt lat="45.74534187854207" lon="11.305461759617955"><ele>752.0</ele><time>2026-04-26T12:02:08.998Z</time></trkpt><trkpt lat="45.74541899440407" lon="11.305366666636283"><ele>752.0</ele><time>2026-04-26T12:02:09.998Z</time></trkpt><trkpt lat="45.74549847158217" lon="11.305279024538942"><ele>755.0</ele><time>2026-04-26T12:02:10.998Z</time></trkpt><trkpt lat="45.745572408301264" lon="11.305208741692782"><ele>758.0</ele><time>2026-04-26T12:02:11.998Z</time></trkpt><trkpt lat="45.7456585702585" lon="11.305342268935162"><ele>761.0</ele><time>2026-04-26T12:02:13.998Z</time></trkpt><trkpt lat="45.7456907657437" lon="11.30545985531497"><ele>764.0</ele><time>2026-04-26T12:02:14.998Z</time></trkpt><trkpt lat="45.745731792542365" lon="11.305586275154479"><ele>767.0</ele><time>2026-04-26T12:02:15.998Z</time></trkpt><trkpt lat="45.745781917919615" lon="11.305723313930311"><ele>768.0</ele><time>2026-04-26T12:02:16.998Z</time></trkpt><trkpt lat="45.745837341862426" lon="11.305869675648653"><ele>769.0</ele><time>2026-04-26T12:02:17.998Z</time></trkpt><trkpt lat="45.74590037674186" lon="11.306026682314688"><ele>770.0</ele><time>2026-04-26T12:02:18.998Z</time></trkpt><trkpt lat="45.74596758234978" lon="11.306193682531692"><ele>771.0</ele><time>2026-04-26T12:02:19.998Z</time></trkpt><trkpt lat="45.74604158596169" lon="11.30636176418697"><ele>775.25</ele><time>2026-04-26T12:02:20.997Z</time></trkpt><trkpt lat="45.74611239946364" lon="11.30653797758997"><ele>779.5</ele><time>2026-04-26T12:02:21.997Z</time></trkpt><trkpt lat="45.74618373342471" lon="11.306718015690254"><ele>783.75</ele><time>2026-04-26T12:02:22.997Z</time></trkpt><trkpt lat="45.74624268531451" lon="11.306902809981512"><ele>788.0</ele><time>2026-04-26T12:02:23.997Z</time></trkpt><trkpt lat="45.746307006871845" lon="11.307072321278406"><ele>788.0</ele><time>2026-04-26T12:02:24.997Z</time></trkpt><trkpt lat="45.746368242585405" lon="11.307226555335053"><ele>788.0</ele><time>2026-04-26T12:02:25.997Z</time></trkpt><trkpt lat="45.746454080951864" lon="11.307340745381468"><ele>788.0</ele><time>2026-04-26T12:02:26.997Z</time></trkpt><trkpt lat="45.7465488298301" lon="11.30741211320604"><ele>788.0</ele><time>2026-04-26T12:02:27.997Z</time></trkpt><trkpt lat="45.74664042199546" lon="11.307486994311198"><ele>787.0</ele><time>2026-04-26T12:02:28.997Z</time></trkpt><trkpt lat="45.746729651479164" lon="11.30757855634674"><ele>786.0</ele><time>2026-04-26T12:02:29.997Z</time></trkpt><trkpt lat="45.746787253725316" lon="11.3077227780657"><ele>785.0</ele><time>2026-04-26T12:02:30.997Z</time></trkpt><trkpt lat="45.74684598579535" lon="11.30786817656074"><ele>784.0</ele><time>2026-04-26T12:02:31.997Z</time></trkpt><trkpt lat="45.74691311532087" lon="11.308023197373092"><ele>789.0</ele><time>2026-04-26T12:02:32.997Z</time></trkpt><trkpt lat="45.746976257396724" lon="11.308187476187525"><ele>794.0</ele><time>2026-04-26T12:02:33.997Z</time></trkpt><trkpt lat="45.7470362839598" lon="11.308355277023061"><ele>799.0</ele><time>2026-04-26T12:02:34.997Z</time></trkpt><trkpt lat="45.74709364109016" lon="11.308522033491801"><ele>804.0</ele><time>2026-04-26T12:02:35.997Z</time></trkpt><trkpt lat="45.7471397560274" lon="11.308684679938558"><ele>804.0</ele><time>2026-04-26T12:02:36.997Z</time></trkpt><trkpt lat="45.74718173217081" lon="11.308836404978306"><ele>804.0</ele><time>2026-04-26T12:02:37.997Z</time></trkpt><trkpt lat="45.74722098514189" lon="11.308978070017567"><ele>804.0</ele><time>2026-04-26T12:02:38.997Z</time></trkpt><trkpt lat="45.74725681444598" lon="11.309097832042196"><ele>804.0</ele><time>2026-04-26T12:02:39.997Z</time></trkpt><trkpt lat="45.74731814852653" lon="11.309176650788142"><ele>804.0</ele><time>2026-04-26T12:02:40.997Z</time></trkpt><trkpt lat="45.74739804554963" lon="11.309177647856721"><ele>804.0</ele><time>2026-04-26T12:02:41.997Z</time></trkpt><trkpt lat="45.747471608723345" lon="11.309170006595476"><ele>804.0</ele><time>2026-04-26T12:02:42.997Z</time></trkpt><trkpt lat="45.74753511356065" lon="11.309101461919717"><ele>804.0</ele><time>2026-04-26T12:02:43.997Z</time></trkpt><trkpt lat="45.747580285648525" lon="11.308983119056254"><ele>804.0</ele><time>2026-04-26T12:02:44.997Z</time></trkpt><trkpt lat="45.747623965340836" lon="11.308835651381331"><ele>804.0</ele><time>2026-04-26T12:02:45.997Z</time></trkpt><trkpt lat="45.747664874482226" lon="11.308672266109816"><ele>804.0</ele><time>2026-04-26T12:02:46.997Z</time></trkpt><trkpt lat="45.74770082164924" lon="11.308501165036228"><ele>804.0</ele><time>2026-04-26T12:02:47.997Z</time></trkpt><trkpt lat="45.74773861011269" lon="11.30832168340296"><ele>804.0</ele><time>2026-04-26T12:02:48.997Z</time></trkpt><trkpt lat="45.74776996945519" lon="11.30814236472957"><ele>804.0</ele><time>2026-04-26T12:02:49.997Z</time></trkpt><trkpt lat="45.74779299330076" lon="11.30795823080836"><ele>810.75</ele><time>2026-04-26T12:02:50.997Z</time></trkpt><trkpt lat="45.74781479773912" lon="11.30777024642455"><ele>817.5</ele><time>2026-04-26T12:02:51.997Z</time></trkpt><trkpt lat="45.7478296008089" lon="11.307596715615094"><ele>824.25</ele><time>2026-04-26T12:02:52.997Z</time></trkpt><trkpt lat="45.74784399559686" lon="11.307438372521585"><ele>831.0</ele><time>2026-04-26T12:02:53.997Z</time></trkpt><trkpt lat="45.74785467547122" lon="11.307300163133403"><ele>831.0</ele><time>2026-04-26T12:02:54.997Z</time></trkpt><trkpt lat="45.74786765219753" lon="11.307190426926162"><ele>831.0</ele><time>2026-04-26T12:02:55.997Z</time></trkpt><trkpt lat="45.74791775474452" lon="11.30707573876448"><ele>831.0</ele><time>2026-04-26T12:02:57.997Z</time></trkpt><trkpt lat="45.74798281150746" lon="11.307163762887726"><ele>831.0</ele><time>2026-04-26T12:02:59.997Z</time></trkpt><trkpt lat="45.74800770540752" lon="11.307321160463795"><ele>831.0</ele><time>2026-04-26T12:03:01.997Z</time></trkpt><trkpt lat="45.74802435229518" lon="11.307433459447578"><ele>831.0</ele><time>2026-04-26T12:03:02.997Z</time></trkpt><trkpt lat="45.748060270113434" lon="11.307574493779171"><ele>831.0</ele><time>2026-04-26T12:03:03.997Z</time></trkpt><trkpt lat="45.74812307695724" lon="11.307710060034928"><ele>831.0</ele><time>2026-04-26T12:03:04.997Z</time></trkpt><trkpt lat="45.74818859816228" lon="11.307852409589692"><ele>831.0</ele><time>2026-04-26T12:03:05.997Z</time></trkpt><trkpt lat="45.748256744231576" lon="11.308002047125186"><ele>829.75</ele><time>2026-04-26T12:03:06.997Z</time></trkpt><trkpt lat="45.74833624272003" lon="11.308161684877598"><ele>828.5</ele><time>2026-04-26T12:03:07.997Z</time></trkpt><trkpt lat="45.74843230553742" lon="11.308321668021755"><ele>827.25</ele><time>2026-04-26T12:03:08.997Z</time></trkpt><trkpt lat="45.74852832872613" lon="11.30848605391732"><ele>826.0</ele><time>2026-04-26T12:03:09.997Z</time></trkpt><trkpt lat="45.748615194416956" lon="11.308648281742808"><ele>833.0</ele><time>2026-04-26T12:03:10.997Z</time></trkpt><trkpt lat="45.74869745823627" lon="11.308781879661392"><ele>840.0</ele><time>2026-04-26T12:03:11.997Z</time></trkpt><trkpt lat="45.74875686337343" lon="11.30892373878738"><ele>847.0</ele><time>2026-04-26T12:03:12.997Z</time></trkpt><trkpt lat="45.74878976812984" lon="11.309075552419793"><ele>854.0</ele><time>2026-04-26T12:03:13.997Z</time></trkpt><trkpt lat="45.7488046046611" lon="11.309221223187036"><ele>854.0</ele><time>2026-04-26T12:03:14.997Z</time></trkpt><trkpt lat="45.748799591535544" lon="11.30936533037909"><ele>854.0000000000001</ele><time>2026-04-26T12:03:15.997Z</time></trkpt><trkpt lat="45.74879935741472" lon="11.309516247979047"><ele>854.0000000000001</ele><time>2026-04-26T12:03:16.997Z</time></trkpt><trkpt lat="45.74879044232687" lon="11.309655412389029"><ele>854.0</ele><time>2026-04-26T12:03:17.997Z</time></trkpt><trkpt lat="45.74879330370485" lon="11.309796203578372"><ele>854.0</ele><time>2026-04-26T12:03:18.997Z</time></trkpt><trkpt lat="45.74881527036573" lon="11.30991509901155"><ele>854.5000000000001</ele><time>2026-04-26T12:03:19.997Z</time></trkpt><trkpt lat="45.74883083859881" lon="11.310034872355882"><ele>855.0</ele><time>2026-04-26T12:03:20.997Z</time></trkpt><trkpt lat="45.74881284052657" lon="11.310148651984889"><ele>855.5</ele><time>2026-04-26T12:03:21.997Z</time></trkpt><trkpt lat="45.748777024014274" lon="11.310263501191626"><ele>856.0</ele><time>2026-04-26T12:03:22.997Z</time></trkpt><trkpt lat="45.748756642421746" lon="11.31039023105931"><ele>856.5000000000001</ele><time>2026-04-26T12:03:23.997Z</time></trkpt><trkpt lat="45.748756664833095" lon="11.31053471709448"><ele>857.0</ele><time>2026-04-26T12:03:24.997Z</time></trkpt><trkpt lat="45.748789768944874" lon="11.31070016149394"><ele>857.4000000000001</ele><time>2026-04-26T12:03:25.997Z</time></trkpt><trkpt lat="45.7488363189141" lon="11.310864916806935"><ele>857.8000000000001</ele><time>2026-04-26T12:03:26.997Z</time></trkpt><trkpt lat="45.74887288199772" lon="11.311005531013844"><ele>858.2</ele><time>2026-04-26T12:03:27.997Z</time></trkpt><trkpt lat="45.7489015470929" lon="11.311111804995647"><ele>858.6</ele><time>2026-04-26T12:03:28.997Z</time></trkpt><trkpt lat="45.748910194435325" lon="11.311225590398351"><ele>859.0</ele><time>2026-04-26T12:03:29.997Z</time></trkpt><trkpt lat="45.74888295340494" lon="11.311312993590914"><ele>859.0</ele><time>2026-04-26T12:03:30.997Z</time></trkpt><trkpt lat="45.74882867043878" lon="11.311374647506053"><ele>859.0000000000001</ele><time>2026-04-26T12:03:31.997Z</time></trkpt><trkpt lat="45.7487485452242" lon="11.311409124225372"><ele>859.0000000000001</ele><time>2026-04-26T12:03:32.997Z</time></trkpt><trkpt lat="45.74867016899575" lon="11.311467888239413"><ele>859.0</ele><time>2026-04-26T12:03:33.997Z</time></trkpt><trkpt lat="45.74859259717799" lon="11.3115562369549"><ele>859.0</ele><time>2026-04-26T12:03:34.997Z</time></trkpt><trkpt lat="45.74850489293669" lon="11.31167875495267"><ele>856.75</ele><time>2026-04-26T12:03:35.997Z</time></trkpt><trkpt lat="45.74840443177545" lon="11.311828814425201"><ele>854.5</ele><time>2026-04-26T12:03:36.997Z</time></trkpt><trkpt lat="45.74831004661119" lon="11.311985383872784"><ele>852.25</ele><time>2026-04-26T12:03:37.997Z</time></trkpt><trkpt lat="45.748233158968986" lon="11.312156058605487"><ele>850.0</ele><time>2026-04-26T12:03:38.997Z</time></trkpt><trkpt lat="45.748166188512826" lon="11.312334501720755"><ele>854.5</ele><time>2026-04-26T12:03:39.997Z</time></trkpt><trkpt lat="45.74811772519091" lon="11.312522118011266"><ele>859.0</ele><time>2026-04-26T12:03:40.997Z</time></trkpt><trkpt lat="45.7480829729966" lon="11.312694296579139"><ele>863.5</ele><time>2026-04-26T12:03:41.997Z</time></trkpt><trkpt lat="45.7480613794539" lon="11.312845985491172"><ele>868.0</ele><time>2026-04-26T12:03:42.997Z</time></trkpt><trkpt lat="45.748043460324155" lon="11.312975507671998"><ele>869.4</ele><time>2026-04-26T12:03:43.997Z</time></trkpt><trkpt lat="45.74802083660254" lon="11.313089727457482"><ele>870.8</ele><time>2026-04-26T12:03:44.997Z</time></trkpt><trkpt lat="45.74801915346319" lon="11.313200017657849"><ele>872.2</ele><time>2026-04-26T12:03:45.997Z</time></trkpt><trkpt lat="45.74803098448033" lon="11.313315946689954"><ele>873.6</ele><time>2026-04-26T12:03:46.997Z</time></trkpt><trkpt lat="45.74807302544069" lon="11.313456617501982"><ele>875.0</ele><time>2026-04-26T12:03:47.997Z</time></trkpt><trkpt lat="45.748139598186484" lon="11.313604195391841"><ele>875.0</ele><time>2026-04-26T12:03:48.997Z</time></trkpt><trkpt lat="45.74820773606195" lon="11.313775925749859"><ele>875.0</ele><time>2026-04-26T12:03:49.997Z</time></trkpt><trkpt lat="45.74828276592368" lon="11.313946171151606"><ele>875.0</ele><time>2026-04-26T12:03:50.997Z</time></trkpt><trkpt lat="45.74834525455205" lon="11.314125786422226"><ele>875.0</ele><time>2026-04-26T12:03:51.997Z</time></trkpt><trkpt lat="45.748394050627425" lon="11.314312902993809"><ele>874.0</ele><time>2026-04-26T12:03:52.997Z</time></trkpt><trkpt lat="45.748443855427944" lon="11.314498871894928"><ele>873.0</ele><time>2026-04-26T12:03:53.997Z</time></trkpt><trkpt lat="45.7485003792126" lon="11.314682202836662"><ele>872.0</ele><time>2026-04-26T12:03:54.997Z</time></trkpt><trkpt lat="45.748566162340445" lon="11.314863475970709"><ele>871.0</ele><time>2026-04-26T12:03:55.996Z</time></trkpt><trkpt lat="45.74864125918562" lon="11.315045677708923"><ele>875.25</ele><time>2026-04-26T12:03:56.996Z</time></trkpt><trkpt lat="45.748729453740665" lon="11.315213427108212"><ele>879.5</ele><time>2026-04-26T12:03:57.996Z</time></trkpt><trkpt lat="45.74882669575937" lon="11.315370292557848"><ele>883.75</ele><time>2026-04-26T12:03:58.996Z</time></trkpt><trkpt lat="45.74891887625693" lon="11.315524950025297"><ele>888.0</ele><time>2026-04-26T12:03:59.996Z</time></trkpt><trkpt lat="45.74898242797573" lon="11.315689076040742"><ele>888.0</ele><time>2026-04-26T12:04:00.996Z</time></trkpt><trkpt lat="45.74901942137367" lon="11.315863176475956"><ele>888.0</ele><time>2026-04-26T12:04:01.996Z</time></trkpt><trkpt lat="45.749031368521905" lon="11.316046527873524"><ele>888.0</ele><time>2026-04-26T12:04:02.996Z</time></trkpt><trkpt lat="45.74901884698489" lon="11.316224865623212"><ele>888.0</ele><time>2026-04-26T12:04:03.996Z</time></trkpt><trkpt lat="45.74901651291827" lon="11.316378781782609"><ele>889.4</ele><time>2026-04-26T12:04:04.996Z</time></trkpt><trkpt lat="45.74902108526484" lon="11.316517133569603"><ele>890.8</ele><time>2026-04-26T12:04:05.996Z</time></trkpt><trkpt lat="45.74905016947143" lon="11.31663754098758"><ele>892.2</ele><time>2026-04-26T12:04:06.996Z</time></trkpt><trkpt lat="45.74910240091708" lon="11.316734207362227"><ele>893.6</ele><time>2026-04-26T12:04:07.996Z</time></trkpt><trkpt lat="45.74917492739175" lon="11.316830575839676"><ele>895.0</ele><time>2026-04-26T12:04:08.996Z</time></trkpt><trkpt lat="45.749268468788365" lon="11.31688147368527"><ele>895.0</ele><time>2026-04-26T12:04:09.996Z</time></trkpt><trkpt lat="45.74935865932899" lon="11.316935635102578"><ele>895.0</ele><time>2026-04-26T12:04:10.996Z</time></trkpt><trkpt lat="45.74943495237643" lon="11.31700431519785"><ele>895.0</ele><time>2026-04-26T12:04:11.996Z</time></trkpt><trkpt lat="45.74949161538282" lon="11.317100697239603"><ele>895.0</ele><time>2026-04-26T12:04:12.996Z</time></trkpt><trkpt lat="45.749524709001875" lon="11.31722157030598"><ele>895.0</ele><time>2026-04-26T12:04:13.996Z</time></trkpt><trkpt lat="45.74952206405636" lon="11.317348056665491"><ele>898.1666666666666</ele><time>2026-04-26T12:04:14.996Z</time></trkpt><trkpt lat="45.74950315793107" lon="11.317455935396632"><ele>901.3333333333333</ele><time>2026-04-26T12:04:15.996Z</time></trkpt><trkpt lat="45.74947066182184" lon="11.317596883847148"><ele>904.5</ele><time>2026-04-26T12:04:17.996Z</time></trkpt><trkpt lat="45.74946996338642" lon="11.31770671503692"><ele>907.6666666666667</ele><time>2026-04-26T12:04:20.996Z</time></trkpt><trkpt lat="45.74947327870477" lon="11.317800424684783"><ele>910.8333333333334</ele><time>2026-04-26T12:04:23.996Z</time></trkpt><trkpt lat="45.74948413859927" lon="11.317911973377429"><ele>914.0</ele><time>2026-04-26T12:04:26.996Z</time></trkpt><trkpt lat="45.74956441280974" lon="11.317923152841201"><ele>914.0000000000001</ele><time>2026-04-26T12:04:32.999Z</time></trkpt><trkpt lat="45.749626989657806" lon="11.317770004903991"><ele>914.0</ele><time>2026-04-26T12:04:34.999Z</time></trkpt><trkpt lat="45.74965499531943" lon="11.31767942782052"><ele>914.0</ele><time>2026-04-26T12:04:35.999Z</time></trkpt><trkpt lat="45.74968339359641" lon="11.317584182052716"><ele>914.0</ele><time>2026-04-26T12:04:36.999Z</time></trkpt><trkpt lat="45.74971115819541" lon="11.317484723104567"><ele>914.0000000000001</ele><time>2026-04-26T12:04:37.999Z</time></trkpt><trkpt lat="45.74974977880471" lon="11.317385405423227"><ele>914.0</ele><time>2026-04-26T12:04:38.999Z</time></trkpt><trkpt lat="45.749774314567496" lon="11.317288830781692"><ele>914.2857142857144</ele><time>2026-04-26T12:04:40Z</time></trkpt><trkpt lat="45.74979970870129" lon="11.31720024264569"><ele>914.5714285714287</ele><time>2026-04-26T12:04:41Z</time></trkpt><trkpt lat="45.74981912783392" lon="11.317106963001605"><ele>914.8571428571429</ele><time>2026-04-26T12:04:42Z</time></trkpt><trkpt lat="45.74983022898172" lon="11.31700884755469"><ele>915.1428571428572</ele><time>2026-04-26T12:04:43Z</time></trkpt><trkpt lat="45.74982717687539" lon="11.316906892818734"><ele>915.4285714285716</ele><time>2026-04-26T12:04:44Z</time></trkpt><trkpt lat="45.74981663727671" lon="11.316806375238366"><ele>915.7142857142857</ele><time>2026-04-26T12:04:45Z</time></trkpt><trkpt lat="45.74981026500146" lon="11.316706078523747"><ele>916.0</ele><time>2026-04-26T12:04:46Z</time></trkpt><trkpt lat="45.74980213743133" lon="11.3165891687239"><ele>916.0</ele><time>2026-04-26T12:04:47Z</time></trkpt><trkpt lat="45.74980460291252" lon="11.316463890544949"><ele>915.9999999999999</ele><time>2026-04-26T12:04:48Z</time></trkpt><trkpt lat="45.74981275369779" lon="11.316334243703986"><ele>915.9999999999999</ele><time>2026-04-26T12:04:49Z</time></trkpt><trkpt lat="45.74983605213408" lon="11.316200250682384"><ele>916.0</ele><time>2026-04-26T12:04:50Z</time></trkpt><trkpt lat="45.749869111103116" lon="11.316064988282081"><ele>916.0</ele><time>2026-04-26T12:04:51Z</time></trkpt><trkpt lat="45.74991440054853" lon="11.315939400563652"><ele>916.4</ele><time>2026-04-26T12:04:52Z</time></trkpt><trkpt lat="45.749963601042424" lon="11.315809979408394"><ele>916.8</ele><time>2026-04-26T12:04:53Z</time></trkpt><trkpt lat="45.75002031059592" lon="11.315679651698185"><ele>917.1999999999999</ele><time>2026-04-26T12:04:54Z</time></trkpt><trkpt lat="45.750084576045595" lon="11.315546762135043"><ele>917.5999999999999</ele><time>2026-04-26T12:04:55Z</time></trkpt><trkpt lat="45.75015377305503" lon="11.315414231983548"><ele>918.0</ele><time>2026-04-26T12:04:56Z</time></trkpt><trkpt lat="45.75020493556536" lon="11.31526611978972"><ele>930.5</ele><time>2026-04-26T12:04:57Z</time></trkpt><trkpt lat="45.7502558396947" lon="11.31511167063432"><ele>943.0</ele><time>2026-04-26T12:04:58Z</time></trkpt><trkpt lat="45.750285971160146" lon="11.314940813968835"><ele>955.5</ele><time>2026-04-26T12:04:59Z</time></trkpt><trkpt lat="45.75029630380131" lon="11.314760381580095"><ele>968.0</ele><time>2026-04-26T12:05:00Z</time></trkpt><trkpt lat="45.75030937297314" lon="11.314576399720245"><ele>968.0</ele><time>2026-04-26T12:05:01Z</time></trkpt><trkpt lat="45.75033796728551" lon="11.314403525540946"><ele>968.0</ele><time>2026-04-26T12:05:02Z</time></trkpt><trkpt lat="45.75035162201562" lon="11.314232138155212"><ele>968.0</ele><time>2026-04-26T12:05:03Z</time></trkpt><trkpt lat="45.75036105975505" lon="11.314062824163473"><ele>968.0</ele><time>2026-04-26T12:05:04Z</time></trkpt><trkpt lat="45.750325271186085" lon="11.313913357973911"><ele>967.2</ele><time>2026-04-26T12:05:05Z</time></trkpt><trkpt lat="45.75029724119075" lon="11.313764777198978"><ele>966.4</ele><time>2026-04-26T12:05:06Z</time></trkpt><trkpt lat="45.75026019953336" lon="11.313640216407189"><ele>965.6000000000001</ele><time>2026-04-26T12:05:07Z</time></trkpt><trkpt lat="45.75025642455088" lon="11.313514192363359"><ele>964.8000000000001</ele><time>2026-04-26T12:05:08Z</time></trkpt><trkpt lat="45.75024485316014" lon="11.313400078407739"><ele>964.0</ele><time>2026-04-26T12:05:09Z</time></trkpt><trkpt lat="45.75028522067721" lon="11.313279195231363"><ele>964.0</ele><time>2026-04-26T12:05:10Z</time></trkpt><trkpt lat="45.75033547264387" lon="11.313143841394746"><ele>964.0000000000001</ele><time>2026-04-26T12:05:11Z</time></trkpt><trkpt lat="45.750395593853604" lon="11.313009100225152"><ele>964.0000000000001</ele><time>2026-04-26T12:05:12Z</time></trkpt><trkpt lat="45.75044612313354" lon="11.312862094092095"><ele>964.0</ele><time>2026-04-26T12:05:13Z</time></trkpt><trkpt lat="45.750497223401176" lon="11.312723269169387"><ele>964.0</ele><time>2026-04-26T12:05:14Z</time></trkpt><trkpt lat="45.750554820071656" lon="11.312615853422496"><ele>962.4999999999999</ele><time>2026-04-26T12:05:15Z</time></trkpt><trkpt lat="45.750626575116534" lon="11.312547790216836"><ele>961.0</ele><time>2026-04-26T12:05:16Z</time></trkpt><trkpt lat="45.750690354661174" lon="11.312481921578634"><ele>959.5</ele><time>2026-04-26T12:05:17Z</time></trkpt><trkpt lat="45.750739634457275" lon="11.31239268319946"><ele>958.0</ele><time>2026-04-26T12:05:18Z</time></trkpt><trkpt lat="45.75076328807799" lon="11.312266786491465"><ele>956.4999999999999</ele><time>2026-04-26T12:05:19Z</time></trkpt><trkpt lat="45.750782603929416" lon="11.31212554448278"><ele>955.0</ele><time>2026-04-26T12:05:20Z</time></trkpt><trkpt lat="45.750814269463255" lon="11.31197133431318"><ele>953.2</ele><time>2026-04-26T12:05:21Z</time></trkpt><trkpt lat="45.75086414344417" lon="11.31181503536871"><ele>951.4</ele><time>2026-04-26T12:05:22Z</time></trkpt><trkpt lat="45.750917826483324" lon="11.311664004752632"><ele>949.5999999999999</ele><time>2026-04-26T12:05:23Z</time></trkpt><trkpt lat="45.75097177705555" lon="11.311532577576084"><ele>947.8</ele><time>2026-04-26T12:05:24Z</time></trkpt><trkpt lat="45.75103722013463" lon="11.311439511106563"><ele>946.0</ele><time>2026-04-26T12:05:25Z</time></trkpt><trkpt lat="45.75109398113624" lon="11.311363396762136"><ele>950.9999999999999</ele><time>2026-04-26T12:05:26Z</time></trkpt><trkpt lat="45.751150064968016" lon="11.311300134180833"><ele>956.0</ele><time>2026-04-26T12:05:27Z</time></trkpt><trkpt lat="45.75120091110248" lon="11.311219450129933"><ele>961.0</ele><time>2026-04-26T12:05:28Z</time></trkpt><trkpt lat="45.7512478952545" lon="11.311110888609447"><ele>966.0</ele><time>2026-04-26T12:05:29Z</time></trkpt><trkpt lat="45.75128718645026" lon="11.310985171863226"><ele>970.9999999999999</ele><time>2026-04-26T12:05:30Z</time></trkpt><trkpt lat="45.751340670712054" lon="11.310863797660105"><ele>976.0</ele><time>2026-04-26T12:05:31Z</time></trkpt><trkpt lat="45.751381578606335" lon="11.310738298662951"><ele>975.9999999999999</ele><time>2026-04-26T12:05:32Z</time></trkpt><trkpt lat="45.75141327333462" lon="11.310624828327763"><ele>976.0</ele><time>2026-04-26T12:05:33Z</time></trkpt><trkpt lat="45.75145539965129" lon="11.310539738737631"><ele>975.9999999999999</ele><time>2026-04-26T12:05:34Z</time></trkpt><trkpt lat="45.75151204489563" lon="11.310485093486587"><ele>975.9999999999999</ele><time>2026-04-26T12:05:35Z</time></trkpt><trkpt lat="45.75156650924695" lon="11.310432862537255"><ele>976.0</ele><time>2026-04-26T12:05:36Z</time></trkpt><trkpt lat="45.75159669576668" lon="11.310345969200466"><ele>975.9999999999999</ele><time>2026-04-26T12:05:37Z</time></trkpt><trkpt lat="45.751611502306034" lon="11.310233117116754"><ele>975.9999999999999</ele><time>2026-04-26T12:05:38Z</time></trkpt><trkpt lat="45.75163694478929" lon="11.310116686399507"><ele>974.4</ele><time>2026-04-26T12:05:39Z</time></trkpt><trkpt lat="45.751657609889456" lon="11.309992227303036"><ele>972.8</ele><time>2026-04-26T12:05:40Z</time></trkpt><trkpt lat="45.751684022939905" lon="11.309861239611854"><ele>971.1999999999999</ele><time>2026-04-26T12:05:41Z</time></trkpt><trkpt lat="45.75171823851943" lon="11.309721073550849"><ele>969.5999999999999</ele><time>2026-04-26T12:05:42Z</time></trkpt><trkpt lat="45.75174372201809" lon="11.30955742407735"><ele>968.0</ele><time>2026-04-26T12:05:43Z</time></trkpt><trkpt lat="45.75177860956957" lon="11.30937927851002"><ele>967.5999999999999</ele><time>2026-04-26T12:05:44Z</time></trkpt><trkpt lat="45.75180994154969" lon="11.309188786219236"><ele>967.1999999999999</ele><time>2026-04-26T12:05:45Z</time></trkpt><trkpt lat="45.75184666958585" lon="11.309022475357013"><ele>966.8</ele><time>2026-04-26T12:05:46Z</time></trkpt><trkpt lat="45.751884525746114" lon="11.308881332927967"><ele>966.4</ele><time>2026-04-26T12:05:47Z</time></trkpt><trkpt lat="45.75192178168678" lon="11.308772446222735"><ele>966.0</ele><time>2026-04-26T12:05:48Z</time></trkpt><trkpt lat="45.75195634709427" lon="11.308690722155628"><ele>972.0</ele><time>2026-04-26T12:05:49Z</time></trkpt><trkpt lat="45.75201991084303" lon="11.308587659374373"><ele>977.9999999999999</ele><time>2026-04-26T12:05:51Z</time></trkpt><trkpt lat="45.7520893589741" lon="11.308688425895845"><ele>983.9999999999999</ele><time>2026-04-26T12:05:54Z</time></trkpt><trkpt lat="45.75205905476822" lon="11.308883033994828"><ele>990.0</ele><time>2026-04-26T12:05:56Z</time></trkpt><trkpt lat="45.75203667454473" lon="11.309037036811421"><ele>996.0</ele><time>2026-04-26T12:05:57Z</time></trkpt><trkpt lat="45.75202837112863" lon="11.309190511741056"><ele>998.25</ele><time>2026-04-26T12:05:58Z</time></trkpt><trkpt lat="45.75202874558572" lon="11.309339746687314"><ele>1000.5</ele><time>2026-04-26T12:05:59Z</time></trkpt><trkpt lat="45.7520517534683" lon="11.309519780927527"><ele>1002.75</ele><time>2026-04-26T12:06:00Z</time></trkpt><trkpt lat="45.75206711583012" lon="11.309722182014774"><ele>1005.0</ele><time>2026-04-26T12:06:01Z</time></trkpt><trkpt lat="45.752071761086334" lon="11.309930739446543"><ele>1007.0</ele><time>2026-04-26T12:06:02Z</time></trkpt><trkpt lat="45.752075809430764" lon="11.310127670317161"><ele>1009.0</ele><time>2026-04-26T12:06:03Z</time></trkpt><trkpt lat="45.75207921273978" lon="11.310310342134645"><ele>1011.0</ele><time>2026-04-26T12:06:04Z</time></trkpt><trkpt lat="45.752084056984664" lon="11.310471658039107"><ele>1013.0</ele><time>2026-04-26T12:06:05Z</time></trkpt><trkpt lat="45.75210734040203" lon="11.310648406191309"><ele>1015.4</ele><time>2026-04-26T12:06:06Z</time></trkpt><trkpt lat="45.752126641114735" lon="11.310802252825074"><ele>1017.8</ele><time>2026-04-26T12:06:07Z</time></trkpt><trkpt lat="45.7521430739936" lon="11.310969998531077"><ele>1020.2</ele><time>2026-04-26T12:06:08Z</time></trkpt><trkpt lat="45.75213051552381" lon="11.311123503737052"><ele>1022.6</ele><time>2026-04-26T12:06:09Z</time></trkpt><trkpt lat="45.752096657119836" lon="11.311257420816762"><ele>1025.0</ele><time>2026-04-26T12:06:09.999Z</time></trkpt><trkpt lat="45.752073025270526" lon="11.311402830585699"><ele>1026.8</ele><time>2026-04-26T12:06:10.999Z</time></trkpt><trkpt lat="45.75207410346891" lon="11.311572045620418"><ele>1028.6</ele><time>2026-04-26T12:06:11.999Z</time></trkpt><trkpt lat="45.75210898393362" lon="11.311740422992727"><ele>1030.4</ele><time>2026-04-26T12:06:12.999Z</time></trkpt><trkpt lat="45.75212011133393" lon="11.311894429689588"><ele>1032.2</ele><time>2026-04-26T12:06:13.999Z</time></trkpt><trkpt lat="45.7520893346636" lon="11.312021914290606"><ele>1034.0</ele><time>2026-04-26T12:06:14.999Z</time></trkpt><trkpt lat="45.75203569433172" lon="11.312109450778214"><ele>1034.0</ele><time>2026-04-26T12:06:15.999Z</time></trkpt><trkpt lat="45.75198611347945" lon="11.312194128100794"><ele>1034.0</ele><time>2026-04-26T12:06:16.999Z</time></trkpt><trkpt lat="45.7519376815227" lon="11.31227978838918"><ele>1034.0</ele><time>2026-04-26T12:06:17.999Z</time></trkpt><trkpt lat="45.751915827526794" lon="11.312411440575694"><ele>1034.0</ele><time>2026-04-26T12:06:18.999Z</time></trkpt><trkpt lat="45.75194090665587" lon="11.31254726202468"><ele>1034.0</ele><time>2026-04-26T12:06:19.999Z</time></trkpt><trkpt lat="45.7519482431319" lon="11.312707179681803"><ele>1037.5</ele><time>2026-04-26T12:06:20.999Z</time></trkpt><trkpt lat="45.75192672924359" lon="11.312879287029642"><ele>1041.0</ele><time>2026-04-26T12:06:21.999Z</time></trkpt><trkpt lat="45.75192890185748" lon="11.313091189418675"><ele>1044.5</ele><time>2026-04-26T12:06:22.999Z</time></trkpt><trkpt lat="45.75193250115566" lon="11.313276148670216"><ele>1048.0</ele><time>2026-04-26T12:06:23.999Z</time></trkpt><trkpt lat="45.751904401698624" lon="11.313460783587889"><ele>1052.0</ele><time>2026-04-26T12:06:24.999Z</time></trkpt><trkpt lat="45.75188992443232" lon="11.313647891408452"><ele>1056.0</ele><time>2026-04-26T12:06:25.999Z</time></trkpt><trkpt lat="45.751860397634616" lon="11.313833992361909"><ele>1060.0</ele><time>2026-04-26T12:06:26.999Z</time></trkpt><trkpt lat="45.75182871104386" lon="11.314005326169854"><ele>1064.0</ele><time>2026-04-26T12:06:27.999Z</time></trkpt><trkpt lat="45.75179771211838" lon="11.31414999249867"><ele>1066.8333333333335</ele><time>2026-04-26T12:06:28.999Z</time></trkpt><trkpt lat="45.75176782159635" lon="11.314263206893678"><ele>1069.6666666666667</ele><time>2026-04-26T12:06:29.999Z</time></trkpt><trkpt lat="45.75173690660286" lon="11.314352788465046"><ele>1072.5</ele><time>2026-04-26T12:06:30.999Z</time></trkpt><trkpt lat="45.75174000349102" lon="11.314466281188595"><ele>1075.3333333333333</ele><time>2026-04-26T12:06:32.999Z</time></trkpt><trkpt lat="45.75182456695381" lon="11.314456150960156"><ele>1078.1666666666665</ele><time>2026-04-26T12:06:35.999Z</time></trkpt><trkpt lat="45.75186287820012" lon="11.314370549171556"><ele>1081.0</ele><time>2026-04-26T12:06:37.999Z</time></trkpt><trkpt lat="45.751958903764" lon="11.31417512256089"><ele>1081.0</ele><time>2026-04-26T12:06:39.999Z</time></trkpt><trkpt lat="45.75205186681171" lon="11.3139764031406"><ele>1081.0</ele><time>2026-04-26T12:06:40.999Z</time></trkpt><trkpt lat="45.75214021344697" lon="11.313805766223638"><ele>1081.0</ele><time>2026-04-26T12:06:41.999Z</time></trkpt><trkpt lat="45.75223156283665" lon="11.313644196749717"><ele>1076.75</ele><time>2026-04-26T12:06:42.999Z</time></trkpt><trkpt lat="45.75231079816439" lon="11.31347680539704"><ele>1072.5</ele><time>2026-04-26T12:06:43.999Z</time></trkpt><trkpt lat="45.75238765567588" lon="11.313310353816338"><ele>1068.25</ele><time>2026-04-26T12:06:44.999Z</time></trkpt><trkpt lat="45.75245013194541" lon="11.313141214711019"><ele>1064.0</ele><time>2026-04-26T12:06:45.999Z</time></trkpt><trkpt lat="45.752486282159204" lon="11.31300644049749"><ele>1060.8</ele><time>2026-04-26T12:06:46.999Z</time></trkpt><trkpt lat="45.75255733608388" lon="11.312885361213437"><ele>1057.6000000000001</ele><time>2026-04-26T12:06:47.999Z</time></trkpt><trkpt lat="45.75262846734623" lon="11.31274784072202"><ele>1054.4</ele><time>2026-04-26T12:06:48.999Z</time></trkpt><trkpt lat="45.75268543991832" lon="11.312613359450594"><ele>1051.2</ele><time>2026-04-26T12:06:49.999Z</time></trkpt><trkpt lat="45.75270685826124" lon="11.312459351461921"><ele>1048.0</ele><time>2026-04-26T12:06:50.999Z</time></trkpt><trkpt lat="45.75273395881837" lon="11.312295991960328"><ele>1059.5</ele><time>2026-04-26T12:06:51.999Z</time></trkpt><trkpt lat="45.752782835113145" lon="11.31215316998944"><ele>1071.0</ele><time>2026-04-26T12:06:52.999Z</time></trkpt><trkpt lat="45.75284719140897" lon="11.31200639434544"><ele>1082.5</ele><time>2026-04-26T12:06:53.999Z</time></trkpt><trkpt lat="45.7529171682921" lon="11.311830073443586"><ele>1094.0</ele><time>2026-04-26T12:06:54.999Z</time></trkpt><trkpt lat="45.7529969486487" lon="11.311634477880661"><ele>1094.0</ele><time>2026-04-26T12:06:55.999Z</time></trkpt><trkpt lat="45.75307884373553" lon="11.31145075610966"><ele>1094.0</ele><time>2026-04-26T12:06:56.999Z</time></trkpt><trkpt lat="45.753166727540105" lon="11.311243710667943"><ele>1094.0</ele><time>2026-04-26T12:06:57.999Z</time></trkpt><trkpt lat="45.75323423698368" lon="11.311035186846015"><ele>1090.25</ele><time>2026-04-26T12:06:58.999Z</time></trkpt><trkpt lat="45.753257976326076" lon="11.310852017637629"><ele>1086.5</ele><time>2026-04-26T12:06:59.999Z</time></trkpt><trkpt lat="45.753281788775205" lon="11.31068687821158"><ele>1082.75</ele><time>2026-04-26T12:07:00.999Z</time></trkpt><trkpt lat="45.75330557706051" lon="11.310525643266056"><ele>1079.0</ele><time>2026-04-26T12:07:01.999Z</time></trkpt><trkpt lat="45.75333900311265" lon="11.310375143472154"><ele>1076.8</ele><time>2026-04-26T12:07:02.999Z</time></trkpt><trkpt lat="45.75337260833289" lon="11.310275883343548"><ele>1074.6000000000001</ele><time>2026-04-26T12:07:03.999Z</time></trkpt><trkpt lat="45.75342614013637" lon="11.310143631075407"><ele>1072.4</ele><time>2026-04-26T12:07:04.999Z</time></trkpt><trkpt lat="45.75347339788318" lon="11.310020391739686"><ele>1070.2</ele><time>2026-04-26T12:07:05.999Z</time></trkpt><trkpt lat="45.75351462960255" lon="11.309906304365944"><ele>1068.0</ele><time>2026-04-26T12:07:06.999Z</time></trkpt><trkpt lat="45.7535728257518" lon="11.30978493915434"><ele>1074.0</ele><time>2026-04-26T12:07:07.999Z</time></trkpt><trkpt lat="45.753631046856185" lon="11.30967510650326"><ele>1080.0</ele><time>2026-04-26T12:07:08.999Z</time></trkpt><trkpt lat="45.7536728541994" lon="11.309596902203332"><ele>1086.0</ele><time>2026-04-26T12:07:09.999Z</time></trkpt><trkpt lat="45.753710205386724" lon="11.309514206827012"><ele>1092.0</ele><time>2026-04-26T12:07:10.999Z</time></trkpt><trkpt lat="45.75375050285856" lon="11.309440855344585"><ele>1098.0</ele><time>2026-04-26T12:07:11.999Z</time></trkpt><trkpt lat="45.753841621774924" lon="11.309353596895031"><ele>1104.0</ele><time>2026-04-26T12:07:13.999Z</time></trkpt><trkpt lat="45.753942119793116" lon="11.309306627801055"><ele>1104.0</ele><time>2026-04-26T12:07:15.999Z</time></trkpt><trkpt lat="45.75401311283102" lon="11.309212592292853"><ele>1104.0</ele><time>2026-04-26T12:07:17.999Z</time></trkpt><trkpt lat="45.75402103569625" lon="11.309110974213812"><ele>1104.0</ele><time>2026-04-26T12:07:19.999Z</time></trkpt><trkpt lat="45.753942552566315" lon="11.308979930078655"><ele>1104.0</ele><time>2026-04-26T12:07:21.999Z</time></trkpt><trkpt lat="45.75392444345484" lon="11.308882839167858"><ele>1104.0</ele><time>2026-04-26T12:07:22.999Z</time></trkpt><trkpt lat="45.753931470319706" lon="11.308774645808503"><ele>1104.0</ele><time>2026-04-26T12:07:23.999Z</time></trkpt><trkpt lat="45.75395459188105" lon="11.308668839984632"><ele>1103.3333333333333</ele><time>2026-04-26T12:07:24.999Z</time></trkpt><trkpt lat="45.753982228594325" lon="11.308552854184661"><ele>1102.6666666666667</ele><time>2026-04-26T12:07:25.999Z</time></trkpt><trkpt lat="45.7540046390918" lon="11.30843828212509"><ele>1102.0</ele><time>2026-04-26T12:07:26.999Z</time></trkpt><trkpt lat="45.75401873893127" lon="11.308315843528494"><ele>1101.3333333333335</ele><time>2026-04-26T12:07:27.999Z</time></trkpt><trkpt lat="45.75404445402535" lon="11.308203510546118"><ele>1100.6666666666667</ele><time>2026-04-26T12:07:28.999Z</time></trkpt><trkpt lat="45.75405196982427" lon="11.308097601863496"><ele>1100.0</ele><time>2026-04-26T12:07:29.999Z</time></trkpt><trkpt lat="45.75406652554228" lon="11.307987345602864"><ele>1098.6666666666667</ele><time>2026-04-26T12:07:30.999Z</time></trkpt><trkpt lat="45.754085315739935" lon="11.307881645141338"><ele>1097.3333333333335</ele><time>2026-04-26T12:07:31.999Z</time></trkpt><trkpt lat="45.75411331872959" lon="11.307779156746035"><ele>1096.0</ele><time>2026-04-26T12:07:32.999Z</time></trkpt><trkpt lat="45.75414932659987" lon="11.307677198393666"><ele>1094.6666666666667</ele><time>2026-04-26T12:07:33.999Z</time></trkpt><trkpt lat="45.75419826176727" lon="11.307579574032305"><ele>1093.3333333333333</ele><time>2026-04-26T12:07:34.999Z</time></trkpt><trkpt lat="45.75424349362243" lon="11.307487896865345"><ele>1092.0</ele><time>2026-04-26T12:07:35.998Z</time></trkpt><trkpt lat="45.754290793669654" lon="11.307389776045701"><ele>1092.0</ele><time>2026-04-26T12:07:36.998Z</time></trkpt><trkpt lat="45.7543452467391" lon="11.307286180820117"><ele>1092.0</ele><time>2026-04-26T12:07:37.998Z</time></trkpt><trkpt lat="45.75440540768099" lon="11.307188158531"><ele>1092.0</ele><time>2026-04-26T12:07:38.998Z</time></trkpt><trkpt lat="45.754462961895925" lon="11.307097296788827"><ele>1092.0</ele><time>2026-04-26T12:07:39.998Z</time></trkpt><trkpt lat="45.75451807202485" lon="11.307020419947026"><ele>1092.0</ele><time>2026-04-26T12:07:40.998Z</time></trkpt><trkpt lat="45.75459616793337" lon="11.30689495138885"><ele>1098.0</ele><time>2026-04-26T12:07:42.998Z</time></trkpt><trkpt lat="45.754626267947636" lon="11.30676149595267"><ele>1104.0</ele><time>2026-04-26T12:07:44.998Z</time></trkpt><trkpt lat="45.75461092315458" lon="11.306662380403276"><ele>1110.0</ele><time>2026-04-26T12:07:45.998Z</time></trkpt><trkpt lat="45.75457107887204" lon="11.306559201476167"><ele>1116.0</ele><time>2026-04-26T12:07:46.998Z</time></trkpt><trkpt lat="45.75451936486186" lon="11.30646151597334"><ele>1122.0</ele><time>2026-04-26T12:07:47.998Z</time></trkpt><trkpt lat="45.75447192778203" lon="11.306387847642098"><ele>1128.0</ele><time>2026-04-26T12:07:48.998Z</time></trkpt><trkpt lat="45.754434717104964" lon="11.306304521068132"><ele>1128.0</ele><time>2026-04-26T12:07:49.998Z</time></trkpt><trkpt lat="45.75439980322444" lon="11.306218142328616"><ele>1128.0</ele><time>2026-04-26T12:07:50.998Z</time></trkpt><trkpt lat="45.75437299392793" lon="11.306122077499841"><ele>1128.0</ele><time>2026-04-26T12:07:51.998Z</time></trkpt><trkpt lat="45.75434935852654" lon="11.30602529513199"><ele>1128.0</ele><time>2026-04-26T12:07:52.998Z</time></trkpt><trkpt lat="45.75435377743241" lon="11.30590018495798"><ele>1128.0</ele><time>2026-04-26T12:07:54.998Z</time></trkpt><trkpt lat="45.75442911055156" lon="11.305928636494677"><ele>1128.0</ele><time>2026-04-26T12:08:00.998Z</time></trkpt><trkpt lat="45.7544313183686" lon="11.306020383010852"><ele>1128.0</ele><time>2026-04-26T12:08:02.998Z</time></trkpt><trkpt lat="45.754472358764424" lon="11.306168379727403"><ele>1128.0</ele><time>2026-04-26T12:08:04.998Z</time></trkpt><trkpt lat="45.75454649923597" lon="11.306274139602635"><ele>1128.0</ele><time>2026-04-26T12:08:06.998Z</time></trkpt><trkpt lat="45.754644752564595" lon="11.30635037777813"><ele>1128.0</ele><time>2026-04-26T12:08:08.998Z</time></trkpt><trkpt lat="45.75474051774012" lon="11.306416652019163"><ele>1128.0</ele><time>2026-04-26T12:08:10.998Z</time></trkpt><trkpt lat="45.7548073060964" lon="11.306524759950308"><ele>1128.0</ele><time>2026-04-26T12:08:12.998Z</time></trkpt><trkpt lat="45.75483210397671" lon="11.306678002069551"><ele>1129.3333333333333</ele><time>2026-04-26T12:08:14.998Z</time></trkpt><trkpt lat="45.7548435234188" lon="11.306802049362306"><ele>1130.6666666666667</ele><time>2026-04-26T12:08:16.998Z</time></trkpt><trkpt lat="45.754847089115934" lon="11.306978640187914"><ele>1132.0</ele><time>2026-04-26T12:08:18.998Z</time></trkpt><trkpt lat="45.754842434376556" lon="11.30708289265319"><ele>1133.3333333333335</ele><time>2026-04-26T12:08:19.998Z</time></trkpt><trkpt lat="45.754837104058076" lon="11.307189492002207"><ele>1134.6666666666667</ele><time>2026-04-26T12:08:20.998Z</time></trkpt><trkpt lat="45.75483703191333" lon="11.307309937322842"><ele>1136.0</ele><time>2026-04-26T12:08:21.998Z</time></trkpt><trkpt lat="45.75481036628379" lon="11.307420787536016"><ele>1139.0</ele><time>2026-04-26T12:08:22.998Z</time></trkpt><trkpt lat="45.75479055744152" lon="11.307514713534825"><ele>1142.0</ele><time>2026-04-26T12:08:23.998Z</time></trkpt><trkpt lat="45.75477827204557" lon="11.307692598539546"><ele>1145.0</ele><time>2026-04-26T12:08:25.998Z</time></trkpt><trkpt lat="45.75478148199569" lon="11.307789618563001"><ele>1148.0</ele><time>2026-04-26T12:08:26.998Z</time></trkpt><trkpt lat="45.75478742352957" lon="11.307899064734883"><ele>1151.0</ele><time>2026-04-26T12:08:27.998Z</time></trkpt><trkpt lat="45.754790783639926" lon="11.308008198338586"><ele>1154.0</ele><time>2026-04-26T12:08:28.998Z</time></trkpt><trkpt lat="45.75480446219828" lon="11.308110272901702"><ele>1155.4</ele><time>2026-04-26T12:08:29.998Z</time></trkpt><trkpt lat="45.75484884114175" lon="11.308271044639591"><ele>1156.8000000000002</ele><time>2026-04-26T12:08:31.998Z</time></trkpt><trkpt lat="45.75491761020442" lon="11.30839182812464"><ele>1158.1999999999998</ele><time>2026-04-26T12:08:33.998Z</time></trkpt><trkpt lat="45.75500999190245" lon="11.308508327046473"><ele>1159.6</ele><time>2026-04-26T12:08:35.998Z</time></trkpt><trkpt lat="45.755050824917674" lon="11.308594822038822"><ele>1161.0</ele><time>2026-04-26T12:08:36.998Z</time></trkpt><trkpt lat="45.75508080825161" lon="11.30869904185209"><ele>1161.0</ele><time>2026-04-26T12:08:37.998Z</time></trkpt><trkpt lat="45.75511483346465" lon="11.308835164350324"><ele>1161.0</ele><time>2026-04-26T12:08:39.998Z</time></trkpt><trkpt lat="45.7551065328488" lon="11.308970000035458"><ele>1161.0</ele><time>2026-04-26T12:08:41.998Z</time></trkpt><trkpt lat="45.75506549723738" lon="11.309118366905558"><ele>1161.0</ele><time>2026-04-26T12:08:43.998Z</time></trkpt><trkpt lat="45.7550222195028" lon="11.309229803921317"><ele>1161.0</ele><time>2026-04-26T12:08:44.998Z</time></trkpt><trkpt lat="45.75497175107898" lon="11.309352151460054"><ele>1160.1666666666667</ele><time>2026-04-26T12:08:45.998Z</time></trkpt><trkpt lat="45.75491205814205" lon="11.309450326677052"><ele>1159.3333333333333</ele><time>2026-04-26T12:08:46.998Z</time></trkpt><trkpt lat="45.75486871504623" lon="11.30953411313142"><ele>1158.5</ele><time>2026-04-26T12:08:47.998Z</time></trkpt><trkpt lat="45.75480592702059" lon="11.30962498061107"><ele>1157.6666666666665</ele><time>2026-04-26T12:08:48.998Z</time></trkpt><trkpt lat="45.75474766897501" lon="11.30970159510935"><ele>1156.8333333333333</ele><time>2026-04-26T12:08:49.998Z</time></trkpt><trkpt lat="45.75470048332285" lon="11.309766255545059"><ele>1156.0</ele><time>2026-04-26T12:08:50.998Z</time></trkpt><trkpt lat="45.754622689362265" lon="11.309881613770608"><ele>1159.5</ele><time>2026-04-26T12:08:52.998Z</time></trkpt><trkpt lat="45.7545360936641" lon="11.31000225006397"><ele>1163.0</ele><time>2026-04-26T12:08:54.998Z</time></trkpt><trkpt lat="45.754496557820886" lon="11.31009227050073"><ele>1166.5</ele><time>2026-04-26T12:08:55.998Z</time></trkpt><trkpt lat="45.75446155142126" lon="11.310203438297837"><ele>1170.0</ele><time>2026-04-26T12:08:56.998Z</time></trkpt><trkpt lat="45.754435808360206" lon="11.310327326620369"><ele>1173.5</ele><time>2026-04-26T12:08:57.998Z</time></trkpt><trkpt lat="45.754405051643005" lon="11.310427089522774"><ele>1177.0</ele><time>2026-04-26T12:08:58.998Z</time></trkpt><trkpt lat="45.75437188341048" lon="11.310526636485402"><ele>1171.0</ele><time>2026-04-26T12:08:59.998Z</time></trkpt><trkpt lat="45.75433177067934" lon="11.310727612763436"><ele>1165.0</ele><time>2026-04-26T12:09:01.997Z</time></trkpt><trkpt lat="45.75432196600233" lon="11.310835477346155"><ele>1159.0</ele><time>2026-04-26T12:09:02.997Z</time></trkpt><trkpt lat="45.75431755924023" lon="11.310937097078037"><ele>1153.0</ele><time>2026-04-26T12:09:03.997Z</time></trkpt><trkpt lat="45.75430955903095" lon="11.311033940628947"><ele>1147.0</ele><time>2026-04-26T12:09:04.997Z</time></trkpt><trkpt lat="45.754311269009136" lon="11.311125970923802"><ele>1141.0</ele><time>2026-04-26T12:09:05.997Z</time></trkpt><trkpt lat="45.75429119136386" lon="11.311274318932147"><ele>1143.5</ele><time>2026-04-26T12:09:07.997Z</time></trkpt><trkpt lat="45.75424275977611" lon="11.311414738713806"><ele>1146.0</ele><time>2026-04-26T12:09:09.997Z</time></trkpt><trkpt lat="45.75421674751985" lon="11.31157134740518"><ele>1148.5</ele><time>2026-04-26T12:09:11.997Z</time></trkpt><trkpt lat="45.754197704716034" lon="11.311667530454534"><ele>1151.0</ele><time>2026-04-26T12:09:12.997Z</time></trkpt><trkpt lat="45.754173400367755" lon="11.311774698918938"><ele>1153.5</ele><time>2026-04-26T12:09:13.997Z</time></trkpt><trkpt lat="45.754153339703755" lon="11.31187523421884"><ele>1156.0</ele><time>2026-04-26T12:09:14.997Z</time></trkpt><trkpt lat="45.75413437267208" lon="11.312030572525739"><ele>1156.0</ele><time>2026-04-26T12:09:16.997Z</time></trkpt><trkpt lat="45.75411135222673" lon="11.31216995524648"><ele>1156.0</ele><time>2026-04-26T12:09:18.997Z</time></trkpt><trkpt lat="45.75410118095122" lon="11.312333602546843"><ele>1156.0</ele><time>2026-04-26T12:09:20.997Z</time></trkpt><trkpt lat="45.75409440441543" lon="11.312492714529332"><ele>1156.0</ele><time>2026-04-26T12:09:22.997Z</time></trkpt><trkpt lat="45.75408588817508" lon="11.31265293539794"><ele>1156.0</ele><time>2026-04-26T12:09:24.997Z</time></trkpt><trkpt lat="45.75407581528342" lon="11.312807924941351"><ele>1157.5</ele><time>2026-04-26T12:09:26.997Z</time></trkpt><trkpt lat="45.75411078723082" lon="11.312897539073987"><ele>1159.0</ele><time>2026-04-26T12:09:28.997Z</time></trkpt><trkpt lat="45.75418093278512" lon="11.312895633958316"><ele>1160.5</ele><time>2026-04-26T12:09:30.997Z</time></trkpt><trkpt lat="45.75419192565466" lon="11.312793906832024"><ele>1162.0</ele><time>2026-04-26T12:09:32.997Z</time></trkpt><trkpt lat="45.754156153444725" lon="11.31267636763714"><ele>1163.5</ele><time>2026-04-26T12:09:34.997Z</time></trkpt><trkpt lat="45.754179795916755" lon="11.3125267242491"><ele>1165.0</ele><time>2026-04-26T12:09:36.997Z</time></trkpt><trkpt lat="45.75422100611636" lon="11.312364438874573"><ele>1163.2</ele><time>2026-04-26T12:09:38.997Z</time></trkpt><trkpt lat="45.75427736894152" lon="11.312219022066294"><ele>1161.4</ele><time>2026-04-26T12:09:40.997Z</time></trkpt><trkpt lat="45.75436779691127" lon="11.312082384146743"><ele>1159.6</ele><time>2026-04-26T12:09:42.997Z</time></trkpt><trkpt lat="45.7544228768684" lon="11.312029512600962"><ele>1157.8</ele><time>2026-04-26T12:09:43.997Z</time></trkpt><trkpt lat="45.75448481407204" lon="11.31195757184615"><ele>1156.0</ele><time>2026-04-26T12:09:44.997Z</time></trkpt><trkpt lat="45.75454182542367" lon="11.311878861412342"><ele>1163.0</ele><time>2026-04-26T12:09:45.997Z</time></trkpt><trkpt lat="45.75457929670755" lon="11.311805238034083"><ele>1170.0</ele><time>2026-04-26T12:09:46.997Z</time></trkpt><trkpt lat="45.75462152161359" lon="11.311738199548211"><ele>1177.0</ele><time>2026-04-26T12:09:47.997Z</time></trkpt><trkpt lat="45.754663639360956" lon="11.311666455923193"><ele>1184.0</ele><time>2026-04-26T12:09:48.997Z</time></trkpt><trkpt lat="45.754688206142994" lon="11.311494907516865"><ele>1191.0</ele><time>2026-04-26T12:09:50.997Z</time></trkpt><trkpt lat="45.75468174297263" lon="11.311347553192737"><ele>1198.0</ele><time>2026-04-26T12:09:52.997Z</time></trkpt><trkpt lat="45.754717687323314" lon="11.311273372508644"><ele>1198.0</ele><time>2026-04-26T12:09:53.997Z</time></trkpt><trkpt lat="45.7547746235686" lon="11.311108334943597"><ele>1198.0</ele><time>2026-04-26T12:09:55.997Z</time></trkpt><trkpt lat="45.75480149613186" lon="11.311024965232889"><ele>1198.0</ele><time>2026-04-26T12:09:56.997Z</time></trkpt><trkpt lat="45.75488973331043" lon="11.310925186522605"><ele>1198.0</ele><time>2026-04-26T12:09:58.997Z</time></trkpt><trkpt lat="45.754983533458116" lon="11.31088297715249"><ele>1198.0</ele><time>2026-04-26T12:10:00.997Z</time></trkpt><trkpt lat="45.75506980489312" lon="11.31084425466916"><ele>1198.0</ele><time>2026-04-26T12:10:02.997Z</time></trkpt><trkpt lat="45.755165128383325" lon="11.31078334728935"><ele>1198.0</ele><time>2026-04-26T12:10:04.997Z</time></trkpt><trkpt lat="45.75523782224513" lon="11.310654235232441"><ele>1198.0</ele><time>2026-04-26T12:10:06.997Z</time></trkpt><trkpt lat="45.755263830158874" lon="11.310564435023284"><ele>1198.0</ele><time>2026-04-26T12:10:07.997Z</time></trkpt><trkpt lat="45.75532359918648" lon="11.310436227759224"><ele>1198.0</ele><time>2026-04-26T12:10:09.997Z</time></trkpt><trkpt lat="45.755394884714995" lon="11.310335906379564"><ele>1202.0</ele><time>2026-04-26T12:10:11.997Z</time></trkpt><trkpt lat="45.755479339583104" lon="11.310278001108495"><ele>1206.0</ele><time>2026-04-26T12:10:13.997Z</time></trkpt><trkpt lat="45.755581374386644" lon="11.310209853208569"><ele>1210.0</ele><time>2026-04-26T12:10:15.997Z</time></trkpt><trkpt lat="45.755649488262044" lon="11.310156827260721"><ele>1214.0</ele><time>2026-04-26T12:10:16.997Z</time></trkpt><trkpt lat="45.755716901803574" lon="11.310118361848168"><ele>1218.0</ele><time>2026-04-26T12:10:17.997Z</time></trkpt><trkpt lat="45.75578469781269" lon="11.310066487552469"><ele>1222.0</ele><time>2026-04-26T12:10:18.997Z</time></trkpt><trkpt lat="45.75585160180322" lon="11.310019906094833"><ele>1222.0</ele><time>2026-04-26T12:10:19.997Z</time></trkpt><trkpt lat="45.75595022479734" lon="11.309924847060094"><ele>1222.0</ele><time>2026-04-26T12:10:21.997Z</time></trkpt><trkpt lat="45.75602417351233" lon="11.309804475496216"><ele>1222.0</ele><time>2026-04-26T12:10:23.997Z</time></trkpt><trkpt lat="45.75604976032225" lon="11.309705930385597"><ele>1222.0</ele><time>2026-04-26T12:10:25.997Z</time></trkpt><trkpt lat="45.756010894466804" lon="11.309619545319178"><ele>1222.0</ele><time>2026-04-26T12:10:27.996Z</time></trkpt><trkpt lat="45.75590796432724" lon="11.309488697273853"><ele>1219.8</ele><time>2026-04-26T12:10:29.996Z</time></trkpt><trkpt lat="45.755819004571435" lon="11.309382322001095"><ele>1217.6</ele><time>2026-04-26T12:10:30.996Z</time></trkpt><trkpt lat="45.7557548082357" lon="11.30926639297384"><ele>1215.3999999999999</ele><time>2026-04-26T12:10:31.996Z</time></trkpt><trkpt lat="45.755711959934104" lon="11.309166477484334"><ele>1213.2</ele><time>2026-04-26T12:10:32.996Z</time></trkpt><trkpt lat="45.755669002605025" lon="11.309023308703633"><ele>1211.0</ele><time>2026-04-26T12:10:33.996Z</time></trkpt><trkpt lat="45.755626901744996" lon="11.30885892802694"><ele>1211.0</ele><time>2026-04-26T12:10:34.996Z</time></trkpt><trkpt lat="45.755603959963125" lon="11.30870533584561"><ele>1211.0</ele><time>2026-04-26T12:10:35.996Z</time></trkpt><trkpt lat="45.75563188484895" lon="11.308534989096241"><ele>1211.0</ele><time>2026-04-26T12:10:36.996Z</time></trkpt><trkpt lat="45.755664311310966" lon="11.308429537491845"><ele>1211.0</ele><time>2026-04-26T12:10:37.996Z</time></trkpt><trkpt lat="45.755695655841336" lon="11.308326146454974"><ele>1211.0</ele><time>2026-04-26T12:10:38.996Z</time></trkpt><trkpt lat="45.75572891483989" lon="11.308207155417909"><ele>1210.0</ele><time>2026-04-26T12:10:39.996Z</time></trkpt><trkpt lat="45.75575647833041" lon="11.308072212522546"><ele>1209.0</ele><time>2026-04-26T12:10:40.996Z</time></trkpt><trkpt lat="45.75578391335377" lon="11.30793638509571"><ele>1208.0</ele><time>2026-04-26T12:10:41.996Z</time></trkpt><trkpt lat="45.755809397668344" lon="11.307776611458063"><ele>1207.0</ele><time>2026-04-26T12:10:42.996Z</time></trkpt><trkpt lat="45.75583134558389" lon="11.307640913065594"><ele>1206.0</ele><time>2026-04-26T12:10:43.996Z</time></trkpt><trkpt lat="45.755849588119496" lon="11.307505538757301"><ele>1206.0</ele><time>2026-04-26T12:10:44.996Z</time></trkpt><trkpt lat="45.75586962702237" lon="11.3073883372911"><ele>1206.0</ele><time>2026-04-26T12:10:45.996Z</time></trkpt><trkpt lat="45.755876195409655" lon="11.307288779045965"><ele>1206.0</ele><time>2026-04-26T12:10:46.996Z</time></trkpt><trkpt lat="45.756109469128305" lon="11.307233137901259"><ele>1206.0</ele><time>2026-04-26T12:10:54.996Z</time></trkpt><trkpt lat="45.75615614741377" lon="11.307146531140358"><ele>1206.3999999999999</ele><time>2026-04-26T12:10:55.996Z</time></trkpt><trkpt lat="45.75625609798952" lon="11.30710975873122"><ele>1206.8</ele><time>2026-04-26T12:10:57.996Z</time></trkpt><trkpt lat="45.75636411692165" lon="11.307124749188189"><ele>1207.1999999999998</ele><time>2026-04-26T12:10:59.996Z</time></trkpt><trkpt lat="45.75646746440424" lon="11.307098053798605"><ele>1207.6</ele><time>2026-04-26T12:11:01.996Z</time></trkpt><trkpt lat="45.75659603455497" lon="11.307084468552604"><ele>1208.0</ele><time>2026-04-26T12:11:03.996Z</time></trkpt><trkpt lat="45.75665161676666" lon="11.307040158910219"><ele>1208.0</ele><time>2026-04-26T12:11:04.996Z</time></trkpt><trkpt lat="45.7567145450227" lon="11.306949031121922"><ele>1208.0</ele><time>2026-04-26T12:11:05.996Z</time></trkpt><trkpt lat="45.7567540674891" lon="11.30685243400439"><ele>1208.0</ele><time>2026-04-26T12:11:06.996Z</time></trkpt><trkpt lat="45.756792438746835" lon="11.306749898231917"><ele>1208.0</ele><time>2026-04-26T12:11:07.996Z</time></trkpt><trkpt lat="45.756832112413" lon="11.306646388311192"><ele>1208.0</ele><time>2026-04-26T12:11:08.996Z</time></trkpt><trkpt lat="45.75687168794266" lon="11.30655252694418"><ele>1208.0</ele><time>2026-04-26T12:11:09.996Z</time></trkpt><trkpt lat="45.756930823680435" lon="11.306450975109238"><ele>1209.8333333333335</ele><time>2026-04-26T12:11:10.996Z</time></trkpt><trkpt lat="45.75696632865293" lon="11.306374750687203"><ele>1211.6666666666667</ele><time>2026-04-26T12:11:11.996Z</time></trkpt><trkpt lat="45.75705754919816" lon="11.306273360267696"><ele>1213.5</ele><time>2026-04-26T12:11:13.996Z</time></trkpt><trkpt lat="45.757120913289825" lon="11.306225172854797"><ele>1215.3333333333333</ele><time>2026-04-26T12:11:14.996Z</time></trkpt><trkpt lat="45.75719899833176" lon="11.306161825821755"><ele>1217.1666666666665</ele><time>2026-04-26T12:11:15.996Z</time></trkpt><trkpt lat="45.757270937336855" lon="11.306123623570313"><ele>1219.0</ele><time>2026-04-26T12:11:16.996Z</time></trkpt><trkpt lat="45.75734923599773" lon="11.306093227702483"><ele>1219.0</ele><time>2026-04-26T12:11:17.996Z</time></trkpt><trkpt lat="45.757433068111844" lon="11.30605847257263"><ele>1219.0</ele><time>2026-04-26T12:11:18.996Z</time></trkpt><trkpt lat="45.75751030693162" lon="11.306033522250468"><ele>1219.0</ele><time>2026-04-26T12:11:19.996Z</time></trkpt><trkpt lat="45.7575822570534" lon="11.30601826312226"><ele>1219.0</ele><time>2026-04-26T12:11:20.996Z</time></trkpt><trkpt lat="45.75766715671853" lon="11.305998714077512"><ele>1219.0</ele><time>2026-04-26T12:11:21.996Z</time></trkpt><trkpt lat="45.75773539217929" lon="11.305990396783839"><ele>1219.0</ele><time>2026-04-26T12:11:22.996Z</time></trkpt><trkpt lat="45.757796897098814" lon="11.305950484465678"><ele>1223.3333333333333</ele><time>2026-04-26T12:11:23.996Z</time></trkpt><trkpt lat="45.757867846435445" lon="11.305886362132798"><ele>1227.6666666666665</ele><time>2026-04-26T12:11:24.996Z</time></trkpt><trkpt lat="45.757932224489345" lon="11.305830846207698"><ele>1232.0</ele><time>2026-04-26T12:11:25.996Z</time></trkpt><trkpt lat="45.75799183883075" lon="11.305799120254486"><ele>1236.3333333333333</ele><time>2026-04-26T12:11:26.996Z</time></trkpt><trkpt lat="45.75808738348444" lon="11.305737487901833"><ele>1240.6666666666667</ele><time>2026-04-26T12:11:28.995Z</time></trkpt><trkpt lat="45.75814133123253" lon="11.30568069621333"><ele>1245.0</ele><time>2026-04-26T12:11:29.995Z</time></trkpt><trkpt lat="45.75819265781773" lon="11.305599228010628"><ele>1241.0</ele><time>2026-04-26T12:11:30.995Z</time></trkpt><trkpt lat="45.75825393384568" lon="11.305523939386852"><ele>1237.0</ele><time>2026-04-26T12:11:31.995Z</time></trkpt><trkpt lat="45.75831606979701" lon="11.305428920236649"><ele>1233.0</ele><time>2026-04-26T12:11:32.995Z</time></trkpt><trkpt lat="45.75835133076227" lon="11.305335381754094"><ele>1229.0</ele><time>2026-04-26T12:11:33.997Z</time></trkpt><trkpt lat="45.75839673544431" lon="11.30526574864533"><ele>1225.0</ele><time>2026-04-26T12:11:34.997Z</time></trkpt><trkpt lat="45.75844105880465" lon="11.305196061438359"><ele>1221.0</ele><time>2026-04-26T12:11:35.997Z</time></trkpt><trkpt lat="45.75848180452184" lon="11.305115517132917"><ele>1217.0</ele><time>2026-04-26T12:11:36.997Z</time></trkpt><trkpt lat="45.75853213485939" lon="11.30505643745488"><ele>1221.6666666666667</ele><time>2026-04-26T12:11:37.997Z</time></trkpt><trkpt lat="45.75860628441844" lon="11.305066396309916"><ele>1226.3333333333335</ele><time>2026-04-26T12:11:40.998Z</time></trkpt><trkpt lat="45.75862342593714" lon="11.305171973276261"><ele>1231.0</ele><time>2026-04-26T12:11:43.998Z</time></trkpt><trkpt lat="45.75859955332424" lon="11.305303491617714"><ele>1235.6666666666667</ele><time>2026-04-26T12:11:45.998Z</time></trkpt><trkpt lat="45.75859150368839" lon="11.305393733064962"><ele>1240.3333333333333</ele><time>2026-04-26T12:11:46.998Z</time></trkpt><trkpt lat="45.758559540762874" lon="11.30554972597948"><ele>1245.0</ele><time>2026-04-26T12:11:48.999Z</time></trkpt><trkpt lat="45.75851143558638" lon="11.30562126541504"><ele>1245.0</ele><time>2026-04-26T12:11:49.999Z</time></trkpt><trkpt lat="45.75846090807478" lon="11.30568844126414"><ele>1245.0</ele><time>2026-04-26T12:11:50.999Z</time></trkpt><trkpt lat="45.75840935481445" lon="11.305753155318312"><ele>1245.0</ele><time>2026-04-26T12:11:51.999Z</time></trkpt><trkpt lat="45.75836358348594" lon="11.305824412497694"><ele>1245.0</ele><time>2026-04-26T12:11:52.999Z</time></trkpt><trkpt lat="45.75831715690116" lon="11.305927863470709"><ele>1245.0</ele><time>2026-04-26T12:11:53.999Z</time></trkpt><trkpt lat="45.75827310242404" lon="11.30604747244352"><ele>1245.0</ele><time>2026-04-26T12:11:54.999Z</time></trkpt><trkpt lat="45.758240398314044" lon="11.306163770581541"><ele>1245.0</ele><time>2026-04-26T12:11:55.999Z</time></trkpt><trkpt lat="45.75819884005784" lon="11.306260251502694"><ele>1245.0</ele><time>2026-04-26T12:11:56.999Z</time></trkpt><trkpt lat="45.758164929024474" lon="11.306342256833855"><ele>1245.0</ele><time>2026-04-26T12:11:57.999Z</time></trkpt><trkpt lat="45.75809304144886" lon="11.306464759622585"><ele>1245.0</ele><time>2026-04-26T12:11:59.999Z</time></trkpt><trkpt lat="45.75804181600522" lon="11.306528018635422"><ele>1245.0</ele><time>2026-04-26T12:12:00.999Z</time></trkpt><trkpt lat="45.75799294130077" lon="11.306595975372446"><ele>1245.0</ele><time>2026-04-26T12:12:01.999Z</time></trkpt><trkpt lat="45.757942668562116" lon="11.306683413398337"><ele>1244.0</ele><time>2026-04-26T12:12:02.999Z</time></trkpt><trkpt lat="45.75789140346891" lon="11.306783864597351"><ele>1243.0</ele><time>2026-04-26T12:12:03.999Z</time></trkpt><trkpt lat="45.75783576231552" lon="11.306881144397376"><ele>1242.0</ele><time>2026-04-26T12:12:04.999Z</time></trkpt><trkpt lat="45.75778709737973" lon="11.306966303650912"><ele>1241.0</ele><time>2026-04-26T12:12:05.999Z</time></trkpt><trkpt lat="45.75774881284011" lon="11.307050928931089"><ele>1240.0</ele><time>2026-04-26T12:12:06.999Z</time></trkpt><trkpt lat="45.75771563902429" lon="11.307128957350548"><ele>1239.0</ele><time>2026-04-26T12:12:07.999Z</time></trkpt><trkpt lat="45.757678050906414" lon="11.30720936075622"><ele>1243.0</ele><time>2026-04-26T12:12:08.999Z</time></trkpt><trkpt lat="45.757639325614726" lon="11.30729088265517"><ele>1247.0</ele><time>2026-04-26T12:12:09.999Z</time></trkpt><trkpt lat="45.75756910141413" lon="11.307451184374202"><ele>1251.0</ele><time>2026-04-26T12:12:11.999Z</time></trkpt><trkpt lat="45.75753497510584" lon="11.307565424559396"><ele>1255.0</ele><time>2026-04-26T12:12:12.999Z</time></trkpt><trkpt lat="45.757508307730355" lon="11.307667470534348"><ele>1259.0</ele><time>2026-04-26T12:12:13.999Z</time></trkpt><trkpt lat="45.75747216824532" lon="11.307834777922011"><ele>1259.0</ele><time>2026-04-26T12:12:15.999Z</time></trkpt><trkpt lat="45.75745950140356" lon="11.308000968366182"><ele>1259.0</ele><time>2026-04-26T12:12:17.999Z</time></trkpt><trkpt lat="45.75742210872569" lon="11.308152917230686"><ele>1259.0</ele><time>2026-04-26T12:12:19.999Z</time></trkpt><trkpt lat="45.757369535443516" lon="11.308312708356443"><ele>1259.0</ele><time>2026-04-26T12:12:21.999Z</time></trkpt><trkpt lat="45.7573454132166" lon="11.308413199864546"><ele>1259.0</ele><time>2026-04-26T12:12:22.999Z</time></trkpt><trkpt lat="45.757306811005364" lon="11.308540470798357"><ele>1262.3333333333335</ele><time>2026-04-26T12:12:24.999Z</time></trkpt><trkpt lat="45.757286575845725" lon="11.308626478358054"><ele>1265.6666666666667</ele><time>2026-04-26T12:12:26.999Z</time></trkpt><trkpt lat="45.7572843097182" lon="11.308727962162509"><ele>1269.0</ele><time>2026-04-26T12:12:29.999Z</time></trkpt><trkpt lat="45.75728025978516" lon="11.308844255498876"><ele>1272.3333333333333</ele><time>2026-04-26T12:12:31.999Z</time></trkpt><trkpt lat="45.75727712241209" lon="11.308948608369064"><ele>1275.6666666666665</ele><time>2026-04-26T12:12:33.999Z</time></trkpt><trkpt lat="45.757275457718386" lon="11.309118986874122"><ele>1279.0</ele><time>2026-04-26T12:12:35.999Z</time></trkpt><trkpt lat="45.75726902029977" lon="11.309211189466037"><ele>1281.1666666666665</ele><time>2026-04-26T12:12:36.999Z</time></trkpt><trkpt lat="45.75725650395513" lon="11.309314329097115"><ele>1283.3333333333333</ele><time>2026-04-26T12:12:37.999Z</time></trkpt><trkpt lat="45.75724585749263" lon="11.309413934458231"><ele>1285.5</ele><time>2026-04-26T12:12:38.999Z</time></trkpt><trkpt lat="45.757244844579375" lon="11.309601724068601"><ele>1287.6666666666667</ele><time>2026-04-26T12:12:40.999Z</time></trkpt><trkpt lat="45.75724113562529" lon="11.309711683615317"><ele>1289.8333333333335</ele><time>2026-04-26T12:12:41.999Z</time></trkpt><trkpt lat="45.75722874949237" lon="11.309804697035196"><ele>1292.0</ele><time>2026-04-26T12:12:42.999Z</time></trkpt><trkpt lat="45.75718549491171" lon="11.309959372979376"><ele>1294.3333333333335</ele><time>2026-04-26T12:12:44.999Z</time></trkpt><trkpt lat="45.75714186009641" lon="11.310036875332543"><ele>1296.6666666666667</ele><time>2026-04-26T12:12:45.999Z</time></trkpt><trkpt lat="45.757112296068385" lon="11.310116604054457"><ele>1299.0</ele><time>2026-04-26T12:12:46.999Z</time></trkpt><trkpt lat="45.75707713800027" lon="11.310199291761576"><ele>1301.3333333333333</ele><time>2026-04-26T12:12:47.999Z</time></trkpt><trkpt lat="45.75701598286436" lon="11.310336875943504"><ele>1303.6666666666665</ele><time>2026-04-26T12:12:49.999Z</time></trkpt><trkpt lat="45.75694888921128" lon="11.310460602629364"><ele>1306.0</ele><time>2026-04-26T12:12:51.999Z</time></trkpt><trkpt lat="45.7568792313065" lon="11.310572371687117"><ele>1303.6</ele><time>2026-04-26T12:12:53.999Z</time></trkpt><trkpt lat="45.75685016208905" lon="11.310723001700174"><ele>1301.1999999999998</ele><time>2026-04-26T12:12:55.999Z</time></trkpt><trkpt lat="45.75683642667959" lon="11.310813956370536"><ele>1298.8000000000002</ele><time>2026-04-26T12:12:56.999Z</time></trkpt><trkpt lat="45.75682177256807" lon="11.310903143678631"><ele>1296.4</ele><time>2026-04-26T12:12:57.999Z</time></trkpt><trkpt lat="45.756800087432936" lon="11.311084103998834"><ele>1294.0</ele><time>2026-04-26T12:12:59.999Z</time></trkpt><trkpt lat="45.75678488763437" lon="11.31125710599063"><ele>1294.0</ele><time>2026-04-26T12:13:01.999Z</time></trkpt><trkpt lat="45.75677901440818" lon="11.311358126358574"><ele>1294.0</ele><time>2026-04-26T12:13:02.999Z</time></trkpt><trkpt lat="45.756764155216494" lon="11.311462773159628"><ele>1294.0</ele><time>2026-04-26T12:13:03.999Z</time></trkpt><trkpt lat="45.756747696666594" lon="11.311570997943718"><ele>1294.0</ele><time>2026-04-26T12:13:04.999Z</time></trkpt><trkpt lat="45.75671836500181" lon="11.311684562418664"><ele>1294.0</ele><time>2026-04-26T12:13:05.999Z</time></trkpt><trkpt lat="45.756701460142246" lon="11.31178579021957"><ele>1294.0</ele><time>2026-04-26T12:13:06.999Z</time></trkpt><trkpt lat="45.75667909936354" lon="11.311890374718596"><ele>1295.6666666666665</ele><time>2026-04-26T12:13:07.999Z</time></trkpt><trkpt lat="45.75665636579992" lon="11.31199133356374"><ele>1297.3333333333333</ele><time>2026-04-26T12:13:08.999Z</time></trkpt><trkpt lat="45.75663769517311" lon="11.312085292112105"><ele>1299.0</ele><time>2026-04-26T12:13:09.999Z</time></trkpt><trkpt lat="45.75661927723647" lon="11.31218595521516"><ele>1300.6666666666667</ele><time>2026-04-26T12:13:10.999Z</time></trkpt><trkpt lat="45.75660524532467" lon="11.312287514781373"><ele>1302.3333333333335</ele><time>2026-04-26T12:13:11.999Z</time></trkpt><trkpt lat="45.756592525898164" lon="11.312387579883724"><ele>1304.0</ele><time>2026-04-26T12:13:12.999Z</time></trkpt><trkpt lat="45.756541808670164" lon="11.312536209538562"><ele>1306.6666666666667</ele><time>2026-04-26T12:13:14.999Z</time></trkpt><trkpt lat="45.75647861217121" lon="11.312647871064295"><ele>1309.3333333333335</ele><time>2026-04-26T12:13:16.999Z</time></trkpt><trkpt lat="45.7564206559448" lon="11.312739522670237"><ele>1312.0</ele><time>2026-04-26T12:13:18.998Z</time></trkpt><trkpt lat="45.75639784337881" lon="11.312842833229459"><ele>1314.6666666666667</ele><time>2026-04-26T12:13:20.998Z</time></trkpt><trkpt lat="45.756402482514105" lon="11.312933733166926"><ele>1317.3333333333333</ele><time>2026-04-26T12:13:33.998Z</time></trkpt><trkpt lat="45.75647270991108" lon="11.312917873340883"><ele>1320.0</ele><time>2026-04-26T12:13:37.998Z</time></trkpt><trkpt lat="45.756540122558064" lon="11.313005831481204"><ele>1320.0</ele><time>2026-04-26T12:14:04.998Z</time></trkpt><trkpt lat="45.75641199786208" lon="11.31315894616767"><ele>1320.0</ele><time>2026-04-26T12:25:50.996Z</time></trkpt><trkpt lat="45.75645320323574" lon="11.31308011549304"><ele>1320.0</ele><time>2026-04-26T12:26:13.998Z</time></trkpt><trkpt lat="45.75651133602571" lon="11.313034477445408"><ele>1320.0</ele><time>2026-04-26T12:26:27.999Z</time></trkpt><trkpt lat="45.75657523603839" lon="11.312972196304719"><ele>1320.0</ele><time>2026-04-26T12:27:16.998Z</time></trkpt><trkpt lat="45.75660545399374" lon="11.312888131079857"><ele>1320.0</ele><time>2026-04-26T12:27:21.998Z</time></trkpt><trkpt lat="45.75661515056222" lon="11.312796930463932"><ele>1320.0</ele><time>2026-04-26T12:27:24.998Z</time></trkpt><trkpt lat="45.75664754120771" lon="11.312705734185249"><ele>1320.0</ele><time>2026-04-26T12:27:26.998Z</time></trkpt><trkpt lat="45.75668655038224" lon="11.312594291425409"><ele>1320.0</ele><time>2026-04-26T12:27:28.998Z</time></trkpt><trkpt lat="45.75672381914426" lon="11.31248137094454"><ele>1320.0</ele><time>2026-04-26T12:27:30.998Z</time></trkpt><trkpt lat="45.75677889377248" lon="11.312363407596555"><ele>1320.0</ele><time>2026-04-26T12:27:32.998Z</time></trkpt><trkpt lat="45.75682632888057" lon="11.31222431561333"><ele>1324.6</ele><time>2026-04-26T12:27:34.998Z</time></trkpt><trkpt lat="45.75688702526179" lon="11.312083440132731"><ele>1329.2</ele><time>2026-04-26T12:27:36.998Z</time></trkpt><trkpt lat="45.75693942425331" lon="11.31194222365164"><ele>1333.8000000000002</ele><time>2026-04-26T12:27:38.998Z</time></trkpt><trkpt lat="45.757004258749795" lon="11.311792126973613"><ele>1338.4</ele><time>2026-04-26T12:27:40.998Z</time></trkpt><trkpt lat="45.75704401836097" lon="11.311711964804175"><ele>1343.0</ele><time>2026-04-26T12:27:41.998Z</time></trkpt><trkpt lat="45.757085678078674" lon="11.311633532322208"><ele>1343.0</ele><time>2026-04-26T12:27:42.998Z</time></trkpt><trkpt lat="45.7571533755729" lon="11.311517670818695"><ele>1343.0</ele><time>2026-04-26T12:27:44.998Z</time></trkpt><trkpt lat="45.757242308614664" lon="11.311403410283289"><ele>1343.0</ele><time>2026-04-26T12:27:46.998Z</time></trkpt><trkpt lat="45.75729300495124" lon="11.311339111465653"><ele>1343.0</ele><time>2026-04-26T12:27:47.998Z</time></trkpt><trkpt lat="45.757355791734916" lon="11.311257865634866"><ele>1343.0</ele><time>2026-04-26T12:27:48.998Z</time></trkpt><trkpt lat="45.75742697259077" lon="11.311174957244354"><ele>1346.5</ele><time>2026-04-26T12:27:49.998Z</time></trkpt><trkpt lat="45.75750632883894" lon="11.311071530660012"><ele>1350.0</ele><time>2026-04-26T12:27:50.998Z</time></trkpt><trkpt lat="45.75759556496464" lon="11.310954658355524"><ele>1353.5</ele><time>2026-04-26T12:27:51.998Z</time></trkpt><trkpt lat="45.75768661525832" lon="11.310849196909238"><ele>1357.0</ele><time>2026-04-26T12:27:52.998Z</time></trkpt><trkpt lat="45.75777305121644" lon="11.310758774244688"><ele>1357.0</ele><time>2026-04-26T12:27:53.998Z</time></trkpt><trkpt lat="45.757855019264525" lon="11.310698920570747"><ele>1357.0</ele><time>2026-04-26T12:27:54.998Z</time></trkpt><trkpt lat="45.75794540060954" lon="11.310617650205728"><ele>1357.0</ele><time>2026-04-26T12:27:55.998Z</time></trkpt><trkpt lat="45.75802622514808" lon="11.310531665105248"><ele>1357.0</ele><time>2026-04-26T12:27:56.998Z</time></trkpt><trkpt lat="45.75811347718887" lon="11.310417247978192"><ele>1357.0</ele><time>2026-04-26T12:27:57.998Z</time></trkpt><trkpt lat="45.75819957659049" lon="11.310315727504205"><ele>1359.5</ele><time>2026-04-26T12:27:58.998Z</time></trkpt><trkpt lat="45.758274606314146" lon="11.310222114446699"><ele>1362.0</ele><time>2026-04-26T12:27:59.998Z</time></trkpt><trkpt lat="45.75833155569304" lon="11.310154522487572"><ele>1364.5</ele><time>2026-04-26T12:28:00.998Z</time></trkpt><trkpt lat="45.75841425791849" lon="11.310087291284235"><ele>1367.0</ele><time>2026-04-26T12:28:02.998Z</time></trkpt><trkpt lat="45.75849392772044" lon="11.309998310087416"><ele>1369.5</ele><time>2026-04-26T12:28:04.998Z</time></trkpt><trkpt lat="45.75854590597896" lon="11.309939930089625"><ele>1372.0</ele><time>2026-04-26T12:28:05.998Z</time></trkpt><trkpt lat="45.758613497977095" lon="11.309844466353589"><ele>1372.0</ele><time>2026-04-26T12:28:07.998Z</time></trkpt><trkpt lat="45.758672716212295" lon="11.309752819763595"><ele>1372.0</ele><time>2026-04-26T12:28:09.998Z</time></trkpt><trkpt lat="45.758743487595225" lon="11.309652331797082"><ele>1372.0</ele><time>2026-04-26T12:28:11.998Z</time></trkpt><trkpt lat="45.75881209528836" lon="11.309523163198149"><ele>1372.0</ele><time>2026-04-26T12:28:13.998Z</time></trkpt><trkpt lat="45.758882575083966" lon="11.309398942522062"><ele>1372.0</ele><time>2026-04-26T12:28:15.998Z</time></trkpt><trkpt lat="45.75891736816052" lon="11.309320909939908"><ele>1369.3333333333333</ele><time>2026-04-26T12:28:16.998Z</time></trkpt><trkpt lat="45.75895409176508" lon="11.309232341355555"><ele>1366.6666666666665</ele><time>2026-04-26T12:28:17.998Z</time></trkpt><trkpt lat="45.75899043302874" lon="11.309134029653992"><ele>1364.0</ele><time>2026-04-26T12:28:18.998Z</time></trkpt><trkpt lat="45.75903776451958" lon="11.309038654775893"><ele>1361.3333333333333</ele><time>2026-04-26T12:28:19.998Z</time></trkpt><trkpt lat="45.75908553128768" lon="11.308934652198316"><ele>1358.6666666666667</ele><time>2026-04-26T12:28:20.998Z</time></trkpt><trkpt lat="45.75912838959939" lon="11.308841550545308"><ele>1356.0</ele><time>2026-04-26T12:28:21.998Z</time></trkpt><trkpt lat="45.759162886032286" lon="11.308749611713498"><ele>1354.5714285714284</ele><time>2026-04-26T12:28:22.998Z</time></trkpt><trkpt lat="45.75920240179536" lon="11.30864814337955"><ele>1353.1428571428573</ele><time>2026-04-26T12:28:23.998Z</time></trkpt><trkpt lat="45.759234021868025" lon="11.308546016358967"><ele>1351.7142857142858</ele><time>2026-04-26T12:28:24.998Z</time></trkpt><trkpt lat="45.7592789501563" lon="11.308464115133546"><ele>1350.2857142857142</ele><time>2026-04-26T12:28:25.998Z</time></trkpt><trkpt lat="45.75932069997117" lon="11.30838740633451"><ele>1348.8571428571427</ele><time>2026-04-26T12:28:26.998Z</time></trkpt><trkpt lat="45.75936399868631" lon="11.30831292611529"><ele>1347.4285714285716</ele><time>2026-04-26T12:28:27.998Z</time></trkpt><trkpt lat="45.75938750360313" lon="11.30822911162649"><ele>1346.0</ele><time>2026-04-26T12:28:29.998Z</time></trkpt><trkpt lat="45.759437087412664" lon="11.308569863222427"><ele>1348.5</ele><time>2026-04-26T12:28:36.997Z</time></trkpt><trkpt lat="45.75942473473689" lon="11.308753807847463"><ele>1351.0</ele><time>2026-04-26T12:28:37.997Z</time></trkpt><trkpt lat="45.75938158754131" lon="11.308963588637084"><ele>1353.5</ele><time>2026-04-26T12:28:38.997Z</time></trkpt><trkpt lat="45.75934408573554" lon="11.309190522504212"><ele>1356.0</ele><time>2026-04-26T12:28:39.997Z</time></trkpt><trkpt lat="45.75929979017108" lon="11.309403162742779"><ele>1356.0</ele><time>2026-04-26T12:28:40.997Z</time></trkpt><trkpt lat="45.75924876125762" lon="11.309590692460194"><ele>1356.0</ele><time>2026-04-26T12:28:41.997Z</time></trkpt><trkpt lat="45.759223033952054" lon="11.309743043214077"><ele>1356.0</ele><time>2026-04-26T12:28:42.997Z</time></trkpt><trkpt lat="45.75917438796023" lon="11.30989906137618"><ele>1356.0</ele><time>2026-04-26T12:28:43.997Z</time></trkpt><trkpt lat="45.75913285565478" lon="11.310042911914422"><ele>1358.6666666666667</ele><time>2026-04-26T12:28:44.997Z</time></trkpt><trkpt lat="45.75908981783121" lon="11.31018086015917"><ele>1361.3333333333333</ele><time>2026-04-26T12:28:45.997Z</time></trkpt><trkpt lat="45.75905272801383" lon="11.310302197272996"><ele>1364.0</ele><time>2026-04-26T12:28:46.997Z</time></trkpt><trkpt lat="45.75902317151071" lon="11.31040616462527"><ele>1366.6666666666665</ele><time>2026-04-26T12:28:47.997Z</time></trkpt><trkpt lat="45.75899074832765" lon="11.31049672002789"><ele>1369.3333333333333</ele><time>2026-04-26T12:28:48.997Z</time></trkpt><trkpt lat="45.75896024962048" lon="11.310578548369044"><ele>1372.0</ele><time>2026-04-26T12:28:49.997Z</time></trkpt><trkpt lat="45.75892642518846" lon="11.31066134789791"><ele>1375.7142857142858</ele><time>2026-04-26T12:28:50.997Z</time></trkpt><trkpt lat="45.75885791068128" lon="11.310717919936652"><ele>1379.4285714285716</ele><time>2026-04-26T12:28:51.997Z</time></trkpt><trkpt lat="45.75879375407306" lon="11.310752817071474"><ele>1383.142857142857</ele><time>2026-04-26T12:28:52.997Z</time></trkpt><trkpt lat="45.758731584363375" lon="11.310778531963244"><ele>1386.857142857143</ele><time>2026-04-26T12:28:53.997Z</time></trkpt><trkpt lat="45.75866491325948" lon="11.31081217083199"><ele>1390.5714285714287</ele><time>2026-04-26T12:28:54.997Z</time></trkpt><trkpt lat="45.75861796598051" lon="11.31088591571332"><ele>1394.2857142857142</ele><time>2026-04-26T12:28:55.997Z</time></trkpt><trkpt lat="45.758578339087165" lon="11.310970342068158"><ele>1398.0</ele><time>2026-04-26T12:28:56.997Z</time></trkpt><trkpt lat="45.75853672239567" lon="11.311071083814292"><ele>1394.8333333333333</ele><time>2026-04-26T12:28:57.997Z</time></trkpt><trkpt lat="45.758494030126755" lon="11.311183699194505"><ele>1391.6666666666667</ele><time>2026-04-26T12:28:58.997Z</time></trkpt><trkpt lat="45.75844477067561" lon="11.311285588111431"><ele>1388.5</ele><time>2026-04-26T12:28:59.997Z</time></trkpt><trkpt lat="45.75840187465663" lon="11.311372616741862"><ele>1385.3333333333335</ele><time>2026-04-26T12:29:00.997Z</time></trkpt><trkpt lat="45.758358137389806" lon="11.31144245632535"><ele>1382.1666666666667</ele><time>2026-04-26T12:29:01.997Z</time></trkpt><trkpt lat="45.7582948288719" lon="11.311556802029411"><ele>1379.0</ele><time>2026-04-26T12:29:03.997Z</time></trkpt><trkpt lat="45.758364670921786" lon="11.311568323568137"><ele>1379.0</ele><time>2026-04-26T12:29:07.997Z</time></trkpt><trkpt lat="45.75841520493562" lon="11.311500600017762"><ele>1379.0</ele><time>2026-04-26T12:29:08.997Z</time></trkpt><trkpt lat="45.758467444876025" lon="11.311403442239607"><ele>1379.0</ele><time>2026-04-26T12:29:09.997Z</time></trkpt><trkpt lat="45.75853220322857" lon="11.311286732702106"><ele>1379.0</ele><time>2026-04-26T12:29:10.997Z</time></trkpt><trkpt lat="45.75859899679332" lon="11.311161482161296"><ele>1379.0</ele><time>2026-04-26T12:29:11.997Z</time></trkpt><trkpt lat="45.758661690976844" lon="11.311050251016365"><ele>1382.8000000000002</ele><time>2026-04-26T12:29:12.997Z</time></trkpt><trkpt lat="45.75872319576655" lon="11.310946370247306"><ele>1386.6000000000001</ele><time>2026-04-26T12:29:13.997Z</time></trkpt><trkpt lat="45.75880540355995" lon="11.31087045474502"><ele>1390.4</ele><time>2026-04-26T12:29:14.997Z</time></trkpt><trkpt lat="45.75889333207729" lon="11.310819013396602"><ele>1394.2</ele><time>2026-04-26T12:29:15.997Z</time></trkpt><trkpt lat="45.75897704972613" lon="11.310775650374111"><ele>1398.0</ele><time>2026-04-26T12:29:16.997Z</time></trkpt><trkpt lat="45.75905333320466" lon="11.310718024763426"><ele>1398.0</ele><time>2026-04-26T12:29:17.997Z</time></trkpt><trkpt lat="45.75913114158405" lon="11.31064658371884"><ele>1398.0</ele><time>2026-04-26T12:29:18.997Z</time></trkpt><trkpt lat="45.759196935076595" lon="11.310544704155584"><ele>1398.0</ele><time>2026-04-26T12:29:19.997Z</time></trkpt><trkpt lat="45.75925357810369" lon="11.310430032230476"><ele>1398.0</ele><time>2026-04-26T12:29:20.997Z</time></trkpt><trkpt lat="45.75931514940094" lon="11.310333147290446"><ele>1398.0</ele><time>2026-04-26T12:29:21.997Z</time></trkpt><trkpt lat="45.7593830726953" lon="11.310263005488627"><ele>1398.5</ele><time>2026-04-26T12:29:22.997Z</time></trkpt><trkpt lat="45.759437355564344" lon="11.310183992073712"><ele>1399.0</ele><time>2026-04-26T12:29:23.997Z</time></trkpt><trkpt lat="45.759484374218374" lon="11.310087642822198"><ele>1399.5</ele><time>2026-04-26T12:29:24.997Z</time></trkpt><trkpt lat="45.75952028869411" lon="11.30997757270932"><ele>1400.0</ele><time>2026-04-26T12:29:25.997Z</time></trkpt><trkpt lat="45.759540558797845" lon="11.309858809553432"><ele>1400.5</ele><time>2026-04-26T12:29:26.997Z</time></trkpt><trkpt lat="45.75956660772858" lon="11.309754029705172"><ele>1401.0</ele><time>2026-04-26T12:29:27.997Z</time></trkpt><trkpt lat="45.75960103736968" lon="11.30966289240105"><ele>1401.0</ele><time>2026-04-26T12:29:28.997Z</time></trkpt><trkpt lat="45.75966058495352" lon="11.309573146945976"><ele>1401.0</ele><time>2026-04-26T12:29:29.997Z</time></trkpt><trkpt lat="45.75974596483648" lon="11.309472770997537"><ele>1401.0</ele><time>2026-04-26T12:29:30.997Z</time></trkpt><trkpt lat="45.759841782636684" lon="11.309354236593972"><ele>1401.0</ele><time>2026-04-26T12:29:31.997Z</time></trkpt><trkpt lat="45.759953833281145" lon="11.309229283659237"><ele>1401.0</ele><time>2026-04-26T12:29:32.997Z</time></trkpt><trkpt lat="45.760061721349594" lon="11.309082639080119"><ele>1401.0</ele><time>2026-04-26T12:29:33.997Z</time></trkpt><trkpt lat="45.76016615934629" lon="11.308938734062291"><ele>1401.0</ele><time>2026-04-26T12:29:34.997Z</time></trkpt><trkpt lat="45.76026584658702" lon="11.308821322054069"><ele>1401.0</ele><time>2026-04-26T12:29:35.997Z</time></trkpt><trkpt lat="45.76035653758687" lon="11.308709256669454"><ele>1401.4</ele><time>2026-04-26T12:29:36.997Z</time></trkpt><trkpt lat="45.76043704308651" lon="11.308586277121876"><ele>1401.8</ele><time>2026-04-26T12:29:37.997Z</time></trkpt><trkpt lat="45.760496353299764" lon="11.30844047899526"><ele>1402.2</ele><time>2026-04-26T12:29:38.997Z</time></trkpt><trkpt lat="45.76054559885711" lon="11.308297091904999"><ele>1402.6000000000001</ele><time>2026-04-26T12:29:39.997Z</time></trkpt><trkpt lat="45.760589796874854" lon="11.308169940509385"><ele>1403.0</ele><time>2026-04-26T12:29:40.997Z</time></trkpt><trkpt lat="45.7606378246088" lon="11.308056832306512"><ele>1403.0</ele><time>2026-04-26T12:29:41.997Z</time></trkpt><trkpt lat="45.760699302175276" lon="11.307955179631698"><ele>1403.0</ele><time>2026-04-26T12:29:42.997Z</time></trkpt><trkpt lat="45.76077439613948" lon="11.307850724997957"><ele>1403.0</ele><time>2026-04-26T12:29:43.997Z</time></trkpt><trkpt lat="45.760867137342736" lon="11.30775592258635"><ele>1403.0</ele><time>2026-04-26T12:29:44.997Z</time></trkpt><trkpt lat="45.760956257832866" lon="11.307658967581466"><ele>1403.0</ele><time>2026-04-26T12:29:45.997Z</time></trkpt><trkpt lat="45.76104112905845" lon="11.307589656223039"><ele>1405.1666666666667</ele><time>2026-04-26T12:29:46.997Z</time></trkpt><trkpt lat="45.761111644703355" lon="11.307532598346782"><ele>1407.3333333333335</ele><time>2026-04-26T12:29:47.997Z</time></trkpt><trkpt lat="45.76116613223987" lon="11.307460201248652"><ele>1409.5</ele><time>2026-04-26T12:29:48.997Z</time></trkpt><trkpt lat="45.761205043351495" lon="11.307366611302514"><ele>1411.6666666666667</ele><time>2026-04-26T12:29:49.997Z</time></trkpt><trkpt lat="45.76123336868731" lon="11.307261588245144"><ele>1413.8333333333333</ele><time>2026-04-26T12:29:50.997Z</time></trkpt><trkpt lat="45.76126517647297" lon="11.307164930256404"><ele>1416.0</ele><time>2026-04-26T12:29:51.997Z</time></trkpt><trkpt lat="45.7612972395692" lon="11.307068018755453"><ele>1416.0</ele><time>2026-04-26T12:29:52.997Z</time></trkpt><trkpt lat="45.76135231121636" lon="11.306993420859717"><ele>1416.0</ele><time>2026-04-26T12:29:53.997Z</time></trkpt><trkpt lat="45.761423309855424" lon="11.306956994694735"><ele>1416.0</ele><time>2026-04-26T12:29:54.997Z</time></trkpt><trkpt lat="45.76149257627561" lon="11.306929320933074"><ele>1416.0</ele><time>2026-04-26T12:29:55.997Z</time></trkpt><trkpt lat="45.76156039254579" lon="11.306919721371967"><ele>1416.0</ele><time>2026-04-26T12:29:56.997Z</time></trkpt><trkpt lat="45.7616814599298" lon="11.306889220872705"><ele>1416.0</ele><time>2026-04-26T12:29:58.997Z</time></trkpt><trkpt lat="45.76174247884589" lon="11.306862975946622"><ele>1416.0</ele><time>2026-04-26T12:29:59.997Z</time></trkpt><trkpt lat="45.76180572543441" lon="11.306827082769919"><ele>1416.0</ele><time>2026-04-26T12:30:00.997Z</time></trkpt><trkpt lat="45.76186858077713" lon="11.306792810476542"><ele>1416.0</ele><time>2026-04-26T12:30:01.997Z</time></trkpt><trkpt lat="45.761927659787816" lon="11.306751475481658"><ele>1416.0</ele><time>2026-04-26T12:30:02.997Z</time></trkpt><trkpt lat="45.76200040853894" lon="11.306625458518461"><ele>1416.0</ele><time>2026-04-26T12:30:04.996Z</time></trkpt><trkpt lat="45.76202227180121" lon="11.30652065114414"><ele>1416.0</ele><time>2026-04-26T12:30:06.996Z</time></trkpt><trkpt lat="45.76207785642915" lon="11.306564083003181"><ele>1416.0</ele><time>2026-04-26T12:30:09.996Z</time></trkpt><trkpt lat="45.76200693934551" lon="11.306718510533862"><ele>1416.0</ele><time>2026-04-26T12:30:11.996Z</time></trkpt><trkpt lat="45.76194366585248" lon="11.306807477357468"><ele>1416.0</ele><time>2026-04-26T12:30:12.996Z</time></trkpt><trkpt lat="45.76187080266105" lon="11.306897021089533"><ele>1416.0</ele><time>2026-04-26T12:30:13.996Z</time></trkpt><trkpt lat="45.761789002907335" lon="11.30697195930346"><ele>1416.0</ele><time>2026-04-26T12:30:14.996Z</time></trkpt><trkpt lat="45.761691360901075" lon="11.307027759334431"><ele>1416.0</ele><time>2026-04-26T12:30:15.996Z</time></trkpt><trkpt lat="45.76159450118379" lon="11.30705847588351"><ele>1416.0</ele><time>2026-04-26T12:30:16.996Z</time></trkpt><trkpt lat="45.76152481031264" lon="11.307115301208974"><ele>1416.0</ele><time>2026-04-26T12:30:17.996Z</time></trkpt><trkpt lat="45.76147106212903" lon="11.307180812827232"><ele>1416.0</ele><time>2026-04-26T12:30:18.996Z</time></trkpt><trkpt lat="45.76142536402496" lon="11.307312425629432"><ele>1416.0</ele><time>2026-04-26T12:30:20.996Z</time></trkpt><trkpt lat="45.761407270947196" lon="11.307422027124455"><ele>1416.0</ele><time>2026-04-26T12:30:22.996Z</time></trkpt><trkpt lat="45.761426273791336" lon="11.307581485419803"><ele>1423.0</ele><time>2026-04-26T12:30:24.996Z</time></trkpt><trkpt lat="45.76142419370007" lon="11.307674757594071"><ele>1430.0</ele><time>2026-04-26T12:30:25.996Z</time></trkpt><trkpt lat="45.7613860194369" lon="11.307828821012434"><ele>1437.0</ele><time>2026-04-26T12:30:27.996Z</time></trkpt><trkpt lat="45.76128918442327" lon="11.307949998057962"><ele>1444.0</ele><time>2026-04-26T12:30:29.996Z</time></trkpt><trkpt lat="45.761224814023805" lon="11.308021970864665"><ele>1451.0</ele><time>2026-04-26T12:30:30.996Z</time></trkpt><trkpt lat="45.761159857689826" lon="11.308121036633139"><ele>1447.3333333333335</ele><time>2026-04-26T12:30:31.996Z</time></trkpt><trkpt lat="45.76110063993357" lon="11.308224245495769"><ele>1443.6666666666667</ele><time>2026-04-26T12:30:32.996Z</time></trkpt><trkpt lat="45.761047411283684" lon="11.30830738539252"><ele>1440.0</ele><time>2026-04-26T12:30:33.996Z</time></trkpt><trkpt lat="45.7610021738232" lon="11.308378409205247"><ele>1436.3333333333333</ele><time>2026-04-26T12:30:34.996Z</time></trkpt><trkpt lat="45.76095952672363" lon="11.308476952000301"><ele>1432.6666666666665</ele><time>2026-04-26T12:30:35.996Z</time></trkpt><trkpt lat="45.76092368255745" lon="11.308609430514462"><ele>1429.0</ele><time>2026-04-26T12:30:36.996Z</time></trkpt><trkpt lat="45.76087650991944" lon="11.308747903770309"><ele>1429.0</ele><time>2026-04-26T12:30:37.996Z</time></trkpt><trkpt lat="45.76084603348224" lon="11.308878525192634"><ele>1429.0</ele><time>2026-04-26T12:30:38.996Z</time></trkpt><trkpt lat="45.760839342203795" lon="11.30900884445261"><ele>1429.0</ele><time>2026-04-26T12:30:39.996Z</time></trkpt><trkpt lat="45.7608402097533" lon="11.309138498221301"><ele>1429.0</ele><time>2026-04-26T12:30:40.996Z</time></trkpt><trkpt lat="45.76081907069256" lon="11.309264679647853"><ele>1429.0</ele><time>2026-04-26T12:30:41.996Z</time></trkpt><trkpt lat="45.76078114168145" lon="11.309405650612435"><ele>1435.0</ele><time>2026-04-26T12:30:42.996Z</time></trkpt><trkpt lat="45.76073118825029" lon="11.309563435667481"><ele>1441.0</ele><time>2026-04-26T12:30:43.996Z</time></trkpt><trkpt lat="45.7606784180625" lon="11.30974941820473"><ele>1447.0</ele><time>2026-04-26T12:30:44.996Z</time></trkpt><trkpt lat="45.76061713199262" lon="11.30992635546571"><ele>1453.0</ele><time>2026-04-26T12:30:45.996Z</time></trkpt><trkpt lat="45.76056400603255" lon="11.310081705564906"><ele>1455.857142857143</ele><time>2026-04-26T12:30:46.996Z</time></trkpt><trkpt lat="45.76051835839767" lon="11.310209408473584"><ele>1458.7142857142858</ele><time>2026-04-26T12:30:47.996Z</time></trkpt><trkpt lat="45.76048716665569" lon="11.310313454798159"><ele>1461.5714285714284</ele><time>2026-04-26T12:30:48.996Z</time></trkpt><trkpt lat="45.7604666303922" lon="11.310405827874495"><ele>1464.4285714285716</ele><time>2026-04-26T12:30:49.996Z</time></trkpt><trkpt lat="45.76046403873009" lon="11.31050251667959"><ele>1467.2857142857142</ele><time>2026-04-26T12:30:50.996Z</time></trkpt><trkpt lat="45.76048318799662" lon="11.3105983342585"><ele>1470.142857142857</ele><time>2026-04-26T12:30:51.996Z</time></trkpt><trkpt lat="45.76049879230996" lon="11.310688962652435"><ele>1473.0</ele><time>2026-04-26T12:30:52.996Z</time></trkpt><trkpt lat="45.76045697907261" lon="11.31086354316775"><ele>1474.2</ele><time>2026-04-26T12:30:54.996Z</time></trkpt><trkpt lat="45.7604021444899" lon="11.31095160733516"><ele>1475.4</ele><time>2026-04-26T12:30:55.996Z</time></trkpt><trkpt lat="45.76034303185402" lon="11.311066749223036"><ele>1476.6000000000001</ele><time>2026-04-26T12:30:56.996Z</time></trkpt><trkpt lat="45.760268454567075" lon="11.311181559554223"><ele>1477.8000000000002</ele><time>2026-04-26T12:30:57.996Z</time></trkpt><trkpt lat="45.760200585881115" lon="11.311287926049014"><ele>1479.0</ele><time>2026-04-26T12:30:58.996Z</time></trkpt><trkpt lat="45.76014764737885" lon="11.311378062655114"><ele>1479.0</ele><time>2026-04-26T12:30:59.996Z</time></trkpt><trkpt lat="45.760095392893845" lon="11.311455828408125"><ele>1479.0</ele><time>2026-04-26T12:31:00.996Z</time></trkpt><trkpt lat="45.76004917090507" lon="11.311607154240399"><ele>1479.0</ele><time>2026-04-26T12:31:02.996Z</time></trkpt><trkpt lat="45.760062964734246" lon="11.311753582014095"><ele>1479.0</ele><time>2026-04-26T12:31:04.996Z</time></trkpt><trkpt lat="45.76011487012828" lon="11.311829141073938"><ele>1479.0</ele><time>2026-04-26T12:31:06.996Z</time></trkpt><trkpt lat="45.76023061213928" lon="11.311819962965412"><ele>1479.0</ele><time>2026-04-26T12:31:08.996Z</time></trkpt><trkpt lat="45.76030071882032" lon="11.311812879790153"><ele>1479.0</ele><time>2026-04-26T12:31:09.996Z</time></trkpt><trkpt lat="45.760374281136514" lon="11.311794499069867"><ele>1479.0</ele><time>2026-04-26T12:31:10.996Z</time></trkpt><trkpt lat="45.760452233601555" lon="11.311774081244984"><ele>1479.0</ele><time>2026-04-26T12:31:11.996Z</time></trkpt><trkpt lat="45.76053101936774" lon="11.311741494676571"><ele>1479.0</ele><time>2026-04-26T12:31:12.996Z</time></trkpt><trkpt lat="45.760597958469134" lon="11.311695254220071"><ele>1479.0</ele><time>2026-04-26T12:31:13.996Z</time></trkpt><trkpt lat="45.76066120820573" lon="11.311629671479833"><ele>1479.0</ele><time>2026-04-26T12:31:14.996Z</time></trkpt><trkpt lat="45.76071368447983" lon="11.311547179180643"><ele>1479.0</ele><time>2026-04-26T12:31:15.996Z</time></trkpt><trkpt lat="45.76075072213367" lon="11.311454850625463"><ele>1479.0</ele><time>2026-04-26T12:31:16.996Z</time></trkpt><trkpt lat="45.760776359985634" lon="11.311350067106982"><ele>1479.0</ele><time>2026-04-26T12:31:17.996Z</time></trkpt><trkpt lat="45.76077818216334" lon="11.311235976299571"><ele>1479.0</ele><time>2026-04-26T12:31:18.996Z</time></trkpt><trkpt lat="45.76077211368368" lon="11.31110390852564"><ele>1479.0</ele><time>2026-04-26T12:31:19.996Z</time></trkpt><trkpt lat="45.760768275954995" lon="11.310956365289648"><ele>1479.0</ele><time>2026-04-26T12:31:20.996Z</time></trkpt><trkpt lat="45.760769102774844" lon="11.310811732917951"><ele>1479.0</ele><time>2026-04-26T12:31:21.996Z</time></trkpt><trkpt lat="45.76077258333179" lon="11.310685445106737"><ele>1479.0</ele><time>2026-04-26T12:31:22.996Z</time></trkpt><trkpt lat="45.7607838312342" lon="11.310575692483804"><ele>1479.0</ele><time>2026-04-26T12:31:23.996Z</time></trkpt><trkpt lat="45.76080952941637" lon="11.310475657151688"><ele>1479.0</ele><time>2026-04-26T12:31:24.996Z</time></trkpt><trkpt lat="45.76083180637738" lon="11.310375527765522"><ele>1479.0</ele><time>2026-04-26T12:31:25.996Z</time></trkpt><trkpt lat="45.7608666691441" lon="11.310280032935523"><ele>1477.8000000000002</ele><time>2026-04-26T12:31:26.996Z</time></trkpt><trkpt lat="45.76090863188401" lon="11.310182638900459"><ele>1476.6000000000001</ele><time>2026-04-26T12:31:27.996Z</time></trkpt><trkpt lat="45.76096720875867" lon="11.310085859086822"><ele>1475.4</ele><time>2026-04-26T12:31:28.996Z</time></trkpt><trkpt lat="45.76104664068887" lon="11.309986297542567"><ele>1474.2</ele><time>2026-04-26T12:31:29.996Z</time></trkpt><trkpt lat="45.76114044243325" lon="11.309876833150259"><ele>1473.0</ele><time>2026-04-26T12:31:30.996Z</time></trkpt><trkpt lat="45.7612366764091" lon="11.309764438486026"><ele>1476.1666666666667</ele><time>2026-04-26T12:31:31.996Z</time></trkpt><trkpt lat="45.76131441674141" lon="11.309652245039965"><ele>1479.3333333333333</ele><time>2026-04-26T12:31:32.996Z</time></trkpt><trkpt lat="45.761365193605975" lon="11.309541117261599"><ele>1482.5</ele><time>2026-04-26T12:31:33.995Z</time></trkpt><trkpt lat="45.76140693336144" lon="11.309436185933821"><ele>1485.6666666666665</ele><time>2026-04-26T12:31:34.995Z</time></trkpt><trkpt lat="45.76144081398163" lon="11.309326865267082"><ele>1488.8333333333333</ele><time>2026-04-26T12:31:35.995Z</time></trkpt><trkpt lat="45.761465592545065" lon="11.309224682522037"><ele>1492.0</ele><time>2026-04-26T12:31:36.995Z</time></trkpt><trkpt lat="45.76148828160634" lon="11.309133881670697"><ele>1492.0</ele><time>2026-04-26T12:31:37.995Z</time></trkpt><trkpt lat="45.7615073721563" lon="11.309046795409976"><ele>1492.0</ele><time>2026-04-26T12:31:38.995Z</time></trkpt><trkpt lat="45.76154060143756" lon="11.308958430383376"><ele>1492.0</ele><time>2026-04-26T12:31:39.995Z</time></trkpt><trkpt lat="45.76160212216876" lon="11.308873945721535"><ele>1492.0</ele><time>2026-04-26T12:31:40.995Z</time></trkpt><trkpt lat="45.76168349815909" lon="11.308782616776753"><ele>1492.0</ele><time>2026-04-26T12:31:41.995Z</time></trkpt><trkpt lat="45.76178456738418" lon="11.308697007812729"><ele>1492.0</ele><time>2026-04-26T12:31:42.995Z</time></trkpt><trkpt lat="45.761884154576876" lon="11.308609416683941"><ele>1494.8333333333333</ele><time>2026-04-26T12:31:43.995Z</time></trkpt><trkpt lat="45.761972580393866" lon="11.308536385222515"><ele>1497.6666666666665</ele><time>2026-04-26T12:31:44.995Z</time></trkpt><trkpt lat="45.762049267508765" lon="11.308470227878631"><ele>1500.5</ele><time>2026-04-26T12:31:45.995Z</time></trkpt><trkpt lat="45.76211203311948" lon="11.308382718191806"><ele>1503.3333333333333</ele><time>2026-04-26T12:31:46.995Z</time></trkpt><trkpt lat="45.7621687008802" lon="11.308290155918899"><ele>1506.1666666666667</ele><time>2026-04-26T12:31:47.995Z</time></trkpt><trkpt lat="45.76217358529808" lon="11.308179514777647"><ele>1509.0</ele><time>2026-04-26T12:31:48.995Z</time></trkpt><trkpt lat="45.76217348737531" lon="11.308079997791461"><ele>1505.5</ele><time>2026-04-26T12:31:49.995Z</time></trkpt><trkpt lat="45.762189496385034" lon="11.307972598284815"><ele>1502.0</ele><time>2026-04-26T12:31:51.995Z</time></trkpt><trkpt lat="45.76229603669504" lon="11.307935541732181"><ele>1498.5</ele><time>2026-04-26T12:31:54.995Z</time></trkpt><trkpt lat="45.76235711488426" lon="11.307893802031112"><ele>1495.0</ele><time>2026-04-26T12:31:55.995Z</time></trkpt><trkpt lat="45.76241886298225" lon="11.30785078456859"><ele>1491.5</ele><time>2026-04-26T12:31:56.995Z</time></trkpt><trkpt lat="45.762474255217576" lon="11.307792110381612"><ele>1488.0</ele><time>2026-04-26T12:31:57.995Z</time></trkpt><trkpt lat="45.76251478701356" lon="11.307709041468557"><ele>1488.0</ele><time>2026-04-26T12:31:58.995Z</time></trkpt><trkpt lat="45.76255695144252" lon="11.307623758840288"><ele>1488.0</ele><time>2026-04-26T12:31:59.995Z</time></trkpt><trkpt lat="45.7626159991598" lon="11.307480897199184"><ele>1488.0</ele><time>2026-04-26T12:32:01.995Z</time></trkpt><trkpt lat="45.762724593377335" lon="11.307390067288429"><ele>1488.0</ele><time>2026-04-26T12:32:03.995Z</time></trkpt><trkpt lat="45.76281066481718" lon="11.307359541653488"><ele>1488.0</ele><time>2026-04-26T12:32:04.995Z</time></trkpt><trkpt lat="45.7629112584591" lon="11.30733877091681"><ele>1489.8000000000002</ele><time>2026-04-26T12:32:05.995Z</time></trkpt><trkpt lat="45.76302687763264" lon="11.307318526477612"><ele>1491.6</ele><time>2026-04-26T12:32:06.995Z</time></trkpt><trkpt lat="45.763144554884086" lon="11.30729366296133"><ele>1493.4</ele><time>2026-04-26T12:32:07.995Z</time></trkpt><trkpt lat="45.763254018517344" lon="11.307268736131954"><ele>1495.1999999999998</ele><time>2026-04-26T12:32:08.995Z</time></trkpt><trkpt lat="45.76334984448531" lon="11.307234555027108"><ele>1497.0</ele><time>2026-04-26T12:32:09.995Z</time></trkpt><trkpt lat="45.76343759239721" lon="11.307174851591618"><ele>1497.0</ele><time>2026-04-26T12:32:10.995Z</time></trkpt><trkpt lat="45.763523460478226" lon="11.307099523361336"><ele>1497.0</ele><time>2026-04-26T12:32:11.995Z</time></trkpt><trkpt lat="45.76359876391605" lon="11.306991039544961"><ele>1497.0</ele><time>2026-04-26T12:32:12.995Z</time></trkpt><trkpt lat="45.76365478497206" lon="11.30688747083948"><ele>1497.0</ele><time>2026-04-26T12:32:13.995Z</time></trkpt><trkpt lat="45.76369552713806" lon="11.306792733157492"><ele>1497.0</ele><time>2026-04-26T12:32:14.995Z</time></trkpt><trkpt lat="45.76373386746876" lon="11.306712252151865"><ele>1497.0</ele><time>2026-04-26T12:32:15.995Z</time></trkpt><trkpt lat="45.763779082183596" lon="11.306648611722412"><ele>1498.8333333333333</ele><time>2026-04-26T12:32:16.995Z</time></trkpt><trkpt lat="45.76383076595357" lon="11.306595413306871"><ele>1500.6666666666667</ele><time>2026-04-26T12:32:17.995Z</time></trkpt><trkpt lat="45.763889263783895" lon="11.306547216116504"><ele>1502.5</ele><time>2026-04-26T12:32:18.995Z</time></trkpt><trkpt lat="45.763949234379" lon="11.30649758901639"><ele>1504.3333333333335</ele><time>2026-04-26T12:32:19.995Z</time></trkpt><trkpt lat="45.76400730993645" lon="11.306446260545322"><ele>1506.1666666666667</ele><time>2026-04-26T12:32:20.995Z</time></trkpt><trkpt lat="45.764101765299806" lon="11.306367692589355"><ele>1508.0</ele><time>2026-04-26T12:32:22.995Z</time></trkpt><trkpt lat="45.76420342166393" lon="11.306321204296305"><ele>1508.0</ele><time>2026-04-26T12:32:24.995Z</time></trkpt><trkpt lat="45.76431413649409" lon="11.306332825130026"><ele>1508.0</ele><time>2026-04-26T12:32:26.995Z</time></trkpt><trkpt lat="45.76438718881462" lon="11.30641977171017"><ele>1508.0</ele><time>2026-04-26T12:32:28.995Z</time></trkpt><trkpt lat="45.76443322246148" lon="11.306520420130942"><ele>1508.0</ele><time>2026-04-26T12:32:30.995Z</time></trkpt><trkpt lat="45.76441300584584" lon="11.306639565601042"><ele>1508.0</ele><time>2026-04-26T12:32:33.995Z</time></trkpt><trkpt lat="45.764365075331874" lon="11.306710178214958"><ele>1508.0</ele><time>2026-04-26T12:34:19.999Z</time></trkpt><trkpt lat="45.76429448705784" lon="11.306823928158074"><ele>1508.0</ele><time>2026-04-26T12:34:23.999Z</time></trkpt><trkpt lat="45.76422464230795" lon="11.306931219955464"><ele>1508.0</ele><time>2026-04-26T12:34:25.999Z</time></trkpt><trkpt lat="45.76414102628222" lon="11.30701902778649"><ele>1508.0</ele><time>2026-04-26T12:34:27.999Z</time></trkpt><trkpt lat="45.764041352614036" lon="11.307076355816715"><ele>1508.0</ele><time>2026-04-26T12:34:29.999Z</time></trkpt><trkpt lat="45.76393074001939" lon="11.307139841552523"><ele>1508.0</ele><time>2026-04-26T12:34:31.999Z</time></trkpt><trkpt lat="45.76384690269695" lon="11.307192120224874"><ele>1507.6000000000001</ele><time>2026-04-26T12:34:33.999Z</time></trkpt><trkpt lat="45.76378756731737" lon="11.307257556522483"><ele>1507.2</ele><time>2026-04-26T12:34:35.999Z</time></trkpt><trkpt lat="45.763732891187644" lon="11.307360673611056"><ele>1506.8</ele><time>2026-04-26T12:34:37.999Z</time></trkpt><trkpt lat="45.76368713428066" lon="11.307470725586652"><ele>1506.4</ele><time>2026-04-26T12:34:39.999Z</time></trkpt><trkpt lat="45.763625210936674" lon="11.307575770210379"><ele>1506.0</ele><time>2026-04-26T12:34:41.999Z</time></trkpt><trkpt lat="45.76355162025755" lon="11.307678058615105"><ele>1506.75</ele><time>2026-04-26T12:34:43.999Z</time></trkpt><trkpt lat="45.763447881181314" lon="11.307750046489364"><ele>1507.5</ele><time>2026-04-26T12:34:45.999Z</time></trkpt><trkpt lat="45.76333674227215" lon="11.307802668656977"><ele>1508.25</ele><time>2026-04-26T12:34:47.999Z</time></trkpt><trkpt lat="45.76323997550611" lon="11.307885238464486"><ele>1509.0</ele><time>2026-04-26T12:34:49.999Z</time></trkpt><trkpt lat="45.76314567978234" lon="11.307994667022779"><ele>1510.2</ele><time>2026-04-26T12:34:51.999Z</time></trkpt><trkpt lat="45.763063735661824" lon="11.30812117772925"><ele>1511.4</ele><time>2026-04-26T12:34:53.999Z</time></trkpt><trkpt lat="45.763004197487945" lon="11.30825552527088"><ele>1512.6</ele><time>2026-04-26T12:34:55.999Z</time></trkpt><trkpt lat="45.7629482419385" lon="11.308389445211812"><ele>1513.8</ele><time>2026-04-26T12:34:57.999Z</time></trkpt><trkpt lat="45.762884498491225" lon="11.308505342069472"><ele>1515.0</ele><time>2026-04-26T12:34:59.999Z</time></trkpt><trkpt lat="45.76280900531584" lon="11.308580945971853"><ele>1514.9999999999998</ele><time>2026-04-26T12:35:01.999Z</time></trkpt><trkpt lat="45.76273872379636" lon="11.308624123743805"><ele>1515.0</ele><time>2026-04-26T12:35:03.999Z</time></trkpt><trkpt lat="45.76268168489666" lon="11.30866374013185"><ele>1515.0</ele><time>2026-04-26T12:35:05.999Z</time></trkpt><trkpt lat="45.76262001760197" lon="11.308690808647254"><ele>1515.0</ele><time>2026-04-26T12:35:08.999Z</time></trkpt><trkpt lat="45.76257988250179" lon="11.30876573392039"><ele>1515.0</ele><time>2026-04-26T12:35:12.999Z</time></trkpt><trkpt lat="45.762511246623625" lon="11.308832752731353"><ele>1514.9999999999998</ele><time>2026-04-26T12:35:30.998Z</time></trkpt><trkpt lat="45.7624761474706" lon="11.308908816123937"><ele>1515.0</ele><time>2026-04-26T12:35:33.998Z</time></trkpt><trkpt lat="45.762426565924976" lon="11.308847934834349"><ele>1516.3333333333333</ele><time>2026-04-26T12:35:41.998Z</time></trkpt><trkpt lat="45.762302290657495" lon="11.308956141246968"><ele>1517.6666666666665</ele><time>2026-04-26T12:43:53.997Z</time></trkpt><trkpt lat="45.762231515372235" lon="11.309220152466922"><ele>1519.0</ele><time>2026-04-26T13:03:14.998Z</time></trkpt><trkpt lat="45.76247339145369" lon="11.308859631324689"><ele>1518.2</ele><time>2026-04-26T13:10:57.999Z</time></trkpt><trkpt lat="45.76254147141184" lon="11.30877045497269"><ele>1517.4</ele><time>2026-04-26T13:11:00.999Z</time></trkpt><trkpt lat="45.762644568480056" lon="11.308695420796152"><ele>1516.6</ele><time>2026-04-26T13:11:02.999Z</time></trkpt><trkpt lat="45.76274242668932" lon="11.308635155518344"><ele>1515.8</ele><time>2026-04-26T13:11:04.999Z</time></trkpt><trkpt lat="45.76283799232773" lon="11.30858946288625"><ele>1515.0</ele><time>2026-04-26T13:11:06.999Z</time></trkpt><trkpt lat="45.76292834399339" lon="11.308511025151512"><ele>1515.0</ele><time>2026-04-26T13:11:08.999Z</time></trkpt><trkpt lat="45.76301189139731" lon="11.308401593294244"><ele>1515.0</ele><time>2026-04-26T13:11:10.999Z</time></trkpt><trkpt lat="45.76307485417825" lon="11.308270603595584"><ele>1515.0</ele><time>2026-04-26T13:11:12.999Z</time></trkpt><trkpt lat="45.763128019600565" lon="11.308150331361093"><ele>1515.0</ele><time>2026-04-26T13:11:14.999Z</time></trkpt><trkpt lat="45.76317823192777" lon="11.308047692139905"><ele>1515.0</ele><time>2026-04-26T13:11:16.999Z</time></trkpt><trkpt lat="45.763233034279274" lon="11.307968778930165"><ele>1514.0</ele><time>2026-04-26T13:11:18.999Z</time></trkpt><trkpt lat="45.76328551409928" lon="11.307899219309158"><ele>1513.0</ele><time>2026-04-26T13:11:20.999Z</time></trkpt><trkpt lat="45.763337045121645" lon="11.30783566670409"><ele>1512.0</ele><time>2026-04-26T13:11:22.999Z</time></trkpt><trkpt lat="45.7634021132596" lon="11.307779043382018"><ele>1511.0</ele><time>2026-04-26T13:11:24.999Z</time></trkpt><trkpt lat="45.7634830284804" lon="11.307729984133385"><ele>1510.0</ele><time>2026-04-26T13:11:26.999Z</time></trkpt><trkpt lat="45.763568623076395" lon="11.307669435244861"><ele>1509.0</ele><time>2026-04-26T13:11:28.999Z</time></trkpt><trkpt lat="45.76364414822318" lon="11.307606725759976"><ele>1508.8333333333333</ele><time>2026-04-26T13:11:30.999Z</time></trkpt><trkpt lat="45.76370610708781" lon="11.307525348706616"><ele>1508.6666666666667</ele><time>2026-04-26T13:11:32.999Z</time></trkpt><trkpt lat="45.7637466684587" lon="11.307446253467997"><ele>1508.5</ele><time>2026-04-26T13:11:34.999Z</time></trkpt><trkpt lat="45.76379726940238" lon="11.307375879883997"><ele>1508.3333333333335</ele><time>2026-04-26T13:11:36.999Z</time></trkpt><trkpt lat="45.7638478976721" lon="11.307280571858469"><ele>1508.1666666666667</ele><time>2026-04-26T13:11:38.999Z</time></trkpt><trkpt lat="45.76391855056792" lon="11.307176131069381"><ele>1508.0</ele><time>2026-04-26T13:11:40.998Z</time></trkpt><trkpt lat="45.76402102558925" lon="11.307116944424243"><ele>1508.0</ele><time>2026-04-26T13:11:42.998Z</time></trkpt><trkpt lat="45.76412164263989" lon="11.307034964810567"><ele>1508.0</ele><time>2026-04-26T13:11:44.998Z</time></trkpt><trkpt lat="45.76421610260924" lon="11.306927570923037"><ele>1508.0</ele><time>2026-04-26T13:11:46.998Z</time></trkpt><trkpt lat="45.7642943603875" lon="11.306794277000083"><ele>1508.0</ele><time>2026-04-26T13:11:48.998Z</time></trkpt><trkpt lat="45.76435808396797" lon="11.306665401931225"><ele>1508.5</ele><time>2026-04-26T13:11:50.998Z</time></trkpt><trkpt lat="45.76440015906069" lon="11.306552242794941"><ele>1509.0</ele><time>2026-04-26T13:11:52.998Z</time></trkpt><trkpt lat="45.764433174270394" lon="11.306447783325355"><ele>1509.5</ele><time>2026-04-26T13:11:54.998Z</time></trkpt><trkpt lat="45.76438969906229" lon="11.306378254269346"><ele>1510.0</ele><time>2026-04-26T13:11:56.998Z</time></trkpt><trkpt lat="45.76432664504466" lon="11.306356534922774"><ele>1510.5</ele><time>2026-04-26T13:11:57.998Z</time></trkpt><trkpt lat="45.76421266721718" lon="11.306306143096926"><ele>1511.0</ele><time>2026-04-26T13:11:59.998Z</time></trkpt><trkpt lat="45.76411238484105" lon="11.306261405458203"><ele>1511.0</ele><time>2026-04-26T13:12:01.998Z</time></trkpt><trkpt lat="45.76400458162655" lon="11.306307208954145"><ele>1511.0</ele><time>2026-04-26T13:12:03.998Z</time></trkpt><trkpt lat="45.76395211669853" lon="11.30636469409299"><ele>1511.0</ele><time>2026-04-26T13:12:04.998Z</time></trkpt><trkpt lat="45.763846096775225" lon="11.306458738475643"><ele>1511.0</ele><time>2026-04-26T13:12:06.998Z</time></trkpt><trkpt lat="45.76378854577861" lon="11.306503301943337"><ele>1511.0</ele><time>2026-04-26T13:12:07.998Z</time></trkpt><trkpt lat="45.76373252142837" lon="11.306551527558065"><ele>1511.0</ele><time>2026-04-26T13:12:08.998Z</time></trkpt><trkpt lat="45.76367639165964" lon="11.306599465515525"><ele>1510.4</ele><time>2026-04-26T13:12:09.998Z</time></trkpt><trkpt lat="45.763593032764874" lon="11.306690174682723"><ele>1509.8</ele><time>2026-04-26T13:12:11.998Z</time></trkpt><trkpt lat="45.763535933538186" lon="11.306812712448652"><ele>1509.2</ele><time>2026-04-26T13:12:13.998Z</time></trkpt><trkpt lat="45.763510341808214" lon="11.30689833434785"><ele>1508.6000000000001</ele><time>2026-04-26T13:12:14.998Z</time></trkpt><trkpt lat="45.763454581872615" lon="11.307051189398877"><ele>1508.0</ele><time>2026-04-26T13:12:16.998Z</time></trkpt><trkpt lat="45.76341727872464" lon="11.307131287907074"><ele>1508.142857142857</ele><time>2026-04-26T13:12:17.998Z</time></trkpt><trkpt lat="45.763374601578754" lon="11.307206141017414"><ele>1508.2857142857142</ele><time>2026-04-26T13:12:18.998Z</time></trkpt><trkpt lat="45.76332288980511" lon="11.307263715787307"><ele>1508.4285714285716</ele><time>2026-04-26T13:12:19.998Z</time></trkpt><trkpt lat="45.76326235250679" lon="11.307303999088123"><ele>1508.5714285714284</ele><time>2026-04-26T13:12:20.997Z</time></trkpt><trkpt lat="45.76319720497686" lon="11.307336429830453"><ele>1508.7142857142858</ele><time>2026-04-26T13:12:21.997Z</time></trkpt><trkpt lat="45.76310946497375" lon="11.307352451615294"><ele>1508.857142857143</ele><time>2026-04-26T13:12:22.997Z</time></trkpt><trkpt lat="45.763018805265474" lon="11.307357329179762"><ele>1509.0</ele><time>2026-04-26T13:12:23.997Z</time></trkpt><trkpt lat="45.76293960262681" lon="11.307360269367246"><ele>1509.0</ele><time>2026-04-26T13:12:24.997Z</time></trkpt><trkpt lat="45.762865454429566" lon="11.30735993482096"><ele>1509.0</ele><time>2026-04-26T13:12:25.997Z</time></trkpt><trkpt lat="45.76279426912821" lon="11.307362008429621"><ele>1509.0</ele><time>2026-04-26T13:12:26.997Z</time></trkpt><trkpt lat="45.76272777408175" lon="11.307364364170958"><ele>1509.0</ele><time>2026-04-26T13:12:27.997Z</time></trkpt><trkpt lat="45.762605998043945" lon="11.307378102401268"><ele>1509.0</ele><time>2026-04-26T13:12:29.997Z</time></trkpt><trkpt lat="45.762497155647196" lon="11.307423505180077"><ele>1509.0</ele><time>2026-04-26T13:12:31.997Z</time></trkpt><trkpt lat="45.76242235621915" lon="11.30752521040099"><ele>1504.8000000000002</ele><time>2026-04-26T13:12:33.997Z</time></trkpt><trkpt lat="45.76237965125278" lon="11.307663596932993"><ele>1500.6000000000001</ele><time>2026-04-26T13:12:35.997Z</time></trkpt><trkpt lat="45.762304746404524" lon="11.307788628297306"><ele>1496.4</ele><time>2026-04-26T13:12:37.997Z</time></trkpt><trkpt lat="45.762218398924" lon="11.307866904444571"><ele>1492.2</ele><time>2026-04-26T13:12:39.997Z</time></trkpt><trkpt lat="45.76212331045744" lon="11.30785789468707"><ele>1488.0</ele><time>2026-04-26T13:12:41.997Z</time></trkpt><trkpt lat="45.762040075257616" lon="11.307849386736061"><ele>1488.0</ele><time>2026-04-26T13:12:43.997Z</time></trkpt><trkpt lat="45.76198021913179" lon="11.307912584838421"><ele>1488.0</ele><time>2026-04-26T13:12:45.997Z</time></trkpt><trkpt lat="45.761972505557445" lon="11.30801429301814"><ele>1488.0</ele><time>2026-04-26T13:12:47.997Z</time></trkpt><trkpt lat="45.761974880297686" lon="11.308133997109943"><ele>1488.0</ele><time>2026-04-26T13:12:49.997Z</time></trkpt><trkpt lat="45.76196505241758" lon="11.30825665351191"><ele>1488.0</ele><time>2026-04-26T13:12:51.997Z</time></trkpt><trkpt lat="45.761916611511175" lon="11.308380121554165"><ele>1488.0</ele><time>2026-04-26T13:12:53.997Z</time></trkpt><trkpt lat="45.76184845865257" lon="11.308492563027285"><ele>1485.8000000000002</ele><time>2026-04-26T13:12:55.997Z</time></trkpt><trkpt lat="45.76176446760878" lon="11.308576882847015"><ele>1483.6</ele><time>2026-04-26T13:12:57.997Z</time></trkpt><trkpt lat="45.76167179162785" lon="11.308644012920755"><ele>1481.4</ele><time>2026-04-26T13:12:59.996Z</time></trkpt><trkpt lat="45.76159572401954" lon="11.308715683618216"><ele>1479.1999999999998</ele><time>2026-04-26T13:13:01.996Z</time></trkpt><trkpt lat="45.76152355438178" lon="11.308799279071414"><ele>1477.0</ele><time>2026-04-26T13:13:03.996Z</time></trkpt><trkpt lat="45.76144264960394" lon="11.308901723526905"><ele>1480.0</ele><time>2026-04-26T13:13:05.996Z</time></trkpt><trkpt lat="45.76138079811899" lon="11.309014348927464"><ele>1483.0</ele><time>2026-04-26T13:13:07.996Z</time></trkpt><trkpt lat="45.76134110438591" lon="11.309145772687616"><ele>1486.0</ele><time>2026-04-26T13:13:09.996Z</time></trkpt><trkpt lat="45.76130502610777" lon="11.309295643775558"><ele>1489.0</ele><time>2026-04-26T13:13:11.996Z</time></trkpt><trkpt lat="45.761257043170424" lon="11.309440423295383"><ele>1492.0</ele><time>2026-04-26T13:13:13.996Z</time></trkpt><trkpt lat="45.76120387983326" lon="11.309582572740712"><ele>1492.0</ele><time>2026-04-26T13:13:15.996Z</time></trkpt><trkpt lat="45.76114437251848" lon="11.309722772613538"><ele>1492.0</ele><time>2026-04-26T13:13:17.996Z</time></trkpt><trkpt lat="45.76106639867309" lon="11.309840911745997"><ele>1492.0</ele><time>2026-04-26T13:13:19.996Z</time></trkpt><trkpt lat="45.760998294896154" lon="11.309963099336864"><ele>1492.0</ele><time>2026-04-26T13:13:21.996Z</time></trkpt><trkpt lat="45.76093771521697" lon="11.3100883794333"><ele>1492.0</ele><time>2026-04-26T13:13:23.996Z</time></trkpt><trkpt lat="45.76086042235814" lon="11.310198194766564"><ele>1489.3999999999999</ele><time>2026-04-26T13:13:25.996Z</time></trkpt><trkpt lat="45.76078216689764" lon="11.31031730975437"><ele>1486.8</ele><time>2026-04-26T13:13:27.996Z</time></trkpt><trkpt lat="45.76072221383455" lon="11.310455739499771"><ele>1484.2</ele><time>2026-04-26T13:13:29.996Z</time></trkpt><trkpt lat="45.76067973086948" lon="11.310595678151563"><ele>1481.6</ele><time>2026-04-26T13:13:31.996Z</time></trkpt><trkpt lat="45.760662223485916" lon="11.31074474243723"><ele>1479.0</ele><time>2026-04-26T13:13:33.996Z</time></trkpt><trkpt lat="45.76065860825655" lon="11.3109138065631"><ele>1479.0</ele><time>2026-04-26T13:13:35.996Z</time></trkpt><trkpt lat="45.76067057741267" lon="11.311067271430723"><ele>1479.0</ele><time>2026-04-26T13:13:37.996Z</time></trkpt><trkpt lat="45.760688040232836" lon="11.311219262824242"><ele>1479.0</ele><time>2026-04-26T13:13:39.995Z</time></trkpt><trkpt lat="45.76068611926544" lon="11.311367859245415"><ele>1479.0</ele><time>2026-04-26T13:13:41.995Z</time></trkpt><trkpt lat="45.76064597162943" lon="11.311514717161373"><ele>1479.0</ele><time>2026-04-26T13:13:43.995Z</time></trkpt><trkpt lat="45.76057368498461" lon="11.311634247641642"><ele>1479.0</ele><time>2026-04-26T13:13:45.995Z</time></trkpt><trkpt lat="45.760486547071785" lon="11.311738379324169"><ele>1479.0</ele><time>2026-04-26T13:13:47.995Z</time></trkpt><trkpt lat="45.760388337783574" lon="11.311827447470508"><ele>1479.0</ele><time>2026-04-26T13:13:49.995Z</time></trkpt><trkpt lat="45.760282404606734" lon="11.311860097461333"><ele>1479.0</ele><time>2026-04-26T13:13:51.995Z</time></trkpt><trkpt lat="45.76018889138218" lon="11.311858587395472"><ele>1479.0</ele><time>2026-04-26T13:13:53.995Z</time></trkpt><trkpt lat="45.760103526369505" lon="11.311845602266974"><ele>1474.8000000000002</ele><time>2026-04-26T13:13:55.995Z</time></trkpt><trkpt lat="45.76001191188527" lon="11.311791831052227"><ele>1470.6000000000001</ele><time>2026-04-26T13:13:57.995Z</time></trkpt><trkpt lat="45.75996489532477" lon="11.311684697673536"><ele>1466.4</ele><time>2026-04-26T13:13:59.995Z</time></trkpt><trkpt lat="45.75996967850091" lon="11.311552876144203"><ele>1462.2</ele><time>2026-04-26T13:14:01.995Z</time></trkpt><trkpt lat="45.76001455265342" lon="11.311436326680559"><ele>1458.0</ele><time>2026-04-26T13:14:03.995Z</time></trkpt><trkpt lat="45.76007508725721" lon="11.311332948686799"><ele>1455.3333333333333</ele><time>2026-04-26T13:14:05.995Z</time></trkpt><trkpt lat="45.7601395048419" lon="11.311241596068108"><ele>1452.6666666666667</ele><time>2026-04-26T13:14:07.995Z</time></trkpt><trkpt lat="45.76019857542401" lon="11.311159448850193"><ele>1450.0</ele><time>2026-04-26T13:14:09.995Z</time></trkpt><trkpt lat="45.76024422844783" lon="11.311070585817344"><ele>1447.3333333333335</ele><time>2026-04-26T13:14:11.995Z</time></trkpt><trkpt lat="45.76029208576553" lon="11.311007129589488"><ele>1444.6666666666667</ele><time>2026-04-26T13:14:13.995Z</time></trkpt><trkpt lat="45.76033361162495" lon="11.310922316728988"><ele>1442.0</ele><time>2026-04-26T13:14:17.995Z</time></trkpt><trkpt lat="45.760367871104506" lon="11.310836108601599"><ele>1448.1999999999998</ele><time>2026-04-26T13:14:24.994Z</time></trkpt><trkpt lat="45.760386160859596" lon="11.310718626176145"><ele>1454.4</ele><time>2026-04-26T13:14:26.994Z</time></trkpt><trkpt lat="45.76039474840938" lon="11.31059668910432"><ele>1460.6</ele><time>2026-04-26T13:14:28.994Z</time></trkpt><trkpt lat="45.76039647414372" lon="11.310454651537967"><ele>1466.8000000000002</ele><time>2026-04-26T13:14:30.994Z</time></trkpt><trkpt lat="45.76041091353179" lon="11.310290078186698"><ele>1473.0</ele><time>2026-04-26T13:14:32.994Z</time></trkpt><trkpt lat="45.760451396991776" lon="11.310200552656612"><ele>1473.0</ele><time>2026-04-26T13:14:33.994Z</time></trkpt><trkpt lat="45.76050217333519" lon="11.310088781891539"><ele>1473.0</ele><time>2026-04-26T13:14:34.994Z</time></trkpt><trkpt lat="45.76056374474228" lon="11.309942365795035"><ele>1473.0</ele><time>2026-04-26T13:14:35.994Z</time></trkpt><trkpt lat="45.76063805311064" lon="11.30976643567973"><ele>1473.0</ele><time>2026-04-26T13:14:36.994Z</time></trkpt><trkpt lat="45.76071599231881" lon="11.309584667822294"><ele>1469.0</ele><time>2026-04-26T13:14:37.994Z</time></trkpt><trkpt lat="45.760772760851005" lon="11.309409842913489"><ele>1465.0</ele><time>2026-04-26T13:14:38.994Z</time></trkpt><trkpt lat="45.7608144068928" lon="11.30925463496796"><ele>1461.0</ele><time>2026-04-26T13:14:39.994Z</time></trkpt><trkpt lat="45.76084312031414" lon="11.309126378938512"><ele>1457.0</ele><time>2026-04-26T13:14:40.994Z</time></trkpt><trkpt lat="45.76086192920872" lon="11.309021881462074"><ele>1453.0</ele><time>2026-04-26T13:14:41.994Z</time></trkpt><trkpt lat="45.76084124067132" lon="11.308861841125813"><ele>1449.0</ele><time>2026-04-26T13:14:43.994Z</time></trkpt><trkpt lat="45.760844142059966" lon="11.308771622088564"><ele>1445.0</ele><time>2026-04-26T13:14:44.994Z</time></trkpt><trkpt lat="45.76085980978151" lon="11.308681876370189"><ele>1441.0</ele><time>2026-04-26T13:14:45.994Z</time></trkpt><trkpt lat="45.760877440678975" lon="11.30859065297703"><ele>1437.0</ele><time>2026-04-26T13:14:46.994Z</time></trkpt><trkpt lat="45.760919790117484" lon="11.308439648431051"><ele>1433.0</ele><time>2026-04-26T13:14:48.994Z</time></trkpt><trkpt lat="45.7609659843671" lon="11.308300237169242"><ele>1429.0</ele><time>2026-04-26T13:14:50.994Z</time></trkpt><trkpt lat="45.76103589374104" lon="11.308155412654804"><ele>1433.4</ele><time>2026-04-26T13:14:52.994Z</time></trkpt><trkpt lat="45.76110736020743" lon="11.3080203309439"><ele>1437.8000000000002</ele><time>2026-04-26T13:14:54.994Z</time></trkpt><trkpt lat="45.76118946895759" lon="11.307917264498473"><ele>1442.1999999999998</ele><time>2026-04-26T13:14:56.994Z</time></trkpt><trkpt lat="45.7612746941959" lon="11.30782334256279"><ele>1446.6</ele><time>2026-04-26T13:14:58.993Z</time></trkpt><trkpt lat="45.76134233859158" lon="11.307702435834297"><ele>1451.0</ele><time>2026-04-26T13:15:00.993Z</time></trkpt><trkpt lat="45.76135629564846" lon="11.307556714367784"><ele>1451.0</ele><time>2026-04-26T13:15:02.993Z</time></trkpt><trkpt lat="45.76135832695199" lon="11.307403637481068"><ele>1451.0</ele><time>2026-04-26T13:15:04.993Z</time></trkpt><trkpt lat="45.761377769292" lon="11.307249591038731"><ele>1451.0</ele><time>2026-04-26T13:15:06.993Z</time></trkpt><trkpt lat="45.76143808541159" lon="11.307119278858938"><ele>1451.0</ele><time>2026-04-26T13:15:08.993Z</time></trkpt><trkpt lat="45.76153016532355" lon="11.307011058430966"><ele>1451.0</ele><time>2026-04-26T13:15:10.993Z</time></trkpt><trkpt lat="45.76162361155932" lon="11.306936778446369"><ele>1452.8</ele><time>2026-04-26T13:15:12.993Z</time></trkpt><trkpt lat="45.761713053234104" lon="11.306857396173521"><ele>1454.6</ele><time>2026-04-26T13:15:14.993Z</time></trkpt><trkpt lat="45.7618007687663" lon="11.306782878866121"><ele>1456.4</ele><time>2026-04-26T13:15:16.993Z</time></trkpt><trkpt lat="45.761879368727115" lon="11.306700224604679"><ele>1458.2</ele><time>2026-04-26T13:15:18.993Z</time></trkpt><trkpt lat="45.76193299983274" lon="11.306589293863867"><ele>1460.0</ele><time>2026-04-26T13:15:20.993Z</time></trkpt><trkpt lat="45.76197319025062" lon="11.306481805052133"><ele>1460.0</ele><time>2026-04-26T13:15:22.993Z</time></trkpt><trkpt lat="45.76189091933004" lon="11.306482565003222"><ele>1460.0</ele><time>2026-04-26T13:15:27.993Z</time></trkpt><trkpt lat="45.76184309993867" lon="11.30662108064479"><ele>1460.0</ele><time>2026-04-26T13:15:29.993Z</time></trkpt><trkpt lat="45.76175470560147" lon="11.306734943888774"><ele>1460.0</ele><time>2026-04-26T13:15:31.993Z</time></trkpt><trkpt lat="45.76164717435226" lon="11.30681627331815"><ele>1460.0</ele><time>2026-04-26T13:15:33.993Z</time></trkpt><trkpt lat="45.7615331832104" lon="11.306877257755971"><ele>1449.0</ele><time>2026-04-26T13:15:35.993Z</time></trkpt><trkpt lat="45.76141757361424" lon="11.306913928021842"><ele>1438.0</ele><time>2026-04-26T13:15:37.992Z</time></trkpt><trkpt lat="45.761308529658194" lon="11.306956634304134"><ele>1427.0</ele><time>2026-04-26T13:15:39.992Z</time></trkpt><trkpt lat="45.761202888143" lon="11.307027427103058"><ele>1416.0</ele><time>2026-04-26T13:15:41.992Z</time></trkpt><trkpt lat="45.761149073362965" lon="11.307164926627758"><ele>1412.75</ele><time>2026-04-26T13:15:43.992Z</time></trkpt><trkpt lat="45.76110166873679" lon="11.307317864732171"><ele>1409.5</ele><time>2026-04-26T13:15:45.992Z</time></trkpt><trkpt lat="45.76105351764611" lon="11.307467424032298"><ele>1406.25</ele><time>2026-04-26T13:15:47.992Z</time></trkpt><trkpt lat="45.76098228354533" lon="11.307597947635184"><ele>1403.0</ele><time>2026-04-26T13:15:49.992Z</time></trkpt><trkpt lat="45.760873802440614" lon="11.307698531733404"><ele>1402.9999999999998</ele><time>2026-04-26T13:15:51.992Z</time></trkpt><trkpt lat="45.76081414943415" lon="11.307751607562242"><ele>1403.0</ele><time>2026-04-26T13:15:52.992Z</time></trkpt><trkpt lat="45.76075398705549" lon="11.307803864279638"><ele>1403.0</ele><time>2026-04-26T13:15:53.992Z</time></trkpt><trkpt lat="45.76069963491771" lon="11.307862718665481"><ele>1403.0</ele><time>2026-04-26T13:15:54.992Z</time></trkpt><trkpt lat="45.7606514570107" lon="11.30792599770129"><ele>1403.0</ele><time>2026-04-26T13:15:55.992Z</time></trkpt><trkpt lat="45.76060247337436" lon="11.307989664833304"><ele>1402.9999999999998</ele><time>2026-04-26T13:15:56.992Z</time></trkpt><trkpt lat="45.760559431382106" lon="11.308061476197764"><ele>1403.0</ele><time>2026-04-26T13:15:57.992Z</time></trkpt><trkpt lat="45.76051966192283" lon="11.308136793488307"><ele>1407.3333333333335</ele><time>2026-04-26T13:15:58.992Z</time></trkpt><trkpt lat="45.76048421784345" lon="11.308221989479849"><ele>1411.6666666666667</ele><time>2026-04-26T13:15:59.992Z</time></trkpt><trkpt lat="45.76044702851787" lon="11.308309600865694"><ele>1416.0</ele><time>2026-04-26T13:16:00.992Z</time></trkpt><trkpt lat="45.760408688672186" lon="11.308399555407107"><ele>1420.3333333333333</ele><time>2026-04-26T13:16:01.992Z</time></trkpt><trkpt lat="45.76035983628563" lon="11.308488177182314"><ele>1424.6666666666665</ele><time>2026-04-26T13:16:02.992Z</time></trkpt><trkpt lat="45.7603124606759" lon="11.308588373139727"><ele>1429.0</ele><time>2026-04-26T13:16:03.992Z</time></trkpt><trkpt lat="45.760276480891264" lon="11.308716122969333"><ele>1429.0</ele><time>2026-04-26T13:16:04.992Z</time></trkpt><trkpt lat="45.760215543115244" lon="11.308815556305094"><ele>1429.0</ele><time>2026-04-26T13:16:05.992Z</time></trkpt><trkpt lat="45.76014561139428" lon="11.308905534436988"><ele>1429.0</ele><time>2026-04-26T13:16:06.992Z</time></trkpt><trkpt lat="45.760076154080416" lon="11.30899555497776"><ele>1429.0</ele><time>2026-04-26T13:16:07.992Z</time></trkpt><trkpt lat="45.76000487336683" lon="11.30907710017651"><ele>1429.0</ele><time>2026-04-26T13:16:08.992Z</time></trkpt><trkpt lat="45.75993934619322" lon="11.309161519124222"><ele>1424.3333333333333</ele><time>2026-04-26T13:16:09.992Z</time></trkpt><trkpt lat="45.759879829214405" lon="11.309245624659455"><ele>1419.6666666666665</ele><time>2026-04-26T13:16:10.992Z</time></trkpt><trkpt lat="45.75982525408138" lon="11.30933146443098"><ele>1415.0</ele><time>2026-04-26T13:16:11.992Z</time></trkpt><trkpt lat="45.75976811754922" lon="11.309407020989847"><ele>1410.3333333333333</ele><time>2026-04-26T13:16:12.992Z</time></trkpt><trkpt lat="45.75970985735958" lon="11.30948049408445"><ele>1405.6666666666667</ele><time>2026-04-26T13:16:13.992Z</time></trkpt><trkpt lat="45.75965259034322" lon="11.309551532905473"><ele>1401.0</ele><time>2026-04-26T13:16:14.992Z</time></trkpt><trkpt lat="45.7595975832565" lon="11.30962003993939"><ele>1401.0</ele><time>2026-04-26T13:16:15.992Z</time></trkpt><trkpt lat="45.75954898334845" lon="11.309689334632276"><ele>1401.0</ele><time>2026-04-26T13:16:16.992Z</time></trkpt><trkpt lat="45.75950320562163" lon="11.309752427225082"><ele>1401.0</ele><time>2026-04-26T13:16:17.991Z</time></trkpt><trkpt lat="45.75943459069593" lon="11.309896400041685"><ele>1401.0</ele><time>2026-04-26T13:16:19.991Z</time></trkpt><trkpt lat="45.759412408873516" lon="11.30998200606398"><ele>1401.0</ele><time>2026-04-26T13:16:20.991Z</time></trkpt><trkpt lat="45.75939730274047" lon="11.310071964369731"><ele>1401.0</ele><time>2026-04-26T13:16:21.991Z</time></trkpt><trkpt lat="45.75937598685566" lon="11.3101579686317"><ele>1401.0</ele><time>2026-04-26T13:16:22.991Z</time></trkpt><trkpt lat="45.75930860026883" lon="11.310296622201678"><ele>1400.5</ele><time>2026-04-26T13:16:24.991Z</time></trkpt><trkpt lat="45.75925367032517" lon="11.310347891695487"><ele>1400.0</ele><time>2026-04-26T13:16:25.991Z</time></trkpt><trkpt lat="45.75920060040974" lon="11.310403938724644"><ele>1399.5</ele><time>2026-04-26T13:16:26.991Z</time></trkpt><trkpt lat="45.75914852047511" lon="11.310455994412212"><ele>1399.0</ele><time>2026-04-26T13:16:27.991Z</time></trkpt><trkpt lat="45.75907587249037" lon="11.31059713490405"><ele>1398.5</ele><time>2026-04-26T13:16:29.991Z</time></trkpt><trkpt lat="45.759039839302304" lon="11.310673116989884"><ele>1398.0</ele><time>2026-04-26T13:16:30.991Z</time></trkpt><trkpt lat="45.758957540219484" lon="11.310806850602804"><ele>1398.0</ele><time>2026-04-26T13:16:32.991Z</time></trkpt><trkpt lat="45.75885625820547" lon="11.310886043345425"><ele>1398.0</ele><time>2026-04-26T13:16:34.991Z</time></trkpt><trkpt lat="45.758743938429085" lon="11.310920556526813"><ele>1398.0</ele><time>2026-04-26T13:16:36.991Z</time></trkpt><trkpt lat="45.75864131951562" lon="11.311004156633262"><ele>1398.0</ele><time>2026-04-26T13:16:38.991Z</time></trkpt><trkpt lat="45.758555900503666" lon="11.3111028150599"><ele>1394.8333333333333</ele><time>2026-04-26T13:16:40.991Z</time></trkpt><trkpt lat="45.75849967767813" lon="11.311204266022548"><ele>1391.6666666666667</ele><time>2026-04-26T13:16:42.991Z</time></trkpt><trkpt lat="45.75844960036869" lon="11.311296971803538"><ele>1388.5</ele><time>2026-04-26T13:16:44.991Z</time></trkpt><trkpt lat="45.75839023969568" lon="11.311357684639937"><ele>1385.3333333333335</ele><time>2026-04-26T13:16:46.991Z</time></trkpt><trkpt lat="45.75836152983322" lon="11.31144769036455"><ele>1382.1666666666667</ele><time>2026-04-26T13:16:48.991Z</time></trkpt><trkpt lat="45.758319926833124" lon="11.31155925968779"><ele>1379.0</ele><time>2026-04-26T13:16:51.991Z</time></trkpt><trkpt lat="45.75824770535736" lon="11.311593956899724"><ele>1379.0</ele><time>2026-04-26T13:16:55.991Z</time></trkpt><trkpt lat="45.75826506910047" lon="11.311493520849655"><ele>1379.0</ele><time>2026-04-26T13:16:57.99Z</time></trkpt><trkpt lat="45.75832608255226" lon="11.311357047309606"><ele>1379.0</ele><time>2026-04-26T13:16:59.99Z</time></trkpt><trkpt lat="45.758361997105624" lon="11.311279223012503"><ele>1379.0</ele><time>2026-04-26T13:17:00.99Z</time></trkpt><trkpt lat="45.75839518110575" lon="11.311200558535615"><ele>1379.0</ele><time>2026-04-26T13:17:01.99Z</time></trkpt><trkpt lat="45.75844536742074" lon="11.311125904785788"><ele>1379.0</ele><time>2026-04-26T13:17:02.99Z</time></trkpt><trkpt lat="45.758489309718726" lon="11.311043578007014"><ele>1381.7142857142858</ele><time>2026-04-26T13:17:03.99Z</time></trkpt><trkpt lat="45.75853239481802" lon="11.310969500199365"><ele>1384.4285714285716</ele><time>2026-04-26T13:17:04.99Z</time></trkpt><trkpt lat="45.758576359956784" lon="11.310898906594467"><ele>1387.142857142857</ele><time>2026-04-26T13:17:05.99Z</time></trkpt><trkpt lat="45.758624093315404" lon="11.31082870974688"><ele>1389.857142857143</ele><time>2026-04-26T13:17:06.99Z</time></trkpt><trkpt lat="45.75868100814789" lon="11.310776274295247"><ele>1392.5714285714287</ele><time>2026-04-26T13:17:07.99Z</time></trkpt><trkpt lat="45.75874139602834" lon="11.310732259041304"><ele>1395.2857142857142</ele><time>2026-04-26T13:17:08.99Z</time></trkpt><trkpt lat="45.758797737837085" lon="11.31069000287665"><ele>1398.0</ele><time>2026-04-26T13:17:09.99Z</time></trkpt><trkpt lat="45.75884727524171" lon="11.310626003051915"><ele>1393.6666666666667</ele><time>2026-04-26T13:17:10.992Z</time></trkpt><trkpt lat="45.75889499719671" lon="11.310539477649552"><ele>1389.3333333333333</ele><time>2026-04-26T13:17:11.992Z</time></trkpt><trkpt lat="45.75892034627766" lon="11.31042516070709"><ele>1385.0</ele><time>2026-04-26T13:17:12.992Z</time></trkpt><trkpt lat="45.75893843812972" lon="11.310295596943932"><ele>1380.6666666666665</ele><time>2026-04-26T13:17:13.992Z</time></trkpt><trkpt lat="45.75896237471354" lon="11.31016297395058"><ele>1376.3333333333333</ele><time>2026-04-26T13:17:14.992Z</time></trkpt><trkpt lat="45.758997990066426" lon="11.310040081393439"><ele>1372.0</ele><time>2026-04-26T13:17:15.993Z</time></trkpt><trkpt lat="45.75903905781595" lon="11.30991878808644"><ele>1372.0</ele><time>2026-04-26T13:17:16.993Z</time></trkpt><trkpt lat="45.75908649149058" lon="11.309787658160456"><ele>1372.0</ele><time>2026-04-26T13:17:17.993Z</time></trkpt><trkpt lat="45.759114581820825" lon="11.309674093903157"><ele>1372.0</ele><time>2026-04-26T13:17:18.993Z</time></trkpt><trkpt lat="45.759145512278366" lon="11.309552892175194"><ele>1372.0</ele><time>2026-04-26T13:17:19.994Z</time></trkpt><trkpt lat="45.75917440108237" lon="11.30942064858927"><ele>1372.0</ele><time>2026-04-26T13:17:20.994Z</time></trkpt><trkpt lat="45.759204123020545" lon="11.309297980536968"><ele>1369.3333333333333</ele><time>2026-04-26T13:17:21.994Z</time></trkpt><trkpt lat="45.75922823308372" lon="11.309181539711366"><ele>1366.6666666666665</ele><time>2026-04-26T13:17:22.994Z</time></trkpt><trkpt lat="45.75925279484767" lon="11.309074178146432"><ele>1364.0</ele><time>2026-04-26T13:17:23.995Z</time></trkpt><trkpt lat="45.75927653246035" lon="11.308968090489778"><ele>1361.3333333333333</ele><time>2026-04-26T13:17:24.995Z</time></trkpt><trkpt lat="45.759299142668745" lon="11.308865061368717"><ele>1358.6666666666667</ele><time>2026-04-26T13:17:25.995Z</time></trkpt><trkpt lat="45.759315437056316" lon="11.30876705937283"><ele>1356.0</ele><time>2026-04-26T13:17:26.995Z</time></trkpt><trkpt lat="45.759331508451254" lon="11.30866847567413"><ele>1357.0</ele><time>2026-04-26T13:17:27.995Z</time></trkpt><trkpt lat="45.75934953309058" lon="11.30857292106905"><ele>1358.0</ele><time>2026-04-26T13:17:28.996Z</time></trkpt><trkpt lat="45.759381001713884" lon="11.308412520523536"><ele>1359.0</ele><time>2026-04-26T13:17:30.996Z</time></trkpt><trkpt lat="45.7594232635475" lon="11.3082851788617"><ele>1360.0</ele><time>2026-04-26T13:17:32.996Z</time></trkpt><trkpt lat="45.75947384487611" lon="11.308178816764183"><ele>1361.0</ele><time>2026-04-26T13:17:34.997Z</time></trkpt><trkpt lat="45.759502562356595" lon="11.30806354886516"><ele>1361.0</ele><time>2026-04-26T13:17:36.997Z</time></trkpt><trkpt lat="45.75951870519079" lon="11.307959170013618"><ele>1361.0</ele><time>2026-04-26T13:17:39.997Z</time></trkpt><trkpt lat="45.75945234609083" lon="11.307997786193319"><ele>1361.0</ele><time>2026-04-26T13:17:42.997Z</time></trkpt><trkpt lat="45.759412452695365" lon="11.308069011263996"><ele>1361.0</ele><time>2026-04-26T13:17:44.998Z</time></trkpt><trkpt lat="45.75934443234636" lon="11.308145490693013"><ele>1361.0</ele><time>2026-04-26T13:17:46.998Z</time></trkpt><trkpt lat="45.759267876606756" lon="11.308254523674263"><ele>1361.0</ele><time>2026-04-26T13:17:48.998Z</time></trkpt><trkpt lat="45.75923332727733" lon="11.308358605925358"><ele>1360.0</ele><time>2026-04-26T13:17:50.998Z</time></trkpt><trkpt lat="45.75918555142015" lon="11.308468508618008"><ele>1359.0</ele><time>2026-04-26T13:17:52.998Z</time></trkpt><trkpt lat="45.759115754252306" lon="11.308604526686729"><ele>1358.0</ele><time>2026-04-26T13:17:54.998Z</time></trkpt><trkpt lat="45.759040426441466" lon="11.308766317607681"><ele>1357.0</ele><time>2026-04-26T13:17:56.998Z</time></trkpt><trkpt lat="45.75899602031" lon="11.308868113188987"><ele>1356.0</ele><time>2026-04-26T13:17:57.998Z</time></trkpt><trkpt lat="45.7589468302764" lon="11.308977504723256"><ele>1356.0</ele><time>2026-04-26T13:17:58.998Z</time></trkpt><trkpt lat="45.758894836295866" lon="11.309070814247391"><ele>1356.0</ele><time>2026-04-26T13:17:59.998Z</time></trkpt><trkpt lat="45.758848881563544" lon="11.30916690086572"><ele>1356.0</ele><time>2026-04-26T13:18:00.998Z</time></trkpt><trkpt lat="45.75880034589544" lon="11.309250212398839"><ele>1356.0</ele><time>2026-04-26T13:18:01.998Z</time></trkpt><trkpt lat="45.7587506925187" lon="11.309343954605353"><ele>1356.0</ele><time>2026-04-26T13:18:02.998Z</time></trkpt><trkpt lat="45.758692242354485" lon="11.309431125859966"><ele>1356.0</ele><time>2026-04-26T13:18:03.998Z</time></trkpt><trkpt lat="45.75864497918787" lon="11.309519401703758"><ele>1356.0</ele><time>2026-04-26T13:18:04.998Z</time></trkpt><trkpt lat="45.758595597600404" lon="11.309607297405904"><ele>1356.0</ele><time>2026-04-26T13:18:05.998Z</time></trkpt><trkpt lat="45.75856211358788" lon="11.309705613920498"><ele>1356.0</ele><time>2026-04-26T13:18:06.998Z</time></trkpt><trkpt lat="45.75852464858964" lon="11.309801322095172"><ele>1356.0</ele><time>2026-04-26T13:18:07.998Z</time></trkpt><trkpt lat="45.75846680282783" lon="11.309888801366665"><ele>1356.0</ele><time>2026-04-26T13:18:08.998Z</time></trkpt><trkpt lat="45.75839990624689" lon="11.309954485803036"><ele>1356.0</ele><time>2026-04-26T13:18:09.998Z</time></trkpt><trkpt lat="45.75833102455032" lon="11.310009283874862"><ele>1352.8333333333333</ele><time>2026-04-26T13:18:10.998Z</time></trkpt><trkpt lat="45.758262259810074" lon="11.31006483170615"><ele>1349.6666666666667</ele><time>2026-04-26T13:18:11.998Z</time></trkpt><trkpt lat="45.758193919243546" lon="11.310134920296099"><ele>1346.5</ele><time>2026-04-26T13:18:12.998Z</time></trkpt><trkpt lat="45.75813138161471" lon="11.310218123287145"><ele>1343.3333333333335</ele><time>2026-04-26T13:18:13.998Z</time></trkpt><trkpt lat="45.75808159337163" lon="11.310319466765858"><ele>1340.1666666666667</ele><time>2026-04-26T13:18:14.998Z</time></trkpt><trkpt lat="45.75803157904535" lon="11.310402232284396"><ele>1337.0</ele><time>2026-04-26T13:18:15.998Z</time></trkpt><trkpt lat="45.75798013288396" lon="11.31047677359189"><ele>1337.0</ele><time>2026-04-26T13:18:16.998Z</time></trkpt><trkpt lat="45.757920362543295" lon="11.310534692202769"><ele>1337.0</ele><time>2026-04-26T13:18:17.998Z</time></trkpt><trkpt lat="45.75785154838793" lon="11.31058522517831"><ele>1337.0</ele><time>2026-04-26T13:18:18.998Z</time></trkpt><trkpt lat="45.75778429042086" lon="11.310651967860052"><ele>1337.0</ele><time>2026-04-26T13:18:19.998Z</time></trkpt><trkpt lat="45.757721600618105" lon="11.310730890405255"><ele>1337.0</ele><time>2026-04-26T13:18:20.998Z</time></trkpt><trkpt lat="45.75766135702997" lon="11.310815053981253"><ele>1337.0</ele><time>2026-04-26T13:18:21.998Z</time></trkpt><trkpt lat="45.75759931515608" lon="11.310894110115086"><ele>1335.0</ele><time>2026-04-26T13:18:22.998Z</time></trkpt><trkpt lat="45.75754330320581" lon="11.310976102122172"><ele>1333.0</ele><time>2026-04-26T13:18:23.998Z</time></trkpt><trkpt lat="45.757490550768395" lon="11.311059211704203"><ele>1331.0</ele><time>2026-04-26T13:18:24.998Z</time></trkpt><trkpt lat="45.75743782702377" lon="11.311133224481505"><ele>1329.0</ele><time>2026-04-26T13:18:25.998Z</time></trkpt><trkpt lat="45.75738950067049" lon="11.31119876073407"><ele>1327.0</ele><time>2026-04-26T13:18:26.998Z</time></trkpt><trkpt lat="45.757337338101344" lon="11.311262292256746"><ele>1325.0</ele><time>2026-04-26T13:18:27.998Z</time></trkpt><trkpt lat="45.75722750732514" lon="11.3113684966975"><ele>1327.5714285714287</ele><time>2026-04-26T13:18:29.998Z</time></trkpt><trkpt lat="45.757164838680644" lon="11.3114171656293"><ele>1330.142857142857</ele><time>2026-04-26T13:18:30.998Z</time></trkpt><trkpt lat="45.75711248993585" lon="11.311474216689668"><ele>1332.7142857142858</ele><time>2026-04-26T13:18:31.998Z</time></trkpt><trkpt lat="45.757061745392" lon="11.311542844321773"><ele>1335.2857142857142</ele><time>2026-04-26T13:18:32.998Z</time></trkpt><trkpt lat="45.75701515775498" lon="11.311622611798233"><ele>1337.857142857143</ele><time>2026-04-26T13:18:33.998Z</time></trkpt><trkpt lat="45.756970043243356" lon="11.311701921067392"><ele>1340.4285714285713</ele><time>2026-04-26T13:18:34.998Z</time></trkpt><trkpt lat="45.756926667371566" lon="11.311780059518092"><ele>1343.0</ele><time>2026-04-26T13:18:35.998Z</time></trkpt><trkpt lat="45.75688432376729" lon="11.311854211786814"><ele>1339.1666666666667</ele><time>2026-04-26T13:18:36.998Z</time></trkpt><trkpt lat="45.756848474693626" lon="11.311930918946882"><ele>1335.3333333333335</ele><time>2026-04-26T13:18:37.998Z</time></trkpt><trkpt lat="45.75680734465717" lon="11.31200556231304"><ele>1331.5</ele><time>2026-04-26T13:18:38.998Z</time></trkpt><trkpt lat="45.75677484636752" lon="11.312083472463202"><ele>1327.6666666666667</ele><time>2026-04-26T13:18:39.998Z</time></trkpt><trkpt lat="45.756717879725194" lon="11.312229514348793"><ele>1323.8333333333333</ele><time>2026-04-26T13:18:41.998Z</time></trkpt><trkpt lat="45.75665255131518" lon="11.312377961422328"><ele>1320.0</ele><time>2026-04-26T13:18:43.998Z</time></trkpt><trkpt lat="45.75660600469313" lon="11.312525041949277"><ele>1320.0</ele><time>2026-04-26T13:18:45.998Z</time></trkpt><trkpt lat="45.7565547298504" lon="11.312650735518565"><ele>1320.0</ele><time>2026-04-26T13:18:47.998Z</time></trkpt><trkpt lat="45.75650825867721" lon="11.31276488697201"><ele>1320.0</ele><time>2026-04-26T13:18:49.998Z</time></trkpt><trkpt lat="45.756485506322555" lon="11.312861275027597"><ele>1320.0</ele><time>2026-04-26T13:18:51.998Z</time></trkpt><trkpt lat="45.7564381759875" lon="11.312946634593477"><ele>1320.0</ele><time>2026-04-26T13:18:54.998Z</time></trkpt><trkpt lat="45.75641772296109" lon="11.312839557812211"><ele>1320.0</ele><time>2026-04-26T13:18:57.998Z</time></trkpt><trkpt lat="45.75646829616953" lon="11.312703896982681"><ele>1320.0</ele><time>2026-04-26T13:18:59.998Z</time></trkpt><trkpt lat="45.75649717181617" lon="11.312618877871557"><ele>1320.0</ele><time>2026-04-26T13:19:00.998Z</time></trkpt><trkpt lat="45.75652254775707" lon="11.312513235549087"><ele>1320.0</ele><time>2026-04-26T13:19:01.998Z</time></trkpt><trkpt lat="45.75655303955689" lon="11.312396495383583"><ele>1320.0</ele><time>2026-04-26T13:19:02.998Z</time></trkpt><trkpt lat="45.75657998329366" lon="11.312278667462815"><ele>1320.0</ele><time>2026-04-26T13:19:03.998Z</time></trkpt><trkpt lat="45.7566053137852" lon="11.312170224494201"><ele>1320.0</ele><time>2026-04-26T13:19:04.998Z</time></trkpt><trkpt lat="45.75662233264315" lon="11.312065828100279"><ele>1317.7142857142858</ele><time>2026-04-26T13:19:05.998Z</time></trkpt><trkpt lat="45.756644557777605" lon="11.311963912399086"><ele>1315.4285714285716</ele><time>2026-04-26T13:19:06.998Z</time></trkpt><trkpt lat="45.7566675368526" lon="11.311864243105108"><ele>1313.1428571428573</ele><time>2026-04-26T13:19:07.998Z</time></trkpt><trkpt lat="45.75668995787102" lon="11.311770362798546"><ele>1310.857142857143</ele><time>2026-04-26T13:19:08.998Z</time></trkpt><trkpt lat="45.756703463033425" lon="11.311670954909827"><ele>1308.5714285714284</ele><time>2026-04-26T13:19:09.998Z</time></trkpt><trkpt lat="45.75671961709476" lon="11.311564666622685"><ele>1306.2857142857144</ele><time>2026-04-26T13:19:10.998Z</time></trkpt><trkpt lat="45.756738401899625" lon="11.311462942003086"><ele>1304.0</ele><time>2026-04-26T13:19:11.998Z</time></trkpt><trkpt lat="45.756747794330344" lon="11.311370683110166"><ele>1302.0</ele><time>2026-04-26T13:19:12.998Z</time></trkpt><trkpt lat="45.756760478821924" lon="11.31120492787787"><ele>1300.0</ele><time>2026-04-26T13:19:14.998Z</time></trkpt><trkpt lat="45.75677131891836" lon="11.311055550214547"><ele>1298.0</ele><time>2026-04-26T13:19:16.998Z</time></trkpt><trkpt lat="45.75678730041847" lon="11.310906196566348"><ele>1296.0</ele><time>2026-04-26T13:19:18.998Z</time></trkpt><trkpt lat="45.756809457501866" lon="11.310773688660019"><ele>1294.0</ele><time>2026-04-26T13:19:20.998Z</time></trkpt><trkpt lat="45.75685446822355" lon="11.310627944980528"><ele>1296.4</ele><time>2026-04-26T13:19:22.998Z</time></trkpt><trkpt lat="45.75691514403849" lon="11.310497591146886"><ele>1298.8000000000002</ele><time>2026-04-26T13:19:24.998Z</time></trkpt><trkpt lat="45.756990308276166" lon="11.31035802157017"><ele>1301.1999999999998</ele><time>2026-04-26T13:19:26.998Z</time></trkpt><trkpt lat="45.757033380586364" lon="11.31027791302095"><ele>1303.6</ele><time>2026-04-26T13:19:27.998Z</time></trkpt><trkpt lat="45.75707246096346" lon="11.310205217953527"><ele>1306.0</ele><time>2026-04-26T13:19:28.998Z</time></trkpt><trkpt lat="45.75714111833782" lon="11.31004346440849"><ele>1306.0000000000002</ele><time>2026-04-26T13:19:30.998Z</time></trkpt><trkpt lat="45.757172024308105" lon="11.30995443640608"><ele>1306.0</ele><time>2026-04-26T13:19:31.998Z</time></trkpt><trkpt lat="45.757212071106636" lon="11.309871859894953"><ele>1306.0</ele><time>2026-04-26T13:19:32.998Z</time></trkpt><trkpt lat="45.75725381056821" lon="11.309786163449845"><ele>1306.0</ele><time>2026-04-26T13:19:33.998Z</time></trkpt><trkpt lat="45.757293530658316" lon="11.309700959820551"><ele>1306.0</ele><time>2026-04-26T13:19:34.998Z</time></trkpt><trkpt lat="45.75730996665162" lon="11.30960335055365"><ele>1306.0000000000002</ele><time>2026-04-26T13:19:35.998Z</time></trkpt><trkpt lat="45.757317494503695" lon="11.309486908185082"><ele>1306.0</ele><time>2026-04-26T13:19:36.998Z</time></trkpt><trkpt lat="45.757322657834024" lon="11.30937225093888"><ele>1303.6666666666665</ele><time>2026-04-26T13:19:37.998Z</time></trkpt><trkpt lat="45.75734119963346" lon="11.309274436094606"><ele>1301.3333333333333</ele><time>2026-04-26T13:19:38.998Z</time></trkpt><trkpt lat="45.75735627958573" lon="11.309175639027385"><ele>1299.0</ele><time>2026-04-26T13:19:39.998Z</time></trkpt><trkpt lat="45.75735471008493" lon="11.309079038237316"><ele>1296.6666666666667</ele><time>2026-04-26T13:19:40.998Z</time></trkpt><trkpt lat="45.75734596438371" lon="11.308911495142464"><ele>1294.3333333333335</ele><time>2026-04-26T13:19:42.998Z</time></trkpt><trkpt lat="45.75735220072858" lon="11.308741726438354"><ele>1292.0</ele><time>2026-04-26T13:19:44.998Z</time></trkpt><trkpt lat="45.75737547080538" lon="11.30865404301813"><ele>1288.75</ele><time>2026-04-26T13:19:45.998Z</time></trkpt><trkpt lat="45.75744483139091" lon="11.308503857557548"><ele>1285.5</ele><time>2026-04-26T13:19:47.998Z</time></trkpt><trkpt lat="45.75751738067564" lon="11.308357247494072"><ele>1282.25</ele><time>2026-04-26T13:19:49.998Z</time></trkpt><trkpt lat="45.75758330748161" lon="11.308226163656956"><ele>1279.0</ele><time>2026-04-26T13:19:51.998Z</time></trkpt><trkpt lat="45.757635015006564" lon="11.308091218120015"><ele>1282.6</ele><time>2026-04-26T13:19:53.998Z</time></trkpt><trkpt lat="45.75766741642395" lon="11.307965679313552"><ele>1286.2</ele><time>2026-04-26T13:19:55.998Z</time></trkpt><trkpt lat="45.75770460739042" lon="11.307822960903406"><ele>1289.8</ele><time>2026-04-26T13:19:57.998Z</time></trkpt><trkpt lat="45.75776797990842" lon="11.307733100115719"><ele>1293.3999999999999</ele><time>2026-04-26T13:19:59.998Z</time></trkpt><trkpt lat="45.75782935144212" lon="11.307623603327356"><ele>1297.0</ele><time>2026-04-26T13:20:01.998Z</time></trkpt><trkpt lat="45.75790230154818" lon="11.307526240933386"><ele>1297.0</ele><time>2026-04-26T13:20:03.997Z</time></trkpt><trkpt lat="45.75798671696242" lon="11.307408632530178"><ele>1297.0</ele><time>2026-04-26T13:20:05.997Z</time></trkpt><trkpt lat="45.75809812040912" lon="11.307233809325373"><ele>1297.0</ele><time>2026-04-26T13:20:07.997Z</time></trkpt><trkpt lat="45.75820152318831" lon="11.307168878337597"><ele>1297.0</ele><time>2026-04-26T13:20:09.997Z</time></trkpt><trkpt lat="45.75829473617301" lon="11.306999335026363"><ele>1299.25</ele><time>2026-04-26T13:20:11.997Z</time></trkpt><trkpt lat="45.758384606988194" lon="11.3068963098884"><ele>1301.5</ele><time>2026-04-26T13:20:13.997Z</time></trkpt><trkpt lat="45.75844421982641" lon="11.306757210934602"><ele>1303.75</ele><time>2026-04-26T13:20:15.997Z</time></trkpt><trkpt lat="45.75849459949474" lon="11.306614890723855"><ele>1306.0</ele><time>2026-04-26T13:20:17.997Z</time></trkpt><trkpt lat="45.7585489100037" lon="11.306458858579095"><ele>1300.6</ele><time>2026-04-26T13:20:19.997Z</time></trkpt><trkpt lat="45.758630765799815" lon="11.306327182298066"><ele>1295.1999999999998</ele><time>2026-04-26T13:20:21.997Z</time></trkpt><trkpt lat="45.75868389081853" lon="11.306234148499602"><ele>1289.8000000000002</ele><time>2026-04-26T13:20:22.997Z</time></trkpt><trkpt lat="45.75872881834689" lon="11.306141031979786"><ele>1284.4</ele><time>2026-04-26T13:20:23.997Z</time></trkpt><trkpt lat="45.758766691615186" lon="11.306052376468372"><ele>1279.0</ele><time>2026-04-26T13:20:24.997Z</time></trkpt><trkpt lat="45.75880472613262" lon="11.305890255885979"><ele>1279.0</ele><time>2026-04-26T13:20:26.997Z</time></trkpt><trkpt lat="45.758801380945144" lon="11.305760707446602"><ele>1279.0</ele><time>2026-04-26T13:20:28.997Z</time></trkpt><trkpt lat="45.758835269996275" lon="11.305638851708636"><ele>1279.0</ele><time>2026-04-26T13:20:30.997Z</time></trkpt><trkpt lat="45.75886639050814" lon="11.30551958095646"><ele>1279.0</ele><time>2026-04-26T13:20:32.997Z</time></trkpt><trkpt lat="45.75881304717131" lon="11.305455882137576"><ele>1279.0</ele><time>2026-04-26T13:20:35.997Z</time></trkpt><trkpt lat="45.75873110551568" lon="11.305483405587543"><ele>1279.0</ele><time>2026-04-26T13:20:37.997Z</time></trkpt><trkpt lat="45.75867031332767" lon="11.305565825483765"><ele>1279.0</ele><time>2026-04-26T13:20:39.997Z</time></trkpt><trkpt lat="45.758615177720095" lon="11.305665957312183"><ele>1279.0</ele><time>2026-04-26T13:20:41.997Z</time></trkpt><trkpt lat="45.75860299204827" lon="11.305774190410837"><ele>1279.0</ele><time>2026-04-26T13:20:43.997Z</time></trkpt><trkpt lat="45.758582079037225" lon="11.305903479420119"><ele>1279.0</ele><time>2026-04-26T13:20:46.997Z</time></trkpt><trkpt lat="45.75851391222792" lon="11.30597908730027"><ele>1279.0</ele><time>2026-04-26T13:20:48.997Z</time></trkpt><trkpt lat="45.75843569108932" lon="11.306025105987375"><ele>1279.0</ele><time>2026-04-26T13:20:50.997Z</time></trkpt><trkpt lat="45.758345492221714" lon="11.30608034051465"><ele>1272.2</ele><time>2026-04-26T13:20:52.997Z</time></trkpt><trkpt lat="45.75829213132527" lon="11.306128927501703"><ele>1265.4</ele><time>2026-04-26T13:20:53.997Z</time></trkpt><trkpt lat="45.75821301678726" lon="11.306166566519591"><ele>1258.6</ele><time>2026-04-26T13:20:55.997Z</time></trkpt><trkpt lat="45.75809346745467" lon="11.306209378386178"><ele>1251.8</ele><time>2026-04-26T13:20:57.997Z</time></trkpt><trkpt lat="45.75799784780804" lon="11.306254564884208"><ele>1245.0</ele><time>2026-04-26T13:20:58.997Z</time></trkpt><trkpt lat="45.757912357691254" lon="11.306290910859097"><ele>1245.0</ele><time>2026-04-26T13:20:59.997Z</time></trkpt><trkpt lat="45.75783473938727" lon="11.306314996555656"><ele>1245.0</ele><time>2026-04-26T13:21:00.997Z</time></trkpt><trkpt lat="45.757759725360344" lon="11.306351760036307"><ele>1245.0</ele><time>2026-04-26T13:21:01.997Z</time></trkpt><trkpt lat="45.757690809361065" lon="11.306386283043427"><ele>1245.0</ele><time>2026-04-26T13:21:02.997Z</time></trkpt><trkpt lat="45.75761694671841" lon="11.306424944197433"><ele>1245.0</ele><time>2026-04-26T13:21:03.997Z</time></trkpt><trkpt lat="45.75754869554545" lon="11.306455384935191"><ele>1245.0</ele><time>2026-04-26T13:21:04.997Z</time></trkpt><trkpt lat="45.75748101441709" lon="11.30648282463981"><ele>1243.8</ele><time>2026-04-26T13:21:05.997Z</time></trkpt><trkpt lat="45.75741489830033" lon="11.306512595568872"><ele>1242.6</ele><time>2026-04-26T13:21:06.997Z</time></trkpt><trkpt lat="45.7573139470578" lon="11.306545684022172"><ele>1241.4</ele><time>2026-04-26T13:21:08.997Z</time></trkpt><trkpt lat="45.75721053645244" lon="11.306613364226722"><ele>1240.2</ele><time>2026-04-26T13:21:10.997Z</time></trkpt><trkpt lat="45.757161985101654" lon="11.306675866619543"><ele>1239.0</ele><time>2026-04-26T13:21:11.997Z</time></trkpt><trkpt lat="45.75709363701606" lon="11.306815471132662"><ele>1239.0</ele><time>2026-04-26T13:21:13.997Z</time></trkpt><trkpt lat="45.75704009528076" lon="11.306958555815974"><ele>1239.0</ele><time>2026-04-26T13:21:15.997Z</time></trkpt><trkpt lat="45.756994304085794" lon="11.307104471606356"><ele>1239.0</ele><time>2026-04-26T13:21:17.997Z</time></trkpt><trkpt lat="45.75693387670139" lon="11.307220546122432"><ele>1239.0</ele><time>2026-04-26T13:21:19.997Z</time></trkpt><trkpt lat="45.756875582564476" lon="11.30727179459211"><ele>1239.0</ele><time>2026-04-26T13:21:21.997Z</time></trkpt><trkpt lat="45.756804660148426" lon="11.307305515025456"><ele>1237.2</ele><time>2026-04-26T13:21:23.997Z</time></trkpt><trkpt lat="45.75668656628885" lon="11.307351044016453"><ele>1235.4</ele><time>2026-04-26T13:21:25.997Z</time></trkpt><trkpt lat="45.75660821918706" lon="11.307377035274175"><ele>1233.6</ele><time>2026-04-26T13:21:26.997Z</time></trkpt><trkpt lat="45.756535711738174" lon="11.307408961963375"><ele>1231.8</ele><time>2026-04-26T13:21:27.997Z</time></trkpt><trkpt lat="45.75646766084045" lon="11.307435123392402"><ele>1230.0</ele><time>2026-04-26T13:21:28.997Z</time></trkpt><trkpt lat="45.75635331809211" lon="11.307476218286395"><ele>1230.0</ele><time>2026-04-26T13:21:30.997Z</time></trkpt><trkpt lat="45.756236652302576" lon="11.3074876486951"><ele>1230.0</ele><time>2026-04-26T13:21:32.997Z</time></trkpt><trkpt lat="45.756155750297424" lon="11.307438564733983"><ele>1230.0</ele><time>2026-04-26T13:21:34.997Z</time></trkpt><trkpt lat="45.75608242422713" lon="11.307386013623313"><ele>1230.0</ele><time>2026-04-26T13:21:36.997Z</time></trkpt><trkpt lat="45.75598640809494" lon="11.307405854260496"><ele>1230.0</ele><time>2026-04-26T13:21:38.997Z</time></trkpt><trkpt lat="45.755899096256435" lon="11.307467549584493"><ele>1226.2</ele><time>2026-04-26T13:21:40.997Z</time></trkpt><trkpt lat="45.75582060216767" lon="11.307549095543651"><ele>1222.4</ele><time>2026-04-26T13:21:42.997Z</time></trkpt><trkpt lat="45.755777091564056" lon="11.30767897854774"><ele>1218.6</ele><time>2026-04-26T13:21:44.997Z</time></trkpt><trkpt lat="45.755739929856176" lon="11.307816342664678"><ele>1214.8</ele><time>2026-04-26T13:21:46.997Z</time></trkpt><trkpt lat="45.75570154661479" lon="11.307961653363812"><ele>1211.0</ele><time>2026-04-26T13:21:48.997Z</time></trkpt><trkpt lat="45.75568587886449" lon="11.308093801828816"><ele>1211.0</ele><time>2026-04-26T13:21:50.997Z</time></trkpt><trkpt lat="45.75564098867261" lon="11.308208328423603"><ele>1211.0</ele><time>2026-04-26T13:21:52.997Z</time></trkpt><trkpt lat="45.75563417294429" lon="11.308301109886495"><ele>1211.0</ele><time>2026-04-26T13:21:54.997Z</time></trkpt><trkpt lat="45.7556653639284" lon="11.308409422472291"><ele>1211.0</ele><time>2026-04-26T13:21:56.996Z</time></trkpt><trkpt lat="45.75571388742059" lon="11.308499706683822"><ele>1211.0</ele><time>2026-04-26T13:21:58.996Z</time></trkpt><trkpt lat="45.75577456785148" lon="11.308608298358477"><ele>1211.0</ele><time>2026-04-26T13:22:01.996Z</time></trkpt><trkpt lat="45.755836464898" lon="11.308727053517332"><ele>1211.0</ele><time>2026-04-26T13:22:03.996Z</time></trkpt><trkpt lat="45.755875939670766" lon="11.308848921377079"><ele>1211.0</ele><time>2026-04-26T13:22:05.996Z</time></trkpt><trkpt lat="45.75587714246636" lon="11.30896002301004"><ele>1211.0</ele><time>2026-04-26T13:22:07.996Z</time></trkpt><trkpt lat="45.75578558284338" lon="11.309044916093935"><ele>1211.0</ele><time>2026-04-26T13:22:09.996Z</time></trkpt><trkpt lat="45.75568091659529" lon="11.309153062212904"><ele>1211.0</ele><time>2026-04-26T13:22:11.996Z</time></trkpt><trkpt lat="45.7555670739378" lon="11.309254791806053"><ele>1209.8333333333335</ele><time>2026-04-26T13:22:13.996Z</time></trkpt><trkpt lat="45.75549368454467" lon="11.309313059789329"><ele>1208.6666666666667</ele><time>2026-04-26T13:22:14.996Z</time></trkpt><trkpt lat="45.75542171322451" lon="11.309375654148862"><ele>1207.5</ele><time>2026-04-26T13:22:15.996Z</time></trkpt><trkpt lat="45.75533189814631" lon="11.309468301229375"><ele>1206.3333333333333</ele><time>2026-04-26T13:22:17.996Z</time></trkpt><trkpt lat="45.75527495391633" lon="11.309518940460785"><ele>1205.1666666666665</ele><time>2026-04-26T13:22:18.996Z</time></trkpt><trkpt lat="45.75521400431023" lon="11.309577555042956"><ele>1204.0</ele><time>2026-04-26T13:22:19.996Z</time></trkpt><trkpt lat="45.75513480643182" lon="11.309702405230267"><ele>1199.5</ele><time>2026-04-26T13:22:21.996Z</time></trkpt><trkpt lat="45.755100547021385" lon="11.309793313099888"><ele>1195.0</ele><time>2026-04-26T13:22:22.996Z</time></trkpt><trkpt lat="45.75506496547584" lon="11.309877204167432"><ele>1190.5</ele><time>2026-04-26T13:22:23.996Z</time></trkpt><trkpt lat="45.75502724620878" lon="11.309952201698266"><ele>1186.0</ele><time>2026-04-26T13:22:24.996Z</time></trkpt><trkpt lat="45.75494332174154" lon="11.310111049880009"><ele>1181.5</ele><time>2026-04-26T13:22:26.996Z</time></trkpt><trkpt lat="45.754890677275014" lon="11.310185888977298"><ele>1177.0</ele><time>2026-04-26T13:22:27.996Z</time></trkpt><trkpt lat="45.75483264895597" lon="11.310231087191093"><ele>1177.0</ele><time>2026-04-26T13:22:28.996Z</time></trkpt><trkpt lat="45.75477641978877" lon="11.310296529688465"><ele>1177.0</ele><time>2026-04-26T13:22:29.996Z</time></trkpt><trkpt lat="45.75472188122788" lon="11.310351810279593"><ele>1177.0</ele><time>2026-04-26T13:22:30.996Z</time></trkpt><trkpt lat="45.75464142715659" lon="11.310494257487042"><ele>1177.0</ele><time>2026-04-26T13:22:32.996Z</time></trkpt><trkpt lat="45.754598212333164" lon="11.310590941211615"><ele>1177.0</ele><time>2026-04-26T13:22:33.996Z</time></trkpt><trkpt lat="45.75456557073821" lon="11.310685922424975"><ele>1177.0</ele><time>2026-04-26T13:22:34.996Z</time></trkpt><trkpt lat="45.754535630227195" lon="11.310786035728778"><ele>1181.2</ele><time>2026-04-26T13:22:35.996Z</time></trkpt><trkpt lat="45.75450959127478" lon="11.310870768891634"><ele>1185.4</ele><time>2026-04-26T13:22:36.996Z</time></trkpt><trkpt lat="45.75450705378307" lon="11.311034270747871"><ele>1189.6</ele><time>2026-04-26T13:22:38.996Z</time></trkpt><trkpt lat="45.75452469539454" lon="11.311165980451662"><ele>1193.8</ele><time>2026-04-26T13:22:40.996Z</time></trkpt><trkpt lat="45.754495636837945" lon="11.31130721753001"><ele>1198.0</ele><time>2026-04-26T13:22:42.996Z</time></trkpt><trkpt lat="45.75442365847919" lon="11.311485896268552"><ele>1199.5</ele><time>2026-04-26T13:22:44.996Z</time></trkpt><trkpt lat="45.754376711818615" lon="11.31160610165996"><ele>1201.0</ele><time>2026-04-26T13:22:45.996Z</time></trkpt><trkpt lat="45.75434026644409" lon="11.31171414091795"><ele>1202.5</ele><time>2026-04-26T13:22:46.996Z</time></trkpt><trkpt lat="45.75430495634466" lon="11.311815900074524"><ele>1204.0</ele><time>2026-04-26T13:22:47.996Z</time></trkpt><trkpt lat="45.75426555579565" lon="11.311913503227451"><ele>1205.5</ele><time>2026-04-26T13:22:48.996Z</time></trkpt><trkpt lat="45.75424212577574" lon="11.31200402982501"><ele>1207.0</ele><time>2026-04-26T13:22:49.996Z</time></trkpt><trkpt lat="45.7542246248736" lon="11.312093101255936"><ele>1196.5</ele><time>2026-04-26T13:22:50.996Z</time></trkpt><trkpt lat="45.75419016261798" lon="11.312274632987846"><ele>1186.0</ele><time>2026-04-26T13:22:52.996Z</time></trkpt><trkpt lat="45.75415776376018" lon="11.312417973881535"><ele>1175.5</ele><time>2026-04-26T13:22:54.996Z</time></trkpt><trkpt lat="45.75416821175051" lon="11.312572741650296"><ele>1165.0</ele><time>2026-04-26T13:22:56.996Z</time></trkpt><trkpt lat="45.75419242884637" lon="11.312728942420414"><ele>1165.0</ele><time>2026-04-26T13:22:58.996Z</time></trkpt><trkpt lat="45.75420919365032" lon="11.31284760934458"><ele>1165.0</ele><time>2026-04-26T13:23:00.996Z</time></trkpt><trkpt lat="45.75417360085146" lon="11.312940043195935"><ele>1165.0</ele><time>2026-04-26T13:23:02.996Z</time></trkpt><trkpt lat="45.754187703837175" lon="11.31282061501302"><ele>1165.0</ele><time>2026-04-26T13:23:07.996Z</time></trkpt><trkpt lat="45.75420698734881" lon="11.3127187442553"><ele>1165.0</ele><time>2026-04-26T13:23:09.996Z</time></trkpt><trkpt lat="45.75423570655228" lon="11.312614816997565"><ele>1165.0</ele><time>2026-04-26T13:23:11.996Z</time></trkpt><trkpt lat="45.75427342216265" lon="11.312489461505752"><ele>1165.0</ele><time>2026-04-26T13:23:13.996Z</time></trkpt><trkpt lat="45.754323021120726" lon="11.312380020559377"><ele>1165.0</ele><time>2026-04-26T13:23:15.996Z</time></trkpt><trkpt lat="45.754408726364076" lon="11.312301703234612"><ele>1165.0</ele><time>2026-04-26T13:23:17.996Z</time></trkpt><trkpt lat="45.75448236575357" lon="11.312232612373867"><ele>1165.0</ele><time>2026-04-26T13:23:19.996Z</time></trkpt><trkpt lat="45.75456549670473" lon="11.312156073875759"><ele>1165.0</ele><time>2026-04-26T13:23:21.996Z</time></trkpt><trkpt lat="45.75464102645635" lon="11.312085340850265"><ele>1170.5</ele><time>2026-04-26T13:23:23.996Z</time></trkpt><trkpt lat="45.75468353987487" lon="11.311996054596953"><ele>1176.0</ele><time>2026-04-26T13:23:25.996Z</time></trkpt><trkpt lat="45.754726370680785" lon="11.311878974931593"><ele>1181.5</ele><time>2026-04-26T13:23:28.996Z</time></trkpt><trkpt lat="45.75474464313167" lon="11.311752287995855"><ele>1187.0</ele><time>2026-04-26T13:23:30.996Z</time></trkpt><trkpt lat="45.75477795346509" lon="11.311672790204954"><ele>1192.5</ele><time>2026-04-26T13:23:32.996Z</time></trkpt><trkpt lat="45.75482866106566" lon="11.311575016519614"><ele>1198.0</ele><time>2026-04-26T13:23:34.996Z</time></trkpt><trkpt lat="45.754845573031126" lon="11.311391941410873"><ele>1198.0</ele><time>2026-04-26T13:23:36.996Z</time></trkpt><trkpt lat="45.75489375218097" lon="11.311248575057977"><ele>1198.0</ele><time>2026-04-26T13:23:38.996Z</time></trkpt><trkpt lat="45.75491657878004" lon="11.311127262567751"><ele>1198.0</ele><time>2026-04-26T13:23:40.996Z</time></trkpt><trkpt lat="45.7549521060272" lon="11.311047051517926"><ele>1198.0</ele><time>2026-04-26T13:23:41.996Z</time></trkpt><trkpt lat="45.75501436396773" lon="11.310909866139077"><ele>1198.0</ele><time>2026-04-26T13:23:43.996Z</time></trkpt><trkpt lat="45.75508585208876" lon="11.310875204841524"><ele>1198.0</ele><time>2026-04-26T13:23:45.996Z</time></trkpt><trkpt lat="45.75518303408257" lon="11.310795185613632"><ele>1198.0</ele><time>2026-04-26T13:23:47.996Z</time></trkpt><trkpt lat="45.75523274744494" lon="11.310736135762834"><ele>1198.0</ele><time>2026-04-26T13:23:48.995Z</time></trkpt><trkpt lat="45.75532681925076" lon="11.310624107205284"><ele>1198.0</ele><time>2026-04-26T13:23:50.995Z</time></trkpt><trkpt lat="45.755385161558536" lon="11.310475845317484"><ele>1198.0</ele><time>2026-04-26T13:23:52.995Z</time></trkpt><trkpt lat="45.75542279950063" lon="11.310341494133768"><ele>1193.8</ele><time>2026-04-26T13:23:54.995Z</time></trkpt><trkpt lat="45.75536774546166" lon="11.310389379921352"><ele>1189.6</ele><time>2026-04-26T13:23:59.995Z</time></trkpt><trkpt lat="45.75530315845822" lon="11.310348181325782"><ele>1185.4</ele><time>2026-04-26T13:24:02.995Z</time></trkpt><trkpt lat="45.7552514179712" lon="11.310284617304276"><ele>1181.2</ele><time>2026-04-26T13:24:04.995Z</time></trkpt><trkpt lat="45.755153135861185" lon="11.310117323606445"><ele>1177.0</ele><time>2026-04-26T13:24:06.995Z</time></trkpt><trkpt lat="45.75514237908503" lon="11.309931591978108"><ele>1177.0</ele><time>2026-04-26T13:24:08.995Z</time></trkpt><trkpt lat="45.755152278357556" lon="11.309776716217337"><ele>1177.0</ele><time>2026-04-26T13:24:09.995Z</time></trkpt><trkpt lat="45.75517355819303" lon="11.309690727417461"><ele>1177.0</ele><time>2026-04-26T13:24:10.995Z</time></trkpt><trkpt lat="45.75520160653357" lon="11.309591438184608"><ele>1177.0</ele><time>2026-04-26T13:24:11.995Z</time></trkpt><trkpt lat="45.75523082306166" lon="11.309484678234984"><ele>1177.0</ele><time>2026-04-26T13:24:12.995Z</time></trkpt><trkpt lat="45.75525462840138" lon="11.309367543235497"><ele>1177.0</ele><time>2026-04-26T13:24:13.995Z</time></trkpt><trkpt lat="45.755282098977226" lon="11.309269744608184"><ele>1182.4</ele><time>2026-04-26T13:24:14.995Z</time></trkpt><trkpt lat="45.75531874244207" lon="11.30918773990673"><ele>1187.8000000000002</ele><time>2026-04-26T13:24:15.995Z</time></trkpt><trkpt lat="45.755355469923494" lon="11.309043173938825"><ele>1193.2</ele><time>2026-04-26T13:24:17.997Z</time></trkpt><trkpt lat="45.75538875651651" lon="11.308871402390347"><ele>1198.6000000000001</ele><time>2026-04-26T13:24:19.998Z</time></trkpt><trkpt lat="45.75543169474329" lon="11.30873382447408"><ele>1204.0</ele><time>2026-04-26T13:24:21.998Z</time></trkpt><trkpt lat="45.75549098827717" lon="11.308578215913617"><ele>1205.4</ele><time>2026-04-26T13:24:23.999Z</time></trkpt><trkpt lat="45.7555051607114" lon="11.308473176724426"><ele>1206.8000000000002</ele><time>2026-04-26T13:24:24.999Z</time></trkpt><trkpt lat="45.755473956778594" lon="11.308332138395325"><ele>1208.1999999999998</ele><time>2026-04-26T13:24:25.999Z</time></trkpt><trkpt lat="45.75536574770009" lon="11.308221947641277"><ele>1209.6</ele><time>2026-04-26T13:24:27.999Z</time></trkpt><trkpt lat="45.75530090616285" lon="11.308195845432829"><ele>1211.0</ele><time>2026-04-26T13:24:29.999Z</time></trkpt><trkpt lat="45.7551877377417" lon="11.308145597364943"><ele>1199.6</ele><time>2026-04-26T13:24:31.999Z</time></trkpt><trkpt lat="45.75509463496297" lon="11.308075181759165"><ele>1188.1999999999998</ele><time>2026-04-26T13:24:34Z</time></trkpt><trkpt lat="45.75503544023907" lon="11.307975144002064"><ele>1176.8000000000002</ele><time>2026-04-26T13:24:36Z</time></trkpt><trkpt lat="45.75504149080194" lon="11.30786878971438"><ele>1165.4</ele><time>2026-04-26T13:24:38Z</time></trkpt><trkpt lat="45.75506722342471" lon="11.307726333536928"><ele>1154.0</ele><time>2026-04-26T13:24:40Z</time></trkpt><trkpt lat="45.75507772615588" lon="11.307579666117858"><ele>1154.0</ele><time>2026-04-26T13:24:41Z</time></trkpt><trkpt lat="45.75506092913574" lon="11.307470224688432"><ele>1154.0</ele><time>2026-04-26T13:24:43Z</time></trkpt><trkpt lat="45.75496791884105" lon="11.307416558644498"><ele>1154.0</ele><time>2026-04-26T13:24:45Z</time></trkpt><trkpt lat="45.754882108264724" lon="11.30745742570317"><ele>1154.0</ele><time>2026-04-26T13:24:47Z</time></trkpt><trkpt lat="45.75485992621806" lon="11.307563526300173"><ele>1154.0</ele><time>2026-04-26T13:24:49Z</time></trkpt><trkpt lat="45.75487589177128" lon="11.307671012859057"><ele>1154.0</ele><time>2026-04-26T13:24:51Z</time></trkpt><trkpt lat="45.75489653446074" lon="11.307789735820316"><ele>1154.0</ele><time>2026-04-26T13:24:54Z</time></trkpt><trkpt lat="45.75495363610934" lon="11.30783183811073"><ele>1154.0</ele><time>2026-04-26T13:24:56Z</time></trkpt><trkpt lat="45.75493133666548" lon="11.30792889227367"><ele>1154.0</ele><time>2026-04-26T13:25:04Z</time></trkpt><trkpt lat="45.75486079429163" lon="11.30798330987688"><ele>1154.0</ele><time>2026-04-26T13:25:05Z</time></trkpt><trkpt lat="45.75476172839084" lon="11.308054836394502"><ele>1154.0</ele><time>2026-04-26T13:25:07Z</time></trkpt><trkpt lat="45.754644077631" lon="11.308102602607017"><ele>1154.0</ele><time>2026-04-26T13:25:09Z</time></trkpt><trkpt lat="45.75457627455917" lon="11.308140603030147"><ele>1155.4</ele><time>2026-04-26T13:25:10Z</time></trkpt><trkpt lat="45.7544930218591" lon="11.308184801352786"><ele>1156.8000000000002</ele><time>2026-04-26T13:25:11Z</time></trkpt><trkpt lat="45.75440802633169" lon="11.308226688074567"><ele>1158.1999999999998</ele><time>2026-04-26T13:25:12Z</time></trkpt><trkpt lat="45.75430791107187" lon="11.308263365243164"><ele>1159.6</ele><time>2026-04-26T13:25:13Z</time></trkpt><trkpt lat="45.75419130443708" lon="11.308357438748931"><ele>1161.0</ele><time>2026-04-26T13:25:14Z</time></trkpt><trkpt lat="45.75408386973692" lon="11.308499288300936"><ele>1151.5</ele><time>2026-04-26T13:25:15Z</time></trkpt><trkpt lat="45.75402943334984" lon="11.30857995189285"><ele>1142.0</ele><time>2026-04-26T13:25:18Z</time></trkpt><trkpt lat="45.753949855013644" lon="11.308647189510976"><ele>1132.5</ele><time>2026-04-26T13:25:20Z</time></trkpt><trkpt lat="45.753907978361575" lon="11.308738803166609"><ele>1123.0</ele><time>2026-04-26T13:25:22Z</time></trkpt><trkpt lat="45.753875017009555" lon="11.308848185336629"><ele>1113.5</ele><time>2026-04-26T13:25:24Z</time></trkpt><trkpt lat="45.753817062989015" lon="11.308976244087091"><ele>1104.0</ele><time>2026-04-26T13:25:26Z</time></trkpt><trkpt lat="45.753801676080826" lon="11.309083777427903"><ele>1104.0</ele><time>2026-04-26T13:25:28Z</time></trkpt><trkpt lat="45.753854595776964" lon="11.309175971828921"><ele>1104.0</ele><time>2026-04-26T13:25:31Z</time></trkpt><trkpt lat="45.753796826588896" lon="11.309261404068684"><ele>1104.0</ele><time>2026-04-26T13:25:33Z</time></trkpt><trkpt lat="45.75371648773508" lon="11.309249961720603"><ele>1104.0</ele><time>2026-04-26T13:25:36Z</time></trkpt><trkpt lat="45.75364312596228" lon="11.30930335500321"><ele>1104.0</ele><time>2026-04-26T13:25:38Z</time></trkpt><trkpt lat="45.753557001120626" lon="11.309401734266663"><ele>1104.0</ele><time>2026-04-26T13:25:40Z</time></trkpt><trkpt lat="45.753508364967466" lon="11.309475370207732"><ele>1098.0</ele><time>2026-04-26T13:25:41Z</time></trkpt><trkpt lat="45.753460835573236" lon="11.309567427745217"><ele>1092.0</ele><time>2026-04-26T13:25:42Z</time></trkpt><trkpt lat="45.753429699878275" lon="11.30966046617073"><ele>1086.0</ele><time>2026-04-26T13:25:43Z</time></trkpt><trkpt lat="45.75339275950247" lon="11.309738485680718"><ele>1080.0</ele><time>2026-04-26T13:25:44Z</time></trkpt><trkpt lat="45.753345233673265" lon="11.309848657525308"><ele>1074.0</ele><time>2026-04-26T13:25:45Z</time></trkpt><trkpt lat="45.75330629166655" lon="11.309940618689467"><ele>1068.0</ele><time>2026-04-26T13:25:46Z</time></trkpt><trkpt lat="45.75327470349367" lon="11.310029903095012"><ele>1068.0</ele><time>2026-04-26T13:25:47Z</time></trkpt><trkpt lat="45.75325107670703" lon="11.310135640371737"><ele>1068.0</ele><time>2026-04-26T13:25:48Z</time></trkpt><trkpt lat="45.75322470874738" lon="11.310258355003304"><ele>1068.0</ele><time>2026-04-26T13:25:49Z</time></trkpt><trkpt lat="45.7532023131325" lon="11.310427801665735"><ele>1068.0</ele><time>2026-04-26T13:25:50Z</time></trkpt><trkpt lat="45.753198364718045" lon="11.310575002535405"><ele>1068.0</ele><time>2026-04-26T13:25:51Z</time></trkpt><trkpt lat="45.753169259485986" lon="11.310757157049563"><ele>1070.75</ele><time>2026-04-26T13:25:52Z</time></trkpt><trkpt lat="45.75312143306762" lon="11.31092604112229"><ele>1073.5</ele><time>2026-04-26T13:25:53Z</time></trkpt><trkpt lat="45.75305399476458" lon="11.311067964657841"><ele>1076.25</ele><time>2026-04-26T13:25:54Z</time></trkpt><trkpt lat="45.7529788931243" lon="11.311207016276496"><ele>1079.0</ele><time>2026-04-26T13:25:55Z</time></trkpt><trkpt lat="45.75291230110599" lon="11.311326752242602"><ele>1082.0</ele><time>2026-04-26T13:25:56Z</time></trkpt><trkpt lat="45.75285377196791" lon="11.31145759937985"><ele>1085.0</ele><time>2026-04-26T13:25:57Z</time></trkpt><trkpt lat="45.75280902621864" lon="11.311599031574696"><ele>1088.0</ele><time>2026-04-26T13:25:58Z</time></trkpt><trkpt lat="45.752770316164316" lon="11.311731254832207"><ele>1091.0</ele><time>2026-04-26T13:25:59Z</time></trkpt><trkpt lat="45.75273501218924" lon="11.311870396125734"><ele>1094.0</ele><time>2026-04-26T13:26:00Z</time></trkpt><trkpt lat="45.75271889033976" lon="11.311997404627215"><ele>1084.8</ele><time>2026-04-26T13:26:01Z</time></trkpt><trkpt lat="45.75269140574739" lon="11.31213948029103"><ele>1075.6000000000001</ele><time>2026-04-26T13:26:02Z</time></trkpt><trkpt lat="45.75265269928648" lon="11.312256800280919"><ele>1066.4</ele><time>2026-04-26T13:26:03Z</time></trkpt><trkpt lat="45.752605241534056" lon="11.312367418506305"><ele>1057.2</ele><time>2026-04-26T13:26:04Z</time></trkpt><trkpt lat="45.75255957497882" lon="11.312479669018352"><ele>1048.0</ele><time>2026-04-26T13:26:05Z</time></trkpt><trkpt lat="45.75252507888617" lon="11.312618226067555"><ele>1048.0</ele><time>2026-04-26T13:26:06Z</time></trkpt><trkpt lat="45.752487790413355" lon="11.312757280725249"><ele>1048.0</ele><time>2026-04-26T13:26:07Z</time></trkpt><trkpt lat="45.752427260725185" lon="11.312890104167764"><ele>1048.0</ele><time>2026-04-26T13:26:08Z</time></trkpt><trkpt lat="45.75236850914432" lon="11.313023257429343"><ele>1048.0</ele><time>2026-04-26T13:26:09Z</time></trkpt><trkpt lat="45.752314675447636" lon="11.313144835796875"><ele>1048.0</ele><time>2026-04-26T13:26:10Z</time></trkpt><trkpt lat="45.752259244486275" lon="11.313261929513763"><ele>1051.2</ele><time>2026-04-26T13:26:11Z</time></trkpt><trkpt lat="45.752196187416494" lon="11.313385474958977"><ele>1054.4</ele><time>2026-04-26T13:26:12Z</time></trkpt><trkpt lat="45.752135339767555" lon="11.313497359672876"><ele>1057.6000000000001</ele><time>2026-04-26T13:26:13Z</time></trkpt><trkpt lat="45.75207477386313" lon="11.313606329320164"><ele>1060.8</ele><time>2026-04-26T13:26:14Z</time></trkpt><trkpt lat="45.75202675263365" lon="11.313709255008856"><ele>1064.0</ele><time>2026-04-26T13:26:15Z</time></trkpt><trkpt lat="45.75198066959818" lon="11.313803523712842"><ele>1064.0</ele><time>2026-04-26T13:26:16Z</time></trkpt><trkpt lat="45.75194161607456" lon="11.313902061968932"><ele>1064.0</ele><time>2026-04-26T13:26:17Z</time></trkpt><trkpt lat="45.75190967973353" lon="11.313994595992144"><ele>1064.0</ele><time>2026-04-26T13:26:18Z</time></trkpt><trkpt lat="45.75188001859289" lon="11.314075318934199"><ele>1064.0</ele><time>2026-04-26T13:26:19Z</time></trkpt><trkpt lat="45.751830318182726" lon="11.314202023559915"><ele>1064.0</ele><time>2026-04-26T13:26:21Z</time></trkpt><trkpt lat="45.75176407201745" lon="11.314281615053655"><ele>1064.0</ele><time>2026-04-26T13:26:22.999Z</time></trkpt><trkpt lat="45.75167606258885" lon="11.314227882317173"><ele>1054.0</ele><time>2026-04-26T13:26:25.999Z</time></trkpt><trkpt lat="45.75168374521729" lon="11.314041383378925"><ele>1044.0</ele><time>2026-04-26T13:26:27.999Z</time></trkpt><trkpt lat="45.75171785369977" lon="11.313897398699934"><ele>1034.0</ele><time>2026-04-26T13:26:28.999Z</time></trkpt><trkpt lat="45.75176628530429" lon="11.31374753851125"><ele>1024.0</ele><time>2026-04-26T13:26:29.999Z</time></trkpt><trkpt lat="45.751819443032836" lon="11.31356913076309"><ele>1020.75</ele><time>2026-04-26T13:26:30.999Z</time></trkpt><trkpt lat="45.75186972193618" lon="11.31338869847821"><ele>1017.5</ele><time>2026-04-26T13:26:31.999Z</time></trkpt><trkpt lat="45.75191249393523" lon="11.313194794187943"><ele>1014.25</ele><time>2026-04-26T13:26:32.999Z</time></trkpt><trkpt lat="45.751943419082544" lon="11.313011048893337"><ele>1011.0</ele><time>2026-04-26T13:26:33.999Z</time></trkpt><trkpt lat="45.7519542257383" lon="11.312827042647"><ele>1016.75</ele><time>2026-04-26T13:26:34.999Z</time></trkpt><trkpt lat="45.751971462151296" lon="11.3126377084365"><ele>1022.5</ele><time>2026-04-26T13:26:35.999Z</time></trkpt><trkpt lat="45.75198524882539" lon="11.312461318076314"><ele>1028.25</ele><time>2026-04-26T13:26:36.999Z</time></trkpt><trkpt lat="45.75198090402723" lon="11.312311612551113"><ele>1034.0</ele><time>2026-04-26T13:26:37.999Z</time></trkpt><trkpt lat="45.75195440464596" lon="11.312183190258494"><ele>1034.0</ele><time>2026-04-26T13:26:38.999Z</time></trkpt><trkpt lat="45.7519349143667" lon="11.31205389949249"><ele>1034.0</ele><time>2026-04-26T13:26:39.999Z</time></trkpt><trkpt lat="45.75193496848298" lon="11.311928349806985"><ele>1034.0</ele><time>2026-04-26T13:26:40.999Z</time></trkpt><trkpt lat="45.751983723549934" lon="11.311831496700831"><ele>1034.0</ele><time>2026-04-26T13:26:41.999Z</time></trkpt><trkpt lat="45.75204013173824" lon="11.311720403947794"><ele>1034.0</ele><time>2026-04-26T13:26:42.999Z</time></trkpt><trkpt lat="45.75207947703478" lon="11.311590349281957"><ele>1034.0</ele><time>2026-04-26T13:26:43.999Z</time></trkpt><trkpt lat="45.75207992987103" lon="11.31145523732895"><ele>1034.0</ele><time>2026-04-26T13:26:44.999Z</time></trkpt><trkpt lat="45.752071797924664" lon="11.311327051418525"><ele>1034.0</ele><time>2026-04-26T13:26:45.999Z</time></trkpt><trkpt lat="45.75204703043137" lon="11.31120511806784"><ele>1034.0</ele><time>2026-04-26T13:26:46.999Z</time></trkpt><trkpt lat="45.75204033507923" lon="11.3110907045614"><ele>1034.0</ele><time>2026-04-26T13:26:47.999Z</time></trkpt><trkpt lat="45.75204917734204" lon="11.310960904598327"><ele>1034.0</ele><time>2026-04-26T13:26:48.999Z</time></trkpt><trkpt lat="45.752087142624326" lon="11.310805925612746"><ele>1032.2</ele><time>2026-04-26T13:26:49.999Z</time></trkpt><trkpt lat="45.75213336545962" lon="11.310651724415349"><ele>1030.4</ele><time>2026-04-26T13:26:50.999Z</time></trkpt><trkpt lat="45.75217273011365" lon="11.31050409056398"><ele>1028.6</ele><time>2026-04-26T13:26:51.999Z</time></trkpt><trkpt lat="45.75218110138804" lon="11.310370278033286"><ele>1026.8</ele><time>2026-04-26T13:26:52.999Z</time></trkpt><trkpt lat="45.75216886036187" lon="11.310227816101683"><ele>1025.0</ele><time>2026-04-26T13:26:53.999Z</time></trkpt><trkpt lat="45.75215443640153" lon="11.31006361171261"><ele>1022.0</ele><time>2026-04-26T13:26:54.999Z</time></trkpt><trkpt lat="45.75213794524096" lon="11.30989043853873"><ele>1019.0</ele><time>2026-04-26T13:26:55.999Z</time></trkpt><trkpt lat="45.752133985456965" lon="11.309706770208152"><ele>1016.0</ele><time>2026-04-26T13:26:56.999Z</time></trkpt><trkpt lat="45.75213489053205" lon="11.309518927544667"><ele>1013.0</ele><time>2026-04-26T13:26:57.999Z</time></trkpt><trkpt lat="45.75213051361079" lon="11.309346581456834"><ele>1011.4</ele><time>2026-04-26T13:26:58.999Z</time></trkpt><trkpt lat="45.75211620132829" lon="11.309197404196425"><ele>1009.8</ele><time>2026-04-26T13:26:59.999Z</time></trkpt><trkpt lat="45.752093722211576" lon="11.309048643171689"><ele>1008.2</ele><time>2026-04-26T13:27:00.999Z</time></trkpt><trkpt lat="45.75208030605026" lon="11.308915264740579"><ele>1006.6</ele><time>2026-04-26T13:27:01.999Z</time></trkpt><trkpt lat="45.75206883532422" lon="11.30876600056858"><ele>1005.0</ele><time>2026-04-26T13:27:02.999Z</time></trkpt><trkpt lat="45.752086491025835" lon="11.308626297997284"><ele>1003.5</ele><time>2026-04-26T13:27:03.999Z</time></trkpt><trkpt lat="45.75210452355646" lon="11.30849515004033"><ele>1002.0</ele><time>2026-04-26T13:27:04.999Z</time></trkpt><trkpt lat="45.752133548848086" lon="11.308381073534106"><ele>1000.5</ele><time>2026-04-26T13:27:05.999Z</time></trkpt><trkpt lat="45.75216378724545" lon="11.308228917677011"><ele>999.0</ele><time>2026-04-26T13:27:07.999Z</time></trkpt><trkpt lat="45.75219259173697" lon="11.308317951676372"><ele>997.5</ele><time>2026-04-26T13:27:13.999Z</time></trkpt><trkpt lat="45.75214553860735" lon="11.308414471790263"><ele>996.0</ele><time>2026-04-26T13:27:14.999Z</time></trkpt><trkpt lat="45.75210852576645" lon="11.308556188997764"><ele>996.0</ele><time>2026-04-26T13:27:15.999Z</time></trkpt><trkpt lat="45.75208080053618" lon="11.308717714463832"><ele>996.0</ele><time>2026-04-26T13:27:16.999Z</time></trkpt><trkpt lat="45.752066206237835" lon="11.308898756302318"><ele>996.0</ele><time>2026-04-26T13:27:17.999Z</time></trkpt><trkpt lat="45.752041826298196" lon="11.309088627522547"><ele>996.0</ele><time>2026-04-26T13:27:18.999Z</time></trkpt><trkpt lat="45.752013932123084" lon="11.309268537107878"><ele>998.25</ele><time>2026-04-26T13:27:19.999Z</time></trkpt><trkpt lat="45.7519725580899" lon="11.309457177382985"><ele>1000.5</ele><time>2026-04-26T13:27:20.999Z</time></trkpt><trkpt lat="45.75193146851821" lon="11.309634205502608"><ele>1002.75</ele><time>2026-04-26T13:27:21.999Z</time></trkpt><trkpt lat="45.75189763181825" lon="11.309804051436677"><ele>1005.0</ele><time>2026-04-26T13:27:22.999Z</time></trkpt><trkpt lat="45.751874443865795" lon="11.309975404790501"><ele>997.6</ele><time>2026-04-26T13:27:23.999Z</time></trkpt><trkpt lat="45.751850271212604" lon="11.31012412720647"><ele>990.2</ele><time>2026-04-26T13:27:24.999Z</time></trkpt><trkpt lat="45.751802245702414" lon="11.310244661797359"><ele>982.8</ele><time>2026-04-26T13:27:25.999Z</time></trkpt><trkpt lat="45.75172735968804" lon="11.310348609668047"><ele>975.4</ele><time>2026-04-26T13:27:26.999Z</time></trkpt><trkpt lat="45.75164043877117" lon="11.310441872605185"><ele>968.0</ele><time>2026-04-26T13:27:27.999Z</time></trkpt><trkpt lat="45.7515680485051" lon="11.310570974925913"><ele>970.0</ele><time>2026-04-26T13:27:28.999Z</time></trkpt><trkpt lat="45.75151914931414" lon="11.310722895044197"><ele>972.0</ele><time>2026-04-26T13:27:29.999Z</time></trkpt><trkpt lat="45.75147126011959" lon="11.310884439083829"><ele>974.0</ele><time>2026-04-26T13:27:30.999Z</time></trkpt><trkpt lat="45.75141330915432" lon="11.311032622913872"><ele>976.0</ele><time>2026-04-26T13:27:31.999Z</time></trkpt><trkpt lat="45.751354810917725" lon="11.311155427107387"><ele>976.0</ele><time>2026-04-26T13:27:32.999Z</time></trkpt><trkpt lat="45.75127940433368" lon="11.311264895902466"><ele>975.9999999999999</ele><time>2026-04-26T13:27:33.999Z</time></trkpt><trkpt lat="45.75119888991985" lon="11.311352336115402"><ele>975.9999999999999</ele><time>2026-04-26T13:27:34.999Z</time></trkpt><trkpt lat="45.7511227935991" lon="11.311452289402657"><ele>976.0</ele><time>2026-04-26T13:27:35.999Z</time></trkpt><trkpt lat="45.75105645847086" lon="11.311563673824423"><ele>976.0</ele><time>2026-04-26T13:27:36.999Z</time></trkpt><trkpt lat="45.75100294146997" lon="11.311703294923566"><ele>971.8</ele><time>2026-04-26T13:27:37.999Z</time></trkpt><trkpt lat="45.75095217576159" lon="11.311852353650341"><ele>967.5999999999999</ele><time>2026-04-26T13:27:38.999Z</time></trkpt><trkpt lat="45.75091080433265" lon="11.311995432796799"><ele>963.4</ele><time>2026-04-26T13:27:39.999Z</time></trkpt><trkpt lat="45.75087773768837" lon="11.312132416645207"><ele>959.2</ele><time>2026-04-26T13:27:40.999Z</time></trkpt><trkpt lat="45.75087418789506" lon="11.312263938029322"><ele>955.0</ele><time>2026-04-26T13:27:41.999Z</time></trkpt><trkpt lat="45.75085005742504" lon="11.312378951476719"><ele>955.0</ele><time>2026-04-26T13:27:42.999Z</time></trkpt><trkpt lat="45.75081917105044" lon="11.312476210104073"><ele>955.0</ele><time>2026-04-26T13:27:43.999Z</time></trkpt><trkpt lat="45.75080055953487" lon="11.312650574052311"><ele>955.0</ele><time>2026-04-26T13:27:45.999Z</time></trkpt><trkpt lat="45.75076050073578" lon="11.312746005830848"><ele>955.0</ele><time>2026-04-26T13:27:46.999Z</time></trkpt><trkpt lat="45.750696166057466" lon="11.312846288306094"><ele>955.0</ele><time>2026-04-26T13:27:47.999Z</time></trkpt><trkpt lat="45.7506328871382" lon="11.312958255176573"><ele>956.4999999999999</ele><time>2026-04-26T13:27:48.999Z</time></trkpt><trkpt lat="45.75057984620067" lon="11.3130806889312"><ele>958.0</ele><time>2026-04-26T13:27:49.999Z</time></trkpt><trkpt lat="45.75053205718699" lon="11.313201233205895"><ele>959.5</ele><time>2026-04-26T13:27:50.999Z</time></trkpt><trkpt lat="45.750497116493925" lon="11.313316747359103"><ele>961.0</ele><time>2026-04-26T13:27:51.999Z</time></trkpt><trkpt lat="45.750492626357705" lon="11.313429904489858"><ele>962.4999999999999</ele><time>2026-04-26T13:27:52.999Z</time></trkpt><trkpt lat="45.75049824822267" lon="11.313539501266538"><ele>964.0</ele><time>2026-04-26T13:27:53.999Z</time></trkpt><trkpt lat="45.75051947961729" lon="11.313661780591383"><ele>964.0</ele><time>2026-04-26T13:27:54.999Z</time></trkpt><trkpt lat="45.750541106844494" lon="11.31380418355804"><ele>964.0000000000001</ele><time>2026-04-26T13:27:55.999Z</time></trkpt><trkpt lat="45.75055575843748" lon="11.31394782407888"><ele>964.0000000000001</ele><time>2026-04-26T13:27:56.999Z</time></trkpt><trkpt lat="45.75055177299414" lon="11.31408807222401"><ele>964.0</ele><time>2026-04-26T13:27:57.998Z</time></trkpt><trkpt lat="45.750539235817044" lon="11.31422758392591"><ele>964.0</ele><time>2026-04-26T13:27:58.998Z</time></trkpt><trkpt lat="45.75052017066403" lon="11.314364374093214"><ele>964.8000000000001</ele><time>2026-04-26T13:27:59.998Z</time></trkpt><trkpt lat="45.750495937332836" lon="11.314505666662011"><ele>965.6000000000001</ele><time>2026-04-26T13:28:00.998Z</time></trkpt><trkpt lat="45.75047866123009" lon="11.314644833940152"><ele>966.4</ele><time>2026-04-26T13:28:01.998Z</time></trkpt><trkpt lat="45.750455436835445" lon="11.314785784898811"><ele>967.2</ele><time>2026-04-26T13:28:02.998Z</time></trkpt><trkpt lat="45.75043392045404" lon="11.314927327782737"><ele>968.0</ele><time>2026-04-26T13:28:03.998Z</time></trkpt><trkpt lat="45.75039458147395" lon="11.315068004642459"><ele>968.2</ele><time>2026-04-26T13:28:04.998Z</time></trkpt><trkpt lat="45.750343017631785" lon="11.31520483250011"><ele>968.4</ele><time>2026-04-26T13:28:05.998Z</time></trkpt><trkpt lat="45.750276530989815" lon="11.315329672691284"><ele>968.6000000000001</ele><time>2026-04-26T13:28:06.998Z</time></trkpt><trkpt lat="45.75020429086294" lon="11.315446902565157"><ele>968.8000000000001</ele><time>2026-04-26T13:28:07.998Z</time></trkpt><trkpt lat="45.75014142799384" lon="11.315561857241935"><ele>969.0</ele><time>2026-04-26T13:28:08.998Z</time></trkpt><trkpt lat="45.75008785816701" lon="11.31568367440205"><ele>958.8000000000001</ele><time>2026-04-26T13:28:09.998Z</time></trkpt><trkpt lat="45.750034992879065" lon="11.315807007044866"><ele>948.6000000000001</ele><time>2026-04-26T13:28:10.998Z</time></trkpt><trkpt lat="45.74999562828039" lon="11.31593831828051"><ele>938.4</ele><time>2026-04-26T13:28:11.998Z</time></trkpt><trkpt lat="45.74995181834232" lon="11.316067405847706"><ele>928.2</ele><time>2026-04-26T13:28:12.998Z</time></trkpt><trkpt lat="45.749921568370596" lon="11.316206684556166"><ele>918.0</ele><time>2026-04-26T13:28:13.998Z</time></trkpt><trkpt lat="45.74991136878494" lon="11.316352976036681"><ele>917.5999999999999</ele><time>2026-04-26T13:28:14.998Z</time></trkpt><trkpt lat="45.7499086758735" lon="11.316493002045256"><ele>917.1999999999999</ele><time>2026-04-26T13:28:15.998Z</time></trkpt><trkpt lat="45.74990561496328" lon="11.316630405838747"><ele>916.8</ele><time>2026-04-26T13:28:16.998Z</time></trkpt><trkpt lat="45.749908064626666" lon="11.316769755610116"><ele>916.4</ele><time>2026-04-26T13:28:17.998Z</time></trkpt><trkpt lat="45.74990523420418" lon="11.316903237395918"><ele>916.0</ele><time>2026-04-26T13:28:18.998Z</time></trkpt><trkpt lat="45.74990215909186" lon="11.317034929441744"><ele>915.9999999999999</ele><time>2026-04-26T13:28:19.998Z</time></trkpt><trkpt lat="45.74989408207712" lon="11.317162262560812"><ele>916.0</ele><time>2026-04-26T13:28:20.998Z</time></trkpt><trkpt lat="45.74988734552143" lon="11.317278024872717"><ele>916.0</ele><time>2026-04-26T13:28:21.998Z</time></trkpt><trkpt lat="45.749873552632884" lon="11.3173773983034"><ele>916.0</ele><time>2026-04-26T13:28:22.998Z</time></trkpt><trkpt lat="45.74986221780009" lon="11.31747093346659"><ele>915.9999999999999</ele><time>2026-04-26T13:28:23.998Z</time></trkpt><trkpt lat="45.74982524661404" lon="11.317607078286985"><ele>916.0</ele><time>2026-04-26T13:28:25.998Z</time></trkpt><trkpt lat="45.749783822119774" lon="11.317698448044363"><ele>916.0</ele><time>2026-04-26T13:28:27.998Z</time></trkpt><trkpt lat="45.749732557967185" lon="11.317633802737788"><ele>915.9999999999999</ele><time>2026-04-26T13:29:34.997Z</time></trkpt><trkpt lat="45.74974845656321" lon="11.31749702938417"><ele>915.9999999999999</ele><time>2026-04-26T13:29:37.997Z</time></trkpt><trkpt lat="45.74974830181809" lon="11.31736707327523"><ele>916.0</ele><time>2026-04-26T13:29:39.997Z</time></trkpt><trkpt lat="45.74972487554588" lon="11.317231146376407"><ele>916.0</ele><time>2026-04-26T13:29:41.997Z</time></trkpt><trkpt lat="45.74967976660166" lon="11.317093126391464"><ele>916.0</ele><time>2026-04-26T13:29:43.997Z</time></trkpt><trkpt lat="45.749583019604685" lon="11.31697435947462"><ele>915.9999999999999</ele><time>2026-04-26T13:29:45.997Z</time></trkpt><trkpt lat="45.7495124462998" lon="11.316930270208644"><ele>915.9999999999999</ele><time>2026-04-26T13:29:46.997Z</time></trkpt><trkpt lat="45.74943951182884" lon="11.31689857553626"><ele>916.0</ele><time>2026-04-26T13:29:47.997Z</time></trkpt><trkpt lat="45.749373318460236" lon="11.316869695403478"><ele>916.0</ele><time>2026-04-26T13:29:48.997Z</time></trkpt><trkpt lat="45.74927388810814" lon="11.316789096844486"><ele>911.8</ele><time>2026-04-26T13:29:50.997Z</time></trkpt><trkpt lat="45.74923921528057" lon="11.316647128829155"><ele>907.5999999999999</ele><time>2026-04-26T13:29:52.997Z</time></trkpt><trkpt lat="45.74923997501218" lon="11.316534703692142"><ele>903.4</ele><time>2026-04-26T13:29:53.997Z</time></trkpt><trkpt lat="45.749246954429516" lon="11.316391313428719"><ele>899.2</ele><time>2026-04-26T13:29:54.997Z</time></trkpt><trkpt lat="45.74925277786666" lon="11.31622991330554"><ele>895.0</ele><time>2026-04-26T13:29:55.997Z</time></trkpt><trkpt lat="45.74924944799235" lon="11.316075927798451"><ele>893.8</ele><time>2026-04-26T13:29:56.997Z</time></trkpt><trkpt lat="45.74923432780056" lon="11.315927997799973"><ele>892.6</ele><time>2026-04-26T13:29:57.997Z</time></trkpt><trkpt lat="45.749188570340586" lon="11.315790401236955"><ele>891.4000000000001</ele><time>2026-04-26T13:29:58.997Z</time></trkpt><trkpt lat="45.74913257180778" lon="11.315664784907339"><ele>890.2</ele><time>2026-04-26T13:29:59.997Z</time></trkpt><trkpt lat="45.749059865218605" lon="11.315550154308253"><ele>889.0</ele><time>2026-04-26T13:30:00.997Z</time></trkpt><trkpt lat="45.7489883321943" lon="11.31542782694921"><ele>889.0</ele><time>2026-04-26T13:30:01.997Z</time></trkpt><trkpt lat="45.748918227038125" lon="11.315299489243163"><ele>889.0</ele><time>2026-04-26T13:30:02.997Z</time></trkpt><trkpt lat="45.74885121919039" lon="11.315159083568199"><ele>889.0</ele><time>2026-04-26T13:30:03.997Z</time></trkpt><trkpt lat="45.748788135692635" lon="11.31501179768369"><ele>889.0</ele><time>2026-04-26T13:30:04.997Z</time></trkpt><trkpt lat="45.748733499059185" lon="11.314864419708844"><ele>889.75</ele><time>2026-04-26T13:30:05.997Z</time></trkpt><trkpt lat="45.748685386985436" lon="11.314714498627753"><ele>890.5</ele><time>2026-04-26T13:30:06.997Z</time></trkpt><trkpt lat="45.74864145072303" lon="11.314561135833138"><ele>891.25</ele><time>2026-04-26T13:30:07.997Z</time></trkpt><trkpt lat="45.7485986367615" lon="11.314408351506065"><ele>892.0</ele><time>2026-04-26T13:30:08.997Z</time></trkpt><trkpt lat="45.74856004569633" lon="11.314254367509717"><ele>888.6</ele><time>2026-04-26T13:30:09.997Z</time></trkpt><trkpt lat="45.748512590465836" lon="11.314107229824423"><ele>885.2</ele><time>2026-04-26T13:30:10.997Z</time></trkpt><trkpt lat="45.748463873295925" lon="11.313963398290845"><ele>881.8</ele><time>2026-04-26T13:30:11.997Z</time></trkpt><trkpt lat="45.748409804139726" lon="11.313829724817694"><ele>878.4</ele><time>2026-04-26T13:30:12.997Z</time></trkpt><trkpt lat="45.74834992353386" lon="11.313703361482677"><ele>875.0</ele><time>2026-04-26T13:30:13.997Z</time></trkpt><trkpt lat="45.74828999226138" lon="11.31358222283154"><ele>875.0000000000001</ele><time>2026-04-26T13:30:14.997Z</time></trkpt><trkpt lat="45.74823765525694" lon="11.313466991988863"><ele>875.0</ele><time>2026-04-26T13:30:15.997Z</time></trkpt><trkpt lat="45.748201461398835" lon="11.313352377059783"><ele>875.0</ele><time>2026-04-26T13:30:16.997Z</time></trkpt><trkpt lat="45.748190466356235" lon="11.313234316258939"><ele>875.0</ele><time>2026-04-26T13:30:17.997Z</time></trkpt><trkpt lat="45.748195992772246" lon="11.31311854655724"><ele>875.0000000000001</ele><time>2026-04-26T13:30:18.997Z</time></trkpt><trkpt lat="45.74821650439778" lon="11.313001390811456"><ele>875.0</ele><time>2026-04-26T13:30:19.997Z</time></trkpt><trkpt lat="45.748242055852074" lon="11.31287185675746"><ele>873.25</ele><time>2026-04-26T13:30:20.997Z</time></trkpt><trkpt lat="45.748272042614865" lon="11.312726235105806"><ele>871.5</ele><time>2026-04-26T13:30:21.997Z</time></trkpt><trkpt lat="45.748306754978294" lon="11.312553983845707"><ele>869.75</ele><time>2026-04-26T13:30:22.997Z</time></trkpt><trkpt lat="45.74834400591255" lon="11.312380877929733"><ele>868.0</ele><time>2026-04-26T13:30:23.997Z</time></trkpt><trkpt lat="45.74837755204102" lon="11.312211942343696"><ele>869.0</ele><time>2026-04-26T13:30:24.997Z</time></trkpt><trkpt lat="45.74841397625955" lon="11.312060543545755"><ele>870.0</ele><time>2026-04-26T13:30:25.997Z</time></trkpt><trkpt lat="45.74845849758823" lon="11.311934594473538"><ele>871.0</ele><time>2026-04-26T13:30:26.997Z</time></trkpt><trkpt lat="45.74852049199209" lon="11.311828801090872"><ele>872.0</ele><time>2026-04-26T13:30:27.997Z</time></trkpt><trkpt lat="45.748591688748554" lon="11.311720501502489"><ele>873.0</ele><time>2026-04-26T13:30:28.997Z</time></trkpt><trkpt lat="45.74867372888774" lon="11.31163424209225"><ele>873.0</ele><time>2026-04-26T13:30:29.997Z</time></trkpt><trkpt lat="45.748751295927846" lon="11.311569659533948"><ele>873.0</ele><time>2026-04-26T13:30:30.997Z</time></trkpt><trkpt lat="45.74882017774919" lon="11.311509095450054"><ele>873.0</ele><time>2026-04-26T13:30:31.997Z</time></trkpt><trkpt lat="45.74886981081749" lon="11.311434025990382"><ele>873.0</ele><time>2026-04-26T13:30:32.997Z</time></trkpt><trkpt lat="45.74890132878954" lon="11.311334687724003"><ele>873.0</ele><time>2026-04-26T13:30:33.997Z</time></trkpt><trkpt lat="45.74889566859434" lon="11.311210795622399"><ele>873.0</ele><time>2026-04-26T13:30:34.997Z</time></trkpt><trkpt lat="45.74887121992522" lon="11.311080816612957"><ele>870.2</ele><time>2026-04-26T13:30:35.997Z</time></trkpt><trkpt lat="45.74883841085116" lon="11.310936485305877"><ele>867.4</ele><time>2026-04-26T13:30:36.997Z</time></trkpt><trkpt lat="45.74880477442046" lon="11.310792893843754"><ele>864.6000000000001</ele><time>2026-04-26T13:30:37.997Z</time></trkpt><trkpt lat="45.74877531868394" lon="11.310659789528478"><ele>861.8000000000001</ele><time>2026-04-26T13:30:38.997Z</time></trkpt><trkpt lat="45.7487762974448" lon="11.31052717051926"><ele>859.0</ele><time>2026-04-26T13:30:39.997Z</time></trkpt><trkpt lat="45.7487904110108" lon="11.310391159803833"><ele>858.6</ele><time>2026-04-26T13:30:40.997Z</time></trkpt><trkpt lat="45.74882503888915" lon="11.310263639063809"><ele>858.2</ele><time>2026-04-26T13:30:41.997Z</time></trkpt><trkpt lat="45.74885403638197" lon="11.310134606488166"><ele>857.8000000000001</ele><time>2026-04-26T13:30:42.997Z</time></trkpt><trkpt lat="45.748866558937394" lon="11.310016649681224"><ele>857.4000000000001</ele><time>2026-04-26T13:30:43.997Z</time></trkpt><trkpt lat="45.74884305286993" lon="11.309900554741722"><ele>857.0</ele><time>2026-04-26T13:30:44.997Z</time></trkpt><trkpt lat="45.748809654734984" lon="11.309771029880366"><ele>856.4000000000001</ele><time>2026-04-26T13:30:45.997Z</time></trkpt><trkpt lat="45.748806076746305" lon="11.30963179842123"><ele>855.8000000000001</ele><time>2026-04-26T13:30:46.997Z</time></trkpt><trkpt lat="45.74880313629295" lon="11.309476462237686"><ele>855.2</ele><time>2026-04-26T13:30:47.997Z</time></trkpt><trkpt lat="45.74882556974898" lon="11.309331069113648"><ele>854.6</ele><time>2026-04-26T13:30:48.997Z</time></trkpt><trkpt lat="45.74884656379015" lon="11.309190406546834"><ele>854.0</ele><time>2026-04-26T13:30:49.997Z</time></trkpt><trkpt lat="45.74885268724398" lon="11.309056647297588"><ele>854.0</ele><time>2026-04-26T13:30:50.997Z</time></trkpt><trkpt lat="45.74882543351406" lon="11.30890973452152"><ele>854.0</ele><time>2026-04-26T13:30:51.997Z</time></trkpt><trkpt lat="45.74875161868571" lon="11.30877086047417"><ele>854.0</ele><time>2026-04-26T13:30:52.997Z</time></trkpt><trkpt lat="45.74866149247459" lon="11.308626488102831"><ele>854.0</ele><time>2026-04-26T13:30:53.997Z</time></trkpt><trkpt lat="45.74855297160879" lon="11.308484357946297"><ele>846.3333333333334</ele><time>2026-04-26T13:30:54.997Z</time></trkpt><trkpt lat="45.74844754343504" lon="11.308322452899493"><ele>838.6666666666667</ele><time>2026-04-26T13:30:55.997Z</time></trkpt><trkpt lat="45.74834394329942" lon="11.308167101283468"><ele>831.0</ele><time>2026-04-26T13:30:56.997Z</time></trkpt><trkpt lat="45.74825166158496" lon="11.307999532543636"><ele>831.0</ele><time>2026-04-26T13:30:57.997Z</time></trkpt><trkpt lat="45.748163734375055" lon="11.307845091926142"><ele>831.0</ele><time>2026-04-26T13:30:58.997Z</time></trkpt><trkpt lat="45.74808950476249" lon="11.307686240974672"><ele>831.0</ele><time>2026-04-26T13:30:59.997Z</time></trkpt><trkpt lat="45.748032537593396" lon="11.307530086056405"><ele>831.0</ele><time>2026-04-26T13:31:00.997Z</time></trkpt><trkpt lat="45.74798266804066" lon="11.307389851773747"><ele>831.0</ele><time>2026-04-26T13:31:01.997Z</time></trkpt><trkpt lat="45.74795262874278" lon="11.307263907969068"><ele>831.0</ele><time>2026-04-26T13:31:02.997Z</time></trkpt><trkpt lat="45.74793242713405" lon="11.307146966192715"><ele>831.0</ele><time>2026-04-26T13:31:03.997Z</time></trkpt><trkpt lat="45.74789547313485" lon="11.307050149354273"><ele>831.0</ele><time>2026-04-26T13:31:04.997Z</time></trkpt><trkpt lat="45.74784933077425" lon="11.306982780468605"><ele>831.0</ele><time>2026-04-26T13:31:05.997Z</time></trkpt><trkpt lat="45.74776112716039" lon="11.306957668451409"><ele>831.0</ele><time>2026-04-26T13:31:07.996Z</time></trkpt><trkpt lat="45.74770551332306" lon="11.307201632308198"><ele>826.8333333333334</ele><time>2026-04-26T13:31:09.996Z</time></trkpt><trkpt lat="45.74768022566934" lon="11.307327136610404"><ele>822.6666666666667</ele><time>2026-04-26T13:31:10.996Z</time></trkpt><trkpt lat="45.74763789737317" lon="11.307424505457629"><ele>818.5</ele><time>2026-04-26T13:31:11.996Z</time></trkpt><trkpt lat="45.74760050679492" lon="11.307524392469004"><ele>814.3333333333334</ele><time>2026-04-26T13:31:12.996Z</time></trkpt><trkpt lat="45.74754031323866" lon="11.307610239288744"><ele>810.1666666666667</ele><time>2026-04-26T13:31:13.996Z</time></trkpt><trkpt lat="45.747495172737345" lon="11.307745637568711"><ele>806.0</ele><time>2026-04-26T13:31:14.996Z</time></trkpt><trkpt lat="45.74746444647496" lon="11.307906879331867"><ele>806.0</ele><time>2026-04-26T13:31:15.996Z</time></trkpt><trkpt lat="45.74743458585529" lon="11.308059540206662"><ele>806.0</ele><time>2026-04-26T13:31:16.996Z</time></trkpt><trkpt lat="45.74743389989038" lon="11.30821850401803"><ele>806.0</ele><time>2026-04-26T13:31:17.996Z</time></trkpt><trkpt lat="45.74741739062356" lon="11.308355883334453"><ele>806.0</ele><time>2026-04-26T13:31:18.996Z</time></trkpt><trkpt lat="45.74739817996766" lon="11.308470301326462"><ele>806.0</ele><time>2026-04-26T13:31:19.996Z</time></trkpt><trkpt lat="45.747316104837616" lon="11.308557699016973"><ele>806.0</ele><time>2026-04-26T13:31:21.996Z</time></trkpt><trkpt lat="45.74722526718534" lon="11.308504150956425"><ele>806.0</ele><time>2026-04-26T13:31:23.998Z</time></trkpt><trkpt lat="45.74717494223701" lon="11.308420897115214"><ele>806.0</ele><time>2026-04-26T13:31:24.999Z</time></trkpt><trkpt lat="45.7471482211221" lon="11.30830276397833"><ele>806.0</ele><time>2026-04-26T13:31:25.999Z</time></trkpt><trkpt lat="45.74709830840534" lon="11.3081738533914"><ele>806.0</ele><time>2026-04-26T13:31:26.999Z</time></trkpt><trkpt lat="45.74704825150063" lon="11.308055477361025"><ele>806.0</ele><time>2026-04-26T13:31:27.999Z</time></trkpt><trkpt lat="45.747015673993396" lon="11.307919802145173"><ele>806.0</ele><time>2026-04-26T13:31:28.999Z</time></trkpt><trkpt lat="45.74696479468287" lon="11.307778578031801"><ele>806.0</ele><time>2026-04-26T13:31:30Z</time></trkpt><trkpt lat="45.746893756531186" lon="11.307632899281757"><ele>806.0</ele><time>2026-04-26T13:31:31Z</time></trkpt><trkpt lat="45.7468262398508" lon="11.307496171408697"><ele>802.4</ele><time>2026-04-26T13:31:32Z</time></trkpt><trkpt lat="45.74676143589204" lon="11.307400620098768"><ele>798.8</ele><time>2026-04-26T13:31:33Z</time></trkpt><trkpt lat="45.74668465150893" lon="11.307300937552712"><ele>795.1999999999999</ele><time>2026-04-26T13:31:34Z</time></trkpt><trkpt lat="45.74660364431459" lon="11.307245526972235"><ele>791.5999999999999</ele><time>2026-04-26T13:31:35Z</time></trkpt><trkpt lat="45.746516209983504" lon="11.307195435258453"><ele>788.0</ele><time>2026-04-26T13:31:36Z</time></trkpt><trkpt lat="45.74643597928938" lon="11.307154003187641"><ele>788.0</ele><time>2026-04-26T13:31:37Z</time></trkpt><trkpt lat="45.746376224419585" lon="11.307098000321696"><ele>788.0</ele><time>2026-04-26T13:31:38Z</time></trkpt><trkpt lat="45.746330621452536" lon="11.306991119614722"><ele>788.0</ele><time>2026-04-26T13:31:39Z</time></trkpt><trkpt lat="45.746283784594375" lon="11.306871075320823"><ele>788.0</ele><time>2026-04-26T13:31:40Z</time></trkpt><trkpt lat="45.746230892342886" lon="11.306733388313196"><ele>788.0</ele><time>2026-04-26T13:31:41Z</time></trkpt><trkpt lat="45.74617165046716" lon="11.30657717610423"><ele>788.0</ele><time>2026-04-26T13:31:42Z</time></trkpt><trkpt lat="45.746108210669334" lon="11.30641627981595"><ele>788.0</ele><time>2026-04-26T13:31:43Z</time></trkpt><trkpt lat="45.746040352945656" lon="11.30624255453704"><ele>788.0</ele><time>2026-04-26T13:31:44Z</time></trkpt><trkpt lat="45.745975245571856" lon="11.306078184389252"><ele>788.0</ele><time>2026-04-26T13:31:45Z</time></trkpt><trkpt lat="45.74591521550641" lon="11.305914067496648"><ele>783.75</ele><time>2026-04-26T13:31:46Z</time></trkpt><trkpt lat="45.745853110895084" lon="11.305745615514052"><ele>779.5</ele><time>2026-04-26T13:31:47Z</time></trkpt><trkpt lat="45.74579198560675" lon="11.305592074867258"><ele>775.25</ele><time>2026-04-26T13:31:48Z</time></trkpt><trkpt lat="45.745734233632064" lon="11.30543773652468"><ele>771.0</ele><time>2026-04-26T13:31:49Z</time></trkpt><trkpt lat="45.74568784791433" lon="11.305304871140278"><ele>770.1999999999999</ele><time>2026-04-26T13:31:50Z</time></trkpt><trkpt lat="45.74564624842983" lon="11.305196509356328"><ele>769.4</ele><time>2026-04-26T13:31:51Z</time></trkpt><trkpt lat="45.7455905956859" lon="11.305109033210899"><ele>768.6</ele><time>2026-04-26T13:31:52Z</time></trkpt><trkpt lat="45.7455122747602" lon="11.305070985240139"><ele>767.8</ele><time>2026-04-26T13:31:53Z</time></trkpt><trkpt lat="45.74540732718054" lon="11.305105401401121"><ele>767.0</ele><time>2026-04-26T13:31:54Z</time></trkpt><trkpt lat="45.74531588083092" lon="11.305220970574261"><ele>767.0</ele><time>2026-04-26T13:31:55Z</time></trkpt><trkpt lat="45.74522438168769" lon="11.30537243045467"><ele>767.0</ele><time>2026-04-26T13:31:56Z</time></trkpt><trkpt lat="45.745133678681015" lon="11.305519451659762"><ele>767.0</ele><time>2026-04-26T13:31:57Z</time></trkpt><trkpt lat="45.74506141760431" lon="11.305640020904999"><ele>767.0</ele><time>2026-04-26T13:31:58Z</time></trkpt><trkpt lat="45.74502410016159" lon="11.30577748168124"><ele>764.0</ele><time>2026-04-26T13:31:59Z</time></trkpt><trkpt lat="45.745022781856655" lon="11.305925384454032"><ele>761.0</ele><time>2026-04-26T13:32:00Z</time></trkpt><trkpt lat="45.7450274197579" lon="11.306074995324567"><ele>758.0</ele><time>2026-04-26T13:32:01Z</time></trkpt><trkpt lat="45.745059409158976" lon="11.306231657314116"><ele>755.0</ele><time>2026-04-26T13:32:02Z</time></trkpt><trkpt lat="45.74506547734707" lon="11.30639511230922"><ele>752.0</ele><time>2026-04-26T13:32:03Z</time></trkpt><trkpt lat="45.74504222137223" lon="11.306543861026396"><ele>750.75</ele><time>2026-04-26T13:32:04Z</time></trkpt><trkpt lat="45.74500821392479" lon="11.306699949516293"><ele>749.5</ele><time>2026-04-26T13:32:05Z</time></trkpt><trkpt lat="45.74499742657476" lon="11.30687387831983"><ele>748.25</ele><time>2026-04-26T13:32:06Z</time></trkpt><trkpt lat="45.7450248213557" lon="11.307044168531222"><ele>747.0</ele><time>2026-04-26T13:32:07Z</time></trkpt><trkpt lat="45.74508364697253" lon="11.30720527768016"><ele>744.75</ele><time>2026-04-26T13:32:08Z</time></trkpt><trkpt lat="45.74514673271193" lon="11.307362325308533"><ele>742.5</ele><time>2026-04-26T13:32:09Z</time></trkpt><trkpt lat="45.74521674680396" lon="11.307509889916792"><ele>740.25</ele><time>2026-04-26T13:32:10Z</time></trkpt><trkpt lat="45.74528048822586" lon="11.307652626052986"><ele>738.0</ele><time>2026-04-26T13:32:11Z</time></trkpt><trkpt lat="45.745341326128994" lon="11.307784916411299"><ele>741.6666666666666</ele><time>2026-04-26T13:32:12Z</time></trkpt><trkpt lat="45.7454066073743" lon="11.307905664753592"><ele>745.3333333333334</ele><time>2026-04-26T13:32:13Z</time></trkpt><trkpt lat="45.745458742697814" lon="11.308014555091564"><ele>749.0</ele><time>2026-04-26T13:32:14Z</time></trkpt><trkpt lat="45.74547242918325" lon="11.308112620888016"><ele>752.6666666666667</ele><time>2026-04-26T13:32:15Z</time></trkpt><trkpt lat="45.74545294183045" lon="11.30821072855649"><ele>756.3333333333334</ele><time>2026-04-26T13:32:16Z</time></trkpt><trkpt lat="45.745400661392985" lon="11.308282700262936"><ele>760.0</ele><time>2026-04-26T13:32:17Z</time></trkpt><trkpt lat="45.745301223888056" lon="11.308312207516945"><ele>760.0</ele><time>2026-04-26T13:32:19Z</time></trkpt><trkpt lat="45.745226497563515" lon="11.30826050420976"><ele>760.0</ele><time>2026-04-26T13:32:20Z</time></trkpt><trkpt lat="45.74513292638624" lon="11.308169367858346"><ele>760.0</ele><time>2026-04-26T13:32:21Z</time></trkpt><trkpt lat="45.7450327296575" lon="11.308051509652723"><ele>760.0</ele><time>2026-04-26T13:32:22Z</time></trkpt><trkpt lat="45.74493476330506" lon="11.307928386434597"><ele>754.5</ele><time>2026-04-26T13:32:23Z</time></trkpt><trkpt lat="45.74483809629871" lon="11.307804361741017"><ele>749.0</ele><time>2026-04-26T13:32:24Z</time></trkpt><trkpt lat="45.744749202079035" lon="11.30768348247532"><ele>743.5</ele><time>2026-04-26T13:32:25Z</time></trkpt><trkpt lat="45.74466253591687" lon="11.307566083919593"><ele>738.0</ele><time>2026-04-26T13:32:26Z</time></trkpt><trkpt lat="45.7445969148205" lon="11.307434887051267"><ele>738.0</ele><time>2026-04-26T13:32:27Z</time></trkpt><trkpt lat="45.74455496027841" lon="11.30729363670602"><ele>738.0</ele><time>2026-04-26T13:32:28Z</time></trkpt><trkpt lat="45.744536112464814" lon="11.307138332911842"><ele>738.0</ele><time>2026-04-26T13:32:29Z</time></trkpt><trkpt lat="45.74451725371131" lon="11.306984780563416"><ele>738.0</ele><time>2026-04-26T13:32:30Z</time></trkpt><trkpt lat="45.74448985495516" lon="11.30684016645687"><ele>738.0</ele><time>2026-04-26T13:32:31Z</time></trkpt><trkpt lat="45.74446549961647" lon="11.306695977361063"><ele>739.8</ele><time>2026-04-26T13:32:32Z</time></trkpt><trkpt lat="45.744420952970586" lon="11.306559757463885"><ele>741.5999999999999</ele><time>2026-04-26T13:32:33Z</time></trkpt><trkpt lat="45.744368710120796" lon="11.306427738637549"><ele>743.4000000000001</ele><time>2026-04-26T13:32:34Z</time></trkpt><trkpt lat="45.74431348886756" lon="11.30630477806556"><ele>745.2</ele><time>2026-04-26T13:32:35Z</time></trkpt><trkpt lat="45.74425241202854" lon="11.306190340602875"><ele>747.0</ele><time>2026-04-26T13:32:36Z</time></trkpt><trkpt lat="45.744191165792806" lon="11.306085075631332"><ele>742.8333333333334</ele><time>2026-04-26T13:32:37Z</time></trkpt><trkpt lat="45.7441436026848" lon="11.30598233400618"><ele>738.6666666666666</ele><time>2026-04-26T13:32:38Z</time></trkpt><trkpt lat="45.74410820791887" lon="11.305889093998418"><ele>734.5</ele><time>2026-04-26T13:32:39Z</time></trkpt><trkpt lat="45.74409699056386" lon="11.305793017193869"><ele>730.3333333333333</ele><time>2026-04-26T13:32:40Z</time></trkpt><trkpt lat="45.7440971805665" lon="11.305685934929265"><ele>726.1666666666666</ele><time>2026-04-26T13:32:41Z</time></trkpt><trkpt lat="45.74411349137556" lon="11.305568751586689"><ele>722.0</ele><time>2026-04-26T13:32:42Z</time></trkpt><trkpt lat="45.74411753251683" lon="11.305430488365408"><ele>722.0</ele><time>2026-04-26T13:32:43Z</time></trkpt><trkpt lat="45.74413806482036" lon="11.305285580281096"><ele>722.0</ele><time>2026-04-26T13:32:44Z</time></trkpt><trkpt lat="45.74415917579374" lon="11.305128210480262"><ele>722.0</ele><time>2026-04-26T13:32:45Z</time></trkpt><trkpt lat="45.74417456945831" lon="11.304956762223764"><ele>722.0</ele><time>2026-04-26T13:32:46Z</time></trkpt><trkpt lat="45.74418543120904" lon="11.304771209272776"><ele>721.25</ele><time>2026-04-26T13:32:47Z</time></trkpt><trkpt lat="45.744205533703685" lon="11.304578110373914"><ele>720.5</ele><time>2026-04-26T13:32:48Z</time></trkpt><trkpt lat="45.74421779304491" lon="11.304389361952449"><ele>719.75</ele><time>2026-04-26T13:32:49Z</time></trkpt><trkpt lat="45.744236966407776" lon="11.304227170619239"><ele>719.0</ele><time>2026-04-26T13:32:50Z</time></trkpt><trkpt lat="45.744244556846574" lon="11.304083108950795"><ele>719.0</ele><time>2026-04-26T13:32:51Z</time></trkpt><trkpt lat="45.744251527271324" lon="11.303956755018701"><ele>719.0</ele><time>2026-04-26T13:32:52Z</time></trkpt><trkpt lat="45.74426460553585" lon="11.303842493587032"><ele>719.0</ele><time>2026-04-26T13:32:53Z</time></trkpt><trkpt lat="45.74427281093415" lon="11.303729306575653"><ele>719.0</ele><time>2026-04-26T13:32:54Z</time></trkpt><trkpt lat="45.74428576861097" lon="11.303619744025573"><ele>719.0</ele><time>2026-04-26T13:32:55Z</time></trkpt><trkpt lat="45.744303507596264" lon="11.303517256167249"><ele>719.0</ele><time>2026-04-26T13:32:56Z</time></trkpt><trkpt lat="45.74431100321377" lon="11.303416126818332"><ele>718.8333333333333</ele><time>2026-04-26T13:32:57Z</time></trkpt><trkpt lat="45.74431705827699" lon="11.303305045942878"><ele>718.6666666666666</ele><time>2026-04-26T13:32:58Z</time></trkpt><trkpt lat="45.744337560241746" lon="11.303208566541104"><ele>718.5</ele><time>2026-04-26T13:32:59Z</time></trkpt><trkpt lat="45.74434339035666" lon="11.30310389966638"><ele>718.3333333333334</ele><time>2026-04-26T13:33:00Z</time></trkpt><trkpt lat="45.74431592284377" lon="11.302998328344293"><ele>718.1666666666667</ele><time>2026-04-26T13:33:01Z</time></trkpt><trkpt lat="45.74428558471061" lon="11.30289355868836"><ele>718.0</ele><time>2026-04-26T13:33:02Z</time></trkpt><trkpt lat="45.7442674880604" lon="11.302787615592955"><ele>718.0</ele><time>2026-04-26T13:33:03Z</time></trkpt><trkpt lat="45.74426418593681" lon="11.302673377674045"><ele>718.0</ele><time>2026-04-26T13:33:04Z</time></trkpt><trkpt lat="45.74426270633437" lon="11.30254812632371"><ele>718.0</ele><time>2026-04-26T13:33:05Z</time></trkpt><trkpt lat="45.74426431626378" lon="11.302412116023675"><ele>718.0</ele><time>2026-04-26T13:33:06Z</time></trkpt><trkpt lat="45.744282198025985" lon="11.302265449473204"><ele>718.0</ele><time>2026-04-26T13:33:07Z</time></trkpt><trkpt lat="45.744302686041216" lon="11.30209997052539"><ele>717.25</ele><time>2026-04-26T13:33:08Z</time></trkpt><trkpt lat="45.74434114265422" lon="11.30193322845921"><ele>716.5</ele><time>2026-04-26T13:33:09Z</time></trkpt><trkpt lat="45.74437683268913" lon="11.301768570266137"><ele>715.75</ele><time>2026-04-26T13:33:10Z</time></trkpt><trkpt lat="45.7444098185273" lon="11.301612837226381"><ele>715.0</ele><time>2026-04-26T13:33:11Z</time></trkpt><trkpt lat="45.74444517940713" lon="11.301464201698304"><ele>720.0</ele><time>2026-04-26T13:33:12Z</time></trkpt><trkpt lat="45.74447672358619" lon="11.301320867537932"><ele>725.0</ele><time>2026-04-26T13:33:13Z</time></trkpt><trkpt lat="45.74450583893124" lon="11.301185151621072"><ele>730.0</ele><time>2026-04-26T13:33:13.999Z</time></trkpt><trkpt lat="45.74453777271821" lon="11.301062117449536"><ele>735.0</ele><time>2026-04-26T13:33:14.999Z</time></trkpt><trkpt lat="45.74455830438029" lon="11.300942580287403"><ele>740.0</ele><time>2026-04-26T13:33:15.999Z</time></trkpt><trkpt lat="45.74457920560421" lon="11.30082921594077"><ele>740.0</ele><time>2026-04-26T13:33:16.999Z</time></trkpt><trkpt lat="45.74460347315918" lon="11.300709446875269"><ele>740.0</ele><time>2026-04-26T13:33:17.999Z</time></trkpt><trkpt lat="45.7446307747275" lon="11.300577023084164"><ele>740.0</ele><time>2026-04-26T13:33:18.999Z</time></trkpt><trkpt lat="45.7446808281002" lon="11.300447603657728"><ele>740.0</ele><time>2026-04-26T13:33:19.999Z</time></trkpt><trkpt lat="45.74473837127658" lon="11.30031561155488"><ele>740.0</ele><time>2026-04-26T13:33:20.999Z</time></trkpt><trkpt lat="45.74480219873326" lon="11.300177301884256"><ele>736.5</ele><time>2026-04-26T13:33:21.999Z</time></trkpt><trkpt lat="45.74487415327684" lon="11.300027013510709"><ele>733.0</ele><time>2026-04-26T13:33:22.999Z</time></trkpt><trkpt lat="45.744942729111735" lon="11.29986856265822"><ele>729.5</ele><time>2026-04-26T13:33:23.999Z</time></trkpt><trkpt lat="45.74501313702122" lon="11.299709755160318"><ele>726.0</ele><time>2026-04-26T13:33:24.999Z</time></trkpt><trkpt lat="45.74508688094251" lon="11.29955177991039"><ele>725.75</ele><time>2026-04-26T13:33:25.999Z</time></trkpt><trkpt lat="45.74516728168876" lon="11.299390866116072"><ele>725.5</ele><time>2026-04-26T13:33:26.999Z</time></trkpt><trkpt lat="45.74524990394958" lon="11.29922720168466"><ele>725.25</ele><time>2026-04-26T13:33:27.999Z</time></trkpt><trkpt lat="45.745323789016695" lon="11.299054520910836"><ele>725.0</ele><time>2026-04-26T13:33:28.999Z</time></trkpt><trkpt lat="45.74539860190611" lon="11.298893003753031"><ele>725.0</ele><time>2026-04-26T13:33:29.999Z</time></trkpt><trkpt lat="45.74546325053534" lon="11.298731247240127"><ele>725.0</ele><time>2026-04-26T13:33:30.999Z</time></trkpt><trkpt lat="45.745516863387174" lon="11.298575859521556"><ele>725.0</ele><time>2026-04-26T13:33:31.999Z</time></trkpt><trkpt lat="45.74556872950327" lon="11.298432978137342"><ele>725.0</ele><time>2026-04-26T13:33:32.999Z</time></trkpt><trkpt lat="45.7456287323376" lon="11.298307965878461"><ele>725.0</ele><time>2026-04-26T13:33:33.999Z</time></trkpt><trkpt lat="45.74569006026304" lon="11.298207810898827"><ele>725.0</ele><time>2026-04-26T13:33:34.999Z</time></trkpt><trkpt lat="45.745745525531696" lon="11.29812402413377"><ele>725.0</ele><time>2026-04-26T13:33:35.999Z</time></trkpt><trkpt lat="45.74579616030771" lon="11.29805882790375"><ele>725.0</ele><time>2026-04-26T13:33:36.999Z</time></trkpt><trkpt lat="45.745880667952605" lon="11.29796752857298"><ele>725.0</ele><time>2026-04-26T13:33:38.999Z</time></trkpt><trkpt lat="45.745943155828094" lon="11.297891381318765"><ele>725.0</ele><time>2026-04-26T13:33:40.999Z</time></trkpt><trkpt lat="45.745985345843636" lon="11.297781037550648"><ele>725.1428571428571</ele><time>2026-04-26T13:33:43.999Z</time></trkpt><trkpt lat="45.74597258546744" lon="11.297690117575728"><ele>725.2857142857143</ele><time>2026-04-26T13:33:45.999Z</time></trkpt><trkpt lat="45.7459214168355" lon="11.297573082482552"><ele>725.4285714285713</ele><time>2026-04-26T13:33:47.999Z</time></trkpt><trkpt lat="45.745888418256555" lon="11.297490161116778"><ele>725.5714285714286</ele><time>2026-04-26T13:33:48.999Z</time></trkpt><trkpt lat="45.745845698666535" lon="11.297416005104612"><ele>725.7142857142857</ele><time>2026-04-26T13:33:49.999Z</time></trkpt><trkpt lat="45.7457908372009" lon="11.297363894622926"><ele>725.8571428571428</ele><time>2026-04-26T13:33:50.999Z</time></trkpt><trkpt lat="45.74573113831368" lon="11.297319194884901"><ele>726.0</ele><time>2026-04-26T13:33:51.999Z</time></trkpt><trkpt lat="45.745666395151275" lon="11.29729633000251"><ele>726.0</ele><time>2026-04-26T13:33:52.999Z</time></trkpt><trkpt lat="45.74560152788996" lon="11.29728824116892"><ele>726.0</ele><time>2026-04-26T13:33:53.999Z</time></trkpt><trkpt lat="45.74548424317901" lon="11.297314139666112"><ele>726.0</ele><time>2026-04-26T13:33:55.999Z</time></trkpt><trkpt lat="45.74542317148976" lon="11.297343155392817"><ele>726.0</ele><time>2026-04-26T13:33:56.999Z</time></trkpt><trkpt lat="45.745362008734446" lon="11.297375705587976"><ele>726.0</ele><time>2026-04-26T13:33:57.999Z</time></trkpt><trkpt lat="45.74529776868581" lon="11.297414297988475"><ele>726.0</ele><time>2026-04-26T13:33:58.999Z</time></trkpt><trkpt lat="45.7452222562469" lon="11.297456452168236"><ele>728.6666666666666</ele><time>2026-04-26T13:33:59.999Z</time></trkpt><trkpt lat="45.745135945514455" lon="11.297502979595283"><ele>731.3333333333334</ele><time>2026-04-26T13:34:00.999Z</time></trkpt><trkpt lat="45.745048777579086" lon="11.297543297052911"><ele>734.0</ele><time>2026-04-26T13:34:01.999Z</time></trkpt><trkpt lat="45.74496832293965" lon="11.297583009219586"><ele>736.6666666666667</ele><time>2026-04-26T13:34:02.999Z</time></trkpt><trkpt lat="45.74489004595831" lon="11.297622471673547"><ele>739.3333333333334</ele><time>2026-04-26T13:34:03.999Z</time></trkpt><trkpt lat="45.74482066765194" lon="11.2976580392835"><ele>742.0</ele><time>2026-04-26T13:34:04.999Z</time></trkpt><trkpt lat="45.744719804236965" lon="11.297725066845949"><ele>742.0</ele><time>2026-04-26T13:34:06.999Z</time></trkpt><trkpt lat="45.74464052620833" lon="11.297772599724713"><ele>742.0</ele><time>2026-04-26T13:34:08.999Z</time></trkpt><trkpt lat="45.74455143349012" lon="11.297823812311178"><ele>742.0</ele><time>2026-04-26T13:34:10.999Z</time></trkpt><trkpt lat="45.74443914715245" lon="11.297868097037576"><ele>742.0</ele><time>2026-04-26T13:34:12.999Z</time></trkpt><trkpt lat="45.74437575474043" lon="11.2978840352358"><ele>742.0</ele><time>2026-04-26T13:34:13.999Z</time></trkpt><trkpt lat="45.74427340306131" lon="11.297899834435693"><ele>746.3333333333334</ele><time>2026-04-26T13:34:15.999Z</time></trkpt><trkpt lat="45.74417104847106" lon="11.297920422654276"><ele>750.6666666666667</ele><time>2026-04-26T13:34:17.999Z</time></trkpt><trkpt lat="45.74406767148696" lon="11.297955803835848"><ele>755.0</ele><time>2026-04-26T13:34:19.999Z</time></trkpt><trkpt lat="45.74398114152163" lon="11.297995442950514"><ele>759.3333333333334</ele><time>2026-04-26T13:34:22.999Z</time></trkpt><trkpt lat="45.74390937701725" lon="11.297968737770718"><ele>763.6666666666666</ele><time>2026-04-26T13:34:27.998Z</time></trkpt><trkpt lat="45.74393712721984" lon="11.297871613468772"><ele>768.0</ele><time>2026-04-26T13:34:30.998Z</time></trkpt><trkpt lat="45.744002322585224" lon="11.297809104255045"><ele>768.0</ele><time>2026-04-26T13:34:32.998Z</time></trkpt><trkpt lat="45.744051853532945" lon="11.297704301221877"><ele>768.0</ele><time>2026-04-26T13:34:35.998Z</time></trkpt><trkpt lat="45.74411131348178" lon="11.297599846974345"><ele>768.0</ele><time>2026-04-26T13:34:37.998Z</time></trkpt><trkpt lat="45.744187575816085" lon="11.297542717775256"><ele>768.0</ele><time>2026-04-26T13:34:39.998Z</time></trkpt><trkpt lat="45.744254125379825" lon="11.297474601707492"><ele>768.0</ele><time>2026-04-26T13:34:41.998Z</time></trkpt><trkpt lat="45.744313451854616" lon="11.297409047164026"><ele>768.0</ele><time>2026-04-26T13:34:43.998Z</time></trkpt><trkpt lat="45.74437454143406" lon="11.297356161373889"><ele>766.8333333333334</ele><time>2026-04-26T13:34:45.998Z</time></trkpt><trkpt lat="45.74442309084705" lon="11.297292599665917"><ele>765.6666666666666</ele><time>2026-04-26T13:34:46.998Z</time></trkpt><trkpt lat="45.74446573760324" lon="11.297221836891518"><ele>764.5</ele><time>2026-04-26T13:34:47.998Z</time></trkpt><trkpt lat="45.74451481061668" lon="11.297147965156308"><ele>763.3333333333333</ele><time>2026-04-26T13:34:48.998Z</time></trkpt><trkpt lat="45.74456328885138" lon="11.297070968170601"><ele>762.1666666666666</ele><time>2026-04-26T13:34:49.998Z</time></trkpt><trkpt lat="45.74462937734988" lon="11.296951649079636"><ele>761.0</ele><time>2026-04-26T13:34:51.998Z</time></trkpt><trkpt lat="45.74466784884393" lon="11.29685590527991"><ele>761.0</ele><time>2026-04-26T13:34:53.998Z</time></trkpt><trkpt lat="45.74470891641007" lon="11.29676075244361"><ele>761.0</ele><time>2026-04-26T13:34:55.998Z</time></trkpt><trkpt lat="45.744762903641664" lon="11.296654819706122"><ele>761.0</ele><time>2026-04-26T13:34:57.998Z</time></trkpt><trkpt lat="45.744816544970725" lon="11.296526500220812"><ele>761.0</ele><time>2026-04-26T13:34:59.998Z</time></trkpt><trkpt lat="45.74480483790503" lon="11.296435171649978"><ele>761.0</ele><time>2026-04-26T13:35:01.998Z</time></trkpt><trkpt lat="45.744725796648744" lon="11.296478847973582"><ele>761.0</ele><time>2026-04-26T13:35:05.998Z</time></trkpt><trkpt lat="45.744687672618575" lon="11.296563098741759"><ele>761.0</ele><time>2026-04-26T13:35:07.998Z</time></trkpt><trkpt lat="45.74462160182552" lon="11.296620829615327"><ele>761.0</ele><time>2026-04-26T13:35:09.998Z</time></trkpt><trkpt lat="45.74452010507562" lon="11.296709741899319"><ele>761.0</ele><time>2026-04-26T13:35:11.998Z</time></trkpt><trkpt lat="45.744462362695764" lon="11.296753617584594"><ele>761.0</ele><time>2026-04-26T13:35:12.998Z</time></trkpt><trkpt lat="45.744355908294175" lon="11.29683736814726"><ele>761.0</ele><time>2026-04-26T13:35:14.998Z</time></trkpt><trkpt lat="45.74423113207251" lon="11.296919237683111"><ele>766.5</ele><time>2026-04-26T13:35:16.998Z</time></trkpt><trkpt lat="45.7441657806439" lon="11.296941711917313"><ele>772.0</ele><time>2026-04-26T13:35:17.998Z</time></trkpt><trkpt lat="45.74403417151455" lon="11.296965723840444"><ele>777.5</ele><time>2026-04-26T13:35:19.998Z</time></trkpt><trkpt lat="45.743944647576114" lon="11.296964337796922"><ele>783.0</ele><time>2026-04-26T13:35:20.998Z</time></trkpt><trkpt lat="45.743873678519684" lon="11.296976900967437"><ele>788.5000000000001</ele><time>2026-04-26T13:35:21.998Z</time></trkpt><trkpt lat="45.74380556435395" lon="11.29700054856004"><ele>794.0</ele><time>2026-04-26T13:35:22.998Z</time></trkpt><trkpt lat="45.74371385208594" lon="11.297064760049455"><ele>794.0000000000001</ele><time>2026-04-26T13:35:24.998Z</time></trkpt><trkpt lat="45.74364213560956" lon="11.297129060761716"><ele>794.0</ele><time>2026-04-26T13:35:26.998Z</time></trkpt><trkpt lat="45.74356252930908" lon="11.297133738850963"><ele>794.0</ele><time>2026-04-26T13:35:29.998Z</time></trkpt><trkpt lat="45.7435781888483" lon="11.29704543760325"><ele>794.0</ele><time>2026-04-26T13:35:33.998Z</time></trkpt><trkpt lat="45.74366638098498" lon="11.296964486185692"><ele>794.0000000000001</ele><time>2026-04-26T13:35:35.998Z</time></trkpt><trkpt lat="45.743717440252375" lon="11.296883430983309"><ele>794.0</ele><time>2026-04-26T13:35:36.998Z</time></trkpt><trkpt lat="45.74376433761099" lon="11.296803948557562"><ele>794.0</ele><time>2026-04-26T13:35:37.998Z</time></trkpt><trkpt lat="45.74383969522397" lon="11.29670205431135"><ele>794.0</ele><time>2026-04-26T13:35:39.997Z</time></trkpt><trkpt lat="45.74389852109593" lon="11.29661818748857"><ele>794.0</ele><time>2026-04-26T13:35:41.997Z</time></trkpt><trkpt lat="45.743970357057044" lon="11.296510148923963"><ele>794.0</ele><time>2026-04-26T13:35:43.997Z</time></trkpt><trkpt lat="45.744048866236966" lon="11.296355414809867"><ele>794.0</ele><time>2026-04-26T13:35:45.997Z</time></trkpt><trkpt lat="45.74408876209363" lon="11.29626155827016"><ele>795.6666666666667</ele><time>2026-04-26T13:35:46.997Z</time></trkpt><trkpt lat="45.74412534240868" lon="11.296111559645308"><ele>797.3333333333334</ele><time>2026-04-26T13:35:48.997Z</time></trkpt><trkpt lat="45.74410785562596" lon="11.29601410905939"><ele>799.0</ele><time>2026-04-26T13:35:51.997Z</time></trkpt><trkpt lat="45.744067645257786" lon="11.296127660861618"><ele>800.6666666666667</ele><time>2026-04-26T13:35:54.997Z</time></trkpt><trkpt lat="45.74404309882892" lon="11.296212156158704"><ele>802.3333333333334</ele><time>2026-04-26T13:35:56.997Z</time></trkpt><trkpt lat="45.74398678525196" lon="11.296296483524998"><ele>804.0</ele><time>2026-04-26T13:35:58.997Z</time></trkpt><trkpt lat="45.743920686792165" lon="11.29638587042643"><ele>802.0</ele><time>2026-04-26T13:36:00.997Z</time></trkpt><trkpt lat="45.743820609910976" lon="11.296435738719698"><ele>800.0</ele><time>2026-04-26T13:36:02.997Z</time></trkpt><trkpt lat="45.74375446795061" lon="11.296455730244254"><ele>798.0</ele><time>2026-04-26T13:36:03.997Z</time></trkpt><trkpt lat="45.74363189842152" lon="11.296502617698563"><ele>796.0</ele><time>2026-04-26T13:36:05.997Z</time></trkpt><trkpt lat="45.743553537345804" lon="11.296520001486828"><ele>794.0</ele><time>2026-04-26T13:36:06.997Z</time></trkpt><trkpt lat="45.7434640295759" lon="11.296535611980662"><ele>799.0000000000001</ele><time>2026-04-26T13:36:07.997Z</time></trkpt><trkpt lat="45.74335800829466" lon="11.296548180973573"><ele>804.0</ele><time>2026-04-26T13:36:08.997Z</time></trkpt><trkpt lat="45.74326814984361" lon="11.296563612089804"><ele>809.0</ele><time>2026-04-26T13:36:09.997Z</time></trkpt><trkpt lat="45.7431881266116" lon="11.296587538905088"><ele>814.0</ele><time>2026-04-26T13:36:10.997Z</time></trkpt><trkpt lat="45.74311406221817" lon="11.296608025331455"><ele>819.0000000000001</ele><time>2026-04-26T13:36:11.997Z</time></trkpt><trkpt lat="45.743034397800436" lon="11.2966289932995"><ele>824.0</ele><time>2026-04-26T13:36:12.997Z</time></trkpt><trkpt lat="45.74292687540465" lon="11.296673410177167"><ele>824.0000000000001</ele><time>2026-04-26T13:36:13.997Z</time></trkpt><trkpt lat="45.74282595368876" lon="11.296718089690858"><ele>824.0</ele><time>2026-04-26T13:36:14.997Z</time></trkpt><trkpt lat="45.742743266241696" lon="11.296755131970935"><ele>824.0</ele><time>2026-04-26T13:36:15.997Z</time></trkpt><trkpt lat="45.74266351262981" lon="11.29681630000534"><ele>824.0</ele><time>2026-04-26T13:36:17.997Z</time></trkpt><trkpt lat="45.74256936368682" lon="11.296875195289806"><ele>824.0000000000001</ele><time>2026-04-26T13:36:19.997Z</time></trkpt><trkpt lat="45.74251694567654" lon="11.296926766501988"><ele>824.0</ele><time>2026-04-26T13:36:21.997Z</time></trkpt><trkpt lat="45.74254525781259" lon="11.296833924659314"><ele>824.0</ele><time>2026-04-26T13:36:27.997Z</time></trkpt><trkpt lat="45.74262131508874" lon="11.29675081993312"><ele>824.0</ele><time>2026-04-26T13:36:29.997Z</time></trkpt><trkpt lat="45.74266979683151" lon="11.29663369809618"><ele>824.0</ele><time>2026-04-26T13:36:31.997Z</time></trkpt><trkpt lat="45.74275328230431" lon="11.296517601064751"><ele>824.0</ele><time>2026-04-26T13:36:33.997Z</time></trkpt><trkpt lat="45.742826459934896" lon="11.296397478088867"><ele>824.0</ele><time>2026-04-26T13:36:35.997Z</time></trkpt><trkpt lat="45.742908875540294" lon="11.296271752794933"><ele>828.0000000000001</ele><time>2026-04-26T13:36:37.997Z</time></trkpt><trkpt lat="45.74295886883637" lon="11.296198644374574"><ele>832.0</ele><time>2026-04-26T13:36:38.997Z</time></trkpt><trkpt lat="45.74303070901722" lon="11.29607168512343"><ele>836.0</ele><time>2026-04-26T13:36:40.997Z</time></trkpt><trkpt lat="45.7430661307691" lon="11.295988614181152"><ele>840.0</ele><time>2026-04-26T13:36:41.997Z</time></trkpt><trkpt lat="45.743094355027544" lon="11.295905880196708"><ele>844.0000000000001</ele><time>2026-04-26T13:36:42.997Z</time></trkpt><trkpt lat="45.743123388141136" lon="11.295819910388193"><ele>848.0</ele><time>2026-04-26T13:36:43.997Z</time></trkpt><trkpt lat="45.74315406351845" lon="11.295698434731728"><ele>848.8333333333334</ele><time>2026-04-26T13:36:44.997Z</time></trkpt><trkpt lat="45.74317143303182" lon="11.295569039591069"><ele>849.6666666666667</ele><time>2026-04-26T13:36:45.997Z</time></trkpt><trkpt lat="45.743181961560545" lon="11.29546970588615"><ele>850.5</ele><time>2026-04-26T13:36:46.997Z</time></trkpt><trkpt lat="45.74319702015396" lon="11.29535087703617"><ele>851.3333333333333</ele><time>2026-04-26T13:36:47.997Z</time></trkpt><trkpt lat="45.74320907377078" lon="11.295241918295329"><ele>852.1666666666666</ele><time>2026-04-26T13:36:48.997Z</time></trkpt><trkpt lat="45.74322076369066" lon="11.295140703731102"><ele>853.0</ele><time>2026-04-26T13:36:49.997Z</time></trkpt><trkpt lat="45.743229775148244" lon="11.295025500847439"><ele>852.9999999999999</ele><time>2026-04-26T13:36:50.997Z</time></trkpt><trkpt lat="45.74322942395158" lon="11.294883645028568"><ele>853.0</ele><time>2026-04-26T13:36:52.997Z</time></trkpt><trkpt lat="45.7431663210905" lon="11.294841043458366"><ele>853.0</ele><time>2026-04-26T13:36:55.996Z</time></trkpt><trkpt lat="45.74312246469836" lon="11.294935474545873"><ele>853.0</ele><time>2026-04-26T13:37:01.996Z</time></trkpt><trkpt lat="45.7431385318702" lon="11.295065042306838"><ele>852.9999999999999</ele><time>2026-04-26T13:37:04.996Z</time></trkpt><trkpt lat="45.74315311217544" lon="11.295187036328603"><ele>853.0</ele><time>2026-04-26T13:37:06.996Z</time></trkpt><trkpt lat="45.743152177368664" lon="11.295333315131607"><ele>852.9999999999999</ele><time>2026-04-26T13:37:08.996Z</time></trkpt><trkpt lat="45.74314002005531" lon="11.295475255667098"><ele>853.0</ele><time>2026-04-26T13:37:10.996Z</time></trkpt><trkpt lat="45.74311585624712" lon="11.295577773179225"><ele>853.0</ele><time>2026-04-26T13:37:12.996Z</time></trkpt><trkpt lat="45.74307182035369" lon="11.29565094923882"><ele>853.0</ele><time>2026-04-26T13:37:14.996Z</time></trkpt><trkpt lat="45.74301595334907" lon="11.29571454764316"><ele>852.9999999999999</ele><time>2026-04-26T13:37:16.996Z</time></trkpt><trkpt lat="45.74294416855616" lon="11.295741822357165"><ele>853.0</ele><time>2026-04-26T13:37:18.996Z</time></trkpt><trkpt lat="45.74287574336655" lon="11.295784688144515"><ele>852.0</ele><time>2026-04-26T13:37:20.996Z</time></trkpt><trkpt lat="45.74279067667962" lon="11.295814721653691"><ele>851.0</ele><time>2026-04-26T13:37:22.996Z</time></trkpt><trkpt lat="45.74268731533668" lon="11.295850719633455"><ele>850.0</ele><time>2026-04-26T13:37:24.996Z</time></trkpt><trkpt lat="45.7425897193778" lon="11.29590137541284"><ele>849.0</ele><time>2026-04-26T13:37:26.996Z</time></trkpt><trkpt lat="45.74248586288568" lon="11.295973923445864"><ele>848.0</ele><time>2026-04-26T13:37:28.996Z</time></trkpt><trkpt lat="45.742416907909835" lon="11.29601444125642"><ele>856.2</ele><time>2026-04-26T13:37:29.996Z</time></trkpt><trkpt lat="45.742307702163714" lon="11.29607563961001"><ele>864.4</ele><time>2026-04-26T13:37:31.996Z</time></trkpt><trkpt lat="45.74219624942434" lon="11.296144042736136"><ele>872.6000000000001</ele><time>2026-04-26T13:37:33.996Z</time></trkpt><trkpt lat="45.742120724078596" lon="11.296166191715905"><ele>880.8000000000001</ele><time>2026-04-26T13:37:34.996Z</time></trkpt><trkpt lat="45.742044148385915" lon="11.29620487817984"><ele>889.0</ele><time>2026-04-26T13:37:35.996Z</time></trkpt><trkpt lat="45.74195329338079" lon="11.29625742411654"><ele>887.1666666666666</ele><time>2026-04-26T13:37:36.996Z</time></trkpt><trkpt lat="45.741868537970504" lon="11.29630332622812"><ele>885.3333333333333</ele><time>2026-04-26T13:37:37.996Z</time></trkpt><trkpt lat="45.74178531215873" lon="11.296343264196413"><ele>883.5</ele><time>2026-04-26T13:37:38.996Z</time></trkpt><trkpt lat="45.74170516712358" lon="11.296374967430431"><ele>881.6666666666667</ele><time>2026-04-26T13:37:39.996Z</time></trkpt><trkpt lat="45.741621375807576" lon="11.296407750231477"><ele>879.8333333333334</ele><time>2026-04-26T13:37:40.996Z</time></trkpt><trkpt lat="45.74154507685379" lon="11.296446609863887"><ele>878.0</ele><time>2026-04-26T13:37:41.996Z</time></trkpt><trkpt lat="45.741477917095935" lon="11.296490464436724"><ele>878.0</ele><time>2026-04-26T13:37:42.996Z</time></trkpt><trkpt lat="45.741413795194774" lon="11.296528691824854"><ele>878.0</ele><time>2026-04-26T13:37:43.996Z</time></trkpt><trkpt lat="45.74132163383869" lon="11.296579040418726"><ele>878.0</ele><time>2026-04-26T13:37:45.996Z</time></trkpt><trkpt lat="45.74123869749998" lon="11.296545259055964"><ele>878.0</ele><time>2026-04-26T13:37:47.996Z</time></trkpt><trkpt lat="45.74113644708212" lon="11.296524228988067"><ele>878.0</ele><time>2026-04-26T13:37:49.996Z</time></trkpt><trkpt lat="45.74100756296865" lon="11.296474049868019"><ele>880.4</ele><time>2026-04-26T13:37:51.996Z</time></trkpt><trkpt lat="45.740923237080345" lon="11.296428899801391"><ele>882.8</ele><time>2026-04-26T13:37:52.996Z</time></trkpt><trkpt lat="45.7408387183913" lon="11.296367318257735"><ele>885.2</ele><time>2026-04-26T13:37:53.996Z</time></trkpt><trkpt lat="45.740750623394945" lon="11.296293853443737"><ele>887.6</ele><time>2026-04-26T13:37:54.996Z</time></trkpt><trkpt lat="45.74066507281131" lon="11.296224624376618"><ele>890.0</ele><time>2026-04-26T13:37:55.996Z</time></trkpt><trkpt lat="45.74058005447877" lon="11.296150983876817"><ele>897.4</ele><time>2026-04-26T13:37:56.996Z</time></trkpt><trkpt lat="45.74050074279322" lon="11.296090335037741"><ele>904.8</ele><time>2026-04-26T13:37:57.996Z</time></trkpt><trkpt lat="45.74042135586115" lon="11.296060958762325"><ele>912.2</ele><time>2026-04-26T13:37:58.996Z</time></trkpt><trkpt lat="45.74029587730513" lon="11.29602643544068"><ele>919.6</ele><time>2026-04-26T13:38:00.996Z</time></trkpt><trkpt lat="45.74021681552952" lon="11.296107786814344"><ele>927.0</ele><time>2026-04-26T13:38:01.996Z</time></trkpt><trkpt lat="45.740127519393305" lon="11.29612567833778"><ele>927.0</ele><time>2026-04-26T13:38:02.996Z</time></trkpt><trkpt lat="45.74004722762847" lon="11.296124098647434"><ele>927.0</ele><time>2026-04-26T13:38:03.996Z</time></trkpt><trkpt lat="45.73997127474511" lon="11.296119952200412"><ele>927.0</ele><time>2026-04-26T13:38:04.996Z</time></trkpt><trkpt lat="45.73988939750832" lon="11.29612340443016"><ele>927.0</ele><time>2026-04-26T13:38:05.996Z</time></trkpt><trkpt lat="45.73980186252191" lon="11.296136597490023"><ele>927.0</ele><time>2026-04-26T13:38:06.995Z</time></trkpt><trkpt lat="45.739709314144314" lon="11.296164565627814"><ele>927.0</ele><time>2026-04-26T13:38:07.995Z</time></trkpt><trkpt lat="45.73961893714769" lon="11.296179544047712"><ele>927.0</ele><time>2026-04-26T13:38:08.995Z</time></trkpt><trkpt lat="45.73952945412024" lon="11.296186812829372"><ele>927.0</ele><time>2026-04-26T13:38:09.995Z</time></trkpt><trkpt lat="45.73944040435732" lon="11.296201599886224"><ele>927.0</ele><time>2026-04-26T13:38:10.995Z</time></trkpt><trkpt lat="45.73934841773348" lon="11.296223950191393"><ele>927.0</ele><time>2026-04-26T13:38:11.995Z</time></trkpt><trkpt lat="45.73926382768134" lon="11.296241461518713"><ele>927.0</ele><time>2026-04-26T13:38:12.995Z</time></trkpt><trkpt lat="45.73919054918735" lon="11.296248979401037"><ele>927.0</ele><time>2026-04-26T13:38:13.995Z</time></trkpt><trkpt lat="45.739114510367216" lon="11.296274248466597"><ele>930.0</ele><time>2026-04-26T13:38:14.995Z</time></trkpt><trkpt lat="45.7390271781307" lon="11.296330433757342"><ele>933.0</ele><time>2026-04-26T13:38:15.995Z</time></trkpt><trkpt lat="45.7389453260667" lon="11.296397350338943"><ele>936.0</ele><time>2026-04-26T13:38:16.995Z</time></trkpt><trkpt lat="45.73886368984073" lon="11.296465046099163"><ele>939.0</ele><time>2026-04-26T13:38:17.995Z</time></trkpt><trkpt lat="45.73878196976841" lon="11.296548695214407"><ele>942.0</ele><time>2026-04-26T13:38:18.995Z</time></trkpt><trkpt lat="45.7387059981378" lon="11.296616738829098"><ele>937.2</ele><time>2026-04-26T13:38:19.995Z</time></trkpt><trkpt lat="45.73861882663912" lon="11.296700446693357"><ele>932.4000000000001</ele><time>2026-04-26T13:38:20.995Z</time></trkpt><trkpt lat="45.73853085915197" lon="11.296776051061059"><ele>927.5999999999999</ele><time>2026-04-26T13:38:21.995Z</time></trkpt><trkpt lat="45.73843953073413" lon="11.29686217074473"><ele>922.8</ele><time>2026-04-26T13:38:22.995Z</time></trkpt><trkpt lat="45.73835106408087" lon="11.296938718654149"><ele>918.0</ele><time>2026-04-26T13:38:23.995Z</time></trkpt><trkpt lat="45.73826488195216" lon="11.296996765286849"><ele>918.0</ele><time>2026-04-26T13:38:24.995Z</time></trkpt><trkpt lat="45.73817517148803" lon="11.297040104283594"><ele>918.0</ele><time>2026-04-26T13:38:25.995Z</time></trkpt><trkpt lat="45.738072051802575" lon="11.297088073908956"><ele>918.0</ele><time>2026-04-26T13:38:26.995Z</time></trkpt><trkpt lat="45.737968466424796" lon="11.297131802271359"><ele>918.0</ele><time>2026-04-26T13:38:27.995Z</time></trkpt><trkpt lat="45.737833872781756" lon="11.297210060232263"><ele>918.0</ele><time>2026-04-26T13:38:28.997Z</time></trkpt><trkpt lat="45.73771820358568" lon="11.297292524522225"><ele>918.0</ele><time>2026-04-26T13:38:29.997Z</time></trkpt><trkpt lat="45.73760887653347" lon="11.297362275641426"><ele>918.0</ele><time>2026-04-26T13:38:30.997Z</time></trkpt><trkpt lat="45.73749058612944" lon="11.297445102325675"><ele>918.0</ele><time>2026-04-26T13:38:31.998Z</time></trkpt><trkpt lat="45.737388414240826" lon="11.297508144753653"><ele>918.0</ele><time>2026-04-26T13:38:32.998Z</time></trkpt><trkpt lat="45.73728328701248" lon="11.297584106635645"><ele>918.0</ele><time>2026-04-26T13:38:33.998Z</time></trkpt><trkpt lat="45.73718952049534" lon="11.297672495554112"><ele>918.0</ele><time>2026-04-26T13:38:34.998Z</time></trkpt><trkpt lat="45.73710980283517" lon="11.297730620312429"><ele>918.0</ele><time>2026-04-26T13:38:35.998Z</time></trkpt><trkpt lat="45.73704711215313" lon="11.297779222392847"><ele>918.0</ele><time>2026-04-26T13:38:36.999Z</time></trkpt><trkpt lat="45.73698571049253" lon="11.297828254231746"><ele>920.0</ele><time>2026-04-26T13:38:37.999Z</time></trkpt><trkpt lat="45.736883967460734" lon="11.297842881831816"><ele>922.0</ele><time>2026-04-26T13:38:39.999Z</time></trkpt><trkpt lat="45.736778076853945" lon="11.297840822713848"><ele>924.0</ele><time>2026-04-26T13:38:41.999Z</time></trkpt><trkpt lat="45.73669359879286" lon="11.29785534932489"><ele>926.0</ele><time>2026-04-26T13:38:42.999Z</time></trkpt><trkpt lat="45.73662613720568" lon="11.297870989311452"><ele>928.0</ele><time>2026-04-26T13:38:43.999Z</time></trkpt><trkpt lat="45.736539211708866" lon="11.29792444575641"><ele>927.9999999999999</ele><time>2026-04-26T13:38:45.999Z</time></trkpt><trkpt lat="45.73645927072299" lon="11.297979302162888"><ele>928.0</ele><time>2026-04-26T13:38:48Z</time></trkpt><trkpt lat="45.73639754479704" lon="11.298017957063967"><ele>928.0</ele><time>2026-04-26T13:38:51Z</time></trkpt><trkpt lat="45.73633430574984" lon="11.298057953106415"><ele>928.0</ele><time>2026-04-26T13:38:55Z</time></trkpt><trkpt lat="45.73628631490712" lon="11.298127950649778"><ele>927.9999999999999</ele><time>2026-04-26T13:38:58Z</time></trkpt><trkpt lat="45.73621599489871" lon="11.29822863298903"><ele>928.0</ele><time>2026-04-26T13:40:34.999Z</time></trkpt><trkpt lat="45.73614939175338" lon="11.298286542061753"><ele>923.4</ele><time>2026-04-26T13:41:21.998Z</time></trkpt><trkpt lat="45.73607012880048" lon="11.29829305784104"><ele>918.8</ele><time>2026-04-26T13:41:24.998Z</time></trkpt><trkpt lat="45.73599674967691" lon="11.298286347652056"><ele>914.2</ele><time>2026-04-26T13:41:26.998Z</time></trkpt><trkpt lat="45.73589649905753" lon="11.298273107079913"><ele>909.6</ele><time>2026-04-26T13:41:28.998Z</time></trkpt><trkpt lat="45.735788135073506" lon="11.298250320478973"><ele>905.0</ele><time>2026-04-26T13:41:30.998Z</time></trkpt><trkpt lat="45.73566902398" lon="11.298222371340426"><ele>905.0</ele><time>2026-04-26T13:41:32.998Z</time></trkpt><trkpt lat="45.73555223371798" lon="11.298200577329572"><ele>905.0</ele><time>2026-04-26T13:41:34.998Z</time></trkpt><trkpt lat="45.73543634750686" lon="11.298245421397915"><ele>905.0</ele><time>2026-04-26T13:41:36.998Z</time></trkpt><trkpt lat="45.735335825120316" lon="11.29826241826306"><ele>905.0</ele><time>2026-04-26T13:41:38.998Z</time></trkpt><trkpt lat="45.73524613001818" lon="11.298270060990143"><ele>905.0</ele><time>2026-04-26T13:41:40.998Z</time></trkpt><trkpt lat="45.735155726628264" lon="11.298283274330116"><ele>906.4</ele><time>2026-04-26T13:41:42.998Z</time></trkpt><trkpt lat="45.73504651550236" lon="11.298277083857986"><ele>907.8</ele><time>2026-04-26T13:41:44.998Z</time></trkpt><trkpt lat="45.734939895497675" lon="11.298254777222155"><ele>909.2</ele><time>2026-04-26T13:41:46.998Z</time></trkpt><trkpt lat="45.734805085249505" lon="11.298235937655242"><ele>910.6</ele><time>2026-04-26T13:41:48.998Z</time></trkpt><trkpt lat="45.734726821189305" lon="11.298232139419664"><ele>912.0</ele><time>2026-04-26T13:41:49.998Z</time></trkpt><trkpt lat="45.73464801814883" lon="11.298228332250282"><ele>912.0</ele><time>2026-04-26T13:41:50.998Z</time></trkpt><trkpt lat="45.73458425553694" lon="11.29822275667757"><ele>912.0</ele><time>2026-04-26T13:41:51.998Z</time></trkpt><trkpt lat="45.734470078837106" lon="11.298223113982408"><ele>912.0</ele><time>2026-04-26T13:41:53.998Z</time></trkpt><trkpt lat="45.734346760162516" lon="11.298216319748732"><ele>912.0</ele><time>2026-04-26T13:41:55.998Z</time></trkpt><trkpt lat="45.73426047829962" lon="11.298229995080646"><ele>912.0</ele><time>2026-04-26T13:41:56.998Z</time></trkpt><trkpt lat="45.734172357508136" lon="11.298248393391153"><ele>911.0</ele><time>2026-04-26T13:41:57.998Z</time></trkpt><trkpt lat="45.73407289742629" lon="11.298271154911957"><ele>910.0</ele><time>2026-04-26T13:41:58.998Z</time></trkpt><trkpt lat="45.73398315747125" lon="11.298300862743135"><ele>909.0</ele><time>2026-04-26T13:41:59.998Z</time></trkpt><trkpt lat="45.733904087240205" lon="11.2983309977248"><ele>908.0</ele><time>2026-04-26T13:42:00.998Z</time></trkpt><trkpt lat="45.73383283422332" lon="11.298358730943402"><ele>907.0</ele><time>2026-04-26T13:42:01.998Z</time></trkpt><trkpt lat="45.73375722750012" lon="11.298383525404468"><ele>906.0</ele><time>2026-04-26T13:42:02.998Z</time></trkpt><trkpt lat="45.733688911859744" lon="11.298421544116094"><ele>906.0</ele><time>2026-04-26T13:42:03.998Z</time></trkpt><trkpt lat="45.73362151962493" lon="11.298464142127152"><ele>906.0</ele><time>2026-04-26T13:42:04.998Z</time></trkpt><trkpt lat="45.73352911729372" lon="11.298530095460318"><ele>906.0</ele><time>2026-04-26T13:42:06.998Z</time></trkpt><trkpt lat="45.73344327962417" lon="11.298594323170517"><ele>906.0</ele><time>2026-04-26T13:42:08.998Z</time></trkpt><trkpt lat="45.733388999486934" lon="11.298676890195566"><ele>906.0</ele><time>2026-04-26T13:42:10.998Z</time></trkpt><trkpt lat="45.73333584098135" lon="11.29874885908551"><ele>906.0</ele><time>2026-04-26T13:42:12.998Z</time></trkpt><trkpt lat="45.73326010710777" lon="11.298851953246137"><ele>904.75</ele><time>2026-04-26T13:42:14.998Z</time></trkpt><trkpt lat="45.733210375032286" lon="11.298986854776256"><ele>903.5</ele><time>2026-04-26T13:42:16.998Z</time></trkpt><trkpt lat="45.73315506280991" lon="11.299098991783946"><ele>902.25</ele><time>2026-04-26T13:42:18.998Z</time></trkpt><trkpt lat="45.73309653027653" lon="11.299260688560585"><ele>901.0</ele><time>2026-04-26T13:42:20.998Z</time></trkpt><trkpt lat="45.7329790486708" lon="11.299395686144646"><ele>900.9999999999999</ele><time>2026-04-26T13:42:22.997Z</time></trkpt><trkpt lat="45.732909425241765" lon="11.299467077322626"><ele>901.0</ele><time>2026-04-26T13:42:23.997Z</time></trkpt><trkpt lat="45.73285262748482" lon="11.299511342438707"><ele>901.0</ele><time>2026-04-26T13:42:24.997Z</time></trkpt><trkpt lat="45.732760105760605" lon="11.29957414140403"><ele>901.0</ele><time>2026-04-26T13:42:26.997Z</time></trkpt><trkpt lat="45.732674996641926" lon="11.29965066007774"><ele>900.9999999999999</ele><time>2026-04-26T13:42:29.997Z</time></trkpt><trkpt lat="45.73261219888482" lon="11.299731364808101"><ele>901.0</ele><time>2026-04-26T13:42:31.997Z</time></trkpt><trkpt lat="45.73263269817413" lon="11.299831114247047"><ele>898.3333333333333</ele><time>2026-04-26T13:42:33.997Z</time></trkpt><trkpt lat="45.73268712417302" lon="11.299882723957248"><ele>895.6666666666666</ele><time>2026-04-26T13:42:37.997Z</time></trkpt><trkpt lat="45.73275424281219" lon="11.299903167311578"><ele>893.0</ele><time>2026-04-26T13:42:40.997Z</time></trkpt><trkpt lat="45.73285044597141" lon="11.299969563150286"><ele>890.3333333333333</ele><time>2026-04-26T13:42:42.997Z</time></trkpt><trkpt lat="45.73293720806942" lon="11.300040831743715"><ele>887.6666666666666</ele><time>2026-04-26T13:42:44.997Z</time></trkpt><trkpt lat="45.73298304016589" lon="11.300121879774343"><ele>885.0</ele><time>2026-04-26T13:42:46.997Z</time></trkpt><trkpt lat="45.73292797592015" lon="11.30007670634725"><ele>885.0</ele><time>2026-04-26T13:42:51.997Z</time></trkpt><trkpt lat="45.73285054036727" lon="11.300055506409503"><ele>885.0</ele><time>2026-04-26T13:42:53.997Z</time></trkpt><trkpt lat="45.73278163959081" lon="11.30005911658658"><ele>885.0</ele><time>2026-04-26T13:42:55.997Z</time></trkpt><trkpt lat="45.73271244172633" lon="11.300120640336942"><ele>885.0</ele><time>2026-04-26T13:42:57.997Z</time></trkpt><trkpt lat="45.73262508834637" lon="11.300211424159757"><ele>885.0</ele><time>2026-04-26T13:42:59.997Z</time></trkpt><trkpt lat="45.73254652485274" lon="11.300307877961153"><ele>885.0</ele><time>2026-04-26T13:43:01.997Z</time></trkpt><trkpt lat="45.732473472967044" lon="11.300385940209129"><ele>885.0</ele><time>2026-04-26T13:43:03.997Z</time></trkpt><trkpt lat="45.73238703490578" lon="11.300450352865198"><ele>885.0</ele><time>2026-04-26T13:43:05.997Z</time></trkpt><trkpt lat="45.732275257645725" lon="11.300488911316874"><ele>885.0</ele><time>2026-04-26T13:43:07.997Z</time></trkpt><trkpt lat="45.732165667374154" lon="11.300539895507104"><ele>885.0</ele><time>2026-04-26T13:43:09.997Z</time></trkpt><trkpt lat="45.732065453372336" lon="11.300628243509802"><ele>885.0</ele><time>2026-04-26T13:43:11.997Z</time></trkpt><trkpt lat="45.73195487627121" lon="11.300679414739824"><ele>880.0</ele><time>2026-04-26T13:43:13.997Z</time></trkpt><trkpt lat="45.73183981372576" lon="11.300744880321956"><ele>875.0</ele><time>2026-04-26T13:43:15.997Z</time></trkpt><trkpt lat="45.73172494057741" lon="11.300802845591154"><ele>870.0</ele><time>2026-04-26T13:43:17.997Z</time></trkpt><trkpt lat="45.731611828631344" lon="11.300882766449176"><ele>865.0</ele><time>2026-04-26T13:43:19.997Z</time></trkpt><trkpt lat="45.731508553498486" lon="11.30095684193474"><ele>865.0</ele><time>2026-04-26T13:43:21.997Z</time></trkpt><trkpt lat="45.7314090166806" lon="11.30103661453073"><ele>865.0</ele><time>2026-04-26T13:43:23.997Z</time></trkpt><trkpt lat="45.73132125688836" lon="11.301111946605989"><ele>865.0</ele><time>2026-04-26T13:43:25.997Z</time></trkpt><trkpt lat="45.73124776895726" lon="11.3011805250158"><ele>865.0</ele><time>2026-04-26T13:43:27.997Z</time></trkpt><trkpt lat="45.73117391631547" lon="11.301262572901974"><ele>865.0</ele><time>2026-04-26T13:43:29.997Z</time></trkpt><trkpt lat="45.73109820725431" lon="11.301355412637601"><ele>860.1666666666666</ele><time>2026-04-26T13:43:31.997Z</time></trkpt><trkpt lat="45.731005933462924" lon="11.301423815281996"><ele>855.3333333333333</ele><time>2026-04-26T13:43:33.996Z</time></trkpt><trkpt lat="45.7309561605773" lon="11.301484838088676"><ele>850.5</ele><time>2026-04-26T13:43:35.996Z</time></trkpt><trkpt lat="45.73101615999291" lon="11.301521064169751"><ele>845.6666666666667</ele><time>2026-04-26T13:43:43.995Z</time></trkpt><trkpt lat="45.731104171855215" lon="11.301476357247275"><ele>840.8333333333334</ele><time>2026-04-26T13:43:46.995Z</time></trkpt><trkpt lat="45.73116841568429" lon="11.301453251304725"><ele>836.0</ele><time>2026-04-26T13:43:48.995Z</time></trkpt><trkpt lat="45.731232821188776" lon="11.301426812969842"><ele>835.0</ele><time>2026-04-26T13:43:50.995Z</time></trkpt><trkpt lat="45.731405082152236" lon="11.301437271853255"><ele>834.0</ele><time>2026-04-26T13:43:55.995Z</time></trkpt><trkpt lat="45.73148964062625" lon="11.301470847437598"><ele>833.0</ele><time>2026-04-26T13:43:57.995Z</time></trkpt><trkpt lat="45.731564949847645" lon="11.301493381055982"><ele>832.0</ele><time>2026-04-26T13:43:59.995Z</time></trkpt><trkpt lat="45.73164336626993" lon="11.30150725042291"><ele>831.0</ele><time>2026-04-26T13:44:01.995Z</time></trkpt><trkpt lat="45.731714553490264" lon="11.301516803822123"><ele>831.0</ele><time>2026-04-26T13:44:03.995Z</time></trkpt><trkpt lat="45.731798559880104" lon="11.301526962654602"><ele>831.0</ele><time>2026-04-26T13:44:05.995Z</time></trkpt><trkpt lat="45.73192905589073" lon="11.3015670746749"><ele>831.0</ele><time>2026-04-26T13:44:07.995Z</time></trkpt><trkpt lat="45.731990772386936" lon="11.301605172862905"><ele>831.0</ele><time>2026-04-26T13:44:08.995Z</time></trkpt><trkpt lat="45.73206257313151" lon="11.301656461301565"><ele>831.0</ele><time>2026-04-26T13:44:09.995Z</time></trkpt><trkpt lat="45.7321220908527" lon="11.301697774632764"><ele>831.0</ele><time>2026-04-26T13:44:10.995Z</time></trkpt><trkpt lat="45.73218166160456" lon="11.30173165924066"><ele>830.8</ele><time>2026-04-26T13:44:11.995Z</time></trkpt><trkpt lat="45.73224572318819" lon="11.301766620798828"><ele>830.5999999999999</ele><time>2026-04-26T13:44:12.995Z</time></trkpt><trkpt lat="45.732405066821606" lon="11.30183054481407"><ele>830.4</ele><time>2026-04-26T13:44:14.995Z</time></trkpt><trkpt lat="45.73250665609023" lon="11.301884140453325"><ele>830.2</ele><time>2026-04-26T13:44:15.995Z</time></trkpt><trkpt lat="45.73260260072525" lon="11.301937469222858"><ele>830.0</ele><time>2026-04-26T13:44:16.995Z</time></trkpt><trkpt lat="45.7326780974742" lon="11.301974643955523"><ele>828.6</ele><time>2026-04-26T13:44:17.995Z</time></trkpt><trkpt lat="45.73273638772133" lon="11.302013760086856"><ele>827.2</ele><time>2026-04-26T13:44:18.995Z</time></trkpt><trkpt lat="45.73283225196875" lon="11.302070151122582"><ele>825.8</ele><time>2026-04-26T13:44:20.995Z</time></trkpt><trkpt lat="45.73299350134439" lon="11.302104429511326"><ele>824.4</ele><time>2026-04-26T13:44:25.995Z</time></trkpt><trkpt lat="45.73303226695609" lon="11.302200422682581"><ele>823.0</ele><time>2026-04-26T13:44:27.995Z</time></trkpt><trkpt lat="45.73297474942654" lon="11.302265462509121"><ele>824.1666666666666</ele><time>2026-04-26T13:44:31.995Z</time></trkpt><trkpt lat="45.73291043928911" lon="11.302295683046475"><ele>825.3333333333333</ele><time>2026-04-26T13:44:33.995Z</time></trkpt><trkpt lat="45.732820152096544" lon="11.302297799761957"><ele>826.5</ele><time>2026-04-26T13:44:36.995Z</time></trkpt><trkpt lat="45.7327348438286" lon="11.302250785661435"><ele>827.6666666666667</ele><time>2026-04-26T13:44:39.995Z</time></trkpt><trkpt lat="45.73264388588164" lon="11.302199049466727"><ele>828.8333333333334</ele><time>2026-04-26T13:44:41.994Z</time></trkpt><trkpt lat="45.73256230019862" lon="11.30214770996342"><ele>830.0</ele><time>2026-04-26T13:44:43.994Z</time></trkpt><trkpt lat="45.73247710007844" lon="11.30210965372214"><ele>830.0</ele><time>2026-04-26T13:44:45.994Z</time></trkpt><trkpt lat="45.73239110198505" lon="11.30209890463429"><ele>830.0</ele><time>2026-04-26T13:44:47.994Z</time></trkpt><trkpt lat="45.73231107784231" lon="11.302132142041307"><ele>830.0</ele><time>2026-04-26T13:44:49.994Z</time></trkpt><trkpt lat="45.73224609473998" lon="11.302230103029773"><ele>830.0</ele><time>2026-04-26T13:44:51.994Z</time></trkpt><trkpt lat="45.732189024344464" lon="11.302350868234784"><ele>830.0</ele><time>2026-04-26T13:44:53.994Z</time></trkpt><trkpt lat="45.732140254891966" lon="11.302503169929572"><ele>825.8333333333334</ele><time>2026-04-26T13:44:55.994Z</time></trkpt><trkpt lat="45.7321134044018" lon="11.302596114119707"><ele>821.6666666666667</ele><time>2026-04-26T13:44:56.994Z</time></trkpt><trkpt lat="45.7320886278029" lon="11.302679430651033"><ele>817.5</ele><time>2026-04-26T13:44:57.994Z</time></trkpt><trkpt lat="45.73203380665669" lon="11.302816774418714"><ele>813.3333333333333</ele><time>2026-04-26T13:44:59.994Z</time></trkpt><trkpt lat="45.73196203275518" lon="11.302885823294456"><ele>809.1666666666666</ele><time>2026-04-26T13:45:01.994Z</time></trkpt><trkpt lat="45.7318757543222" lon="11.302922761090823"><ele>805.0</ele><time>2026-04-26T13:45:03.994Z</time></trkpt><trkpt lat="45.73179382966885" lon="11.302941748459206"><ele>805.0</ele><time>2026-04-26T13:45:05.994Z</time></trkpt><trkpt lat="45.73170595043069" lon="11.302938541784101"><ele>805.0</ele><time>2026-04-26T13:45:07.994Z</time></trkpt><trkpt lat="45.731602548567935" lon="11.302926942437876"><ele>805.0</ele><time>2026-04-26T13:45:09.994Z</time></trkpt><trkpt lat="45.73151543858651" lon="11.302911397020738"><ele>805.0</ele><time>2026-04-26T13:45:11.994Z</time></trkpt><trkpt lat="45.73143166064779" lon="11.302905263937916"><ele>805.0</ele><time>2026-04-26T13:45:13.994Z</time></trkpt><trkpt lat="45.731345421739206" lon="11.302917456335868"><ele>805.0</ele><time>2026-04-26T13:45:15.994Z</time></trkpt><trkpt lat="45.731240718331144" lon="11.302967501686537"><ele>805.0</ele><time>2026-04-26T13:45:17.994Z</time></trkpt><trkpt lat="45.73114770024285" lon="11.30303250622428"><ele>805.0</ele><time>2026-04-26T13:45:19.994Z</time></trkpt><trkpt lat="45.731043895607336" lon="11.303086352594594"><ele>805.0</ele><time>2026-04-26T13:45:21.994Z</time></trkpt><trkpt lat="45.730956164103176" lon="11.30312550477101"><ele>805.0</ele><time>2026-04-26T13:45:23.994Z</time></trkpt><trkpt lat="45.73088448901642" lon="11.303133101923224"><ele>799.4</ele><time>2026-04-26T13:45:25.994Z</time></trkpt><trkpt lat="45.730797712736376" lon="11.303129879593394"><ele>793.8</ele><time>2026-04-26T13:45:27.994Z</time></trkpt><trkpt lat="45.730696481836475" lon="11.303126139606881"><ele>788.2</ele><time>2026-04-26T13:45:29.994Z</time></trkpt><trkpt lat="45.730596527985035" lon="11.303133313110129"><ele>782.6</ele><time>2026-04-26T13:45:31.994Z</time></trkpt><trkpt lat="45.730489769153856" lon="11.303150182493551"><ele>777.0</ele><time>2026-04-26T13:45:33.994Z</time></trkpt><trkpt lat="45.73040372745444" lon="11.30315965785336"><ele>777.0</ele><time>2026-04-26T13:45:35.996Z</time></trkpt><trkpt lat="45.73030137416242" lon="11.303160174235446"><ele>777.0</ele><time>2026-04-26T13:45:37.996Z</time></trkpt><trkpt lat="45.730202710117794" lon="11.303147828077101"><ele>777.0</ele><time>2026-04-26T13:45:39.997Z</time></trkpt><trkpt lat="45.73012192996334" lon="11.303137785955114"><ele>777.0</ele><time>2026-04-26T13:45:41.997Z</time></trkpt><trkpt lat="45.73003835582146" lon="11.303123478158689"><ele>777.0</ele><time>2026-04-26T13:45:43.998Z</time></trkpt><trkpt lat="45.72995705207317" lon="11.303094249299368"><ele>777.0</ele><time>2026-04-26T13:45:45.998Z</time></trkpt><trkpt lat="45.72989536039178" lon="11.30312982272798"><ele>777.0</ele><time>2026-04-26T13:45:48.998Z</time></trkpt><trkpt lat="45.72996112797408" lon="11.303191976942944"><ele>777.0</ele><time>2026-04-26T13:45:52.999Z</time></trkpt><trkpt lat="45.73004060744972" lon="11.303233346758743"><ele>777.0</ele><time>2026-04-26T13:45:55.999Z</time></trkpt><trkpt lat="45.730127790822785" lon="11.303282740607678"><ele>777.0</ele><time>2026-04-26T13:45:57.999Z</time></trkpt><trkpt lat="45.73018897392175" lon="11.30331585024127"><ele>777.0</ele><time>2026-04-26T13:45:58.999Z</time></trkpt><trkpt lat="45.7302495180458" lon="11.303364606968998"><ele>777.0</ele><time>2026-04-26T13:45:59.999Z</time></trkpt><trkpt lat="45.730346235512165" lon="11.303445667342336"><ele>777.0</ele><time>2026-04-26T13:46:01.999Z</time></trkpt><trkpt lat="45.73042486611962" lon="11.30348951247089"><ele>777.0</ele><time>2026-04-26T13:46:03.999Z</time></trkpt><trkpt lat="45.73052391736591" lon="11.30355910527781"><ele>777.0</ele><time>2026-04-26T13:46:05.999Z</time></trkpt><trkpt lat="45.730621653721514" lon="11.303633183077263"><ele>777.0</ele><time>2026-04-26T13:46:07.999Z</time></trkpt><trkpt lat="45.7307022979219" lon="11.303695601701701"><ele>777.0</ele><time>2026-04-26T13:46:09.999Z</time></trkpt><trkpt lat="45.730797892407296" lon="11.303756344105789"><ele>777.0</ele><time>2026-04-26T13:46:11.999Z</time></trkpt><trkpt lat="45.730882900313915" lon="11.303811349900693"><ele>777.0</ele><time>2026-04-26T13:46:13.999Z</time></trkpt><trkpt lat="45.73097555862959" lon="11.303852999048566"><ele>777.0</ele><time>2026-04-26T13:46:15.999Z</time></trkpt><trkpt lat="45.73108275915373" lon="11.303874991991773"><ele>777.0</ele><time>2026-04-26T13:46:17.999Z</time></trkpt><trkpt lat="45.73118370243689" lon="11.303893442865725"><ele>767.75</ele><time>2026-04-26T13:46:19.999Z</time></trkpt><trkpt lat="45.73129912644319" lon="11.303927895336788"><ele>758.5</ele><time>2026-04-26T13:46:21.999Z</time></trkpt><trkpt lat="45.73142034300276" lon="11.303959314926399"><ele>749.25</ele><time>2026-04-26T13:46:23.999Z</time></trkpt><trkpt lat="45.73153308986432" lon="11.303986488546942"><ele>740.0</ele><time>2026-04-26T13:46:25.999Z</time></trkpt><trkpt lat="45.73163134716398" lon="11.304010359332972"><ele>740.0</ele><time>2026-04-26T13:46:27.999Z</time></trkpt><trkpt lat="45.73171978711203" lon="11.304025725615382"><ele>740.0</ele><time>2026-04-26T13:46:29.999Z</time></trkpt><trkpt lat="45.73181908373519" lon="11.304057219200027"><ele>740.0</ele><time>2026-04-26T13:46:31.999Z</time></trkpt><trkpt lat="45.731932034911466" lon="11.304072340658491"><ele>740.0</ele><time>2026-04-26T13:46:33.999Z</time></trkpt><trkpt lat="45.73199898818778" lon="11.30406866064273"><ele>740.0</ele><time>2026-04-26T13:46:34.999Z</time></trkpt><trkpt lat="45.73206345880275" lon="11.304059961342357"><ele>740.0</ele><time>2026-04-26T13:46:35.999Z</time></trkpt><trkpt lat="45.73216581436503" lon="11.304028034835031"><ele>739.2</ele><time>2026-04-26T13:46:37.999Z</time></trkpt><trkpt lat="45.732258824327715" lon="11.303992883170455"><ele>738.4</ele><time>2026-04-26T13:46:39.999Z</time></trkpt><trkpt lat="45.732385401651186" lon="11.304023098617943"><ele>737.5999999999999</ele><time>2026-04-26T13:46:41.999Z</time></trkpt><trkpt lat="45.73248033923781" lon="11.304113715464387"><ele>736.8</ele><time>2026-04-26T13:46:43.999Z</time></trkpt><trkpt lat="45.732564755857645" lon="11.304212662564147"><ele>736.0</ele><time>2026-04-26T13:46:45.999Z</time></trkpt><trkpt lat="45.73265340441588" lon="11.304261419678996"><ele>734.3333333333334</ele><time>2026-04-26T13:46:47.999Z</time></trkpt><trkpt lat="45.73272565531394" lon="11.304278601486214"><ele>732.6666666666667</ele><time>2026-04-26T13:46:49.999Z</time></trkpt><trkpt lat="45.732811299840584" lon="11.304297304614678"><ele>731.0</ele><time>2026-04-26T13:46:51.999Z</time></trkpt><trkpt lat="45.732891558589884" lon="11.304300171552175"><ele>729.3333333333334</ele><time>2026-04-26T13:46:53.999Z</time></trkpt><trkpt lat="45.73297977390375" lon="11.304315531580809"><ele>727.6666666666666</ele><time>2026-04-26T13:46:56.999Z</time></trkpt><trkpt lat="45.733053655074386" lon="11.304314903418879"><ele>726.0</ele><time>2026-04-26T13:46:58.999Z</time></trkpt><trkpt lat="45.73317246224256" lon="11.304303429860903"><ele>726.0</ele><time>2026-04-26T13:47:01.999Z</time></trkpt><trkpt lat="45.73324769694373" lon="11.304260354110578"><ele>726.0</ele><time>2026-04-26T13:47:03.999Z</time></trkpt><trkpt lat="45.733327658362064" lon="11.304224640270245"><ele>726.0</ele><time>2026-04-26T13:47:05.999Z</time></trkpt><trkpt lat="45.73340887637032" lon="11.304197224110567"><ele>726.0</ele><time>2026-04-26T13:47:07.998Z</time></trkpt><trkpt lat="45.73348168165375" lon="11.304182054801792"><ele>726.0</ele><time>2026-04-26T13:47:08.998Z</time></trkpt><trkpt lat="45.73356264388126" lon="11.304174805766996"><ele>726.0</ele><time>2026-04-26T13:47:09.998Z</time></trkpt><trkpt lat="45.73363956009244" lon="11.304166050816747"><ele>723.2857142857142</ele><time>2026-04-26T13:47:10.998Z</time></trkpt><trkpt lat="45.7337118367434" lon="11.304154835097846"><ele>720.5714285714286</ele><time>2026-04-26T13:47:11.998Z</time></trkpt><trkpt lat="45.73378392986639" lon="11.304139205551612"><ele>717.8571428571429</ele><time>2026-04-26T13:47:12.998Z</time></trkpt><trkpt lat="45.733860580731225" lon="11.304119512218728"><ele>715.1428571428571</ele><time>2026-04-26T13:47:13.998Z</time></trkpt><trkpt lat="45.73393540277567" lon="11.304103120293892"><ele>712.4285714285714</ele><time>2026-04-26T13:47:14.998Z</time></trkpt><trkpt lat="45.73400524265163" lon="11.30408622729229"><ele>709.7142857142857</ele><time>2026-04-26T13:47:15.998Z</time></trkpt><trkpt lat="45.73408197683147" lon="11.304068918844365"><ele>707.0</ele><time>2026-04-26T13:47:16.998Z</time></trkpt><trkpt lat="45.73415528358439" lon="11.30405612261577"><ele>707.0</ele><time>2026-04-26T13:47:17.998Z</time></trkpt><trkpt lat="45.73421495720112" lon="11.304024786862898"><ele>707.0</ele><time>2026-04-26T13:47:18.998Z</time></trkpt><trkpt lat="45.734308514455975" lon="11.30393803935753"><ele>707.0</ele><time>2026-04-26T13:47:20.998Z</time></trkpt><trkpt lat="45.73439519219659" lon="11.303862046892135"><ele>707.0</ele><time>2026-04-26T13:47:22.998Z</time></trkpt><trkpt lat="45.734476076901885" lon="11.30381068115652"><ele>707.0</ele><time>2026-04-26T13:47:24.998Z</time></trkpt><trkpt lat="45.73456381042506" lon="11.303788587878504"><ele>708.6666666666666</ele><time>2026-04-26T13:47:26.998Z</time></trkpt><trkpt lat="45.73465633391317" lon="11.303775039055996"><ele>710.3333333333333</ele><time>2026-04-26T13:47:28.998Z</time></trkpt><trkpt lat="45.734746770293455" lon="11.303747193961627"><ele>712.0</ele><time>2026-04-26T13:47:30.998Z</time></trkpt><trkpt lat="45.73485043033142" lon="11.303736054215822"><ele>713.6666666666666</ele><time>2026-04-26T13:47:32.998Z</time></trkpt><trkpt lat="45.73491688527991" lon="11.303737903848697"><ele>715.3333333333334</ele><time>2026-04-26T13:47:33.998Z</time></trkpt><trkpt lat="45.73498516747303" lon="11.303755777524659"><ele>717.0</ele><time>2026-04-26T13:47:34.998Z</time></trkpt><trkpt lat="45.735052664680914" lon="11.303775926876558"><ele>717.0</ele><time>2026-04-26T13:47:35.998Z</time></trkpt><trkpt lat="45.73514051114852" lon="11.303794623374701"><ele>717.0</ele><time>2026-04-26T13:47:37.998Z</time></trkpt><trkpt lat="45.73525257922109" lon="11.303798423430063"><ele>717.0</ele><time>2026-04-26T13:47:39.998Z</time></trkpt><trkpt lat="45.735353971059006" lon="11.303799723739559"><ele>717.0</ele><time>2026-04-26T13:47:41.998Z</time></trkpt><trkpt lat="45.73542799634047" lon="11.3038069522666"><ele>717.0</ele><time>2026-04-26T13:47:43.998Z</time></trkpt><trkpt lat="45.73552657523982" lon="11.303805226617186"><ele>714.4000000000001</ele><time>2026-04-26T13:47:45.998Z</time></trkpt><trkpt lat="45.735614033632544" lon="11.303783986246907"><ele>711.8000000000001</ele><time>2026-04-26T13:47:47.998Z</time></trkpt><trkpt lat="45.73573180561176" lon="11.303750851757801"><ele>709.2</ele><time>2026-04-26T13:47:49.998Z</time></trkpt><trkpt lat="45.73583255476026" lon="11.303750300956434"><ele>706.6</ele><time>2026-04-26T13:47:51.998Z</time></trkpt><trkpt lat="45.735940795605366" lon="11.303713205656221"><ele>704.0</ele><time>2026-04-26T13:47:53.998Z</time></trkpt><trkpt lat="45.73605684667594" lon="11.303673630973224"><ele>700.2</ele><time>2026-04-26T13:47:55.998Z</time></trkpt><trkpt lat="45.73612809119721" lon="11.303657672687663"><ele>696.4000000000001</ele><time>2026-04-26T13:47:56.998Z</time></trkpt><trkpt lat="45.73619576189016" lon="11.303647103891656"><ele>692.6</ele><time>2026-04-26T13:47:57.998Z</time></trkpt><trkpt lat="45.73632982741779" lon="11.303619357007717"><ele>688.8</ele><time>2026-04-26T13:47:59.998Z</time></trkpt><trkpt lat="45.736441919655746" lon="11.303571509368705"><ele>685.0</ele><time>2026-04-26T13:48:01.998Z</time></trkpt><trkpt lat="45.73655578005017" lon="11.30352493784668"><ele>685.0</ele><time>2026-04-26T13:48:03.998Z</time></trkpt><trkpt lat="45.73666110943724" lon="11.303494071589418"><ele>685.0</ele><time>2026-04-26T13:48:05.998Z</time></trkpt><trkpt lat="45.736784356599436" lon="11.303490623451694"><ele>685.0</ele><time>2026-04-26T13:48:07.998Z</time></trkpt><trkpt lat="45.73690955057898" lon="11.303485369550446"><ele>685.0</ele><time>2026-04-26T13:48:09.997Z</time></trkpt><trkpt lat="45.73697521698807" lon="11.303494473052119"><ele>685.0</ele><time>2026-04-26T13:48:10.997Z</time></trkpt><trkpt lat="45.73709800057822" lon="11.303511702592514"><ele>681.6666666666667</ele><time>2026-04-26T13:48:12.997Z</time></trkpt><trkpt lat="45.73720460976223" lon="11.303523173782741"><ele>678.3333333333334</ele><time>2026-04-26T13:48:14.997Z</time></trkpt><trkpt lat="45.73732462060091" lon="11.30355139339074"><ele>675.0</ele><time>2026-04-26T13:48:16.997Z</time></trkpt><trkpt lat="45.737392644272674" lon="11.30357782795745"><ele>671.6666666666666</ele><time>2026-04-26T13:48:17.997Z</time></trkpt><trkpt lat="45.73745953519534" lon="11.303592473264766"><ele>668.3333333333333</ele><time>2026-04-26T13:48:18.997Z</time></trkpt><trkpt lat="45.73753335061466" lon="11.30362747593385"><ele>665.0</ele><time>2026-04-26T13:48:19.997Z</time></trkpt><trkpt lat="45.73762497175084" lon="11.303711212942355"><ele>665.0</ele><time>2026-04-26T13:48:21.997Z</time></trkpt><trkpt lat="45.737648179109016" lon="11.303800661422759"><ele>665.0</ele><time>2026-04-26T13:48:23.997Z</time></trkpt><trkpt lat="45.73759113670569" lon="11.303873442073153"><ele>665.0</ele><time>2026-04-26T13:48:25.997Z</time></trkpt><trkpt lat="45.73752799991416" lon="11.303932546914211"><ele>665.0</ele><time>2026-04-26T13:48:27.997Z</time></trkpt><trkpt lat="45.737472235185045" lon="11.3039870549465"><ele>665.0</ele><time>2026-04-26T13:48:29.997Z</time></trkpt><trkpt lat="45.73743020959775" lon="11.304083402662062"><ele>665.0</ele><time>2026-04-26T13:48:31.997Z</time></trkpt><trkpt lat="45.73743570892899" lon="11.304187400177145"><ele>665.0</ele><time>2026-04-26T13:48:33.997Z</time></trkpt><trkpt lat="45.737475500173176" lon="11.304286685786883"><ele>662.2</ele><time>2026-04-26T13:48:35.997Z</time></trkpt><trkpt lat="45.73752166089862" lon="11.304387381372909"><ele>659.4</ele><time>2026-04-26T13:48:37.997Z</time></trkpt><trkpt lat="45.737578166832684" lon="11.304490746967437"><ele>656.5999999999999</ele><time>2026-04-26T13:48:39.997Z</time></trkpt><trkpt lat="45.73765603820231" lon="11.304605133701482"><ele>653.8</ele><time>2026-04-26T13:48:41.997Z</time></trkpt><trkpt lat="45.737731404585766" lon="11.304722179201915"><ele>651.0</ele><time>2026-04-26T13:48:43.997Z</time></trkpt><trkpt lat="45.73778591609165" lon="11.304851864395902"><ele>646.5</ele><time>2026-04-26T13:48:45.997Z</time></trkpt><trkpt lat="45.73785043041067" lon="11.304966365353526"><ele>642.0</ele><time>2026-04-26T13:48:47.997Z</time></trkpt><trkpt lat="45.73792518924217" lon="11.305052611835771"><ele>637.5</ele><time>2026-04-26T13:48:49.997Z</time></trkpt><trkpt lat="45.73813642890138" lon="11.30503104910341"><ele>633.0</ele><time>2026-04-26T13:48:54.997Z</time></trkpt><trkpt lat="45.738197791793276" lon="11.305009219422523"><ele>633.0</ele><time>2026-04-26T13:48:55.997Z</time></trkpt><trkpt lat="45.7382619057625" lon="11.304976593612638"><ele>633.0</ele><time>2026-04-26T13:48:56.997Z</time></trkpt><trkpt lat="45.7383374346535" lon="11.304950404781872"><ele>633.0</ele><time>2026-04-26T13:48:57.997Z</time></trkpt><trkpt lat="45.73842443234664" lon="11.304937403219112"><ele>633.0</ele><time>2026-04-26T13:48:58.997Z</time></trkpt><trkpt lat="45.73852606820243" lon="11.304919624266384"><ele>633.0</ele><time>2026-04-26T13:48:59.997Z</time></trkpt><trkpt lat="45.73862519034035" lon="11.304902449329349"><ele>633.0</ele><time>2026-04-26T13:49:00.997Z</time></trkpt><trkpt lat="45.73872134580797" lon="11.30489500751311"><ele>630.8333333333334</ele><time>2026-04-26T13:49:01.997Z</time></trkpt><trkpt lat="45.73881709314667" lon="11.304881005670998"><ele>628.6666666666666</ele><time>2026-04-26T13:49:02.997Z</time></trkpt><trkpt lat="45.73889837979838" lon="11.304863017512407"><ele>626.5</ele><time>2026-04-26T13:49:03.997Z</time></trkpt><trkpt lat="45.73898324982795" lon="11.304851454370509"><ele>624.3333333333333</ele><time>2026-04-26T13:49:04.997Z</time></trkpt><trkpt lat="45.739067389181244" lon="11.304852057603096"><ele>622.1666666666666</ele><time>2026-04-26T13:49:05.997Z</time></trkpt><trkpt lat="45.73915214234814" lon="11.304844708349773"><ele>620.0</ele><time>2026-04-26T13:49:06.997Z</time></trkpt><trkpt lat="45.73924746740685" lon="11.304834521265915"><ele>620.0</ele><time>2026-04-26T13:49:07.997Z</time></trkpt><trkpt lat="45.73931748085685" lon="11.304811647201753"><ele>620.0</ele><time>2026-04-26T13:49:08.997Z</time></trkpt><trkpt lat="45.73938276660739" lon="11.30477259410787"><ele>620.0</ele><time>2026-04-26T13:49:09.997Z</time></trkpt><trkpt lat="45.739435977341635" lon="11.304720423602511"><ele>620.0</ele><time>2026-04-26T13:49:10.997Z</time></trkpt><trkpt lat="45.739530124941915" lon="11.304653875843526"><ele>620.0</ele><time>2026-04-26T13:49:12.996Z</time></trkpt><trkpt lat="45.73962920593688" lon="11.304618123276029"><ele>620.0</ele><time>2026-04-26T13:49:14.996Z</time></trkpt><trkpt lat="45.739715453314204" lon="11.304589012261932"><ele>620.1666666666666</ele><time>2026-04-26T13:49:16.996Z</time></trkpt><trkpt lat="45.739777745934994" lon="11.304559986630204"><ele>620.3333333333333</ele><time>2026-04-26T13:49:18.996Z</time></trkpt><trkpt lat="45.73985263670194" lon="11.304517309043856"><ele>620.5</ele><time>2026-04-26T13:49:21.996Z</time></trkpt><trkpt lat="45.739912338080714" lon="11.304488062668378"><ele>620.6666666666666</ele><time>2026-04-26T13:49:24.996Z</time></trkpt><trkpt lat="45.7399881060984" lon="11.30441079791417"><ele>620.8333333333334</ele><time>2026-04-26T13:50:55.995Z</time></trkpt><trkpt lat="45.73997901518251" lon="11.304525654807481"><ele>621.0</ele><time>2026-04-26T13:50:58.995Z</time></trkpt><trkpt lat="45.739878652936795" lon="11.304635195680685"><ele>621.0</ele><time>2026-04-26T13:51:00.995Z</time></trkpt><trkpt lat="45.73981918187899" lon="11.304706635342521"><ele>621.0</ele><time>2026-04-26T13:51:01.995Z</time></trkpt><trkpt lat="45.73975249961904" lon="11.304788428370692"><ele>621.0</ele><time>2026-04-26T13:51:02.995Z</time></trkpt><trkpt lat="45.73968907473527" lon="11.304890070991432"><ele>621.0</ele><time>2026-04-26T13:51:03.995Z</time></trkpt><trkpt lat="45.739623372394966" lon="11.304992755601658"><ele>621.0</ele><time>2026-04-26T13:51:04.995Z</time></trkpt><trkpt lat="45.73957221743088" lon="11.30512029829319"><ele>620.75</ele><time>2026-04-26T13:51:05.995Z</time></trkpt><trkpt lat="45.739514573703886" lon="11.305268774079826"><ele>620.5</ele><time>2026-04-26T13:51:06.995Z</time></trkpt><trkpt lat="45.73944463236113" lon="11.305405264121328"><ele>620.25</ele><time>2026-04-26T13:51:07.995Z</time></trkpt><trkpt lat="45.73936619824543" lon="11.30553419235082"><ele>620.0</ele><time>2026-04-26T13:51:08.995Z</time></trkpt><trkpt lat="45.73929478117411" lon="11.30566955779337"><ele>618.0</ele><time>2026-04-26T13:51:09.995Z</time></trkpt><trkpt lat="45.739230854140565" lon="11.305806324065161"><ele>616.0</ele><time>2026-04-26T13:51:10.995Z</time></trkpt><trkpt lat="45.739169912939104" lon="11.30592873307929"><ele>614.0</ele><time>2026-04-26T13:51:11.995Z</time></trkpt><trkpt lat="45.73911322744355" lon="11.306045682374993"><ele>612.0</ele><time>2026-04-26T13:51:12.995Z</time></trkpt><trkpt lat="45.739050030564506" lon="11.306143690625762"><ele>610.0</ele><time>2026-04-26T13:51:13.995Z</time></trkpt><trkpt lat="45.738967090648934" lon="11.30619781767469"><ele>610.0</ele><time>2026-04-26T13:51:14.994Z</time></trkpt><trkpt lat="45.73886931514967" lon="11.306216183099028"><ele>610.0</ele><time>2026-04-26T13:51:15.994Z</time></trkpt><trkpt lat="45.73876376849276" lon="11.30622849233917"><ele>610.0</ele><time>2026-04-26T13:51:16.994Z</time></trkpt><trkpt lat="45.73864884246765" lon="11.306246791979904"><ele>610.0</ele><time>2026-04-26T13:51:17.994Z</time></trkpt><trkpt lat="45.73853126166304" lon="11.306270364425814"><ele>610.0</ele><time>2026-04-26T13:51:18.994Z</time></trkpt><trkpt lat="45.73841972038108" lon="11.306296991885645"><ele>611.2</ele><time>2026-04-26T13:51:19.994Z</time></trkpt><trkpt lat="45.73831957698638" lon="11.30634443248215"><ele>612.4</ele><time>2026-04-26T13:51:20.994Z</time></trkpt><trkpt lat="45.73822770109662" lon="11.306399066891283"><ele>613.6</ele><time>2026-04-26T13:51:21.994Z</time></trkpt><trkpt lat="45.738143529890756" lon="11.306461916196636"><ele>614.8</ele><time>2026-04-26T13:51:22.994Z</time></trkpt><trkpt lat="45.73808854703241" lon="11.306585302039716"><ele>616.0</ele><time>2026-04-26T13:51:23.994Z</time></trkpt><trkpt lat="45.73804935677688" lon="11.306739412682079"><ele>613.0</ele><time>2026-04-26T13:51:24.994Z</time></trkpt><trkpt lat="45.73801824846165" lon="11.306908585351307"><ele>610.0</ele><time>2026-04-26T13:51:25.994Z</time></trkpt><trkpt lat="45.737986645220886" lon="11.307081393225257"><ele>607.0</ele><time>2026-04-26T13:51:26.994Z</time></trkpt><trkpt lat="45.737957027486445" lon="11.307249311403835"><ele>604.0</ele><time>2026-04-26T13:51:27.994Z</time></trkpt><trkpt lat="45.73792573872995" lon="11.307408660718071"><ele>604.0</ele><time>2026-04-26T13:51:28.994Z</time></trkpt><trkpt lat="45.73789155189315" lon="11.307558988043544"><ele>604.0</ele><time>2026-04-26T13:51:29.994Z</time></trkpt><trkpt lat="45.73786558754358" lon="11.307696795864889"><ele>604.0</ele><time>2026-04-26T13:51:30.994Z</time></trkpt><trkpt lat="45.73784518807549" lon="11.307817693836121"><ele>604.0</ele><time>2026-04-26T13:51:31.994Z</time></trkpt><trkpt lat="45.73782424623201" lon="11.307923931308746"><ele>604.0</ele><time>2026-04-26T13:51:32.994Z</time></trkpt><trkpt lat="45.737773594592056" lon="11.307995522012078"><ele>604.0</ele><time>2026-04-26T13:51:33.994Z</time></trkpt><trkpt lat="45.73770153123542" lon="11.308002740079914"><ele>604.0</ele><time>2026-04-26T13:51:34.994Z</time></trkpt><trkpt lat="45.73761608694605" lon="11.307999247747315"><ele>604.0</ele><time>2026-04-26T13:51:35.994Z</time></trkpt><trkpt lat="45.73751928909701" lon="11.30794963188696"><ele>604.0</ele><time>2026-04-26T13:51:36.994Z</time></trkpt><trkpt lat="45.73741181291898" lon="11.307890448363388"><ele>604.0</ele><time>2026-04-26T13:51:37.994Z</time></trkpt><trkpt lat="45.73731126987125" lon="11.307815316617079"><ele>604.0</ele><time>2026-04-26T13:51:38.994Z</time></trkpt><trkpt lat="45.737227035954994" lon="11.307725435656652"><ele>604.0</ele><time>2026-04-26T13:51:39.994Z</time></trkpt><trkpt lat="45.73715425819645" lon="11.307604440004422"><ele>604.0</ele><time>2026-04-26T13:51:40.994Z</time></trkpt><trkpt lat="45.73708989903898" lon="11.307479247317994"><ele>604.0</ele><time>2026-04-26T13:51:41.994Z</time></trkpt><trkpt lat="45.73702853163048" lon="11.307357273265449"><ele>604.0</ele><time>2026-04-26T13:51:42.994Z</time></trkpt><trkpt lat="45.736966240590974" lon="11.307246422125754"><ele>604.0</ele><time>2026-04-26T13:51:43.994Z</time></trkpt><trkpt lat="45.73690035163597" lon="11.307145326000171"><ele>601.2</ele><time>2026-04-26T13:51:44.994Z</time></trkpt><trkpt lat="45.736836326240045" lon="11.307046425797738"><ele>598.4</ele><time>2026-04-26T13:51:45.994Z</time></trkpt><trkpt lat="45.73678444339506" lon="11.306932528150357"><ele>595.6</ele><time>2026-04-26T13:51:46.994Z</time></trkpt><trkpt lat="45.73674845635768" lon="11.306795990483108"><ele>592.8</ele><time>2026-04-26T13:51:47.994Z</time></trkpt><trkpt lat="45.73672190158904" lon="11.306643296859678"><ele>590.0</ele><time>2026-04-26T13:51:48.994Z</time></trkpt><trkpt lat="45.7367054758163" lon="11.306479817210109"><ele>591.6666666666666</ele><time>2026-04-26T13:51:49.994Z</time></trkpt><trkpt lat="45.736675532161236" lon="11.306328548309256"><ele>593.3333333333333</ele><time>2026-04-26T13:51:50.994Z</time></trkpt><trkpt lat="45.73664661919114" lon="11.306192633885908"><ele>595.0</ele><time>2026-04-26T13:51:51.994Z</time></trkpt><trkpt lat="45.736612543508244" lon="11.306077115043136"><ele>596.6666666666666</ele><time>2026-04-26T13:51:52.994Z</time></trkpt><trkpt lat="45.7365658166957" lon="11.305998814600118"><ele>598.3333333333334</ele><time>2026-04-26T13:51:53.994Z</time></trkpt><trkpt lat="45.736496700596476" lon="11.30598983966285"><ele>600.0</ele><time>2026-04-26T13:51:54.994Z</time></trkpt><trkpt lat="45.73643246752609" lon="11.30602244747021"><ele>600.0</ele><time>2026-04-26T13:51:55.994Z</time></trkpt><trkpt lat="45.736398424854" lon="11.30613587678641"><ele>600.0</ele><time>2026-04-26T13:51:56.994Z</time></trkpt><trkpt lat="45.73636550211476" lon="11.306285278507941"><ele>600.0</ele><time>2026-04-26T13:51:57.994Z</time></trkpt><trkpt lat="45.7363114955028" lon="11.30644449007156"><ele>600.0</ele><time>2026-04-26T13:51:58.994Z</time></trkpt><trkpt lat="45.73621640590653" lon="11.306568765660991"><ele>600.0</ele><time>2026-04-26T13:51:59.994Z</time></trkpt><trkpt lat="45.73611036994031" lon="11.30668323257994"><ele>595.25</ele><time>2026-04-26T13:52:00.994Z</time></trkpt><trkpt lat="45.73600194101774" lon="11.306776937208795"><ele>590.5</ele><time>2026-04-26T13:52:01.994Z</time></trkpt><trkpt lat="45.73588150604284" lon="11.30683544621519"><ele>585.75</ele><time>2026-04-26T13:52:02.994Z</time></trkpt><trkpt lat="45.735759338833034" lon="11.306858440598718"><ele>581.0</ele><time>2026-04-26T13:52:03.994Z</time></trkpt><trkpt lat="45.735634679618954" lon="11.306887984231855"><ele>581.0</ele><time>2026-04-26T13:52:04.994Z</time></trkpt><trkpt lat="45.73551583727699" lon="11.306920179218357"><ele>581.0</ele><time>2026-04-26T13:52:05.994Z</time></trkpt><trkpt lat="45.735399652293054" lon="11.3069386005459"><ele>581.0</ele><time>2026-04-26T13:52:06.994Z</time></trkpt><trkpt lat="45.735286404300645" lon="11.306946455982485"><ele>581.0</ele><time>2026-04-26T13:52:07.994Z</time></trkpt><trkpt lat="45.73518134255428" lon="11.306950201739633"><ele>583.5</ele><time>2026-04-26T13:52:08.994Z</time></trkpt><trkpt lat="45.73508623556975" lon="11.306955103696435"><ele>586.0</ele><time>2026-04-26T13:52:09.994Z</time></trkpt><trkpt lat="45.73499820584741" lon="11.306958241813902"><ele>588.5</ele><time>2026-04-26T13:52:10.994Z</time></trkpt><trkpt lat="45.73492078467418" lon="11.30696957615604"><ele>591.0</ele><time>2026-04-26T13:52:11.994Z</time></trkpt><trkpt lat="45.73486133019104" lon="11.307025905535026"><ele>593.5</ele><time>2026-04-26T13:52:12.994Z</time></trkpt><trkpt lat="45.73482698754421" lon="11.307110475176755"><ele>596.0</ele><time>2026-04-26T13:52:13.994Z</time></trkpt><trkpt lat="45.73476880819881" lon="11.307192590495557"><ele>591.0</ele><time>2026-04-26T13:52:14.994Z</time></trkpt><trkpt lat="45.734699510401164" lon="11.307276344130937"><ele>586.0</ele><time>2026-04-26T13:52:15.993Z</time></trkpt><trkpt lat="45.734629439208845" lon="11.307368890137226"><ele>581.0</ele><time>2026-04-26T13:52:16.993Z</time></trkpt><trkpt lat="45.734561395836856" lon="11.307471833737642"><ele>576.0</ele><time>2026-04-26T13:52:17.993Z</time></trkpt><trkpt lat="45.734489058942884" lon="11.307570701942588"><ele>571.0</ele><time>2026-04-26T13:52:18.993Z</time></trkpt><trkpt lat="45.73441710851503" lon="11.307681625507609"><ele>574.2</ele><time>2026-04-26T13:52:19.993Z</time></trkpt><trkpt lat="45.73434120409458" lon="11.307786908506717"><ele>577.4000000000001</ele><time>2026-04-26T13:52:20.993Z</time></trkpt><trkpt lat="45.73426318370875" lon="11.30788403287357"><ele>580.6</ele><time>2026-04-26T13:52:21.993Z</time></trkpt><trkpt lat="45.734192644240466" lon="11.307985104350125"><ele>583.8000000000001</ele><time>2026-04-26T13:52:22.993Z</time></trkpt><trkpt lat="45.73412442382619" lon="11.308072095317948"><ele>587.0</ele><time>2026-04-26T13:52:23.993Z</time></trkpt><trkpt lat="45.73406802982939" lon="11.308162334584765"><ele>587.0</ele><time>2026-04-26T13:52:24.993Z</time></trkpt><trkpt lat="45.734022470514944" lon="11.308237642299742"><ele>587.0</ele><time>2026-04-26T13:52:25.993Z</time></trkpt><trkpt lat="45.73398050850638" lon="11.308306595824238"><ele>587.0</ele><time>2026-04-26T13:52:26.993Z</time></trkpt><trkpt lat="45.73392493991446" lon="11.308357333240126"><ele>587.0</ele><time>2026-04-26T13:52:27.993Z</time></trkpt><trkpt lat="45.7338045480431" lon="11.308379048463069"><ele>587.0</ele><time>2026-04-26T13:52:29.993Z</time></trkpt><trkpt lat="45.73374133657111" lon="11.308361125596686"><ele>587.0</ele><time>2026-04-26T13:52:30.993Z</time></trkpt><trkpt lat="45.73367814665573" lon="11.308343054419039"><ele>587.0</ele><time>2026-04-26T13:52:31.993Z</time></trkpt><trkpt lat="45.73356545108657" lon="11.308349647628736"><ele>587.0</ele><time>2026-04-26T13:52:33.993Z</time></trkpt><trkpt lat="45.733493268477915" lon="11.308398648146406"><ele>587.0</ele><time>2026-04-26T13:52:35.993Z</time></trkpt><trkpt lat="45.73343005249536" lon="11.308480881198182"><ele>587.0</ele><time>2026-04-26T13:52:39.993Z</time></trkpt><trkpt lat="45.73334751938694" lon="11.308532163752231"><ele>587.0</ele><time>2026-04-26T13:52:41.995Z</time></trkpt><trkpt lat="45.733265047191736" lon="11.308622771893582"><ele>588.4</ele><time>2026-04-26T13:52:43.996Z</time></trkpt><trkpt lat="45.73318620353853" lon="11.308709980937582"><ele>589.8000000000001</ele><time>2026-04-26T13:52:45.996Z</time></trkpt><trkpt lat="45.733118705184445" lon="11.308808052905437"><ele>591.2</ele><time>2026-04-26T13:52:47.997Z</time></trkpt><trkpt lat="45.73306510859105" lon="11.308944298853728"><ele>592.6</ele><time>2026-04-26T13:52:49.997Z</time></trkpt><trkpt lat="45.73300407403206" lon="11.309085331481691"><ele>594.0</ele><time>2026-04-26T13:52:51.997Z</time></trkpt><trkpt lat="45.73293971364653" lon="11.309231045155695"><ele>590.5</ele><time>2026-04-26T13:52:53.998Z</time></trkpt><trkpt lat="45.73287701802662" lon="11.309372060969084"><ele>587.0</ele><time>2026-04-26T13:52:55.998Z</time></trkpt><trkpt lat="45.732816442502184" lon="11.309521338508072"><ele>583.5</ele><time>2026-04-26T13:52:57.998Z</time></trkpt><trkpt lat="45.73277926937013" lon="11.309678062145835"><ele>580.0</ele><time>2026-04-26T13:52:59.998Z</time></trkpt><trkpt lat="45.732790435605935" lon="11.309829862411327"><ele>578.4</ele><time>2026-04-26T13:53:01.998Z</time></trkpt><trkpt lat="45.73287566422643" lon="11.309932625461629"><ele>576.8</ele><time>2026-04-26T13:53:03.999Z</time></trkpt><trkpt lat="45.7329620810458" lon="11.309951082439511"><ele>575.2</ele><time>2026-04-26T13:53:05.999Z</time></trkpt><trkpt lat="45.73302639780448" lon="11.309969173016297"><ele>573.6</ele><time>2026-04-26T13:53:07.999Z</time></trkpt><trkpt lat="45.73296774506996" lon="11.310052938284231"><ele>572.0</ele><time>2026-04-26T13:53:11.999Z</time></trkpt><trkpt lat="45.73285545150008" lon="11.310032185681349"><ele>572.0</ele><time>2026-04-26T13:53:13.999Z</time></trkpt><trkpt lat="45.732737746137424" lon="11.30998757412065"><ele>572.0</ele><time>2026-04-26T13:53:15.999Z</time></trkpt><trkpt lat="45.73263108926419" lon="11.309916679256316"><ele>572.0</ele><time>2026-04-26T13:53:17.999Z</time></trkpt><trkpt lat="45.73251839433613" lon="11.309851599380826"><ele>572.0</ele><time>2026-04-26T13:53:19.999Z</time></trkpt><trkpt lat="45.73241298029002" lon="11.309863961885688"><ele>572.1666666666666</ele><time>2026-04-26T13:53:21.999Z</time></trkpt><trkpt lat="45.732350848169354" lon="11.309906585651195"><ele>572.3333333333333</ele><time>2026-04-26T13:53:23.999Z</time></trkpt><trkpt lat="45.73227361534532" lon="11.309976269984707"><ele>572.5</ele><time>2026-04-26T13:53:25.999Z</time></trkpt><trkpt lat="45.73222324672458" lon="11.310037534077429"><ele>572.6666666666666</ele><time>2026-04-26T13:53:26.999Z</time></trkpt><trkpt lat="45.73216486562926" lon="11.310095777617898"><ele>572.8333333333334</ele><time>2026-04-26T13:53:27.999Z</time></trkpt><trkpt lat="45.732097645549366" lon="11.31013745990667"><ele>573.0</ele><time>2026-04-26T13:53:28.999Z</time></trkpt><trkpt lat="45.73198911332574" lon="11.310192368380351"><ele>574.8333333333334</ele><time>2026-04-26T13:53:30.999Z</time></trkpt><trkpt lat="45.731889680104736" lon="11.310185787225928"><ele>576.6666666666666</ele><time>2026-04-26T13:53:32.999Z</time></trkpt><trkpt lat="45.731791541652065" lon="11.310142587773134"><ele>578.5</ele><time>2026-04-26T13:53:34.999Z</time></trkpt><trkpt lat="45.731727570427076" lon="11.310108514651594"><ele>580.3333333333333</ele><time>2026-04-26T13:53:36.999Z</time></trkpt><trkpt lat="45.731774593303406" lon="11.31019616279329"><ele>582.1666666666666</ele><time>2026-04-26T13:53:44.999Z</time></trkpt><trkpt lat="45.73180837658934" lon="11.310297730563827"><ele>584.0</ele><time>2026-04-26T13:53:46.999Z</time></trkpt><trkpt lat="45.73185678277697" lon="11.31039753026022"><ele>582.1666666666666</ele><time>2026-04-26T13:53:48.999Z</time></trkpt><trkpt lat="45.73189094088087" lon="11.31049969150034"><ele>580.3333333333333</ele><time>2026-04-26T13:53:50.999Z</time></trkpt><trkpt lat="45.731955271880814" lon="11.310600164106562"><ele>578.5</ele><time>2026-04-26T13:53:52.999Z</time></trkpt><trkpt lat="45.73199024573816" lon="11.310676851047845"><ele>576.6666666666666</ele><time>2026-04-26T13:53:54.999Z</time></trkpt><trkpt lat="45.73197476609855" lon="11.310827529568678"><ele>574.8333333333334</ele><time>2026-04-26T13:53:56.999Z</time></trkpt><trkpt lat="45.732000621517216" lon="11.310937917327163"><ele>573.0</ele><time>2026-04-26T13:53:58.999Z</time></trkpt><trkpt lat="45.732025167056385" lon="11.311091158944436"><ele>570.8</ele><time>2026-04-26T13:54:00.999Z</time></trkpt><trkpt lat="45.73201961599046" lon="11.311221573092524"><ele>568.5999999999999</ele><time>2026-04-26T13:54:02.999Z</time></trkpt><trkpt lat="45.732007627041504" lon="11.31139263842955"><ele>566.4000000000001</ele><time>2026-04-26T13:54:04.999Z</time></trkpt><trkpt lat="45.73200485258235" lon="11.311544706207728"><ele>564.2</ele><time>2026-04-26T13:54:06.999Z</time></trkpt><trkpt lat="45.7320124538326" lon="11.311693032330659"><ele>562.0</ele><time>2026-04-26T13:54:08.999Z</time></trkpt><trkpt lat="45.73199064259218" lon="11.311835553556012"><ele>560.8000000000001</ele><time>2026-04-26T13:54:10.998Z</time></trkpt><trkpt lat="45.731942691671684" lon="11.311955020866415"><ele>559.6</ele><time>2026-04-26T13:54:12.998Z</time></trkpt><trkpt lat="45.73188421281532" lon="11.311997667289507"><ele>558.4000000000001</ele><time>2026-04-26T13:54:13.998Z</time></trkpt><trkpt lat="45.731796367962076" lon="11.312070659840392"><ele>557.2</ele><time>2026-04-26T13:54:15.998Z</time></trkpt><trkpt lat="45.73170037199918" lon="11.312132168319662"><ele>556.0</ele><time>2026-04-26T13:54:18.998Z</time></trkpt><trkpt lat="45.7316207346181" lon="11.312173258626071"><ele>554.0</ele><time>2026-04-26T13:54:20.998Z</time></trkpt><trkpt lat="45.731601072709516" lon="11.312273555609165"><ele>552.0</ele><time>2026-04-26T13:54:22.998Z</time></trkpt><trkpt lat="45.73167635147159" lon="11.312354031870688"><ele>550.0</ele><time>2026-04-26T13:54:24.998Z</time></trkpt><trkpt lat="45.73179216785026" lon="11.312380582353912"><ele>548.0</ele><time>2026-04-26T13:54:26.998Z</time></trkpt><trkpt lat="45.731907801222064" lon="11.31242116287621"><ele>546.0</ele><time>2026-04-26T13:54:28.998Z</time></trkpt><trkpt lat="45.73197468684242" lon="11.312442640976595"><ele>546.0</ele><time>2026-04-26T13:54:30.998Z</time></trkpt><trkpt lat="45.732038254636244" lon="11.312508093604718"><ele>546.0</ele><time>2026-04-26T13:54:32.998Z</time></trkpt><trkpt lat="45.73196993145104" lon="11.312596748772217"><ele>546.0</ele><time>2026-04-26T13:54:34.998Z</time></trkpt><trkpt lat="45.73190713388166" lon="11.312626869451675"><ele>546.0</ele><time>2026-04-26T13:54:35.998Z</time></trkpt><trkpt lat="45.731808493859724" lon="11.312637645360399"><ele>546.0</ele><time>2026-04-26T13:54:37.998Z</time></trkpt><trkpt lat="45.731691155642594" lon="11.312625692691967"><ele>546.0</ele><time>2026-04-26T13:54:39.998Z</time></trkpt><trkpt lat="45.73158123039192" lon="11.312671571627689"><ele>546.0</ele><time>2026-04-26T13:54:41.998Z</time></trkpt><trkpt lat="45.73152910513555" lon="11.312850719460041"><ele>546.0</ele><time>2026-04-26T13:54:43.998Z</time></trkpt><trkpt lat="45.73151905437442" lon="11.312976684351352"><ele>546.0</ele><time>2026-04-26T13:54:44.998Z</time></trkpt><trkpt lat="45.731516869358806" lon="11.31312695713723"><ele>546.0</ele><time>2026-04-26T13:54:45.998Z</time></trkpt><trkpt lat="45.73150591958135" lon="11.313291582609136"><ele>542.8</ele><time>2026-04-26T13:54:46.998Z</time></trkpt><trkpt lat="45.73149392569044" lon="11.313447987114461"><ele>539.6</ele><time>2026-04-26T13:54:47.998Z</time></trkpt><trkpt lat="45.73146752391567" lon="11.313588452876546"><ele>536.4</ele><time>2026-04-26T13:54:48.998Z</time></trkpt><trkpt lat="45.73143163106732" lon="11.313712646438463"><ele>533.2</ele><time>2026-04-26T13:54:49.998Z</time></trkpt><trkpt lat="45.731380958528064" lon="11.313823236520072"><ele>530.0</ele><time>2026-04-26T13:54:50.998Z</time></trkpt><trkpt lat="45.73130525543816" lon="11.313913200074381"><ele>527.3333333333333</ele><time>2026-04-26T13:54:51.998Z</time></trkpt><trkpt lat="45.731237267131704" lon="11.31397767263664"><ele>524.6666666666666</ele><time>2026-04-26T13:54:52.998Z</time></trkpt><trkpt lat="45.73115733420587" lon="11.314016355237209"><ele>522.0</ele><time>2026-04-26T13:54:53.998Z</time></trkpt><trkpt lat="45.731080013213294" lon="11.314035436708316"><ele>519.3333333333334</ele><time>2026-04-26T13:54:54.998Z</time></trkpt><trkpt lat="45.731001998979856" lon="11.314042144034989"><ele>516.6666666666667</ele><time>2026-04-26T13:54:55.998Z</time></trkpt><trkpt lat="45.730921194037144" lon="11.314045060840895"><ele>514.0</ele><time>2026-04-26T13:54:56.998Z</time></trkpt><trkpt lat="45.73085781709314" lon="11.314031031083012"><ele>514.0</ele><time>2026-04-26T13:54:57.998Z</time></trkpt><trkpt lat="45.73078745563237" lon="11.314021080684387"><ele>514.0</ele><time>2026-04-26T13:54:58.998Z</time></trkpt><trkpt lat="45.730710684034825" lon="11.314004652259175"><ele>514.0</ele><time>2026-04-26T13:54:59.998Z</time></trkpt><trkpt lat="45.73063554491078" lon="11.313986953728522"><ele>514.0</ele><time>2026-04-26T13:55:00.998Z</time></trkpt><trkpt lat="45.73054938917655" lon="11.313969045549358"><ele>514.0</ele><time>2026-04-26T13:55:01.998Z</time></trkpt><trkpt lat="45.73047581211866" lon="11.313943074706824"><ele>514.0</ele><time>2026-04-26T13:55:02.998Z</time></trkpt><trkpt lat="45.730406718695164" lon="11.313910057610821"><ele>516.3333333333334</ele><time>2026-04-26T13:55:03.998Z</time></trkpt><trkpt lat="45.730334368174915" lon="11.313865804406543"><ele>518.6666666666667</ele><time>2026-04-26T13:55:04.998Z</time></trkpt><trkpt lat="45.73026055746613" lon="11.313819005521369"><ele>521.0</ele><time>2026-04-26T13:55:05.998Z</time></trkpt><trkpt lat="45.730190214698204" lon="11.31377243934164"><ele>523.3333333333334</ele><time>2026-04-26T13:55:06.998Z</time></trkpt><trkpt lat="45.730125413415564" lon="11.313729569545906"><ele>525.6666666666666</ele><time>2026-04-26T13:55:07.998Z</time></trkpt><trkpt lat="45.73006363791848" lon="11.313691178073348"><ele>528.0</ele><time>2026-04-26T13:55:08.998Z</time></trkpt><trkpt lat="45.72993422326278" lon="11.31363711444529"><ele>528.0</ele><time>2026-04-26T13:55:10.997Z</time></trkpt><trkpt lat="45.72987053406393" lon="11.313633558768101"><ele>528.0</ele><time>2026-04-26T13:55:11.997Z</time></trkpt><trkpt lat="45.72979338966583" lon="11.313772605499752"><ele>528.0</ele><time>2026-04-26T13:55:13.997Z</time></trkpt><trkpt lat="45.72978703443786" lon="11.31390307367794"><ele>528.0</ele><time>2026-04-26T13:55:14.997Z</time></trkpt><trkpt lat="45.729784517894956" lon="11.314036996906077"><ele>528.0</ele><time>2026-04-26T13:55:15.997Z</time></trkpt><trkpt lat="45.7297797911449" lon="11.314185502888519"><ele>524.8333333333334</ele><time>2026-04-26T13:55:16.997Z</time></trkpt><trkpt lat="45.729762246865505" lon="11.31432076940304"><ele>521.6666666666666</ele><time>2026-04-26T13:55:17.997Z</time></trkpt><trkpt lat="45.7297437048424" lon="11.314453913334308"><ele>518.5</ele><time>2026-04-26T13:55:18.997Z</time></trkpt><trkpt lat="45.72973036652837" lon="11.31458186629726"><ele>515.3333333333333</ele><time>2026-04-26T13:55:19.997Z</time></trkpt><trkpt lat="45.729733187662234" lon="11.314697148519766"><ele>512.1666666666666</ele><time>2026-04-26T13:55:20.997Z</time></trkpt><trkpt lat="45.7297506374295" lon="11.314799547543204"><ele>509.0</ele><time>2026-04-26T13:55:21.997Z</time></trkpt><trkpt lat="45.72979036373015" lon="11.314892094061076"><ele>507.3333333333333</ele><time>2026-04-26T13:55:22.997Z</time></trkpt><trkpt lat="45.729847201544814" lon="11.314977917100077"><ele>505.66666666666663</ele><time>2026-04-26T13:55:23.997Z</time></trkpt><trkpt lat="45.72990593225724" lon="11.315057783004935"><ele>504.0</ele><time>2026-04-26T13:55:24.997Z</time></trkpt><trkpt lat="45.72997741896328" lon="11.315125850073281"><ele>502.33333333333337</ele><time>2026-04-26T13:55:25.997Z</time></trkpt><trkpt lat="45.73005696575823" lon="11.315160607305666"><ele>500.6666666666667</ele><time>2026-04-26T13:55:26.997Z</time></trkpt><trkpt lat="45.73013343748236" lon="11.315189148064865"><ele>499.0</ele><time>2026-04-26T13:55:27.997Z</time></trkpt><trkpt lat="45.73022121073079" lon="11.315212411784046"><ele>499.50000000000006</ele><time>2026-04-26T13:55:28.997Z</time></trkpt><trkpt lat="45.730306672488176" lon="11.315236825831256"><ele>500.0</ele><time>2026-04-26T13:55:29.997Z</time></trkpt><trkpt lat="45.73038573442053" lon="11.315253207909402"><ele>500.5</ele><time>2026-04-26T13:55:30.997Z</time></trkpt><trkpt lat="45.73046837943966" lon="11.31525605016584"><ele>501.0</ele><time>2026-04-26T13:55:31.997Z</time></trkpt><trkpt lat="45.73055713217714" lon="11.315256853243191"><ele>501.50000000000006</ele><time>2026-04-26T13:55:32.997Z</time></trkpt><trkpt lat="45.73065145424745" lon="11.315275210564264"><ele>502.0</ele><time>2026-04-26T13:55:33.997Z</time></trkpt><trkpt lat="45.73074071514845" lon="11.315296313463612"><ele>502.0</ele><time>2026-04-26T13:55:34.997Z</time></trkpt><trkpt lat="45.730824604235714" lon="11.315310862098345"><ele>502.00000000000006</ele><time>2026-04-26T13:55:35.997Z</time></trkpt><trkpt lat="45.73090373336645" lon="11.315312386425578"><ele>502.00000000000006</ele><time>2026-04-26T13:55:36.997Z</time></trkpt><trkpt lat="45.73102153238418" lon="11.315314417008011"><ele>502.0</ele><time>2026-04-26T13:55:38.997Z</time></trkpt><trkpt lat="45.73111406956558" lon="11.315370397850092"><ele>502.0</ele><time>2026-04-26T13:55:40.997Z</time></trkpt><trkpt lat="45.730914321961166" lon="11.315373012481578"><ele>502.00000000000006</ele><time>2026-04-26T13:55:48.997Z</time></trkpt><trkpt lat="45.73083669213646" lon="11.315383709680763"><ele>502.0</ele><time>2026-04-26T13:55:49.997Z</time></trkpt><trkpt lat="45.730767828443774" lon="11.315406725513082"><ele>502.0</ele><time>2026-04-26T13:55:50.997Z</time></trkpt><trkpt lat="45.730704840655456" lon="11.315427061361861"><ele>502.0</ele><time>2026-04-26T13:55:51.997Z</time></trkpt><trkpt lat="45.73061570263891" lon="11.315436500628842"><ele>502.00000000000006</ele><time>2026-04-26T13:55:53.997Z</time></trkpt><trkpt lat="45.73050167362037" lon="11.31541149054767"><ele>502.0</ele><time>2026-04-26T13:55:55.997Z</time></trkpt><trkpt lat="45.73040495964454" lon="11.315395853572698"><ele>502.00000000000006</ele><time>2026-04-26T13:55:57.997Z</time></trkpt><trkpt lat="45.73042558593423" lon="11.315495030463598"><ele>502.0</ele><time>2026-04-26T13:56:01.997Z</time></trkpt><trkpt lat="45.73051806405299" lon="11.315517819404832"><ele>502.0</ele><time>2026-04-26T13:56:03.997Z</time></trkpt><trkpt lat="45.73059097556881" lon="11.315543230026485"><ele>502.0</ele><time>2026-04-26T13:56:04.997Z</time></trkpt><trkpt lat="45.73067498470688" lon="11.31555313552481"><ele>502.00000000000006</ele><time>2026-04-26T13:56:05.997Z</time></trkpt><trkpt lat="45.730746184818216" lon="11.315565589329566"><ele>502.0</ele><time>2026-04-26T13:56:06.997Z</time></trkpt><trkpt lat="45.73081059291754" lon="11.31557525854998"><ele>502.00000000000006</ele><time>2026-04-26T13:56:07.997Z</time></trkpt><trkpt lat="45.73093852277954" lon="11.31556938527519"><ele>502.0</ele><time>2026-04-26T13:56:09.996Z</time></trkpt><trkpt lat="45.73100177766065" lon="11.315589326380746"><ele>502.0</ele><time>2026-04-26T13:56:10.996Z</time></trkpt><trkpt lat="45.73106676647502" lon="11.315596989586032"><ele>502.0</ele><time>2026-04-26T13:56:11.996Z</time></trkpt><trkpt lat="45.73116442262789" lon="11.315613436683124"><ele>502.00000000000006</ele><time>2026-04-26T13:56:13.996Z</time></trkpt><trkpt lat="45.73125548797521" lon="11.315636776415886"><ele>502.0</ele><time>2026-04-26T13:56:15.996Z</time></trkpt><trkpt lat="45.73133455953099" lon="11.315662657535034"><ele>494.6</ele><time>2026-04-26T13:56:17.996Z</time></trkpt><trkpt lat="45.73140163834748" lon="11.315700630175227"><ele>487.20000000000005</ele><time>2026-04-26T13:56:20.996Z</time></trkpt><trkpt lat="45.73157145851144" lon="11.315625128241411"><ele>479.8</ele><time>2026-04-26T13:56:25.996Z</time></trkpt><trkpt lat="45.731645828323934" lon="11.315616564390544"><ele>472.4</ele><time>2026-04-26T13:56:26.996Z</time></trkpt><trkpt lat="45.73172564495281" lon="11.315617984058585"><ele>465.0</ele><time>2026-04-26T13:56:27.996Z</time></trkpt><trkpt lat="45.73181358618758" lon="11.315618951683327"><ele>464.1666666666667</ele><time>2026-04-26T13:56:28.996Z</time></trkpt><trkpt lat="45.731895897962566" lon="11.315611146612326"><ele>463.33333333333337</ele><time>2026-04-26T13:56:29.996Z</time></trkpt><trkpt lat="45.73197051522984" lon="11.315577344509254"><ele>462.5</ele><time>2026-04-26T13:56:30.996Z</time></trkpt><trkpt lat="45.73204099478826" lon="11.315495867176049"><ele>461.6666666666667</ele><time>2026-04-26T13:56:31.996Z</time></trkpt><trkpt lat="45.732097276545566" lon="11.315401800706143"><ele>460.83333333333337</ele><time>2026-04-26T13:56:32.996Z</time></trkpt><trkpt lat="45.73213816560448" lon="11.31529611517364"><ele>460.0</ele><time>2026-04-26T13:56:33.996Z</time></trkpt><trkpt lat="45.73217777504368" lon="11.315177197797379"><ele>460.00000000000006</ele><time>2026-04-26T13:56:34.996Z</time></trkpt><trkpt lat="45.73223080161064" lon="11.315067119134303"><ele>460.0</ele><time>2026-04-26T13:56:35.996Z</time></trkpt><trkpt lat="45.73228535569424" lon="11.314954672455787"><ele>460.0</ele><time>2026-04-26T13:56:36.996Z</time></trkpt><trkpt lat="45.732329527638825" lon="11.314844003941346"><ele>460.0</ele><time>2026-04-26T13:56:37.996Z</time></trkpt><trkpt lat="45.732382301582284" lon="11.314742866515067"><ele>460.00000000000006</ele><time>2026-04-26T13:56:38.996Z</time></trkpt><trkpt lat="45.73243643089135" lon="11.314663642149682"><ele>460.0</ele><time>2026-04-26T13:56:39.996Z</time></trkpt><trkpt lat="45.7325010899293" lon="11.314598476838846"><ele>460.6666666666667</ele><time>2026-04-26T13:56:40.996Z</time></trkpt><trkpt lat="45.73256508611415" lon="11.314546770278355"><ele>461.33333333333337</ele><time>2026-04-26T13:56:41.996Z</time></trkpt><trkpt lat="45.73262748787326" lon="11.314501236698312"><ele>462.0</ele><time>2026-04-26T13:56:42.996Z</time></trkpt><trkpt lat="45.73269349103872" lon="11.314456686005652"><ele>462.66666666666663</ele><time>2026-04-26T13:56:43.996Z</time></trkpt><trkpt lat="45.73275744010155" lon="11.31440368143828"><ele>463.3333333333333</ele><time>2026-04-26T13:56:44.996Z</time></trkpt><trkpt lat="45.73285772137836" lon="11.314344238725432"><ele>464.0</ele><time>2026-04-26T13:56:46.996Z</time></trkpt><trkpt lat="45.73295733046702" lon="11.314371894563598"><ele>464.0</ele><time>2026-04-26T13:56:48.996Z</time></trkpt><trkpt lat="45.73301239668579" lon="11.314458509479"><ele>464.0</ele><time>2026-04-26T13:56:50.996Z</time></trkpt><trkpt lat="45.7329551588743" lon="11.314534171518513"><ele>464.0</ele><time>2026-04-26T13:56:52.996Z</time></trkpt><trkpt lat="45.73284537214141" lon="11.314659642846898"><ele>464.0</ele><time>2026-04-26T13:56:54.996Z</time></trkpt><trkpt lat="45.7327796194796" lon="11.314744599751013"><ele>464.0</ele><time>2026-04-26T13:56:55.996Z</time></trkpt><trkpt lat="45.73272610815942" lon="11.314820541349247"><ele>463.2</ele><time>2026-04-26T13:56:56.996Z</time></trkpt><trkpt lat="45.732676555955905" lon="11.314903818615642"><ele>462.4</ele><time>2026-04-26T13:56:57.996Z</time></trkpt><trkpt lat="45.73263910830463" lon="11.315013672359404"><ele>461.6</ele><time>2026-04-26T13:56:58.996Z</time></trkpt><trkpt lat="45.73259830703936" lon="11.31513708507838"><ele>460.8</ele><time>2026-04-26T13:56:59.996Z</time></trkpt><trkpt lat="45.73255495951632" lon="11.315269551525395"><ele>460.0</ele><time>2026-04-26T13:57:00.996Z</time></trkpt><trkpt lat="45.732517313153174" lon="11.31540468179126"><ele>460.00000000000006</ele><time>2026-04-26T13:57:01.996Z</time></trkpt><trkpt lat="45.732478759636265" lon="11.315534694267226"><ele>460.0</ele><time>2026-04-26T13:57:02.996Z</time></trkpt><trkpt lat="45.73245168199492" lon="11.315647074031006"><ele>460.0</ele><time>2026-04-26T13:57:03.996Z</time></trkpt><trkpt lat="45.732428769170895" lon="11.315750043043778"><ele>460.0</ele><time>2026-04-26T13:57:04.996Z</time></trkpt><trkpt lat="45.73241394502616" lon="11.31584951930906"><ele>460.00000000000006</ele><time>2026-04-26T13:57:05.996Z</time></trkpt><trkpt lat="45.732394501200204" lon="11.315955505715893"><ele>460.0</ele><time>2026-04-26T13:57:06.996Z</time></trkpt><trkpt lat="45.73236011364449" lon="11.31604574158257"><ele>456.8</ele><time>2026-04-26T13:57:07.996Z</time></trkpt><trkpt lat="45.732282123042495" lon="11.316113135888472"><ele>453.6</ele><time>2026-04-26T13:57:08.995Z</time></trkpt><trkpt lat="45.73220341847761" lon="11.31617736609583"><ele>450.4</ele><time>2026-04-26T13:57:09.995Z</time></trkpt><trkpt lat="45.732120297878666" lon="11.316241754513804"><ele>447.2</ele><time>2026-04-26T13:57:10.995Z</time></trkpt><trkpt lat="45.73203843940712" lon="11.316308006608248"><ele>444.0</ele><time>2026-04-26T13:57:11.995Z</time></trkpt><trkpt lat="45.731969552784456" lon="11.316384787012709"><ele>444.8333333333333</ele><time>2026-04-26T13:57:12.995Z</time></trkpt><trkpt lat="45.73191374713106" lon="11.316484447598855"><ele>445.66666666666663</ele><time>2026-04-26T13:57:13.995Z</time></trkpt><trkpt lat="45.73186677119888" lon="11.316588073520814"><ele>446.5</ele><time>2026-04-26T13:57:14.995Z</time></trkpt><trkpt lat="45.731830395298765" lon="11.316697939822278"><ele>447.3333333333333</ele><time>2026-04-26T13:57:15.995Z</time></trkpt><trkpt lat="45.73180521840372" lon="11.316814209541501"><ele>448.16666666666663</ele><time>2026-04-26T13:57:16.995Z</time></trkpt><trkpt lat="45.73179620400576" lon="11.316925925524808"><ele>449.0</ele><time>2026-04-26T13:57:17.995Z</time></trkpt><trkpt lat="45.73180929043996" lon="11.317034108470667"><ele>449.0</ele><time>2026-04-26T13:57:18.995Z</time></trkpt><trkpt lat="45.731829195894754" lon="11.317147511361894"><ele>449.0</ele><time>2026-04-26T13:57:19.995Z</time></trkpt><trkpt lat="45.731831057516956" lon="11.31727332981429"><ele>449.0</ele><time>2026-04-26T13:57:20.995Z</time></trkpt><trkpt lat="45.73182082640977" lon="11.317418525080184"><ele>449.0</ele><time>2026-04-26T13:57:21.995Z</time></trkpt><trkpt lat="45.731804799710645" lon="11.317611839627347"><ele>449.0</ele><time>2026-04-26T13:57:22.995Z</time></trkpt><trkpt lat="45.73177162536474" lon="11.317812801283882"><ele>446.0</ele><time>2026-04-26T13:57:23.995Z</time></trkpt><trkpt lat="45.73174937369652" lon="11.318015416484345"><ele>443.0</ele><time>2026-04-26T13:57:24.995Z</time></trkpt><trkpt lat="45.73173698165729" lon="11.318201978222254"><ele>440.0</ele><time>2026-04-26T13:57:25.995Z</time></trkpt><trkpt lat="45.73173927334863" lon="11.31837174210244"><ele>437.0</ele><time>2026-04-26T13:57:26.995Z</time></trkpt><trkpt lat="45.73177132368823" lon="11.318507779946273"><ele>435.66666666666663</ele><time>2026-04-26T13:57:27.995Z</time></trkpt><trkpt lat="45.731809158906266" lon="11.318628786215847"><ele>434.3333333333333</ele><time>2026-04-26T13:57:28.995Z</time></trkpt><trkpt lat="45.73183029271277" lon="11.318746081242603"><ele>433.0</ele><time>2026-04-26T13:57:29.995Z</time></trkpt><trkpt lat="45.731769305673424" lon="11.318867902341395"><ele>431.66666666666663</ele><time>2026-04-26T13:57:31.995Z</time></trkpt><trkpt lat="45.73169222894445" lon="11.318878327794703"><ele>430.3333333333333</ele><time>2026-04-26T13:57:32.995Z</time></trkpt><trkpt lat="45.73160866765418" lon="11.318838911862343"><ele>429.0</ele><time>2026-04-26T13:57:33.995Z</time></trkpt><trkpt lat="45.731509815194094" lon="11.318784828440213"><ele>429.0</ele><time>2026-04-26T13:57:34.995Z</time></trkpt><trkpt lat="45.73139235792329" lon="11.318713805984613"><ele>429.0</ele><time>2026-04-26T13:57:35.995Z</time></trkpt><trkpt lat="45.7312599244758" lon="11.31866383726575"><ele>429.0</ele><time>2026-04-26T13:57:36.995Z</time></trkpt><trkpt lat="45.73111753797685" lon="11.318633467241375"><ele>429.0</ele><time>2026-04-26T13:57:37.995Z</time></trkpt><trkpt lat="45.73097477221105" lon="11.31861734397009"><ele>428.25</ele><time>2026-04-26T13:57:38.995Z</time></trkpt><trkpt lat="45.73083110821665" lon="11.31861059936022"><ele>427.5</ele><time>2026-04-26T13:57:39.995Z</time></trkpt><trkpt lat="45.73068697392677" lon="11.31860405202011"><ele>426.75</ele><time>2026-04-26T13:57:40.995Z</time></trkpt><trkpt lat="45.73054707349488" lon="11.318596912061132"><ele>426.0</ele><time>2026-04-26T13:57:41.995Z</time></trkpt><trkpt lat="45.730398397820885" lon="11.31856870437996"><ele>426.0</ele><time>2026-04-26T13:57:42.995Z</time></trkpt><trkpt lat="45.730248122778356" lon="11.318531114308788"><ele>426.0</ele><time>2026-04-26T13:57:43.995Z</time></trkpt><trkpt lat="45.73009936315619" lon="11.31848538501847"><ele>426.0</ele><time>2026-04-26T13:57:44.995Z</time></trkpt><trkpt lat="45.72996212198724" lon="11.318437305711955"><ele>426.0</ele><time>2026-04-26T13:57:45.995Z</time></trkpt><trkpt lat="45.72983717376613" lon="11.318389981220285"><ele>424.20000000000005</ele><time>2026-04-26T13:57:46.995Z</time></trkpt><trkpt lat="45.72971883962226" lon="11.318343254874582"><ele>422.40000000000003</ele><time>2026-04-26T13:57:47.995Z</time></trkpt><trkpt lat="45.72962277791385" lon="11.318306533061875"><ele>420.6</ele><time>2026-04-26T13:57:48.995Z</time></trkpt><trkpt lat="45.729529998401226" lon="11.318270314535496"><ele>418.8</ele><time>2026-04-26T13:57:49.995Z</time></trkpt><trkpt lat="45.729435351652135" lon="11.318225236618357"><ele>417.0</ele><time>2026-04-26T13:57:50.995Z</time></trkpt><trkpt lat="45.72934788368893" lon="11.318153112403978"><ele>415.8333333333333</ele><time>2026-04-26T13:57:52.995Z</time></trkpt><trkpt lat="45.72929348649663" lon="11.31805394273979"><ele>414.66666666666663</ele><time>2026-04-26T13:57:53.995Z</time></trkpt><trkpt lat="45.72921294476053" lon="11.317991536142737"><ele>413.5</ele><time>2026-04-26T13:57:54.995Z</time></trkpt><trkpt lat="45.729130538417316" lon="11.31797340081662"><ele>412.3333333333333</ele><time>2026-04-26T13:57:55.995Z</time></trkpt><trkpt lat="45.7290512644103" lon="11.317970339114348"><ele>411.16666666666663</ele><time>2026-04-26T13:57:56.995Z</time></trkpt><trkpt lat="45.728978345837184" lon="11.317992976418505"><ele>410.0</ele><time>2026-04-26T13:57:57.995Z</time></trkpt><trkpt lat="45.728929485540874" lon="11.318082028245254"><ele>410.0</ele><time>2026-04-26T13:57:58.995Z</time></trkpt><trkpt lat="45.72886789498435" lon="11.31811268519111"><ele>410.0</ele><time>2026-04-26T13:57:59.995Z</time></trkpt><trkpt lat="45.7288053749927" lon="11.318167323743236"><ele>410.0</ele><time>2026-04-26T13:58:00.995Z</time></trkpt><trkpt lat="45.728740182489105" lon="11.318294444168293"><ele>410.0</ele><time>2026-04-26T13:58:02.995Z</time></trkpt><trkpt lat="45.72877549492031" lon="11.318470983757242"><ele>410.0</ele><time>2026-04-26T13:58:08.994Z</time></trkpt><trkpt lat="45.728832021670044" lon="11.318564934943298"><ele>410.0</ele><time>2026-04-26T13:58:09.994Z</time></trkpt><trkpt lat="45.72889703968537" lon="11.318668210494728"><ele>410.0</ele><time>2026-04-26T13:58:10.994Z</time></trkpt><trkpt lat="45.72898038749058" lon="11.31879632126286"><ele>410.0</ele><time>2026-04-26T13:58:11.994Z</time></trkpt><trkpt lat="45.72908739144495" lon="11.318915662635293"><ele>410.0</ele><time>2026-04-26T13:58:12.994Z</time></trkpt><trkpt lat="45.72918689284016" lon="11.319051700179816"><ele>406.3333333333333</ele><time>2026-04-26T13:58:13.994Z</time></trkpt><trkpt lat="45.72932955622912" lon="11.319223214152949"><ele>402.66666666666663</ele><time>2026-04-26T13:58:14.994Z</time></trkpt><trkpt lat="45.72944383814072" lon="11.319350931136745"><ele>399.0</ele><time>2026-04-26T13:58:15.994Z</time></trkpt><trkpt lat="45.72955318836883" lon="11.319470501371653"><ele>398.5</ele><time>2026-04-26T13:58:16.994Z</time></trkpt><trkpt lat="45.729666798933316" lon="11.319564824818492"><ele>398.0</ele><time>2026-04-26T13:58:17.994Z</time></trkpt><trkpt lat="45.72978053981512" lon="11.319643231345255"><ele>397.5</ele><time>2026-04-26T13:58:18.994Z</time></trkpt><trkpt lat="45.72989350123846" lon="11.31972039788623"><ele>397.0</ele><time>2026-04-26T13:58:19.994Z</time></trkpt><trkpt lat="45.7300107223719" lon="11.319792037465172"><ele>395.6</ele><time>2026-04-26T13:58:20.994Z</time></trkpt><trkpt lat="45.73012030953016" lon="11.319885031553664"><ele>394.20000000000005</ele><time>2026-04-26T13:58:21.994Z</time></trkpt><trkpt lat="45.730220142093735" lon="11.319972191587413"><ele>392.8</ele><time>2026-04-26T13:58:22.994Z</time></trkpt><trkpt lat="45.73030184370255" lon="11.320043027106143"><ele>391.4</ele><time>2026-04-26T13:58:23.994Z</time></trkpt><trkpt lat="45.73035192577993" lon="11.320130665962212"><ele>390.0</ele><time>2026-04-26T13:58:24.994Z</time></trkpt><trkpt lat="45.73038894862027" lon="11.320211982788168"><ele>390.0</ele><time>2026-04-26T13:58:25.994Z</time></trkpt><trkpt lat="45.73040407680543" lon="11.320383955162098"><ele>390.0</ele><time>2026-04-26T13:58:27.994Z</time></trkpt><trkpt lat="45.73025797090376" lon="11.32042627338164"><ele>390.0</ele><time>2026-04-26T13:58:29.994Z</time></trkpt><trkpt lat="45.730146385755866" lon="11.320453555124494"><ele>390.0</ele><time>2026-04-26T13:58:30.994Z</time></trkpt><trkpt lat="45.73004603362385" lon="11.32046862051133"><ele>388.2</ele><time>2026-04-26T13:58:31.994Z</time></trkpt><trkpt lat="45.72994933182717" lon="11.320499984313804"><ele>386.4</ele><time>2026-04-26T13:58:32.994Z</time></trkpt><trkpt lat="45.729835151507935" lon="11.320530794906144"><ele>384.6</ele><time>2026-04-26T13:58:33.994Z</time></trkpt><trkpt lat="45.729731810178265" lon="11.320535428589677"><ele>382.8</ele><time>2026-04-26T13:58:34.994Z</time></trkpt><trkpt lat="45.72964100440091" lon="11.320517581415237"><ele>381.0</ele><time>2026-04-26T13:58:35.994Z</time></trkpt><trkpt lat="45.72955402112443" lon="11.320498592487484"><ele>381.0</ele><time>2026-04-26T13:58:36.994Z</time></trkpt><trkpt lat="45.729483895497395" lon="11.320464410499675"><ele>381.0</ele><time>2026-04-26T13:58:37.994Z</time></trkpt><trkpt lat="45.72935038033379" lon="11.320456177914675"><ele>381.0</ele><time>2026-04-26T13:58:39.994Z</time></trkpt><trkpt lat="45.729285094846404" lon="11.320490593193002"><ele>381.0</ele><time>2026-04-26T13:58:40.994Z</time></trkpt><trkpt lat="45.72921497193144" lon="11.320605853910966"><ele>381.0</ele><time>2026-04-26T13:58:42.994Z</time></trkpt><trkpt lat="45.72921302580705" lon="11.320755668295808"><ele>380.0</ele><time>2026-04-26T13:58:43.994Z</time></trkpt><trkpt lat="45.72923863414434" lon="11.320940774091767"><ele>379.0</ele><time>2026-04-26T13:58:44.994Z</time></trkpt><trkpt lat="45.72928051719227" lon="11.321135164775143"><ele>378.0</ele><time>2026-04-26T13:58:45.994Z</time></trkpt><trkpt lat="45.729335538836295" lon="11.32134585499213"><ele>377.0</ele><time>2026-04-26T13:58:46.994Z</time></trkpt><trkpt lat="45.72940399351083" lon="11.321549849958284"><ele>374.0</ele><time>2026-04-26T13:58:47.994Z</time></trkpt><trkpt lat="45.7294659788829" lon="11.321716998606941"><ele>371.0</ele><time>2026-04-26T13:58:48.994Z</time></trkpt><trkpt lat="45.729521192342744" lon="11.321862508213338"><ele>368.0</ele><time>2026-04-26T13:58:49.994Z</time></trkpt><trkpt lat="45.729563007301984" lon="11.32198439562592"><ele>365.0</ele><time>2026-04-26T13:58:50.994Z</time></trkpt><trkpt lat="45.72959989213531" lon="11.322104042625098"><ele>362.0</ele><time>2026-04-26T13:58:51.994Z</time></trkpt><trkpt lat="45.72959699388957" lon="11.322223319379095"><ele>360.83333333333337</ele><time>2026-04-26T13:58:52.994Z</time></trkpt><trkpt lat="45.72953888341242" lon="11.322313029256868"><ele>359.6666666666667</ele><time>2026-04-26T13:58:53.994Z</time></trkpt><trkpt lat="45.7294726309774" lon="11.322385471771184"><ele>358.5</ele><time>2026-04-26T13:58:54.994Z</time></trkpt><trkpt lat="45.72940400371365" lon="11.32245281453943"><ele>357.3333333333333</ele><time>2026-04-26T13:58:55.994Z</time></trkpt><trkpt lat="45.72934127346913" lon="11.322513884832183"><ele>356.16666666666663</ele><time>2026-04-26T13:58:56.994Z</time></trkpt><trkpt lat="45.72927244502691" lon="11.322553504156955"><ele>355.0</ele><time>2026-04-26T13:58:57.994Z</time></trkpt><trkpt lat="45.729206859120346" lon="11.322568447432992"><ele>355.0</ele><time>2026-04-26T13:58:58.994Z</time></trkpt><trkpt lat="45.72912786230088" lon="11.322572649796314"><ele>355.0</ele><time>2026-04-26T13:58:59.994Z</time></trkpt><trkpt lat="45.729050367224104" lon="11.322505753786574"><ele>355.0</ele><time>2026-04-26T13:59:00.994Z</time></trkpt><trkpt lat="45.728981818050705" lon="11.32245896201427"><ele>355.0</ele><time>2026-04-26T13:59:01.994Z</time></trkpt><trkpt lat="45.728916821612124" lon="11.322391664904874"><ele>355.0</ele><time>2026-04-26T13:59:02.994Z</time></trkpt><trkpt lat="45.72888926218085" lon="11.322279930953503"><ele>355.0</ele><time>2026-04-26T13:59:03.994Z</time></trkpt><trkpt lat="45.728901215509886" lon="11.322153168126153"><ele>355.0</ele><time>2026-04-26T13:59:04.994Z</time></trkpt><trkpt lat="45.72889926068006" lon="11.321983200595902"><ele>355.0</ele><time>2026-04-26T13:59:05.994Z</time></trkpt><trkpt lat="45.72888770298706" lon="11.321839580207"><ele>355.0</ele><time>2026-04-26T13:59:06.993Z</time></trkpt><trkpt lat="45.72887086220474" lon="11.32170249018302"><ele>355.0</ele><time>2026-04-26T13:59:07.993Z</time></trkpt><trkpt lat="45.72886427945493" lon="11.321592452009137"><ele>355.0</ele><time>2026-04-26T13:59:08.993Z</time></trkpt><trkpt lat="45.72884785979538" lon="11.321499341989872"><ele>355.0</ele><time>2026-04-26T13:59:09.993Z</time></trkpt><trkpt lat="45.72884654754682" lon="11.321646547215648"><ele>355.0</ele><time>2026-04-26T13:59:12.993Z</time></trkpt><trkpt lat="45.72886863224873" lon="11.321748128412422"><ele>355.0</ele><time>2026-04-26T13:59:13.993Z</time></trkpt><trkpt lat="45.72886768658" lon="11.321861850808268"><ele>355.0</ele><time>2026-04-26T13:59:14.993Z</time></trkpt><trkpt lat="45.72884257773535" lon="11.321980676458915"><ele>355.0</ele><time>2026-04-26T13:59:15.993Z</time></trkpt><trkpt lat="45.7288286529695" lon="11.322108768890105"><ele>355.0</ele><time>2026-04-26T13:59:16.993Z</time></trkpt><trkpt lat="45.72885370662929" lon="11.322249565072667"><ele>352.0</ele><time>2026-04-26T13:59:17.993Z</time></trkpt><trkpt lat="45.72895905005205" lon="11.322331840533097"><ele>349.0</ele><time>2026-04-26T13:59:18.993Z</time></trkpt><trkpt lat="45.72904717129217" lon="11.32243239524998"><ele>346.0</ele><time>2026-04-26T13:59:19.993Z</time></trkpt><trkpt lat="45.729133579826694" lon="11.322521896239717"><ele>343.0</ele><time>2026-04-26T13:59:20.993Z</time></trkpt><trkpt lat="45.72920868613649" lon="11.322621067515003"><ele>340.0</ele><time>2026-04-26T13:59:21.993Z</time></trkpt><trkpt lat="45.729288207982776" lon="11.322743769573561"><ele>340.0</ele><time>2026-04-26T13:59:22.993Z</time></trkpt><trkpt lat="45.72933137866679" lon="11.322830925099895"><ele>340.0</ele><time>2026-04-26T13:59:23.993Z</time></trkpt><trkpt lat="45.729347841510766" lon="11.322926254560494"><ele>340.0</ele><time>2026-04-26T13:59:24.993Z</time></trkpt><trkpt lat="45.72934042302351" lon="11.323063392482736"><ele>340.0</ele><time>2026-04-26T13:59:25.993Z</time></trkpt><trkpt lat="45.72929987295086" lon="11.323151274266856"><ele>340.0</ele><time>2026-04-26T13:59:26.993Z</time></trkpt><trkpt lat="45.729228618156704" lon="11.323255092551182"><ele>340.0</ele><time>2026-04-26T13:59:28.993Z</time></trkpt><trkpt lat="45.729152514497834" lon="11.323285743558104"><ele>340.8</ele><time>2026-04-26T13:59:29.993Z</time></trkpt><trkpt lat="45.72906275820548" lon="11.32331602911948"><ele>341.6</ele><time>2026-04-26T13:59:30.993Z</time></trkpt><trkpt lat="45.728978272373034" lon="11.323316548458896"><ele>342.4</ele><time>2026-04-26T13:59:31.993Z</time></trkpt><trkpt lat="45.728887846913345" lon="11.323310925218426"><ele>343.2</ele><time>2026-04-26T13:59:32.993Z</time></trkpt><trkpt lat="45.72879925793087" lon="11.323313811087793"><ele>344.0</ele><time>2026-04-26T13:59:33.993Z</time></trkpt><trkpt lat="45.7287037076718" lon="11.32335055731406"><ele>344.0</ele><time>2026-04-26T13:59:34.993Z</time></trkpt><trkpt lat="45.72863017042861" lon="11.323410277400471"><ele>344.0</ele><time>2026-04-26T13:59:35.993Z</time></trkpt><trkpt lat="45.728576094421214" lon="11.32350150363114"><ele>344.0</ele><time>2026-04-26T13:59:36.993Z</time></trkpt><trkpt lat="45.72854567458414" lon="11.32363816786786"><ele>344.0</ele><time>2026-04-26T13:59:37.993Z</time></trkpt><trkpt lat="45.728554976594154" lon="11.323837958609918"><ele>344.0</ele><time>2026-04-26T13:59:38.993Z</time></trkpt><trkpt lat="45.72854826192022" lon="11.324039189345825"><ele>341.25</ele><time>2026-04-26T13:59:39.993Z</time></trkpt><trkpt lat="45.72853986642704" lon="11.324233039547321"><ele>338.5</ele><time>2026-04-26T13:59:40.993Z</time></trkpt><trkpt lat="45.72854072710967" lon="11.324436285812888"><ele>335.75</ele><time>2026-04-26T13:59:41.993Z</time></trkpt><trkpt lat="45.72854716694154" lon="11.324625551716942"><ele>333.0</ele><time>2026-04-26T13:59:42.993Z</time></trkpt><trkpt lat="45.72857104735432" lon="11.32481877852417"><ele>333.0</ele><time>2026-04-26T13:59:43.993Z</time></trkpt><trkpt lat="45.728591234543664" lon="11.324997552366499"><ele>333.0</ele><time>2026-04-26T13:59:44.993Z</time></trkpt><trkpt lat="45.72861243949886" lon="11.325170243493515"><ele>333.0</ele><time>2026-04-26T13:59:45.993Z</time></trkpt><trkpt lat="45.72862442975208" lon="11.32533920106618"><ele>333.0</ele><time>2026-04-26T13:59:46.995Z</time></trkpt><trkpt lat="45.7286403390418" lon="11.325504346054997"><ele>330.4</ele><time>2026-04-26T13:59:47.995Z</time></trkpt><trkpt lat="45.72865669832581" lon="11.32565932207858"><ele>327.79999999999995</ele><time>2026-04-26T13:59:48.995Z</time></trkpt><trkpt lat="45.72868793523542" lon="11.325789733076256"><ele>325.2</ele><time>2026-04-26T13:59:49.995Z</time></trkpt><trkpt lat="45.72874262444289" lon="11.325895605937346"><ele>322.6</ele><time>2026-04-26T13:59:50.996Z</time></trkpt><trkpt lat="45.72882265968032" lon="11.325968973922409"><ele>320.0</ele><time>2026-04-26T13:59:51.996Z</time></trkpt><trkpt lat="45.72891783508201" lon="11.32600056816059"><ele>320.0</ele><time>2026-04-26T13:59:52.996Z</time></trkpt><trkpt lat="45.729019255124655" lon="11.326006354613614"><ele>320.0</ele><time>2026-04-26T13:59:53.996Z</time></trkpt><trkpt lat="45.72911258890232" lon="11.325990693447212"><ele>320.0</ele><time>2026-04-26T13:59:54.996Z</time></trkpt><trkpt lat="45.72920641185276" lon="11.325971016826253"><ele>320.0</ele><time>2026-04-26T13:59:55.997Z</time></trkpt><trkpt lat="45.7292759384445" lon="11.325901089373405"><ele>320.0</ele><time>2026-04-26T13:59:56.997Z</time></trkpt><trkpt lat="45.729343037062264" lon="11.325843140895065"><ele>320.0</ele><time>2026-04-26T13:59:57.997Z</time></trkpt><trkpt lat="45.72942996575236" lon="11.325885786312096"><ele>320.0</ele><time>2026-04-26T13:59:59.997Z</time></trkpt><trkpt lat="45.72937027411588" lon="11.326006173605883"><ele>320.0</ele><time>2026-04-26T14:00:02.998Z</time></trkpt><trkpt lat="45.72928957355395" lon="11.32605284246244"><ele>320.0</ele><time>2026-04-26T14:00:03.998Z</time></trkpt><trkpt lat="45.72919873304409" lon="11.32609402531883"><ele>320.0</ele><time>2026-04-26T14:00:04.998Z</time></trkpt><trkpt lat="45.72907767302524" lon="11.326098490233255"><ele>320.0</ele><time>2026-04-26T14:00:05.998Z</time></trkpt><trkpt lat="45.72893713548591" lon="11.326128866263424"><ele>320.0</ele><time>2026-04-26T14:00:06.998Z</time></trkpt><trkpt lat="45.728773366518475" lon="11.326149952562035"><ele>320.0</ele><time>2026-04-26T14:00:07.998Z</time></trkpt><trkpt lat="45.72862180240584" lon="11.326179412558536"><ele>317.5</ele><time>2026-04-26T14:00:08.998Z</time></trkpt><trkpt lat="45.72847741119564" lon="11.326231776729832"><ele>315.0</ele><time>2026-04-26T14:00:09.998Z</time></trkpt><trkpt lat="45.72833838980403" lon="11.326283306105895"><ele>312.5</ele><time>2026-04-26T14:00:10.998Z</time></trkpt><trkpt lat="45.728202344817895" lon="11.326354489223798"><ele>310.0</ele><time>2026-04-26T14:00:11.998Z</time></trkpt><trkpt lat="45.728068833091584" lon="11.326422461195904"><ele>308.5</ele><time>2026-04-26T14:00:12.998Z</time></trkpt><trkpt lat="45.727944029273644" lon="11.326485472012859"><ele>307.0</ele><time>2026-04-26T14:00:13.998Z</time></trkpt><trkpt lat="45.72782476805034" lon="11.326522629182595"><ele>305.5</ele><time>2026-04-26T14:00:14.998Z</time></trkpt><trkpt lat="45.727712919797234" lon="11.326526201854191"><ele>304.0</ele><time>2026-04-26T14:00:15.998Z</time></trkpt><trkpt lat="45.727610251298444" lon="11.326491865879488"><ele>302.2</ele><time>2026-04-26T14:00:16.998Z</time></trkpt><trkpt lat="45.72751742232945" lon="11.32644687418775"><ele>300.4</ele><time>2026-04-26T14:00:17.998Z</time></trkpt><trkpt lat="45.72742968305747" lon="11.326396543395564"><ele>298.6</ele><time>2026-04-26T14:00:18.999Z</time></trkpt><trkpt lat="45.72734336700687" lon="11.326399546554608"><ele>296.8</ele><time>2026-04-26T14:00:19.999Z</time></trkpt><trkpt lat="45.727254925134815" lon="11.326446542842865"><ele>295.0</ele><time>2026-04-26T14:00:20.999Z</time></trkpt><trkpt lat="45.7271596614128" lon="11.326540510199143"><ele>295.0</ele><time>2026-04-26T14:00:21.999Z</time></trkpt><trkpt lat="45.727068783078" lon="11.326643698904615"><ele>295.0</ele><time>2026-04-26T14:00:22.999Z</time></trkpt><trkpt lat="45.72698038378326" lon="11.326743833474724"><ele>295.0</ele><time>2026-04-26T14:00:23.999Z</time></trkpt><trkpt lat="45.72689341799587" lon="11.326843539007571"><ele>295.0</ele><time>2026-04-26T14:00:24.999Z</time></trkpt><trkpt lat="45.72681875569553" lon="11.326933020887127"><ele>295.0</ele><time>2026-04-26T14:00:25.999Z</time></trkpt><trkpt lat="45.72674827862183" lon="11.327022998099064"><ele>294.16666666666663</ele><time>2026-04-26T14:00:26.999Z</time></trkpt><trkpt lat="45.72667807545784" lon="11.327112718836702"><ele>293.3333333333333</ele><time>2026-04-26T14:00:27.999Z</time></trkpt><trkpt lat="45.72661000319305" lon="11.327193500416822"><ele>292.5</ele><time>2026-04-26T14:00:28.999Z</time></trkpt><trkpt lat="45.726550611304305" lon="11.32726889617422"><ele>291.6666666666667</ele><time>2026-04-26T14:00:29.999Z</time></trkpt><trkpt lat="45.72649465042081" lon="11.327339285911853"><ele>290.83333333333337</ele><time>2026-04-26T14:00:30.999Z</time></trkpt><trkpt lat="45.726446201683785" lon="11.327399204015496"><ele>290.0</ele><time>2026-04-26T14:00:31.999Z</time></trkpt><trkpt lat="45.72639464820752" lon="11.327462203077863"><ele>289.57142857142856</ele><time>2026-04-26T14:00:32.999Z</time></trkpt><trkpt lat="45.726340817933774" lon="11.327516642383971"><ele>289.14285714285717</ele><time>2026-04-26T14:00:33.999Z</time></trkpt><trkpt lat="45.72628238023091" lon="11.327573221119186"><ele>288.7142857142857</ele><time>2026-04-26T14:00:34.999Z</time></trkpt><trkpt lat="45.72621853477046" lon="11.327626226062836"><ele>288.2857142857143</ele><time>2026-04-26T14:00:35.999Z</time></trkpt><trkpt lat="45.726153154333915" lon="11.327670226794869"><ele>287.8571428571429</ele><time>2026-04-26T14:00:36.999Z</time></trkpt><trkpt lat="45.72607838959507" lon="11.327711455090194"><ele>287.42857142857144</ele><time>2026-04-26T14:00:37.999Z</time></trkpt><trkpt lat="45.72599981354773" lon="11.327749079195803"><ele>287.0</ele><time>2026-04-26T14:00:38.999Z</time></trkpt><trkpt lat="45.72591822903026" lon="11.327781699447334"><ele>286.42857142857144</ele><time>2026-04-26T14:00:39.999Z</time></trkpt><trkpt lat="45.72585049235007" lon="11.327806021527145"><ele>285.8571428571429</ele><time>2026-04-26T14:00:40.999Z</time></trkpt><trkpt lat="45.72578343489187" lon="11.327827680913039"><ele>285.2857142857143</ele><time>2026-04-26T14:00:41.999Z</time></trkpt><trkpt lat="45.72571463832781" lon="11.327844273786114"><ele>284.7142857142857</ele><time>2026-04-26T14:00:42.999Z</time></trkpt><trkpt lat="45.72563904276521" lon="11.327855025137382"><ele>284.14285714285717</ele><time>2026-04-26T14:00:43.999Z</time></trkpt><trkpt lat="45.72556725854868" lon="11.327867240792289"><ele>283.57142857142856</ele><time>2026-04-26T14:00:44.999Z</time></trkpt><trkpt lat="45.72549543230105" lon="11.327880199960685"><ele>283.0</ele><time>2026-04-26T14:00:45.999Z</time></trkpt><trkpt lat="45.72542577685374" lon="11.327907981873912"><ele>283.0</ele><time>2026-04-26T14:00:46.999Z</time></trkpt><trkpt lat="45.72535076545196" lon="11.32793833014063"><ele>283.0</ele><time>2026-04-26T14:00:47.999Z</time></trkpt><trkpt lat="45.725286974356344" lon="11.328005975777195"><ele>283.0</ele><time>2026-04-26T14:00:48.999Z</time></trkpt><trkpt lat="45.72522663314772" lon="11.328080658189416"><ele>283.0</ele><time>2026-04-26T14:00:49.999Z</time></trkpt><trkpt lat="45.72515858576729" lon="11.328148470255988"><ele>283.0</ele><time>2026-04-26T14:00:50.999Z</time></trkpt><trkpt lat="45.725087237564566" lon="11.328212787104764"><ele>283.0</ele><time>2026-04-26T14:00:51.999Z</time></trkpt><trkpt lat="45.72501546424839" lon="11.328282493696651"><ele>281.8333333333333</ele><time>2026-04-26T14:00:52.999Z</time></trkpt><trkpt lat="45.7249457935271" lon="11.328348695254705"><ele>280.66666666666663</ele><time>2026-04-26T14:00:53.999Z</time></trkpt><trkpt lat="45.72486432756221" lon="11.328382647686766"><ele>279.5</ele><time>2026-04-26T14:00:54.999Z</time></trkpt><trkpt lat="45.72477622891552" lon="11.328414044806324"><ele>278.3333333333333</ele><time>2026-04-26T14:00:55.999Z</time></trkpt><trkpt lat="45.72468458989252" lon="11.328442252003004"><ele>277.1666666666667</ele><time>2026-04-26T14:00:56.999Z</time></trkpt><trkpt lat="45.724596514528905" lon="11.328466371381555"><ele>276.0</ele><time>2026-04-26T14:00:57.999Z</time></trkpt><trkpt lat="45.72450828768725" lon="11.328488364454191"><ele>276.0</ele><time>2026-04-26T14:00:58.999Z</time></trkpt><trkpt lat="45.72442063871351" lon="11.328521235544963"><ele>276.0</ele><time>2026-04-26T14:00:59.999Z</time></trkpt><trkpt lat="45.724328661809565" lon="11.32856974046786"><ele>276.0</ele><time>2026-04-26T14:01:00.999Z</time></trkpt><trkpt lat="45.72422838537992" lon="11.328623290605236"><ele>276.0</ele><time>2026-04-26T14:01:01.999Z</time></trkpt><trkpt lat="45.72412083446373" lon="11.32867365360538"><ele>276.0</ele><time>2026-04-26T14:01:02.998Z</time></trkpt><trkpt lat="45.724017927489115" lon="11.32873411748179"><ele>274.0</ele><time>2026-04-26T14:01:03.998Z</time></trkpt><trkpt lat="45.723919084935375" lon="11.328808244097075"><ele>272.0</ele><time>2026-04-26T14:01:04.998Z</time></trkpt><trkpt lat="45.723820097499434" lon="11.328886793475169"><ele>270.0</ele><time>2026-04-26T14:01:05.998Z</time></trkpt><trkpt lat="45.723727473416474" lon="11.328988181662046"><ele>268.0</ele><time>2026-04-26T14:01:06.998Z</time></trkpt><trkpt lat="45.72363572352166" lon="11.329104407837352"><ele>266.25</ele><time>2026-04-26T14:01:07.998Z</time></trkpt><trkpt lat="45.72354192279667" lon="11.329227854604316"><ele>264.5</ele><time>2026-04-26T14:01:08.998Z</time></trkpt><trkpt lat="45.72344274252003" lon="11.329347809386432"><ele>262.75</ele><time>2026-04-26T14:01:09.998Z</time></trkpt><trkpt lat="45.72334262524937" lon="11.329464837012605"><ele>261.0</ele><time>2026-04-26T14:01:10.998Z</time></trkpt><trkpt lat="45.72324477226468" lon="11.329578401941323"><ele>261.0</ele><time>2026-04-26T14:01:11.998Z</time></trkpt><trkpt lat="45.72314941737259" lon="11.32968969231098"><ele>261.0</ele><time>2026-04-26T14:01:12.998Z</time></trkpt><trkpt lat="45.72305503837072" lon="11.32979602421318"><ele>261.0</ele><time>2026-04-26T14:01:13.998Z</time></trkpt><trkpt lat="45.7229554280697" lon="11.32989216948323"><ele>261.0</ele><time>2026-04-26T14:01:14.998Z</time></trkpt><trkpt lat="45.722846399519625" lon="11.329969620998046"><ele>261.0</ele><time>2026-04-26T14:01:15.998Z</time></trkpt><trkpt lat="45.72273186239458" lon="11.330043855666633"><ele>261.0</ele><time>2026-04-26T14:01:16.998Z</time></trkpt><trkpt lat="45.72261599185517" lon="11.330122448593547"><ele>261.0</ele><time>2026-04-26T14:01:17.998Z</time></trkpt><trkpt lat="45.72249977024558" lon="11.330215151262207"><ele>261.0</ele><time>2026-04-26T14:01:18.998Z</time></trkpt><trkpt lat="45.72238307551944" lon="11.330303886547354"><ele>260.0</ele><time>2026-04-26T14:01:19.998Z</time></trkpt><trkpt lat="45.72226944375987" lon="11.33038492012058"><ele>259.0</ele><time>2026-04-26T14:01:20.998Z</time></trkpt><trkpt lat="45.72215793884239" lon="11.330465806598824"><ele>258.0</ele><time>2026-04-26T14:01:21.998Z</time></trkpt><trkpt lat="45.72204239102948" lon="11.330539123131162"><ele>257.0</ele><time>2026-04-26T14:01:22.998Z</time></trkpt><trkpt lat="45.72192665797802" lon="11.330617757647985"><ele>256.0</ele><time>2026-04-26T14:01:23.998Z</time></trkpt><trkpt lat="45.72181088358776" lon="11.330682755429528"><ele>255.0</ele><time>2026-04-26T14:01:24.998Z</time></trkpt><trkpt lat="45.721698662203714" lon="11.330747119876362"><ele>254.0</ele><time>2026-04-26T14:01:25.998Z</time></trkpt><trkpt lat="45.72158768019991" lon="11.330804496542893"><ele>253.0</ele><time>2026-04-26T14:01:26.998Z</time></trkpt><trkpt lat="45.7214800540828" lon="11.330867114159744"><ele>253.0</ele><time>2026-04-26T14:01:27.998Z</time></trkpt><trkpt lat="45.7213814219436" lon="11.33095370857446"><ele>253.0</ele><time>2026-04-26T14:01:28.998Z</time></trkpt><trkpt lat="45.72127824284111" lon="11.331043303657907"><ele>253.0</ele><time>2026-04-26T14:01:29.998Z</time></trkpt><trkpt lat="45.721172759369644" lon="11.33113593097267"><ele>253.0</ele><time>2026-04-26T14:01:30.998Z</time></trkpt><trkpt lat="45.72106556903938" lon="11.331228604976314"><ele>251.75</ele><time>2026-04-26T14:01:31.998Z</time></trkpt><trkpt lat="45.720956132163835" lon="11.331319175193435"><ele>250.5</ele><time>2026-04-26T14:01:32.998Z</time></trkpt><trkpt lat="45.72084701309399" lon="11.331416163722839"><ele>249.25</ele><time>2026-04-26T14:01:33.998Z</time></trkpt><trkpt lat="45.72073452171323" lon="11.331504204511884"><ele>248.0</ele><time>2026-04-26T14:01:34.998Z</time></trkpt><trkpt lat="45.720623996051195" lon="11.331594884065872"><ele>247.75</ele><time>2026-04-26T14:01:35.998Z</time></trkpt><trkpt lat="45.7205146779585" lon="11.33168781403272"><ele>247.5</ele><time>2026-04-26T14:01:36.998Z</time></trkpt><trkpt lat="45.720408634476875" lon="11.331786216729965"><ele>247.25</ele><time>2026-04-26T14:01:37.998Z</time></trkpt><trkpt lat="45.72029899617508" lon="11.331867237181001"><ele>247.0</ele><time>2026-04-26T14:01:38.998Z</time></trkpt><trkpt lat="45.72019168778654" lon="11.331959429197678"><ele>246.0</ele><time>2026-04-26T14:01:39.998Z</time></trkpt><trkpt lat="45.720087233806744" lon="11.332056055427707"><ele>245.0</ele><time>2026-04-26T14:01:40.998Z</time></trkpt><trkpt lat="45.71998137457975" lon="11.332144475249931"><ele>244.0</ele><time>2026-04-26T14:01:41.998Z</time></trkpt><trkpt lat="45.71987704141593" lon="11.332225714519286"><ele>243.0</ele><time>2026-04-26T14:01:42.998Z</time></trkpt><trkpt lat="45.71978038723262" lon="11.332320160521197"><ele>242.25</ele><time>2026-04-26T14:01:43.998Z</time></trkpt><trkpt lat="45.719687181936614" lon="11.332425079830061"><ele>241.5</ele><time>2026-04-26T14:01:44.998Z</time></trkpt><trkpt lat="45.71959169010083" lon="11.332535293853114"><ele>240.75</ele><time>2026-04-26T14:01:45.998Z</time></trkpt><trkpt lat="45.71949807538752" lon="11.33265714059914"><ele>240.0</ele><time>2026-04-26T14:01:46.998Z</time></trkpt><trkpt lat="45.719398466532695" lon="11.332767235686495"><ele>239.5</ele><time>2026-04-26T14:01:47.998Z</time></trkpt><trkpt lat="45.71929387581045" lon="11.332871025992349"><ele>239.0</ele><time>2026-04-26T14:01:48.998Z</time></trkpt><trkpt lat="45.719178930082386" lon="11.332962880819785"><ele>238.5</ele><time>2026-04-26T14:01:49.998Z</time></trkpt><trkpt lat="45.719061505889535" lon="11.333045653810819"><ele>238.0</ele><time>2026-04-26T14:01:50.998Z</time></trkpt><trkpt lat="45.7189483029887" lon="11.33313375770167"><ele>238.0</ele><time>2026-04-26T14:01:51.998Z</time></trkpt><trkpt lat="45.71883760758709" lon="11.333216681044497"><ele>238.0</ele><time>2026-04-26T14:01:52.998Z</time></trkpt><trkpt lat="45.718727402247445" lon="11.333289621526617"><ele>238.0</ele><time>2026-04-26T14:01:53.998Z</time></trkpt><trkpt lat="45.718625149054446" lon="11.333361918603199"><ele>238.0</ele><time>2026-04-26T14:01:54.998Z</time></trkpt><trkpt lat="45.7185271490926" lon="11.333425354309279"><ele>237.2</ele><time>2026-04-26T14:01:55.998Z</time></trkpt><trkpt lat="45.71843779532161" lon="11.333494376668016"><ele>236.4</ele><time>2026-04-26T14:01:56.998Z</time></trkpt><trkpt lat="45.71834967886948" lon="11.333571465134366"><ele>235.59999999999997</ele><time>2026-04-26T14:01:57.998Z</time></trkpt><trkpt lat="45.71825737162928" lon="11.333645678951513"><ele>234.79999999999998</ele><time>2026-04-26T14:01:58.998Z</time></trkpt><trkpt lat="45.718171643845174" lon="11.33373694546461"><ele>234.0</ele><time>2026-04-26T14:01:59.998Z</time></trkpt><trkpt lat="45.71808751985272" lon="11.333838478744322"><ele>233.5</ele><time>2026-04-26T14:02:00.998Z</time></trkpt><trkpt lat="45.717999056121435" lon="11.333937800280895"><ele>233.0</ele><time>2026-04-26T14:02:01.998Z</time></trkpt><trkpt lat="45.7179090464889" lon="11.334040396298885"><ele>232.5</ele><time>2026-04-26T14:02:02.998Z</time></trkpt><trkpt lat="45.71781702165865" lon="11.334143561017672"><ele>232.0</ele><time>2026-04-26T14:02:03.998Z</time></trkpt><trkpt lat="45.717723358378144" lon="11.334249490136047"><ele>231.75</ele><time>2026-04-26T14:02:04.998Z</time></trkpt><trkpt lat="45.717626301970704" lon="11.334349558358552"><ele>231.5</ele><time>2026-04-26T14:02:05.998Z</time></trkpt><trkpt lat="45.7175321003343" lon="11.334451792768709"><ele>231.25</ele><time>2026-04-26T14:02:06.998Z</time></trkpt><trkpt lat="45.71743628561446" lon="11.334545951706259"><ele>231.0</ele><time>2026-04-26T14:02:07.998Z</time></trkpt><trkpt lat="45.7173421906349" lon="11.334633417896034"><ele>231.0</ele><time>2026-04-26T14:02:08.998Z</time></trkpt><trkpt lat="45.717249389030904" lon="11.334714632273508"><ele>231.00000000000003</ele><time>2026-04-26T14:02:09.998Z</time></trkpt><trkpt lat="45.71715204511205" lon="11.334774428633178"><ele>231.00000000000003</ele><time>2026-04-26T14:02:10.998Z</time></trkpt><trkpt lat="45.7170505329872" lon="11.334821646442617"><ele>231.0</ele><time>2026-04-26T14:02:11.998Z</time></trkpt><trkpt lat="45.7169489540649" lon="11.334850699504557"><ele>231.0</ele><time>2026-04-26T14:02:12.998Z</time></trkpt><trkpt lat="45.71685243884662" lon="11.3348931361352"><ele>230.0</ele><time>2026-04-26T14:02:13.998Z</time></trkpt><trkpt lat="45.71675655958179" lon="11.334930389567294"><ele>229.00000000000003</ele><time>2026-04-26T14:02:14.997Z</time></trkpt><trkpt lat="45.71666535328486" lon="11.334969432790217"><ele>228.00000000000003</ele><time>2026-04-26T14:02:15.997Z</time></trkpt><trkpt lat="45.71657537124768" lon="11.335009295277827"><ele>227.0</ele><time>2026-04-26T14:02:16.997Z</time></trkpt><trkpt lat="45.7164866962573" lon="11.335042575886382"><ele>226.0</ele><time>2026-04-26T14:02:17.997Z</time></trkpt><trkpt lat="45.71640066738442" lon="11.335070867259224"><ele>225.99999999999997</ele><time>2026-04-26T14:02:18.997Z</time></trkpt><trkpt lat="45.716316303731425" lon="11.335097148122706"><ele>226.0</ele><time>2026-04-26T14:02:19.997Z</time></trkpt><trkpt lat="45.71623184496812" lon="11.335125535092528"><ele>226.0</ele><time>2026-04-26T14:02:20.997Z</time></trkpt><trkpt lat="45.71614769904122" lon="11.335150263059944"><ele>226.0</ele><time>2026-04-26T14:02:21.997Z</time></trkpt><trkpt lat="45.71607224664733" lon="11.335173479568773"><ele>225.99999999999997</ele><time>2026-04-26T14:02:22.997Z</time></trkpt><trkpt lat="45.71599921601332" lon="11.335192202996538"><ele>226.0</ele><time>2026-04-26T14:02:23.997Z</time></trkpt><trkpt lat="45.715930195559935" lon="11.335209627719312"><ele>225.49999999999997</ele><time>2026-04-26T14:02:24.997Z</time></trkpt><trkpt lat="45.71581597425636" lon="11.335240209062288"><ele>225.0</ele><time>2026-04-26T14:02:26.997Z</time></trkpt><trkpt lat="45.715718282172666" lon="11.335253800832254"><ele>224.5</ele><time>2026-04-26T14:02:28.997Z</time></trkpt><trkpt lat="45.71564548548832" lon="11.33527039876054"><ele>224.0</ele><time>2026-04-26T14:02:30.997Z</time></trkpt><trkpt lat="45.71558212168343" lon="11.335286903935659"><ele>223.49999999999997</ele><time>2026-04-26T14:02:33.997Z</time></trkpt><trkpt lat="45.71550879645832" lon="11.335267563049763"><ele>223.0</ele><time>2026-04-26T14:02:44.997Z</time></trkpt><trkpt lat="45.71541760325661" lon="11.335285889403595"><ele>222.99999999999997</ele><time>2026-04-26T14:02:46.997Z</time></trkpt><trkpt lat="45.71531911973167" lon="11.335285273373744"><ele>223.0</ele><time>2026-04-26T14:02:48.997Z</time></trkpt><trkpt lat="45.71522137954929" lon="11.335297584398889"><ele>223.0</ele><time>2026-04-26T14:02:50.997Z</time></trkpt><trkpt lat="45.71518468322129" lon="11.335389409556226"><ele>223.0</ele><time>2026-04-26T14:02:52.997Z</time></trkpt><trkpt lat="45.715213054448796" lon="11.335480036097143"><ele>222.99999999999997</ele><time>2026-04-26T14:02:59.997Z</time></trkpt><trkpt lat="45.71518302066422" lon="11.335567727553478"><ele>223.0</ele><time>2026-04-26T14:03:41.996Z</time></trkpt><trkpt lat="45.715176823157634" lon="11.335684576231781"><ele>222.60000000000002</ele><time>2026-04-26T14:03:43.996Z</time></trkpt><trkpt lat="45.71515316479661" lon="11.335808038591328"><ele>222.20000000000002</ele><time>2026-04-26T14:04:49.995Z</time></trkpt><trkpt lat="45.71515272947744" lon="11.33590345430714"><ele>221.8</ele><time>2026-04-26T14:04:51.995Z</time></trkpt><trkpt lat="45.71516023606755" lon="11.336095333012192"><ele>221.4</ele><time>2026-04-26T14:04:53.995Z</time></trkpt><trkpt lat="45.71516588246369" lon="11.336213803713578"><ele>221.0</ele><time>2026-04-26T14:04:54.995Z</time></trkpt><trkpt lat="45.715179153653985" lon="11.336346316567337"><ele>220.8</ele><time>2026-04-26T14:04:55.995Z</time></trkpt><trkpt lat="45.715195383318886" lon="11.336485493468013"><ele>220.60000000000002</ele><time>2026-04-26T14:04:56.995Z</time></trkpt><trkpt lat="45.71520593345638" lon="11.33662643694433"><ele>220.4</ele><time>2026-04-26T14:04:57.995Z</time></trkpt><trkpt lat="45.715222024154144" lon="11.336769224226595"><ele>220.2</ele><time>2026-04-26T14:04:58.995Z</time></trkpt><trkpt lat="45.71523378860854" lon="11.33690918670025"><ele>220.0</ele><time>2026-04-26T14:04:59.995Z</time></trkpt><trkpt lat="45.715240377469335" lon="11.337041268279542"><ele>219.99999999999997</ele><time>2026-04-26T14:05:00.995Z</time></trkpt><trkpt lat="45.715247558558616" lon="11.337167846494216"><ele>220.0</ele><time>2026-04-26T14:05:01.995Z</time></trkpt><trkpt lat="45.715259291451254" lon="11.337289263669307"><ele>220.0</ele><time>2026-04-26T14:05:02.995Z</time></trkpt><trkpt lat="45.71526831892505" lon="11.337412354831027"><ele>220.0</ele><time>2026-04-26T14:05:03.995Z</time></trkpt><trkpt lat="45.71527757088611" lon="11.33754172300342"><ele>219.99999999999997</ele><time>2026-04-26T14:05:04.995Z</time></trkpt><trkpt lat="45.715283989354745" lon="11.337676614688391"><ele>220.0</ele><time>2026-04-26T14:05:05.995Z</time></trkpt><trkpt lat="45.715288260986476" lon="11.337813570133102"><ele>220.0</ele><time>2026-04-26T14:05:06.995Z</time></trkpt><trkpt lat="45.715297030768184" lon="11.337950792711009"><ele>220.0</ele><time>2026-04-26T14:05:07.995Z</time></trkpt><trkpt lat="45.71530885966472" lon="11.338091148910111"><ele>220.0</ele><time>2026-04-26T14:05:08.995Z</time></trkpt><trkpt lat="45.71532168552844" lon="11.338235140205366"><ele>220.0</ele><time>2026-04-26T14:05:09.995Z</time></trkpt><trkpt lat="45.71533151975668" lon="11.338379652465392"><ele>220.0</ele><time>2026-04-26T14:05:10.995Z</time></trkpt><trkpt lat="45.7153416410612" lon="11.338524039892647"><ele>219.83333333333331</ele><time>2026-04-26T14:05:11.995Z</time></trkpt><trkpt lat="45.71535054010278" lon="11.338663983772742"><ele>219.66666666666666</ele><time>2026-04-26T14:05:12.995Z</time></trkpt><trkpt lat="45.71536060202271" lon="11.338800599904639"><ele>219.5</ele><time>2026-04-26T14:05:13.995Z</time></trkpt><trkpt lat="45.715369774783454" lon="11.338933032947091"><ele>219.33333333333331</ele><time>2026-04-26T14:05:14.995Z</time></trkpt><trkpt lat="45.715379252991845" lon="11.339051748868505"><ele>219.16666666666666</ele><time>2026-04-26T14:05:15.995Z</time></trkpt><trkpt lat="45.715386901090106" lon="11.339145726431644"><ele>219.0</ele><time>2026-04-26T14:05:16.995Z</time></trkpt><trkpt lat="45.71539580594007" lon="11.339282909706382"><ele>218.39999999999998</ele><time>2026-04-26T14:05:18.995Z</time></trkpt><trkpt lat="45.7153990171447" lon="11.339400430267396"><ele>217.79999999999998</ele><time>2026-04-26T14:05:20.995Z</time></trkpt><trkpt lat="45.715408812976236" lon="11.339534513578474"><ele>217.20000000000002</ele><time>2026-04-26T14:05:22.995Z</time></trkpt><trkpt lat="45.71542962409473" lon="11.339723060158482"><ele>216.60000000000002</ele><time>2026-04-26T14:05:24.995Z</time></trkpt><trkpt lat="45.715441353950304" lon="11.339844121733197"><ele>216.0</ele><time>2026-04-26T14:05:25.995Z</time></trkpt><trkpt lat="45.71544690931998" lon="11.339986339878013"><ele>215.5</ele><time>2026-04-26T14:05:26.995Z</time></trkpt><trkpt lat="45.71545720874551" lon="11.340144396374296"><ele>215.0</ele><time>2026-04-26T14:05:27.995Z</time></trkpt><trkpt lat="45.71547049004551" lon="11.340307306454573"><ele>214.5</ele><time>2026-04-26T14:05:28.995Z</time></trkpt><trkpt lat="45.71548052376652" lon="11.34047727648277"><ele>214.0</ele><time>2026-04-26T14:05:29.995Z</time></trkpt><trkpt lat="45.71549112418399" lon="11.340660267480995"><ele>214.0</ele><time>2026-04-26T14:05:30.995Z</time></trkpt><trkpt lat="45.71550630004727" lon="11.34085683295656"><ele>214.0</ele><time>2026-04-26T14:05:31.995Z</time></trkpt><trkpt lat="45.71552286454891" lon="11.341061467411883"><ele>214.0</ele><time>2026-04-26T14:05:32.995Z</time></trkpt><trkpt lat="45.715539920434146" lon="11.341267373030256"><ele>214.0</ele><time>2026-04-26T14:05:33.995Z</time></trkpt><trkpt lat="45.71554829050028" lon="11.341468668481818"><ele>213.25</ele><time>2026-04-26T14:05:34.995Z</time></trkpt><trkpt lat="45.715560455373506" lon="11.341659585682601"><ele>212.5</ele><time>2026-04-26T14:05:35.995Z</time></trkpt><trkpt lat="45.715562700841204" lon="11.341838634162388"><ele>211.75</ele><time>2026-04-26T14:05:36.995Z</time></trkpt><trkpt lat="45.71555409067822" lon="11.342016092072491"><ele>211.0</ele><time>2026-04-26T14:05:37.995Z</time></trkpt><trkpt lat="45.71553857517345" lon="11.34219470562409"><ele>211.0</ele><time>2026-04-26T14:05:38.995Z</time></trkpt><trkpt lat="45.71551988394675" lon="11.342376735222805"><ele>211.0</ele><time>2026-04-26T14:05:39.995Z</time></trkpt><trkpt lat="45.71549561576979" lon="11.342553173821663"><ele>211.0</ele><time>2026-04-26T14:05:40.995Z</time></trkpt><trkpt lat="45.71546479080442" lon="11.3427165574393"><ele>211.0</ele><time>2026-04-26T14:05:41.994Z</time></trkpt><trkpt lat="45.715428023828636" lon="11.342870095906568"><ele>211.0</ele><time>2026-04-26T14:05:42.994Z</time></trkpt><trkpt lat="45.715389712000594" lon="11.343013801818389"><ele>211.0</ele><time>2026-04-26T14:05:43.994Z</time></trkpt><trkpt lat="45.71535109169281" lon="11.343152525583328"><ele>211.0</ele><time>2026-04-26T14:05:44.994Z</time></trkpt><trkpt lat="45.71531001997756" lon="11.34328646376595"><ele>211.0</ele><time>2026-04-26T14:05:45.994Z</time></trkpt><trkpt lat="45.71526795994695" lon="11.343417117905595"><ele>211.0</ele><time>2026-04-26T14:05:46.994Z</time></trkpt><trkpt lat="45.7152271101593" lon="11.343548073748597"><ele>210.60000000000002</ele><time>2026-04-26T14:05:47.994Z</time></trkpt><trkpt lat="45.715185310319946" lon="11.343673294416895"><ele>210.2</ele><time>2026-04-26T14:05:48.994Z</time></trkpt><trkpt lat="45.715145966397564" lon="11.343795579520972"><ele>209.8</ele><time>2026-04-26T14:05:49.994Z</time></trkpt><trkpt lat="45.71510798124322" lon="11.34391871513029"><ele>209.39999999999998</ele><time>2026-04-26T14:05:50.994Z</time></trkpt><trkpt lat="45.71507090332162" lon="11.344039451499015"><ele>209.0</ele><time>2026-04-26T14:05:51.994Z</time></trkpt><trkpt lat="45.715031503646635" lon="11.344154491664606"><ele>209.0</ele><time>2026-04-26T14:05:52.994Z</time></trkpt><trkpt lat="45.714998003680634" lon="11.34426985901173"><ele>209.0</ele><time>2026-04-26T14:05:53.994Z</time></trkpt><trkpt lat="45.71496335149246" lon="11.344387161197991"><ele>209.0</ele><time>2026-04-26T14:05:54.994Z</time></trkpt><trkpt lat="45.714919216812255" lon="11.344505674347088"><ele>209.0</ele><time>2026-04-26T14:05:55.994Z</time></trkpt><trkpt lat="45.71487468642297" lon="11.344626838836632"><ele>209.0</ele><time>2026-04-26T14:05:56.994Z</time></trkpt><trkpt lat="45.714829095344335" lon="11.344750632305017"><ele>208.6</ele><time>2026-04-26T14:05:57.994Z</time></trkpt><trkpt lat="45.71478681805562" lon="11.344879530244626"><ele>208.2</ele><time>2026-04-26T14:05:58.994Z</time></trkpt><trkpt lat="45.714743265743095" lon="11.345007206315843"><ele>207.79999999999998</ele><time>2026-04-26T14:05:59.994Z</time></trkpt><trkpt lat="45.71469872132325" lon="11.345138906634533"><ele>207.39999999999998</ele><time>2026-04-26T14:06:00.994Z</time></trkpt><trkpt lat="45.71465138866927" lon="11.34527524098724"><ele>207.0</ele><time>2026-04-26T14:06:01.994Z</time></trkpt><trkpt lat="45.714600237276116" lon="11.345417959725655"><ele>207.0</ele><time>2026-04-26T14:06:02.994Z</time></trkpt><trkpt lat="45.714548684529866" lon="11.34556356272141"><ele>207.0</ele><time>2026-04-26T14:06:03.994Z</time></trkpt><trkpt lat="45.714494865932686" lon="11.345708448932943"><ele>207.0</ele><time>2026-04-26T14:06:04.994Z</time></trkpt><trkpt lat="45.71445177565068" lon="11.345861591361157"><ele>207.0</ele><time>2026-04-26T14:06:05.994Z</time></trkpt><trkpt lat="45.71440425793246" lon="11.34601740955629"><ele>207.0</ele><time>2026-04-26T14:06:06.994Z</time></trkpt><trkpt lat="45.714351596528516" lon="11.346175518166126"><ele>207.0</ele><time>2026-04-26T14:06:07.994Z</time></trkpt><trkpt lat="45.71430049769384" lon="11.346338591533922"><ele>207.0</ele><time>2026-04-26T14:06:08.994Z</time></trkpt><trkpt lat="45.71424875529883" lon="11.346500768581826"><ele>207.0</ele><time>2026-04-26T14:06:09.994Z</time></trkpt><trkpt lat="45.71419606046455" lon="11.346663647291274"><ele>207.0</ele><time>2026-04-26T14:06:10.994Z</time></trkpt><trkpt lat="45.71413945145795" lon="11.346826426614596"><ele>207.0</ele><time>2026-04-26T14:06:11.994Z</time></trkpt><trkpt lat="45.71408378144356" lon="11.346987915053914"><ele>207.0</ele><time>2026-04-26T14:06:12.994Z</time></trkpt><trkpt lat="45.714029901212726" lon="11.347146261332396"><ele>207.0</ele><time>2026-04-26T14:06:13.994Z</time></trkpt><trkpt lat="45.71397397324132" lon="11.347299945748473"><ele>206.75</ele><time>2026-04-26T14:06:14.994Z</time></trkpt><trkpt lat="45.71392234565107" lon="11.34745387828144"><ele>206.5</ele><time>2026-04-26T14:06:15.994Z</time></trkpt><trkpt lat="45.71387052348086" lon="11.347606840297523"><ele>206.25</ele><time>2026-04-26T14:06:16.994Z</time></trkpt><trkpt lat="45.71381697704882" lon="11.34776120221668"><ele>206.0</ele><time>2026-04-26T14:06:17.994Z</time></trkpt><trkpt lat="45.71376267362313" lon="11.347913620393095"><ele>206.0</ele><time>2026-04-26T14:06:18.994Z</time></trkpt><trkpt lat="45.71371803210423" lon="11.34806417063589"><ele>206.0</ele><time>2026-04-26T14:06:19.994Z</time></trkpt><trkpt lat="45.71366759485766" lon="11.348207925740184"><ele>206.0</ele><time>2026-04-26T14:06:20.994Z</time></trkpt><trkpt lat="45.7136195924891" lon="11.348349795095777"><ele>206.0</ele><time>2026-04-26T14:06:21.994Z</time></trkpt><trkpt lat="45.71357313856362" lon="11.348487377423545"><ele>206.0</ele><time>2026-04-26T14:06:22.994Z</time></trkpt><trkpt lat="45.713531427835974" lon="11.348624315653913"><ele>205.8</ele><time>2026-04-26T14:06:23.994Z</time></trkpt><trkpt lat="45.71348777556228" lon="11.348761594026831"><ele>205.60000000000002</ele><time>2026-04-26T14:06:24.994Z</time></trkpt><trkpt lat="45.71344429115669" lon="11.348898960240325"><ele>205.4</ele><time>2026-04-26T14:06:25.994Z</time></trkpt><trkpt lat="45.71340036963567" lon="11.34903075962384"><ele>205.2</ele><time>2026-04-26T14:06:26.994Z</time></trkpt><trkpt lat="45.71336023030735" lon="11.349158539683485"><ele>205.0</ele><time>2026-04-26T14:06:27.994Z</time></trkpt><trkpt lat="45.71332063515283" lon="11.349279692187393"><ele>204.83333333333331</ele><time>2026-04-26T14:06:28.994Z</time></trkpt><trkpt lat="45.71328117273588" lon="11.349393246668889"><ele>204.66666666666666</ele><time>2026-04-26T14:06:29.994Z</time></trkpt><trkpt lat="45.71324103934344" lon="11.349500372550896"><ele>204.5</ele><time>2026-04-26T14:06:30.994Z</time></trkpt><trkpt lat="45.713203822354984" lon="11.34961121152659"><ele>204.33333333333331</ele><time>2026-04-26T14:06:31.994Z</time></trkpt><trkpt lat="45.71316630183908" lon="11.3497271176685"><ele>204.16666666666666</ele><time>2026-04-26T14:06:32.994Z</time></trkpt><trkpt lat="45.713124064731744" lon="11.349841815176736"><ele>204.0</ele><time>2026-04-26T14:06:33.994Z</time></trkpt><trkpt lat="45.71308181588348" lon="11.349962859773818"><ele>203.79999999999998</ele><time>2026-04-26T14:06:34.994Z</time></trkpt><trkpt lat="45.71303713051141" lon="11.35009041122061"><ele>203.6</ele><time>2026-04-26T14:06:35.994Z</time></trkpt><trkpt lat="45.712991167188925" lon="11.350223491187831"><ele>203.4</ele><time>2026-04-26T14:06:36.994Z</time></trkpt><trkpt lat="45.712950161801885" lon="11.350359085886739"><ele>203.2</ele><time>2026-04-26T14:06:37.994Z</time></trkpt><trkpt lat="45.71290217172938" lon="11.350487246532877"><ele>203.0</ele><time>2026-04-26T14:06:38.994Z</time></trkpt><trkpt lat="45.71285706980425" lon="11.35061527639541"><ele>203.0</ele><time>2026-04-26T14:06:39.994Z</time></trkpt><trkpt lat="45.71281748586515" lon="11.350749666211916"><ele>203.0</ele><time>2026-04-26T14:06:40.994Z</time></trkpt><trkpt lat="45.71277489018179" lon="11.350888353514943"><ele>203.0</ele><time>2026-04-26T14:06:41.994Z</time></trkpt><trkpt lat="45.712731277182655" lon="11.351028097703788"><ele>203.0</ele><time>2026-04-26T14:06:42.994Z</time></trkpt><trkpt lat="45.71268385073106" lon="11.351167157400496"><ele>203.0</ele><time>2026-04-26T14:06:43.994Z</time></trkpt><trkpt lat="45.71263619608318" lon="11.351304987120713"><ele>202.60000000000002</ele><time>2026-04-26T14:06:44.994Z</time></trkpt><trkpt lat="45.712590818090725" lon="11.351439963013892"><ele>202.20000000000002</ele><time>2026-04-26T14:06:45.994Z</time></trkpt><trkpt lat="45.71254488304199" lon="11.351570540584428"><ele>201.8</ele><time>2026-04-26T14:06:46.994Z</time></trkpt><trkpt lat="45.712502099991426" lon="11.35169933986885"><ele>201.4</ele><time>2026-04-26T14:06:47.994Z</time></trkpt><trkpt lat="45.712461243204935" lon="11.351826578895018"><ele>201.0</ele><time>2026-04-26T14:06:48.994Z</time></trkpt><trkpt lat="45.712417290711024" lon="11.351950064972302"><ele>201.0</ele><time>2026-04-26T14:06:49.994Z</time></trkpt><trkpt lat="45.71237459694868" lon="11.352071698489386"><ele>201.0</ele><time>2026-04-26T14:06:50.993Z</time></trkpt><trkpt lat="45.71233038615057" lon="11.352189563553567"><ele>201.0</ele><time>2026-04-26T14:06:51.993Z</time></trkpt><trkpt lat="45.71229035281589" lon="11.352307780047646"><ele>201.0</ele><time>2026-04-26T14:06:52.995Z</time></trkpt><trkpt lat="45.71225477948642" lon="11.352427418009805"><ele>201.0</ele><time>2026-04-26T14:06:53.995Z</time></trkpt><trkpt lat="45.712218083966405" lon="11.35254704425326"><ele>200.66666666666666</ele><time>2026-04-26T14:06:54.996Z</time></trkpt><trkpt lat="45.712184310155855" lon="11.352667663411351"><ele>200.33333333333331</ele><time>2026-04-26T14:06:55.996Z</time></trkpt><trkpt lat="45.71214285993176" lon="11.352782028468551"><ele>200.0</ele><time>2026-04-26T14:06:56.996Z</time></trkpt><trkpt lat="45.71210242456354" lon="11.352892508650045"><ele>199.66666666666666</ele><time>2026-04-26T14:06:57.996Z</time></trkpt><trkpt lat="45.71206663863889" lon="11.352999632321852"><ele>199.33333333333331</ele><time>2026-04-26T14:06:58.996Z</time></trkpt><trkpt lat="45.71203361839203" lon="11.353100222273133"><ele>199.0</ele><time>2026-04-26T14:06:59.996Z</time></trkpt><trkpt lat="45.7119997133724" lon="11.353192204980456"><ele>198.99999999999997</ele><time>2026-04-26T14:07:00.996Z</time></trkpt><trkpt lat="45.71195612177624" lon="11.353277137478146"><ele>199.0</ele><time>2026-04-26T14:07:01.997Z</time></trkpt><trkpt lat="45.71191320047857" lon="11.35335604274612"><ele>199.0</ele><time>2026-04-26T14:07:02.997Z</time></trkpt><trkpt lat="45.711876750487065" lon="11.353447042984353"><ele>199.0</ele><time>2026-04-26T14:07:03.997Z</time></trkpt><trkpt lat="45.711858016366214" lon="11.353562283009325"><ele>198.99999999999997</ele><time>2026-04-26T14:07:04.997Z</time></trkpt><trkpt lat="45.71183598207672" lon="11.353684736760972"><ele>199.0</ele><time>2026-04-26T14:07:05.997Z</time></trkpt><trkpt lat="45.71180583957217" lon="11.353811289851008"><ele>198.99999999999997</ele><time>2026-04-26T14:07:06.997Z</time></trkpt><trkpt lat="45.71176448316168" lon="11.353931814717205"><ele>199.0</ele><time>2026-04-26T14:07:07.997Z</time></trkpt><trkpt lat="45.71172167927556" lon="11.354047239768587"><ele>199.0</ele><time>2026-04-26T14:07:08.998Z</time></trkpt><trkpt lat="45.711681755721486" lon="11.354155969324692"><ele>199.0</ele><time>2026-04-26T14:07:09.998Z</time></trkpt><trkpt lat="45.71164384088946" lon="11.354263653071124"><ele>198.99999999999997</ele><time>2026-04-26T14:07:10.998Z</time></trkpt><trkpt lat="45.711606330331335" lon="11.354371896432935"><ele>199.0</ele><time>2026-04-26T14:07:11.998Z</time></trkpt><trkpt lat="45.711568750904505" lon="11.354481162161555"><ele>198.99999999999997</ele><time>2026-04-26T14:07:12.998Z</time></trkpt><trkpt lat="45.71153009615323" lon="11.354586803766779"><ele>199.0</ele><time>2026-04-26T14:07:13.998Z</time></trkpt><trkpt lat="45.71149677407369" lon="11.35468923244717"><ele>199.0</ele><time>2026-04-26T14:07:14.998Z</time></trkpt><trkpt lat="45.71147024299646" lon="11.354786885404302"><ele>199.0</ele><time>2026-04-26T14:07:15.998Z</time></trkpt><trkpt lat="45.71144610528799" lon="11.354880036819514"><ele>198.99999999999997</ele><time>2026-04-26T14:07:16.998Z</time></trkpt><trkpt lat="45.711415053088785" lon="11.35500498134642"><ele>199.0</ele><time>2026-04-26T14:07:18.998Z</time></trkpt><trkpt lat="45.711393188290444" lon="11.355098308743086"><ele>199.0</ele><time>2026-04-26T14:07:31.999Z</time></trkpt><trkpt lat="45.7113501679879" lon="11.355171167627551"><ele>199.0</ele><time>2026-04-26T14:07:37.999Z</time></trkpt><trkpt lat="45.71127612267326" lon="11.355291347075765"><ele>199.0</ele><time>2026-04-26T14:07:39.999Z</time></trkpt><trkpt lat="45.71119909193546" lon="11.355408657052351"><ele>199.0</ele><time>2026-04-26T14:07:41.999Z</time></trkpt><trkpt lat="45.711120528370486" lon="11.35548802241469"><ele>199.0</ele><time>2026-04-26T14:07:43.999Z</time></trkpt><trkpt lat="45.71107772752832" lon="11.355623928660641"><ele>199.0</ele><time>2026-04-26T14:07:45.999Z</time></trkpt><trkpt lat="45.71108809497619" lon="11.35580679703149"><ele>199.0</ele><time>2026-04-26T14:07:47.999Z</time></trkpt><trkpt lat="45.711093283020666" lon="11.355897340693984"><ele>199.0</ele><time>2026-04-26T14:07:48.999Z</time></trkpt><trkpt lat="45.71106068919783" lon="11.356074310901166"><ele>199.0</ele><time>2026-04-26T14:07:50.999Z</time></trkpt><trkpt lat="45.71103964249895" lon="11.356171249025834"><ele>199.0</ele><time>2026-04-26T14:07:51.999Z</time></trkpt><trkpt lat="45.7110251630112" lon="11.356271430633948"><ele>199.14285714285714</ele><time>2026-04-26T14:07:52.999Z</time></trkpt><trkpt lat="45.711010337382916" lon="11.356375787235606"><ele>199.28571428571428</ele><time>2026-04-26T14:07:53.999Z</time></trkpt><trkpt lat="45.710995256671694" lon="11.356474459120445"><ele>199.42857142857144</ele><time>2026-04-26T14:07:54.999Z</time></trkpt><trkpt lat="45.710982029651035" lon="11.356568662648254"><ele>199.57142857142856</ele><time>2026-04-26T14:07:55.999Z</time></trkpt><trkpt lat="45.71097548544606" lon="11.356667636208769"><ele>199.71428571428572</ele><time>2026-04-26T14:07:56.999Z</time></trkpt><trkpt lat="45.710965389301585" lon="11.356771313131414"><ele>199.85714285714286</ele><time>2026-04-26T14:07:57.999Z</time></trkpt><trkpt lat="45.710951607460686" lon="11.356875992033695"><ele>200.0</ele><time>2026-04-26T14:07:58.999Z</time></trkpt><trkpt lat="45.71094033159482" lon="11.35698195319572"><ele>200.00000000000003</ele><time>2026-04-26T14:07:59.999Z</time></trkpt><trkpt lat="45.710932424468304" lon="11.357096707881263"><ele>200.0</ele><time>2026-04-26T14:08:00.999Z</time></trkpt><trkpt lat="45.71092042884124" lon="11.357206331172373"><ele>200.0</ele><time>2026-04-26T14:08:01.999Z</time></trkpt><trkpt lat="45.71090792357712" lon="11.357305926802361"><ele>200.0</ele><time>2026-04-26T14:08:02.999Z</time></trkpt><trkpt lat="45.71089152498258" lon="11.357400112334517"><ele>200.0</ele><time>2026-04-26T14:08:03.999Z</time></trkpt><trkpt lat="45.71088513250717" lon="11.357502011000854"><ele>200.00000000000003</ele><time>2026-04-26T14:08:04.999Z</time></trkpt><trkpt lat="45.71087191165871" lon="11.357599116424026"><ele>200.0</ele><time>2026-04-26T14:08:05.999Z</time></trkpt><trkpt lat="45.71085416677408" lon="11.357692969622336"><ele>199.33333333333334</ele><time>2026-04-26T14:08:06.999Z</time></trkpt><trkpt lat="45.71083283326473" lon="11.357786658755803"><ele>198.66666666666669</ele><time>2026-04-26T14:08:07.999Z</time></trkpt><trkpt lat="45.71081343001621" lon="11.357877452841247"><ele>198.0</ele><time>2026-04-26T14:08:08.999Z</time></trkpt><trkpt lat="45.71079657344804" lon="11.357965389572268"><ele>197.33333333333331</ele><time>2026-04-26T14:08:09.999Z</time></trkpt><trkpt lat="45.71076041193107" lon="11.35813957964424"><ele>196.66666666666666</ele><time>2026-04-26T14:08:11.999Z</time></trkpt><trkpt lat="45.71074348117339" lon="11.358227595713533"><ele>196.0</ele><time>2026-04-26T14:08:12.999Z</time></trkpt><trkpt lat="45.71070668965424" lon="11.358395673101425"><ele>195.49999999999997</ele><time>2026-04-26T14:08:14.999Z</time></trkpt><trkpt lat="45.71070165065041" lon="11.358487467430228"><ele>195.0</ele><time>2026-04-26T14:08:15.999Z</time></trkpt><trkpt lat="45.71071052037111" lon="11.358585328868127"><ele>194.5</ele><time>2026-04-26T14:08:16.999Z</time></trkpt><trkpt lat="45.710722311746885" lon="11.35869161059007"><ele>194.0</ele><time>2026-04-26T14:08:17.999Z</time></trkpt><trkpt lat="45.71070911792001" lon="11.358805592610791"><ele>193.49999999999997</ele><time>2026-04-26T14:08:18.999Z</time></trkpt><trkpt lat="45.710667061307" lon="11.358918825619082"><ele>193.0</ele><time>2026-04-26T14:08:19.999Z</time></trkpt><trkpt lat="45.71061914349084" lon="11.359029695471909"><ele>192.85714285714286</ele><time>2026-04-26T14:08:20.999Z</time></trkpt><trkpt lat="45.71058483189475" lon="11.359136790051839"><ele>192.71428571428572</ele><time>2026-04-26T14:08:21.999Z</time></trkpt><trkpt lat="45.710558299993146" lon="11.359237837170305"><ele>192.57142857142856</ele><time>2026-04-26T14:08:22.999Z</time></trkpt><trkpt lat="45.71053325682881" lon="11.359332549340253"><ele>192.42857142857144</ele><time>2026-04-26T14:08:23.999Z</time></trkpt><trkpt lat="45.71051446252805" lon="11.359425596474933"><ele>192.28571428571428</ele><time>2026-04-26T14:08:24.999Z</time></trkpt><trkpt lat="45.71049103182899" lon="11.35951186155017"><ele>192.14285714285714</ele><time>2026-04-26T14:08:25.999Z</time></trkpt><trkpt lat="45.71044825650996" lon="11.359578152867469"><ele>192.0</ele><time>2026-04-26T14:08:26.999Z</time></trkpt><trkpt lat="45.71039041331909" lon="11.35962974703692"><ele>192.0</ele><time>2026-04-26T14:08:27.999Z</time></trkpt><trkpt lat="45.71033259015571" lon="11.359694823982993"><ele>192.0</ele><time>2026-04-26T14:08:28.999Z</time></trkpt><trkpt lat="45.71028077657137" lon="11.359776740753992"><ele>192.0</ele><time>2026-04-26T14:08:29.999Z</time></trkpt><trkpt lat="45.71023998631043" lon="11.359873648679622"><ele>192.0</ele><time>2026-04-26T14:08:30.999Z</time></trkpt><trkpt lat="45.71020092255733" lon="11.359980049404447"><ele>192.0</ele><time>2026-04-26T14:08:31.999Z</time></trkpt><trkpt lat="45.71016684211328" lon="11.360100223006578"><ele>192.0</ele><time>2026-04-26T14:08:32.999Z</time></trkpt><trkpt lat="45.71013376975509" lon="11.360224216120152"><ele>191.6</ele><time>2026-04-26T14:08:33.999Z</time></trkpt><trkpt lat="45.710097031041414" lon="11.360349104887884"><ele>191.2</ele><time>2026-04-26T14:08:34.999Z</time></trkpt><trkpt lat="45.71006813417832" lon="11.360477024121382"><ele>190.8</ele><time>2026-04-26T14:08:35.999Z</time></trkpt><trkpt lat="45.710034961330365" lon="11.360605061884666"><ele>190.4</ele><time>2026-04-26T14:08:36.999Z</time></trkpt><trkpt lat="45.710001043456394" lon="11.360734705103377"><ele>190.0</ele><time>2026-04-26T14:08:37.999Z</time></trkpt><trkpt lat="45.7099665689035" lon="11.360868432048358"><ele>190.0</ele><time>2026-04-26T14:08:38.999Z</time></trkpt><trkpt lat="45.70993107490362" lon="11.3610015150136"><ele>190.0</ele><time>2026-04-26T14:08:39.999Z</time></trkpt><trkpt lat="45.70989732476948" lon="11.361134525568657"><ele>190.0</ele><time>2026-04-26T14:08:40.999Z</time></trkpt><trkpt lat="45.709865082834924" lon="11.361261384707678"><ele>190.0</ele><time>2026-04-26T14:08:41.999Z</time></trkpt><trkpt lat="45.70983579110071" lon="11.36138522490708"><ele>190.0</ele><time>2026-04-26T14:08:42.999Z</time></trkpt><trkpt lat="45.70981407685073" lon="11.361499592689729"><ele>189.83333333333334</ele><time>2026-04-26T14:08:43.999Z</time></trkpt><trkpt lat="45.70980429317616" lon="11.361601981061186"><ele>189.66666666666669</ele><time>2026-04-26T14:08:44.999Z</time></trkpt><trkpt lat="45.70979393272915" lon="11.361690904962249"><ele>189.5</ele><time>2026-04-26T14:08:45.998Z</time></trkpt><trkpt lat="45.70978731119547" lon="11.361816868000425"><ele>189.33333333333334</ele><time>2026-04-26T14:08:47.998Z</time></trkpt><trkpt lat="45.709764097969604" lon="11.361920572148021"><ele>189.16666666666666</ele><time>2026-04-26T14:08:49.998Z</time></trkpt><trkpt lat="45.70970805396291" lon="11.362016763394347"><ele>189.0</ele><time>2026-04-26T14:08:51.998Z</time></trkpt><trkpt lat="45.70963998600578" lon="11.362054561140182"><ele>189.0</ele><time>2026-04-26T14:08:53.998Z</time></trkpt><trkpt lat="45.70956733140389" lon="11.36204209776947"><ele>189.0</ele><time>2026-04-26T14:08:55.998Z</time></trkpt><trkpt lat="45.70947454186373" lon="11.362053288515574"><ele>189.0</ele><time>2026-04-26T14:08:58.998Z</time></trkpt><trkpt lat="45.70938621821831" lon="11.362122331570761"><ele>189.0</ele><time>2026-04-26T14:09:01.998Z</time></trkpt><trkpt lat="45.70933831150643" lon="11.362194517187682"><ele>189.0</ele><time>2026-04-26T14:09:03.998Z</time></trkpt><trkpt lat="45.709282753638114" lon="11.362258978292827"><ele>189.0</ele><time>2026-04-26T14:09:05.998Z</time></trkpt><trkpt lat="45.70922760849805" lon="11.362328536608066"><ele>189.0</ele><time>2026-04-26T14:09:07.998Z</time></trkpt><trkpt lat="45.70919592653023" lon="11.362408072420472"><ele>189.0</ele><time>2026-04-26T14:09:09.998Z</time></trkpt><trkpt lat="45.70914639994739" lon="11.362489367814266"><ele>189.0</ele><time>2026-04-26T14:09:13.998Z</time></trkpt><trkpt lat="45.70910465256591" lon="11.362564522914798"><ele>189.0</ele><time>2026-04-26T14:09:22.998Z</time></trkpt><trkpt lat="45.70906195104968" lon="11.362648245410961"><ele>189.0</ele><time>2026-04-26T14:09:31.998Z</time></trkpt><trkpt lat="45.70900944924848" lon="11.362717329893075"><ele>189.0</ele><time>2026-04-26T14:09:39.998Z</time></trkpt><trkpt lat="45.70896022938627" lon="11.3628202917744"><ele>189.0</ele><time>2026-04-26T14:09:42.998Z</time></trkpt><trkpt lat="45.70891154951167" lon="11.36295096629552"><ele>188.75</ele><time>2026-04-26T14:09:44.998Z</time></trkpt><trkpt lat="45.70889244098333" lon="11.36312192100527"><ele>188.5</ele><time>2026-04-26T14:09:46.998Z</time></trkpt><trkpt lat="45.708920933588836" lon="11.363309805677027"><ele>188.25</ele><time>2026-04-26T14:09:48.998Z</time></trkpt><trkpt lat="45.70889403286878" lon="11.363430147100534"><ele>188.0</ele><time>2026-04-26T14:09:49.998Z</time></trkpt><trkpt lat="45.70885384400667" lon="11.363621658444856"><ele>188.0</ele><time>2026-04-26T14:09:50.998Z</time></trkpt><trkpt lat="45.708809322932375" lon="11.363772109883035"><ele>188.0</ele><time>2026-04-26T14:09:51.998Z</time></trkpt><trkpt lat="45.708759568597486" lon="11.363906602545596"><ele>188.0</ele><time>2026-04-26T14:09:52.998Z</time></trkpt><trkpt lat="45.70872347107951" lon="11.364038450448973"><ele>188.0</ele><time>2026-04-26T14:09:53.998Z</time></trkpt><trkpt lat="45.70867599937485" lon="11.36417620268672"><ele>188.0</ele><time>2026-04-26T14:09:54.998Z</time></trkpt><trkpt lat="45.70862524123087" lon="11.3643205138061"><ele>188.0</ele><time>2026-04-26T14:09:55.998Z</time></trkpt><trkpt lat="45.70858290451157" lon="11.36445625035565"><ele>188.0</ele><time>2026-04-26T14:09:56.998Z</time></trkpt><trkpt lat="45.70854046206142" lon="11.36458780327497"><ele>188.0</ele><time>2026-04-26T14:09:57.998Z</time></trkpt><trkpt lat="45.70849119534614" lon="11.364710858333595"><ele>188.0</ele><time>2026-04-26T14:09:58.998Z</time></trkpt><trkpt lat="45.70845181739207" lon="11.364820665026105"><ele>188.0</ele><time>2026-04-26T14:09:59.998Z</time></trkpt><trkpt lat="45.708401983306125" lon="11.364905446531044"><ele>187.8</ele><time>2026-04-26T14:10:00.998Z</time></trkpt><trkpt lat="45.708340444893345" lon="11.364981527494276"><ele>187.60000000000002</ele><time>2026-04-26T14:10:01.998Z</time></trkpt><trkpt lat="45.70826471058288" lon="11.365068548336442"><ele>187.39999999999998</ele><time>2026-04-26T14:10:02.998Z</time></trkpt><trkpt lat="45.7082146109852" lon="11.36518562043251"><ele>187.2</ele><time>2026-04-26T14:10:03.998Z</time></trkpt><trkpt lat="45.70819747285038" lon="11.365324373631243"><ele>187.0</ele><time>2026-04-26T14:10:04.998Z</time></trkpt><trkpt lat="45.708174844621674" lon="11.365480808520955"><ele>186.75</ele><time>2026-04-26T14:10:05.998Z</time></trkpt><trkpt lat="45.708137021037295" lon="11.36562501024912"><ele>186.5</ele><time>2026-04-26T14:10:06.998Z</time></trkpt><trkpt lat="45.70807879152903" lon="11.365777996674987"><ele>186.25</ele><time>2026-04-26T14:10:07.998Z</time></trkpt><trkpt lat="45.70802354247069" lon="11.365926646115891"><ele>186.0</ele><time>2026-04-26T14:10:08.998Z</time></trkpt><trkpt lat="45.70795137703892" lon="11.366067942009405"><ele>186.0</ele><time>2026-04-26T14:10:09.998Z</time></trkpt><trkpt lat="45.70787987990047" lon="11.366214134802723"><ele>186.0</ele><time>2026-04-26T14:10:10.998Z</time></trkpt><trkpt lat="45.70781083903944" lon="11.366367010005273"><ele>186.0</ele><time>2026-04-26T14:10:11.998Z</time></trkpt><trkpt lat="45.707735310680135" lon="11.366521265077724"><ele>186.0</ele><time>2026-04-26T14:10:12.998Z</time></trkpt><trkpt lat="45.707664538572104" lon="11.366665743390346"><ele>185.60000000000002</ele><time>2026-04-26T14:10:13.998Z</time></trkpt><trkpt lat="45.707600586070335" lon="11.36679823693939"><ele>185.2</ele><time>2026-04-26T14:10:14.998Z</time></trkpt><trkpt lat="45.707538200255" lon="11.366919126021466"><ele>184.8</ele><time>2026-04-26T14:10:15.998Z</time></trkpt><trkpt lat="45.707475094481985" lon="11.36703218042137"><ele>184.39999999999998</ele><time>2026-04-26T14:10:16.998Z</time></trkpt><trkpt lat="45.70741920090681" lon="11.367147294639695"><ele>184.0</ele><time>2026-04-26T14:10:17.998Z</time></trkpt><trkpt lat="45.70736810743458" lon="11.367256719443974"><ele>183.83333333333334</ele><time>2026-04-26T14:10:18.998Z</time></trkpt><trkpt lat="45.70731777640942" lon="11.367366470894208"><ele>183.66666666666669</ele><time>2026-04-26T14:10:19.998Z</time></trkpt><trkpt lat="45.707271133003566" lon="11.36747344919178"><ele>183.5</ele><time>2026-04-26T14:10:20.998Z</time></trkpt><trkpt lat="45.707225310186" lon="11.367579176876518"><ele>183.33333333333334</ele><time>2026-04-26T14:10:21.998Z</time></trkpt><trkpt lat="45.70717489214225" lon="11.367688973500801"><ele>183.16666666666666</ele><time>2026-04-26T14:10:22.998Z</time></trkpt><trkpt lat="45.707131004315" lon="11.367797482284153"><ele>183.0</ele><time>2026-04-26T14:10:23.998Z</time></trkpt><trkpt lat="45.70708365473606" lon="11.3679133158225"><ele>183.0</ele><time>2026-04-26T14:10:24.998Z</time></trkpt><trkpt lat="45.70703494233749" lon="11.368025967584117"><ele>183.0</ele><time>2026-04-26T14:10:25.998Z</time></trkpt><trkpt lat="45.7069888812522" lon="11.368134997391401"><ele>183.0</ele><time>2026-04-26T14:10:26.998Z</time></trkpt><trkpt lat="45.70694545544077" lon="11.368232815199992"><ele>183.0</ele><time>2026-04-26T14:10:27.998Z</time></trkpt><trkpt lat="45.706909974031085" lon="11.36831006775259"><ele>183.0</ele><time>2026-04-26T14:10:28.998Z</time></trkpt><trkpt lat="45.7068572596826" lon="11.368432540331002"><ele>183.0</ele><time>2026-04-26T14:10:30.997Z</time></trkpt><trkpt lat="45.706820047342944" lon="11.368530205078432"><ele>182.85714285714286</ele><time>2026-04-26T14:10:32.997Z</time></trkpt><trkpt lat="45.706785062550324" lon="11.368629720813926"><ele>182.71428571428572</ele><time>2026-04-26T14:10:34.997Z</time></trkpt><trkpt lat="45.706753858547685" lon="11.368717868902387"><ele>182.57142857142856</ele><time>2026-04-26T14:10:36.997Z</time></trkpt><trkpt lat="45.70671451799282" lon="11.368804213163573"><ele>182.42857142857144</ele><time>2026-04-26T14:10:38.997Z</time></trkpt><trkpt lat="45.70666940697668" lon="11.36886865575967"><ele>182.28571428571428</ele><time>2026-04-26T14:10:40.997Z</time></trkpt><trkpt lat="45.706619098775604" lon="11.368933972290975"><ele>182.14285714285714</ele><time>2026-04-26T14:10:43.997Z</time></trkpt><trkpt lat="45.70659681671391" lon="11.36906132430544"><ele>182.0</ele><time>2026-04-26T14:10:54.997Z</time></trkpt><trkpt lat="45.70652957170322" lon="11.369220257221022"><ele>182.0</ele><time>2026-04-26T14:10:56.997Z</time></trkpt><trkpt lat="45.706480601036745" lon="11.369316733511715"><ele>182.0</ele><time>2026-04-26T14:10:57.997Z</time></trkpt><trkpt lat="45.70642865258618" lon="11.369414342499775"><ele>182.0</ele><time>2026-04-26T14:10:58.997Z</time></trkpt><trkpt lat="45.70637339482693" lon="11.369501804119944"><ele>182.0</ele><time>2026-04-26T14:10:59.997Z</time></trkpt><trkpt lat="45.70631353453043" lon="11.369574895436545"><ele>182.0</ele><time>2026-04-26T14:11:00.997Z</time></trkpt><trkpt lat="45.70624116783531" lon="11.369621777349836"><ele>182.0</ele><time>2026-04-26T14:11:01.997Z</time></trkpt><trkpt lat="45.706158666922335" lon="11.369649292544764"><ele>181.6</ele><time>2026-04-26T14:11:02.997Z</time></trkpt><trkpt lat="45.70606516236763" lon="11.369657998512638"><ele>181.2</ele><time>2026-04-26T14:11:03.997Z</time></trkpt><trkpt lat="45.70596913654129" lon="11.36964215144055"><ele>180.8</ele><time>2026-04-26T14:11:04.997Z</time></trkpt><trkpt lat="45.70587155146207" lon="11.369609025903758"><ele>180.4</ele><time>2026-04-26T14:11:05.997Z</time></trkpt><trkpt lat="45.70577071777204" lon="11.369563784346719"><ele>180.0</ele><time>2026-04-26T14:11:06.997Z</time></trkpt><trkpt lat="45.70566690134366" lon="11.369515862088313"><ele>180.0</ele><time>2026-04-26T14:11:07.997Z</time></trkpt><trkpt lat="45.705562150102736" lon="11.369461230227406"><ele>180.0</ele><time>2026-04-26T14:11:08.997Z</time></trkpt><trkpt lat="45.705457091043264" lon="11.36940369340497"><ele>180.0</ele><time>2026-04-26T14:11:09.997Z</time></trkpt><trkpt lat="45.7053514585584" lon="11.369339821672279"><ele>180.0</ele><time>2026-04-26T14:11:10.997Z</time></trkpt><trkpt lat="45.70524995129009" lon="11.369268628565305"><ele>179.75</ele><time>2026-04-26T14:11:11.997Z</time></trkpt><trkpt lat="45.70514960924905" lon="11.369186322073904"><ele>179.5</ele><time>2026-04-26T14:11:12.997Z</time></trkpt><trkpt lat="45.7050505029257" lon="11.369096293945217"><ele>179.25</ele><time>2026-04-26T14:11:13.997Z</time></trkpt><trkpt lat="45.70495379057668" lon="11.369004512873964"><ele>179.0</ele><time>2026-04-26T14:11:14.997Z</time></trkpt><trkpt lat="45.70485886767519" lon="11.368908267420965"><ele>179.2</ele><time>2026-04-26T14:11:15.997Z</time></trkpt><trkpt lat="45.7047640948182" lon="11.368812021366299"><ele>179.39999999999998</ele><time>2026-04-26T14:11:16.997Z</time></trkpt><trkpt lat="45.70466971598119" lon="11.368721698901213"><ele>179.6</ele><time>2026-04-26T14:11:17.997Z</time></trkpt><trkpt lat="45.70457545727905" lon="11.368633309620387"><ele>179.8</ele><time>2026-04-26T14:11:18.997Z</time></trkpt><trkpt lat="45.70448298563874" lon="11.368561310222525"><ele>180.0</ele><time>2026-04-26T14:11:19.997Z</time></trkpt><trkpt lat="45.70439671436048" lon="11.368505678770209"><ele>180.8</ele><time>2026-04-26T14:11:20.997Z</time></trkpt><trkpt lat="45.70431521793623" lon="11.368452398976094"><ele>181.6</ele><time>2026-04-26T14:11:21.997Z</time></trkpt><trkpt lat="45.704237086511746" lon="11.368382134811505"><ele>182.39999999999998</ele><time>2026-04-26T14:11:22.997Z</time></trkpt><trkpt lat="45.704158640320756" lon="11.368297754522874"><ele>183.2</ele><time>2026-04-26T14:11:23.997Z</time></trkpt><trkpt lat="45.70407941164703" lon="11.368210284927018"><ele>184.0</ele><time>2026-04-26T14:11:24.997Z</time></trkpt><trkpt lat="45.70399730084077" lon="11.36812937841494"><ele>184.0</ele><time>2026-04-26T14:11:25.997Z</time></trkpt><trkpt lat="45.70391069065315" lon="11.368055656359093"><ele>184.0</ele><time>2026-04-26T14:11:26.997Z</time></trkpt><trkpt lat="45.70382536467181" lon="11.36797143406264"><ele>184.0</ele><time>2026-04-26T14:11:27.997Z</time></trkpt><trkpt lat="45.70374581636809" lon="11.36787179867605"><ele>184.0</ele><time>2026-04-26T14:11:28.997Z</time></trkpt><trkpt lat="45.703664524518544" lon="11.367770119439182"><ele>184.0</ele><time>2026-04-26T14:11:29.997Z</time></trkpt><trkpt lat="45.703581407197966" lon="11.367669946132583"><ele>184.39999999999998</ele><time>2026-04-26T14:11:30.997Z</time></trkpt><trkpt lat="45.7034962930243" lon="11.3675707862632"><ele>184.8</ele><time>2026-04-26T14:11:31.997Z</time></trkpt><trkpt lat="45.70341178318524" lon="11.367472408519438"><ele>185.2</ele><time>2026-04-26T14:11:32.997Z</time></trkpt><trkpt lat="45.70332931601507" lon="11.367377956846438"><ele>185.60000000000002</ele><time>2026-04-26T14:11:33.997Z</time></trkpt><trkpt lat="45.70324981911197" lon="11.367284423357743"><ele>186.0</ele><time>2026-04-26T14:11:34.997Z</time></trkpt><trkpt lat="45.70317084013382" lon="11.367190983008987"><ele>186.20000000000002</ele><time>2026-04-26T14:11:35.997Z</time></trkpt><trkpt lat="45.70309188046341" lon="11.367098764686068"><ele>186.4</ele><time>2026-04-26T14:11:36.997Z</time></trkpt><trkpt lat="45.70301405204547" lon="11.367005565227544"><ele>186.6</ele><time>2026-04-26T14:11:37.997Z</time></trkpt><trkpt lat="45.70293824251745" lon="11.366917350731192"><ele>186.8</ele><time>2026-04-26T14:11:38.997Z</time></trkpt><trkpt lat="45.70286533033335" lon="11.366824361917121"><ele>187.0</ele><time>2026-04-26T14:11:39.997Z</time></trkpt><trkpt lat="45.702793844531385" lon="11.36672727601122"><ele>187.0</ele><time>2026-04-26T14:11:40.997Z</time></trkpt><trkpt lat="45.70272108355755" lon="11.366630365135107"><ele>187.0</ele><time>2026-04-26T14:11:41.997Z</time></trkpt><trkpt lat="45.702648099162886" lon="11.366536236602755"><ele>187.0</ele><time>2026-04-26T14:11:42.997Z</time></trkpt><trkpt lat="45.702573487549515" lon="11.366447841135326"><ele>187.0</ele><time>2026-04-26T14:11:43.997Z</time></trkpt><trkpt lat="45.70249996130946" lon="11.366361592249799"><ele>187.0</ele><time>2026-04-26T14:11:44.997Z</time></trkpt><trkpt lat="45.70242735399917" lon="11.36628161810178"><ele>187.0</ele><time>2026-04-26T14:11:45.997Z</time></trkpt><trkpt lat="45.702353421410365" lon="11.366213601097213"><ele>187.0</ele><time>2026-04-26T14:11:46.997Z</time></trkpt><trkpt lat="45.70228166538999" lon="11.366146886571887"><ele>187.0</ele><time>2026-04-26T14:11:47.997Z</time></trkpt><trkpt lat="45.7022118084288" lon="11.366079215565687"><ele>187.0</ele><time>2026-04-26T14:11:48.997Z</time></trkpt><trkpt lat="45.70214130188835" lon="11.366015884508467"><ele>187.0</ele><time>2026-04-26T14:11:49.997Z</time></trkpt><trkpt lat="45.70207823752558" lon="11.36595347154086"><ele>187.0</ele><time>2026-04-26T14:11:50.997Z</time></trkpt><trkpt lat="45.70202072990283" lon="11.365898315883072"><ele>187.0</ele><time>2026-04-26T14:11:51.997Z</time></trkpt><trkpt lat="45.70196530254162" lon="11.365845680383163"><ele>187.0</ele><time>2026-04-26T14:11:52.997Z</time></trkpt><trkpt lat="45.70191061798697" lon="11.365797331282414"><ele>187.0</ele><time>2026-04-26T14:11:53.997Z</time></trkpt><trkpt lat="45.701810168238644" lon="11.36570204267864"><ele>187.0</ele><time>2026-04-26T14:11:55.997Z</time></trkpt><trkpt lat="45.70172764370441" lon="11.365588077712138"><ele>187.0</ele><time>2026-04-26T14:11:57.997Z</time></trkpt><trkpt lat="45.70165300779378" lon="11.36545275057139"><ele>187.39999999999998</ele><time>2026-04-26T14:11:59.997Z</time></trkpt><trkpt lat="45.70154951537752" lon="11.365397710388882"><ele>187.79999999999998</ele><time>2026-04-26T14:12:01.997Z</time></trkpt><trkpt lat="45.70143823656769" lon="11.365463504977694"><ele>188.2</ele><time>2026-04-26T14:12:03.997Z</time></trkpt><trkpt lat="45.70138507575731" lon="11.365534077400442"><ele>188.6</ele><time>2026-04-26T14:12:04.997Z</time></trkpt><trkpt lat="45.70131556604704" lon="11.36560596451488"><ele>189.0</ele><time>2026-04-26T14:12:05.997Z</time></trkpt><trkpt lat="45.70123204505867" lon="11.365664770328632"><ele>189.0</ele><time>2026-04-26T14:12:06.997Z</time></trkpt><trkpt lat="45.70113733074881" lon="11.36570778305388"><ele>189.0</ele><time>2026-04-26T14:12:07.997Z</time></trkpt><trkpt lat="45.70103395741122" lon="11.365747262953619"><ele>189.0</ele><time>2026-04-26T14:12:08.997Z</time></trkpt><trkpt lat="45.70092271671871" lon="11.365797967294451"><ele>189.0</ele><time>2026-04-26T14:12:09.997Z</time></trkpt><trkpt lat="45.70080437849738" lon="11.365872429819126"><ele>189.25</ele><time>2026-04-26T14:12:10.997Z</time></trkpt><trkpt lat="45.700683573618086" lon="11.365961886340546"><ele>189.5</ele><time>2026-04-26T14:12:11.997Z</time></trkpt><trkpt lat="45.700558502522775" lon="11.366058859353624"><ele>189.75</ele><time>2026-04-26T14:12:12.996Z</time></trkpt><trkpt lat="45.70042701693147" lon="11.366159466523213"><ele>190.0</ele><time>2026-04-26T14:12:13.996Z</time></trkpt><trkpt lat="45.70029581631855" lon="11.366261295004078"><ele>189.66666666666669</ele><time>2026-04-26T14:12:14.996Z</time></trkpt><trkpt lat="45.70016036283995" lon="11.366361193581874"><ele>189.33333333333334</ele><time>2026-04-26T14:12:15.996Z</time></trkpt><trkpt lat="45.70002511808139" lon="11.366463993280934"><ele>189.0</ele><time>2026-04-26T14:12:16.996Z</time></trkpt><trkpt lat="45.69988920545499" lon="11.366563870650554"><ele>187.66666666666666</ele><time>2026-04-26T14:12:17.996Z</time></trkpt><trkpt lat="45.699757124975335" lon="11.366659881346417"><ele>186.33333333333331</ele><time>2026-04-26T14:12:18.996Z</time></trkpt><trkpt lat="45.699623701644164" lon="11.366756321454693"><ele>185.0</ele><time>2026-04-26T14:12:19.996Z</time></trkpt><trkpt lat="45.69948700627397" lon="11.366852281369262"><ele>185.0</ele><time>2026-04-26T14:12:20.996Z</time></trkpt><trkpt lat="45.699351189821584" lon="11.36695218173351"><ele>185.0</ele><time>2026-04-26T14:12:21.996Z</time></trkpt><trkpt lat="45.699217193219106" lon="11.367046588739662"><ele>185.0</ele><time>2026-04-26T14:12:22.996Z</time></trkpt><trkpt lat="45.6990877388838" lon="11.36713877676292"><ele>185.0</ele><time>2026-04-26T14:12:23.996Z</time></trkpt><trkpt lat="45.69896192198524" lon="11.36722632768178"><ele>185.25</ele><time>2026-04-26T14:12:24.996Z</time></trkpt><trkpt lat="45.69884057166459" lon="11.367313141886386"><ele>185.5</ele><time>2026-04-26T14:12:25.996Z</time></trkpt><trkpt lat="45.698725984798244" lon="11.367393700448842"><ele>185.75</ele><time>2026-04-26T14:12:26.996Z</time></trkpt><trkpt lat="45.698620218077046" lon="11.367472190156583"><ele>186.0</ele><time>2026-04-26T14:12:27.996Z</time></trkpt><trkpt lat="45.69851748859289" lon="11.36754399873186"><ele>186.25</ele><time>2026-04-26T14:12:28.996Z</time></trkpt><trkpt lat="45.698415629903536" lon="11.367615190999933"><ele>186.5</ele><time>2026-04-26T14:12:29.996Z</time></trkpt><trkpt lat="45.69831177183024" lon="11.367689413026978"><ele>186.75</ele><time>2026-04-26T14:12:30.996Z</time></trkpt><trkpt lat="45.698203922028966" lon="11.367764062840864"><ele>187.0</ele><time>2026-04-26T14:12:31.996Z</time></trkpt><trkpt lat="45.69809477853673" lon="11.367844126938621"><ele>187.0</ele><time>2026-04-26T14:12:32.996Z</time></trkpt><trkpt lat="45.69798478807637" lon="11.367929345751211"><ele>187.0</ele><time>2026-04-26T14:12:33.996Z</time></trkpt><trkpt lat="45.697875041971294" lon="11.36802442956437"><ele>187.0</ele><time>2026-04-26T14:12:34.996Z</time></trkpt><trkpt lat="45.69776640170551" lon="11.368118872313453"><ele>187.0</ele><time>2026-04-26T14:12:35.996Z</time></trkpt><trkpt lat="45.69765697806376" lon="11.36820963047148"><ele>186.5</ele><time>2026-04-26T14:12:36.996Z</time></trkpt><trkpt lat="45.697549674090844" lon="11.368306620145145"><ele>186.0</ele><time>2026-04-26T14:12:37.996Z</time></trkpt><trkpt lat="45.69744305920234" lon="11.368404975091016"><ele>185.5</ele><time>2026-04-26T14:12:38.996Z</time></trkpt><trkpt lat="45.69733812614454" lon="11.368503246963039"><ele>185.0</ele><time>2026-04-26T14:12:39.996Z</time></trkpt><trkpt lat="45.69723379415298" lon="11.368601416590746"><ele>185.0</ele><time>2026-04-26T14:12:40.996Z</time></trkpt><trkpt lat="45.69712859279942" lon="11.368702289837783"><ele>185.0</ele><time>2026-04-26T14:12:41.996Z</time></trkpt><trkpt lat="45.69702367231851" lon="11.36880645388444"><ele>185.0</ele><time>2026-04-26T14:12:42.996Z</time></trkpt><trkpt lat="45.696918156833576" lon="11.36891337495027"><ele>185.0</ele><time>2026-04-26T14:12:43.996Z</time></trkpt><trkpt lat="45.696810222645105" lon="11.369029442088449"><ele>184.5</ele><time>2026-04-26T14:12:44.996Z</time></trkpt><trkpt lat="45.69669521231958" lon="11.36915184938725"><ele>184.0</ele><time>2026-04-26T14:12:45.996Z</time></trkpt><trkpt lat="45.69657072372074" lon="11.369277094765096"><ele>183.5</ele><time>2026-04-26T14:12:46.996Z</time></trkpt><trkpt lat="45.6964462829579" lon="11.36940342920878"><ele>183.0</ele><time>2026-04-26T14:12:47.996Z</time></trkpt><trkpt lat="45.696326974389166" lon="11.369521609818836"><ele>183.0</ele><time>2026-04-26T14:12:48.996Z</time></trkpt><trkpt lat="45.69621481784078" lon="11.369633961180392"><ele>183.0</ele><time>2026-04-26T14:12:49.996Z</time></trkpt><trkpt lat="45.696107179451936" lon="11.369739288347986"><ele>183.0</ele><time>2026-04-26T14:12:50.996Z</time></trkpt><trkpt lat="45.69600620700862" lon="11.369838310211218"><ele>183.0</ele><time>2026-04-26T14:12:51.996Z</time></trkpt><trkpt lat="45.695907994343806" lon="11.369933723296489"><ele>182.4</ele><time>2026-04-26T14:12:52.996Z</time></trkpt><trkpt lat="45.69581282452613" lon="11.37002823184934"><ele>181.8</ele><time>2026-04-26T14:12:53.996Z</time></trkpt><trkpt lat="45.69572281039095" lon="11.370118361922652"><ele>181.2</ele><time>2026-04-26T14:12:54.996Z</time></trkpt><trkpt lat="45.69563951268294" lon="11.37020197119389"><ele>180.6</ele><time>2026-04-26T14:12:55.996Z</time></trkpt><trkpt lat="45.695562652060325" lon="11.370278914925624"><ele>180.0</ele><time>2026-04-26T14:12:56.996Z</time></trkpt><trkpt lat="45.69549134891039" lon="11.370351346131237"><ele>180.0</ele><time>2026-04-26T14:12:57.996Z</time></trkpt><trkpt lat="45.695428206216036" lon="11.370414485480216"><ele>180.0</ele><time>2026-04-26T14:12:58.996Z</time></trkpt><trkpt lat="45.6953714136996" lon="11.370475353618707"><ele>180.0</ele><time>2026-04-26T14:12:59.996Z</time></trkpt><trkpt lat="45.69532026066572" lon="11.370532096707885"><ele>180.0</ele><time>2026-04-26T14:13:00.996Z</time></trkpt><trkpt lat="45.695228590673985" lon="11.370622036561187"><ele>180.0</ele><time>2026-04-26T14:13:02.996Z</time></trkpt><trkpt lat="45.69514404404444" lon="11.37068759474903"><ele>180.0</ele><time>2026-04-26T14:13:04.996Z</time></trkpt><trkpt lat="45.69506270597628" lon="11.3707529725763"><ele>180.2</ele><time>2026-04-26T14:13:06.996Z</time></trkpt><trkpt lat="45.69497737075695" lon="11.370800192355876"><ele>180.4</ele><time>2026-04-26T14:13:08.996Z</time></trkpt><trkpt lat="45.69487327655864" lon="11.370779822446025"><ele>180.60000000000002</ele><time>2026-04-26T14:13:10.996Z</time></trkpt><trkpt lat="45.694774852320236" lon="11.370667528349003"><ele>180.8</ele><time>2026-04-26T14:13:12.996Z</time></trkpt><trkpt lat="45.694725787720614" lon="11.370601550497582"><ele>181.0</ele><time>2026-04-26T14:13:13.996Z</time></trkpt><trkpt lat="45.69467482647502" lon="11.370542517322406"><ele>181.16666666666669</ele><time>2026-04-26T14:13:14.996Z</time></trkpt><trkpt lat="45.6946223397727" lon="11.370475407952961"><ele>181.33333333333334</ele><time>2026-04-26T14:13:15.996Z</time></trkpt><trkpt lat="45.69457192876095" lon="11.370406306709567"><ele>181.5</ele><time>2026-04-26T14:13:16.996Z</time></trkpt><trkpt lat="45.69452481658525" lon="11.370341762917032"><ele>181.66666666666666</ele><time>2026-04-26T14:13:17.996Z</time></trkpt><trkpt lat="45.69443738872022" lon="11.370221401002258"><ele>181.83333333333331</ele><time>2026-04-26T14:13:19.996Z</time></trkpt><trkpt lat="45.69435952713266" lon="11.370106941652713"><ele>182.0</ele><time>2026-04-26T14:13:21.996Z</time></trkpt><trkpt lat="45.694287916857434" lon="11.370010560966366"><ele>182.0</ele><time>2026-04-26T14:13:23.996Z</time></trkpt><trkpt lat="45.69422997673471" lon="11.369912225608735"><ele>182.0</ele><time>2026-04-26T14:13:25.996Z</time></trkpt><trkpt lat="45.694169544192945" lon="11.369822793311535"><ele>182.0</ele><time>2026-04-26T14:13:27.996Z</time></trkpt><trkpt lat="45.69412150830706" lon="11.36972075987351"><ele>182.0</ele><time>2026-04-26T14:13:29.996Z</time></trkpt><trkpt lat="45.69406500017398" lon="11.369636734837375"><ele>182.0</ele><time>2026-04-26T14:13:31.996Z</time></trkpt><trkpt lat="45.69398928110007" lon="11.369664295827825"><ele>182.0</ele><time>2026-04-26T14:13:33.996Z</time></trkpt><trkpt lat="45.693887922564265" lon="11.369743256317909"><ele>182.0</ele><time>2026-04-26T14:13:35.996Z</time></trkpt><trkpt lat="45.69383270822636" lon="11.36979024354742"><ele>182.0</ele><time>2026-04-26T14:13:36.996Z</time></trkpt><trkpt lat="45.693778934878694" lon="11.369847661173225"><ele>182.0</ele><time>2026-04-26T14:13:37.996Z</time></trkpt><trkpt lat="45.69371932027928" lon="11.36989649240901"><ele>182.0</ele><time>2026-04-26T14:13:38.996Z</time></trkpt><trkpt lat="45.69365401691234" lon="11.369948588670567"><ele>182.0</ele><time>2026-04-26T14:13:39.996Z</time></trkpt><trkpt lat="45.69359405673084" lon="11.370007507103326"><ele>182.0</ele><time>2026-04-26T14:13:40.996Z</time></trkpt><trkpt lat="45.693533387362976" lon="11.370065299334803"><ele>182.0</ele><time>2026-04-26T14:13:41.996Z</time></trkpt><trkpt lat="45.693472112077345" lon="11.370126814541043"><ele>181.83333333333331</ele><time>2026-04-26T14:13:42.996Z</time></trkpt><trkpt lat="45.69341194353724" lon="11.370194517067869"><ele>181.66666666666666</ele><time>2026-04-26T14:13:43.996Z</time></trkpt><trkpt lat="45.69335210008491" lon="11.370267594425297"><ele>181.5</ele><time>2026-04-26T14:13:44.996Z</time></trkpt><trkpt lat="45.6932890042209" lon="11.370334921066597"><ele>181.33333333333334</ele><time>2026-04-26T14:13:45.996Z</time></trkpt><trkpt lat="45.693222655395715" lon="11.37040162745848"><ele>181.16666666666669</ele><time>2026-04-26T14:13:46.996Z</time></trkpt><trkpt lat="45.693153129932" lon="11.370470042547554"><ele>181.0</ele><time>2026-04-26T14:13:47.996Z</time></trkpt><trkpt lat="45.69307860960844" lon="11.370540744636248"><ele>181.0</ele><time>2026-04-26T14:13:48.996Z</time></trkpt><trkpt lat="45.69300505360741" lon="11.370618300953407"><ele>181.0</ele><time>2026-04-26T14:13:49.996Z</time></trkpt><trkpt lat="45.69292916778516" lon="11.370695938721434"><ele>181.0</ele><time>2026-04-26T14:13:50.996Z</time></trkpt><trkpt lat="45.69284856253567" lon="11.370776722090413"><ele>181.0</ele><time>2026-04-26T14:13:51.996Z</time></trkpt><trkpt lat="45.69277311049796" lon="11.370868210273075"><ele>181.0</ele><time>2026-04-26T14:13:52.996Z</time></trkpt><trkpt lat="45.69269239912346" lon="11.370946956560212"><ele>180.8</ele><time>2026-04-26T14:13:53.996Z</time></trkpt><trkpt lat="45.69261057296701" lon="11.37102912809844"><ele>180.60000000000002</ele><time>2026-04-26T14:13:54.996Z</time></trkpt><trkpt lat="45.692527047664335" lon="11.37110859194175"><ele>180.4</ele><time>2026-04-26T14:13:55.996Z</time></trkpt><trkpt lat="45.692442294690856" lon="11.37118315094328"><ele>180.2</ele><time>2026-04-26T14:13:56.995Z</time></trkpt><trkpt lat="45.692360263469176" lon="11.37125701983284"><ele>180.0</ele><time>2026-04-26T14:13:57.995Z</time></trkpt><trkpt lat="45.69228027167806" lon="11.371330175709902"><ele>179.6</ele><time>2026-04-26T14:13:58.997Z</time></trkpt><trkpt lat="45.69219638583622" lon="11.371408747737735"><ele>179.2</ele><time>2026-04-26T14:13:59.997Z</time></trkpt><trkpt lat="45.69210805292022" lon="11.371492154602489"><ele>178.8</ele><time>2026-04-26T14:14:00.997Z</time></trkpt><trkpt lat="45.692019330045824" lon="11.371577010221557"><ele>178.4</ele><time>2026-04-26T14:14:01.997Z</time></trkpt><trkpt lat="45.6919299915229" lon="11.371662627490837"><ele>178.0</ele><time>2026-04-26T14:14:02.997Z</time></trkpt><trkpt lat="45.691839999185504" lon="11.371746209261737"><ele>178.0</ele><time>2026-04-26T14:14:03.997Z</time></trkpt><trkpt lat="45.691750044306545" lon="11.371830982004738"><ele>178.0</ele><time>2026-04-26T14:14:04.998Z</time></trkpt><trkpt lat="45.69165989239894" lon="11.371920842333877"><ele>178.0</ele><time>2026-04-26T14:14:05.998Z</time></trkpt><trkpt lat="45.691569754143835" lon="11.372011801306076"><ele>178.0</ele><time>2026-04-26T14:14:06.998Z</time></trkpt><trkpt lat="45.69147747756938" lon="11.372097764102389"><ele>178.0</ele><time>2026-04-26T14:14:07.998Z</time></trkpt><trkpt lat="45.691384566021256" lon="11.372179707917102"><ele>177.60000000000002</ele><time>2026-04-26T14:14:08.998Z</time></trkpt><trkpt lat="45.69129158946479" lon="11.372256748278922"><ele>177.20000000000002</ele><time>2026-04-26T14:14:09.998Z</time></trkpt><trkpt lat="45.69119531210989" lon="11.372325052754224"><ele>176.8</ele><time>2026-04-26T14:14:10.998Z</time></trkpt><trkpt lat="45.6910978341579" lon="11.372389502836631"><ele>176.4</ele><time>2026-04-26T14:14:11.998Z</time></trkpt><trkpt lat="45.691001935812906" lon="11.372449456172514"><ele>176.0</ele><time>2026-04-26T14:14:12.998Z</time></trkpt><trkpt lat="45.69090990017618" lon="11.372501722895468"><ele>175.8</ele><time>2026-04-26T14:14:13.998Z</time></trkpt><trkpt lat="45.69082119582465" lon="11.372536750560318"><ele>175.60000000000002</ele><time>2026-04-26T14:14:14.998Z</time></trkpt><trkpt lat="45.69073365888796" lon="11.37257143235675"><ele>175.4</ele><time>2026-04-26T14:14:15.998Z</time></trkpt><trkpt lat="45.69064550576244" lon="11.372597696966048"><ele>175.2</ele><time>2026-04-26T14:14:16.998Z</time></trkpt><trkpt lat="45.690559393410254" lon="11.372630894633138"><ele>175.0</ele><time>2026-04-26T14:14:17.998Z</time></trkpt><trkpt lat="45.690471701175" lon="11.37266701602712"><ele>175.0</ele><time>2026-04-26T14:14:18.999Z</time></trkpt><trkpt lat="45.69038249083871" lon="11.372705255925053"><ele>175.0</ele><time>2026-04-26T14:14:19.999Z</time></trkpt><trkpt lat="45.69029349742987" lon="11.37274647195798"><ele>175.0</ele><time>2026-04-26T14:14:20.999Z</time></trkpt><trkpt lat="45.690206120413166" lon="11.372790395350034"><ele>175.0</ele><time>2026-04-26T14:14:21.999Z</time></trkpt><trkpt lat="45.69011839381835" lon="11.372830153472279"><ele>175.0</ele><time>2026-04-26T14:14:22.999Z</time></trkpt><trkpt lat="45.690030517864784" lon="11.372873171730555"><ele>174.83333333333334</ele><time>2026-04-26T14:14:23.999Z</time></trkpt><trkpt lat="45.68994747079687" lon="11.372910066898513"><ele>174.66666666666669</ele><time>2026-04-26T14:14:24.999Z</time></trkpt><trkpt lat="45.689867504918766" lon="11.372941089647153"><ele>174.5</ele><time>2026-04-26T14:14:25.999Z</time></trkpt><trkpt lat="45.689787212326536" lon="11.372972250672815"><ele>174.33333333333334</ele><time>2026-04-26T14:14:26.999Z</time></trkpt><trkpt lat="45.689704299927826" lon="11.373009864521595"><ele>174.16666666666666</ele><time>2026-04-26T14:14:27.999Z</time></trkpt><trkpt lat="45.68962289804077" lon="11.373046059200622"><ele>174.0</ele><time>2026-04-26T14:14:28.999Z</time></trkpt><trkpt lat="45.68954808341206" lon="11.373081219898882"><ele>174.0</ele><time>2026-04-26T14:14:29.999Z</time></trkpt><trkpt lat="45.68947681547048" lon="11.373111702250835"><ele>174.0</ele><time>2026-04-26T14:14:30.999Z</time></trkpt><trkpt lat="45.68941038722251" lon="11.373140826118833"><ele>174.0</ele><time>2026-04-26T14:14:31.999Z</time></trkpt><trkpt lat="45.689312920952496" lon="11.373181635492918"><ele>174.0</ele><time>2026-04-26T14:14:33.999Z</time></trkpt><trkpt lat="45.689251964379835" lon="11.373213324201462"><ele>174.0</ele><time>2026-04-26T14:14:37.999Z</time></trkpt><trkpt lat="45.689252366567366" lon="11.373310637505382"><ele>174.0</ele><time>2026-04-26T14:14:46.999Z</time></trkpt><trkpt lat="45.689252768844675" lon="11.373409907109838"><ele>174.0</ele><time>2026-04-26T14:14:51.999Z</time></trkpt><trkpt lat="45.689244275687614" lon="11.373503394804684"><ele>172.0</ele><time>2026-04-26T14:15:15.999Z</time></trkpt></trkseg></trk></gpx>